<?xml version='1.0' encoding='UTF-8'?><gpx version="1.1" creator="JPX - https://github.com/jenetics/jpx" xmlns="http://www.topografix.com/GPX/1/1"><trk><trkseg><trkpt lat="42.0208737" lon="2.4717804"><ele>909.9999999999999</ele><time>2026-04-11T07:55:59.814Z</time></trkpt><trkpt lat="42.0207964" lon="2.47186"><ele>910.0</ele><time>2026-04-11T07:56:03.004Z</time></trkpt><trkpt lat="42.0208643" lon="2.4718356"><ele>910.0</ele><time>2026-04-11T07:56:54.004Z</time></trkpt><trkpt lat="42.0209206" lon="2.4717337"><ele>910.0</ele><time>2026-04-11T07:56:56.004Z</time></trkpt><trkpt lat="42.0209564" lon="2.4716486"><ele>909.9999999999999</ele><time>2026-04-11T07:56:58.004Z</time></trkpt><trkpt lat="42.0209917" lon="2.4715605"><ele>910.0</ele><time>2026-04-11T07:57:00.004Z</time></trkpt><trkpt lat="42.0210292" lon="2.4714742"><ele>910.0</ele><time>2026-04-11T07:57:02.004Z</time></trkpt><trkpt lat="42.02106" lon="2.4713997"><ele>910.0</ele><time>2026-04-11T07:57:04.004Z</time></trkpt><trkpt lat="42.0211017" lon="2.4712867"><ele>910.0</ele><time>2026-04-11T07:57:07.004Z</time></trkpt><trkpt lat="42.021125" lon="2.4712033"><ele>910.0</ele><time>2026-04-11T07:57:09.004Z</time></trkpt><trkpt lat="42.0211583" lon="2.471115"><ele>910.0</ele><time>2026-04-11T07:57:11.004Z</time></trkpt><trkpt lat="42.02119" lon="2.4710267"><ele>910.0</ele><time>2026-04-11T07:57:13.004Z</time></trkpt><trkpt lat="42.0212133" lon="2.4709417"><ele>910.0</ele><time>2026-04-11T07:57:15.004Z</time></trkpt><trkpt lat="42.0212367" lon="2.4708533"><ele>905.8333333333333</ele><time>2026-04-11T07:57:17.004Z</time></trkpt><trkpt lat="42.0212633" lon="2.4707533"><ele>901.6666666666666</ele><time>2026-04-11T07:57:19.004Z</time></trkpt><trkpt lat="42.0212867" lon="2.470645"><ele>897.5</ele><time>2026-04-11T07:57:21.005Z</time></trkpt><trkpt lat="42.02129" lon="2.4705183"><ele>893.3333333333333</ele><time>2026-04-11T07:57:23.005Z</time></trkpt><trkpt lat="42.0212783" lon="2.470365"><ele>889.1666666666666</ele><time>2026-04-11T07:57:25.004Z</time></trkpt><trkpt lat="42.0212717" lon="2.47028"><ele>885.0</ele><time>2026-04-11T07:57:26.004Z</time></trkpt><trkpt lat="42.02125" lon="2.4701467"><ele>881.6</ele><time>2026-04-11T07:57:28.004Z</time></trkpt><trkpt lat="42.0212517" lon="2.4699983"><ele>878.2</ele><time>2026-04-11T07:57:30.004Z</time></trkpt><trkpt lat="42.021255" lon="2.46986"><ele>874.8</ele><time>2026-04-11T07:57:32.004Z</time></trkpt><trkpt lat="42.02126" lon="2.46973"><ele>871.4</ele><time>2026-04-11T07:57:34.004Z</time></trkpt><trkpt lat="42.02127" lon="2.469605"><ele>868.0</ele><time>2026-04-11T07:57:36.004Z</time></trkpt><trkpt lat="42.0213083" lon="2.4694883"><ele>865.6666666666666</ele><time>2026-04-11T07:57:38.004Z</time></trkpt><trkpt lat="42.0213717" lon="2.4693717"><ele>863.3333333333333</ele><time>2026-04-11T07:57:40.004Z</time></trkpt><trkpt lat="42.0214483" lon="2.4692767"><ele>861.0</ele><time>2026-04-11T07:57:42.004Z</time></trkpt><trkpt lat="42.02151" lon="2.4692033"><ele>858.6666666666667</ele><time>2026-04-11T07:57:44.004Z</time></trkpt><trkpt lat="42.0215783" lon="2.46917"><ele>856.3333333333334</ele><time>2026-04-11T07:57:46.004Z</time></trkpt><trkpt lat="42.0216567" lon="2.4691817"><ele>854.0</ele><time>2026-04-11T07:57:48.004Z</time></trkpt><trkpt lat="42.02173" lon="2.4692067"><ele>860.2</ele><time>2026-04-11T07:57:50.004Z</time></trkpt><trkpt lat="42.0217817" lon="2.4692567"><ele>866.4000000000001</ele><time>2026-04-11T07:57:51.004Z</time></trkpt><trkpt lat="42.0219" lon="2.4693267"><ele>872.6</ele><time>2026-04-11T07:57:53.004Z</time></trkpt><trkpt lat="42.0219883" lon="2.4693783"><ele>878.8</ele><time>2026-04-11T07:57:54.004Z</time></trkpt><trkpt lat="42.0220867" lon="2.46944"><ele>885.0</ele><time>2026-04-11T07:57:55.004Z</time></trkpt><trkpt lat="42.0222233" lon="2.4695033"><ele>885.0</ele><time>2026-04-11T07:57:56.004Z</time></trkpt><trkpt lat="42.0223483" lon="2.4695467"><ele>885.0</ele><time>2026-04-11T07:57:57.004Z</time></trkpt><trkpt lat="42.0224483" lon="2.4695833"><ele>885.0</ele><time>2026-04-11T07:57:58.004Z</time></trkpt><trkpt lat="42.022535" lon="2.4696083"><ele>885.0</ele><time>2026-04-11T07:57:59.004Z</time></trkpt><trkpt lat="42.0226217" lon="2.46963"><ele>885.0</ele><time>2026-04-11T07:58:00.004Z</time></trkpt><trkpt lat="42.022715" lon="2.469645"><ele>883.1428571428571</ele><time>2026-04-11T07:58:01.004Z</time></trkpt><trkpt lat="42.02279" lon="2.4696467"><ele>881.2857142857142</ele><time>2026-04-11T07:58:02.004Z</time></trkpt><trkpt lat="42.0228617" lon="2.4696367"><ele>879.4285714285714</ele><time>2026-04-11T07:58:03.004Z</time></trkpt><trkpt lat="42.02293" lon="2.4696067"><ele>877.5714285714286</ele><time>2026-04-11T07:58:04.004Z</time></trkpt><trkpt lat="42.0229833" lon="2.4695517"><ele>875.7142857142858</ele><time>2026-04-11T07:58:05.004Z</time></trkpt><trkpt lat="42.0230383" lon="2.469485"><ele>873.8571428571429</ele><time>2026-04-11T07:58:06.004Z</time></trkpt><trkpt lat="42.0230883" lon="2.469415"><ele>872.0</ele><time>2026-04-11T07:58:07.005Z</time></trkpt><trkpt lat="42.0231567" lon="2.469345"><ele>872.0000000000001</ele><time>2026-04-11T07:58:08.004Z</time></trkpt><trkpt lat="42.0232217" lon="2.4692883"><ele>872.0</ele><time>2026-04-11T07:58:09.004Z</time></trkpt><trkpt lat="42.0232783" lon="2.469235"><ele>872.0</ele><time>2026-04-11T07:58:10.005Z</time></trkpt><trkpt lat="42.0233417" lon="2.4691817"><ele>872.0</ele><time>2026-04-11T07:58:11.004Z</time></trkpt><trkpt lat="42.0234183" lon="2.4691333"><ele>872.0000000000001</ele><time>2026-04-11T07:58:12.004Z</time></trkpt><trkpt lat="42.0235" lon="2.469085"><ele>872.0</ele><time>2026-04-11T07:58:13.004Z</time></trkpt><trkpt lat="42.0235783" lon="2.4690383"><ele>871.8571428571429</ele><time>2026-04-11T07:58:14.004Z</time></trkpt><trkpt lat="42.0236483" lon="2.4690117"><ele>871.7142857142858</ele><time>2026-04-11T07:58:15.004Z</time></trkpt><trkpt lat="42.0237167" lon="2.4689967"><ele>871.5714285714286</ele><time>2026-04-11T07:58:16.005Z</time></trkpt><trkpt lat="42.0237917" lon="2.4689933"><ele>871.4285714285714</ele><time>2026-04-11T07:58:17.004Z</time></trkpt><trkpt lat="42.0238733" lon="2.4690067"><ele>871.2857142857142</ele><time>2026-04-11T07:58:18.004Z</time></trkpt><trkpt lat="42.0239483" lon="2.4690217"><ele>871.1428571428571</ele><time>2026-04-11T07:58:19.004Z</time></trkpt><trkpt lat="42.02402" lon="2.4690267"><ele>871.0</ele><time>2026-04-11T07:58:20.004Z</time></trkpt><trkpt lat="42.02412" lon="2.4689667"><ele>872.8</ele><time>2026-04-11T07:58:22.004Z</time></trkpt><trkpt lat="42.0241733" lon="2.4687917"><ele>874.5999999999999</ele><time>2026-04-11T07:58:24.004Z</time></trkpt><trkpt lat="42.0241867" lon="2.46867"><ele>876.4</ele><time>2026-04-11T07:58:25.004Z</time></trkpt><trkpt lat="42.024205" lon="2.4685567"><ele>878.2</ele><time>2026-04-11T07:58:26.004Z</time></trkpt><trkpt lat="42.02424" lon="2.4684433"><ele>880.0</ele><time>2026-04-11T07:58:27.004Z</time></trkpt><trkpt lat="42.0242867" lon="2.4683417"><ele>875.4999999999999</ele><time>2026-04-11T07:58:28.004Z</time></trkpt><trkpt lat="42.0243283" lon="2.4682533"><ele>871.0</ele><time>2026-04-11T07:58:29.004Z</time></trkpt><trkpt lat="42.024375" lon="2.4681667"><ele>866.5</ele><time>2026-04-11T07:58:30.004Z</time></trkpt><trkpt lat="42.024435" lon="2.4680883"><ele>862.0</ele><time>2026-04-11T07:58:31.004Z</time></trkpt><trkpt lat="42.0245033" lon="2.4680267"><ele>857.4999999999999</ele><time>2026-04-11T07:58:32.004Z</time></trkpt><trkpt lat="42.0245883" lon="2.467995"><ele>853.0</ele><time>2026-04-11T07:58:33.003Z</time></trkpt><trkpt lat="42.0246633" lon="2.4679567"><ele>853.6666666666666</ele><time>2026-04-11T07:58:34.003Z</time></trkpt><trkpt lat="42.024735" lon="2.467925"><ele>854.3333333333333</ele><time>2026-04-11T07:58:35.003Z</time></trkpt><trkpt lat="42.0248117" lon="2.4678967"><ele>855.0</ele><time>2026-04-11T07:58:36.003Z</time></trkpt><trkpt lat="42.0248933" lon="2.4678667"><ele>855.6666666666667</ele><time>2026-04-11T07:58:37.003Z</time></trkpt><trkpt lat="42.02497" lon="2.4678367"><ele>856.3333333333334</ele><time>2026-04-11T07:58:38.003Z</time></trkpt><trkpt lat="42.0250383" lon="2.4678067"><ele>857.0</ele><time>2026-04-11T07:58:39.004Z</time></trkpt><trkpt lat="42.0251133" lon="2.46777"><ele>857.0</ele><time>2026-04-11T07:58:40.003Z</time></trkpt><trkpt lat="42.0251767" lon="2.4677133"><ele>857.0</ele><time>2026-04-11T07:58:41.003Z</time></trkpt><trkpt lat="42.025235" lon="2.4676367"><ele>857.0</ele><time>2026-04-11T07:58:42.003Z</time></trkpt><trkpt lat="42.02528" lon="2.4675567"><ele>857.0</ele><time>2026-04-11T07:58:43.003Z</time></trkpt><trkpt lat="42.0252867" lon="2.4674133"><ele>857.0</ele><time>2026-04-11T07:58:45.003Z</time></trkpt><trkpt lat="42.025205" lon="2.4673033"><ele>857.0000000000001</ele><time>2026-04-11T07:58:47.003Z</time></trkpt><trkpt lat="42.0251567" lon="2.467245"><ele>857.0</ele><time>2026-04-11T07:58:48.003Z</time></trkpt><trkpt lat="42.0251083" lon="2.467185"><ele>857.0</ele><time>2026-04-11T07:58:49.003Z</time></trkpt><trkpt lat="42.0250117" lon="2.4670967"><ele>857.0</ele><time>2026-04-11T07:58:51.003Z</time></trkpt><trkpt lat="42.02494" lon="2.4670233"><ele>857.0000000000001</ele><time>2026-04-11T07:58:53.003Z</time></trkpt><trkpt lat="42.0249233" lon="2.46692"><ele>857.0</ele><time>2026-04-11T07:58:56.003Z</time></trkpt><trkpt lat="42.024955" lon="2.46681"><ele>855.8333333333334</ele><time>2026-04-11T07:58:59.003Z</time></trkpt><trkpt lat="42.0249317" lon="2.46672"><ele>854.6666666666667</ele><time>2026-04-11T07:59:01.003Z</time></trkpt><trkpt lat="42.0248633" lon="2.466655"><ele>853.5</ele><time>2026-04-11T07:59:03.003Z</time></trkpt><trkpt lat="42.024795" lon="2.46652"><ele>852.3333333333333</ele><time>2026-04-11T07:59:05.003Z</time></trkpt><trkpt lat="42.0247683" lon="2.4664417"><ele>851.1666666666666</ele><time>2026-04-11T07:59:06.003Z</time></trkpt><trkpt lat="42.0247233" lon="2.4663267"><ele>850.0</ele><time>2026-04-11T07:59:08.003Z</time></trkpt><trkpt lat="42.0247533" lon="2.4662083"><ele>849.9999999999999</ele><time>2026-04-11T07:59:11.003Z</time></trkpt><trkpt lat="42.0248217" lon="2.4662533"><ele>850.0</ele><time>2026-04-11T07:59:13.003Z</time></trkpt><trkpt lat="42.0249033" lon="2.466355"><ele>850.0</ele><time>2026-04-11T07:59:15.003Z</time></trkpt><trkpt lat="42.0249583" lon="2.466405"><ele>850.0</ele><time>2026-04-11T07:59:16.003Z</time></trkpt><trkpt lat="42.0250283" lon="2.4664433"><ele>849.9999999999999</ele><time>2026-04-11T07:59:17.003Z</time></trkpt><trkpt lat="42.0250983" lon="2.466465"><ele>850.0</ele><time>2026-04-11T07:59:18.003Z</time></trkpt><trkpt lat="42.0251633" lon="2.466475"><ele>851.8333333333333</ele><time>2026-04-11T07:59:19.003Z</time></trkpt><trkpt lat="42.0252267" lon="2.46649"><ele>853.6666666666666</ele><time>2026-04-11T07:59:20.003Z</time></trkpt><trkpt lat="42.02536" lon="2.4664967"><ele>855.5</ele><time>2026-04-11T07:59:22.003Z</time></trkpt><trkpt lat="42.0254267" lon="2.4664633"><ele>857.3333333333333</ele><time>2026-04-11T07:59:23.003Z</time></trkpt><trkpt lat="42.02549" lon="2.4664333"><ele>859.1666666666666</ele><time>2026-04-11T07:59:24.003Z</time></trkpt><trkpt lat="42.0255583" lon="2.4663933"><ele>861.0</ele><time>2026-04-11T07:59:25.003Z</time></trkpt><trkpt lat="42.0256117" lon="2.466335"><ele>858.5</ele><time>2026-04-11T07:59:26.004Z</time></trkpt><trkpt lat="42.0256733" lon="2.466255"><ele>856.0</ele><time>2026-04-11T07:59:27.003Z</time></trkpt><trkpt lat="42.0257217" lon="2.4661583"><ele>853.5</ele><time>2026-04-11T07:59:28.003Z</time></trkpt><trkpt lat="42.0257483" lon="2.46605"><ele>851.0</ele><time>2026-04-11T07:59:29.003Z</time></trkpt><trkpt lat="42.0257817" lon="2.4659467"><ele>848.5</ele><time>2026-04-11T07:59:30.003Z</time></trkpt><trkpt lat="42.02581" lon="2.4658483"><ele>846.0</ele><time>2026-04-11T07:59:31.003Z</time></trkpt><trkpt lat="42.02584" lon="2.4657533"><ele>846.0</ele><time>2026-04-11T07:59:32.003Z</time></trkpt><trkpt lat="42.025865" lon="2.4656583"><ele>846.0</ele><time>2026-04-11T07:59:33.003Z</time></trkpt><trkpt lat="42.025895" lon="2.4655767"><ele>846.0</ele><time>2026-04-11T07:59:34.003Z</time></trkpt><trkpt lat="42.02592" lon="2.4654967"><ele>846.0</ele><time>2026-04-11T07:59:35.003Z</time></trkpt><trkpt lat="42.0259483" lon="2.46534"><ele>846.0</ele><time>2026-04-11T07:59:37.003Z</time></trkpt><trkpt lat="42.0259733" lon="2.46526"><ele>846.0</ele><time>2026-04-11T07:59:38.003Z</time></trkpt><trkpt lat="42.0259967" lon="2.46518"><ele>845.4</ele><time>2026-04-11T07:59:39.003Z</time></trkpt><trkpt lat="42.0260367" lon="2.46502"><ele>844.8</ele><time>2026-04-11T07:59:41.003Z</time></trkpt><trkpt lat="42.02607" lon="2.464925"><ele>844.1999999999999</ele><time>2026-04-11T07:59:42.003Z</time></trkpt><trkpt lat="42.026095" lon="2.4648183"><ele>843.5999999999999</ele><time>2026-04-11T07:59:43.004Z</time></trkpt><trkpt lat="42.0261267" lon="2.464705"><ele>843.0</ele><time>2026-04-11T07:59:44.003Z</time></trkpt><trkpt lat="42.02616" lon="2.4645967"><ele>845.4</ele><time>2026-04-11T07:59:45.003Z</time></trkpt><trkpt lat="42.0261917" lon="2.4644867"><ele>847.8</ele><time>2026-04-11T07:59:46.003Z</time></trkpt><trkpt lat="42.026225" lon="2.4643717"><ele>850.2</ele><time>2026-04-11T07:59:47.003Z</time></trkpt><trkpt lat="42.0262717" lon="2.464265"><ele>852.6</ele><time>2026-04-11T07:59:48.003Z</time></trkpt><trkpt lat="42.0263233" lon="2.4641517"><ele>855.0</ele><time>2026-04-11T07:59:49.003Z</time></trkpt><trkpt lat="42.0264017" lon="2.4640517"><ele>855.0</ele><time>2026-04-11T07:59:50.003Z</time></trkpt><trkpt lat="42.02649" lon="2.4639583"><ele>855.0</ele><time>2026-04-11T07:59:51.003Z</time></trkpt><trkpt lat="42.0265833" lon="2.463885"><ele>855.0</ele><time>2026-04-11T07:59:52.003Z</time></trkpt><trkpt lat="42.0266783" lon="2.463805"><ele>855.0</ele><time>2026-04-11T07:59:53.003Z</time></trkpt><trkpt lat="42.026785" lon="2.4637383"><ele>856.75</ele><time>2026-04-11T07:59:54.003Z</time></trkpt><trkpt lat="42.026905" lon="2.46368"><ele>858.5</ele><time>2026-04-11T07:59:55.003Z</time></trkpt><trkpt lat="42.027035" lon="2.4636617"><ele>860.25</ele><time>2026-04-11T07:59:56.003Z</time></trkpt><trkpt lat="42.027155" lon="2.4636367"><ele>862.0</ele><time>2026-04-11T07:59:57.003Z</time></trkpt><trkpt lat="42.027295" lon="2.463615"><ele>862.0</ele><time>2026-04-11T07:59:58.003Z</time></trkpt><trkpt lat="42.0274183" lon="2.4635783"><ele>862.0</ele><time>2026-04-11T07:59:59.003Z</time></trkpt><trkpt lat="42.0275367" lon="2.463565"><ele>862.0</ele><time>2026-04-11T08:00:00.003Z</time></trkpt><trkpt lat="42.0276517" lon="2.4635967"><ele>862.0</ele><time>2026-04-11T08:00:01.003Z</time></trkpt><trkpt lat="42.0277717" lon="2.46363"><ele>861.75</ele><time>2026-04-11T08:00:02.003Z</time></trkpt><trkpt lat="42.027885" lon="2.4636567"><ele>861.5</ele><time>2026-04-11T08:00:03.003Z</time></trkpt><trkpt lat="42.0280083" lon="2.4636933"><ele>861.25</ele><time>2026-04-11T08:00:04.003Z</time></trkpt><trkpt lat="42.0281317" lon="2.4636933"><ele>861.0</ele><time>2026-04-11T08:00:05.004Z</time></trkpt><trkpt lat="42.0282633" lon="2.4636717"><ele>861.25</ele><time>2026-04-11T08:00:06.003Z</time></trkpt><trkpt lat="42.028395" lon="2.46363"><ele>861.5</ele><time>2026-04-11T08:00:07.003Z</time></trkpt><trkpt lat="42.028525" lon="2.46357"><ele>861.75</ele><time>2026-04-11T08:00:08.003Z</time></trkpt><trkpt lat="42.028645" lon="2.4634833"><ele>862.0</ele><time>2026-04-11T08:00:09.003Z</time></trkpt><trkpt lat="42.0287733" lon="2.4633733"><ele>862.0</ele><time>2026-04-11T08:00:10.003Z</time></trkpt><trkpt lat="42.0288917" lon="2.4632633"><ele>862.0</ele><time>2026-04-11T08:00:11.003Z</time></trkpt><trkpt lat="42.0289883" lon="2.4631433"><ele>862.0</ele><time>2026-04-11T08:00:12.003Z</time></trkpt><trkpt lat="42.0290683" lon="2.4629967"><ele>862.0</ele><time>2026-04-11T08:00:13.003Z</time></trkpt><trkpt lat="42.0291267" lon="2.4628517"><ele>863.25</ele><time>2026-04-11T08:00:14.003Z</time></trkpt><trkpt lat="42.02918" lon="2.462695"><ele>864.5</ele><time>2026-04-11T08:00:15.003Z</time></trkpt><trkpt lat="42.02922" lon="2.4625233"><ele>865.75</ele><time>2026-04-11T08:00:16.003Z</time></trkpt><trkpt lat="42.0292633" lon="2.4623483"><ele>867.0</ele><time>2026-04-11T08:00:17.003Z</time></trkpt><trkpt lat="42.0292967" lon="2.4621817"><ele>867.6</ele><time>2026-04-11T08:00:18.003Z</time></trkpt><trkpt lat="42.0293283" lon="2.4620333"><ele>868.2</ele><time>2026-04-11T08:00:19.003Z</time></trkpt><trkpt lat="42.0293517" lon="2.461905"><ele>868.8</ele><time>2026-04-11T08:00:20.003Z</time></trkpt><trkpt lat="42.0293967" lon="2.4617967"><ele>869.4</ele><time>2026-04-11T08:00:21.003Z</time></trkpt><trkpt lat="42.0294617" lon="2.4616983"><ele>870.0</ele><time>2026-04-11T08:00:22.003Z</time></trkpt><trkpt lat="42.0295317" lon="2.4616067"><ele>870.0</ele><time>2026-04-11T08:00:23.003Z</time></trkpt><trkpt lat="42.02962" lon="2.4615417"><ele>870.0</ele><time>2026-04-11T08:00:24.003Z</time></trkpt><trkpt lat="42.02974" lon="2.4615017"><ele>870.0</ele><time>2026-04-11T08:00:25.003Z</time></trkpt><trkpt lat="42.0298667" lon="2.461475"><ele>870.0</ele><time>2026-04-11T08:00:26.003Z</time></trkpt><trkpt lat="42.029995" lon="2.461455"><ele>872.0</ele><time>2026-04-11T08:00:27.003Z</time></trkpt><trkpt lat="42.0301267" lon="2.4614417"><ele>874.0</ele><time>2026-04-11T08:00:28.003Z</time></trkpt><trkpt lat="42.0302917" lon="2.4614433"><ele>876.0</ele><time>2026-04-11T08:00:29.003Z</time></trkpt><trkpt lat="42.0304517" lon="2.4614367"><ele>876.0</ele><time>2026-04-11T08:00:30.003Z</time></trkpt><trkpt lat="42.0306117" lon="2.46143"><ele>876.0</ele><time>2026-04-11T08:00:31.003Z</time></trkpt><trkpt lat="42.030765" lon="2.4614217"><ele>876.0</ele><time>2026-04-11T08:00:32.003Z</time></trkpt><trkpt lat="42.0309167" lon="2.4614133"><ele>877.0</ele><time>2026-04-11T08:00:33.003Z</time></trkpt><trkpt lat="42.03107" lon="2.4614083"><ele>878.0</ele><time>2026-04-11T08:00:34.003Z</time></trkpt><trkpt lat="42.031225" lon="2.4614033"><ele>879.0</ele><time>2026-04-11T08:00:35.003Z</time></trkpt><trkpt lat="42.0313817" lon="2.4613833"><ele>879.0</ele><time>2026-04-11T08:00:36.003Z</time></trkpt><trkpt lat="42.03154" lon="2.461385"><ele>879.0</ele><time>2026-04-11T08:00:37.003Z</time></trkpt><trkpt lat="42.031695" lon="2.46137"><ele>879.0</ele><time>2026-04-11T08:00:38.003Z</time></trkpt><trkpt lat="42.03185" lon="2.4613617"><ele>879.6666666666667</ele><time>2026-04-11T08:00:39.003Z</time></trkpt><trkpt lat="42.03201" lon="2.46136"><ele>880.3333333333334</ele><time>2026-04-11T08:00:40.004Z</time></trkpt><trkpt lat="42.0321717" lon="2.4613633"><ele>881.0</ele><time>2026-04-11T08:00:41.003Z</time></trkpt><trkpt lat="42.0323283" lon="2.4613717"><ele>881.5</ele><time>2026-04-11T08:00:42.003Z</time></trkpt><trkpt lat="42.0324817" lon="2.46137"><ele>882.0</ele><time>2026-04-11T08:00:43.003Z</time></trkpt><trkpt lat="42.0326267" lon="2.4613533"><ele>882.5</ele><time>2026-04-11T08:00:44.003Z</time></trkpt><trkpt lat="42.0327667" lon="2.4613117"><ele>883.0</ele><time>2026-04-11T08:00:45.004Z</time></trkpt><trkpt lat="42.0328767" lon="2.4612267"><ele>881.5999999999999</ele><time>2026-04-11T08:00:46.003Z</time></trkpt><trkpt lat="42.03297" lon="2.4611283"><ele>880.1999999999999</ele><time>2026-04-11T08:00:47.003Z</time></trkpt><trkpt lat="42.03306" lon="2.4610233"><ele>878.8</ele><time>2026-04-11T08:00:48.003Z</time></trkpt><trkpt lat="42.0331533" lon="2.4609433"><ele>877.4</ele><time>2026-04-11T08:00:49.003Z</time></trkpt><trkpt lat="42.0332467" lon="2.4608967"><ele>876.0</ele><time>2026-04-11T08:00:50.004Z</time></trkpt><trkpt lat="42.0333583" lon="2.4609233"><ele>876.0</ele><time>2026-04-11T08:00:51.003Z</time></trkpt><trkpt lat="42.0334333" lon="2.4609867"><ele>876.0</ele><time>2026-04-11T08:00:52.003Z</time></trkpt><trkpt lat="42.0334883" lon="2.461065"><ele>876.0</ele><time>2026-04-11T08:00:53.003Z</time></trkpt><trkpt lat="42.0335083" lon="2.4611483"><ele>876.0</ele><time>2026-04-11T08:00:54.003Z</time></trkpt><trkpt lat="42.0335783" lon="2.4612417"><ele>876.0</ele><time>2026-04-11T08:00:56.003Z</time></trkpt><trkpt lat="42.033645" lon="2.4612367"><ele>876.0</ele><time>2026-04-11T08:00:57.003Z</time></trkpt><trkpt lat="42.03372" lon="2.4612033"><ele>876.0</ele><time>2026-04-11T08:00:58.004Z</time></trkpt><trkpt lat="42.033815" lon="2.46115"><ele>876.0</ele><time>2026-04-11T08:00:59.003Z</time></trkpt><trkpt lat="42.0339367" lon="2.4610683"><ele>876.0</ele><time>2026-04-11T08:01:00.003Z</time></trkpt><trkpt lat="42.0340667" lon="2.46099"><ele>876.0</ele><time>2026-04-11T08:01:01.003Z</time></trkpt><trkpt lat="42.0341883" lon="2.4608983"><ele>876.75</ele><time>2026-04-11T08:01:02.003Z</time></trkpt><trkpt lat="42.034325" lon="2.4608117"><ele>877.5</ele><time>2026-04-11T08:01:03.003Z</time></trkpt><trkpt lat="42.0344467" lon="2.4607267"><ele>878.25</ele><time>2026-04-11T08:01:04.003Z</time></trkpt><trkpt lat="42.0345683" lon="2.4606383"><ele>879.0</ele><time>2026-04-11T08:01:05.003Z</time></trkpt><trkpt lat="42.0346783" lon="2.460535"><ele>877.25</ele><time>2026-04-11T08:01:06.003Z</time></trkpt><trkpt lat="42.0347767" lon="2.4604267"><ele>875.5</ele><time>2026-04-11T08:01:07.003Z</time></trkpt><trkpt lat="42.0348367" lon="2.4602717"><ele>873.75</ele><time>2026-04-11T08:01:08.003Z</time></trkpt><trkpt lat="42.03487" lon="2.4600883"><ele>872.0</ele><time>2026-04-11T08:01:09.003Z</time></trkpt><trkpt lat="42.034885" lon="2.4598967"><ele>872.0</ele><time>2026-04-11T08:01:10.004Z</time></trkpt><trkpt lat="42.03485" lon="2.4597"><ele>872.0</ele><time>2026-04-11T08:01:11.003Z</time></trkpt><trkpt lat="42.0347817" lon="2.4595067"><ele>872.0</ele><time>2026-04-11T08:01:12.003Z</time></trkpt><trkpt lat="42.0347083" lon="2.4593167"><ele>872.3333333333334</ele><time>2026-04-11T08:01:13.003Z</time></trkpt><trkpt lat="42.0346283" lon="2.459125"><ele>872.6666666666667</ele><time>2026-04-11T08:01:14.003Z</time></trkpt><trkpt lat="42.0345533" lon="2.45893"><ele>873.0</ele><time>2026-04-11T08:01:15.003Z</time></trkpt><trkpt lat="42.0344817" lon="2.4587283"><ele>874.0</ele><time>2026-04-11T08:01:16.003Z</time></trkpt><trkpt lat="42.0344083" lon="2.4585117"><ele>875.0</ele><time>2026-04-11T08:01:17.003Z</time></trkpt><trkpt lat="42.0343333" lon="2.4583033"><ele>876.0</ele><time>2026-04-11T08:01:18.003Z</time></trkpt><trkpt lat="42.0342617" lon="2.4581"><ele>875.0</ele><time>2026-04-11T08:01:19.003Z</time></trkpt><trkpt lat="42.0341833" lon="2.4578933"><ele>874.0</ele><time>2026-04-11T08:01:20.003Z</time></trkpt><trkpt lat="42.0341067" lon="2.4576883"><ele>873.0</ele><time>2026-04-11T08:01:21.003Z</time></trkpt><trkpt lat="42.0340317" lon="2.4574767"><ele>873.0</ele><time>2026-04-11T08:01:22.003Z</time></trkpt><trkpt lat="42.033955" lon="2.45727"><ele>873.0</ele><time>2026-04-11T08:01:23.003Z</time></trkpt><trkpt lat="42.0338767" lon="2.4570617"><ele>873.0</ele><time>2026-04-11T08:01:24.003Z</time></trkpt><trkpt lat="42.033805" lon="2.4568617"><ele>874.3333333333333</ele><time>2026-04-11T08:01:25.003Z</time></trkpt><trkpt lat="42.033735" lon="2.456665"><ele>875.6666666666666</ele><time>2026-04-11T08:01:26.003Z</time></trkpt><trkpt lat="42.0336633" lon="2.4564717"><ele>877.0</ele><time>2026-04-11T08:01:27.003Z</time></trkpt><trkpt lat="42.0335933" lon="2.45628"><ele>878.0</ele><time>2026-04-11T08:01:28.003Z</time></trkpt><trkpt lat="42.0335183" lon="2.4560867"><ele>879.0</ele><time>2026-04-11T08:01:29.004Z</time></trkpt><trkpt lat="42.03344" lon="2.4559033"><ele>880.0</ele><time>2026-04-11T08:01:30.003Z</time></trkpt><trkpt lat="42.0333383" lon="2.4557317"><ele>879.6666666666666</ele><time>2026-04-11T08:01:31.003Z</time></trkpt><trkpt lat="42.0332167" lon="2.45559"><ele>879.3333333333333</ele><time>2026-04-11T08:01:32.003Z</time></trkpt><trkpt lat="42.0330733" lon="2.45549"><ele>879.0</ele><time>2026-04-11T08:01:33.003Z</time></trkpt><trkpt lat="42.032925" lon="2.4554317"><ele>878.3333333333333</ele><time>2026-04-11T08:01:34.003Z</time></trkpt><trkpt lat="42.0327617" lon="2.4553883"><ele>877.6666666666666</ele><time>2026-04-11T08:01:35.004Z</time></trkpt><trkpt lat="42.032595" lon="2.4553583"><ele>877.0</ele><time>2026-04-11T08:01:36.003Z</time></trkpt><trkpt lat="42.0324033" lon="2.4553283"><ele>878.6666666666666</ele><time>2026-04-11T08:01:37.003Z</time></trkpt><trkpt lat="42.03222" lon="2.4553033"><ele>880.3333333333333</ele><time>2026-04-11T08:01:38.003Z</time></trkpt><trkpt lat="42.032035" lon="2.455275"><ele>882.0</ele><time>2026-04-11T08:01:39.003Z</time></trkpt><trkpt lat="42.03186" lon="2.4552367"><ele>882.0</ele><time>2026-04-11T08:01:40.003Z</time></trkpt><trkpt lat="42.0316883" lon="2.4552133"><ele>882.0</ele><time>2026-04-11T08:01:41.004Z</time></trkpt><trkpt lat="42.0315217" lon="2.4551833"><ele>882.0</ele><time>2026-04-11T08:01:42.004Z</time></trkpt><trkpt lat="42.0313583" lon="2.45515"><ele>885.6666666666667</ele><time>2026-04-11T08:01:43.003Z</time></trkpt><trkpt lat="42.0311983" lon="2.4551067"><ele>889.3333333333334</ele><time>2026-04-11T08:01:44.003Z</time></trkpt><trkpt lat="42.0310417" lon="2.4550267"><ele>893.0</ele><time>2026-04-11T08:01:45.003Z</time></trkpt><trkpt lat="42.0308967" lon="2.4549183"><ele>894.3333333333334</ele><time>2026-04-11T08:01:46.003Z</time></trkpt><trkpt lat="42.0307683" lon="2.4547883"><ele>895.6666666666667</ele><time>2026-04-11T08:01:47.003Z</time></trkpt><trkpt lat="42.0306533" lon="2.454655"><ele>897.0</ele><time>2026-04-11T08:01:48.003Z</time></trkpt><trkpt lat="42.0305333" lon="2.4545033"><ele>897.0</ele><time>2026-04-11T08:01:49.003Z</time></trkpt><trkpt lat="42.030435" lon="2.4543233"><ele>897.0</ele><time>2026-04-11T08:01:50.003Z</time></trkpt><trkpt lat="42.030355" lon="2.4541233"><ele>897.0</ele><time>2026-04-11T08:01:51.003Z</time></trkpt><trkpt lat="42.0303033" lon="2.4539017"><ele>897.0</ele><time>2026-04-11T08:01:52.003Z</time></trkpt><trkpt lat="42.030305" lon="2.4536783"><ele>897.0</ele><time>2026-04-11T08:01:53.003Z</time></trkpt><trkpt lat="42.0303167" lon="2.453445"><ele>897.0</ele><time>2026-04-11T08:01:54.003Z</time></trkpt><trkpt lat="42.0303233" lon="2.45322"><ele>897.0</ele><time>2026-04-11T08:01:55.003Z</time></trkpt><trkpt lat="42.0303267" lon="2.453005"><ele>897.0</ele><time>2026-04-11T08:01:56.004Z</time></trkpt><trkpt lat="42.0303383" lon="2.452775"><ele>897.0</ele><time>2026-04-11T08:01:57.003Z</time></trkpt><trkpt lat="42.0303467" lon="2.4525383"><ele>899.0</ele><time>2026-04-11T08:01:58.003Z</time></trkpt><trkpt lat="42.0303617" lon="2.4522983"><ele>901.0</ele><time>2026-04-11T08:01:59.003Z</time></trkpt><trkpt lat="42.0303867" lon="2.4520567"><ele>903.0</ele><time>2026-04-11T08:02:00.003Z</time></trkpt><trkpt lat="42.0304267" lon="2.451825"><ele>907.0</ele><time>2026-04-11T08:02:01.003Z</time></trkpt><trkpt lat="42.0305133" lon="2.4516067"><ele>911.0</ele><time>2026-04-11T08:02:02.003Z</time></trkpt><trkpt lat="42.0305983" lon="2.4513833"><ele>915.0</ele><time>2026-04-11T08:02:03.003Z</time></trkpt><trkpt lat="42.0306633" lon="2.4511617"><ele>918.6666666666667</ele><time>2026-04-11T08:02:04.003Z</time></trkpt><trkpt lat="42.0307267" lon="2.45095"><ele>922.3333333333334</ele><time>2026-04-11T08:02:05.003Z</time></trkpt><trkpt lat="42.0307683" lon="2.45075"><ele>926.0</ele><time>2026-04-11T08:02:06.003Z</time></trkpt><trkpt lat="42.030795" lon="2.4505567"><ele>926.0</ele><time>2026-04-11T08:02:07.003Z</time></trkpt><trkpt lat="42.030785" lon="2.4503583"><ele>926.0</ele><time>2026-04-11T08:02:08.004Z</time></trkpt><trkpt lat="42.03076" lon="2.4501583"><ele>926.0</ele><time>2026-04-11T08:02:09.003Z</time></trkpt><trkpt lat="42.0307067" lon="2.4499633"><ele>926.0</ele><time>2026-04-11T08:02:10.003Z</time></trkpt><trkpt lat="42.030655" lon="2.4497583"><ele>926.0</ele><time>2026-04-11T08:02:11.003Z</time></trkpt><trkpt lat="42.0305983" lon="2.44955"><ele>926.0</ele><time>2026-04-11T08:02:12.003Z</time></trkpt><trkpt lat="42.0305383" lon="2.4493233"><ele>926.6666666666667</ele><time>2026-04-11T08:02:13.003Z</time></trkpt><trkpt lat="42.0304917" lon="2.4491067"><ele>927.3333333333333</ele><time>2026-04-11T08:02:14.003Z</time></trkpt><trkpt lat="42.0304567" lon="2.4488833"><ele>928.0</ele><time>2026-04-11T08:02:15.003Z</time></trkpt><trkpt lat="42.030425" lon="2.4486467"><ele>928.0</ele><time>2026-04-11T08:02:16.003Z</time></trkpt><trkpt lat="42.0304083" lon="2.44842"><ele>928.0</ele><time>2026-04-11T08:02:17.003Z</time></trkpt><trkpt lat="42.03039" lon="2.448195"><ele>928.0</ele><time>2026-04-11T08:02:18.003Z</time></trkpt><trkpt lat="42.03037" lon="2.44797"><ele>926.6666666666666</ele><time>2026-04-11T08:02:19.003Z</time></trkpt><trkpt lat="42.0303267" lon="2.44775"><ele>925.3333333333333</ele><time>2026-04-11T08:02:20.003Z</time></trkpt><trkpt lat="42.030275" lon="2.4475433"><ele>924.0</ele><time>2026-04-11T08:02:21.003Z</time></trkpt><trkpt lat="42.0301817" lon="2.4473617"><ele>924.0</ele><time>2026-04-11T08:02:22.003Z</time></trkpt><trkpt lat="42.0300567" lon="2.4472067"><ele>924.0</ele><time>2026-04-11T08:02:23.003Z</time></trkpt><trkpt lat="42.029935" lon="2.4470717"><ele>924.0</ele><time>2026-04-11T08:02:24.003Z</time></trkpt><trkpt lat="42.0297883" lon="2.4469633"><ele>927.0</ele><time>2026-04-11T08:02:25.003Z</time></trkpt><trkpt lat="42.0296383" lon="2.44687"><ele>930.0</ele><time>2026-04-11T08:02:26.003Z</time></trkpt><trkpt lat="42.0295017" lon="2.4467367"><ele>933.0</ele><time>2026-04-11T08:02:27.003Z</time></trkpt><trkpt lat="42.0293933" lon="2.446575"><ele>933.0</ele><time>2026-04-11T08:02:28.003Z</time></trkpt><trkpt lat="42.0293133" lon="2.4463933"><ele>933.0</ele><time>2026-04-11T08:02:29.003Z</time></trkpt><trkpt lat="42.029245" lon="2.446225"><ele>933.0</ele><time>2026-04-11T08:02:30.003Z</time></trkpt><trkpt lat="42.02915" lon="2.446065"><ele>935.5</ele><time>2026-04-11T08:02:31.003Z</time></trkpt><trkpt lat="42.0290533" lon="2.4459317"><ele>938.0</ele><time>2026-04-11T08:02:32.003Z</time></trkpt><trkpt lat="42.0289767" lon="2.44579"><ele>940.5</ele><time>2026-04-11T08:02:33.003Z</time></trkpt><trkpt lat="42.02894" lon="2.4456383"><ele>943.0</ele><time>2026-04-11T08:02:34.003Z</time></trkpt><trkpt lat="42.0289583" lon="2.4454717"><ele>943.5</ele><time>2026-04-11T08:02:35.003Z</time></trkpt><trkpt lat="42.029015" lon="2.4453017"><ele>944.0</ele><time>2026-04-11T08:02:36.003Z</time></trkpt><trkpt lat="42.029065" lon="2.4451317"><ele>944.5</ele><time>2026-04-11T08:02:37.003Z</time></trkpt><trkpt lat="42.029105" lon="2.4449583"><ele>945.0</ele><time>2026-04-11T08:02:38.003Z</time></trkpt><trkpt lat="42.0291417" lon="2.4447533"><ele>943.0</ele><time>2026-04-11T08:02:39.003Z</time></trkpt><trkpt lat="42.0291617" lon="2.4445483"><ele>941.0</ele><time>2026-04-11T08:02:40.004Z</time></trkpt><trkpt lat="42.0291767" lon="2.4443433"><ele>939.0</ele><time>2026-04-11T08:02:41.003Z</time></trkpt><trkpt lat="42.0291983" lon="2.4441333"><ele>939.0</ele><time>2026-04-11T08:02:42.003Z</time></trkpt><trkpt lat="42.0292233" lon="2.44392"><ele>939.0</ele><time>2026-04-11T08:02:43.003Z</time></trkpt><trkpt lat="42.0292517" lon="2.4437083"><ele>939.0</ele><time>2026-04-11T08:02:44.003Z</time></trkpt><trkpt lat="42.029275" lon="2.443505"><ele>941.25</ele><time>2026-04-11T08:02:45.003Z</time></trkpt><trkpt lat="42.0292833" lon="2.4433217"><ele>943.5</ele><time>2026-04-11T08:02:46.003Z</time></trkpt><trkpt lat="42.0293083" lon="2.44316"><ele>945.75</ele><time>2026-04-11T08:02:47.004Z</time></trkpt><trkpt lat="42.0293517" lon="2.443035"><ele>948.0</ele><time>2026-04-11T08:02:48.003Z</time></trkpt><trkpt lat="42.0294117" lon="2.4429367"><ele>949.75</ele><time>2026-04-11T08:02:49.003Z</time></trkpt><trkpt lat="42.0295433" lon="2.4428917"><ele>951.5</ele><time>2026-04-11T08:02:50.003Z</time></trkpt><trkpt lat="42.0296817" lon="2.44287"><ele>953.25</ele><time>2026-04-11T08:02:51.003Z</time></trkpt><trkpt lat="42.0297933" lon="2.4428167"><ele>955.0</ele><time>2026-04-11T08:02:52.003Z</time></trkpt><trkpt lat="42.0299" lon="2.44271"><ele>953.75</ele><time>2026-04-11T08:02:53.003Z</time></trkpt><trkpt lat="42.0299817" lon="2.4425633"><ele>952.5</ele><time>2026-04-11T08:02:54.003Z</time></trkpt><trkpt lat="42.03003" lon="2.4423833"><ele>951.25</ele><time>2026-04-11T08:02:55.003Z</time></trkpt><trkpt lat="42.030055" lon="2.4421783"><ele>950.0</ele><time>2026-04-11T08:02:56.003Z</time></trkpt><trkpt lat="42.030055" lon="2.4419733"><ele>950.0</ele><time>2026-04-11T08:02:57.003Z</time></trkpt><trkpt lat="42.030045" lon="2.4417617"><ele>950.0</ele><time>2026-04-11T08:02:58.003Z</time></trkpt><trkpt lat="42.0300383" lon="2.44153"><ele>950.0</ele><time>2026-04-11T08:02:59.003Z</time></trkpt><trkpt lat="42.0300233" lon="2.4413067"><ele>951.6666666666667</ele><time>2026-04-11T08:03:00.003Z</time></trkpt><trkpt lat="42.0300083" lon="2.4410717"><ele>953.3333333333333</ele><time>2026-04-11T08:03:01.003Z</time></trkpt><trkpt lat="42.0299983" lon="2.4408667"><ele>955.0</ele><time>2026-04-11T08:03:02.003Z</time></trkpt><trkpt lat="42.0299817" lon="2.4406633"><ele>955.5</ele><time>2026-04-11T08:03:03.003Z</time></trkpt><trkpt lat="42.02996" lon="2.4404683"><ele>956.0</ele><time>2026-04-11T08:03:04.003Z</time></trkpt><trkpt lat="42.029935" lon="2.44027"><ele>956.5</ele><time>2026-04-11T08:03:05.003Z</time></trkpt><trkpt lat="42.02989" lon="2.4400867"><ele>957.0</ele><time>2026-04-11T08:03:06.004Z</time></trkpt><trkpt lat="42.0298417" lon="2.439915"><ele>957.3333333333333</ele><time>2026-04-11T08:03:07.003Z</time></trkpt><trkpt lat="42.0297733" lon="2.4397433"><ele>957.6666666666666</ele><time>2026-04-11T08:03:08.003Z</time></trkpt><trkpt lat="42.0296983" lon="2.43957"><ele>958.0</ele><time>2026-04-11T08:03:09.003Z</time></trkpt><trkpt lat="42.02962" lon="2.439385"><ele>958.0</ele><time>2026-04-11T08:03:10.004Z</time></trkpt><trkpt lat="42.0295383" lon="2.4391783"><ele>958.0</ele><time>2026-04-11T08:03:11.003Z</time></trkpt><trkpt lat="42.0294567" lon="2.4389533"><ele>958.0</ele><time>2026-04-11T08:03:12.003Z</time></trkpt><trkpt lat="42.0293733" lon="2.4387133"><ele>958.6666666666666</ele><time>2026-04-11T08:03:13.004Z</time></trkpt><trkpt lat="42.0292983" lon="2.4384817"><ele>959.3333333333333</ele><time>2026-04-11T08:03:14.003Z</time></trkpt><trkpt lat="42.0292267" lon="2.43826"><ele>960.0</ele><time>2026-04-11T08:03:15.003Z</time></trkpt><trkpt lat="42.0291683" lon="2.4380433"><ele>960.6666666666667</ele><time>2026-04-11T08:03:16.004Z</time></trkpt><trkpt lat="42.0291367" lon="2.43783"><ele>961.3333333333334</ele><time>2026-04-11T08:03:17.003Z</time></trkpt><trkpt lat="42.0291333" lon="2.4376217"><ele>962.0</ele><time>2026-04-11T08:03:18.003Z</time></trkpt><trkpt lat="42.0291717" lon="2.437415"><ele>962.0</ele><time>2026-04-11T08:03:19.003Z</time></trkpt><trkpt lat="42.0292383" lon="2.4372133"><ele>962.0</ele><time>2026-04-11T08:03:20.003Z</time></trkpt><trkpt lat="42.0293233" lon="2.4370333"><ele>962.0</ele><time>2026-04-11T08:03:21.003Z</time></trkpt><trkpt lat="42.0294317" lon="2.4368767"><ele>966.3333333333334</ele><time>2026-04-11T08:03:22.003Z</time></trkpt><trkpt lat="42.0295517" lon="2.4367317"><ele>970.6666666666667</ele><time>2026-04-11T08:03:23.003Z</time></trkpt><trkpt lat="42.029665" lon="2.4366033"><ele>975.0</ele><time>2026-04-11T08:03:24.003Z</time></trkpt><trkpt lat="42.0298117" lon="2.43649"><ele>975.0</ele><time>2026-04-11T08:03:25.003Z</time></trkpt><trkpt lat="42.0299683" lon="2.4363833"><ele>975.0</ele><time>2026-04-11T08:03:26.003Z</time></trkpt><trkpt lat="42.0301317" lon="2.4362817"><ele>975.0</ele><time>2026-04-11T08:03:27.003Z</time></trkpt><trkpt lat="42.0302883" lon="2.4361833"><ele>974.6666666666667</ele><time>2026-04-11T08:03:28.003Z</time></trkpt><trkpt lat="42.0304483" lon="2.4360817"><ele>974.3333333333334</ele><time>2026-04-11T08:03:29.003Z</time></trkpt><trkpt lat="42.03061" lon="2.43597"><ele>974.0</ele><time>2026-04-11T08:03:30.003Z</time></trkpt><trkpt lat="42.0307733" lon="2.435865"><ele>969.6666666666667</ele><time>2026-04-11T08:03:31.003Z</time></trkpt><trkpt lat="42.030925" lon="2.4357683"><ele>965.3333333333333</ele><time>2026-04-11T08:03:32.003Z</time></trkpt><trkpt lat="42.0310817" lon="2.435655"><ele>961.0</ele><time>2026-04-11T08:03:33.003Z</time></trkpt><trkpt lat="42.031245" lon="2.4355433"><ele>962.3333333333333</ele><time>2026-04-11T08:03:34.004Z</time></trkpt><trkpt lat="42.0314083" lon="2.4354367"><ele>963.6666666666667</ele><time>2026-04-11T08:03:35.003Z</time></trkpt><trkpt lat="42.0315617" lon="2.4353233"><ele>965.0</ele><time>2026-04-11T08:03:36.003Z</time></trkpt><trkpt lat="42.0317183" lon="2.43521"><ele>965.0</ele><time>2026-04-11T08:03:37.003Z</time></trkpt><trkpt lat="42.0318733" lon="2.4351"><ele>965.0</ele><time>2026-04-11T08:03:38.003Z</time></trkpt><trkpt lat="42.0320183" lon="2.4349867"><ele>965.0</ele><time>2026-04-11T08:03:39.003Z</time></trkpt><trkpt lat="42.0321533" lon="2.43488"><ele>965.0</ele><time>2026-04-11T08:03:40.003Z</time></trkpt><trkpt lat="42.0322917" lon="2.434765"><ele>965.0</ele><time>2026-04-11T08:03:41.003Z</time></trkpt><trkpt lat="42.03241" lon="2.4346367"><ele>965.0</ele><time>2026-04-11T08:03:42.003Z</time></trkpt><trkpt lat="42.0325033" lon="2.4344933"><ele>968.3333333333334</ele><time>2026-04-11T08:03:43.003Z</time></trkpt><trkpt lat="42.032565" lon="2.434315"><ele>971.6666666666667</ele><time>2026-04-11T08:03:44.003Z</time></trkpt><trkpt lat="42.0326067" lon="2.43411"><ele>975.0</ele><time>2026-04-11T08:03:45.003Z</time></trkpt><trkpt lat="42.0326617" lon="2.4339033"><ele>976.3333333333333</ele><time>2026-04-11T08:03:46.003Z</time></trkpt><trkpt lat="42.0327617" lon="2.4337367"><ele>977.6666666666666</ele><time>2026-04-11T08:03:47.003Z</time></trkpt><trkpt lat="42.03287" lon="2.4335983"><ele>979.0</ele><time>2026-04-11T08:03:48.003Z</time></trkpt><trkpt lat="42.03301" lon="2.4334983"><ele>979.0</ele><time>2026-04-11T08:03:49.003Z</time></trkpt><trkpt lat="42.0331583" lon="2.43342"><ele>979.0</ele><time>2026-04-11T08:03:50.003Z</time></trkpt><trkpt lat="42.0333133" lon="2.4333567"><ele>979.0</ele><time>2026-04-11T08:03:51.003Z</time></trkpt><trkpt lat="42.033475" lon="2.4332933"><ele>976.0</ele><time>2026-04-11T08:03:52.003Z</time></trkpt><trkpt lat="42.03364" lon="2.43323"><ele>973.0</ele><time>2026-04-11T08:03:53.003Z</time></trkpt><trkpt lat="42.0338017" lon="2.43316"><ele>970.0</ele><time>2026-04-11T08:03:54.003Z</time></trkpt><trkpt lat="42.0339533" lon="2.4330917"><ele>970.0</ele><time>2026-04-11T08:03:55.003Z</time></trkpt><trkpt lat="42.03412" lon="2.433025"><ele>970.0</ele><time>2026-04-11T08:03:56.004Z</time></trkpt><trkpt lat="42.034295" lon="2.4329683"><ele>970.0</ele><time>2026-04-11T08:03:57.004Z</time></trkpt><trkpt lat="42.0344633" lon="2.43291"><ele>970.0</ele><time>2026-04-11T08:03:58.003Z</time></trkpt><trkpt lat="42.0346233" lon="2.432835"><ele>970.0</ele><time>2026-04-11T08:03:59.003Z</time></trkpt><trkpt lat="42.0347883" lon="2.4327633"><ele>970.0</ele><time>2026-04-11T08:04:00.003Z</time></trkpt><trkpt lat="42.0349783" lon="2.4326833"><ele>970.0</ele><time>2026-04-11T08:04:01.003Z</time></trkpt><trkpt lat="42.03513" lon="2.4325717"><ele>970.0</ele><time>2026-04-11T08:04:02.004Z</time></trkpt><trkpt lat="42.0352667" lon="2.4324517"><ele>970.0</ele><time>2026-04-11T08:04:03.003Z</time></trkpt><trkpt lat="42.035415" lon="2.4323217"><ele>970.0</ele><time>2026-04-11T08:04:04.003Z</time></trkpt><trkpt lat="42.0355417" lon="2.4322083"><ele>970.0</ele><time>2026-04-11T08:04:05.003Z</time></trkpt><trkpt lat="42.03566" lon="2.4321"><ele>970.0</ele><time>2026-04-11T08:04:06.003Z</time></trkpt><trkpt lat="42.0357867" lon="2.4320117"><ele>970.0</ele><time>2026-04-11T08:04:07.003Z</time></trkpt><trkpt lat="42.0359033" lon="2.43196"><ele>969.75</ele><time>2026-04-11T08:04:08.003Z</time></trkpt><trkpt lat="42.03603" lon="2.431975"><ele>969.5</ele><time>2026-04-11T08:04:09.003Z</time></trkpt><trkpt lat="42.036145" lon="2.43205"><ele>969.25</ele><time>2026-04-11T08:04:10.003Z</time></trkpt><trkpt lat="42.0362483" lon="2.4321667"><ele>969.0</ele><time>2026-04-11T08:04:11.003Z</time></trkpt><trkpt lat="42.0363533" lon="2.4323083"><ele>969.0</ele><time>2026-04-11T08:04:12.003Z</time></trkpt><trkpt lat="42.0364633" lon="2.4324633"><ele>969.0</ele><time>2026-04-11T08:04:13.003Z</time></trkpt><trkpt lat="42.0365917" lon="2.4326117"><ele>969.0</ele><time>2026-04-11T08:04:14.003Z</time></trkpt><trkpt lat="42.0367283" lon="2.4327567"><ele>968.6666666666667</ele><time>2026-04-11T08:04:15.003Z</time></trkpt><trkpt lat="42.0368517" lon="2.4329033"><ele>968.3333333333334</ele><time>2026-04-11T08:04:16.003Z</time></trkpt><trkpt lat="42.0369817" lon="2.4330467"><ele>968.0</ele><time>2026-04-11T08:04:17.003Z</time></trkpt><trkpt lat="42.0371117" lon="2.4332"><ele>968.0</ele><time>2026-04-11T08:04:18.003Z</time></trkpt><trkpt lat="42.037235" lon="2.4333567"><ele>968.0</ele><time>2026-04-11T08:04:19.004Z</time></trkpt><trkpt lat="42.0373767" lon="2.4335117"><ele>968.0</ele><time>2026-04-11T08:04:20.003Z</time></trkpt><trkpt lat="42.0375117" lon="2.433665"><ele>970.0</ele><time>2026-04-11T08:04:21.003Z</time></trkpt><trkpt lat="42.03764" lon="2.4338133"><ele>972.0</ele><time>2026-04-11T08:04:22.003Z</time></trkpt><trkpt lat="42.03777" lon="2.4339683"><ele>974.0</ele><time>2026-04-11T08:04:23.003Z</time></trkpt><trkpt lat="42.0378933" lon="2.4341133"><ele>974.0</ele><time>2026-04-11T08:04:24.003Z</time></trkpt><trkpt lat="42.038015" lon="2.4342417"><ele>974.0</ele><time>2026-04-11T08:04:25.003Z</time></trkpt><trkpt lat="42.0381467" lon="2.4343467"><ele>974.0</ele><time>2026-04-11T08:04:26.003Z</time></trkpt><trkpt lat="42.0382867" lon="2.4344233"><ele>975.0</ele><time>2026-04-11T08:04:27.003Z</time></trkpt><trkpt lat="42.038445" lon="2.4344683"><ele>976.0</ele><time>2026-04-11T08:04:28.003Z</time></trkpt><trkpt lat="42.0386117" lon="2.4345033"><ele>977.0</ele><time>2026-04-11T08:04:29.003Z</time></trkpt><trkpt lat="42.038775" lon="2.4345383"><ele>977.0</ele><time>2026-04-11T08:04:30.003Z</time></trkpt><trkpt lat="42.0389467" lon="2.43456"><ele>977.0</ele><time>2026-04-11T08:04:31.003Z</time></trkpt><trkpt lat="42.039125" lon="2.4345717"><ele>977.0</ele><time>2026-04-11T08:04:32.003Z</time></trkpt><trkpt lat="42.0393083" lon="2.4345833"><ele>978.6666666666667</ele><time>2026-04-11T08:04:33.003Z</time></trkpt><trkpt lat="42.0395083" lon="2.4345933"><ele>980.3333333333333</ele><time>2026-04-11T08:04:34.003Z</time></trkpt><trkpt lat="42.03969" lon="2.4346017"><ele>982.0</ele><time>2026-04-11T08:04:35.004Z</time></trkpt><trkpt lat="42.03986" lon="2.4345933"><ele>983.0</ele><time>2026-04-11T08:04:36.003Z</time></trkpt><trkpt lat="42.0400117" lon="2.43455"><ele>984.0</ele><time>2026-04-11T08:04:37.004Z</time></trkpt><trkpt lat="42.040145" lon="2.43446"><ele>985.0</ele><time>2026-04-11T08:04:38.003Z</time></trkpt><trkpt lat="42.0402717" lon="2.434355"><ele>985.0</ele><time>2026-04-11T08:04:39.003Z</time></trkpt><trkpt lat="42.0404033" lon="2.43427"><ele>985.0</ele><time>2026-04-11T08:04:40.002Z</time></trkpt><trkpt lat="42.0405517" lon="2.434235"><ele>985.0</ele><time>2026-04-11T08:04:41.002Z</time></trkpt><trkpt lat="42.040705" lon="2.4342417"><ele>985.0</ele><time>2026-04-11T08:04:42.002Z</time></trkpt><trkpt lat="42.040865" lon="2.4342667"><ele>985.0</ele><time>2026-04-11T08:04:43.002Z</time></trkpt><trkpt lat="42.0410283" lon="2.4342783"><ele>985.0</ele><time>2026-04-11T08:04:44.002Z</time></trkpt><trkpt lat="42.0411933" lon="2.43427"><ele>985.0</ele><time>2026-04-11T08:04:45.002Z</time></trkpt><trkpt lat="42.04136" lon="2.43423"><ele>985.0</ele><time>2026-04-11T08:04:46.002Z</time></trkpt><trkpt lat="42.0415067" lon="2.4341617"><ele>985.0</ele><time>2026-04-11T08:04:47.002Z</time></trkpt><trkpt lat="42.0416567" lon="2.4340817"><ele>985.0</ele><time>2026-04-11T08:04:48.002Z</time></trkpt><trkpt lat="42.0418367" lon="2.4340183"><ele>985.0</ele><time>2026-04-11T08:04:49.002Z</time></trkpt><trkpt lat="42.041995" lon="2.43394"><ele>985.0</ele><time>2026-04-11T08:04:50.002Z</time></trkpt><trkpt lat="42.0421417" lon="2.4338583"><ele>987.3333333333333</ele><time>2026-04-11T08:04:51.002Z</time></trkpt><trkpt lat="42.0423033" lon="2.4337733"><ele>989.6666666666667</ele><time>2026-04-11T08:04:52.003Z</time></trkpt><trkpt lat="42.04246" lon="2.4336933"><ele>992.0</ele><time>2026-04-11T08:04:53.002Z</time></trkpt><trkpt lat="42.0426167" lon="2.4336133"><ele>992.0</ele><time>2026-04-11T08:04:54.002Z</time></trkpt><trkpt lat="42.04278" lon="2.4335233"><ele>992.0</ele><time>2026-04-11T08:04:55.002Z</time></trkpt><trkpt lat="42.0429383" lon="2.4334117"><ele>992.0</ele><time>2026-04-11T08:04:56.002Z</time></trkpt><trkpt lat="42.0431067" lon="2.433285"><ele>992.0</ele><time>2026-04-11T08:04:57.002Z</time></trkpt><trkpt lat="42.0432717" lon="2.4331833"><ele>992.0</ele><time>2026-04-11T08:04:58.002Z</time></trkpt><trkpt lat="42.0434183" lon="2.4330633"><ele>992.0</ele><time>2026-04-11T08:04:59.002Z</time></trkpt><trkpt lat="42.0435783" lon="2.4329417"><ele>994.6666666666667</ele><time>2026-04-11T08:05:00.002Z</time></trkpt><trkpt lat="42.0437083" lon="2.4328133"><ele>997.3333333333333</ele><time>2026-04-11T08:05:01.003Z</time></trkpt><trkpt lat="42.0438167" lon="2.4326667"><ele>1000.0</ele><time>2026-04-11T08:05:02.002Z</time></trkpt><trkpt lat="42.0438933" lon="2.4324933"><ele>1000.0</ele><time>2026-04-11T08:05:03.002Z</time></trkpt><trkpt lat="42.0439383" lon="2.4323017"><ele>1000.0</ele><time>2026-04-11T08:05:04.002Z</time></trkpt><trkpt lat="42.0439833" lon="2.4321083"><ele>1000.0</ele><time>2026-04-11T08:05:05.002Z</time></trkpt><trkpt lat="42.0440283" lon="2.43191"><ele>1001.25</ele><time>2026-04-11T08:05:06.002Z</time></trkpt><trkpt lat="42.0440767" lon="2.43171"><ele>1002.5</ele><time>2026-04-11T08:05:07.002Z</time></trkpt><trkpt lat="42.0441033" lon="2.4315117"><ele>1003.75</ele><time>2026-04-11T08:05:08.002Z</time></trkpt><trkpt lat="42.0441467" lon="2.4313383"><ele>1005.0</ele><time>2026-04-11T08:05:09.002Z</time></trkpt><trkpt lat="42.0441933" lon="2.4311633"><ele>1005.0</ele><time>2026-04-11T08:05:10.002Z</time></trkpt><trkpt lat="42.044245" lon="2.4310067"><ele>1005.0</ele><time>2026-04-11T08:05:11.002Z</time></trkpt><trkpt lat="42.0443" lon="2.430865"><ele>1005.0</ele><time>2026-04-11T08:05:12.002Z</time></trkpt><trkpt lat="42.0444167" lon="2.4307767"><ele>1005.0</ele><time>2026-04-11T08:05:13.002Z</time></trkpt><trkpt lat="42.0445483" lon="2.4307467"><ele>1005.0</ele><time>2026-04-11T08:05:14.002Z</time></trkpt><trkpt lat="42.0446717" lon="2.4307367"><ele>1005.0</ele><time>2026-04-11T08:05:15.002Z</time></trkpt><trkpt lat="42.0448033" lon="2.43073"><ele>1005.0</ele><time>2026-04-11T08:05:16.002Z</time></trkpt><trkpt lat="42.044935" lon="2.43071"><ele>1005.0</ele><time>2026-04-11T08:05:17.002Z</time></trkpt><trkpt lat="42.0450583" lon="2.430645"><ele>1005.75</ele><time>2026-04-11T08:05:18.002Z</time></trkpt><trkpt lat="42.045175" lon="2.430565"><ele>1006.5</ele><time>2026-04-11T08:05:19.002Z</time></trkpt><trkpt lat="42.04528" lon="2.4304483"><ele>1007.25</ele><time>2026-04-11T08:05:20.002Z</time></trkpt><trkpt lat="42.0453583" lon="2.4302917"><ele>1008.0</ele><time>2026-04-11T08:05:21.002Z</time></trkpt><trkpt lat="42.04541" lon="2.4301083"><ele>1008.0</ele><time>2026-04-11T08:05:22.002Z</time></trkpt><trkpt lat="42.0454417" lon="2.42992"><ele>1008.0</ele><time>2026-04-11T08:05:23.002Z</time></trkpt><trkpt lat="42.0454683" lon="2.4297283"><ele>1008.0</ele><time>2026-04-11T08:05:24.002Z</time></trkpt><trkpt lat="42.0454767" lon="2.429525"><ele>1008.0</ele><time>2026-04-11T08:05:25.002Z</time></trkpt><trkpt lat="42.04547" lon="2.42932"><ele>1009.6666666666667</ele><time>2026-04-11T08:05:26.002Z</time></trkpt><trkpt lat="42.0454383" lon="2.4291233"><ele>1011.3333333333334</ele><time>2026-04-11T08:05:27.002Z</time></trkpt><trkpt lat="42.045385" lon="2.4289317"><ele>1013.0</ele><time>2026-04-11T08:05:28.002Z</time></trkpt><trkpt lat="42.0453233" lon="2.4287383"><ele>1013.0</ele><time>2026-04-11T08:05:29.003Z</time></trkpt><trkpt lat="42.0452583" lon="2.4285467"><ele>1013.0</ele><time>2026-04-11T08:05:30.002Z</time></trkpt><trkpt lat="42.045195" lon="2.4283633"><ele>1013.0</ele><time>2026-04-11T08:05:31.002Z</time></trkpt><trkpt lat="42.045135" lon="2.4281733"><ele>1013.0</ele><time>2026-04-11T08:05:32.002Z</time></trkpt><trkpt lat="42.045065" lon="2.4279717"><ele>1013.0</ele><time>2026-04-11T08:05:33.002Z</time></trkpt><trkpt lat="42.04498" lon="2.4277617"><ele>1013.0</ele><time>2026-04-11T08:05:34.002Z</time></trkpt><trkpt lat="42.0449117" lon="2.4275517"><ele>1013.0</ele><time>2026-04-11T08:05:35.002Z</time></trkpt><trkpt lat="42.0448367" lon="2.4273383"><ele>1013.0</ele><time>2026-04-11T08:05:36.002Z</time></trkpt><trkpt lat="42.044765" lon="2.4271233"><ele>1013.0</ele><time>2026-04-11T08:05:37.002Z</time></trkpt><trkpt lat="42.0446917" lon="2.4269083"><ele>1010.6666666666667</ele><time>2026-04-11T08:05:38.002Z</time></trkpt><trkpt lat="42.0446233" lon="2.4266967"><ele>1008.3333333333333</ele><time>2026-04-11T08:05:39.002Z</time></trkpt><trkpt lat="42.0445517" lon="2.4264817"><ele>1006.0</ele><time>2026-04-11T08:05:40.002Z</time></trkpt><trkpt lat="42.0444767" lon="2.4262617"><ele>1005.6666666666666</ele><time>2026-04-11T08:05:41.002Z</time></trkpt><trkpt lat="42.0444033" lon="2.4260367"><ele>1005.3333333333333</ele><time>2026-04-11T08:05:42.002Z</time></trkpt><trkpt lat="42.0443317" lon="2.4258167"><ele>1005.0</ele><time>2026-04-11T08:05:43.002Z</time></trkpt><trkpt lat="42.044265" lon="2.4255967"><ele>1005.3333333333333</ele><time>2026-04-11T08:05:44.002Z</time></trkpt><trkpt lat="42.0441917" lon="2.42539"><ele>1005.6666666666666</ele><time>2026-04-11T08:05:45.002Z</time></trkpt><trkpt lat="42.0441033" lon="2.4251833"><ele>1006.0</ele><time>2026-04-11T08:05:46.002Z</time></trkpt><trkpt lat="42.0440067" lon="2.4250017"><ele>1006.0</ele><time>2026-04-11T08:05:47.002Z</time></trkpt><trkpt lat="42.0438983" lon="2.4248517"><ele>1006.0</ele><time>2026-04-11T08:05:48.002Z</time></trkpt><trkpt lat="42.04376" lon="2.42473"><ele>1006.0</ele><time>2026-04-11T08:05:49.002Z</time></trkpt><trkpt lat="42.0435983" lon="2.42464"><ele>1004.3333333333333</ele><time>2026-04-11T08:05:50.002Z</time></trkpt><trkpt lat="42.0434417" lon="2.4245633"><ele>1002.6666666666667</ele><time>2026-04-11T08:05:51.002Z</time></trkpt><trkpt lat="42.0432883" lon="2.424475"><ele>1001.0</ele><time>2026-04-11T08:05:52.002Z</time></trkpt><trkpt lat="42.0431517" lon="2.42435"><ele>1001.0</ele><time>2026-04-11T08:05:53.002Z</time></trkpt><trkpt lat="42.0430083" lon="2.4241883"><ele>1001.0</ele><time>2026-04-11T08:05:54.002Z</time></trkpt><trkpt lat="42.0428633" lon="2.4240117"><ele>1001.0</ele><time>2026-04-11T08:05:55.002Z</time></trkpt><trkpt lat="42.0427383" lon="2.4238333"><ele>999.6666666666667</ele><time>2026-04-11T08:05:56.002Z</time></trkpt><trkpt lat="42.0426183" lon="2.423655"><ele>998.3333333333333</ele><time>2026-04-11T08:05:57.002Z</time></trkpt><trkpt lat="42.0424983" lon="2.4234733"><ele>997.0</ele><time>2026-04-11T08:05:58.002Z</time></trkpt><trkpt lat="42.0423767" lon="2.42329"><ele>997.0</ele><time>2026-04-11T08:05:59.002Z</time></trkpt><trkpt lat="42.0422733" lon="2.42308"><ele>997.0</ele><time>2026-04-11T08:06:00.002Z</time></trkpt><trkpt lat="42.0421683" lon="2.4228833"><ele>997.0</ele><time>2026-04-11T08:06:01.002Z</time></trkpt><trkpt lat="42.0420683" lon="2.42268"><ele>997.6666666666666</ele><time>2026-04-11T08:06:02.002Z</time></trkpt><trkpt lat="42.0419867" lon="2.42249"><ele>998.3333333333333</ele><time>2026-04-11T08:06:03.002Z</time></trkpt><trkpt lat="42.0419167" lon="2.4223033"><ele>999.0</ele><time>2026-04-11T08:06:04.002Z</time></trkpt><trkpt lat="42.04186" lon="2.4221017"><ele>999.0</ele><time>2026-04-11T08:06:05.002Z</time></trkpt><trkpt lat="42.0418183" lon="2.4218817"><ele>999.0</ele><time>2026-04-11T08:06:06.002Z</time></trkpt><trkpt lat="42.0417883" lon="2.42166"><ele>999.0</ele><time>2026-04-11T08:06:07.002Z</time></trkpt><trkpt lat="42.0417617" lon="2.4214267"><ele>998.0</ele><time>2026-04-11T08:06:08.002Z</time></trkpt><trkpt lat="42.04174" lon="2.42118"><ele>997.0</ele><time>2026-04-11T08:06:09.002Z</time></trkpt><trkpt lat="42.04172" lon="2.420935"><ele>996.0</ele><time>2026-04-11T08:06:10.002Z</time></trkpt><trkpt lat="42.0417033" lon="2.4206967"><ele>995.0</ele><time>2026-04-11T08:06:11.002Z</time></trkpt><trkpt lat="42.0416867" lon="2.4204717"><ele>994.0</ele><time>2026-04-11T08:06:12.002Z</time></trkpt><trkpt lat="42.0416733" lon="2.4202517"><ele>993.0</ele><time>2026-04-11T08:06:13.003Z</time></trkpt><trkpt lat="42.0416817" lon="2.42004"><ele>993.0</ele><time>2026-04-11T08:06:14.002Z</time></trkpt><trkpt lat="42.0417267" lon="2.4198317"><ele>993.0</ele><time>2026-04-11T08:06:15.002Z</time></trkpt><trkpt lat="42.04181" lon="2.4196267"><ele>993.0</ele><time>2026-04-11T08:06:16.002Z</time></trkpt><trkpt lat="42.0418917" lon="2.4194267"><ele>990.3333333333333</ele><time>2026-04-11T08:06:17.002Z</time></trkpt><trkpt lat="42.041975" lon="2.4192283"><ele>987.6666666666666</ele><time>2026-04-11T08:06:18.002Z</time></trkpt><trkpt lat="42.04207" lon="2.4190267"><ele>985.0</ele><time>2026-04-11T08:06:19.003Z</time></trkpt><trkpt lat="42.0421733" lon="2.41881"><ele>983.0</ele><time>2026-04-11T08:06:20.002Z</time></trkpt><trkpt lat="42.0422783" lon="2.4186017"><ele>981.0</ele><time>2026-04-11T08:06:21.002Z</time></trkpt><trkpt lat="42.0423917" lon="2.4183933"><ele>979.0</ele><time>2026-04-11T08:06:22.002Z</time></trkpt><trkpt lat="42.042485" lon="2.418185"><ele>979.6666666666666</ele><time>2026-04-11T08:06:23.002Z</time></trkpt><trkpt lat="42.0425733" lon="2.417985"><ele>980.3333333333333</ele><time>2026-04-11T08:06:24.002Z</time></trkpt><trkpt lat="42.04267" lon="2.41778"><ele>981.0</ele><time>2026-04-11T08:06:25.002Z</time></trkpt><trkpt lat="42.042765" lon="2.4175883"><ele>981.0</ele><time>2026-04-11T08:06:26.003Z</time></trkpt><trkpt lat="42.0428733" lon="2.4173983"><ele>981.0</ele><time>2026-04-11T08:06:27.002Z</time></trkpt><trkpt lat="42.0429633" lon="2.4172217"><ele>981.0</ele><time>2026-04-11T08:06:28.002Z</time></trkpt><trkpt lat="42.043035" lon="2.4170533"><ele>980.75</ele><time>2026-04-11T08:06:29.002Z</time></trkpt><trkpt lat="42.0430967" lon="2.4168733"><ele>980.5</ele><time>2026-04-11T08:06:30.002Z</time></trkpt><trkpt lat="42.0431167" lon="2.4166917"><ele>980.25</ele><time>2026-04-11T08:06:31.002Z</time></trkpt><trkpt lat="42.0430933" lon="2.4165033"><ele>980.0</ele><time>2026-04-11T08:06:32.002Z</time></trkpt><trkpt lat="42.04303" lon="2.4163333"><ele>981.3333333333334</ele><time>2026-04-11T08:06:33.002Z</time></trkpt><trkpt lat="42.0429333" lon="2.4161933"><ele>982.6666666666667</ele><time>2026-04-11T08:06:34.002Z</time></trkpt><trkpt lat="42.042815" lon="2.416065"><ele>984.0</ele><time>2026-04-11T08:06:35.002Z</time></trkpt><trkpt lat="42.0426767" lon="2.4159483"><ele>984.0</ele><time>2026-04-11T08:06:36.002Z</time></trkpt><trkpt lat="42.042535" lon="2.4158317"><ele>984.0</ele><time>2026-04-11T08:06:37.002Z</time></trkpt><trkpt lat="42.0424" lon="2.4157133"><ele>984.0</ele><time>2026-04-11T08:06:38.002Z</time></trkpt><trkpt lat="42.0422733" lon="2.415595"><ele>983.25</ele><time>2026-04-11T08:06:39.002Z</time></trkpt><trkpt lat="42.0421433" lon="2.4154767"><ele>982.5</ele><time>2026-04-11T08:06:40.002Z</time></trkpt><trkpt lat="42.0420167" lon="2.4153683"><ele>981.75</ele><time>2026-04-11T08:06:41.002Z</time></trkpt><trkpt lat="42.04191" lon="2.4152617"><ele>981.0</ele><time>2026-04-11T08:06:42.002Z</time></trkpt><trkpt lat="42.04182" lon="2.4151233"><ele>981.0</ele><time>2026-04-11T08:06:43.002Z</time></trkpt><trkpt lat="42.0417417" lon="2.4149583"><ele>981.0</ele><time>2026-04-11T08:06:44.002Z</time></trkpt><trkpt lat="42.0417017" lon="2.4147783"><ele>981.0</ele><time>2026-04-11T08:06:45.002Z</time></trkpt><trkpt lat="42.041665" lon="2.4145817"><ele>981.0</ele><time>2026-04-11T08:06:46.002Z</time></trkpt><trkpt lat="42.0416317" lon="2.4143733"><ele>979.6666666666667</ele><time>2026-04-11T08:06:47.002Z</time></trkpt><trkpt lat="42.0415933" lon="2.4141683"><ele>978.3333333333334</ele><time>2026-04-11T08:06:48.002Z</time></trkpt><trkpt lat="42.0415467" lon="2.4139567"><ele>977.0</ele><time>2026-04-11T08:06:49.002Z</time></trkpt><trkpt lat="42.0415133" lon="2.4137433"><ele>974.6666666666667</ele><time>2026-04-11T08:06:50.002Z</time></trkpt><trkpt lat="42.04148" lon="2.4135233"><ele>972.3333333333333</ele><time>2026-04-11T08:06:51.002Z</time></trkpt><trkpt lat="42.04145" lon="2.413305"><ele>970.0</ele><time>2026-04-11T08:06:52.002Z</time></trkpt><trkpt lat="42.0414083" lon="2.4130833"><ele>968.6666666666666</ele><time>2026-04-11T08:06:53.002Z</time></trkpt><trkpt lat="42.0413667" lon="2.41285"><ele>967.3333333333333</ele><time>2026-04-11T08:06:54.002Z</time></trkpt><trkpt lat="42.0413233" lon="2.4126233"><ele>966.0</ele><time>2026-04-11T08:06:55.002Z</time></trkpt><trkpt lat="42.0412883" lon="2.4124"><ele>966.0</ele><time>2026-04-11T08:06:56.002Z</time></trkpt><trkpt lat="42.0412483" lon="2.41218"><ele>966.0</ele><time>2026-04-11T08:06:57.002Z</time></trkpt><trkpt lat="42.0412133" lon="2.41196"><ele>966.0</ele><time>2026-04-11T08:06:58.002Z</time></trkpt><trkpt lat="42.041185" lon="2.4117417"><ele>967.3333333333333</ele><time>2026-04-11T08:06:59.002Z</time></trkpt><trkpt lat="42.0411517" lon="2.4115317"><ele>968.6666666666666</ele><time>2026-04-11T08:07:00.002Z</time></trkpt><trkpt lat="42.0411067" lon="2.4113283"><ele>970.0</ele><time>2026-04-11T08:07:01.002Z</time></trkpt><trkpt lat="42.04107" lon="2.4111317"><ele>970.0</ele><time>2026-04-11T08:07:02.002Z</time></trkpt><trkpt lat="42.0410267" lon="2.4109517"><ele>970.0</ele><time>2026-04-11T08:07:03.002Z</time></trkpt><trkpt lat="42.0410083" lon="2.4107717"><ele>970.0</ele><time>2026-04-11T08:07:04.002Z</time></trkpt><trkpt lat="42.041" lon="2.410585"><ele>970.0</ele><time>2026-04-11T08:07:05.002Z</time></trkpt><trkpt lat="42.041005" lon="2.4104083"><ele>969.0</ele><time>2026-04-11T08:07:06.002Z</time></trkpt><trkpt lat="42.0410317" lon="2.4102467"><ele>968.0</ele><time>2026-04-11T08:07:07.002Z</time></trkpt><trkpt lat="42.0410717" lon="2.4100917"><ele>967.0</ele><time>2026-04-11T08:07:08.002Z</time></trkpt><trkpt lat="42.041155" lon="2.409945"><ele>966.0</ele><time>2026-04-11T08:07:09.002Z</time></trkpt><trkpt lat="42.04124" lon="2.4098067"><ele>966.0</ele><time>2026-04-11T08:07:10.002Z</time></trkpt><trkpt lat="42.0413417" lon="2.4096883"><ele>966.0</ele><time>2026-04-11T08:07:11.002Z</time></trkpt><trkpt lat="42.0414617" lon="2.40959"><ele>966.0</ele><time>2026-04-11T08:07:12.002Z</time></trkpt><trkpt lat="42.0415967" lon="2.4095167"><ele>966.0</ele><time>2026-04-11T08:07:13.002Z</time></trkpt><trkpt lat="42.0417217" lon="2.4094767"><ele>963.25</ele><time>2026-04-11T08:07:14.002Z</time></trkpt><trkpt lat="42.041845" lon="2.409455"><ele>960.5</ele><time>2026-04-11T08:07:15.002Z</time></trkpt><trkpt lat="42.0419783" lon="2.4094467"><ele>957.75</ele><time>2026-04-11T08:07:16.002Z</time></trkpt><trkpt lat="42.0421033" lon="2.40945"><ele>955.0</ele><time>2026-04-11T08:07:17.003Z</time></trkpt><trkpt lat="42.0422167" lon="2.409465"><ele>955.0</ele><time>2026-04-11T08:07:18.002Z</time></trkpt><trkpt lat="42.0423233" lon="2.4094733"><ele>955.0</ele><time>2026-04-11T08:07:19.002Z</time></trkpt><trkpt lat="42.0424333" lon="2.4094483"><ele>955.0</ele><time>2026-04-11T08:07:20.002Z</time></trkpt><trkpt lat="42.0425433" lon="2.409405"><ele>955.0</ele><time>2026-04-11T08:07:21.002Z</time></trkpt><trkpt lat="42.0426633" lon="2.40934"><ele>954.25</ele><time>2026-04-11T08:07:22.002Z</time></trkpt><trkpt lat="42.0428" lon="2.4092867"><ele>953.5</ele><time>2026-04-11T08:07:23.002Z</time></trkpt><trkpt lat="42.0429367" lon="2.409245"><ele>952.75</ele><time>2026-04-11T08:07:24.002Z</time></trkpt><trkpt lat="42.0430867" lon="2.409215"><ele>952.0</ele><time>2026-04-11T08:07:25.002Z</time></trkpt><trkpt lat="42.043245" lon="2.4091833"><ele>950.0</ele><time>2026-04-11T08:07:26.003Z</time></trkpt><trkpt lat="42.0433967" lon="2.4091583"><ele>948.0</ele><time>2026-04-11T08:07:27.002Z</time></trkpt><trkpt lat="42.0435467" lon="2.409135"><ele>946.0</ele><time>2026-04-11T08:07:28.002Z</time></trkpt><trkpt lat="42.0436933" lon="2.4091183"><ele>946.0</ele><time>2026-04-11T08:07:29.002Z</time></trkpt><trkpt lat="42.0438383" lon="2.4090983"><ele>946.0</ele><time>2026-04-11T08:07:30.002Z</time></trkpt><trkpt lat="42.04399" lon="2.4090783"><ele>946.0</ele><time>2026-04-11T08:07:31.002Z</time></trkpt><trkpt lat="42.0441383" lon="2.4090617"><ele>946.0</ele><time>2026-04-11T08:07:32.002Z</time></trkpt><trkpt lat="42.0442767" lon="2.4090433"><ele>944.75</ele><time>2026-04-11T08:07:33.002Z</time></trkpt><trkpt lat="42.0444" lon="2.4089817"><ele>943.5</ele><time>2026-04-11T08:07:34.002Z</time></trkpt><trkpt lat="42.0444933" lon="2.4088883"><ele>942.25</ele><time>2026-04-11T08:07:35.002Z</time></trkpt><trkpt lat="42.044545" lon="2.408765"><ele>941.0</ele><time>2026-04-11T08:07:36.002Z</time></trkpt><trkpt lat="42.044595" lon="2.4086267"><ele>939.8</ele><time>2026-04-11T08:07:37.002Z</time></trkpt><trkpt lat="42.0446283" lon="2.4084933"><ele>938.5999999999999</ele><time>2026-04-11T08:07:38.002Z</time></trkpt><trkpt lat="42.0446583" lon="2.4083583"><ele>937.4</ele><time>2026-04-11T08:07:39.002Z</time></trkpt><trkpt lat="42.0446983" lon="2.4082317"><ele>936.2</ele><time>2026-04-11T08:07:40.002Z</time></trkpt><trkpt lat="42.0447583" lon="2.4081217"><ele>935.0</ele><time>2026-04-11T08:07:41.002Z</time></trkpt><trkpt lat="42.0448583" lon="2.4080383"><ele>933.75</ele><time>2026-04-11T08:07:42.002Z</time></trkpt><trkpt lat="42.0449783" lon="2.4080017"><ele>932.5</ele><time>2026-04-11T08:07:43.002Z</time></trkpt><trkpt lat="42.0451217" lon="2.4080183"><ele>931.25</ele><time>2026-04-11T08:07:44.002Z</time></trkpt><trkpt lat="42.0452617" lon="2.40808"><ele>930.0</ele><time>2026-04-11T08:07:45.002Z</time></trkpt><trkpt lat="42.045405" lon="2.4081683"><ele>930.0</ele><time>2026-04-11T08:07:46.002Z</time></trkpt><trkpt lat="42.0455467" lon="2.4082583"><ele>930.0</ele><time>2026-04-11T08:07:47.002Z</time></trkpt><trkpt lat="42.0456933" lon="2.4083467"><ele>930.0</ele><time>2026-04-11T08:07:48.002Z</time></trkpt><trkpt lat="42.0458383" lon="2.4084333"><ele>928.0</ele><time>2026-04-11T08:07:49.002Z</time></trkpt><trkpt lat="42.0459783" lon="2.408535"><ele>926.0</ele><time>2026-04-11T08:07:50.002Z</time></trkpt><trkpt lat="42.0461033" lon="2.40865"><ele>924.0</ele><time>2026-04-11T08:07:51.002Z</time></trkpt><trkpt lat="42.0462267" lon="2.4087817"><ele>925.3333333333333</ele><time>2026-04-11T08:07:52.002Z</time></trkpt><trkpt lat="42.04635" lon="2.4089333"><ele>926.6666666666666</ele><time>2026-04-11T08:07:53.002Z</time></trkpt><trkpt lat="42.04646" lon="2.4091017"><ele>928.0</ele><time>2026-04-11T08:07:54.002Z</time></trkpt><trkpt lat="42.0465667" lon="2.4092717"><ele>926.25</ele><time>2026-04-11T08:07:55.002Z</time></trkpt><trkpt lat="42.04667" lon="2.409425"><ele>924.5</ele><time>2026-04-11T08:07:56.002Z</time></trkpt><trkpt lat="42.0467767" lon="2.4095817"><ele>922.75</ele><time>2026-04-11T08:07:57.002Z</time></trkpt><trkpt lat="42.0468783" lon="2.4097"><ele>921.0</ele><time>2026-04-11T08:07:58.002Z</time></trkpt><trkpt lat="42.047005" lon="2.4098233"><ele>926.6666666666667</ele><time>2026-04-11T08:07:59.002Z</time></trkpt><trkpt lat="42.0471433" lon="2.4099117"><ele>932.3333333333334</ele><time>2026-04-11T08:08:00.002Z</time></trkpt><trkpt lat="42.0472867" lon="2.4099617"><ele>938.0</ele><time>2026-04-11T08:08:01.002Z</time></trkpt><trkpt lat="42.047435" lon="2.4099583"><ele>933.0</ele><time>2026-04-11T08:08:02.002Z</time></trkpt><trkpt lat="42.04757" lon="2.4099333"><ele>928.0</ele><time>2026-04-11T08:08:03.002Z</time></trkpt><trkpt lat="42.0476983" lon="2.409885"><ele>923.0</ele><time>2026-04-11T08:08:04.002Z</time></trkpt><trkpt lat="42.0478217" lon="2.4098367"><ele>918.0</ele><time>2026-04-11T08:08:05.002Z</time></trkpt><trkpt lat="42.0479083" lon="2.4097567"><ele>915.75</ele><time>2026-04-11T08:08:06.002Z</time></trkpt><trkpt lat="42.0479767" lon="2.4096383"><ele>913.5</ele><time>2026-04-11T08:08:07.002Z</time></trkpt><trkpt lat="42.048015" lon="2.4094883"><ele>911.25</ele><time>2026-04-11T08:08:08.002Z</time></trkpt><trkpt lat="42.0480333" lon="2.4093233"><ele>909.0</ele><time>2026-04-11T08:08:09.002Z</time></trkpt><trkpt lat="42.0480367" lon="2.4091367"><ele>909.0</ele><time>2026-04-11T08:08:10.002Z</time></trkpt><trkpt lat="42.0480233" lon="2.40895"><ele>909.0</ele><time>2026-04-11T08:08:11.003Z</time></trkpt><trkpt lat="42.0480117" lon="2.4087417"><ele>909.0</ele><time>2026-04-11T08:08:12.002Z</time></trkpt><trkpt lat="42.0479917" lon="2.4085233"><ele>908.3333333333333</ele><time>2026-04-11T08:08:13.003Z</time></trkpt><trkpt lat="42.0479683" lon="2.4083033"><ele>907.6666666666666</ele><time>2026-04-11T08:08:14.003Z</time></trkpt><trkpt lat="42.0479633" lon="2.408075"><ele>907.0</ele><time>2026-04-11T08:08:15.002Z</time></trkpt><trkpt lat="42.047985" lon="2.407845"><ele>905.0</ele><time>2026-04-11T08:08:16.002Z</time></trkpt><trkpt lat="42.0480583" lon="2.4076083"><ele>903.0</ele><time>2026-04-11T08:08:17.002Z</time></trkpt><trkpt lat="42.0481517" lon="2.4074"><ele>901.0</ele><time>2026-04-11T08:08:18.002Z</time></trkpt><trkpt lat="42.0482417" lon="2.4071917"><ele>903.3333333333333</ele><time>2026-04-11T08:08:19.002Z</time></trkpt><trkpt lat="42.0483183" lon="2.4069783"><ele>905.6666666666667</ele><time>2026-04-11T08:08:20.002Z</time></trkpt><trkpt lat="42.0483883" lon="2.4067667"><ele>908.0</ele><time>2026-04-11T08:08:21.002Z</time></trkpt><trkpt lat="42.048455" lon="2.4065433"><ele>907.0</ele><time>2026-04-11T08:08:22.002Z</time></trkpt><trkpt lat="42.04851" lon="2.4063117"><ele>906.0</ele><time>2026-04-11T08:08:23.002Z</time></trkpt><trkpt lat="42.0485583" lon="2.4060667"><ele>905.0</ele><time>2026-04-11T08:08:24.002Z</time></trkpt><trkpt lat="42.0485933" lon="2.405825"><ele>905.0</ele><time>2026-04-11T08:08:25.002Z</time></trkpt><trkpt lat="42.0486233" lon="2.4055883"><ele>905.0</ele><time>2026-04-11T08:08:26.002Z</time></trkpt><trkpt lat="42.0486567" lon="2.4053583"><ele>905.0</ele><time>2026-04-11T08:08:27.003Z</time></trkpt><trkpt lat="42.048695" lon="2.40514"><ele>905.0</ele><time>2026-04-11T08:08:28.002Z</time></trkpt><trkpt lat="42.0487333" lon="2.4049333"><ele>905.0</ele><time>2026-04-11T08:08:29.002Z</time></trkpt><trkpt lat="42.0487533" lon="2.404735"><ele>905.0</ele><time>2026-04-11T08:08:30.002Z</time></trkpt><trkpt lat="42.0487533" lon="2.40454"><ele>905.0</ele><time>2026-04-11T08:08:31.002Z</time></trkpt><trkpt lat="42.0487217" lon="2.404355"><ele>905.0</ele><time>2026-04-11T08:08:32.002Z</time></trkpt><trkpt lat="42.0486533" lon="2.4041767"><ele>905.0</ele><time>2026-04-11T08:08:33.002Z</time></trkpt><trkpt lat="42.0485533" lon="2.4040183"><ele>905.0</ele><time>2026-04-11T08:08:34.002Z</time></trkpt><trkpt lat="42.0484333" lon="2.4038767"><ele>903.6666666666667</ele><time>2026-04-11T08:08:35.002Z</time></trkpt><trkpt lat="42.0482983" lon="2.40373"><ele>902.3333333333333</ele><time>2026-04-11T08:08:36.002Z</time></trkpt><trkpt lat="42.048155" lon="2.4035783"><ele>901.0</ele><time>2026-04-11T08:08:37.002Z</time></trkpt><trkpt lat="42.0480167" lon="2.4034317"><ele>901.0</ele><time>2026-04-11T08:08:38.002Z</time></trkpt><trkpt lat="42.047875" lon="2.4032783"><ele>901.0</ele><time>2026-04-11T08:08:39.002Z</time></trkpt><trkpt lat="42.0477367" lon="2.4031233"><ele>901.0</ele><time>2026-04-11T08:08:40.002Z</time></trkpt><trkpt lat="42.0475917" lon="2.4029717"><ele>898.6666666666666</ele><time>2026-04-11T08:08:41.002Z</time></trkpt><trkpt lat="42.04745" lon="2.4028217"><ele>896.3333333333333</ele><time>2026-04-11T08:08:42.002Z</time></trkpt><trkpt lat="42.04731" lon="2.4026733"><ele>894.0</ele><time>2026-04-11T08:08:43.002Z</time></trkpt><trkpt lat="42.0471783" lon="2.402535"><ele>894.0</ele><time>2026-04-11T08:08:44.002Z</time></trkpt><trkpt lat="42.04705" lon="2.40239"><ele>894.0</ele><time>2026-04-11T08:08:45.002Z</time></trkpt><trkpt lat="42.0469333" lon="2.4022533"><ele>894.0</ele><time>2026-04-11T08:08:46.002Z</time></trkpt><trkpt lat="42.0468367" lon="2.402105"><ele>894.0</ele><time>2026-04-11T08:08:47.002Z</time></trkpt><trkpt lat="42.0467683" lon="2.40194"><ele>894.0</ele><time>2026-04-11T08:08:48.002Z</time></trkpt><trkpt lat="42.046745" lon="2.401765"><ele>894.0</ele><time>2026-04-11T08:08:49.002Z</time></trkpt><trkpt lat="42.0467667" lon="2.4015817"><ele>894.0</ele><time>2026-04-11T08:08:50.002Z</time></trkpt><trkpt lat="42.04682" lon="2.4013867"><ele>892.3333333333333</ele><time>2026-04-11T08:08:51.003Z</time></trkpt><trkpt lat="42.046875" lon="2.401195"><ele>890.6666666666666</ele><time>2026-04-11T08:08:52.002Z</time></trkpt><trkpt lat="42.0469083" lon="2.400995"><ele>889.0</ele><time>2026-04-11T08:08:53.002Z</time></trkpt><trkpt lat="42.0469417" lon="2.4008033"><ele>889.0</ele><time>2026-04-11T08:08:54.003Z</time></trkpt><trkpt lat="42.0469767" lon="2.40062"><ele>889.0</ele><time>2026-04-11T08:08:55.002Z</time></trkpt><trkpt lat="42.04703" lon="2.4004567"><ele>889.0</ele><time>2026-04-11T08:08:56.002Z</time></trkpt><trkpt lat="42.047095" lon="2.4003133"><ele>889.0</ele><time>2026-04-11T08:08:57.002Z</time></trkpt><trkpt lat="42.0471717" lon="2.4001917"><ele>888.25</ele><time>2026-04-11T08:08:58.002Z</time></trkpt><trkpt lat="42.0472733" lon="2.4000983"><ele>887.5</ele><time>2026-04-11T08:08:59.002Z</time></trkpt><trkpt lat="42.047375" lon="2.4000467"><ele>886.75</ele><time>2026-04-11T08:09:00.002Z</time></trkpt><trkpt lat="42.04751" lon="2.4000483"><ele>886.0</ele><time>2026-04-11T08:09:01.002Z</time></trkpt><trkpt lat="42.0476517" lon="2.4000867"><ele>886.0</ele><time>2026-04-11T08:09:02.002Z</time></trkpt><trkpt lat="42.0477783" lon="2.4001367"><ele>886.0</ele><time>2026-04-11T08:09:03.002Z</time></trkpt><trkpt lat="42.0479" lon="2.4001383"><ele>886.0</ele><time>2026-04-11T08:09:04.002Z</time></trkpt><trkpt lat="42.04805" lon="2.40011"><ele>886.0</ele><time>2026-04-11T08:09:05.002Z</time></trkpt><trkpt lat="42.0481617" lon="2.4000333"><ele>886.0</ele><time>2026-04-11T08:09:06.003Z</time></trkpt><trkpt lat="42.0482883" lon="2.3999183"><ele>886.0</ele><time>2026-04-11T08:09:07.002Z</time></trkpt><trkpt lat="42.048385" lon="2.3997683"><ele>886.0</ele><time>2026-04-11T08:09:08.002Z</time></trkpt><trkpt lat="42.048505" lon="2.3996117"><ele>883.25</ele><time>2026-04-11T08:09:09.002Z</time></trkpt><trkpt lat="42.0486017" lon="2.3994683"><ele>880.5</ele><time>2026-04-11T08:09:10.002Z</time></trkpt><trkpt lat="42.0487117" lon="2.3993517"><ele>877.75</ele><time>2026-04-11T08:09:11.002Z</time></trkpt><trkpt lat="42.048815" lon="2.3992667"><ele>875.0</ele><time>2026-04-11T08:09:12.002Z</time></trkpt><trkpt lat="42.0489667" lon="2.3992383"><ele>875.0</ele><time>2026-04-11T08:09:13.002Z</time></trkpt><trkpt lat="42.0490817" lon="2.3992567"><ele>875.0</ele><time>2026-04-11T08:09:14.002Z</time></trkpt><trkpt lat="42.0491783" lon="2.3993383"><ele>875.0</ele><time>2026-04-11T08:09:15.002Z</time></trkpt><trkpt lat="42.04926" lon="2.3994817"><ele>875.0</ele><time>2026-04-11T08:09:16.002Z</time></trkpt><trkpt lat="42.0493217" lon="2.3996517"><ele>876.25</ele><time>2026-04-11T08:09:17.002Z</time></trkpt><trkpt lat="42.049375" lon="2.3998383"><ele>877.5</ele><time>2026-04-11T08:09:18.002Z</time></trkpt><trkpt lat="42.0494333" lon="2.3999983"><ele>878.75</ele><time>2026-04-11T08:09:19.002Z</time></trkpt><trkpt lat="42.049495" lon="2.4001617"><ele>880.0</ele><time>2026-04-11T08:09:20.002Z</time></trkpt><trkpt lat="42.0495867" lon="2.400265"><ele>880.0</ele><time>2026-04-11T08:09:21.003Z</time></trkpt><trkpt lat="42.0497" lon="2.4003467"><ele>880.0</ele><time>2026-04-11T08:09:22.002Z</time></trkpt><trkpt lat="42.04983" lon="2.40039"><ele>880.0</ele><time>2026-04-11T08:09:23.002Z</time></trkpt><trkpt lat="42.04997" lon="2.4004067"><ele>880.0</ele><time>2026-04-11T08:09:24.002Z</time></trkpt><trkpt lat="42.0501067" lon="2.4004167"><ele>878.25</ele><time>2026-04-11T08:09:25.003Z</time></trkpt><trkpt lat="42.05026" lon="2.400425"><ele>876.5</ele><time>2026-04-11T08:09:26.003Z</time></trkpt><trkpt lat="42.05038" lon="2.4003883"><ele>874.75</ele><time>2026-04-11T08:09:27.002Z</time></trkpt><trkpt lat="42.0504933" lon="2.4003067"><ele>873.0</ele><time>2026-04-11T08:09:28.002Z</time></trkpt><trkpt lat="42.05055" lon="2.4001867"><ele>873.0</ele><time>2026-04-11T08:09:29.002Z</time></trkpt><trkpt lat="42.0505883" lon="2.4000367"><ele>873.0</ele><time>2026-04-11T08:09:30.002Z</time></trkpt><trkpt lat="42.0505883" lon="2.3998633"><ele>873.0</ele><time>2026-04-11T08:09:31.002Z</time></trkpt><trkpt lat="42.0505583" lon="2.3996867"><ele>873.0</ele><time>2026-04-11T08:09:32.002Z</time></trkpt><trkpt lat="42.0505233" lon="2.3994967"><ele>870.6666666666667</ele><time>2026-04-11T08:09:33.002Z</time></trkpt><trkpt lat="42.05048" lon="2.3992967"><ele>868.3333333333334</ele><time>2026-04-11T08:09:34.002Z</time></trkpt><trkpt lat="42.0504267" lon="2.3990917"><ele>866.0</ele><time>2026-04-11T08:09:35.003Z</time></trkpt><trkpt lat="42.0503817" lon="2.398875"><ele>865.0</ele><time>2026-04-11T08:09:36.003Z</time></trkpt><trkpt lat="42.0503383" lon="2.39865"><ele>864.0</ele><time>2026-04-11T08:09:37.002Z</time></trkpt><trkpt lat="42.0502917" lon="2.3984217"><ele>863.0</ele><time>2026-04-11T08:09:38.002Z</time></trkpt><trkpt lat="42.0502333" lon="2.3981867"><ele>863.6666666666667</ele><time>2026-04-11T08:09:39.002Z</time></trkpt><trkpt lat="42.0501883" lon="2.397955"><ele>864.3333333333333</ele><time>2026-04-11T08:09:40.003Z</time></trkpt><trkpt lat="42.0501267" lon="2.3977117"><ele>865.0</ele><time>2026-04-11T08:09:41.002Z</time></trkpt><trkpt lat="42.0500717" lon="2.397465"><ele>865.0</ele><time>2026-04-11T08:09:42.003Z</time></trkpt><trkpt lat="42.050025" lon="2.3972233"><ele>865.0</ele><time>2026-04-11T08:09:43.002Z</time></trkpt><trkpt lat="42.0499817" lon="2.396985"><ele>865.0</ele><time>2026-04-11T08:09:44.002Z</time></trkpt><trkpt lat="42.0499383" lon="2.3967317"><ele>860.6666666666666</ele><time>2026-04-11T08:09:45.002Z</time></trkpt><trkpt lat="42.049885" lon="2.3964917"><ele>856.3333333333333</ele><time>2026-04-11T08:09:46.002Z</time></trkpt><trkpt lat="42.049835" lon="2.3962667"><ele>852.0</ele><time>2026-04-11T08:09:47.002Z</time></trkpt><trkpt lat="42.049795" lon="2.3960483"><ele>852.6666666666667</ele><time>2026-04-11T08:09:48.002Z</time></trkpt><trkpt lat="42.049735" lon="2.395845"><ele>853.3333333333334</ele><time>2026-04-11T08:09:49.002Z</time></trkpt><trkpt lat="42.049635" lon="2.3956517"><ele>854.0</ele><time>2026-04-11T08:09:50.002Z</time></trkpt><trkpt lat="42.04952" lon="2.3954717"><ele>854.0</ele><time>2026-04-11T08:09:51.002Z</time></trkpt><trkpt lat="42.0493817" lon="2.3953133"><ele>854.0</ele><time>2026-04-11T08:09:52.002Z</time></trkpt><trkpt lat="42.04924" lon="2.3951567"><ele>854.0</ele><time>2026-04-11T08:09:53.002Z</time></trkpt><trkpt lat="42.0491017" lon="2.39501"><ele>851.0</ele><time>2026-04-11T08:09:54.002Z</time></trkpt><trkpt lat="42.0489683" lon="2.3948617"><ele>848.0</ele><time>2026-04-11T08:09:55.002Z</time></trkpt><trkpt lat="42.0488417" lon="2.394725"><ele>845.0</ele><time>2026-04-11T08:09:56.002Z</time></trkpt><trkpt lat="42.0487283" lon="2.394595"><ele>845.0</ele><time>2026-04-11T08:09:57.002Z</time></trkpt><trkpt lat="42.0486483" lon="2.3944483"><ele>845.0</ele><time>2026-04-11T08:09:58.002Z</time></trkpt><trkpt lat="42.04859" lon="2.3942917"><ele>845.0</ele><time>2026-04-11T08:09:59.002Z</time></trkpt><trkpt lat="42.0485833" lon="2.3941317"><ele>845.0</ele><time>2026-04-11T08:10:00.002Z</time></trkpt><trkpt lat="42.0486417" lon="2.3939917"><ele>845.0</ele><time>2026-04-11T08:10:01.002Z</time></trkpt><trkpt lat="42.048715" lon="2.3938817"><ele>845.0</ele><time>2026-04-11T08:10:02.002Z</time></trkpt><trkpt lat="42.0487883" lon="2.393785"><ele>845.0</ele><time>2026-04-11T08:10:03.003Z</time></trkpt><trkpt lat="42.048905" lon="2.3936983"><ele>845.0</ele><time>2026-04-11T08:10:04.002Z</time></trkpt><trkpt lat="42.0490483" lon="2.3936117"><ele>844.6666666666667</ele><time>2026-04-11T08:10:05.002Z</time></trkpt><trkpt lat="42.0491883" lon="2.393525"><ele>844.3333333333333</ele><time>2026-04-11T08:10:06.002Z</time></trkpt><trkpt lat="42.0493417" lon="2.3934383"><ele>844.0</ele><time>2026-04-11T08:10:07.002Z</time></trkpt><trkpt lat="42.0495" lon="2.3933483"><ele>844.0</ele><time>2026-04-11T08:10:08.002Z</time></trkpt><trkpt lat="42.0496433" lon="2.39326"><ele>844.0</ele><time>2026-04-11T08:10:09.002Z</time></trkpt><trkpt lat="42.0497867" lon="2.3931783"><ele>844.0</ele><time>2026-04-11T08:10:10.002Z</time></trkpt><trkpt lat="42.0499283" lon="2.3930983"><ele>845.3333333333333</ele><time>2026-04-11T08:10:11.002Z</time></trkpt><trkpt lat="42.05007" lon="2.3930117"><ele>846.6666666666667</ele><time>2026-04-11T08:10:12.002Z</time></trkpt><trkpt lat="42.0502133" lon="2.3929183"><ele>848.0</ele><time>2026-04-11T08:10:13.002Z</time></trkpt><trkpt lat="42.0503567" lon="2.3928183"><ele>845.3333333333334</ele><time>2026-04-11T08:10:14.002Z</time></trkpt><trkpt lat="42.0505017" lon="2.39273"><ele>842.6666666666667</ele><time>2026-04-11T08:10:15.002Z</time></trkpt><trkpt lat="42.0506567" lon="2.3926383"><ele>840.0</ele><time>2026-04-11T08:10:16.002Z</time></trkpt><trkpt lat="42.0507967" lon="2.39253"><ele>840.0</ele><time>2026-04-11T08:10:17.002Z</time></trkpt><trkpt lat="42.0509133" lon="2.392395"><ele>840.0</ele><time>2026-04-11T08:10:18.002Z</time></trkpt><trkpt lat="42.0510133" lon="2.3922267"><ele>840.0</ele><time>2026-04-11T08:10:19.002Z</time></trkpt><trkpt lat="42.05111" lon="2.3920367"><ele>838.75</ele><time>2026-04-11T08:10:20.002Z</time></trkpt><trkpt lat="42.051195" lon="2.3918533"><ele>837.5</ele><time>2026-04-11T08:10:21.002Z</time></trkpt><trkpt lat="42.0512617" lon="2.391695"><ele>836.25</ele><time>2026-04-11T08:10:22.002Z</time></trkpt><trkpt lat="42.0512933" lon="2.3915433"><ele>835.0</ele><time>2026-04-11T08:10:23.002Z</time></trkpt><trkpt lat="42.0512817" lon="2.3913967"><ele>835.75</ele><time>2026-04-11T08:10:24.003Z</time></trkpt><trkpt lat="42.051225" lon="2.3912617"><ele>836.5</ele><time>2026-04-11T08:10:25.002Z</time></trkpt><trkpt lat="42.0511267" lon="2.391155"><ele>837.25</ele><time>2026-04-11T08:10:26.002Z</time></trkpt><trkpt lat="42.0510067" lon="2.391095"><ele>838.0</ele><time>2026-04-11T08:10:27.002Z</time></trkpt><trkpt lat="42.0508733" lon="2.3910683"><ele>839.3333333333333</ele><time>2026-04-11T08:10:28.002Z</time></trkpt><trkpt lat="42.0507283" lon="2.3910617"><ele>840.6666666666667</ele><time>2026-04-11T08:10:29.002Z</time></trkpt><trkpt lat="42.05057" lon="2.3910633"><ele>842.0</ele><time>2026-04-11T08:10:30.003Z</time></trkpt><trkpt lat="42.0504083" lon="2.3910683"><ele>842.0</ele><time>2026-04-11T08:10:31.002Z</time></trkpt><trkpt lat="42.0502517" lon="2.3910633"><ele>842.0</ele><time>2026-04-11T08:10:32.002Z</time></trkpt><trkpt lat="42.0501" lon="2.39105"><ele>842.0</ele><time>2026-04-11T08:10:33.002Z</time></trkpt><trkpt lat="42.049935" lon="2.3910467"><ele>841.0</ele><time>2026-04-11T08:10:34.002Z</time></trkpt><trkpt lat="42.04976" lon="2.391045"><ele>840.0</ele><time>2026-04-11T08:10:35.002Z</time></trkpt><trkpt lat="42.0495783" lon="2.391035"><ele>839.0</ele><time>2026-04-11T08:10:36.002Z</time></trkpt><trkpt lat="42.049395" lon="2.391025"><ele>839.0</ele><time>2026-04-11T08:10:37.002Z</time></trkpt><trkpt lat="42.0492033" lon="2.39102"><ele>839.0</ele><time>2026-04-11T08:10:38.002Z</time></trkpt><trkpt lat="42.049015" lon="2.3910167"><ele>839.0</ele><time>2026-04-11T08:10:39.002Z</time></trkpt><trkpt lat="42.0488267" lon="2.3910083"><ele>838.6666666666667</ele><time>2026-04-11T08:10:40.002Z</time></trkpt><trkpt lat="42.048645" lon="2.390995"><ele>838.3333333333333</ele><time>2026-04-11T08:10:41.002Z</time></trkpt><trkpt lat="42.04846" lon="2.3909817"><ele>838.0</ele><time>2026-04-11T08:10:42.002Z</time></trkpt><trkpt lat="42.04828" lon="2.3909667"><ele>835.6666666666666</ele><time>2026-04-11T08:10:43.002Z</time></trkpt><trkpt lat="42.04809" lon="2.3909567"><ele>833.3333333333333</ele><time>2026-04-11T08:10:44.002Z</time></trkpt><trkpt lat="42.04792" lon="2.390945"><ele>831.0</ele><time>2026-04-11T08:10:45.002Z</time></trkpt><trkpt lat="42.04776" lon="2.3909383"><ele>831.0</ele><time>2026-04-11T08:10:46.002Z</time></trkpt><trkpt lat="42.0476233" lon="2.390925"><ele>831.0</ele><time>2026-04-11T08:10:47.002Z</time></trkpt><trkpt lat="42.047495" lon="2.39091"><ele>831.0</ele><time>2026-04-11T08:10:48.003Z</time></trkpt><trkpt lat="42.0473767" lon="2.390885"><ele>831.0</ele><time>2026-04-11T08:10:49.002Z</time></trkpt><trkpt lat="42.0472717" lon="2.3908117"><ele>831.75</ele><time>2026-04-11T08:10:50.002Z</time></trkpt><trkpt lat="42.0471967" lon="2.39069"><ele>832.5</ele><time>2026-04-11T08:10:51.002Z</time></trkpt><trkpt lat="42.0471417" lon="2.3905117"><ele>833.25</ele><time>2026-04-11T08:10:52.002Z</time></trkpt><trkpt lat="42.0471517" lon="2.39032"><ele>834.0</ele><time>2026-04-11T08:10:53.002Z</time></trkpt><trkpt lat="42.0472117" lon="2.3901367"><ele>832.0</ele><time>2026-04-11T08:10:54.002Z</time></trkpt><trkpt lat="42.0473067" lon="2.3899517"><ele>830.0</ele><time>2026-04-11T08:10:55.002Z</time></trkpt><trkpt lat="42.047405" lon="2.3897583"><ele>828.0</ele><time>2026-04-11T08:10:56.003Z</time></trkpt><trkpt lat="42.0474883" lon="2.3895617"><ele>827.0</ele><time>2026-04-11T08:10:57.002Z</time></trkpt><trkpt lat="42.047575" lon="2.3893833"><ele>826.0</ele><time>2026-04-11T08:10:58.002Z</time></trkpt><trkpt lat="42.0476617" lon="2.3891917"><ele>825.0</ele><time>2026-04-11T08:10:59.002Z</time></trkpt><trkpt lat="42.0477633" lon="2.3889917"><ele>822.0</ele><time>2026-04-11T08:11:00.002Z</time></trkpt><trkpt lat="42.0478617" lon="2.3887983"><ele>819.0</ele><time>2026-04-11T08:11:01.002Z</time></trkpt><trkpt lat="42.0479517" lon="2.3886117"><ele>816.0</ele><time>2026-04-11T08:11:02.002Z</time></trkpt><trkpt lat="42.0480317" lon="2.3884317"><ele>816.0</ele><time>2026-04-11T08:11:03.002Z</time></trkpt><trkpt lat="42.04811" lon="2.3882517"><ele>816.0</ele><time>2026-04-11T08:11:04.002Z</time></trkpt><trkpt lat="42.04818" lon="2.3880833"><ele>816.0</ele><time>2026-04-11T08:11:05.002Z</time></trkpt><trkpt lat="42.0482217" lon="2.3879083"><ele>816.0</ele><time>2026-04-11T08:11:06.002Z</time></trkpt><trkpt lat="42.0482267" lon="2.387745"><ele>815.0</ele><time>2026-04-11T08:11:07.002Z</time></trkpt><trkpt lat="42.048205" lon="2.3875783"><ele>814.0</ele><time>2026-04-11T08:11:08.002Z</time></trkpt><trkpt lat="42.0481467" lon="2.387415"><ele>813.0</ele><time>2026-04-11T08:11:09.002Z</time></trkpt><trkpt lat="42.0480567" lon="2.3872467"><ele>812.0</ele><time>2026-04-11T08:11:10.002Z</time></trkpt><trkpt lat="42.0479633" lon="2.3870767"><ele>811.5</ele><time>2026-04-11T08:11:11.002Z</time></trkpt><trkpt lat="42.0478717" lon="2.38692"><ele>811.0</ele><time>2026-04-11T08:11:12.002Z</time></trkpt><trkpt lat="42.0478067" lon="2.3867567"><ele>810.5</ele><time>2026-04-11T08:11:13.002Z</time></trkpt><trkpt lat="42.0477667" lon="2.386585"><ele>810.0</ele><time>2026-04-11T08:11:14.002Z</time></trkpt><trkpt lat="42.0477717" lon="2.38641"><ele>808.5</ele><time>2026-04-11T08:11:15.002Z</time></trkpt><trkpt lat="42.047825" lon="2.3862667"><ele>807.0</ele><time>2026-04-11T08:11:16.002Z</time></trkpt><trkpt lat="42.0479233" lon="2.386185"><ele>805.5</ele><time>2026-04-11T08:11:17.002Z</time></trkpt><trkpt lat="42.0480367" lon="2.3861317"><ele>804.0</ele><time>2026-04-11T08:11:18.002Z</time></trkpt><trkpt lat="42.0481733" lon="2.3861117"><ele>803.75</ele><time>2026-04-11T08:11:19.002Z</time></trkpt><trkpt lat="42.0483117" lon="2.3860833"><ele>803.5</ele><time>2026-04-11T08:11:20.002Z</time></trkpt><trkpt lat="42.0484517" lon="2.38605"><ele>803.25</ele><time>2026-04-11T08:11:21.002Z</time></trkpt><trkpt lat="42.0485867" lon="2.38601"><ele>803.0</ele><time>2026-04-11T08:11:22.002Z</time></trkpt><trkpt lat="42.0487283" lon="2.3859717"><ele>803.0</ele><time>2026-04-11T08:11:23.002Z</time></trkpt><trkpt lat="42.04885" lon="2.3859117"><ele>803.0</ele><time>2026-04-11T08:11:24.002Z</time></trkpt><trkpt lat="42.0489383" lon="2.385815"><ele>803.0</ele><time>2026-04-11T08:11:25.002Z</time></trkpt><trkpt lat="42.0489983" lon="2.3856867"><ele>803.0</ele><time>2026-04-11T08:11:26.002Z</time></trkpt><trkpt lat="42.0490183" lon="2.3855433"><ele>801.5</ele><time>2026-04-11T08:11:27.002Z</time></trkpt><trkpt lat="42.048975" lon="2.3853833"><ele>800.0</ele><time>2026-04-11T08:11:28.002Z</time></trkpt><trkpt lat="42.048895" lon="2.38523"><ele>798.5</ele><time>2026-04-11T08:11:29.002Z</time></trkpt><trkpt lat="42.048795" lon="2.3850833"><ele>797.0</ele><time>2026-04-11T08:11:30.002Z</time></trkpt><trkpt lat="42.0486783" lon="2.384935"><ele>797.0</ele><time>2026-04-11T08:11:31.002Z</time></trkpt><trkpt lat="42.0485683" lon="2.3847867"><ele>797.0</ele><time>2026-04-11T08:11:32.002Z</time></trkpt><trkpt lat="42.048465" lon="2.3846467"><ele>797.0</ele><time>2026-04-11T08:11:33.003Z</time></trkpt><trkpt lat="42.0483683" lon="2.3845117"><ele>797.0</ele><time>2026-04-11T08:11:34.002Z</time></trkpt><trkpt lat="42.0482817" lon="2.384365"><ele>795.0</ele><time>2026-04-11T08:11:35.002Z</time></trkpt><trkpt lat="42.0482183" lon="2.3842017"><ele>793.0</ele><time>2026-04-11T08:11:36.002Z</time></trkpt><trkpt lat="42.0481867" lon="2.3840417"><ele>791.0</ele><time>2026-04-11T08:11:37.002Z</time></trkpt><trkpt lat="42.0482083" lon="2.38389"><ele>789.0</ele><time>2026-04-11T08:11:38.002Z</time></trkpt><trkpt lat="42.0482667" lon="2.383755"><ele>788.75</ele><time>2026-04-11T08:11:39.002Z</time></trkpt><trkpt lat="42.048355" lon="2.3836317"><ele>788.5</ele><time>2026-04-11T08:11:40.002Z</time></trkpt><trkpt lat="42.0484567" lon="2.38352"><ele>788.25</ele><time>2026-04-11T08:11:41.002Z</time></trkpt><trkpt lat="42.0486033" lon="2.383425"><ele>788.0</ele><time>2026-04-11T08:11:42.003Z</time></trkpt><trkpt lat="42.0487283" lon="2.3833283"><ele>788.0</ele><time>2026-04-11T08:11:43.002Z</time></trkpt><trkpt lat="42.0488683" lon="2.3832583"><ele>788.0</ele><time>2026-04-11T08:11:44.003Z</time></trkpt><trkpt lat="42.0490383" lon="2.3832333"><ele>788.0</ele><time>2026-04-11T08:11:45.002Z</time></trkpt><trkpt lat="42.0491883" lon="2.3832583"><ele>789.3333333333334</ele><time>2026-04-11T08:11:46.002Z</time></trkpt><trkpt lat="42.04933" lon="2.3833217"><ele>790.6666666666667</ele><time>2026-04-11T08:11:47.002Z</time></trkpt><trkpt lat="42.0494617" lon="2.383415"><ele>792.0</ele><time>2026-04-11T08:11:48.002Z</time></trkpt><trkpt lat="42.049605" lon="2.3835067"><ele>792.0</ele><time>2026-04-11T08:11:49.002Z</time></trkpt><trkpt lat="42.049725" lon="2.3835867"><ele>792.0</ele><time>2026-04-11T08:11:50.002Z</time></trkpt><trkpt lat="42.049845" lon="2.383645"><ele>792.0</ele><time>2026-04-11T08:11:51.002Z</time></trkpt><trkpt lat="42.0499717" lon="2.38367"><ele>792.0</ele><time>2026-04-11T08:11:52.002Z</time></trkpt><trkpt lat="42.0500933" lon="2.3836533"><ele>791.5</ele><time>2026-04-11T08:11:53.002Z</time></trkpt><trkpt lat="42.0502083" lon="2.3835833"><ele>791.0</ele><time>2026-04-11T08:11:54.002Z</time></trkpt><trkpt lat="42.0503017" lon="2.3834717"><ele>790.5</ele><time>2026-04-11T08:11:55.002Z</time></trkpt><trkpt lat="42.0503867" lon="2.3833383"><ele>790.0</ele><time>2026-04-11T08:11:56.002Z</time></trkpt><trkpt lat="42.0504533" lon="2.3831983"><ele>790.0</ele><time>2026-04-11T08:11:57.002Z</time></trkpt><trkpt lat="42.0504917" lon="2.3830417"><ele>790.0</ele><time>2026-04-11T08:11:58.002Z</time></trkpt><trkpt lat="42.0504933" lon="2.3828867"><ele>790.0</ele><time>2026-04-11T08:11:59.002Z</time></trkpt><trkpt lat="42.0504533" lon="2.3827533"><ele>790.0</ele><time>2026-04-11T08:12:00.002Z</time></trkpt><trkpt lat="42.05037" lon="2.3826317"><ele>789.5</ele><time>2026-04-11T08:12:01.002Z</time></trkpt><trkpt lat="42.0502567" lon="2.3825417"><ele>789.0</ele><time>2026-04-11T08:12:02.002Z</time></trkpt><trkpt lat="42.0501217" lon="2.3824817"><ele>788.5</ele><time>2026-04-11T08:12:03.002Z</time></trkpt><trkpt lat="42.049975" lon="2.3824417"><ele>788.0</ele><time>2026-04-11T08:12:04.002Z</time></trkpt><trkpt lat="42.0498233" lon="2.3824033"><ele>788.0</ele><time>2026-04-11T08:12:05.002Z</time></trkpt><trkpt lat="42.049665" lon="2.3823633"><ele>788.0</ele><time>2026-04-11T08:12:06.002Z</time></trkpt><trkpt lat="42.04951" lon="2.3823167"><ele>788.0</ele><time>2026-04-11T08:12:07.002Z</time></trkpt><trkpt lat="42.0493483" lon="2.38227"><ele>788.0</ele><time>2026-04-11T08:12:08.002Z</time></trkpt><trkpt lat="42.04918" lon="2.38223"><ele>788.0</ele><time>2026-04-11T08:12:09.002Z</time></trkpt><trkpt lat="42.049025" lon="2.38217"><ele>788.0</ele><time>2026-04-11T08:12:10.002Z</time></trkpt><trkpt lat="42.04888" lon="2.3821183"><ele>787.75</ele><time>2026-04-11T08:12:11.002Z</time></trkpt><trkpt lat="42.048735" lon="2.38207"><ele>787.5</ele><time>2026-04-11T08:12:12.002Z</time></trkpt><trkpt lat="42.0486067" lon="2.3820267"><ele>787.25</ele><time>2026-04-11T08:12:13.002Z</time></trkpt><trkpt lat="42.0484817" lon="2.381985"><ele>787.0</ele><time>2026-04-11T08:12:14.002Z</time></trkpt><trkpt lat="42.048365" lon="2.3819267"><ele>785.25</ele><time>2026-04-11T08:12:15.002Z</time></trkpt><trkpt lat="42.0482683" lon="2.3818333"><ele>783.5</ele><time>2026-04-11T08:12:16.002Z</time></trkpt><trkpt lat="42.0481933" lon="2.381675"><ele>781.75</ele><time>2026-04-11T08:12:17.003Z</time></trkpt><trkpt lat="42.048155" lon="2.3815067"><ele>780.0</ele><time>2026-04-11T08:12:18.002Z</time></trkpt><trkpt lat="42.0481617" lon="2.3813317"><ele>780.5</ele><time>2026-04-11T08:12:19.003Z</time></trkpt><trkpt lat="42.04823" lon="2.3811717"><ele>781.0</ele><time>2026-04-11T08:12:20.002Z</time></trkpt><trkpt lat="42.04832" lon="2.38103"><ele>781.5</ele><time>2026-04-11T08:12:21.002Z</time></trkpt><trkpt lat="42.0484167" lon="2.3809"><ele>782.0</ele><time>2026-04-11T08:12:22.002Z</time></trkpt><trkpt lat="42.0485217" lon="2.3807683"><ele>782.0</ele><time>2026-04-11T08:12:23.002Z</time></trkpt><trkpt lat="42.0486317" lon="2.3806417"><ele>782.0</ele><time>2026-04-11T08:12:24.002Z</time></trkpt><trkpt lat="42.0487667" lon="2.3805233"><ele>782.0</ele><time>2026-04-11T08:12:25.002Z</time></trkpt><trkpt lat="42.04888" lon="2.3803933"><ele>779.5</ele><time>2026-04-11T08:12:26.002Z</time></trkpt><trkpt lat="42.048975" lon="2.380255"><ele>777.0</ele><time>2026-04-11T08:12:27.002Z</time></trkpt><trkpt lat="42.049015" lon="2.380095"><ele>774.5</ele><time>2026-04-11T08:12:28.003Z</time></trkpt><trkpt lat="42.04902" lon="2.37992"><ele>772.0</ele><time>2026-04-11T08:12:29.002Z</time></trkpt><trkpt lat="42.048975" lon="2.379755"><ele>772.0</ele><time>2026-04-11T08:12:30.002Z</time></trkpt><trkpt lat="42.0488817" lon="2.379625"><ele>772.0</ele><time>2026-04-11T08:12:31.002Z</time></trkpt><trkpt lat="42.0487583" lon="2.3795333"><ele>772.0</ele><time>2026-04-11T08:12:32.002Z</time></trkpt><trkpt lat="42.0486267" lon="2.379455"><ele>772.0</ele><time>2026-04-11T08:12:33.002Z</time></trkpt><trkpt lat="42.048495" lon="2.3793667"><ele>772.0</ele><time>2026-04-11T08:12:34.003Z</time></trkpt><trkpt lat="42.048375" lon="2.379255"><ele>772.0</ele><time>2026-04-11T08:12:35.002Z</time></trkpt><trkpt lat="42.0482617" lon="2.3791183"><ele>772.0</ele><time>2026-04-11T08:12:36.002Z</time></trkpt><trkpt lat="42.04815" lon="2.3789667"><ele>768.6666666666666</ele><time>2026-04-11T08:12:37.002Z</time></trkpt><trkpt lat="42.048035" lon="2.3788117"><ele>765.3333333333333</ele><time>2026-04-11T08:12:38.002Z</time></trkpt><trkpt lat="42.0479267" lon="2.37866"><ele>762.0</ele><time>2026-04-11T08:12:39.002Z</time></trkpt><trkpt lat="42.0478133" lon="2.3785067"><ele>762.0</ele><time>2026-04-11T08:12:40.002Z</time></trkpt><trkpt lat="42.0477033" lon="2.378335"><ele>762.0</ele><time>2026-04-11T08:12:41.002Z</time></trkpt><trkpt lat="42.0476017" lon="2.3781967"><ele>762.0</ele><time>2026-04-11T08:12:42.002Z</time></trkpt><trkpt lat="42.0475" lon="2.3780517"><ele>762.25</ele><time>2026-04-11T08:12:43.002Z</time></trkpt><trkpt lat="42.0473833" lon="2.377955"><ele>762.5</ele><time>2026-04-11T08:12:44.002Z</time></trkpt><trkpt lat="42.0472533" lon="2.3779117"><ele>762.75</ele><time>2026-04-11T08:12:45.002Z</time></trkpt><trkpt lat="42.0471183" lon="2.37793"><ele>763.0</ele><time>2026-04-11T08:12:46.002Z</time></trkpt><trkpt lat="42.046985" lon="2.3779867"><ele>761.75</ele><time>2026-04-11T08:12:47.002Z</time></trkpt><trkpt lat="42.0468617" lon="2.3780533"><ele>760.5</ele><time>2026-04-11T08:12:48.002Z</time></trkpt><trkpt lat="42.046735" lon="2.3781117"><ele>759.25</ele><time>2026-04-11T08:12:49.002Z</time></trkpt><trkpt lat="42.0466133" lon="2.3781433"><ele>758.0</ele><time>2026-04-11T08:12:50.002Z</time></trkpt><trkpt lat="42.0464867" lon="2.3781583"><ele>756.25</ele><time>2026-04-11T08:12:51.002Z</time></trkpt><trkpt lat="42.046345" lon="2.3781583"><ele>754.5</ele><time>2026-04-11T08:12:52.002Z</time></trkpt><trkpt lat="42.0461883" lon="2.3781383"><ele>752.75</ele><time>2026-04-11T08:12:53.002Z</time></trkpt><trkpt lat="42.04604" lon="2.3781167"><ele>751.0</ele><time>2026-04-11T08:12:54.002Z</time></trkpt><trkpt lat="42.04589" lon="2.3780867"><ele>750.5</ele><time>2026-04-11T08:12:55.002Z</time></trkpt><trkpt lat="42.0457467" lon="2.3780733"><ele>750.0</ele><time>2026-04-11T08:12:56.002Z</time></trkpt><trkpt lat="42.0456017" lon="2.37805"><ele>749.5</ele><time>2026-04-11T08:12:57.002Z</time></trkpt><trkpt lat="42.0454633" lon="2.3780117"><ele>749.0</ele><time>2026-04-11T08:12:58.002Z</time></trkpt><trkpt lat="42.0453367" lon="2.3779467"><ele>749.0</ele><time>2026-04-11T08:12:59.002Z</time></trkpt><trkpt lat="42.0452117" lon="2.3778383"><ele>749.0</ele><time>2026-04-11T08:13:00.002Z</time></trkpt><trkpt lat="42.0451" lon="2.3777"><ele>749.0</ele><time>2026-04-11T08:13:01.002Z</time></trkpt><trkpt lat="42.0449933" lon="2.3775433"><ele>748.0</ele><time>2026-04-11T08:13:02.003Z</time></trkpt><trkpt lat="42.044875" lon="2.3773967"><ele>747.0</ele><time>2026-04-11T08:13:03.002Z</time></trkpt><trkpt lat="42.04476" lon="2.3772233"><ele>746.0</ele><time>2026-04-11T08:13:04.002Z</time></trkpt><trkpt lat="42.0446467" lon="2.37706"><ele>744.6666666666666</ele><time>2026-04-11T08:13:05.002Z</time></trkpt><trkpt lat="42.04454" lon="2.3768983"><ele>743.3333333333334</ele><time>2026-04-11T08:13:06.002Z</time></trkpt><trkpt lat="42.044435" lon="2.3767333"><ele>742.0</ele><time>2026-04-11T08:13:07.002Z</time></trkpt><trkpt lat="42.044345" lon="2.37656"><ele>742.0</ele><time>2026-04-11T08:13:08.002Z</time></trkpt><trkpt lat="42.0442817" lon="2.37637"><ele>742.0</ele><time>2026-04-11T08:13:09.002Z</time></trkpt><trkpt lat="42.0442583" lon="2.3761733"><ele>742.0</ele><time>2026-04-11T08:13:10.002Z</time></trkpt><trkpt lat="42.0442967" lon="2.3759883"><ele>742.0</ele><time>2026-04-11T08:13:11.002Z</time></trkpt><trkpt lat="42.0443583" lon="2.3758233"><ele>740.3333333333334</ele><time>2026-04-11T08:13:12.002Z</time></trkpt><trkpt lat="42.04444" lon="2.37566"><ele>738.6666666666666</ele><time>2026-04-11T08:13:13.002Z</time></trkpt><trkpt lat="42.0445383" lon="2.3754883"><ele>737.0</ele><time>2026-04-11T08:13:14.002Z</time></trkpt><trkpt lat="42.0445933" lon="2.3753017"><ele>734.6666666666666</ele><time>2026-04-11T08:13:15.002Z</time></trkpt><trkpt lat="42.04462" lon="2.3751017"><ele>732.3333333333334</ele><time>2026-04-11T08:13:16.002Z</time></trkpt><trkpt lat="42.044585" lon="2.3748967"><ele>730.0</ele><time>2026-04-11T08:13:17.002Z</time></trkpt><trkpt lat="42.0445317" lon="2.3746967"><ele>727.6666666666667</ele><time>2026-04-11T08:13:18.002Z</time></trkpt><trkpt lat="42.0444717" lon="2.374495"><ele>725.3333333333334</ele><time>2026-04-11T08:13:19.002Z</time></trkpt><trkpt lat="42.0444033" lon="2.3742883"><ele>723.0</ele><time>2026-04-11T08:13:20.002Z</time></trkpt><trkpt lat="42.0443383" lon="2.3740967"><ele>723.0</ele><time>2026-04-11T08:13:21.002Z</time></trkpt><trkpt lat="42.0442917" lon="2.3738967"><ele>723.0</ele><time>2026-04-11T08:13:22.002Z</time></trkpt><trkpt lat="42.044275" lon="2.3737017"><ele>723.0</ele><time>2026-04-11T08:13:23.002Z</time></trkpt><trkpt lat="42.0442967" lon="2.3735017"><ele>721.6666666666666</ele><time>2026-04-11T08:13:24.002Z</time></trkpt><trkpt lat="42.0443517" lon="2.3733133"><ele>720.3333333333333</ele><time>2026-04-11T08:13:25.003Z</time></trkpt><trkpt lat="42.04443" lon="2.3731283"><ele>719.0</ele><time>2026-04-11T08:13:26.002Z</time></trkpt><trkpt lat="42.0445183" lon="2.37296"><ele>718.5</ele><time>2026-04-11T08:13:27.002Z</time></trkpt><trkpt lat="42.0446117" lon="2.372795"><ele>718.0</ele><time>2026-04-11T08:13:28.002Z</time></trkpt><trkpt lat="42.0447133" lon="2.3726533"><ele>717.5</ele><time>2026-04-11T08:13:29.002Z</time></trkpt><trkpt lat="42.04482" lon="2.3725333"><ele>717.0</ele><time>2026-04-11T08:13:30.002Z</time></trkpt><trkpt lat="42.0449533" lon="2.372465"><ele>716.5</ele><time>2026-04-11T08:13:31.002Z</time></trkpt><trkpt lat="42.04508" lon="2.3724433"><ele>716.0</ele><time>2026-04-11T08:13:32.002Z</time></trkpt><trkpt lat="42.0452017" lon="2.3724283"><ele>715.5</ele><time>2026-04-11T08:13:33.002Z</time></trkpt><trkpt lat="42.0453117" lon="2.372375"><ele>715.0</ele><time>2026-04-11T08:13:34.002Z</time></trkpt><trkpt lat="42.0453983" lon="2.372285"><ele>713.0</ele><time>2026-04-11T08:13:35.002Z</time></trkpt><trkpt lat="42.04545" lon="2.3721583"><ele>711.0</ele><time>2026-04-11T08:13:36.002Z</time></trkpt><trkpt lat="42.04545" lon="2.372005"><ele>709.0</ele><time>2026-04-11T08:13:37.002Z</time></trkpt><trkpt lat="42.04543" lon="2.371835"><ele>707.0</ele><time>2026-04-11T08:13:38.002Z</time></trkpt><trkpt lat="42.0454167" lon="2.371655"><ele>707.0</ele><time>2026-04-11T08:13:39.002Z</time></trkpt><trkpt lat="42.0454183" lon="2.37148"><ele>707.0</ele><time>2026-04-11T08:13:40.003Z</time></trkpt><trkpt lat="42.045455" lon="2.3713217"><ele>707.0</ele><time>2026-04-11T08:13:41.002Z</time></trkpt><trkpt lat="42.04553" lon="2.371175"><ele>707.0</ele><time>2026-04-11T08:13:42.002Z</time></trkpt><trkpt lat="42.0456317" lon="2.371035"><ele>706.75</ele><time>2026-04-11T08:13:43.002Z</time></trkpt><trkpt lat="42.0457367" lon="2.37089"><ele>706.5</ele><time>2026-04-11T08:13:44.002Z</time></trkpt><trkpt lat="42.045825" lon="2.3707483"><ele>706.25</ele><time>2026-04-11T08:13:45.002Z</time></trkpt><trkpt lat="42.0458867" lon="2.3706067"><ele>706.0</ele><time>2026-04-11T08:13:46.002Z</time></trkpt><trkpt lat="42.0459133" lon="2.3704617"><ele>705.75</ele><time>2026-04-11T08:13:47.002Z</time></trkpt><trkpt lat="42.0458867" lon="2.3703133"><ele>705.5</ele><time>2026-04-11T08:13:48.002Z</time></trkpt><trkpt lat="42.0458117" lon="2.3701533"><ele>705.25</ele><time>2026-04-11T08:13:49.002Z</time></trkpt><trkpt lat="42.0456983" lon="2.370035"><ele>705.0</ele><time>2026-04-11T08:13:50.002Z</time></trkpt><trkpt lat="42.0455717" lon="2.3699517"><ele>705.0</ele><time>2026-04-11T08:13:51.002Z</time></trkpt><trkpt lat="42.0454383" lon="2.3698767"><ele>705.0</ele><time>2026-04-11T08:13:52.002Z</time></trkpt><trkpt lat="42.045295" lon="2.3698033"><ele>705.0</ele><time>2026-04-11T08:13:53.002Z</time></trkpt><trkpt lat="42.0451417" lon="2.369725"><ele>706.6666666666666</ele><time>2026-04-11T08:13:54.001Z</time></trkpt><trkpt lat="42.044985" lon="2.3696383"><ele>708.3333333333333</ele><time>2026-04-11T08:13:55.001Z</time></trkpt><trkpt lat="42.0448283" lon="2.3695633"><ele>710.0</ele><time>2026-04-11T08:13:56.001Z</time></trkpt><trkpt lat="42.0446567" lon="2.3695017"><ele>710.0</ele><time>2026-04-11T08:13:57.001Z</time></trkpt><trkpt lat="42.0444883" lon="2.36948"><ele>710.0</ele><time>2026-04-11T08:13:58.001Z</time></trkpt><trkpt lat="42.0443233" lon="2.36948"><ele>710.0</ele><time>2026-04-11T08:13:59.001Z</time></trkpt><trkpt lat="42.04416" lon="2.36949"><ele>709.3333333333333</ele><time>2026-04-11T08:14:00.001Z</time></trkpt><trkpt lat="42.0439917" lon="2.3695133"><ele>708.6666666666666</ele><time>2026-04-11T08:14:01.001Z</time></trkpt><trkpt lat="42.0438167" lon="2.3695317"><ele>708.0</ele><time>2026-04-11T08:14:02.001Z</time></trkpt><trkpt lat="42.0436433" lon="2.36953"><ele>708.0</ele><time>2026-04-11T08:14:03.001Z</time></trkpt><trkpt lat="42.0434733" lon="2.3695117"><ele>708.0</ele><time>2026-04-11T08:14:04.001Z</time></trkpt><trkpt lat="42.0433033" lon="2.36949"><ele>708.0</ele><time>2026-04-11T08:14:05.001Z</time></trkpt><trkpt lat="42.0431383" lon="2.36947"><ele>708.6666666666666</ele><time>2026-04-11T08:14:06.001Z</time></trkpt><trkpt lat="42.0429683" lon="2.3694517"><ele>709.3333333333333</ele><time>2026-04-11T08:14:07.001Z</time></trkpt><trkpt lat="42.042805" lon="2.3694333"><ele>710.0</ele><time>2026-04-11T08:14:08.001Z</time></trkpt><trkpt lat="42.0426567" lon="2.3694083"><ele>710.0</ele><time>2026-04-11T08:14:09.001Z</time></trkpt><trkpt lat="42.042515" lon="2.36936"><ele>710.0</ele><time>2026-04-11T08:14:10.001Z</time></trkpt><trkpt lat="42.0423783" lon="2.3692767"><ele>710.0</ele><time>2026-04-11T08:14:11.001Z</time></trkpt><trkpt lat="42.0422417" lon="2.36917"><ele>709.75</ele><time>2026-04-11T08:14:12.001Z</time></trkpt><trkpt lat="42.0421183" lon="2.3690583"><ele>709.5</ele><time>2026-04-11T08:14:13.001Z</time></trkpt><trkpt lat="42.041995" lon="2.3689417"><ele>709.25</ele><time>2026-04-11T08:14:14.001Z</time></trkpt><trkpt lat="42.0418783" lon="2.3688233"><ele>709.0</ele><time>2026-04-11T08:14:15.001Z</time></trkpt><trkpt lat="42.0417717" lon="2.3687133"><ele>709.0</ele><time>2026-04-11T08:14:16.001Z</time></trkpt><trkpt lat="42.0416667" lon="2.3686067"><ele>709.0</ele><time>2026-04-11T08:14:17.001Z</time></trkpt><trkpt lat="42.041595" lon="2.3684633"><ele>709.0</ele><time>2026-04-11T08:14:18.001Z</time></trkpt><trkpt lat="42.04156" lon="2.368295"><ele>709.0</ele><time>2026-04-11T08:14:19.002Z</time></trkpt><trkpt lat="42.0415583" lon="2.3681117"><ele>707.6666666666667</ele><time>2026-04-11T08:14:20.001Z</time></trkpt><trkpt lat="42.0415917" lon="2.3679083"><ele>706.3333333333334</ele><time>2026-04-11T08:14:21.001Z</time></trkpt><trkpt lat="42.041645" lon="2.367705"><ele>705.0</ele><time>2026-04-11T08:14:22.001Z</time></trkpt><trkpt lat="42.0416983" lon="2.3675133"><ele>705.0</ele><time>2026-04-11T08:14:23.001Z</time></trkpt><trkpt lat="42.0417683" lon="2.3673317"><ele>705.0</ele><time>2026-04-11T08:14:24.001Z</time></trkpt><trkpt lat="42.04185" lon="2.3671567"><ele>705.0</ele><time>2026-04-11T08:14:25.001Z</time></trkpt><trkpt lat="42.0419417" lon="2.3669867"><ele>702.75</ele><time>2026-04-11T08:14:26.001Z</time></trkpt><trkpt lat="42.0420267" lon="2.36683"><ele>700.5</ele><time>2026-04-11T08:14:27.001Z</time></trkpt><trkpt lat="42.0421067" lon="2.3666783"><ele>698.25</ele><time>2026-04-11T08:14:28.001Z</time></trkpt><trkpt lat="42.0421617" lon="2.3665217"><ele>696.0</ele><time>2026-04-11T08:14:29.001Z</time></trkpt><trkpt lat="42.042195" lon="2.3663583"><ele>695.75</ele><time>2026-04-11T08:14:30.001Z</time></trkpt><trkpt lat="42.0421933" lon="2.3661917"><ele>695.5</ele><time>2026-04-11T08:14:31.001Z</time></trkpt><trkpt lat="42.0421433" lon="2.3660283"><ele>695.25</ele><time>2026-04-11T08:14:32.001Z</time></trkpt><trkpt lat="42.042045" lon="2.36588"><ele>695.0</ele><time>2026-04-11T08:14:33.001Z</time></trkpt><trkpt lat="42.04191" lon="2.365765"><ele>695.0</ele><time>2026-04-11T08:14:34.001Z</time></trkpt><trkpt lat="42.0417583" lon="2.36566"><ele>695.0</ele><time>2026-04-11T08:14:35.001Z</time></trkpt><trkpt lat="42.041595" lon="2.3655583"><ele>695.0</ele><time>2026-04-11T08:14:36.001Z</time></trkpt><trkpt lat="42.0414217" lon="2.3654583"><ele>694.6666666666666</ele><time>2026-04-11T08:14:37.001Z</time></trkpt><trkpt lat="42.041255" lon="2.3653567"><ele>694.3333333333334</ele><time>2026-04-11T08:14:38.001Z</time></trkpt><trkpt lat="42.0410917" lon="2.3652567"><ele>694.0</ele><time>2026-04-11T08:14:39.001Z</time></trkpt><trkpt lat="42.04094" lon="2.365155"><ele>690.0</ele><time>2026-04-11T08:14:40.001Z</time></trkpt><trkpt lat="42.0407933" lon="2.3650633"><ele>686.0</ele><time>2026-04-11T08:14:41.001Z</time></trkpt><trkpt lat="42.04065" lon="2.3649683"><ele>682.0</ele><time>2026-04-11T08:14:42.002Z</time></trkpt><trkpt lat="42.04052" lon="2.364875"><ele>682.0</ele><time>2026-04-11T08:14:43.002Z</time></trkpt><trkpt lat="42.0404" lon="2.3647833"><ele>682.0</ele><time>2026-04-11T08:14:44.001Z</time></trkpt><trkpt lat="42.0403017" lon="2.3646433"><ele>682.0</ele><time>2026-04-11T08:14:45.001Z</time></trkpt><trkpt lat="42.0402383" lon="2.3644683"><ele>682.0</ele><time>2026-04-11T08:14:46.002Z</time></trkpt><trkpt lat="42.0401983" lon="2.364285"><ele>681.5</ele><time>2026-04-11T08:14:47.001Z</time></trkpt><trkpt lat="42.0401717" lon="2.3640817"><ele>681.0</ele><time>2026-04-11T08:14:48.001Z</time></trkpt><trkpt lat="42.0401417" lon="2.363905"><ele>680.5</ele><time>2026-04-11T08:14:49.001Z</time></trkpt><trkpt lat="42.0401517" lon="2.36373"><ele>680.0</ele><time>2026-04-11T08:14:50.001Z</time></trkpt><trkpt lat="42.04021" lon="2.3635583"><ele>680.0</ele><time>2026-04-11T08:14:51.001Z</time></trkpt><trkpt lat="42.040305" lon="2.3633933"><ele>680.0</ele><time>2026-04-11T08:14:52.001Z</time></trkpt><trkpt lat="42.040405" lon="2.363245"><ele>680.0</ele><time>2026-04-11T08:14:53.001Z</time></trkpt><trkpt lat="42.040495" lon="2.3631033"><ele>680.0</ele><time>2026-04-11T08:14:54.001Z</time></trkpt><trkpt lat="42.0405633" lon="2.3629633"><ele>679.75</ele><time>2026-04-11T08:14:55.001Z</time></trkpt><trkpt lat="42.0406067" lon="2.3628133"><ele>679.5</ele><time>2026-04-11T08:14:56.001Z</time></trkpt><trkpt lat="42.0406133" lon="2.36266"><ele>679.25</ele><time>2026-04-11T08:14:57.001Z</time></trkpt><trkpt lat="42.0405633" lon="2.36251"><ele>679.0</ele><time>2026-04-11T08:14:58.001Z</time></trkpt><trkpt lat="42.040465" lon="2.362385"><ele>679.0</ele><time>2026-04-11T08:14:59.001Z</time></trkpt><trkpt lat="42.0403317" lon="2.3623033"><ele>679.0</ele><time>2026-04-11T08:15:00.001Z</time></trkpt><trkpt lat="42.04018" lon="2.362245"><ele>679.0</ele><time>2026-04-11T08:15:01.001Z</time></trkpt><trkpt lat="42.0400267" lon="2.3621983"><ele>680.0</ele><time>2026-04-11T08:15:02.001Z</time></trkpt><trkpt lat="42.039875" lon="2.3621583"><ele>681.0</ele><time>2026-04-11T08:15:03.001Z</time></trkpt><trkpt lat="42.0397167" lon="2.362105"><ele>682.0</ele><time>2026-04-11T08:15:04.001Z</time></trkpt><trkpt lat="42.0395533" lon="2.3620717"><ele>682.0</ele><time>2026-04-11T08:15:05.001Z</time></trkpt><trkpt lat="42.039375" lon="2.3620617"><ele>682.0</ele><time>2026-04-11T08:15:06.001Z</time></trkpt><trkpt lat="42.0392" lon="2.362075"><ele>682.0</ele><time>2026-04-11T08:15:07.001Z</time></trkpt><trkpt lat="42.0390333" lon="2.3621283"><ele>677.3333333333334</ele><time>2026-04-11T08:15:08.001Z</time></trkpt><trkpt lat="42.0388717" lon="2.3622"><ele>672.6666666666666</ele><time>2026-04-11T08:15:09.001Z</time></trkpt><trkpt lat="42.0387117" lon="2.36228"><ele>668.0</ele><time>2026-04-11T08:15:10.002Z</time></trkpt><trkpt lat="42.03855" lon="2.3623583"><ele>668.0</ele><time>2026-04-11T08:15:11.001Z</time></trkpt><trkpt lat="42.0383733" lon="2.3624367"><ele>668.0</ele><time>2026-04-11T08:15:12.001Z</time></trkpt><trkpt lat="42.038205" lon="2.3625233"><ele>668.0</ele><time>2026-04-11T08:15:13.001Z</time></trkpt><trkpt lat="42.0380433" lon="2.36261"><ele>667.6666666666666</ele><time>2026-04-11T08:15:14.001Z</time></trkpt><trkpt lat="42.0378817" lon="2.362695"><ele>667.3333333333334</ele><time>2026-04-11T08:15:15.001Z</time></trkpt><trkpt lat="42.0377267" lon="2.3627667"><ele>667.0</ele><time>2026-04-11T08:15:16.001Z</time></trkpt><trkpt lat="42.0375767" lon="2.362845"><ele>666.0</ele><time>2026-04-11T08:15:17.001Z</time></trkpt><trkpt lat="42.0374317" lon="2.362915"><ele>665.0</ele><time>2026-04-11T08:15:18.001Z</time></trkpt><trkpt lat="42.0372867" lon="2.3629717"><ele>664.0</ele><time>2026-04-11T08:15:19.001Z</time></trkpt><trkpt lat="42.0371383" lon="2.3630267"><ele>662.0</ele><time>2026-04-11T08:15:20.001Z</time></trkpt><trkpt lat="42.036985" lon="2.36309"><ele>660.0</ele><time>2026-04-11T08:15:21.001Z</time></trkpt><trkpt lat="42.0368333" lon="2.36315"><ele>658.0</ele><time>2026-04-11T08:15:22.001Z</time></trkpt><trkpt lat="42.0366683" lon="2.3631983"><ele>657.6666666666667</ele><time>2026-04-11T08:15:23.001Z</time></trkpt><trkpt lat="42.0365017" lon="2.3632317"><ele>657.3333333333334</ele><time>2026-04-11T08:15:24.001Z</time></trkpt><trkpt lat="42.0363217" lon="2.36323"><ele>657.0</ele><time>2026-04-11T08:15:25.001Z</time></trkpt><trkpt lat="42.0361467" lon="2.3631917"><ele>657.0</ele><time>2026-04-11T08:15:26.001Z</time></trkpt><trkpt lat="42.0359767" lon="2.3631383"><ele>657.0</ele><time>2026-04-11T08:15:27.001Z</time></trkpt><trkpt lat="42.03581" lon="2.3630833"><ele>657.0</ele><time>2026-04-11T08:15:28.001Z</time></trkpt><trkpt lat="42.0356417" lon="2.36305"><ele>657.6666666666666</ele><time>2026-04-11T08:15:29.001Z</time></trkpt><trkpt lat="42.03547" lon="2.3630133"><ele>658.3333333333333</ele><time>2026-04-11T08:15:30.001Z</time></trkpt><trkpt lat="42.0353017" lon="2.36297"><ele>659.0</ele><time>2026-04-11T08:15:31.001Z</time></trkpt><trkpt lat="42.03514" lon="2.3629267"><ele>659.0</ele><time>2026-04-11T08:15:32.001Z</time></trkpt><trkpt lat="42.0349817" lon="2.3628783"><ele>659.0</ele><time>2026-04-11T08:15:33.001Z</time></trkpt><trkpt lat="42.0348167" lon="2.3628317"><ele>659.0</ele><time>2026-04-11T08:15:34.001Z</time></trkpt><trkpt lat="42.03465" lon="2.3627817"><ele>657.6666666666666</ele><time>2026-04-11T08:15:35.001Z</time></trkpt><trkpt lat="42.034485" lon="2.3627367"><ele>656.3333333333334</ele><time>2026-04-11T08:15:36.002Z</time></trkpt><trkpt lat="42.034325" lon="2.3627267"><ele>655.0</ele><time>2026-04-11T08:15:37.001Z</time></trkpt><trkpt lat="42.034175" lon="2.3627533"><ele>655.0</ele><time>2026-04-11T08:15:38.001Z</time></trkpt><trkpt lat="42.03404" lon="2.3628"><ele>655.0</ele><time>2026-04-11T08:15:39.001Z</time></trkpt><trkpt lat="42.0339083" lon="2.3628517"><ele>655.0</ele><time>2026-04-11T08:15:40.001Z</time></trkpt><trkpt lat="42.033785" lon="2.3628883"><ele>655.0</ele><time>2026-04-11T08:15:41.001Z</time></trkpt><trkpt lat="42.03365" lon="2.3629"><ele>655.0</ele><time>2026-04-11T08:15:42.001Z</time></trkpt><trkpt lat="42.033515" lon="2.36291"><ele>655.0</ele><time>2026-04-11T08:15:43.001Z</time></trkpt><trkpt lat="42.0333817" lon="2.3628667"><ele>655.0</ele><time>2026-04-11T08:15:44.001Z</time></trkpt><trkpt lat="42.0332567" lon="2.3628117"><ele>655.0</ele><time>2026-04-11T08:15:45.001Z</time></trkpt><trkpt lat="42.0331383" lon="2.3627633"><ele>654.75</ele><time>2026-04-11T08:15:46.001Z</time></trkpt><trkpt lat="42.0330183" lon="2.3627267"><ele>654.5</ele><time>2026-04-11T08:15:47.001Z</time></trkpt><trkpt lat="42.032905" lon="2.3626933"><ele>654.25</ele><time>2026-04-11T08:15:48.001Z</time></trkpt><trkpt lat="42.0327917" lon="2.3626583"><ele>654.0</ele><time>2026-04-11T08:15:49.001Z</time></trkpt><trkpt lat="42.0326933" lon="2.36263"><ele>654.0</ele><time>2026-04-11T08:15:50.002Z</time></trkpt><trkpt lat="42.0325967" lon="2.3626167"><ele>654.0</ele><time>2026-04-11T08:15:51.001Z</time></trkpt><trkpt lat="42.0325083" lon="2.3626067"><ele>654.0</ele><time>2026-04-11T08:15:52.001Z</time></trkpt><trkpt lat="42.0324233" lon="2.362605"><ele>654.0</ele><time>2026-04-11T08:15:53.001Z</time></trkpt><trkpt lat="42.0323517" lon="2.36263"><ele>654.0</ele><time>2026-04-11T08:15:54.001Z</time></trkpt><trkpt lat="42.0322767" lon="2.3626783"><ele>654.0</ele><time>2026-04-11T08:15:55.001Z</time></trkpt><trkpt lat="42.0322" lon="2.362725"><ele>653.4000000000001</ele><time>2026-04-11T08:15:56.001Z</time></trkpt><trkpt lat="42.03211" lon="2.3627533"><ele>652.8</ele><time>2026-04-11T08:15:57.001Z</time></trkpt><trkpt lat="42.0320067" lon="2.3627683"><ele>652.2</ele><time>2026-04-11T08:15:58.001Z</time></trkpt><trkpt lat="42.0319017" lon="2.3627833"><ele>651.5999999999999</ele><time>2026-04-11T08:15:59.001Z</time></trkpt><trkpt lat="42.0318133" lon="2.3628033"><ele>651.0</ele><time>2026-04-11T08:16:00.001Z</time></trkpt><trkpt lat="42.0317367" lon="2.3628167"><ele>651.0</ele><time>2026-04-11T08:16:01.001Z</time></trkpt><trkpt lat="42.031625" lon="2.36284"><ele>651.0</ele><time>2026-04-11T08:16:03.001Z</time></trkpt><trkpt lat="42.0315883" lon="2.362915"><ele>651.0</ele><time>2026-04-11T08:16:05.001Z</time></trkpt><trkpt lat="42.0316533" lon="2.3629133"><ele>651.0</ele><time>2026-04-11T08:16:07.002Z</time></trkpt><trkpt lat="42.0317183" lon="2.3628917"><ele>651.0</ele><time>2026-04-11T08:16:08.001Z</time></trkpt><trkpt lat="42.0317917" lon="2.3628767"><ele>651.0</ele><time>2026-04-11T08:16:09.001Z</time></trkpt><trkpt lat="42.0318633" lon="2.3628683"><ele>651.0</ele><time>2026-04-11T08:16:10.001Z</time></trkpt><trkpt lat="42.0319317" lon="2.3628717"><ele>651.0</ele><time>2026-04-11T08:16:11.001Z</time></trkpt><trkpt lat="42.03201" lon="2.3628983"><ele>651.0</ele><time>2026-04-11T08:16:13.001Z</time></trkpt><trkpt lat="42.0318983" lon="2.362885"><ele>651.0</ele><time>2026-04-11T08:19:10.001Z</time></trkpt><trkpt lat="42.03178" lon="2.3628733"><ele>651.0</ele><time>2026-04-11T08:19:12.001Z</time></trkpt><trkpt lat="42.0316783" lon="2.36287"><ele>649.8333333333334</ele><time>2026-04-11T08:19:14.001Z</time></trkpt><trkpt lat="42.0316083" lon="2.3628933"><ele>648.6666666666666</ele><time>2026-04-11T08:19:16.001Z</time></trkpt><trkpt lat="42.0315467" lon="2.3629267"><ele>647.5</ele><time>2026-04-11T08:19:19.001Z</time></trkpt><trkpt lat="42.0314617" lon="2.3630183"><ele>646.3333333333333</ele><time>2026-04-11T08:21:35.002Z</time></trkpt><trkpt lat="42.0314683" lon="2.362905"><ele>645.1666666666666</ele><time>2026-04-11T08:26:19Z</time></trkpt><trkpt lat="42.0314717" lon="2.36302"><ele>644.0</ele><time>2026-04-11T08:28:48Z</time></trkpt><trkpt lat="42.0315617" lon="2.3630333"><ele>644.0</ele><time>2026-04-11T08:28:51Z</time></trkpt><trkpt lat="42.03164" lon="2.36297"><ele>644.0</ele><time>2026-04-11T08:28:53Z</time></trkpt><trkpt lat="42.031745" lon="2.3629133"><ele>644.0</ele><time>2026-04-11T08:28:55Z</time></trkpt><trkpt lat="42.031845" lon="2.3628917"><ele>644.0</ele><time>2026-04-11T08:28:57Z</time></trkpt><trkpt lat="42.0319467" lon="2.3628683"><ele>644.0</ele><time>2026-04-11T08:28:59.001Z</time></trkpt><trkpt lat="42.032065" lon="2.3628517"><ele>645.4000000000001</ele><time>2026-04-11T08:29:01Z</time></trkpt><trkpt lat="42.03218" lon="2.3628267"><ele>646.8</ele><time>2026-04-11T08:29:03Z</time></trkpt><trkpt lat="42.0322517" lon="2.3628"><ele>648.2</ele><time>2026-04-11T08:29:04Z</time></trkpt><trkpt lat="42.0323417" lon="2.362725"><ele>649.5999999999999</ele><time>2026-04-11T08:29:06Z</time></trkpt><trkpt lat="42.0323083" lon="2.36263"><ele>651.0</ele><time>2026-04-11T08:29:09Z</time></trkpt><trkpt lat="42.0321733" lon="2.3626083"><ele>651.0</ele><time>2026-04-11T08:29:11Z</time></trkpt><trkpt lat="42.032075" lon="2.36261"><ele>651.0</ele><time>2026-04-11T08:29:12Z</time></trkpt><trkpt lat="42.0319617" lon="2.3626233"><ele>651.0</ele><time>2026-04-11T08:29:13Z</time></trkpt><trkpt lat="42.0318317" lon="2.3626333"><ele>651.0</ele><time>2026-04-11T08:29:14Z</time></trkpt><trkpt lat="42.0317033" lon="2.3626417"><ele>649.25</ele><time>2026-04-11T08:29:15Z</time></trkpt><trkpt lat="42.03156" lon="2.362655"><ele>647.5</ele><time>2026-04-11T08:29:16Z</time></trkpt><trkpt lat="42.0314367" lon="2.362665"><ele>645.75</ele><time>2026-04-11T08:29:17.001Z</time></trkpt><trkpt lat="42.03132" lon="2.3626517"><ele>644.0</ele><time>2026-04-11T08:29:18Z</time></trkpt><trkpt lat="42.031205" lon="2.362595"><ele>644.0</ele><time>2026-04-11T08:29:19Z</time></trkpt><trkpt lat="42.0311" lon="2.3624983"><ele>644.0</ele><time>2026-04-11T08:29:20Z</time></trkpt><trkpt lat="42.0310083" lon="2.3623817"><ele>644.0</ele><time>2026-04-11T08:29:21Z</time></trkpt><trkpt lat="42.0309133" lon="2.3622433"><ele>644.0</ele><time>2026-04-11T08:29:22Z</time></trkpt><trkpt lat="42.0308067" lon="2.36211"><ele>644.3333333333333</ele><time>2026-04-11T08:29:23Z</time></trkpt><trkpt lat="42.0306883" lon="2.3619933"><ele>644.6666666666666</ele><time>2026-04-11T08:29:24Z</time></trkpt><trkpt lat="42.0305533" lon="2.3618917"><ele>645.0</ele><time>2026-04-11T08:29:25Z</time></trkpt><trkpt lat="42.030405" lon="2.361795"><ele>645.0</ele><time>2026-04-11T08:29:26Z</time></trkpt><trkpt lat="42.0302517" lon="2.3617067"><ele>645.0</ele><time>2026-04-11T08:29:27Z</time></trkpt><trkpt lat="42.0300967" lon="2.3616267"><ele>645.0</ele><time>2026-04-11T08:29:28Z</time></trkpt><trkpt lat="42.029955" lon="2.361545"><ele>644.5</ele><time>2026-04-11T08:29:29Z</time></trkpt><trkpt lat="42.0298233" lon="2.3614733"><ele>644.0</ele><time>2026-04-11T08:29:30Z</time></trkpt><trkpt lat="42.0297133" lon="2.3613967"><ele>643.5</ele><time>2026-04-11T08:29:31Z</time></trkpt><trkpt lat="42.0296183" lon="2.361315"><ele>643.0</ele><time>2026-04-11T08:29:32Z</time></trkpt><trkpt lat="42.0295467" lon="2.3611883"><ele>643.0</ele><time>2026-04-11T08:29:33.001Z</time></trkpt><trkpt lat="42.0294867" lon="2.3610333"><ele>643.0</ele><time>2026-04-11T08:29:34Z</time></trkpt><trkpt lat="42.0294467" lon="2.360855"><ele>643.0</ele><time>2026-04-11T08:29:35Z</time></trkpt><trkpt lat="42.02941" lon="2.3606717"><ele>643.0</ele><time>2026-04-11T08:29:36Z</time></trkpt><trkpt lat="42.0293783" lon="2.360465"><ele>642.3333333333334</ele><time>2026-04-11T08:29:37Z</time></trkpt><trkpt lat="42.0293283" lon="2.36026"><ele>641.6666666666666</ele><time>2026-04-11T08:29:38Z</time></trkpt><trkpt lat="42.029295" lon="2.36006"><ele>641.0</ele><time>2026-04-11T08:29:39Z</time></trkpt><trkpt lat="42.0292633" lon="2.3598633"><ele>639.5</ele><time>2026-04-11T08:29:40Z</time></trkpt><trkpt lat="42.0292283" lon="2.3596783"><ele>638.0</ele><time>2026-04-11T08:29:41Z</time></trkpt><trkpt lat="42.0292" lon="2.3594983"><ele>636.5</ele><time>2026-04-11T08:29:42.001Z</time></trkpt><trkpt lat="42.02917" lon="2.3593233"><ele>635.0</ele><time>2026-04-11T08:29:43Z</time></trkpt><trkpt lat="42.0291433" lon="2.35915"><ele>634.75</ele><time>2026-04-11T08:29:44Z</time></trkpt><trkpt lat="42.0291233" lon="2.3589883"><ele>634.5</ele><time>2026-04-11T08:29:45Z</time></trkpt><trkpt lat="42.0291133" lon="2.3588283"><ele>634.25</ele><time>2026-04-11T08:29:46Z</time></trkpt><trkpt lat="42.02914" lon="2.3586883"><ele>634.0</ele><time>2026-04-11T08:29:47Z</time></trkpt><trkpt lat="42.0292117" lon="2.3585567"><ele>633.0</ele><time>2026-04-11T08:29:48Z</time></trkpt><trkpt lat="42.02929" lon="2.3584283"><ele>632.0</ele><time>2026-04-11T08:29:49Z</time></trkpt><trkpt lat="42.02938" lon="2.3582933"><ele>631.0</ele><time>2026-04-11T08:29:50Z</time></trkpt><trkpt lat="42.02948" lon="2.35815"><ele>630.0</ele><time>2026-04-11T08:29:51Z</time></trkpt><trkpt lat="42.0295767" lon="2.3580283"><ele>629.6</ele><time>2026-04-11T08:29:52Z</time></trkpt><trkpt lat="42.0296517" lon="2.35791"><ele>629.2</ele><time>2026-04-11T08:29:53Z</time></trkpt><trkpt lat="42.02971" lon="2.357775"><ele>628.8</ele><time>2026-04-11T08:29:54.001Z</time></trkpt><trkpt lat="42.0297467" lon="2.3576333"><ele>628.4</ele><time>2026-04-11T08:29:55.001Z</time></trkpt><trkpt lat="42.0297383" lon="2.3575117"><ele>628.0</ele><time>2026-04-11T08:29:56Z</time></trkpt><trkpt lat="42.029685" lon="2.35739"><ele>628.0</ele><time>2026-04-11T08:29:57Z</time></trkpt><trkpt lat="42.0295933" lon="2.3573033"><ele>628.0</ele><time>2026-04-11T08:29:58Z</time></trkpt><trkpt lat="42.02947" lon="2.35723"><ele>628.0</ele><time>2026-04-11T08:29:59Z</time></trkpt><trkpt lat="42.029345" lon="2.3571667"><ele>628.0</ele><time>2026-04-11T08:30:00Z</time></trkpt><trkpt lat="42.029225" lon="2.3571117"><ele>626.4</ele><time>2026-04-11T08:30:01Z</time></trkpt><trkpt lat="42.0291067" lon="2.357065"><ele>624.8</ele><time>2026-04-11T08:30:02Z</time></trkpt><trkpt lat="42.029005" lon="2.3570083"><ele>623.2</ele><time>2026-04-11T08:30:03Z</time></trkpt><trkpt lat="42.0289183" lon="2.3569283"><ele>621.6</ele><time>2026-04-11T08:30:04Z</time></trkpt><trkpt lat="42.0288617" lon="2.356825"><ele>620.0</ele><time>2026-04-11T08:30:05Z</time></trkpt><trkpt lat="42.0288283" lon="2.3567083"><ele>620.0</ele><time>2026-04-11T08:30:06Z</time></trkpt><trkpt lat="42.02882" lon="2.356575"><ele>620.0</ele><time>2026-04-11T08:30:07Z</time></trkpt><trkpt lat="42.0288467" lon="2.3564467"><ele>620.0</ele><time>2026-04-11T08:30:08Z</time></trkpt><trkpt lat="42.028895" lon="2.3563067"><ele>620.0</ele><time>2026-04-11T08:30:09Z</time></trkpt><trkpt lat="42.0289583" lon="2.35615"><ele>620.0</ele><time>2026-04-11T08:30:10Z</time></trkpt><trkpt lat="42.0290317" lon="2.3559867"><ele>619.3333333333333</ele><time>2026-04-11T08:30:11Z</time></trkpt><trkpt lat="42.0291133" lon="2.355815"><ele>618.6666666666666</ele><time>2026-04-11T08:30:12Z</time></trkpt><trkpt lat="42.029205" lon="2.35565"><ele>618.0</ele><time>2026-04-11T08:30:13Z</time></trkpt><trkpt lat="42.0293017" lon="2.3554967"><ele>615.6666666666666</ele><time>2026-04-11T08:30:14Z</time></trkpt><trkpt lat="42.0294" lon="2.3553317"><ele>613.3333333333333</ele><time>2026-04-11T08:30:15.001Z</time></trkpt><trkpt lat="42.0295033" lon="2.35517"><ele>611.0</ele><time>2026-04-11T08:30:16Z</time></trkpt><trkpt lat="42.029605" lon="2.3550217"><ele>611.0</ele><time>2026-04-11T08:30:17Z</time></trkpt><trkpt lat="42.0297067" lon="2.354875"><ele>611.0</ele><time>2026-04-11T08:30:18Z</time></trkpt><trkpt lat="42.0298083" lon="2.3547367"><ele>611.0</ele><time>2026-04-11T08:30:19Z</time></trkpt><trkpt lat="42.029905" lon="2.3546067"><ele>611.0</ele><time>2026-04-11T08:30:20Z</time></trkpt><trkpt lat="42.0300033" lon="2.3544667"><ele>610.5</ele><time>2026-04-11T08:30:21Z</time></trkpt><trkpt lat="42.030095" lon="2.354335"><ele>610.0</ele><time>2026-04-11T08:30:22Z</time></trkpt><trkpt lat="42.0301833" lon="2.3542017"><ele>609.5</ele><time>2026-04-11T08:30:23Z</time></trkpt><trkpt lat="42.0302567" lon="2.3540683"><ele>609.0</ele><time>2026-04-11T08:30:24.001Z</time></trkpt><trkpt lat="42.030315" lon="2.3539317"><ele>607.75</ele><time>2026-04-11T08:30:25Z</time></trkpt><trkpt lat="42.0303217" lon="2.3537883"><ele>606.5</ele><time>2026-04-11T08:30:26.001Z</time></trkpt><trkpt lat="42.0302933" lon="2.353645"><ele>605.25</ele><time>2026-04-11T08:30:27Z</time></trkpt><trkpt lat="42.03023" lon="2.3535067"><ele>604.0</ele><time>2026-04-11T08:30:28Z</time></trkpt><trkpt lat="42.030145" lon="2.3533567"><ele>604.0</ele><time>2026-04-11T08:30:29Z</time></trkpt><trkpt lat="42.03005" lon="2.3532083"><ele>604.0</ele><time>2026-04-11T08:30:30Z</time></trkpt><trkpt lat="42.0299617" lon="2.353055"><ele>604.0</ele><time>2026-04-11T08:30:31Z</time></trkpt><trkpt lat="42.02987" lon="2.3528983"><ele>604.0</ele><time>2026-04-11T08:30:32Z</time></trkpt><trkpt lat="42.0297683" lon="2.3527483"><ele>602.75</ele><time>2026-04-11T08:30:33Z</time></trkpt><trkpt lat="42.0296683" lon="2.352605"><ele>601.5</ele><time>2026-04-11T08:30:34Z</time></trkpt><trkpt lat="42.0295633" lon="2.352465"><ele>600.25</ele><time>2026-04-11T08:30:35.001Z</time></trkpt><trkpt lat="42.0294467" lon="2.3523517"><ele>599.0</ele><time>2026-04-11T08:30:36Z</time></trkpt><trkpt lat="42.029325" lon="2.3522617"><ele>599.0</ele><time>2026-04-11T08:30:37Z</time></trkpt><trkpt lat="42.0292" lon="2.3522083"><ele>599.0</ele><time>2026-04-11T08:30:38Z</time></trkpt><trkpt lat="42.0290667" lon="2.3521717"><ele>599.0</ele><time>2026-04-11T08:30:39Z</time></trkpt><trkpt lat="42.0289283" lon="2.3521433"><ele>599.0</ele><time>2026-04-11T08:30:40Z</time></trkpt><trkpt lat="42.0287983" lon="2.3521067"><ele>596.5</ele><time>2026-04-11T08:30:41Z</time></trkpt><trkpt lat="42.0286717" lon="2.352075"><ele>594.0</ele><time>2026-04-11T08:30:42Z</time></trkpt><trkpt lat="42.0285533" lon="2.3520383"><ele>591.5</ele><time>2026-04-11T08:30:43Z</time></trkpt><trkpt lat="42.02844" lon="2.3519833"><ele>589.0</ele><time>2026-04-11T08:30:44Z</time></trkpt><trkpt lat="42.02834" lon="2.3518917"><ele>589.0</ele><time>2026-04-11T08:30:45Z</time></trkpt><trkpt lat="42.0282633" lon="2.351765"><ele>589.0</ele><time>2026-04-11T08:30:46Z</time></trkpt><trkpt lat="42.0282367" lon="2.351625"><ele>589.0</ele><time>2026-04-11T08:30:47Z</time></trkpt><trkpt lat="42.0282417" lon="2.351465"><ele>589.0</ele><time>2026-04-11T08:30:48Z</time></trkpt><trkpt lat="42.02828" lon="2.35129"><ele>587.0</ele><time>2026-04-11T08:30:49Z</time></trkpt><trkpt lat="42.0283567" lon="2.3511117"><ele>585.0</ele><time>2026-04-11T08:30:50Z</time></trkpt><trkpt lat="42.0284333" lon="2.35094"><ele>583.0</ele><time>2026-04-11T08:30:51Z</time></trkpt><trkpt lat="42.0285167" lon="2.3507667"><ele>583.0</ele><time>2026-04-11T08:30:52Z</time></trkpt><trkpt lat="42.0286033" lon="2.3506117"><ele>583.0</ele><time>2026-04-11T08:30:53Z</time></trkpt><trkpt lat="42.0287083" lon="2.350485"><ele>583.0</ele><time>2026-04-11T08:30:54.001Z</time></trkpt><trkpt lat="42.0288383" lon="2.3504033"><ele>583.0</ele><time>2026-04-11T08:30:55Z</time></trkpt><trkpt lat="42.0289683" lon="2.3503517"><ele>580.5</ele><time>2026-04-11T08:30:56Z</time></trkpt><trkpt lat="42.0291067" lon="2.3503033"><ele>578.0</ele><time>2026-04-11T08:30:57Z</time></trkpt><trkpt lat="42.02925" lon="2.3502567"><ele>575.5</ele><time>2026-04-11T08:30:58Z</time></trkpt><trkpt lat="42.0293967" lon="2.3502133"><ele>573.0</ele><time>2026-04-11T08:30:59Z</time></trkpt><trkpt lat="42.029545" lon="2.3501733"><ele>573.0</ele><time>2026-04-11T08:31:00Z</time></trkpt><trkpt lat="42.029685" lon="2.35014"><ele>573.0</ele><time>2026-04-11T08:31:01Z</time></trkpt><trkpt lat="42.0298217" lon="2.3501067"><ele>573.0</ele><time>2026-04-11T08:31:02Z</time></trkpt><trkpt lat="42.0299517" lon="2.3500767"><ele>573.0</ele><time>2026-04-11T08:31:03Z</time></trkpt><trkpt lat="42.030075" lon="2.35004"><ele>573.1999999999999</ele><time>2026-04-11T08:31:04Z</time></trkpt><trkpt lat="42.0301783" lon="2.34998"><ele>573.4</ele><time>2026-04-11T08:31:05Z</time></trkpt><trkpt lat="42.03026" lon="2.349895"><ele>573.5999999999999</ele><time>2026-04-11T08:31:06Z</time></trkpt><trkpt lat="42.0303117" lon="2.3497783"><ele>573.8</ele><time>2026-04-11T08:31:07Z</time></trkpt><trkpt lat="42.0303117" lon="2.3496517"><ele>574.0</ele><time>2026-04-11T08:31:08.001Z</time></trkpt><trkpt lat="42.0302617" lon="2.3495383"><ele>574.0</ele><time>2026-04-11T08:31:09Z</time></trkpt><trkpt lat="42.03017" lon="2.34946"><ele>574.0</ele><time>2026-04-11T08:31:10Z</time></trkpt><trkpt lat="42.0300533" lon="2.3494217"><ele>574.0</ele><time>2026-04-11T08:31:11Z</time></trkpt><trkpt lat="42.0299167" lon="2.3494117"><ele>574.0</ele><time>2026-04-11T08:31:12Z</time></trkpt><trkpt lat="42.0297717" lon="2.3494033"><ele>573.0</ele><time>2026-04-11T08:31:13Z</time></trkpt><trkpt lat="42.02962" lon="2.3493867"><ele>572.0</ele><time>2026-04-11T08:31:14Z</time></trkpt><trkpt lat="42.0294617" lon="2.3493617"><ele>571.0</ele><time>2026-04-11T08:31:15Z</time></trkpt><trkpt lat="42.0293033" lon="2.3493267"><ele>571.0</ele><time>2026-04-11T08:31:16Z</time></trkpt><trkpt lat="42.02915" lon="2.3492783"><ele>571.0</ele><time>2026-04-11T08:31:17Z</time></trkpt><trkpt lat="42.029" lon="2.3492083"><ele>571.0</ele><time>2026-04-11T08:31:18Z</time></trkpt><trkpt lat="42.0288483" lon="2.3491217"><ele>570.3333333333334</ele><time>2026-04-11T08:31:19Z</time></trkpt><trkpt lat="42.0286983" lon="2.3490283"><ele>569.6666666666666</ele><time>2026-04-11T08:31:20Z</time></trkpt><trkpt lat="42.0285383" lon="2.34893"><ele>569.0</ele><time>2026-04-11T08:31:21Z</time></trkpt><trkpt lat="42.0283733" lon="2.3488283"><ele>568.6666666666666</ele><time>2026-04-11T08:31:22Z</time></trkpt><trkpt lat="42.028225" lon="2.348725"><ele>568.3333333333334</ele><time>2026-04-11T08:31:23Z</time></trkpt><trkpt lat="42.0280717" lon="2.3486333"><ele>568.0</ele><time>2026-04-11T08:31:24Z</time></trkpt><trkpt lat="42.027925" lon="2.3485483"><ele>568.0</ele><time>2026-04-11T08:31:25Z</time></trkpt><trkpt lat="42.027765" lon="2.3485017"><ele>568.0</ele><time>2026-04-11T08:31:26Z</time></trkpt><trkpt lat="42.02761" lon="2.34848"><ele>568.0</ele><time>2026-04-11T08:31:27Z</time></trkpt><trkpt lat="42.0274567" lon="2.3485167"><ele>568.25</ele><time>2026-04-11T08:31:28Z</time></trkpt><trkpt lat="42.0273183" lon="2.3485917"><ele>568.5</ele><time>2026-04-11T08:31:29Z</time></trkpt><trkpt lat="42.0271867" lon="2.348675"><ele>568.75</ele><time>2026-04-11T08:31:30Z</time></trkpt><trkpt lat="42.0270617" lon="2.3487483"><ele>569.0</ele><time>2026-04-11T08:31:31Z</time></trkpt><trkpt lat="42.0269283" lon="2.3487867"><ele>569.0</ele><time>2026-04-11T08:31:32Z</time></trkpt><trkpt lat="42.026775" lon="2.34879"><ele>569.0</ele><time>2026-04-11T08:31:33Z</time></trkpt><trkpt lat="42.0266083" lon="2.34879"><ele>569.0</ele><time>2026-04-11T08:31:34Z</time></trkpt><trkpt lat="42.0264383" lon="2.34879"><ele>568.3333333333333</ele><time>2026-04-11T08:31:35Z</time></trkpt><trkpt lat="42.0262717" lon="2.348795"><ele>567.6666666666666</ele><time>2026-04-11T08:31:36Z</time></trkpt><trkpt lat="42.0261033" lon="2.3488067"><ele>567.0</ele><time>2026-04-11T08:31:37Z</time></trkpt><trkpt lat="42.0259483" lon="2.34881"><ele>565.0</ele><time>2026-04-11T08:31:38Z</time></trkpt><trkpt lat="42.025785" lon="2.348805"><ele>563.0</ele><time>2026-04-11T08:31:39Z</time></trkpt><trkpt lat="42.0256283" lon="2.3487917"><ele>561.0</ele><time>2026-04-11T08:31:40Z</time></trkpt><trkpt lat="42.0254633" lon="2.3487583"><ele>561.0</ele><time>2026-04-11T08:31:41.001Z</time></trkpt><trkpt lat="42.0253117" lon="2.3486767"><ele>561.0</ele><time>2026-04-11T08:31:42Z</time></trkpt><trkpt lat="42.0251767" lon="2.3485583"><ele>561.0</ele><time>2026-04-11T08:31:43Z</time></trkpt><trkpt lat="42.025055" lon="2.3484167"><ele>559.6666666666666</ele><time>2026-04-11T08:31:44Z</time></trkpt><trkpt lat="42.024935" lon="2.3482567"><ele>558.3333333333333</ele><time>2026-04-11T08:31:45Z</time></trkpt><trkpt lat="42.0248133" lon="2.3481083"><ele>557.0</ele><time>2026-04-11T08:31:46Z</time></trkpt><trkpt lat="42.0246883" lon="2.3479567"><ele>557.0</ele><time>2026-04-11T08:31:47Z</time></trkpt><trkpt lat="42.0245617" lon="2.3477983"><ele>557.0</ele><time>2026-04-11T08:31:48Z</time></trkpt><trkpt lat="42.0244267" lon="2.3476317"><ele>557.0</ele><time>2026-04-11T08:31:49.001Z</time></trkpt><trkpt lat="42.02429" lon="2.3474683"><ele>557.0</ele><time>2026-04-11T08:31:50.001Z</time></trkpt><trkpt lat="42.024155" lon="2.3473133"><ele>557.0</ele><time>2026-04-11T08:31:51Z</time></trkpt><trkpt lat="42.0240167" lon="2.3471533"><ele>557.0</ele><time>2026-04-11T08:31:52Z</time></trkpt><trkpt lat="42.0238833" lon="2.3469717"><ele>555.3333333333333</ele><time>2026-04-11T08:31:53Z</time></trkpt><trkpt lat="42.0237483" lon="2.346815"><ele>553.6666666666666</ele><time>2026-04-11T08:31:54Z</time></trkpt><trkpt lat="42.023615" lon="2.346655"><ele>552.0</ele><time>2026-04-11T08:31:55Z</time></trkpt><trkpt lat="42.0234867" lon="2.3465067"><ele>550.6666666666666</ele><time>2026-04-11T08:31:56Z</time></trkpt><trkpt lat="42.02336" lon="2.3463667"><ele>549.3333333333333</ele><time>2026-04-11T08:31:57Z</time></trkpt><trkpt lat="42.02324" lon="2.3462367"><ele>548.0</ele><time>2026-04-11T08:31:58Z</time></trkpt><trkpt lat="42.0231217" lon="2.346105"><ele>546.5</ele><time>2026-04-11T08:31:59Z</time></trkpt><trkpt lat="42.0230333" lon="2.3459667"><ele>545.0</ele><time>2026-04-11T08:32:00Z</time></trkpt><trkpt lat="42.0229733" lon="2.34583"><ele>543.5</ele><time>2026-04-11T08:32:01Z</time></trkpt><trkpt lat="42.0229467" lon="2.3456733"><ele>542.0</ele><time>2026-04-11T08:32:02Z</time></trkpt><trkpt lat="42.0229483" lon="2.3455267"><ele>541.1666666666666</ele><time>2026-04-11T08:32:03Z</time></trkpt><trkpt lat="42.0229683" lon="2.3454067"><ele>540.3333333333333</ele><time>2026-04-11T08:32:04Z</time></trkpt><trkpt lat="42.022985" lon="2.3453133"><ele>539.5</ele><time>2026-04-11T08:32:05Z</time></trkpt><trkpt lat="42.0229983" lon="2.3451983"><ele>538.6666666666666</ele><time>2026-04-11T08:32:07Z</time></trkpt><trkpt lat="42.0229633" lon="2.3451217"><ele>537.8333333333334</ele><time>2026-04-11T08:32:11Z</time></trkpt><trkpt lat="42.0228933" lon="2.3451733"><ele>537.0</ele><time>2026-04-11T08:32:14Z</time></trkpt><trkpt lat="42.0228233" lon="2.3452083"><ele>537.0</ele><time>2026-04-11T08:32:16Z</time></trkpt><trkpt lat="42.0227383" lon="2.3452183"><ele>537.0</ele><time>2026-04-11T08:32:18Z</time></trkpt><trkpt lat="42.022635" lon="2.345215"><ele>537.0</ele><time>2026-04-11T08:32:20Z</time></trkpt><trkpt lat="42.0225617" lon="2.345205"><ele>537.0</ele><time>2026-04-11T08:32:21Z</time></trkpt><trkpt lat="42.0224767" lon="2.345185"><ele>537.0</ele><time>2026-04-11T08:32:22Z</time></trkpt><trkpt lat="42.02238" lon="2.3451567"><ele>537.0</ele><time>2026-04-11T08:32:23Z</time></trkpt><trkpt lat="42.0222867" lon="2.3451283"><ele>536.6</ele><time>2026-04-11T08:32:24Z</time></trkpt><trkpt lat="42.0221817" lon="2.345095"><ele>536.2</ele><time>2026-04-11T08:32:25Z</time></trkpt><trkpt lat="42.0220733" lon="2.3450533"><ele>535.8</ele><time>2026-04-11T08:32:26Z</time></trkpt><trkpt lat="42.0219683" lon="2.3450033"><ele>535.4</ele><time>2026-04-11T08:32:27Z</time></trkpt><trkpt lat="42.0218667" lon="2.3449333"><ele>535.0</ele><time>2026-04-11T08:32:28Z</time></trkpt><trkpt lat="42.0217717" lon="2.344855"><ele>535.0</ele><time>2026-04-11T08:32:29Z</time></trkpt><trkpt lat="42.0216667" lon="2.3447783"><ele>535.0</ele><time>2026-04-11T08:32:30Z</time></trkpt><trkpt lat="42.0215617" lon="2.3447033"><ele>535.0</ele><time>2026-04-11T08:32:31Z</time></trkpt><trkpt lat="42.02146" lon="2.3446133"><ele>535.0</ele><time>2026-04-11T08:32:32Z</time></trkpt><trkpt lat="42.0213583" lon="2.3445033"><ele>532.75</ele><time>2026-04-11T08:32:33.001Z</time></trkpt><trkpt lat="42.0212667" lon="2.3444017"><ele>530.5</ele><time>2026-04-11T08:32:34Z</time></trkpt><trkpt lat="42.0211767" lon="2.3442917"><ele>528.25</ele><time>2026-04-11T08:32:35Z</time></trkpt><trkpt lat="42.0210867" lon="2.3441767"><ele>526.0</ele><time>2026-04-11T08:32:36Z</time></trkpt><trkpt lat="42.0210083" lon="2.3440617"><ele>526.0</ele><time>2026-04-11T08:32:37Z</time></trkpt><trkpt lat="42.020935" lon="2.3439333"><ele>526.0</ele><time>2026-04-11T08:32:38Z</time></trkpt><trkpt lat="42.020865" lon="2.34383"><ele>526.0</ele><time>2026-04-11T08:32:39Z</time></trkpt><trkpt lat="42.0207933" lon="2.3437317"><ele>526.0</ele><time>2026-04-11T08:32:40Z</time></trkpt><trkpt lat="42.0207167" lon="2.3436283"><ele>526.0</ele><time>2026-04-11T08:32:41.001Z</time></trkpt><trkpt lat="42.0206367" lon="2.3435217"><ele>524.0</ele><time>2026-04-11T08:32:42Z</time></trkpt><trkpt lat="42.0205633" lon="2.3434183"><ele>522.0</ele><time>2026-04-11T08:32:43Z</time></trkpt><trkpt lat="42.0204933" lon="2.343325"><ele>520.0</ele><time>2026-04-11T08:32:44Z</time></trkpt><trkpt lat="42.02042" lon="2.3432267"><ele>518.0</ele><time>2026-04-11T08:32:45Z</time></trkpt><trkpt lat="42.0203483" lon="2.3431167"><ele>516.0</ele><time>2026-04-11T08:32:46Z</time></trkpt><trkpt lat="42.0202767" lon="2.3430067"><ele>515.4</ele><time>2026-04-11T08:32:47Z</time></trkpt><trkpt lat="42.0202167" lon="2.3429083"><ele>514.8</ele><time>2026-04-11T08:32:48Z</time></trkpt><trkpt lat="42.020155" lon="2.34281"><ele>514.1999999999999</ele><time>2026-04-11T08:32:49Z</time></trkpt><trkpt lat="42.0200917" lon="2.3426967"><ele>513.6</ele><time>2026-04-11T08:32:50Z</time></trkpt><trkpt lat="42.0200217" lon="2.3425867"><ele>513.0</ele><time>2026-04-11T08:32:51Z</time></trkpt><trkpt lat="42.0199517" lon="2.34249"><ele>510.5</ele><time>2026-04-11T08:32:52Z</time></trkpt><trkpt lat="42.019875" lon="2.3423833"><ele>508.0</ele><time>2026-04-11T08:32:53Z</time></trkpt><trkpt lat="42.0197883" lon="2.3422767"><ele>505.5</ele><time>2026-04-11T08:32:54Z</time></trkpt><trkpt lat="42.0196933" lon="2.3421617"><ele>503.0</ele><time>2026-04-11T08:32:55Z</time></trkpt><trkpt lat="42.01959" lon="2.3420433"><ele>502.0</ele><time>2026-04-11T08:32:56Z</time></trkpt><trkpt lat="42.019485" lon="2.3418933"><ele>501.0</ele><time>2026-04-11T08:32:57Z</time></trkpt><trkpt lat="42.01939" lon="2.3417567"><ele>500.0</ele><time>2026-04-11T08:32:58Z</time></trkpt><trkpt lat="42.0193033" lon="2.34163"><ele>499.0</ele><time>2026-04-11T08:32:59Z</time></trkpt><trkpt lat="42.0192233" lon="2.34151"><ele>498.5</ele><time>2026-04-11T08:33:00Z</time></trkpt><trkpt lat="42.019135" lon="2.341385"><ele>498.0</ele><time>2026-04-11T08:33:01Z</time></trkpt><trkpt lat="42.0190533" lon="2.3412533"><ele>497.5</ele><time>2026-04-11T08:33:02Z</time></trkpt><trkpt lat="42.0189783" lon="2.3411283"><ele>497.0</ele><time>2026-04-11T08:33:03Z</time></trkpt><trkpt lat="42.0188967" lon="2.3410233"><ele>496.25</ele><time>2026-04-11T08:33:04Z</time></trkpt><trkpt lat="42.0188" lon="2.3409283"><ele>495.5</ele><time>2026-04-11T08:33:05Z</time></trkpt><trkpt lat="42.0187033" lon="2.3408433"><ele>494.75</ele><time>2026-04-11T08:33:06Z</time></trkpt><trkpt lat="42.0186083" lon="2.340765"><ele>494.0</ele><time>2026-04-11T08:33:07Z</time></trkpt><trkpt lat="42.018505" lon="2.3406883"><ele>494.0</ele><time>2026-04-11T08:33:08Z</time></trkpt><trkpt lat="42.01839" lon="2.340615"><ele>494.0</ele><time>2026-04-11T08:33:09.001Z</time></trkpt><trkpt lat="42.0182667" lon="2.3405317"><ele>494.0</ele><time>2026-04-11T08:33:10Z</time></trkpt><trkpt lat="42.018135" lon="2.3404517"><ele>494.0</ele><time>2026-04-11T08:33:11Z</time></trkpt><trkpt lat="42.0180033" lon="2.3403733"><ele>494.0</ele><time>2026-04-11T08:33:12Z</time></trkpt><trkpt lat="42.0178733" lon="2.3402933"><ele>494.0</ele><time>2026-04-11T08:33:13Z</time></trkpt><trkpt lat="42.0177383" lon="2.3402167"><ele>494.0</ele><time>2026-04-11T08:33:14Z</time></trkpt><trkpt lat="42.017605" lon="2.3401367"><ele>494.0</ele><time>2026-04-11T08:33:15Z</time></trkpt><trkpt lat="42.01748" lon="2.3400567"><ele>494.0</ele><time>2026-04-11T08:33:16.001Z</time></trkpt><trkpt lat="42.01735" lon="2.339975"><ele>494.0</ele><time>2026-04-11T08:33:17Z</time></trkpt><trkpt lat="42.0172267" lon="2.3398917"><ele>494.0</ele><time>2026-04-11T08:33:18Z</time></trkpt><trkpt lat="42.017105" lon="2.3398083"><ele>494.0</ele><time>2026-04-11T08:33:19Z</time></trkpt><trkpt lat="42.0169833" lon="2.3397267"><ele>494.25</ele><time>2026-04-11T08:33:20.001Z</time></trkpt><trkpt lat="42.0168533" lon="2.3396333"><ele>494.5</ele><time>2026-04-11T08:33:21Z</time></trkpt><trkpt lat="42.0167333" lon="2.3395417"><ele>494.75</ele><time>2026-04-11T08:33:22Z</time></trkpt><trkpt lat="42.01662" lon="2.3394517"><ele>495.0</ele><time>2026-04-11T08:33:23Z</time></trkpt><trkpt lat="42.0165083" lon="2.339365"><ele>495.0</ele><time>2026-04-11T08:33:24Z</time></trkpt><trkpt lat="42.0163933" lon="2.339285"><ele>495.0</ele><time>2026-04-11T08:33:25Z</time></trkpt><trkpt lat="42.0162867" lon="2.3392017"><ele>495.0</ele><time>2026-04-11T08:33:26Z</time></trkpt><trkpt lat="42.01618" lon="2.33912"><ele>495.0</ele><time>2026-04-11T08:33:27Z</time></trkpt><trkpt lat="42.0160717" lon="2.339045"><ele>495.0</ele><time>2026-04-11T08:33:28Z</time></trkpt><trkpt lat="42.01597" lon="2.338975"><ele>495.0</ele><time>2026-04-11T08:33:29Z</time></trkpt><trkpt lat="42.01588" lon="2.3389133"><ele>495.0</ele><time>2026-04-11T08:33:30Z</time></trkpt><trkpt lat="42.0157967" lon="2.3388483"><ele>495.0</ele><time>2026-04-11T08:33:31Z</time></trkpt><trkpt lat="42.0157033" lon="2.338775"><ele>495.0</ele><time>2026-04-11T08:33:32Z</time></trkpt><trkpt lat="42.015605" lon="2.3387"><ele>493.4</ele><time>2026-04-11T08:33:33.001Z</time></trkpt><trkpt lat="42.0155133" lon="2.3386433"><ele>491.8</ele><time>2026-04-11T08:33:34Z</time></trkpt><trkpt lat="42.015425" lon="2.33857"><ele>490.20000000000005</ele><time>2026-04-11T08:33:35Z</time></trkpt><trkpt lat="42.0153383" lon="2.338505"><ele>488.6</ele><time>2026-04-11T08:33:36Z</time></trkpt><trkpt lat="42.0152533" lon="2.33843"><ele>487.0</ele><time>2026-04-11T08:33:37Z</time></trkpt><trkpt lat="42.0151717" lon="2.33836"><ele>487.0</ele><time>2026-04-11T08:33:38Z</time></trkpt><trkpt lat="42.0150917" lon="2.3382967"><ele>487.00000000000006</ele><time>2026-04-11T08:33:39Z</time></trkpt><trkpt lat="42.0150083" lon="2.3382383"><ele>487.00000000000006</ele><time>2026-04-11T08:33:40.001Z</time></trkpt><trkpt lat="42.0149217" lon="2.33818"><ele>487.0</ele><time>2026-04-11T08:33:41Z</time></trkpt><trkpt lat="42.0148333" lon="2.33812"><ele>487.0</ele><time>2026-04-11T08:33:42Z</time></trkpt><trkpt lat="42.01475" lon="2.3380583"><ele>485.6</ele><time>2026-04-11T08:33:43Z</time></trkpt><trkpt lat="42.0146667" lon="2.3380017"><ele>484.20000000000005</ele><time>2026-04-11T08:33:44Z</time></trkpt><trkpt lat="42.0145833" lon="2.3379283"><ele>482.8</ele><time>2026-04-11T08:33:45Z</time></trkpt><trkpt lat="42.0145017" lon="2.3378617"><ele>481.4</ele><time>2026-04-11T08:33:46Z</time></trkpt><trkpt lat="42.0144233" lon="2.3378033"><ele>480.0</ele><time>2026-04-11T08:33:47Z</time></trkpt><trkpt lat="42.01434" lon="2.3377417"><ele>480.0</ele><time>2026-04-11T08:33:48Z</time></trkpt><trkpt lat="42.01426" lon="2.3376767"><ele>480.0</ele><time>2026-04-11T08:33:49Z</time></trkpt><trkpt lat="42.014175" lon="2.33761"><ele>480.0</ele><time>2026-04-11T08:33:50Z</time></trkpt><trkpt lat="42.0140917" lon="2.3375383"><ele>480.0</ele><time>2026-04-11T08:33:51Z</time></trkpt><trkpt lat="42.0140083" lon="2.3374733"><ele>480.0</ele><time>2026-04-11T08:33:52Z</time></trkpt><trkpt lat="42.013915" lon="2.337395"><ele>477.5</ele><time>2026-04-11T08:33:53Z</time></trkpt><trkpt lat="42.0138167" lon="2.3373117"><ele>475.0</ele><time>2026-04-11T08:33:54Z</time></trkpt><trkpt lat="42.013715" lon="2.3372333"><ele>472.5</ele><time>2026-04-11T08:33:55Z</time></trkpt><trkpt lat="42.01361" lon="2.337155"><ele>470.0</ele><time>2026-04-11T08:33:56Z</time></trkpt><trkpt lat="42.0135117" lon="2.3370883"><ele>470.0</ele><time>2026-04-11T08:33:57Z</time></trkpt><trkpt lat="42.0134167" lon="2.3370067"><ele>470.0</ele><time>2026-04-11T08:33:58Z</time></trkpt><trkpt lat="42.0133183" lon="2.3369317"><ele>470.0</ele><time>2026-04-11T08:33:59Z</time></trkpt><trkpt lat="42.0132183" lon="2.3368617"><ele>470.0</ele><time>2026-04-11T08:34:00Z</time></trkpt><trkpt lat="42.01312" lon="2.3367967"><ele>470.0</ele><time>2026-04-11T08:34:01Z</time></trkpt><trkpt lat="42.0130217" lon="2.3367333"><ele>468.2</ele><time>2026-04-11T08:34:02Z</time></trkpt><trkpt lat="42.01292" lon="2.3366617"><ele>466.4</ele><time>2026-04-11T08:34:03Z</time></trkpt><trkpt lat="42.012825" lon="2.3365983"><ele>464.6</ele><time>2026-04-11T08:34:04Z</time></trkpt><trkpt lat="42.01274" lon="2.3365517"><ele>462.8</ele><time>2026-04-11T08:34:05Z</time></trkpt><trkpt lat="42.0126617" lon="2.3365217"><ele>461.0</ele><time>2026-04-11T08:34:06Z</time></trkpt><trkpt lat="42.0125967" lon="2.3364867"><ele>461.75</ele><time>2026-04-11T08:34:07Z</time></trkpt><trkpt lat="42.01252" lon="2.3363517"><ele>462.5</ele><time>2026-04-11T08:34:09Z</time></trkpt><trkpt lat="42.012515" lon="2.3362117"><ele>463.25</ele><time>2026-04-11T08:34:11Z</time></trkpt><trkpt lat="42.012565" lon="2.3360883"><ele>464.0</ele><time>2026-04-11T08:34:13Z</time></trkpt><trkpt lat="42.0126633" lon="2.3360017"><ele>463.99999999999994</ele><time>2026-04-11T08:34:15.001Z</time></trkpt><trkpt lat="42.0127267" lon="2.3359533"><ele>464.0</ele><time>2026-04-11T08:34:16.001Z</time></trkpt><trkpt lat="42.01278" lon="2.3359017"><ele>464.0</ele><time>2026-04-11T08:34:17Z</time></trkpt><trkpt lat="42.0128383" lon="2.335795"><ele>464.0</ele><time>2026-04-11T08:34:19Z</time></trkpt><trkpt lat="42.0127933" lon="2.3356917"><ele>463.99999999999994</ele><time>2026-04-11T08:34:21Z</time></trkpt><trkpt lat="42.0127017" lon="2.3355883"><ele>464.0</ele><time>2026-04-11T08:34:23Z</time></trkpt><trkpt lat="42.0126467" lon="2.3355267"><ele>465.16666666666663</ele><time>2026-04-11T08:34:24Z</time></trkpt><trkpt lat="42.0125883" lon="2.335435"><ele>466.3333333333333</ele><time>2026-04-11T08:34:25Z</time></trkpt><trkpt lat="42.0125317" lon="2.3353367"><ele>467.5</ele><time>2026-04-11T08:34:26Z</time></trkpt><trkpt lat="42.0124733" lon="2.3352417"><ele>468.66666666666663</ele><time>2026-04-11T08:34:27Z</time></trkpt><trkpt lat="42.0124133" lon="2.3351583"><ele>469.8333333333333</ele><time>2026-04-11T08:34:28Z</time></trkpt><trkpt lat="42.01235" lon="2.3350817"><ele>471.0</ele><time>2026-04-11T08:34:29Z</time></trkpt><trkpt lat="42.0122817" lon="2.335015"><ele>471.0</ele><time>2026-04-11T08:34:30Z</time></trkpt><trkpt lat="42.0122" lon="2.3349633"><ele>471.0</ele><time>2026-04-11T08:34:31Z</time></trkpt><trkpt lat="42.012105" lon="2.3349383"><ele>471.0</ele><time>2026-04-11T08:34:32Z</time></trkpt><trkpt lat="42.01201" lon="2.3349433"><ele>471.0</ele><time>2026-04-11T08:34:33.001Z</time></trkpt><trkpt lat="42.0119133" lon="2.3349667"><ele>471.0</ele><time>2026-04-11T08:34:34Z</time></trkpt><trkpt lat="42.01181" lon="2.3349917"><ele>471.0</ele><time>2026-04-11T08:34:35Z</time></trkpt><trkpt lat="42.0117017" lon="2.3350117"><ele>471.0</ele><time>2026-04-11T08:34:36Z</time></trkpt><trkpt lat="42.01159" lon="2.3350383"><ele>471.0</ele><time>2026-04-11T08:34:37.001Z</time></trkpt><trkpt lat="42.01148" lon="2.3350417"><ele>471.0</ele><time>2026-04-11T08:34:38Z</time></trkpt><trkpt lat="42.0113717" lon="2.335025"><ele>471.0</ele><time>2026-04-11T08:34:39.001Z</time></trkpt><trkpt lat="42.0112633" lon="2.3349717"><ele>473.25</ele><time>2026-04-11T08:34:40Z</time></trkpt><trkpt lat="42.0111583" lon="2.3348967"><ele>475.5</ele><time>2026-04-11T08:34:41Z</time></trkpt><trkpt lat="42.011055" lon="2.33481"><ele>477.75</ele><time>2026-04-11T08:34:42Z</time></trkpt><trkpt lat="42.0109533" lon="2.33473"><ele>480.0</ele><time>2026-04-11T08:34:43Z</time></trkpt><trkpt lat="42.01085" lon="2.3346467"><ele>479.8</ele><time>2026-04-11T08:34:44Z</time></trkpt><trkpt lat="42.0107567" lon="2.3345817"><ele>479.6</ele><time>2026-04-11T08:34:45Z</time></trkpt><trkpt lat="42.01067" lon="2.334535"><ele>479.4</ele><time>2026-04-11T08:34:46Z</time></trkpt><trkpt lat="42.010575" lon="2.334495"><ele>479.2</ele><time>2026-04-11T08:34:47Z</time></trkpt><trkpt lat="42.0104717" lon="2.3344767"><ele>479.0</ele><time>2026-04-11T08:34:48Z</time></trkpt><trkpt lat="42.0103517" lon="2.3344817"><ele>479.0</ele><time>2026-04-11T08:34:49Z</time></trkpt><trkpt lat="42.0102317" lon="2.3345"><ele>479.0</ele><time>2026-04-11T08:34:50Z</time></trkpt><trkpt lat="42.01012" lon="2.3345267"><ele>479.0</ele><time>2026-04-11T08:34:51.001Z</time></trkpt><trkpt lat="42.0100083" lon="2.334575"><ele>479.0</ele><time>2026-04-11T08:34:52Z</time></trkpt><trkpt lat="42.0099033" lon="2.3346333"><ele>479.79999999999995</ele><time>2026-04-11T08:34:53Z</time></trkpt><trkpt lat="42.0098033" lon="2.3346767"><ele>480.59999999999997</ele><time>2026-04-11T08:34:54Z</time></trkpt><trkpt lat="42.0097117" lon="2.3347117"><ele>481.4</ele><time>2026-04-11T08:34:55Z</time></trkpt><trkpt lat="42.00962" lon="2.3347483"><ele>482.2</ele><time>2026-04-11T08:34:56Z</time></trkpt><trkpt lat="42.0095267" lon="2.3347667"><ele>483.0</ele><time>2026-04-11T08:34:57Z</time></trkpt><trkpt lat="42.0094367" lon="2.3347667"><ele>483.0</ele><time>2026-04-11T08:34:58Z</time></trkpt><trkpt lat="42.0093467" lon="2.33473"><ele>482.99999999999994</ele><time>2026-04-11T08:34:59Z</time></trkpt><trkpt lat="42.0092583" lon="2.3346633"><ele>482.99999999999994</ele><time>2026-04-11T08:35:00Z</time></trkpt><trkpt lat="42.0091633" lon="2.3345767"><ele>483.0</ele><time>2026-04-11T08:35:01Z</time></trkpt><trkpt lat="42.009055" lon="2.334495"><ele>483.0</ele><time>2026-04-11T08:35:02Z</time></trkpt><trkpt lat="42.0089483" lon="2.3344067"><ele>484.25</ele><time>2026-04-11T08:35:03Z</time></trkpt><trkpt lat="42.0088433" lon="2.3343133"><ele>485.5</ele><time>2026-04-11T08:35:04Z</time></trkpt><trkpt lat="42.00874" lon="2.334225"><ele>486.75</ele><time>2026-04-11T08:35:05Z</time></trkpt><trkpt lat="42.0086383" lon="2.3341333"><ele>488.0</ele><time>2026-04-11T08:35:06.001Z</time></trkpt><trkpt lat="42.0085433" lon="2.3340567"><ele>487.99999999999994</ele><time>2026-04-11T08:35:07Z</time></trkpt><trkpt lat="42.0084567" lon="2.33398"><ele>488.0</ele><time>2026-04-11T08:35:08Z</time></trkpt><trkpt lat="42.0083833" lon="2.333915"><ele>488.0</ele><time>2026-04-11T08:35:09Z</time></trkpt><trkpt lat="42.00832" lon="2.3338567"><ele>488.0</ele><time>2026-04-11T08:35:10Z</time></trkpt><trkpt lat="42.0082683" lon="2.333795"><ele>487.99999999999994</ele><time>2026-04-11T08:35:11Z</time></trkpt><trkpt lat="42.00823" lon="2.3337233"><ele>488.0</ele><time>2026-04-11T08:35:12.001Z</time></trkpt><trkpt lat="42.0082" lon="2.3336383"><ele>487.4</ele><time>2026-04-11T08:35:13Z</time></trkpt><trkpt lat="42.00817" lon="2.3335283"><ele>486.79999999999995</ele><time>2026-04-11T08:35:14Z</time></trkpt><trkpt lat="42.0081417" lon="2.3334033"><ele>486.2</ele><time>2026-04-11T08:35:15Z</time></trkpt><trkpt lat="42.0080867" lon="2.3332783"><ele>485.6</ele><time>2026-04-11T08:35:16Z</time></trkpt><trkpt lat="42.0080183" lon="2.3331667"><ele>485.0</ele><time>2026-04-11T08:35:17Z</time></trkpt><trkpt lat="42.0079483" lon="2.333065"><ele>484.49999999999994</ele><time>2026-04-11T08:35:18Z</time></trkpt><trkpt lat="42.0078867" lon="2.33298"><ele>484.0</ele><time>2026-04-11T08:35:19Z</time></trkpt><trkpt lat="42.0078317" lon="2.3329"><ele>483.5</ele><time>2026-04-11T08:35:20Z</time></trkpt><trkpt lat="42.0077983" lon="2.3328083"><ele>483.0</ele><time>2026-04-11T08:35:21Z</time></trkpt><trkpt lat="42.0077817" lon="2.3327067"><ele>482.49999999999994</ele><time>2026-04-11T08:35:22Z</time></trkpt><trkpt lat="42.00777" lon="2.33261"><ele>482.0</ele><time>2026-04-11T08:35:23Z</time></trkpt><trkpt lat="42.0077033" lon="2.332495"><ele>481.99999999999994</ele><time>2026-04-11T08:35:25Z</time></trkpt><trkpt lat="42.0076317" lon="2.3324783"><ele>482.0</ele><time>2026-04-11T08:35:27Z</time></trkpt><trkpt lat="42.007585" lon="2.3325383"><ele>482.0</ele><time>2026-04-11T08:35:29Z</time></trkpt><trkpt lat="42.0075583" lon="2.33262"><ele>482.0</ele><time>2026-04-11T08:35:31Z</time></trkpt><trkpt lat="42.0076183" lon="2.3325017"><ele>481.99999999999994</ele><time>2026-04-11T08:35:44Z</time></trkpt><trkpt lat="42.0076483" lon="2.3324017"><ele>482.0</ele><time>2026-04-11T08:35:45Z</time></trkpt><trkpt lat="42.0076617" lon="2.33227"><ele>482.40000000000003</ele><time>2026-04-11T08:35:46Z</time></trkpt><trkpt lat="42.007655" lon="2.332125"><ele>482.80000000000007</ele><time>2026-04-11T08:35:47Z</time></trkpt><trkpt lat="42.0076467" lon="2.3319767"><ele>483.2</ele><time>2026-04-11T08:35:48Z</time></trkpt><trkpt lat="42.0076383" lon="2.3318267"><ele>483.6</ele><time>2026-04-11T08:35:49Z</time></trkpt><trkpt lat="42.00763" lon="2.331675"><ele>484.0</ele><time>2026-04-11T08:35:50Z</time></trkpt><trkpt lat="42.0076267" lon="2.33152"><ele>485.0</ele><time>2026-04-11T08:35:51Z</time></trkpt><trkpt lat="42.0076233" lon="2.3313783"><ele>486.0</ele><time>2026-04-11T08:35:52Z</time></trkpt><trkpt lat="42.0076233" lon="2.3312533"><ele>487.0</ele><time>2026-04-11T08:35:53Z</time></trkpt><trkpt lat="42.00762" lon="2.331145"><ele>488.0</ele><time>2026-04-11T08:35:54.001Z</time></trkpt><trkpt lat="42.00763" lon="2.3310583"><ele>489.0</ele><time>2026-04-11T08:35:55Z</time></trkpt><trkpt lat="42.007655" lon="2.3309167"><ele>489.0</ele><time>2026-04-11T08:35:57Z</time></trkpt><trkpt lat="42.0076433" lon="2.3308117"><ele>489.0</ele><time>2026-04-11T08:35:59Z</time></trkpt><trkpt lat="42.0075467" lon="2.3306783"><ele>489.0</ele><time>2026-04-11T08:36:01Z</time></trkpt><trkpt lat="42.00746" lon="2.3306167"><ele>489.0</ele><time>2026-04-11T08:36:02Z</time></trkpt><trkpt lat="42.007365" lon="2.3305567"><ele>489.0</ele><time>2026-04-11T08:36:03Z</time></trkpt><trkpt lat="42.0072517" lon="2.3304817"><ele>489.25</ele><time>2026-04-11T08:36:04Z</time></trkpt><trkpt lat="42.00713" lon="2.3303917"><ele>489.5</ele><time>2026-04-11T08:36:05Z</time></trkpt><trkpt lat="42.006995" lon="2.330315"><ele>489.75</ele><time>2026-04-11T08:36:06Z</time></trkpt><trkpt lat="42.0068533" lon="2.3302183"><ele>490.0</ele><time>2026-04-11T08:36:07Z</time></trkpt><trkpt lat="42.00671" lon="2.3301217"><ele>490.0</ele><time>2026-04-11T08:36:08Z</time></trkpt><trkpt lat="42.0065583" lon="2.3300217"><ele>490.0</ele><time>2026-04-11T08:36:09Z</time></trkpt><trkpt lat="42.0064117" lon="2.3299267"><ele>490.0</ele><time>2026-04-11T08:36:10Z</time></trkpt><trkpt lat="42.0062583" lon="2.3298333"><ele>490.0</ele><time>2026-04-11T08:36:11Z</time></trkpt><trkpt lat="42.006105" lon="2.329735"><ele>490.0</ele><time>2026-04-11T08:36:12Z</time></trkpt><trkpt lat="42.0059483" lon="2.3296317"><ele>490.0</ele><time>2026-04-11T08:36:13Z</time></trkpt><trkpt lat="42.005795" lon="2.3295367"><ele>489.6666666666667</ele><time>2026-04-11T08:36:14Z</time></trkpt><trkpt lat="42.0056433" lon="2.32944"><ele>489.33333333333337</ele><time>2026-04-11T08:36:15Z</time></trkpt><trkpt lat="42.0054917" lon="2.3293383"><ele>489.0</ele><time>2026-04-11T08:36:16Z</time></trkpt><trkpt lat="42.005335" lon="2.32924"><ele>489.0</ele><time>2026-04-11T08:36:17Z</time></trkpt><trkpt lat="42.00518" lon="2.3291383"><ele>489.0</ele><time>2026-04-11T08:36:18Z</time></trkpt><trkpt lat="42.0050183" lon="2.3290383"><ele>489.0</ele><time>2026-04-11T08:36:19.001Z</time></trkpt><trkpt lat="42.0048583" lon="2.3289417"><ele>491.0</ele><time>2026-04-11T08:36:20Z</time></trkpt><trkpt lat="42.0046933" lon="2.328855"><ele>493.0</ele><time>2026-04-11T08:36:21Z</time></trkpt><trkpt lat="42.0045267" lon="2.3287883"><ele>495.0</ele><time>2026-04-11T08:36:22Z</time></trkpt><trkpt lat="42.0043583" lon="2.32874"><ele>495.0</ele><time>2026-04-11T08:36:23Z</time></trkpt><trkpt lat="42.0041917" lon="2.3287133"><ele>495.0</ele><time>2026-04-11T08:36:24Z</time></trkpt><trkpt lat="42.0040233" lon="2.3286883"><ele>495.0</ele><time>2026-04-11T08:36:25Z</time></trkpt><trkpt lat="42.003855" lon="2.3286633"><ele>496.0</ele><time>2026-04-11T08:36:26.001Z</time></trkpt><trkpt lat="42.003685" lon="2.3286283"><ele>497.0</ele><time>2026-04-11T08:36:27.001Z</time></trkpt><trkpt lat="42.003515" lon="2.3285967"><ele>498.0</ele><time>2026-04-11T08:36:28Z</time></trkpt><trkpt lat="42.0033483" lon="2.3285683"><ele>498.66666666666663</ele><time>2026-04-11T08:36:29Z</time></trkpt><trkpt lat="42.0031833" lon="2.3285367"><ele>499.3333333333333</ele><time>2026-04-11T08:36:30Z</time></trkpt><trkpt lat="42.0030133" lon="2.3285067"><ele>500.0</ele><time>2026-04-11T08:36:31Z</time></trkpt><trkpt lat="42.00285" lon="2.32847"><ele>500.0</ele><time>2026-04-11T08:36:32Z</time></trkpt><trkpt lat="42.0026917" lon="2.3284167"><ele>500.0</ele><time>2026-04-11T08:36:33Z</time></trkpt><trkpt lat="42.0025367" lon="2.3283617"><ele>500.0</ele><time>2026-04-11T08:36:34Z</time></trkpt><trkpt lat="42.0023833" lon="2.32829"><ele>500.3333333333333</ele><time>2026-04-11T08:36:35Z</time></trkpt><trkpt lat="42.0022367" lon="2.3281917"><ele>500.66666666666663</ele><time>2026-04-11T08:36:36Z</time></trkpt><trkpt lat="42.002105" lon="2.32807"><ele>501.0</ele><time>2026-04-11T08:36:37Z</time></trkpt><trkpt lat="42.001985" lon="2.3279367"><ele>501.0</ele><time>2026-04-11T08:36:38Z</time></trkpt><trkpt lat="42.0018667" lon="2.3277967"><ele>501.0</ele><time>2026-04-11T08:36:39Z</time></trkpt><trkpt lat="42.0017517" lon="2.3276233"><ele>501.0</ele><time>2026-04-11T08:36:40Z</time></trkpt><trkpt lat="42.0016467" lon="2.32744"><ele>501.33333333333337</ele><time>2026-04-11T08:36:41Z</time></trkpt><trkpt lat="42.0015533" lon="2.32726"><ele>501.6666666666667</ele><time>2026-04-11T08:36:42Z</time></trkpt><trkpt lat="42.001455" lon="2.327095"><ele>502.0</ele><time>2026-04-11T08:36:43Z</time></trkpt><trkpt lat="42.0013667" lon="2.32693"><ele>502.0</ele><time>2026-04-11T08:36:44Z</time></trkpt><trkpt lat="42.0012767" lon="2.32677"><ele>502.0</ele><time>2026-04-11T08:36:45Z</time></trkpt><trkpt lat="42.0011883" lon="2.3266"><ele>502.0</ele><time>2026-04-11T08:36:46Z</time></trkpt><trkpt lat="42.0010983" lon="2.3264333"><ele>501.25</ele><time>2026-04-11T08:36:47Z</time></trkpt><trkpt lat="42.0010083" lon="2.32627"><ele>500.5</ele><time>2026-04-11T08:36:48Z</time></trkpt><trkpt lat="42.0009217" lon="2.3261183"><ele>499.75</ele><time>2026-04-11T08:36:49Z</time></trkpt><trkpt lat="42.0008367" lon="2.325975"><ele>499.0</ele><time>2026-04-11T08:36:50Z</time></trkpt><trkpt lat="42.0007467" lon="2.3258267"><ele>499.0</ele><time>2026-04-11T08:36:51Z</time></trkpt><trkpt lat="42.0006567" lon="2.325675"><ele>499.0</ele><time>2026-04-11T08:36:52Z</time></trkpt><trkpt lat="42.0005667" lon="2.32552"><ele>499.0</ele><time>2026-04-11T08:36:53Z</time></trkpt><trkpt lat="42.0004667" lon="2.3253683"><ele>499.0</ele><time>2026-04-11T08:36:54.001Z</time></trkpt><trkpt lat="42.0003567" lon="2.3252167"><ele>497.0</ele><time>2026-04-11T08:36:55Z</time></trkpt><trkpt lat="42.0002417" lon="2.3250683"><ele>495.0</ele><time>2026-04-11T08:36:56Z</time></trkpt><trkpt lat="42.0001217" lon="2.3249267"><ele>493.0</ele><time>2026-04-11T08:36:57Z</time></trkpt><trkpt lat="41.9999933" lon="2.324795"><ele>490.6666666666667</ele><time>2026-04-11T08:36:58.001Z</time></trkpt><trkpt lat="41.999865" lon="2.3246667"><ele>488.33333333333337</ele><time>2026-04-11T08:36:59.001Z</time></trkpt><trkpt lat="41.9997333" lon="2.3245417"><ele>486.0</ele><time>2026-04-11T08:37:00Z</time></trkpt><trkpt lat="41.9995983" lon="2.32442"><ele>486.0</ele><time>2026-04-11T08:37:01Z</time></trkpt><trkpt lat="41.9994683" lon="2.3242917"><ele>486.0</ele><time>2026-04-11T08:37:02Z</time></trkpt><trkpt lat="41.999335" lon="2.3241567"><ele>486.0</ele><time>2026-04-11T08:37:03Z</time></trkpt><trkpt lat="41.9992033" lon="2.3240283"><ele>485.33333333333337</ele><time>2026-04-11T08:37:04Z</time></trkpt><trkpt lat="41.9990717" lon="2.3238917"><ele>484.6666666666667</ele><time>2026-04-11T08:37:05Z</time></trkpt><trkpt lat="41.9989317" lon="2.3237667"><ele>484.0</ele><time>2026-04-11T08:37:06Z</time></trkpt><trkpt lat="41.9988017" lon="2.32364"><ele>484.0</ele><time>2026-04-11T08:37:07Z</time></trkpt><trkpt lat="41.9986767" lon="2.3235217"><ele>484.0</ele><time>2026-04-11T08:37:08Z</time></trkpt><trkpt lat="41.9985617" lon="2.3234067"><ele>484.0</ele><time>2026-04-11T08:37:09Z</time></trkpt><trkpt lat="41.9984483" lon="2.3233033"><ele>484.0</ele><time>2026-04-11T08:37:10.001Z</time></trkpt><trkpt lat="41.9983483" lon="2.3231983"><ele>483.79999999999995</ele><time>2026-04-11T08:37:11Z</time></trkpt><trkpt lat="41.998255" lon="2.3231133"><ele>483.59999999999997</ele><time>2026-04-11T08:37:12Z</time></trkpt><trkpt lat="41.998165" lon="2.3230417"><ele>483.4</ele><time>2026-04-11T08:37:13Z</time></trkpt><trkpt lat="41.9980917" lon="2.3229617"><ele>483.2</ele><time>2026-04-11T08:37:14Z</time></trkpt><trkpt lat="41.998025" lon="2.3228967"><ele>483.0</ele><time>2026-04-11T08:37:15.001Z</time></trkpt><trkpt lat="41.9979733" lon="2.322845"><ele>483.0</ele><time>2026-04-11T08:37:16Z</time></trkpt><trkpt lat="41.99789" lon="2.3227917"><ele>483.0</ele><time>2026-04-11T08:37:18Z</time></trkpt><trkpt lat="41.99783" lon="2.3228633"><ele>483.0</ele><time>2026-04-11T08:37:21Z</time></trkpt><trkpt lat="41.99785" lon="2.3229967"><ele>483.0</ele><time>2026-04-11T08:37:23Z</time></trkpt><trkpt lat="41.9978783" lon="2.323085"><ele>483.0</ele><time>2026-04-11T08:37:24Z</time></trkpt><trkpt lat="41.997915" lon="2.3231883"><ele>483.0</ele><time>2026-04-11T08:37:25Z</time></trkpt><trkpt lat="41.99796" lon="2.3233"><ele>483.59999999999997</ele><time>2026-04-11T08:37:26Z</time></trkpt><trkpt lat="41.997995" lon="2.323415"><ele>484.19999999999993</ele><time>2026-04-11T08:37:27Z</time></trkpt><trkpt lat="41.9980267" lon="2.3235417"><ele>484.8</ele><time>2026-04-11T08:37:28Z</time></trkpt><trkpt lat="41.998055" lon="2.3236567"><ele>485.4</ele><time>2026-04-11T08:37:29Z</time></trkpt><trkpt lat="41.9981" lon="2.3237683"><ele>486.0</ele><time>2026-04-11T08:37:30Z</time></trkpt><trkpt lat="41.9981567" lon="2.3238883"><ele>486.0</ele><time>2026-04-11T08:37:31.001Z</time></trkpt><trkpt lat="41.9982167" lon="2.3240133"><ele>486.0</ele><time>2026-04-11T08:37:32Z</time></trkpt><trkpt lat="41.9982867" lon="2.3241467"><ele>486.0</ele><time>2026-04-11T08:37:33Z</time></trkpt><trkpt lat="41.998355" lon="2.3242617"><ele>486.0</ele><time>2026-04-11T08:37:34Z</time></trkpt><trkpt lat="41.9984183" lon="2.3243617"><ele>486.0</ele><time>2026-04-11T08:37:35Z</time></trkpt><trkpt lat="41.9984833" lon="2.3244517"><ele>486.0</ele><time>2026-04-11T08:37:36Z</time></trkpt><trkpt lat="41.9985483" lon="2.3245417"><ele>486.0</ele><time>2026-04-11T08:37:37Z</time></trkpt><trkpt lat="41.99861" lon="2.3246333"><ele>486.0</ele><time>2026-04-11T08:37:38Z</time></trkpt><trkpt lat="41.99866" lon="2.3247217"><ele>486.0</ele><time>2026-04-11T08:37:39Z</time></trkpt><trkpt lat="41.9987" lon="2.324795"><ele>486.0</ele><time>2026-04-11T08:37:40Z</time></trkpt><trkpt lat="41.998735" lon="2.3249"><ele>486.0</ele><time>2026-04-11T08:37:42Z</time></trkpt><trkpt lat="41.998685" lon="2.324985"><ele>486.8333333333333</ele><time>2026-04-11T08:37:46Z</time></trkpt><trkpt lat="41.9985967" lon="2.3250383"><ele>487.66666666666663</ele><time>2026-04-11T08:37:48Z</time></trkpt><trkpt lat="41.9985283" lon="2.32507"><ele>488.5</ele><time>2026-04-11T08:37:49Z</time></trkpt><trkpt lat="41.998435" lon="2.32509"><ele>489.3333333333333</ele><time>2026-04-11T08:37:50Z</time></trkpt><trkpt lat="41.9983483" lon="2.325105"><ele>490.16666666666663</ele><time>2026-04-11T08:37:51Z</time></trkpt><trkpt lat="41.99826" lon="2.3251067"><ele>491.0</ele><time>2026-04-11T08:37:52.001Z</time></trkpt><trkpt lat="41.998165" lon="2.3250817"><ele>491.8</ele><time>2026-04-11T08:37:53Z</time></trkpt><trkpt lat="41.9980767" lon="2.325045"><ele>492.6</ele><time>2026-04-11T08:37:54Z</time></trkpt><trkpt lat="41.99798" lon="2.3250067"><ele>493.4</ele><time>2026-04-11T08:37:55.001Z</time></trkpt><trkpt lat="41.9978883" lon="2.3249733"><ele>494.2</ele><time>2026-04-11T08:37:56Z</time></trkpt><trkpt lat="41.9978" lon="2.3249317"><ele>495.0</ele><time>2026-04-11T08:37:57Z</time></trkpt><trkpt lat="41.9977017" lon="2.32488"><ele>495.0</ele><time>2026-04-11T08:37:58Z</time></trkpt><trkpt lat="41.9976217" lon="2.3248133"><ele>495.0</ele><time>2026-04-11T08:37:59.001Z</time></trkpt><trkpt lat="41.99754" lon="2.3247483"><ele>495.0</ele><time>2026-04-11T08:38:00Z</time></trkpt><trkpt lat="41.9974583" lon="2.3246917"><ele>495.0</ele><time>2026-04-11T08:38:01Z</time></trkpt><trkpt lat="41.9973683" lon="2.3246217"><ele>495.0</ele><time>2026-04-11T08:38:02Z</time></trkpt><trkpt lat="41.9972767" lon="2.3245667"><ele>494.0</ele><time>2026-04-11T08:38:03Z</time></trkpt><trkpt lat="41.9971683" lon="2.324505"><ele>493.0</ele><time>2026-04-11T08:38:04Z</time></trkpt><trkpt lat="41.99708" lon="2.324445"><ele>492.0</ele><time>2026-04-11T08:38:05Z</time></trkpt><trkpt lat="41.9969983" lon="2.324395"><ele>491.0</ele><time>2026-04-11T08:38:06Z</time></trkpt><trkpt lat="41.996925" lon="2.3243517"><ele>490.0</ele><time>2026-04-11T08:38:07Z</time></trkpt><trkpt lat="41.9968517" lon="2.3243083"><ele>490.00000000000006</ele><time>2026-04-11T08:38:08Z</time></trkpt><trkpt lat="41.9967683" lon="2.3242817"><ele>490.0</ele><time>2026-04-11T08:38:09Z</time></trkpt><trkpt lat="41.9966883" lon="2.32426"><ele>490.0</ele><time>2026-04-11T08:38:10Z</time></trkpt><trkpt lat="41.9966067" lon="2.324235"><ele>490.0</ele><time>2026-04-11T08:38:11Z</time></trkpt><trkpt lat="41.9965183" lon="2.3242233"><ele>490.00000000000006</ele><time>2026-04-11T08:38:12Z</time></trkpt><trkpt lat="41.996425" lon="2.3242217"><ele>490.0</ele><time>2026-04-11T08:38:13Z</time></trkpt><trkpt lat="41.9963367" lon="2.3242117"><ele>490.1666666666667</ele><time>2026-04-11T08:38:14Z</time></trkpt><trkpt lat="41.9962533" lon="2.32419"><ele>490.33333333333337</ele><time>2026-04-11T08:38:15Z</time></trkpt><trkpt lat="41.9961767" lon="2.3241617"><ele>490.5</ele><time>2026-04-11T08:38:16.001Z</time></trkpt><trkpt lat="41.9960983" lon="2.32414"><ele>490.66666666666663</ele><time>2026-04-11T08:38:17Z</time></trkpt><trkpt lat="41.9960267" lon="2.3241167"><ele>490.8333333333333</ele><time>2026-04-11T08:38:18Z</time></trkpt><trkpt lat="41.995955" lon="2.324095"><ele>491.0</ele><time>2026-04-11T08:38:19Z</time></trkpt><trkpt lat="41.9958833" lon="2.3240733"><ele>491.3333333333333</ele><time>2026-04-11T08:38:20Z</time></trkpt><trkpt lat="41.9958067" lon="2.32405"><ele>491.66666666666663</ele><time>2026-04-11T08:38:21Z</time></trkpt><trkpt lat="41.9957283" lon="2.324025"><ele>492.0</ele><time>2026-04-11T08:38:22Z</time></trkpt><trkpt lat="41.9956517" lon="2.3240033"><ele>492.33333333333337</ele><time>2026-04-11T08:38:23Z</time></trkpt><trkpt lat="41.9955733" lon="2.3239767"><ele>492.6666666666667</ele><time>2026-04-11T08:38:24Z</time></trkpt><trkpt lat="41.995505" lon="2.32396"><ele>493.0</ele><time>2026-04-11T08:38:25Z</time></trkpt><trkpt lat="41.9954333" lon="2.3239417"><ele>493.00000000000006</ele><time>2026-04-11T08:38:26Z</time></trkpt><trkpt lat="41.9953583" lon="2.323915"><ele>493.0</ele><time>2026-04-11T08:38:27Z</time></trkpt><trkpt lat="41.995285" lon="2.3238867"><ele>493.0</ele><time>2026-04-11T08:38:28Z</time></trkpt><trkpt lat="41.9952117" lon="2.3238533"><ele>493.0</ele><time>2026-04-11T08:38:29Z</time></trkpt><trkpt lat="41.9951383" lon="2.3238233"><ele>493.00000000000006</ele><time>2026-04-11T08:38:30Z</time></trkpt><trkpt lat="41.9950617" lon="2.32379"><ele>493.0</ele><time>2026-04-11T08:38:31.001Z</time></trkpt><trkpt lat="41.99498" lon="2.32375"><ele>492.4</ele><time>2026-04-11T08:38:32Z</time></trkpt><trkpt lat="41.9948917" lon="2.3237033"><ele>491.79999999999995</ele><time>2026-04-11T08:38:33Z</time></trkpt><trkpt lat="41.9947983" lon="2.32365"><ele>491.2</ele><time>2026-04-11T08:38:34Z</time></trkpt><trkpt lat="41.994715" lon="2.3235917"><ele>490.6</ele><time>2026-04-11T08:38:35Z</time></trkpt><trkpt lat="41.9946283" lon="2.3235283"><ele>490.0</ele><time>2026-04-11T08:38:36Z</time></trkpt><trkpt lat="41.9945533" lon="2.3234733"><ele>490.00000000000006</ele><time>2026-04-11T08:38:37Z</time></trkpt><trkpt lat="41.9944833" lon="2.3234083"><ele>490.0</ele><time>2026-04-11T08:38:38Z</time></trkpt><trkpt lat="41.99442" lon="2.3233367"><ele>490.0</ele><time>2026-04-11T08:38:39Z</time></trkpt><trkpt lat="41.994355" lon="2.3232717"><ele>490.0</ele><time>2026-04-11T08:38:40Z</time></trkpt><trkpt lat="41.9942933" lon="2.3232133"><ele>490.00000000000006</ele><time>2026-04-11T08:38:41Z</time></trkpt><trkpt lat="41.9942333" lon="2.3231483"><ele>490.0</ele><time>2026-04-11T08:38:42Z</time></trkpt><trkpt lat="41.9941667" lon="2.32308"><ele>489.7142857142857</ele><time>2026-04-11T08:38:43Z</time></trkpt><trkpt lat="41.994095" lon="2.3230133"><ele>489.42857142857144</ele><time>2026-04-11T08:38:44Z</time></trkpt><trkpt lat="41.9940267" lon="2.3229633"><ele>489.1428571428571</ele><time>2026-04-11T08:38:45Z</time></trkpt><trkpt lat="41.99396" lon="2.322915"><ele>488.85714285714283</ele><time>2026-04-11T08:38:46Z</time></trkpt><trkpt lat="41.9939" lon="2.322885"><ele>488.57142857142856</ele><time>2026-04-11T08:38:47Z</time></trkpt><trkpt lat="41.99384" lon="2.3228567"><ele>488.2857142857142</ele><time>2026-04-11T08:38:48Z</time></trkpt><trkpt lat="41.9937667" lon="2.3228167"><ele>487.99999999999994</ele><time>2026-04-11T08:38:49Z</time></trkpt><trkpt lat="41.99369" lon="2.3227583"><ele>487.99999999999994</ele><time>2026-04-11T08:38:50Z</time></trkpt><trkpt lat="41.9936167" lon="2.3227067"><ele>488.0</ele><time>2026-04-11T08:38:51Z</time></trkpt><trkpt lat="41.9935483" lon="2.3226417"><ele>488.0</ele><time>2026-04-11T08:38:52.001Z</time></trkpt><trkpt lat="41.99349" lon="2.3225683"><ele>488.0</ele><time>2026-04-11T08:38:53Z</time></trkpt><trkpt lat="41.9934367" lon="2.3224867"><ele>487.99999999999994</ele><time>2026-04-11T08:38:54Z</time></trkpt><trkpt lat="41.993395" lon="2.3223867"><ele>488.0</ele><time>2026-04-11T08:38:55Z</time></trkpt><trkpt lat="41.993365" lon="2.322295"><ele>487.4</ele><time>2026-04-11T08:38:56Z</time></trkpt><trkpt lat="41.9933367" lon="2.3221967"><ele>486.79999999999995</ele><time>2026-04-11T08:38:57Z</time></trkpt><trkpt lat="41.993305" lon="2.32208"><ele>486.2</ele><time>2026-04-11T08:38:58Z</time></trkpt><trkpt lat="41.9932717" lon="2.3219533"><ele>485.6</ele><time>2026-04-11T08:38:59Z</time></trkpt><trkpt lat="41.9932317" lon="2.3218483"><ele>485.0</ele><time>2026-04-11T08:39:00Z</time></trkpt><trkpt lat="41.993185" lon="2.3217367"><ele>485.0</ele><time>2026-04-11T08:39:01Z</time></trkpt><trkpt lat="41.9931317" lon="2.3216117"><ele>485.0</ele><time>2026-04-11T08:39:02Z</time></trkpt><trkpt lat="41.9930767" lon="2.3215167"><ele>485.0</ele><time>2026-04-11T08:39:03Z</time></trkpt><trkpt lat="41.9930183" lon="2.3214433"><ele>485.0</ele><time>2026-04-11T08:39:04Z</time></trkpt><trkpt lat="41.9929433" lon="2.3213883"><ele>485.0</ele><time>2026-04-11T08:39:05Z</time></trkpt><trkpt lat="41.9928533" lon="2.3213433"><ele>484.0</ele><time>2026-04-11T08:39:06Z</time></trkpt><trkpt lat="41.99276" lon="2.3213083"><ele>483.0</ele><time>2026-04-11T08:39:07.001Z</time></trkpt><trkpt lat="41.99266" lon="2.321265"><ele>482.0</ele><time>2026-04-11T08:39:08Z</time></trkpt><trkpt lat="41.9925667" lon="2.3212317"><ele>481.0</ele><time>2026-04-11T08:39:09Z</time></trkpt><trkpt lat="41.9924817" lon="2.3212033"><ele>480.0</ele><time>2026-04-11T08:39:10Z</time></trkpt><trkpt lat="41.9924067" lon="2.321185"><ele>479.4</ele><time>2026-04-11T08:39:11Z</time></trkpt><trkpt lat="41.9923333" lon="2.321145"><ele>478.8</ele><time>2026-04-11T08:39:12Z</time></trkpt><trkpt lat="41.99227" lon="2.3210867"><ele>478.20000000000005</ele><time>2026-04-11T08:39:13Z</time></trkpt><trkpt lat="41.9922133" lon="2.3209867"><ele>477.6</ele><time>2026-04-11T08:39:14Z</time></trkpt><trkpt lat="41.9921533" lon="2.32087"><ele>477.0</ele><time>2026-04-11T08:39:15Z</time></trkpt><trkpt lat="41.9920883" lon="2.3207383"><ele>477.0</ele><time>2026-04-11T08:39:16Z</time></trkpt><trkpt lat="41.9920233" lon="2.3206067"><ele>477.00000000000006</ele><time>2026-04-11T08:39:17Z</time></trkpt><trkpt lat="41.991965" lon="2.3204867"><ele>477.00000000000006</ele><time>2026-04-11T08:39:18Z</time></trkpt><trkpt lat="41.99191" lon="2.32036"><ele>477.0</ele><time>2026-04-11T08:39:19Z</time></trkpt><trkpt lat="41.99185" lon="2.3202317"><ele>477.0</ele><time>2026-04-11T08:39:20Z</time></trkpt><trkpt lat="41.9917733" lon="2.3200967"><ele>477.25</ele><time>2026-04-11T08:39:21Z</time></trkpt><trkpt lat="41.9916817" lon="2.3199783"><ele>477.5</ele><time>2026-04-11T08:39:22Z</time></trkpt><trkpt lat="41.9915717" lon="2.3198767"><ele>477.75</ele><time>2026-04-11T08:39:23Z</time></trkpt><trkpt lat="41.9914567" lon="2.31976"><ele>478.0</ele><time>2026-04-11T08:39:24Z</time></trkpt><trkpt lat="41.9913533" lon="2.3196467"><ele>476.5</ele><time>2026-04-11T08:39:25Z</time></trkpt><trkpt lat="41.99126" lon="2.3195333"><ele>475.0</ele><time>2026-04-11T08:39:26Z</time></trkpt><trkpt lat="41.9911833" lon="2.319395"><ele>473.5</ele><time>2026-04-11T08:39:27Z</time></trkpt><trkpt lat="41.9911233" lon="2.3192433"><ele>472.0</ele><time>2026-04-11T08:39:28Z</time></trkpt><trkpt lat="41.9910783" lon="2.3191017"><ele>472.0</ele><time>2026-04-11T08:39:29Z</time></trkpt><trkpt lat="41.9910417" lon="2.318975"><ele>472.00000000000006</ele><time>2026-04-11T08:39:30Z</time></trkpt><trkpt lat="41.9909983" lon="2.3188667"><ele>472.00000000000006</ele><time>2026-04-11T08:39:31Z</time></trkpt><trkpt lat="41.9909483" lon="2.3187867"><ele>472.0</ele><time>2026-04-11T08:39:32Z</time></trkpt><trkpt lat="41.990895" lon="2.3186517"><ele>472.0</ele><time>2026-04-11T08:39:34Z</time></trkpt><trkpt lat="41.9908833" lon="2.31856"><ele>471.6666666666667</ele><time>2026-04-11T08:39:35Z</time></trkpt><trkpt lat="41.9908717" lon="2.3184583"><ele>471.33333333333337</ele><time>2026-04-11T08:39:36Z</time></trkpt><trkpt lat="41.9908483" lon="2.3183467"><ele>471.0</ele><time>2026-04-11T08:39:37Z</time></trkpt><trkpt lat="41.9908217" lon="2.3182383"><ele>470.66666666666663</ele><time>2026-04-11T08:39:38Z</time></trkpt><trkpt lat="41.990795" lon="2.3181417"><ele>470.3333333333333</ele><time>2026-04-11T08:39:39Z</time></trkpt><trkpt lat="41.9907683" lon="2.3180567"><ele>470.0</ele><time>2026-04-11T08:39:40Z</time></trkpt><trkpt lat="41.9907417" lon="2.31797"><ele>469.3333333333333</ele><time>2026-04-11T08:39:41Z</time></trkpt><trkpt lat="41.9906733" lon="2.3178433"><ele>468.66666666666663</ele><time>2026-04-11T08:39:43Z</time></trkpt><trkpt lat="41.9906233" lon="2.3177917"><ele>468.0</ele><time>2026-04-11T08:39:44Z</time></trkpt><trkpt lat="41.990565" lon="2.317745"><ele>467.33333333333337</ele><time>2026-04-11T08:39:45Z</time></trkpt><trkpt lat="41.9904983" lon="2.3177017"><ele>466.6666666666667</ele><time>2026-04-11T08:39:46Z</time></trkpt><trkpt lat="41.9904167" lon="2.31764"><ele>466.0</ele><time>2026-04-11T08:39:48Z</time></trkpt><trkpt lat="41.9903367" lon="2.317715"><ele>466.00000000000006</ele><time>2026-04-11T08:40:10Z</time></trkpt><trkpt lat="41.9903" lon="2.317815"><ele>466.0</ele><time>2026-04-11T08:40:11Z</time></trkpt><trkpt lat="41.9902617" lon="2.31791"><ele>466.0</ele><time>2026-04-11T08:40:12Z</time></trkpt><trkpt lat="41.99022" lon="2.3179983"><ele>466.0</ele><time>2026-04-11T08:40:13Z</time></trkpt><trkpt lat="41.9901517" lon="2.3180383"><ele>466.00000000000006</ele><time>2026-04-11T08:40:14Z</time></trkpt><trkpt lat="41.9900667" lon="2.3180767"><ele>466.0</ele><time>2026-04-11T08:40:15Z</time></trkpt><trkpt lat="41.9899833" lon="2.318105"><ele>466.1666666666667</ele><time>2026-04-11T08:40:16Z</time></trkpt><trkpt lat="41.98989" lon="2.3181"><ele>466.33333333333337</ele><time>2026-04-11T08:40:17.001Z</time></trkpt><trkpt lat="41.98981" lon="2.318125"><ele>466.5</ele><time>2026-04-11T08:40:18Z</time></trkpt><trkpt lat="41.9897417" lon="2.318155"><ele>466.66666666666663</ele><time>2026-04-11T08:40:19Z</time></trkpt><trkpt lat="41.9896783" lon="2.3181933"><ele>466.8333333333333</ele><time>2026-04-11T08:40:20Z</time></trkpt><trkpt lat="41.9896133" lon="2.3182433"><ele>467.0</ele><time>2026-04-11T08:40:21Z</time></trkpt><trkpt lat="41.9895533" lon="2.3182967"><ele>466.99999999999994</ele><time>2026-04-11T08:40:22Z</time></trkpt><trkpt lat="41.9894933" lon="2.3183533"><ele>467.0</ele><time>2026-04-11T08:40:23Z</time></trkpt><trkpt lat="41.989425" lon="2.3184067"><ele>467.0</ele><time>2026-04-11T08:40:24.001Z</time></trkpt><trkpt lat="41.9893417" lon="2.318465"><ele>467.0</ele><time>2026-04-11T08:40:25Z</time></trkpt><trkpt lat="41.9892617" lon="2.3185367"><ele>466.99999999999994</ele><time>2026-04-11T08:40:26Z</time></trkpt><trkpt lat="41.9891817" lon="2.31862"><ele>467.0</ele><time>2026-04-11T08:40:27Z</time></trkpt><trkpt lat="41.9891133" lon="2.31868"><ele>467.16666666666663</ele><time>2026-04-11T08:40:28Z</time></trkpt><trkpt lat="41.9890483" lon="2.3187333"><ele>467.3333333333333</ele><time>2026-04-11T08:40:29Z</time></trkpt><trkpt lat="41.9889917" lon="2.3187867"><ele>467.5</ele><time>2026-04-11T08:40:30.001Z</time></trkpt><trkpt lat="41.9889267" lon="2.31883"><ele>467.66666666666663</ele><time>2026-04-11T08:40:31Z</time></trkpt><trkpt lat="41.9888433" lon="2.3188783"><ele>467.8333333333333</ele><time>2026-04-11T08:40:32Z</time></trkpt><trkpt lat="41.9887583" lon="2.31894"><ele>468.0</ele><time>2026-04-11T08:40:33Z</time></trkpt><trkpt lat="41.9886667" lon="2.3190033"><ele>468.0</ele><time>2026-04-11T08:40:34Z</time></trkpt><trkpt lat="41.988595" lon="2.3190783"><ele>467.99999999999994</ele><time>2026-04-11T08:40:35.001Z</time></trkpt><trkpt lat="41.988525" lon="2.319165"><ele>467.99999999999994</ele><time>2026-04-11T08:40:36.001Z</time></trkpt><trkpt lat="41.9884583" lon="2.31926"><ele>468.0</ele><time>2026-04-11T08:40:37Z</time></trkpt><trkpt lat="41.9883883" lon="2.3193583"><ele>468.0</ele><time>2026-04-11T08:40:38Z</time></trkpt><trkpt lat="41.9883117" lon="2.319475"><ele>467.59999999999997</ele><time>2026-04-11T08:40:39Z</time></trkpt><trkpt lat="41.9882267" lon="2.3195933"><ele>467.19999999999993</ele><time>2026-04-11T08:40:40Z</time></trkpt><trkpt lat="41.9881583" lon="2.3196783"><ele>466.8</ele><time>2026-04-11T08:40:41Z</time></trkpt><trkpt lat="41.9880967" lon="2.3197467"><ele>466.4</ele><time>2026-04-11T08:40:42Z</time></trkpt><trkpt lat="41.9880267" lon="2.31981"><ele>466.0</ele><time>2026-04-11T08:40:43Z</time></trkpt><trkpt lat="41.9879567" lon="2.3198617"><ele>466.00000000000006</ele><time>2026-04-11T08:40:44Z</time></trkpt><trkpt lat="41.9878917" lon="2.319885"><ele>466.0</ele><time>2026-04-11T08:40:45Z</time></trkpt><trkpt lat="41.9878167" lon="2.3198867"><ele>466.0</ele><time>2026-04-11T08:40:46Z</time></trkpt><trkpt lat="41.9877317" lon="2.3198917"><ele>466.0</ele><time>2026-04-11T08:40:47Z</time></trkpt><trkpt lat="41.9876467" lon="2.3199067"><ele>466.00000000000006</ele><time>2026-04-11T08:40:48Z</time></trkpt><trkpt lat="41.9875417" lon="2.319935"><ele>466.0</ele><time>2026-04-11T08:40:49Z</time></trkpt><trkpt lat="41.9874467" lon="2.319955"><ele>466.4</ele><time>2026-04-11T08:40:50Z</time></trkpt><trkpt lat="41.9873533" lon="2.31996"><ele>466.8</ele><time>2026-04-11T08:40:51Z</time></trkpt><trkpt lat="41.98725" lon="2.3199517"><ele>467.19999999999993</ele><time>2026-04-11T08:40:51.999Z</time></trkpt><trkpt lat="41.987145" lon="2.31997"><ele>467.59999999999997</ele><time>2026-04-11T08:40:52.999Z</time></trkpt><trkpt lat="41.98704" lon="2.3199833"><ele>468.0</ele><time>2026-04-11T08:40:53.999Z</time></trkpt><trkpt lat="41.9869383" lon="2.3199767"><ele>468.0</ele><time>2026-04-11T08:40:54.999Z</time></trkpt><trkpt lat="41.98684" lon="2.3199417"><ele>467.99999999999994</ele><time>2026-04-11T08:40:55.999Z</time></trkpt><trkpt lat="41.9867583" lon="2.31988"><ele>467.99999999999994</ele><time>2026-04-11T08:40:56.999Z</time></trkpt><trkpt lat="41.9866917" lon="2.3198067"><ele>468.0</ele><time>2026-04-11T08:40:57.999Z</time></trkpt><trkpt lat="41.98663" lon="2.3197283"><ele>468.0</ele><time>2026-04-11T08:40:58.999Z</time></trkpt><trkpt lat="41.986565" lon="2.3196467"><ele>468.1666666666667</ele><time>2026-04-11T08:40:59.999Z</time></trkpt><trkpt lat="41.9864933" lon="2.3195717"><ele>468.33333333333337</ele><time>2026-04-11T08:41:00.999Z</time></trkpt><trkpt lat="41.9864267" lon="2.3195067"><ele>468.5</ele><time>2026-04-11T08:41:01.999Z</time></trkpt><trkpt lat="41.98635" lon="2.31945"><ele>468.6666666666667</ele><time>2026-04-11T08:41:02.999Z</time></trkpt><trkpt lat="41.9862933" lon="2.319395"><ele>468.83333333333337</ele><time>2026-04-11T08:41:03.999Z</time></trkpt><trkpt lat="41.9862183" lon="2.3193283"><ele>469.0</ele><time>2026-04-11T08:41:05.999Z</time></trkpt><trkpt lat="41.9861417" lon="2.319255"><ele>469.00000000000006</ele><time>2026-04-11T08:41:07.999Z</time></trkpt><trkpt lat="41.9860367" lon="2.31916"><ele>469.0</ele><time>2026-04-11T08:41:09.999Z</time></trkpt><trkpt lat="41.9859833" lon="2.3191067"><ele>469.0</ele><time>2026-04-11T08:41:10.999Z</time></trkpt><trkpt lat="41.98593" lon="2.3190567"><ele>469.0</ele><time>2026-04-11T08:41:11.999Z</time></trkpt><trkpt lat="41.9858267" lon="2.3189817"><ele>469.00000000000006</ele><time>2026-04-11T08:41:13.999Z</time></trkpt><trkpt lat="41.9857667" lon="2.31894"><ele>469.0</ele><time>2026-04-11T08:41:14.999Z</time></trkpt><trkpt lat="41.9857083" lon="2.3189033"><ele>469.6</ele><time>2026-04-11T08:41:15.999Z</time></trkpt><trkpt lat="41.9856283" lon="2.31884"><ele>470.2</ele><time>2026-04-11T08:41:17.999Z</time></trkpt><trkpt lat="41.9855667" lon="2.3187567"><ele>470.80000000000007</ele><time>2026-04-11T08:41:19.999Z</time></trkpt><trkpt lat="41.9855483" lon="2.31862"><ele>471.40000000000003</ele><time>2026-04-11T08:41:21.999Z</time></trkpt><trkpt lat="41.9855417" lon="2.3184617"><ele>472.0</ele><time>2026-04-11T08:41:23.999Z</time></trkpt><trkpt lat="41.98548" lon="2.3183083"><ele>472.00000000000006</ele><time>2026-04-11T08:41:25.999Z</time></trkpt><trkpt lat="41.9854317" lon="2.3182233"><ele>472.0</ele><time>2026-04-11T08:41:26.999Z</time></trkpt><trkpt lat="41.9853783" lon="2.3181333"><ele>472.0</ele><time>2026-04-11T08:41:27.999Z</time></trkpt><trkpt lat="41.9853267" lon="2.3180583"><ele>472.0</ele><time>2026-04-11T08:41:28.999Z</time></trkpt><trkpt lat="41.9852683" lon="2.318"><ele>472.00000000000006</ele><time>2026-04-11T08:41:29.999Z</time></trkpt><trkpt lat="41.98521" lon="2.3179383"><ele>472.0</ele><time>2026-04-11T08:41:30.999Z</time></trkpt><trkpt lat="41.985155" lon="2.317865"><ele>472.6666666666667</ele><time>2026-04-11T08:41:31.999Z</time></trkpt><trkpt lat="41.9850967" lon="2.3177883"><ele>473.33333333333337</ele><time>2026-04-11T08:41:32.999Z</time></trkpt><trkpt lat="41.9850383" lon="2.3177217"><ele>474.0</ele><time>2026-04-11T08:41:33.999Z</time></trkpt><trkpt lat="41.9849733" lon="2.3176733"><ele>474.66666666666663</ele><time>2026-04-11T08:41:34.999Z</time></trkpt><trkpt lat="41.984905" lon="2.3176283"><ele>475.3333333333333</ele><time>2026-04-11T08:41:35.999Z</time></trkpt><trkpt lat="41.984815" lon="2.31754"><ele>476.0</ele><time>2026-04-11T08:41:37.999Z</time></trkpt><trkpt lat="41.984745" lon="2.3174083"><ele>475.99999999999994</ele><time>2026-04-11T08:41:39.999Z</time></trkpt><trkpt lat="41.9847067" lon="2.317325"><ele>476.0</ele><time>2026-04-11T08:41:40.999Z</time></trkpt><trkpt lat="41.9846733" lon="2.317225"><ele>476.0</ele><time>2026-04-11T08:41:41.999Z</time></trkpt><trkpt lat="41.98464" lon="2.31713"><ele>476.0</ele><time>2026-04-11T08:41:42.999Z</time></trkpt><trkpt lat="41.9845983" lon="2.317035"><ele>475.99999999999994</ele><time>2026-04-11T08:41:44Z</time></trkpt><trkpt lat="41.9845517" lon="2.3169533"><ele>476.0</ele><time>2026-04-11T08:41:44.999Z</time></trkpt><trkpt lat="41.9845083" lon="2.316865"><ele>476.49999999999994</ele><time>2026-04-11T08:41:45.999Z</time></trkpt><trkpt lat="41.9844733" lon="2.3167767"><ele>477.0</ele><time>2026-04-11T08:41:46.999Z</time></trkpt><trkpt lat="41.9844467" lon="2.3166917"><ele>477.5</ele><time>2026-04-11T08:41:48Z</time></trkpt><trkpt lat="41.9844167" lon="2.3166167"><ele>478.0</ele><time>2026-04-11T08:41:48.999Z</time></trkpt><trkpt lat="41.98435" lon="2.3165067"><ele>478.49999999999994</ele><time>2026-04-11T08:41:50.999Z</time></trkpt><trkpt lat="41.9842533" lon="2.3163883"><ele>479.0</ele><time>2026-04-11T08:41:52.999Z</time></trkpt><trkpt lat="41.984185" lon="2.3163"><ele>479.6</ele><time>2026-04-11T08:41:53.999Z</time></trkpt><trkpt lat="41.9841167" lon="2.3162"><ele>480.2</ele><time>2026-04-11T08:41:54.999Z</time></trkpt><trkpt lat="41.98405" lon="2.3160833"><ele>480.80000000000007</ele><time>2026-04-11T08:41:55.999Z</time></trkpt><trkpt lat="41.9839933" lon="2.3159567"><ele>481.40000000000003</ele><time>2026-04-11T08:41:56.999Z</time></trkpt><trkpt lat="41.9839383" lon="2.31581"><ele>482.0</ele><time>2026-04-11T08:41:57.999Z</time></trkpt><trkpt lat="41.9838867" lon="2.3156717"><ele>481.20000000000005</ele><time>2026-04-11T08:41:58.999Z</time></trkpt><trkpt lat="41.9838367" lon="2.3155583"><ele>480.40000000000003</ele><time>2026-04-11T08:41:59.999Z</time></trkpt><trkpt lat="41.9837983" lon="2.3154233"><ele>479.59999999999997</ele><time>2026-04-11T08:42:00.999Z</time></trkpt><trkpt lat="41.9837667" lon="2.3152833"><ele>478.79999999999995</ele><time>2026-04-11T08:42:01.999Z</time></trkpt><trkpt lat="41.983725" lon="2.31514"><ele>478.0</ele><time>2026-04-11T08:42:02.999Z</time></trkpt><trkpt lat="41.9836867" lon="2.3150033"><ele>478.0</ele><time>2026-04-11T08:42:03.999Z</time></trkpt><trkpt lat="41.9836467" lon="2.3148717"><ele>477.99999999999994</ele><time>2026-04-11T08:42:05Z</time></trkpt><trkpt lat="41.9836217" lon="2.3147333"><ele>477.99999999999994</ele><time>2026-04-11T08:42:05.999Z</time></trkpt><trkpt lat="41.9835967" lon="2.3146017"><ele>478.0</ele><time>2026-04-11T08:42:06.999Z</time></trkpt><trkpt lat="41.9835717" lon="2.3144683"><ele>478.0</ele><time>2026-04-11T08:42:07.999Z</time></trkpt><trkpt lat="41.9835383" lon="2.314345"><ele>477.4</ele><time>2026-04-11T08:42:08.999Z</time></trkpt><trkpt lat="41.983505" lon="2.3142183"><ele>476.79999999999995</ele><time>2026-04-11T08:42:09.999Z</time></trkpt><trkpt lat="41.98348" lon="2.314085"><ele>476.2</ele><time>2026-04-11T08:42:10.999Z</time></trkpt><trkpt lat="41.9834567" lon="2.31395"><ele>475.6</ele><time>2026-04-11T08:42:11.999Z</time></trkpt><trkpt lat="41.9834283" lon="2.3138133"><ele>475.0</ele><time>2026-04-11T08:42:12.999Z</time></trkpt><trkpt lat="41.9833983" lon="2.3136717"><ele>474.2</ele><time>2026-04-11T08:42:13.999Z</time></trkpt><trkpt lat="41.983375" lon="2.3135233"><ele>473.4</ele><time>2026-04-11T08:42:14.999Z</time></trkpt><trkpt lat="41.9833517" lon="2.313395"><ele>472.6</ele><time>2026-04-11T08:42:15.999Z</time></trkpt><trkpt lat="41.983325" lon="2.3132867"><ele>471.8</ele><time>2026-04-11T08:42:16.999Z</time></trkpt><trkpt lat="41.9832967" lon="2.3131817"><ele>471.0</ele><time>2026-04-11T08:42:17.999Z</time></trkpt><trkpt lat="41.9832767" lon="2.3130817"><ele>470.6666666666667</ele><time>2026-04-11T08:42:18.999Z</time></trkpt><trkpt lat="41.98326" lon="2.3129867"><ele>470.33333333333337</ele><time>2026-04-11T08:42:19.999Z</time></trkpt><trkpt lat="41.98324" lon="2.3128967"><ele>470.0</ele><time>2026-04-11T08:42:20.999Z</time></trkpt><trkpt lat="41.98321" lon="2.3127833"><ele>469.6666666666667</ele><time>2026-04-11T08:42:21.999Z</time></trkpt><trkpt lat="41.9831767" lon="2.3126467"><ele>469.33333333333337</ele><time>2026-04-11T08:42:22.999Z</time></trkpt><trkpt lat="41.9831467" lon="2.3125217"><ele>469.0</ele><time>2026-04-11T08:42:23.999Z</time></trkpt><trkpt lat="41.9831083" lon="2.3124283"><ele>469.00000000000006</ele><time>2026-04-11T08:42:24.999Z</time></trkpt><trkpt lat="41.9830717" lon="2.3123367"><ele>469.0</ele><time>2026-04-11T08:42:25.999Z</time></trkpt><trkpt lat="41.98305" lon="2.3122433"><ele>469.0</ele><time>2026-04-11T08:42:26.999Z</time></trkpt><trkpt lat="41.9830483" lon="2.3121483"><ele>469.0</ele><time>2026-04-11T08:42:27.999Z</time></trkpt><trkpt lat="41.9830683" lon="2.3120467"><ele>469.00000000000006</ele><time>2026-04-11T08:42:28.999Z</time></trkpt><trkpt lat="41.983105" lon="2.31194"><ele>469.0</ele><time>2026-04-11T08:42:29.999Z</time></trkpt><trkpt lat="41.9831417" lon="2.311845"><ele>468.1666666666667</ele><time>2026-04-11T08:42:30.999Z</time></trkpt><trkpt lat="41.9831783" lon="2.311765"><ele>467.33333333333337</ele><time>2026-04-11T08:42:31.999Z</time></trkpt><trkpt lat="41.9832133" lon="2.3116883"><ele>466.5</ele><time>2026-04-11T08:42:33.999Z</time></trkpt><trkpt lat="41.9832967" lon="2.3116833"><ele>465.66666666666663</ele><time>2026-04-11T08:42:36.999Z</time></trkpt><trkpt lat="41.983365" lon="2.3117067"><ele>464.8333333333333</ele><time>2026-04-11T08:42:37.999Z</time></trkpt><trkpt lat="41.9834483" lon="2.31173"><ele>464.0</ele><time>2026-04-11T08:42:38.999Z</time></trkpt><trkpt lat="41.983535" lon="2.3117617"><ele>463.99999999999994</ele><time>2026-04-11T08:42:39.999Z</time></trkpt><trkpt lat="41.9836267" lon="2.31179"><ele>464.0</ele><time>2026-04-11T08:42:40.999Z</time></trkpt><trkpt lat="41.9837083" lon="2.3118217"><ele>464.0</ele><time>2026-04-11T08:42:41.999Z</time></trkpt><trkpt lat="41.9837817" lon="2.3118383"><ele>464.0</ele><time>2026-04-11T08:42:42.999Z</time></trkpt><trkpt lat="41.98385" lon="2.311845"><ele>463.99999999999994</ele><time>2026-04-11T08:42:43.999Z</time></trkpt><trkpt lat="41.983945" lon="2.311795"><ele>464.0</ele><time>2026-04-11T08:42:45.999Z</time></trkpt><trkpt lat="41.9839817" lon="2.3116367"><ele>464.0</ele><time>2026-04-11T08:42:48Z</time></trkpt><trkpt lat="41.984" lon="2.311515"><ele>464.0</ele><time>2026-04-11T08:42:48.999Z</time></trkpt><trkpt lat="41.9840167" lon="2.31139"><ele>464.0</ele><time>2026-04-11T08:42:49.999Z</time></trkpt><trkpt lat="41.9840333" lon="2.31127"><ele>464.0</ele><time>2026-04-11T08:42:51Z</time></trkpt><trkpt lat="41.9840533" lon="2.3111533"><ele>464.0</ele><time>2026-04-11T08:42:51.999Z</time></trkpt><trkpt lat="41.9840717" lon="2.3110417"><ele>463.0</ele><time>2026-04-11T08:42:52.999Z</time></trkpt><trkpt lat="41.9840883" lon="2.310905"><ele>462.0</ele><time>2026-04-11T08:42:53.999Z</time></trkpt><trkpt lat="41.9841083" lon="2.31078"><ele>461.0</ele><time>2026-04-11T08:42:54.999Z</time></trkpt><trkpt lat="41.984125" lon="2.3106633"><ele>460.0</ele><time>2026-04-11T08:42:55.999Z</time></trkpt><trkpt lat="41.984135" lon="2.3105467"><ele>459.0</ele><time>2026-04-11T08:42:56.999Z</time></trkpt><trkpt lat="41.984145" lon="2.310425"><ele>458.0</ele><time>2026-04-11T08:42:57.999Z</time></trkpt><trkpt lat="41.9841633" lon="2.3103017"><ele>457.0</ele><time>2026-04-11T08:42:58.999Z</time></trkpt><trkpt lat="41.9841717" lon="2.3101917"><ele>456.0</ele><time>2026-04-11T08:42:59.999Z</time></trkpt><trkpt lat="41.984185" lon="2.3101017"><ele>455.0</ele><time>2026-04-11T08:43:00.999Z</time></trkpt><trkpt lat="41.9842" lon="2.3099617"><ele>454.0</ele><time>2026-04-11T08:43:03Z</time></trkpt><trkpt lat="41.9841567" lon="2.3098783"><ele>453.0</ele><time>2026-04-11T08:43:04.999Z</time></trkpt><trkpt lat="41.984095" lon="2.3098367"><ele>453.0</ele><time>2026-04-11T08:43:05.999Z</time></trkpt><trkpt lat="41.98402" lon="2.3098083"><ele>453.0</ele><time>2026-04-11T08:43:07Z</time></trkpt><trkpt lat="41.98394" lon="2.3097967"><ele>453.0</ele><time>2026-04-11T08:43:07.999Z</time></trkpt><trkpt lat="41.9838567" lon="2.3097833"><ele>453.0</ele><time>2026-04-11T08:43:08.999Z</time></trkpt><trkpt lat="41.9837667" lon="2.3097733"><ele>453.0</ele><time>2026-04-11T08:43:09.999Z</time></trkpt><trkpt lat="41.9836833" lon="2.3097583"><ele>453.0</ele><time>2026-04-11T08:43:10.999Z</time></trkpt><trkpt lat="41.9836183" lon="2.3097583"><ele>452.5</ele><time>2026-04-11T08:43:11.999Z</time></trkpt><trkpt lat="41.98355" lon="2.3097417"><ele>452.0</ele><time>2026-04-11T08:43:12.999Z</time></trkpt><trkpt lat="41.9834683" lon="2.30972"><ele>451.5</ele><time>2026-04-11T08:43:14Z</time></trkpt><trkpt lat="41.983385" lon="2.3096983"><ele>451.0</ele><time>2026-04-11T08:43:14.999Z</time></trkpt><trkpt lat="41.9833083" lon="2.3096783"><ele>450.5</ele><time>2026-04-11T08:43:15.999Z</time></trkpt><trkpt lat="41.9832367" lon="2.3096583"><ele>450.0</ele><time>2026-04-11T08:43:16.999Z</time></trkpt><trkpt lat="41.9831683" lon="2.3096233"><ele>449.8</ele><time>2026-04-11T08:43:17.999Z</time></trkpt><trkpt lat="41.983105" lon="2.3095917"><ele>449.6</ele><time>2026-04-11T08:43:18.999Z</time></trkpt><trkpt lat="41.9830133" lon="2.3095283"><ele>449.4</ele><time>2026-04-11T08:43:20.999Z</time></trkpt><trkpt lat="41.9829567" lon="2.3093467"><ele>449.2</ele><time>2026-04-11T08:43:22.999Z</time></trkpt><trkpt lat="41.9829283" lon="2.3092333"><ele>449.0</ele><time>2026-04-11T08:43:23.999Z</time></trkpt><trkpt lat="41.982895" lon="2.3091133"><ele>449.0</ele><time>2026-04-11T08:43:24.999Z</time></trkpt><trkpt lat="41.9828733" lon="2.3089983"><ele>449.0</ele><time>2026-04-11T08:43:25.999Z</time></trkpt><trkpt lat="41.9828583" lon="2.3088917"><ele>449.0</ele><time>2026-04-11T08:43:26.999Z</time></trkpt><trkpt lat="41.98285" lon="2.3087817"><ele>449.0</ele><time>2026-04-11T08:43:27.999Z</time></trkpt><trkpt lat="41.982825" lon="2.3086317"><ele>449.0</ele><time>2026-04-11T08:43:29.999Z</time></trkpt><trkpt lat="41.98286" lon="2.30852"><ele>448.16666666666663</ele><time>2026-04-11T08:43:31.999Z</time></trkpt><trkpt lat="41.9829383" lon="2.3084533"><ele>447.3333333333333</ele><time>2026-04-11T08:43:33.999Z</time></trkpt><trkpt lat="41.983" lon="2.3084133"><ele>446.5</ele><time>2026-04-11T08:43:35.999Z</time></trkpt><trkpt lat="41.98307" lon="2.3083317"><ele>445.66666666666663</ele><time>2026-04-11T08:44:52.999Z</time></trkpt><trkpt lat="41.9831533" lon="2.30828"><ele>444.8333333333333</ele><time>2026-04-11T08:44:54.999Z</time></trkpt><trkpt lat="41.983185" lon="2.3082017"><ele>444.0</ele><time>2026-04-11T08:44:57Z</time></trkpt><trkpt lat="41.98314" lon="2.3081317"><ele>444.0</ele><time>2026-04-11T08:44:58.999Z</time></trkpt><trkpt lat="41.9830667" lon="2.30813"><ele>444.0</ele><time>2026-04-11T08:44:59.999Z</time></trkpt><trkpt lat="41.982985" lon="2.3081267"><ele>444.0</ele><time>2026-04-11T08:45:00.999Z</time></trkpt><trkpt lat="41.9828883" lon="2.3081217"><ele>444.0</ele><time>2026-04-11T08:45:01.999Z</time></trkpt><trkpt lat="41.982795" lon="2.3081033"><ele>444.0</ele><time>2026-04-11T08:45:02.999Z</time></trkpt><trkpt lat="41.9826983" lon="2.3080817"><ele>444.0</ele><time>2026-04-11T08:45:03.999Z</time></trkpt><trkpt lat="41.9826033" lon="2.30806"><ele>441.6</ele><time>2026-04-11T08:45:04.999Z</time></trkpt><trkpt lat="41.9825067" lon="2.3080283"><ele>439.2</ele><time>2026-04-11T08:45:05.999Z</time></trkpt><trkpt lat="41.982415" lon="2.30798"><ele>436.80000000000007</ele><time>2026-04-11T08:45:06.999Z</time></trkpt><trkpt lat="41.982335" lon="2.30789"><ele>434.40000000000003</ele><time>2026-04-11T08:45:07.999Z</time></trkpt><trkpt lat="41.9822617" lon="2.30779"><ele>432.0</ele><time>2026-04-11T08:45:08.999Z</time></trkpt><trkpt lat="41.9821883" lon="2.3076783"><ele>432.0</ele><time>2026-04-11T08:45:09.999Z</time></trkpt><trkpt lat="41.9821117" lon="2.30757"><ele>432.0</ele><time>2026-04-11T08:45:10.999Z</time></trkpt><trkpt lat="41.98204" lon="2.30745"><ele>432.0</ele><time>2026-04-11T08:45:11.999Z</time></trkpt><trkpt lat="41.98196" lon="2.3073283"><ele>432.0</ele><time>2026-04-11T08:45:12.999Z</time></trkpt><trkpt lat="41.98188" lon="2.3072133"><ele>431.6</ele><time>2026-04-11T08:45:13.999Z</time></trkpt><trkpt lat="41.9818067" lon="2.30711"><ele>431.20000000000005</ele><time>2026-04-11T08:45:14.999Z</time></trkpt><trkpt lat="41.9817367" lon="2.3070117"><ele>430.8</ele><time>2026-04-11T08:45:15.999Z</time></trkpt><trkpt lat="41.981675" lon="2.306905"><ele>430.4</ele><time>2026-04-11T08:45:16.999Z</time></trkpt><trkpt lat="41.9816083" lon="2.3067983"><ele>430.0</ele><time>2026-04-11T08:45:17.999Z</time></trkpt><trkpt lat="41.98155" lon="2.30669"><ele>430.0</ele><time>2026-04-11T08:45:18.999Z</time></trkpt><trkpt lat="41.9814867" lon="2.3065833"><ele>430.0</ele><time>2026-04-11T08:45:19.999Z</time></trkpt><trkpt lat="41.98142" lon="2.30648"><ele>430.0</ele><time>2026-04-11T08:45:20.999Z</time></trkpt><trkpt lat="41.9813467" lon="2.3063883"><ele>430.0</ele><time>2026-04-11T08:45:21.999Z</time></trkpt><trkpt lat="41.9812667" lon="2.3063183"><ele>430.0</ele><time>2026-04-11T08:45:22.999Z</time></trkpt><trkpt lat="41.9811783" lon="2.3062717"><ele>430.6</ele><time>2026-04-11T08:45:23.999Z</time></trkpt><trkpt lat="41.98108" lon="2.306255"><ele>431.2</ele><time>2026-04-11T08:45:24.999Z</time></trkpt><trkpt lat="41.9809783" lon="2.3062567"><ele>431.79999999999995</ele><time>2026-04-11T08:45:25.999Z</time></trkpt><trkpt lat="41.9808733" lon="2.3062683"><ele>432.4</ele><time>2026-04-11T08:45:26.999Z</time></trkpt><trkpt lat="41.9807733" lon="2.3062983"><ele>433.0</ele><time>2026-04-11T08:45:27.999Z</time></trkpt><trkpt lat="41.9806783" lon="2.3063283"><ele>434.0</ele><time>2026-04-11T08:45:28.999Z</time></trkpt><trkpt lat="41.9805833" lon="2.3063583"><ele>434.99999999999994</ele><time>2026-04-11T08:45:29.999Z</time></trkpt><trkpt lat="41.9804867" lon="2.3063867"><ele>435.99999999999994</ele><time>2026-04-11T08:45:30.999Z</time></trkpt><trkpt lat="41.9803917" lon="2.30641"><ele>437.0</ele><time>2026-04-11T08:45:32Z</time></trkpt><trkpt lat="41.9803" lon="2.3064333"><ele>438.0</ele><time>2026-04-11T08:45:32.999Z</time></trkpt><trkpt lat="41.9802083" lon="2.306455"><ele>438.0</ele><time>2026-04-11T08:45:33.999Z</time></trkpt><trkpt lat="41.9801083" lon="2.3064733"><ele>437.99999999999994</ele><time>2026-04-11T08:45:34.999Z</time></trkpt><trkpt lat="41.9800083" lon="2.3064917"><ele>437.99999999999994</ele><time>2026-04-11T08:45:35.999Z</time></trkpt><trkpt lat="41.9799017" lon="2.3065217"><ele>438.0</ele><time>2026-04-11T08:45:36.999Z</time></trkpt><trkpt lat="41.9797983" lon="2.3065467"><ele>438.0</ele><time>2026-04-11T08:45:37.999Z</time></trkpt><trkpt lat="41.9796917" lon="2.3065633"><ele>439.0</ele><time>2026-04-11T08:45:38.999Z</time></trkpt><trkpt lat="41.9795833" lon="2.306575"><ele>439.99999999999994</ele><time>2026-04-11T08:45:39.999Z</time></trkpt><trkpt lat="41.9794783" lon="2.3065983"><ele>440.99999999999994</ele><time>2026-04-11T08:45:40.999Z</time></trkpt><trkpt lat="41.97937" lon="2.30662"><ele>442.0</ele><time>2026-04-11T08:45:41.999Z</time></trkpt><trkpt lat="41.9792667" lon="2.30663"><ele>443.0</ele><time>2026-04-11T08:45:42.999Z</time></trkpt><trkpt lat="41.9791617" lon="2.3066383"><ele>443.59999999999997</ele><time>2026-04-11T08:45:43.999Z</time></trkpt><trkpt lat="41.97906" lon="2.3066367"><ele>444.19999999999993</ele><time>2026-04-11T08:45:44.999Z</time></trkpt><trkpt lat="41.978955" lon="2.30663"><ele>444.8</ele><time>2026-04-11T08:45:45.999Z</time></trkpt><trkpt lat="41.97885" lon="2.3066083"><ele>445.4</ele><time>2026-04-11T08:45:46.999Z</time></trkpt><trkpt lat="41.97875" lon="2.30657"><ele>446.0</ele><time>2026-04-11T08:45:47.999Z</time></trkpt><trkpt lat="41.9786517" lon="2.3065083"><ele>446.0</ele><time>2026-04-11T08:45:48.999Z</time></trkpt><trkpt lat="41.9785783" lon="2.3064167"><ele>446.0</ele><time>2026-04-11T08:45:49.999Z</time></trkpt><trkpt lat="41.9784867" lon="2.3063467"><ele>446.0</ele><time>2026-04-11T08:45:50.999Z</time></trkpt><trkpt lat="41.9783917" lon="2.3062567"><ele>446.0</ele><time>2026-04-11T08:45:51.999Z</time></trkpt><trkpt lat="41.9782967" lon="2.3061617"><ele>446.0</ele><time>2026-04-11T08:45:52.999Z</time></trkpt><trkpt lat="41.9782" lon="2.3060717"><ele>446.0</ele><time>2026-04-11T08:45:53.999Z</time></trkpt><trkpt lat="41.9781067" lon="2.305985"><ele>446.0</ele><time>2026-04-11T08:45:54.999Z</time></trkpt><trkpt lat="41.9780233" lon="2.305895"><ele>446.0</ele><time>2026-04-11T08:45:55.999Z</time></trkpt><trkpt lat="41.977945" lon="2.3058017"><ele>446.0</ele><time>2026-04-11T08:45:56.999Z</time></trkpt><trkpt lat="41.9778867" lon="2.3057017"><ele>446.0</ele><time>2026-04-11T08:45:57.999Z</time></trkpt><trkpt lat="41.97783" lon="2.305605"><ele>445.8333333333333</ele><time>2026-04-11T08:45:58.999Z</time></trkpt><trkpt lat="41.9777767" lon="2.3055183"><ele>445.66666666666663</ele><time>2026-04-11T08:46:00Z</time></trkpt><trkpt lat="41.9777217" lon="2.3054333"><ele>445.5</ele><time>2026-04-11T08:46:00.999Z</time></trkpt><trkpt lat="41.9776667" lon="2.3053533"><ele>445.33333333333337</ele><time>2026-04-11T08:46:02Z</time></trkpt><trkpt lat="41.9776117" lon="2.3052783"><ele>445.1666666666667</ele><time>2026-04-11T08:46:02.999Z</time></trkpt><trkpt lat="41.97756" lon="2.3052017"><ele>445.0</ele><time>2026-04-11T08:46:03.999Z</time></trkpt><trkpt lat="41.9775167" lon="2.3051267"><ele>445.0</ele><time>2026-04-11T08:46:04.999Z</time></trkpt><trkpt lat="41.977465" lon="2.3050583"><ele>445.0</ele><time>2026-04-11T08:46:05.999Z</time></trkpt><trkpt lat="41.9774083" lon="2.3049983"><ele>445.0</ele><time>2026-04-11T08:46:06.999Z</time></trkpt><trkpt lat="41.9773517" lon="2.3049533"><ele>445.0</ele><time>2026-04-11T08:46:07.999Z</time></trkpt><trkpt lat="41.97729" lon="2.3049083"><ele>445.0</ele><time>2026-04-11T08:46:08.999Z</time></trkpt><trkpt lat="41.97723" lon="2.3048667"><ele>445.0</ele><time>2026-04-11T08:46:09.999Z</time></trkpt><trkpt lat="41.97717" lon="2.3048283"><ele>445.0</ele><time>2026-04-11T08:46:10.999Z</time></trkpt><trkpt lat="41.9771067" lon="2.3047833"><ele>445.33333333333337</ele><time>2026-04-11T08:46:11.999Z</time></trkpt><trkpt lat="41.9770433" lon="2.3047367"><ele>445.6666666666667</ele><time>2026-04-11T08:46:12.999Z</time></trkpt><trkpt lat="41.97698" lon="2.3046883"><ele>446.0</ele><time>2026-04-11T08:46:13.999Z</time></trkpt><trkpt lat="41.97692" lon="2.304645"><ele>446.33333333333337</ele><time>2026-04-11T08:46:14.999Z</time></trkpt><trkpt lat="41.9768633" lon="2.304605"><ele>446.6666666666667</ele><time>2026-04-11T08:46:15.999Z</time></trkpt><trkpt lat="41.976755" lon="2.3045167"><ele>447.0</ele><time>2026-04-11T08:46:17.999Z</time></trkpt><trkpt lat="41.9766967" lon="2.3044733"><ele>446.8333333333333</ele><time>2026-04-11T08:46:18.999Z</time></trkpt><trkpt lat="41.97663" lon="2.3044067"><ele>446.66666666666663</ele><time>2026-04-11T08:46:19.999Z</time></trkpt><trkpt lat="41.9765583" lon="2.3043567"><ele>446.5</ele><time>2026-04-11T08:46:20.999Z</time></trkpt><trkpt lat="41.9764767" lon="2.3043083"><ele>446.3333333333333</ele><time>2026-04-11T08:46:21.999Z</time></trkpt><trkpt lat="41.9763967" lon="2.304255"><ele>446.16666666666663</ele><time>2026-04-11T08:46:22.999Z</time></trkpt><trkpt lat="41.97632" lon="2.3042033"><ele>446.0</ele><time>2026-04-11T08:46:23.999Z</time></trkpt><trkpt lat="41.9762517" lon="2.304155"><ele>445.99999999999994</ele><time>2026-04-11T08:46:24.999Z</time></trkpt><trkpt lat="41.976185" lon="2.3041083"><ele>446.0</ele><time>2026-04-11T08:46:25.999Z</time></trkpt><trkpt lat="41.976125" lon="2.304065"><ele>446.0</ele><time>2026-04-11T08:46:26.999Z</time></trkpt><trkpt lat="41.9760517" lon="2.304005"><ele>446.0</ele><time>2026-04-11T08:46:28.999Z</time></trkpt><trkpt lat="41.9759667" lon="2.3040083"><ele>445.99999999999994</ele><time>2026-04-11T08:46:32.999Z</time></trkpt><trkpt lat="41.9759183" lon="2.3040833"><ele>446.0</ele><time>2026-04-11T08:46:33.999Z</time></trkpt><trkpt lat="41.97588" lon="2.3041833"><ele>446.16666666666663</ele><time>2026-04-11T08:46:34.999Z</time></trkpt><trkpt lat="41.9758383" lon="2.304295"><ele>446.3333333333333</ele><time>2026-04-11T08:46:35.999Z</time></trkpt><trkpt lat="41.9758017" lon="2.304405"><ele>446.5</ele><time>2026-04-11T08:46:36.999Z</time></trkpt><trkpt lat="41.9757683" lon="2.30452"><ele>446.66666666666663</ele><time>2026-04-11T08:46:37.999Z</time></trkpt><trkpt lat="41.9757333" lon="2.3046267"><ele>446.8333333333333</ele><time>2026-04-11T08:46:38.999Z</time></trkpt><trkpt lat="41.9756983" lon="2.30473"><ele>447.0</ele><time>2026-04-11T08:46:39.999Z</time></trkpt><trkpt lat="41.9756583" lon="2.3048283"><ele>447.3333333333333</ele><time>2026-04-11T08:46:40.999Z</time></trkpt><trkpt lat="41.975615" lon="2.3049233"><ele>447.66666666666663</ele><time>2026-04-11T08:46:41.999Z</time></trkpt><trkpt lat="41.9755717" lon="2.3050233"><ele>448.0</ele><time>2026-04-11T08:46:42.999Z</time></trkpt><trkpt lat="41.97553" lon="2.3051233"><ele>448.3333333333333</ele><time>2026-04-11T08:46:43.999Z</time></trkpt><trkpt lat="41.9754917" lon="2.3052167"><ele>448.66666666666663</ele><time>2026-04-11T08:46:44.999Z</time></trkpt><trkpt lat="41.9754517" lon="2.3053067"><ele>449.0</ele><time>2026-04-11T08:46:45.999Z</time></trkpt><trkpt lat="41.9754117" lon="2.3053917"><ele>448.99999999999994</ele><time>2026-04-11T08:46:46.999Z</time></trkpt><trkpt lat="41.9753517" lon="2.3055117"><ele>449.0</ele><time>2026-04-11T08:46:48.999Z</time></trkpt><trkpt lat="41.975275" lon="2.3055283"><ele>449.0</ele><time>2026-04-11T08:46:51.999Z</time></trkpt><trkpt lat="41.975175" lon="2.3054867"><ele>449.0</ele><time>2026-04-11T08:46:53.999Z</time></trkpt><trkpt lat="41.975105" lon="2.305465"><ele>448.99999999999994</ele><time>2026-04-11T08:46:54.999Z</time></trkpt><trkpt lat="41.9750333" lon="2.305445"><ele>449.0</ele><time>2026-04-11T08:46:56Z</time></trkpt><trkpt lat="41.97493" lon="2.3054217"><ele>449.3333333333333</ele><time>2026-04-11T08:46:57.999Z</time></trkpt><trkpt lat="41.974855" lon="2.30541"><ele>449.66666666666663</ele><time>2026-04-11T08:47:04.999Z</time></trkpt><trkpt lat="41.9747733" lon="2.30545"><ele>450.0</ele><time>2026-04-11T08:47:07.999Z</time></trkpt><trkpt lat="41.974685" lon="2.3054717"><ele>450.33333333333337</ele><time>2026-04-11T08:47:10Z</time></trkpt><trkpt lat="41.9746217" lon="2.305445"><ele>450.6666666666667</ele><time>2026-04-11T08:47:11Z</time></trkpt><trkpt lat="41.9745483" lon="2.30541"><ele>451.0</ele><time>2026-04-11T08:47:11.999Z</time></trkpt><trkpt lat="41.9744467" lon="2.3053517"><ele>451.0</ele><time>2026-04-11T08:47:12.999Z</time></trkpt><trkpt lat="41.9743417" lon="2.3052833"><ele>451.0</ele><time>2026-04-11T08:47:13.999Z</time></trkpt><trkpt lat="41.97424" lon="2.3052167"><ele>451.0</ele><time>2026-04-11T08:47:14.999Z</time></trkpt><trkpt lat="41.9741283" lon="2.3051533"><ele>451.0</ele><time>2026-04-11T08:47:15.999Z</time></trkpt><trkpt lat="41.9740167" lon="2.3050883"><ele>452.0</ele><time>2026-04-11T08:47:16.999Z</time></trkpt><trkpt lat="41.9739067" lon="2.30502"><ele>453.0</ele><time>2026-04-11T08:47:17.999Z</time></trkpt><trkpt lat="41.9738083" lon="2.3049517"><ele>454.0</ele><time>2026-04-11T08:47:18.999Z</time></trkpt><trkpt lat="41.9737167" lon="2.30488"><ele>455.0</ele><time>2026-04-11T08:47:19.999Z</time></trkpt><trkpt lat="41.97364" lon="2.3048233"><ele>456.0</ele><time>2026-04-11T08:47:20.999Z</time></trkpt><trkpt lat="41.973575" lon="2.3047833"><ele>456.0</ele><time>2026-04-11T08:47:21.999Z</time></trkpt><trkpt lat="41.9734667" lon="2.3048"><ele>456.0</ele><time>2026-04-11T08:47:23.999Z</time></trkpt><trkpt lat="41.9734317" lon="2.3049317"><ele>456.0</ele><time>2026-04-11T08:47:25.999Z</time></trkpt><trkpt lat="41.9734383" lon="2.3050233"><ele>456.0</ele><time>2026-04-11T08:47:26.999Z</time></trkpt><trkpt lat="41.9734383" lon="2.3051233"><ele>456.0</ele><time>2026-04-11T08:47:27.999Z</time></trkpt><trkpt lat="41.97343" lon="2.3052317"><ele>456.0</ele><time>2026-04-11T08:47:28.999Z</time></trkpt><trkpt lat="41.9734067" lon="2.3053433"><ele>456.0</ele><time>2026-04-11T08:47:29.999Z</time></trkpt><trkpt lat="41.9733817" lon="2.3054617"><ele>456.0</ele><time>2026-04-11T08:47:30.999Z</time></trkpt><trkpt lat="41.9733467" lon="2.3055933"><ele>456.0</ele><time>2026-04-11T08:47:32Z</time></trkpt><trkpt lat="41.9732983" lon="2.3057217"><ele>456.0</ele><time>2026-04-11T08:47:32.999Z</time></trkpt><trkpt lat="41.9732383" lon="2.305835"><ele>456.0</ele><time>2026-04-11T08:47:33.999Z</time></trkpt><trkpt lat="41.9731683" lon="2.3059267"><ele>457.20000000000005</ele><time>2026-04-11T08:47:34.999Z</time></trkpt><trkpt lat="41.9730883" lon="2.3060117"><ele>458.40000000000003</ele><time>2026-04-11T08:47:35.999Z</time></trkpt><trkpt lat="41.9730117" lon="2.3060883"><ele>459.6</ele><time>2026-04-11T08:47:36.999Z</time></trkpt><trkpt lat="41.9729283" lon="2.3061417"><ele>460.8</ele><time>2026-04-11T08:47:37.999Z</time></trkpt><trkpt lat="41.9728233" lon="2.3061917"><ele>462.0</ele><time>2026-04-11T08:47:38.999Z</time></trkpt><trkpt lat="41.9727283" lon="2.306205"><ele>462.0</ele><time>2026-04-11T08:47:39.999Z</time></trkpt><trkpt lat="41.9726267" lon="2.3062133"><ele>462.00000000000006</ele><time>2026-04-11T08:47:40.999Z</time></trkpt><trkpt lat="41.9725317" lon="2.3062167"><ele>462.00000000000006</ele><time>2026-04-11T08:47:41.999Z</time></trkpt><trkpt lat="41.972445" lon="2.3062133"><ele>462.0</ele><time>2026-04-11T08:47:43Z</time></trkpt><trkpt lat="41.9723583" lon="2.3061983"><ele>462.0</ele><time>2026-04-11T08:47:43.999Z</time></trkpt><trkpt lat="41.972255" lon="2.3061733"><ele>461.40000000000003</ele><time>2026-04-11T08:47:44.999Z</time></trkpt><trkpt lat="41.9721417" lon="2.30615"><ele>460.80000000000007</ele><time>2026-04-11T08:47:45.999Z</time></trkpt><trkpt lat="41.97203" lon="2.306125"><ele>460.2</ele><time>2026-04-11T08:47:46.999Z</time></trkpt><trkpt lat="41.9719283" lon="2.3061117"><ele>459.6</ele><time>2026-04-11T08:47:47.999Z</time></trkpt><trkpt lat="41.9718233" lon="2.3061133"><ele>459.0</ele><time>2026-04-11T08:47:48.999Z</time></trkpt><trkpt lat="41.9717217" lon="2.30612"><ele>459.79999999999995</ele><time>2026-04-11T08:47:49.999Z</time></trkpt><trkpt lat="41.9716167" lon="2.3061383"><ele>460.59999999999997</ele><time>2026-04-11T08:47:51Z</time></trkpt><trkpt lat="41.971515" lon="2.306155"><ele>461.4</ele><time>2026-04-11T08:47:52Z</time></trkpt><trkpt lat="41.9714117" lon="2.306145"><ele>462.2</ele><time>2026-04-11T08:47:52.999Z</time></trkpt><trkpt lat="41.97131" lon="2.3061283"><ele>463.0</ele><time>2026-04-11T08:47:53.999Z</time></trkpt><trkpt lat="41.9712117" lon="2.3061233"><ele>463.0</ele><time>2026-04-11T08:47:54.999Z</time></trkpt><trkpt lat="41.9711033" lon="2.3061083"><ele>462.99999999999994</ele><time>2026-04-11T08:47:55.999Z</time></trkpt><trkpt lat="41.9709983" lon="2.306095"><ele>462.99999999999994</ele><time>2026-04-11T08:47:56.999Z</time></trkpt><trkpt lat="41.970895" lon="2.30608"><ele>463.0</ele><time>2026-04-11T08:47:57.999Z</time></trkpt><trkpt lat="41.9707933" lon="2.3060633"><ele>463.0</ele><time>2026-04-11T08:47:58.999Z</time></trkpt><trkpt lat="41.9706917" lon="2.3060433"><ele>462.2</ele><time>2026-04-11T08:47:59.999Z</time></trkpt><trkpt lat="41.9705883" lon="2.306025"><ele>461.4</ele><time>2026-04-11T08:48:01Z</time></trkpt><trkpt lat="41.9704867" lon="2.30601"><ele>460.59999999999997</ele><time>2026-04-11T08:48:01.999Z</time></trkpt><trkpt lat="41.9703817" lon="2.3060017"><ele>459.79999999999995</ele><time>2026-04-11T08:48:02.999Z</time></trkpt><trkpt lat="41.9702783" lon="2.3059867"><ele>459.0</ele><time>2026-04-11T08:48:03.999Z</time></trkpt><trkpt lat="41.970185" lon="2.30598"><ele>459.0</ele><time>2026-04-11T08:48:04.999Z</time></trkpt><trkpt lat="41.9700967" lon="2.30597"><ele>459.0</ele><time>2026-04-11T08:48:05.999Z</time></trkpt><trkpt lat="41.9700133" lon="2.30596"><ele>459.0</ele><time>2026-04-11T08:48:06.999Z</time></trkpt><trkpt lat="41.9699467" lon="2.3059633"><ele>459.0</ele><time>2026-04-11T08:48:07.999Z</time></trkpt><trkpt lat="41.9698317" lon="2.3060617"><ele>459.0</ele><time>2026-04-11T08:48:09.999Z</time></trkpt><trkpt lat="41.96976" lon="2.3061467"><ele>459.5</ele><time>2026-04-11T08:48:10.999Z</time></trkpt><trkpt lat="41.969685" lon="2.3062317"><ele>460.0</ele><time>2026-04-11T08:48:11.999Z</time></trkpt><trkpt lat="41.9696117" lon="2.30631"><ele>460.5</ele><time>2026-04-11T08:48:12.999Z</time></trkpt><trkpt lat="41.96955" lon="2.3063733"><ele>461.0</ele><time>2026-04-11T08:48:14Z</time></trkpt><trkpt lat="41.9694867" lon="2.3064367"><ele>461.5</ele><time>2026-04-11T08:48:14.999Z</time></trkpt><trkpt lat="41.9694267" lon="2.3064967"><ele>462.0</ele><time>2026-04-11T08:48:15.999Z</time></trkpt><trkpt lat="41.96937" lon="2.3065417"><ele>462.6666666666667</ele><time>2026-04-11T08:48:16.999Z</time></trkpt><trkpt lat="41.96932" lon="2.3065967"><ele>463.33333333333337</ele><time>2026-04-11T08:48:17.999Z</time></trkpt><trkpt lat="41.96924" lon="2.3067067"><ele>464.0</ele><time>2026-04-11T08:48:19.999Z</time></trkpt><trkpt lat="41.9691883" lon="2.3067583"><ele>464.6666666666667</ele><time>2026-04-11T08:48:20.999Z</time></trkpt><trkpt lat="41.9690633" lon="2.3067933"><ele>465.33333333333337</ele><time>2026-04-11T08:48:22.999Z</time></trkpt><trkpt lat="41.9689967" lon="2.3068133"><ele>466.0</ele><time>2026-04-11T08:48:23.999Z</time></trkpt><trkpt lat="41.968935" lon="2.3068483"><ele>466.7142857142857</ele><time>2026-04-11T08:48:24.999Z</time></trkpt><trkpt lat="41.9688617" lon="2.306875"><ele>467.42857142857144</ele><time>2026-04-11T08:48:25.999Z</time></trkpt><trkpt lat="41.9687917" lon="2.3068917"><ele>468.14285714285717</ele><time>2026-04-11T08:48:26.999Z</time></trkpt><trkpt lat="41.9687217" lon="2.306915"><ele>468.8571428571429</ele><time>2026-04-11T08:48:27.999Z</time></trkpt><trkpt lat="41.9686483" lon="2.30695"><ele>469.57142857142856</ele><time>2026-04-11T08:48:28.999Z</time></trkpt><trkpt lat="41.968585" lon="2.3069983"><ele>470.28571428571433</ele><time>2026-04-11T08:48:29.999Z</time></trkpt><trkpt lat="41.9685233" lon="2.3070467"><ele>471.00000000000006</ele><time>2026-04-11T08:48:30.999Z</time></trkpt><trkpt lat="41.9684617" lon="2.3070983"><ele>471.0</ele><time>2026-04-11T08:48:31.999Z</time></trkpt><trkpt lat="41.9684033" lon="2.3071517"><ele>471.0</ele><time>2026-04-11T08:48:32.999Z</time></trkpt><trkpt lat="41.9683383" lon="2.3072017"><ele>471.0</ele><time>2026-04-11T08:48:33.999Z</time></trkpt><trkpt lat="41.9682617" lon="2.3072383"><ele>471.0</ele><time>2026-04-11T08:48:34.999Z</time></trkpt><trkpt lat="41.9681767" lon="2.307265"><ele>471.0</ele><time>2026-04-11T08:48:35.999Z</time></trkpt><trkpt lat="41.9680883" lon="2.3072833"><ele>471.0</ele><time>2026-04-11T08:48:36.999Z</time></trkpt><trkpt lat="41.9680133" lon="2.307295"><ele>472.0</ele><time>2026-04-11T08:48:37.999Z</time></trkpt><trkpt lat="41.9679317" lon="2.3073117"><ele>473.0</ele><time>2026-04-11T08:48:38.999Z</time></trkpt><trkpt lat="41.9678467" lon="2.3073267"><ele>474.0</ele><time>2026-04-11T08:48:39.999Z</time></trkpt><trkpt lat="41.96777" lon="2.3073333"><ele>475.0</ele><time>2026-04-11T08:48:40.999Z</time></trkpt><trkpt lat="41.9676833" lon="2.3073383"><ele>476.0</ele><time>2026-04-11T08:48:41.999Z</time></trkpt><trkpt lat="41.967595" lon="2.3073417"><ele>477.0</ele><time>2026-04-11T08:48:42.999Z</time></trkpt><trkpt lat="41.9675083" lon="2.3073467"><ele>477.6</ele><time>2026-04-11T08:48:43.999Z</time></trkpt><trkpt lat="41.9674317" lon="2.307355"><ele>478.20000000000005</ele><time>2026-04-11T08:48:44.999Z</time></trkpt><trkpt lat="41.9673217" lon="2.3073983"><ele>478.8</ele><time>2026-04-11T08:48:47Z</time></trkpt><trkpt lat="41.9672233" lon="2.30743"><ele>479.4</ele><time>2026-04-11T08:48:48.999Z</time></trkpt><trkpt lat="41.9671017" lon="2.3074333"><ele>480.0</ele><time>2026-04-11T08:48:51Z</time></trkpt><trkpt lat="41.9669933" lon="2.3074567"><ele>480.0</ele><time>2026-04-11T08:48:53Z</time></trkpt><trkpt lat="41.9669333" lon="2.307485"><ele>480.0</ele><time>2026-04-11T08:48:54Z</time></trkpt><trkpt lat="41.9668733" lon="2.307515"><ele>480.0</ele><time>2026-04-11T08:48:54.999Z</time></trkpt><trkpt lat="41.96675" lon="2.3075533"><ele>480.0</ele><time>2026-04-11T08:48:56.999Z</time></trkpt><trkpt lat="41.9666183" lon="2.3075433"><ele>480.0</ele><time>2026-04-11T08:48:58.999Z</time></trkpt><trkpt lat="41.9665317" lon="2.3075183"><ele>480.4</ele><time>2026-04-11T08:48:59.999Z</time></trkpt><trkpt lat="41.9664433" lon="2.3074883"><ele>480.8</ele><time>2026-04-11T08:49:00.999Z</time></trkpt><trkpt lat="41.9663417" lon="2.3074433"><ele>481.20000000000005</ele><time>2026-04-11T08:49:01.999Z</time></trkpt><trkpt lat="41.9662467" lon="2.3073867"><ele>481.6</ele><time>2026-04-11T08:49:02.999Z</time></trkpt><trkpt lat="41.9661583" lon="2.3073283"><ele>482.0</ele><time>2026-04-11T08:49:03.999Z</time></trkpt><trkpt lat="41.9660733" lon="2.30728"><ele>482.0</ele><time>2026-04-11T08:49:04.999Z</time></trkpt><trkpt lat="41.965985" lon="2.307245"><ele>482.00000000000006</ele><time>2026-04-11T08:49:05.999Z</time></trkpt><trkpt lat="41.9658883" lon="2.3072067"><ele>482.00000000000006</ele><time>2026-04-11T08:49:06.999Z</time></trkpt><trkpt lat="41.965785" lon="2.3071683"><ele>482.0</ele><time>2026-04-11T08:49:07.999Z</time></trkpt><trkpt lat="41.9656733" lon="2.307125"><ele>482.0</ele><time>2026-04-11T08:49:08.999Z</time></trkpt><trkpt lat="41.9655667" lon="2.3070983"><ele>481.6</ele><time>2026-04-11T08:49:09.999Z</time></trkpt><trkpt lat="41.9654667" lon="2.3070833"><ele>481.20000000000005</ele><time>2026-04-11T08:49:10.999Z</time></trkpt><trkpt lat="41.9653667" lon="2.3070733"><ele>480.8</ele><time>2026-04-11T08:49:11.999Z</time></trkpt><trkpt lat="41.9652667" lon="2.3070667"><ele>480.4</ele><time>2026-04-11T08:49:12.999Z</time></trkpt><trkpt lat="41.96517" lon="2.3070583"><ele>480.0</ele><time>2026-04-11T08:49:13.999Z</time></trkpt><trkpt lat="41.9650717" lon="2.307055"><ele>480.0</ele><time>2026-04-11T08:49:14.999Z</time></trkpt><trkpt lat="41.9649767" lon="2.30705"><ele>480.0</ele><time>2026-04-11T08:49:15.999Z</time></trkpt><trkpt lat="41.96488" lon="2.307035"><ele>480.0</ele><time>2026-04-11T08:49:17Z</time></trkpt><trkpt lat="41.964785" lon="2.3070167"><ele>480.0</ele><time>2026-04-11T08:49:17.999Z</time></trkpt><trkpt lat="41.9646883" lon="2.3069983"><ele>480.0</ele><time>2026-04-11T08:49:18.999Z</time></trkpt><trkpt lat="41.9645983" lon="2.306975"><ele>480.0</ele><time>2026-04-11T08:49:19.999Z</time></trkpt><trkpt lat="41.9645217" lon="2.306955"><ele>480.0</ele><time>2026-04-11T08:49:20.999Z</time></trkpt><trkpt lat="41.9644483" lon="2.3069467"><ele>480.0</ele><time>2026-04-11T08:49:21.999Z</time></trkpt><trkpt lat="41.964385" lon="2.30694"><ele>480.0</ele><time>2026-04-11T08:49:22.999Z</time></trkpt><trkpt lat="41.9643233" lon="2.3069217"><ele>480.0</ele><time>2026-04-11T08:49:23.999Z</time></trkpt><trkpt lat="41.9642533" lon="2.3068817"><ele>480.0</ele><time>2026-04-11T08:49:24.999Z</time></trkpt><trkpt lat="41.96418" lon="2.3068383"><ele>480.0</ele><time>2026-04-11T08:49:25.999Z</time></trkpt><trkpt lat="41.964105" lon="2.3068217"><ele>480.6666666666667</ele><time>2026-04-11T08:49:26.999Z</time></trkpt><trkpt lat="41.9640233" lon="2.3067983"><ele>481.33333333333337</ele><time>2026-04-11T08:49:27.999Z</time></trkpt><trkpt lat="41.9639433" lon="2.3067917"><ele>482.0</ele><time>2026-04-11T08:49:28.999Z</time></trkpt><trkpt lat="41.9638617" lon="2.3067817"><ele>482.6666666666667</ele><time>2026-04-11T08:49:29.999Z</time></trkpt><trkpt lat="41.9637683" lon="2.3067683"><ele>483.33333333333337</ele><time>2026-04-11T08:49:30.999Z</time></trkpt><trkpt lat="41.963685" lon="2.3067767"><ele>484.0</ele><time>2026-04-11T08:49:31.999Z</time></trkpt><trkpt lat="41.9636017" lon="2.3067633"><ele>484.00000000000006</ele><time>2026-04-11T08:49:32.999Z</time></trkpt><trkpt lat="41.963525" lon="2.3067483"><ele>484.0</ele><time>2026-04-11T08:49:33.999Z</time></trkpt><trkpt lat="41.9634567" lon="2.3067283"><ele>484.0</ele><time>2026-04-11T08:49:34.999Z</time></trkpt><trkpt lat="41.9634017" lon="2.3066817"><ele>484.0</ele><time>2026-04-11T08:49:35.999Z</time></trkpt><trkpt lat="41.9633533" lon="2.306625"><ele>484.00000000000006</ele><time>2026-04-11T08:49:36.999Z</time></trkpt><trkpt lat="41.9632617" lon="2.3065117"><ele>484.0</ele><time>2026-04-11T08:49:38.999Z</time></trkpt><trkpt lat="41.9631933" lon="2.3064767"><ele>484.1666666666667</ele><time>2026-04-11T08:49:39.999Z</time></trkpt><trkpt lat="41.9631133" lon="2.3064667"><ele>484.33333333333337</ele><time>2026-04-11T08:49:40.999Z</time></trkpt><trkpt lat="41.9630283" lon="2.30646"><ele>484.5</ele><time>2026-04-11T08:49:41.999Z</time></trkpt><trkpt lat="41.9629383" lon="2.306445"><ele>484.66666666666663</ele><time>2026-04-11T08:49:42.999Z</time></trkpt><trkpt lat="41.9628483" lon="2.30643"><ele>484.8333333333333</ele><time>2026-04-11T08:49:43.999Z</time></trkpt><trkpt lat="41.9627533" lon="2.30643"><ele>485.0</ele><time>2026-04-11T08:49:44.999Z</time></trkpt><trkpt lat="41.9626517" lon="2.306435"><ele>485.0</ele><time>2026-04-11T08:49:45.999Z</time></trkpt><trkpt lat="41.9625517" lon="2.3064333"><ele>485.0</ele><time>2026-04-11T08:49:47Z</time></trkpt><trkpt lat="41.962445" lon="2.3064283"><ele>485.0</ele><time>2026-04-11T08:49:47.999Z</time></trkpt><trkpt lat="41.96233" lon="2.3064267"><ele>485.0</ele><time>2026-04-11T08:49:48.999Z</time></trkpt><trkpt lat="41.9622117" lon="2.3064167"><ele>485.0</ele><time>2026-04-11T08:49:49.999Z</time></trkpt><trkpt lat="41.96209" lon="2.3064083"><ele>484.5</ele><time>2026-04-11T08:49:50.999Z</time></trkpt><trkpt lat="41.9619717" lon="2.306405"><ele>484.0</ele><time>2026-04-11T08:49:51.999Z</time></trkpt><trkpt lat="41.96186" lon="2.3064017"><ele>483.5</ele><time>2026-04-11T08:49:52.999Z</time></trkpt><trkpt lat="41.9617517" lon="2.3064"><ele>483.0</ele><time>2026-04-11T08:49:53.999Z</time></trkpt><trkpt lat="41.96164" lon="2.3063967"><ele>483.0</ele><time>2026-04-11T08:49:54.999Z</time></trkpt><trkpt lat="41.96153" lon="2.3063883"><ele>482.99999999999994</ele><time>2026-04-11T08:49:55.999Z</time></trkpt><trkpt lat="41.9614217" lon="2.3063783"><ele>482.99999999999994</ele><time>2026-04-11T08:49:56.999Z</time></trkpt><trkpt lat="41.9613117" lon="2.3063733"><ele>483.0</ele><time>2026-04-11T08:49:57.999Z</time></trkpt><trkpt lat="41.961195" lon="2.30637"><ele>483.0</ele><time>2026-04-11T08:49:58.999Z</time></trkpt><trkpt lat="41.9610817" lon="2.3063567"><ele>483.0</ele><time>2026-04-11T08:49:59.999Z</time></trkpt><trkpt lat="41.9609633" lon="2.3063567"><ele>483.0</ele><time>2026-04-11T08:50:00.999Z</time></trkpt><trkpt lat="41.960845" lon="2.3063517"><ele>483.0</ele><time>2026-04-11T08:50:01.999Z</time></trkpt><trkpt lat="41.960725" lon="2.3063267"><ele>483.0</ele><time>2026-04-11T08:50:02.999Z</time></trkpt><trkpt lat="41.9606" lon="2.3062867"><ele>483.25</ele><time>2026-04-11T08:50:03.999Z</time></trkpt><trkpt lat="41.96048" lon="2.3062383"><ele>483.5</ele><time>2026-04-11T08:50:04.999Z</time></trkpt><trkpt lat="41.96036" lon="2.3061883"><ele>483.75</ele><time>2026-04-11T08:50:05.999Z</time></trkpt><trkpt lat="41.9602433" lon="2.3061283"><ele>484.0</ele><time>2026-04-11T08:50:06.999Z</time></trkpt><trkpt lat="41.96013" lon="2.306075"><ele>484.79999999999995</ele><time>2026-04-11T08:50:07.999Z</time></trkpt><trkpt lat="41.9600267" lon="2.3060283"><ele>485.59999999999997</ele><time>2026-04-11T08:50:08.999Z</time></trkpt><trkpt lat="41.9599267" lon="2.305985"><ele>486.4</ele><time>2026-04-11T08:50:09.999Z</time></trkpt><trkpt lat="41.9598383" lon="2.30595"><ele>487.2</ele><time>2026-04-11T08:50:10.999Z</time></trkpt><trkpt lat="41.9597633" lon="2.3059133"><ele>488.0</ele><time>2026-04-11T08:50:11.999Z</time></trkpt><trkpt lat="41.9596733" lon="2.305865"><ele>487.99999999999994</ele><time>2026-04-11T08:50:13.999Z</time></trkpt><trkpt lat="41.9596017" lon="2.305835"><ele>488.0</ele><time>2026-04-11T08:50:24.999Z</time></trkpt><trkpt lat="41.959515" lon="2.30581"><ele>488.0</ele><time>2026-04-11T08:50:26.999Z</time></trkpt><trkpt lat="41.9593967" lon="2.30578"><ele>488.0</ele><time>2026-04-11T08:50:28.999Z</time></trkpt><trkpt lat="41.9593333" lon="2.30576"><ele>487.99999999999994</ele><time>2026-04-11T08:50:29.999Z</time></trkpt><trkpt lat="41.9592633" lon="2.3057383"><ele>488.0</ele><time>2026-04-11T08:50:30.999Z</time></trkpt><trkpt lat="41.9591967" lon="2.30573"><ele>488.16666666666663</ele><time>2026-04-11T08:50:31.999Z</time></trkpt><trkpt lat="41.9590767" lon="2.3057083"><ele>488.3333333333333</ele><time>2026-04-11T08:50:33.999Z</time></trkpt><trkpt lat="41.959015" lon="2.3056883"><ele>488.5</ele><time>2026-04-11T08:50:34.999Z</time></trkpt><trkpt lat="41.9589533" lon="2.3056583"><ele>488.66666666666663</ele><time>2026-04-11T08:50:35.999Z</time></trkpt><trkpt lat="41.95889" lon="2.3056267"><ele>488.8333333333333</ele><time>2026-04-11T08:50:36.999Z</time></trkpt><trkpt lat="41.9588317" lon="2.305585"><ele>489.0</ele><time>2026-04-11T08:50:37.999Z</time></trkpt><trkpt lat="41.9587733" lon="2.30554"><ele>488.8333333333333</ele><time>2026-04-11T08:50:38.999Z</time></trkpt><trkpt lat="41.9586717" lon="2.3054433"><ele>488.66666666666663</ele><time>2026-04-11T08:50:40.999Z</time></trkpt><trkpt lat="41.95858" lon="2.3053433"><ele>488.5</ele><time>2026-04-11T08:50:42.999Z</time></trkpt><trkpt lat="41.9585333" lon="2.305285"><ele>488.3333333333333</ele><time>2026-04-11T08:50:43.999Z</time></trkpt><trkpt lat="41.9584833" lon="2.3052283"><ele>488.16666666666663</ele><time>2026-04-11T08:50:45Z</time></trkpt><trkpt lat="41.958425" lon="2.3051767"><ele>488.0</ele><time>2026-04-11T08:50:45.999Z</time></trkpt><trkpt lat="41.9583617" lon="2.305135"><ele>487.99999999999994</ele><time>2026-04-11T08:50:46.999Z</time></trkpt><trkpt lat="41.9583033" lon="2.3051"><ele>488.0</ele><time>2026-04-11T08:50:47.999Z</time></trkpt><trkpt lat="41.9581883" lon="2.30504"><ele>488.0</ele><time>2026-04-11T08:50:49.999Z</time></trkpt><trkpt lat="41.9581283" lon="2.3050117"><ele>488.0</ele><time>2026-04-11T08:50:50.999Z</time></trkpt><trkpt lat="41.9580617" lon="2.304985"><ele>487.99999999999994</ele><time>2026-04-11T08:50:51.999Z</time></trkpt><trkpt lat="41.9579933" lon="2.30495"><ele>488.0</ele><time>2026-04-11T08:50:52.999Z</time></trkpt><trkpt lat="41.9579183" lon="2.30491"><ele>487.99999999999994</ele><time>2026-04-11T08:50:53.999Z</time></trkpt><trkpt lat="41.957845" lon="2.3048717"><ele>488.0</ele><time>2026-04-11T08:50:54.999Z</time></trkpt><trkpt lat="41.957775" lon="2.30484"><ele>487.99999999999994</ele><time>2026-04-11T08:50:55.999Z</time></trkpt><trkpt lat="41.9577083" lon="2.3048033"><ele>487.99999999999994</ele><time>2026-04-11T08:50:56.999Z</time></trkpt><trkpt lat="41.9576467" lon="2.3047717"><ele>488.0</ele><time>2026-04-11T08:50:57.999Z</time></trkpt><trkpt lat="41.9575867" lon="2.3047417"><ele>487.99999999999994</ele><time>2026-04-11T08:50:58.999Z</time></trkpt><trkpt lat="41.957525" lon="2.30471"><ele>487.99999999999994</ele><time>2026-04-11T08:50:59.999Z</time></trkpt><trkpt lat="41.957465" lon="2.3046817"><ele>487.5714285714285</ele><time>2026-04-11T08:51:00.999Z</time></trkpt><trkpt lat="41.9574" lon="2.3046467"><ele>487.1428571428571</ele><time>2026-04-11T08:51:01.999Z</time></trkpt><trkpt lat="41.9573367" lon="2.3046117"><ele>486.7142857142857</ele><time>2026-04-11T08:51:02.999Z</time></trkpt><trkpt lat="41.9572767" lon="2.3045833"><ele>486.2857142857143</ele><time>2026-04-11T08:51:03.999Z</time></trkpt><trkpt lat="41.9572117" lon="2.3045517"><ele>485.8571428571429</ele><time>2026-04-11T08:51:04.999Z</time></trkpt><trkpt lat="41.9571433" lon="2.304515"><ele>485.4285714285715</ele><time>2026-04-11T08:51:05.999Z</time></trkpt><trkpt lat="41.9570767" lon="2.304465"><ele>485.00000000000006</ele><time>2026-04-11T08:51:06.999Z</time></trkpt><trkpt lat="41.9570167" lon="2.304415"><ele>485.00000000000006</ele><time>2026-04-11T08:51:08Z</time></trkpt><trkpt lat="41.9569567" lon="2.3043617"><ele>485.0</ele><time>2026-04-11T08:51:08.999Z</time></trkpt><trkpt lat="41.9568967" lon="2.3043033"><ele>485.00000000000006</ele><time>2026-04-11T08:51:09.999Z</time></trkpt><trkpt lat="41.9568333" lon="2.3042467"><ele>485.00000000000006</ele><time>2026-04-11T08:51:10.999Z</time></trkpt><trkpt lat="41.956775" lon="2.3042067"><ele>485.0</ele><time>2026-04-11T08:51:11.999Z</time></trkpt><trkpt lat="41.9567117" lon="2.30417"><ele>485.00000000000006</ele><time>2026-04-11T08:51:12.999Z</time></trkpt><trkpt lat="41.956645" lon="2.3041267"><ele>485.00000000000006</ele><time>2026-04-11T08:51:13.999Z</time></trkpt><trkpt lat="41.9565817" lon="2.304065"><ele>485.16666666666663</ele><time>2026-04-11T08:51:14.999Z</time></trkpt><trkpt lat="41.9565183" lon="2.3040133"><ele>485.3333333333333</ele><time>2026-04-11T08:51:15.999Z</time></trkpt><trkpt lat="41.9564517" lon="2.3039733"><ele>485.5</ele><time>2026-04-11T08:51:16.999Z</time></trkpt><trkpt lat="41.9563883" lon="2.303955"><ele>485.66666666666663</ele><time>2026-04-11T08:51:18Z</time></trkpt><trkpt lat="41.95626" lon="2.3039833"><ele>485.8333333333333</ele><time>2026-04-11T08:51:19.999Z</time></trkpt><trkpt lat="41.9561917" lon="2.30404"><ele>486.0</ele><time>2026-04-11T08:51:20.999Z</time></trkpt><trkpt lat="41.9561233" lon="2.304105"><ele>486.0</ele><time>2026-04-11T08:51:21.999Z</time></trkpt><trkpt lat="41.9560567" lon="2.3041583"><ele>486.0</ele><time>2026-04-11T08:51:22.999Z</time></trkpt><trkpt lat="41.9559433" lon="2.3041783"><ele>486.0</ele><time>2026-04-11T08:51:24.999Z</time></trkpt><trkpt lat="41.95587" lon="2.304155"><ele>486.0</ele><time>2026-04-11T08:51:25.999Z</time></trkpt><trkpt lat="41.9557917" lon="2.30413"><ele>486.0</ele><time>2026-04-11T08:51:26.999Z</time></trkpt><trkpt lat="41.9557033" lon="2.3041117"><ele>486.0</ele><time>2026-04-11T08:51:27.999Z</time></trkpt><trkpt lat="41.9556117" lon="2.3040867"><ele>486.4</ele><time>2026-04-11T08:51:28.999Z</time></trkpt><trkpt lat="41.9555117" lon="2.3040583"><ele>486.8</ele><time>2026-04-11T08:51:29.999Z</time></trkpt><trkpt lat="41.9554317" lon="2.304025"><ele>487.19999999999993</ele><time>2026-04-11T08:51:30.999Z</time></trkpt><trkpt lat="41.9553417" lon="2.3039967"><ele>487.59999999999997</ele><time>2026-04-11T08:51:31.999Z</time></trkpt><trkpt lat="41.9552483" lon="2.3039767"><ele>488.0</ele><time>2026-04-11T08:51:32.999Z</time></trkpt><trkpt lat="41.9551433" lon="2.3039567"><ele>488.0</ele><time>2026-04-11T08:51:33.999Z</time></trkpt><trkpt lat="41.9550417" lon="2.3039633"><ele>487.99999999999994</ele><time>2026-04-11T08:51:34.999Z</time></trkpt><trkpt lat="41.954935" lon="2.3039617"><ele>487.99999999999994</ele><time>2026-04-11T08:51:36Z</time></trkpt><trkpt lat="41.9548317" lon="2.3039433"><ele>488.0</ele><time>2026-04-11T08:51:36.999Z</time></trkpt><trkpt lat="41.9547417" lon="2.3039083"><ele>488.0</ele><time>2026-04-11T08:51:38Z</time></trkpt><trkpt lat="41.954665" lon="2.3038583"><ele>487.99999999999994</ele><time>2026-04-11T08:51:38.999Z</time></trkpt><trkpt lat="41.9545933" lon="2.3038033"><ele>488.0</ele><time>2026-04-11T08:51:39.999Z</time></trkpt><trkpt lat="41.9545167" lon="2.303765"><ele>488.0</ele><time>2026-04-11T08:51:41Z</time></trkpt><trkpt lat="41.9544267" lon="2.3037433"><ele>488.0</ele><time>2026-04-11T08:51:41.999Z</time></trkpt><trkpt lat="41.95434" lon="2.3037233"><ele>487.99999999999994</ele><time>2026-04-11T08:51:42.999Z</time></trkpt><trkpt lat="41.954255" lon="2.303715"><ele>488.0</ele><time>2026-04-11T08:51:43.999Z</time></trkpt><trkpt lat="41.95417" lon="2.3037083"><ele>487.99999999999994</ele><time>2026-04-11T08:51:44.999Z</time></trkpt><trkpt lat="41.954085" lon="2.3036983"><ele>488.0</ele><time>2026-04-11T08:51:45.999Z</time></trkpt><trkpt lat="41.954" lon="2.3036883"><ele>488.0</ele><time>2026-04-11T08:51:47Z</time></trkpt><trkpt lat="41.9539117" lon="2.303675"><ele>488.0</ele><time>2026-04-11T08:51:47.999Z</time></trkpt><trkpt lat="41.9538233" lon="2.3036633"><ele>487.99999999999994</ele><time>2026-04-11T08:51:49Z</time></trkpt><trkpt lat="41.953735" lon="2.30366"><ele>488.0</ele><time>2026-04-11T08:51:49.999Z</time></trkpt><trkpt lat="41.9536383" lon="2.3036583"><ele>488.0</ele><time>2026-04-11T08:51:50.999Z</time></trkpt><trkpt lat="41.9535317" lon="2.3036517"><ele>488.0</ele><time>2026-04-11T08:51:51.999Z</time></trkpt><trkpt lat="41.9534183" lon="2.3036383"><ele>488.0</ele><time>2026-04-11T08:51:52.999Z</time></trkpt><trkpt lat="41.9532967" lon="2.303625"><ele>488.0</ele><time>2026-04-11T08:51:53.999Z</time></trkpt><trkpt lat="41.9531767" lon="2.3036217"><ele>487.79999999999995</ele><time>2026-04-11T08:51:54.999Z</time></trkpt><trkpt lat="41.9530717" lon="2.3036383"><ele>487.59999999999997</ele><time>2026-04-11T08:51:55.999Z</time></trkpt><trkpt lat="41.952975" lon="2.3036467"><ele>487.40000000000003</ele><time>2026-04-11T08:51:56.999Z</time></trkpt><trkpt lat="41.9528867" lon="2.3036317"><ele>487.20000000000005</ele><time>2026-04-11T08:51:57.999Z</time></trkpt><trkpt lat="41.9528017" lon="2.3036083"><ele>487.0</ele><time>2026-04-11T08:51:58.999Z</time></trkpt><trkpt lat="41.9527217" lon="2.3035683"><ele>487.00000000000006</ele><time>2026-04-11T08:51:59.999Z</time></trkpt><trkpt lat="41.95265" lon="2.3035083"><ele>487.0</ele><time>2026-04-11T08:52:00.999Z</time></trkpt><trkpt lat="41.9525983" lon="2.303435"><ele>487.0</ele><time>2026-04-11T08:52:01.999Z</time></trkpt><trkpt lat="41.9525517" lon="2.3033317"><ele>487.0</ele><time>2026-04-11T08:52:02.999Z</time></trkpt><trkpt lat="41.9525033" lon="2.3032217"><ele>487.00000000000006</ele><time>2026-04-11T08:52:03.999Z</time></trkpt><trkpt lat="41.9524333" lon="2.3031367"><ele>487.0</ele><time>2026-04-11T08:52:05Z</time></trkpt><trkpt lat="41.9523417" lon="2.3030533"><ele>488.6</ele><time>2026-04-11T08:52:05.999Z</time></trkpt><trkpt lat="41.95225" lon="2.3029683"><ele>490.20000000000005</ele><time>2026-04-11T08:52:07Z</time></trkpt><trkpt lat="41.9521733" lon="2.30287"><ele>491.8</ele><time>2026-04-11T08:52:07.999Z</time></trkpt><trkpt lat="41.9521117" lon="2.3027817"><ele>493.4</ele><time>2026-04-11T08:52:08.999Z</time></trkpt><trkpt lat="41.9520467" lon="2.3026967"><ele>495.0</ele><time>2026-04-11T08:52:09.999Z</time></trkpt><trkpt lat="41.9519833" lon="2.3026283"><ele>495.0</ele><time>2026-04-11T08:52:10.999Z</time></trkpt><trkpt lat="41.9519033" lon="2.302565"><ele>495.0</ele><time>2026-04-11T08:52:11.999Z</time></trkpt><trkpt lat="41.95182" lon="2.3024917"><ele>495.0</ele><time>2026-04-11T08:52:12.999Z</time></trkpt><trkpt lat="41.9517417" lon="2.3024067"><ele>495.0</ele><time>2026-04-11T08:52:14Z</time></trkpt><trkpt lat="41.9516683" lon="2.3023083"><ele>495.0</ele><time>2026-04-11T08:52:14.999Z</time></trkpt><trkpt lat="41.951595" lon="2.3022033"><ele>497.1666666666667</ele><time>2026-04-11T08:52:15.999Z</time></trkpt><trkpt lat="41.9515183" lon="2.30212"><ele>499.33333333333337</ele><time>2026-04-11T08:52:16.999Z</time></trkpt><trkpt lat="41.951445" lon="2.3020533"><ele>501.5</ele><time>2026-04-11T08:52:17.999Z</time></trkpt><trkpt lat="41.95137" lon="2.3020067"><ele>503.6666666666667</ele><time>2026-04-11T08:52:18.999Z</time></trkpt><trkpt lat="41.9513067" lon="2.302005"><ele>505.83333333333337</ele><time>2026-04-11T08:52:19.999Z</time></trkpt><trkpt lat="41.951245" lon="2.302035"><ele>508.0</ele><time>2026-04-11T08:52:20.999Z</time></trkpt><trkpt lat="41.9511733" lon="2.30209"><ele>508.0</ele><time>2026-04-11T08:52:21.999Z</time></trkpt><trkpt lat="41.951095" lon="2.3021433"><ele>507.99999999999994</ele><time>2026-04-11T08:52:22.999Z</time></trkpt><trkpt lat="41.9510117" lon="2.3021783"><ele>507.99999999999994</ele><time>2026-04-11T08:52:23.999Z</time></trkpt><trkpt lat="41.950925" lon="2.302175"><ele>508.0</ele><time>2026-04-11T08:52:24.999Z</time></trkpt><trkpt lat="41.95082" lon="2.3021383"><ele>508.0</ele><time>2026-04-11T08:52:25.999Z</time></trkpt><trkpt lat="41.9507033" lon="2.3020817"><ele>508.25</ele><time>2026-04-11T08:52:26.999Z</time></trkpt><trkpt lat="41.9505733" lon="2.3020183"><ele>508.5</ele><time>2026-04-11T08:52:27.999Z</time></trkpt><trkpt lat="41.9504467" lon="2.301945"><ele>508.75</ele><time>2026-04-11T08:52:28.999Z</time></trkpt><trkpt lat="41.9503467" lon="2.3018383"><ele>509.0</ele><time>2026-04-11T08:52:29.999Z</time></trkpt><trkpt lat="41.95026" lon="2.301715"><ele>509.0</ele><time>2026-04-11T08:52:30.999Z</time></trkpt><trkpt lat="41.95017" lon="2.301575"><ele>509.0</ele><time>2026-04-11T08:52:31.999Z</time></trkpt><trkpt lat="41.9500833" lon="2.30143"><ele>509.0</ele><time>2026-04-11T08:52:32.999Z</time></trkpt><trkpt lat="41.949995" lon="2.3013183"><ele>509.0</ele><time>2026-04-11T08:52:33.999Z</time></trkpt><trkpt lat="41.9499117" lon="2.3012233"><ele>509.4</ele><time>2026-04-11T08:52:34.999Z</time></trkpt><trkpt lat="41.9498183" lon="2.3011517"><ele>509.79999999999995</ele><time>2026-04-11T08:52:35.999Z</time></trkpt><trkpt lat="41.9497083" lon="2.3011"><ele>510.20000000000005</ele><time>2026-04-11T08:52:36.999Z</time></trkpt><trkpt lat="41.9496" lon="2.3010633"><ele>510.6</ele><time>2026-04-11T08:52:37.999Z</time></trkpt><trkpt lat="41.9494967" lon="2.301015"><ele>511.0</ele><time>2026-04-11T08:52:38.999Z</time></trkpt><trkpt lat="41.9494083" lon="2.3009467"><ele>511.0</ele><time>2026-04-11T08:52:39.999Z</time></trkpt><trkpt lat="41.9493267" lon="2.30086"><ele>511.0</ele><time>2026-04-11T08:52:41Z</time></trkpt><trkpt lat="41.9492533" lon="2.3007467"><ele>511.0</ele><time>2026-04-11T08:52:41.999Z</time></trkpt><trkpt lat="41.9491933" lon="2.300615"><ele>511.0</ele><time>2026-04-11T08:52:42.999Z</time></trkpt><trkpt lat="41.94916" lon="2.3004717"><ele>511.0</ele><time>2026-04-11T08:52:43.999Z</time></trkpt><trkpt lat="41.9491467" lon="2.3003433"><ele>510.8</ele><time>2026-04-11T08:52:44.999Z</time></trkpt><trkpt lat="41.9491367" lon="2.3002433"><ele>510.6</ele><time>2026-04-11T08:52:46Z</time></trkpt><trkpt lat="41.949105" lon="2.3000917"><ele>510.4</ele><time>2026-04-11T08:52:47.999Z</time></trkpt><trkpt lat="41.9490517" lon="2.29993"><ele>510.2</ele><time>2026-04-11T08:52:49.999Z</time></trkpt><trkpt lat="41.9489983" lon="2.2998433"><ele>510.0</ele><time>2026-04-11T08:52:50.999Z</time></trkpt><trkpt lat="41.9489267" lon="2.2997617"><ele>510.0</ele><time>2026-04-11T08:52:51.999Z</time></trkpt><trkpt lat="41.9488417" lon="2.29969"><ele>510.0</ele><time>2026-04-11T08:52:52.999Z</time></trkpt><trkpt lat="41.948745" lon="2.2996317"><ele>510.0</ele><time>2026-04-11T08:52:53.999Z</time></trkpt><trkpt lat="41.948645" lon="2.29958"><ele>510.0</ele><time>2026-04-11T08:52:54.999Z</time></trkpt><trkpt lat="41.948545" lon="2.299525"><ele>510.0</ele><time>2026-04-11T08:52:55.999Z</time></trkpt><trkpt lat="41.9484483" lon="2.2994783"><ele>509.25</ele><time>2026-04-11T08:52:56.999Z</time></trkpt><trkpt lat="41.948355" lon="2.2994267"><ele>508.5</ele><time>2026-04-11T08:52:57.999Z</time></trkpt><trkpt lat="41.948255" lon="2.2993633"><ele>507.75</ele><time>2026-04-11T08:52:58.999Z</time></trkpt><trkpt lat="41.94815" lon="2.2992833"><ele>507.0</ele><time>2026-04-11T08:52:59.999Z</time></trkpt><trkpt lat="41.9480483" lon="2.2991967"><ele>507.0</ele><time>2026-04-11T08:53:00.999Z</time></trkpt><trkpt lat="41.9479433" lon="2.299095"><ele>507.0</ele><time>2026-04-11T08:53:01.999Z</time></trkpt><trkpt lat="41.9478383" lon="2.2989833"><ele>507.0</ele><time>2026-04-11T08:53:02.999Z</time></trkpt><trkpt lat="41.9477267" lon="2.2988817"><ele>507.0</ele><time>2026-04-11T08:53:03.999Z</time></trkpt><trkpt lat="41.94762" lon="2.2988133"><ele>507.25</ele><time>2026-04-11T08:53:04.999Z</time></trkpt><trkpt lat="41.947505" lon="2.2987467"><ele>507.5</ele><time>2026-04-11T08:53:05.999Z</time></trkpt><trkpt lat="41.9473883" lon="2.2986917"><ele>507.75</ele><time>2026-04-11T08:53:06.999Z</time></trkpt><trkpt lat="41.9472667" lon="2.298635"><ele>508.0</ele><time>2026-04-11T08:53:08Z</time></trkpt><trkpt lat="41.9471517" lon="2.29858"><ele>508.0</ele><time>2026-04-11T08:53:08.999Z</time></trkpt><trkpt lat="41.9470383" lon="2.2985183"><ele>508.0</ele><time>2026-04-11T08:53:10Z</time></trkpt><trkpt lat="41.9469183" lon="2.2984667"><ele>508.0</ele><time>2026-04-11T08:53:10.999Z</time></trkpt><trkpt lat="41.9467967" lon="2.2983983"><ele>508.0</ele><time>2026-04-11T08:53:11.999Z</time></trkpt><trkpt lat="41.9466767" lon="2.2983367"><ele>508.0</ele><time>2026-04-11T08:53:12.999Z</time></trkpt><trkpt lat="41.946555" lon="2.298275"><ele>508.0</ele><time>2026-04-11T08:53:13.999Z</time></trkpt><trkpt lat="41.9464267" lon="2.29819"><ele>508.0</ele><time>2026-04-11T08:53:14.999Z</time></trkpt><trkpt lat="41.9463067" lon="2.2981067"><ele>508.0</ele><time>2026-04-11T08:53:15.999Z</time></trkpt><trkpt lat="41.946195" lon="2.298055"><ele>508.0</ele><time>2026-04-11T08:53:16.999Z</time></trkpt><trkpt lat="41.9460783" lon="2.29801"><ele>508.0</ele><time>2026-04-11T08:53:17.999Z</time></trkpt><trkpt lat="41.9459533" lon="2.2979533"><ele>508.0</ele><time>2026-04-11T08:53:18.999Z</time></trkpt><trkpt lat="41.9458333" lon="2.2979"><ele>508.0</ele><time>2026-04-11T08:53:19.999Z</time></trkpt><trkpt lat="41.94571" lon="2.2978483"><ele>507.0</ele><time>2026-04-11T08:53:20.999Z</time></trkpt><trkpt lat="41.9456083" lon="2.2978"><ele>505.99999999999994</ele><time>2026-04-11T08:53:21.999Z</time></trkpt><trkpt lat="41.9455183" lon="2.29774"><ele>504.99999999999994</ele><time>2026-04-11T08:53:22.999Z</time></trkpt><trkpt lat="41.9454283" lon="2.2976833"><ele>504.0</ele><time>2026-04-11T08:53:23.999Z</time></trkpt><trkpt lat="41.9453467" lon="2.2976517"><ele>503.0</ele><time>2026-04-11T08:53:24.999Z</time></trkpt><trkpt lat="41.9452533" lon="2.2976367"><ele>503.0</ele><time>2026-04-11T08:53:25.999Z</time></trkpt><trkpt lat="41.945155" lon="2.29762"><ele>502.99999999999994</ele><time>2026-04-11T08:53:26.999Z</time></trkpt><trkpt lat="41.9450517" lon="2.29764"><ele>502.99999999999994</ele><time>2026-04-11T08:53:27.999Z</time></trkpt><trkpt lat="41.9449533" lon="2.2976817"><ele>503.0</ele><time>2026-04-11T08:53:28.999Z</time></trkpt><trkpt lat="41.9448483" lon="2.297725"><ele>503.0</ele><time>2026-04-11T08:53:29.999Z</time></trkpt><trkpt lat="41.944745" lon="2.2977567"><ele>503.25</ele><time>2026-04-11T08:53:30.999Z</time></trkpt><trkpt lat="41.9446317" lon="2.2977833"><ele>503.5</ele><time>2026-04-11T08:53:31.999Z</time></trkpt><trkpt lat="41.9445117" lon="2.2978133"><ele>503.75</ele><time>2026-04-11T08:53:32.999Z</time></trkpt><trkpt lat="41.9443983" lon="2.2978433"><ele>504.0</ele><time>2026-04-11T08:53:33.999Z</time></trkpt><trkpt lat="41.9442883" lon="2.297875"><ele>503.5</ele><time>2026-04-11T08:53:34.999Z</time></trkpt><trkpt lat="41.944175" lon="2.297905"><ele>503.0</ele><time>2026-04-11T08:53:35.999Z</time></trkpt><trkpt lat="41.9440517" lon="2.297925"><ele>502.5</ele><time>2026-04-11T08:53:36.999Z</time></trkpt><trkpt lat="41.94393" lon="2.29793"><ele>502.0</ele><time>2026-04-11T08:53:37.999Z</time></trkpt><trkpt lat="41.9438017" lon="2.2979017"><ele>502.0</ele><time>2026-04-11T08:53:38.999Z</time></trkpt><trkpt lat="41.9436783" lon="2.2978983"><ele>502.0</ele><time>2026-04-11T08:53:39.999Z</time></trkpt><trkpt lat="41.9435533" lon="2.2978967"><ele>502.0</ele><time>2026-04-11T08:53:40.999Z</time></trkpt><trkpt lat="41.943425" lon="2.2978967"><ele>502.0</ele><time>2026-04-11T08:53:41.999Z</time></trkpt><trkpt lat="41.9433017" lon="2.2978833"><ele>502.6</ele><time>2026-04-11T08:53:42.999Z</time></trkpt><trkpt lat="41.94318" lon="2.2978617"><ele>503.20000000000005</ele><time>2026-04-11T08:53:43.999Z</time></trkpt><trkpt lat="41.943065" lon="2.2978383"><ele>503.8</ele><time>2026-04-11T08:53:44.999Z</time></trkpt><trkpt lat="41.9429633" lon="2.2978267"><ele>504.4</ele><time>2026-04-11T08:53:45.999Z</time></trkpt><trkpt lat="41.9428767" lon="2.2978167"><ele>505.0</ele><time>2026-04-11T08:53:46.999Z</time></trkpt><trkpt lat="41.9428" lon="2.2978133"><ele>505.00000000000006</ele><time>2026-04-11T08:53:47.999Z</time></trkpt><trkpt lat="41.9427317" lon="2.29784"><ele>505.0</ele><time>2026-04-11T08:53:48.999Z</time></trkpt><trkpt lat="41.9426617" lon="2.2978833"><ele>505.0</ele><time>2026-04-11T08:53:49.999Z</time></trkpt><trkpt lat="41.9425833" lon="2.2979233"><ele>505.0</ele><time>2026-04-11T08:53:50.999Z</time></trkpt><trkpt lat="41.9425033" lon="2.297935"><ele>505.00000000000006</ele><time>2026-04-11T08:53:51.999Z</time></trkpt><trkpt lat="41.9424133" lon="2.2979333"><ele>505.0</ele><time>2026-04-11T08:53:52.999Z</time></trkpt><trkpt lat="41.9423183" lon="2.2979517"><ele>505.25</ele><time>2026-04-11T08:53:53.999Z</time></trkpt><trkpt lat="41.9422083" lon="2.297975"><ele>505.5</ele><time>2026-04-11T08:53:54.999Z</time></trkpt><trkpt lat="41.9420867" lon="2.2980083"><ele>505.75</ele><time>2026-04-11T08:53:55.999Z</time></trkpt><trkpt lat="41.9419633" lon="2.2980517"><ele>506.0</ele><time>2026-04-11T08:53:56.999Z</time></trkpt><trkpt lat="41.9418483" lon="2.2980917"><ele>506.5</ele><time>2026-04-11T08:53:57.999Z</time></trkpt><trkpt lat="41.9417267" lon="2.298135"><ele>507.0</ele><time>2026-04-11T08:53:58.999Z</time></trkpt><trkpt lat="41.9415967" lon="2.2981917"><ele>507.5</ele><time>2026-04-11T08:53:59.999Z</time></trkpt><trkpt lat="41.941475" lon="2.2982317"><ele>508.0</ele><time>2026-04-11T08:54:00.999Z</time></trkpt><trkpt lat="41.94136" lon="2.2982517"><ele>508.0</ele><time>2026-04-11T08:54:01.999Z</time></trkpt><trkpt lat="41.94124" lon="2.2982583"><ele>507.99999999999994</ele><time>2026-04-11T08:54:02.999Z</time></trkpt><trkpt lat="41.9411367" lon="2.29827"><ele>507.99999999999994</ele><time>2026-04-11T08:54:03.999Z</time></trkpt><trkpt lat="41.9410483" lon="2.29826"><ele>508.0</ele><time>2026-04-11T08:54:05Z</time></trkpt><trkpt lat="41.940955" lon="2.2982133"><ele>508.0</ele><time>2026-04-11T08:54:05.999Z</time></trkpt><trkpt lat="41.9408533" lon="2.2981317"><ele>506.5</ele><time>2026-04-11T08:54:06.999Z</time></trkpt><trkpt lat="41.9407433" lon="2.298055"><ele>505.0</ele><time>2026-04-11T08:54:07.999Z</time></trkpt><trkpt lat="41.9406317" lon="2.2979883"><ele>503.5</ele><time>2026-04-11T08:54:08.999Z</time></trkpt><trkpt lat="41.940525" lon="2.297945"><ele>502.0</ele><time>2026-04-11T08:54:09.999Z</time></trkpt><trkpt lat="41.9404217" lon="2.2979067"><ele>502.0</ele><time>2026-04-11T08:54:10.999Z</time></trkpt><trkpt lat="41.9403133" lon="2.2978567"><ele>502.0</ele><time>2026-04-11T08:54:11.999Z</time></trkpt><trkpt lat="41.9402" lon="2.2978083"><ele>502.0</ele><time>2026-04-11T08:54:13Z</time></trkpt><trkpt lat="41.9400817" lon="2.2977667"><ele>502.0</ele><time>2026-04-11T08:54:13.999Z</time></trkpt><trkpt lat="41.9399767" lon="2.2977383"><ele>502.33333333333337</ele><time>2026-04-11T08:54:14.999Z</time></trkpt><trkpt lat="41.9398817" lon="2.2977267"><ele>502.6666666666667</ele><time>2026-04-11T08:54:15.999Z</time></trkpt><trkpt lat="41.9397883" lon="2.29772"><ele>503.0</ele><time>2026-04-11T08:54:16.999Z</time></trkpt><trkpt lat="41.9397017" lon="2.2977333"><ele>503.33333333333337</ele><time>2026-04-11T08:54:17.999Z</time></trkpt><trkpt lat="41.9396217" lon="2.2977417"><ele>503.6666666666667</ele><time>2026-04-11T08:54:18.999Z</time></trkpt><trkpt lat="41.9395567" lon="2.2977367"><ele>504.0</ele><time>2026-04-11T08:54:19.999Z</time></trkpt><trkpt lat="41.9394633" lon="2.2977133"><ele>504.0</ele><time>2026-04-11T08:54:21.999Z</time></trkpt><trkpt lat="41.9394083" lon="2.2976717"><ele>504.0</ele><time>2026-04-11T08:54:23.999Z</time></trkpt><trkpt lat="41.9393367" lon="2.2976517"><ele>504.0</ele><time>2026-04-11T08:54:25.999Z</time></trkpt><trkpt lat="41.93921" lon="2.297645"><ele>504.0</ele><time>2026-04-11T08:54:27.999Z</time></trkpt><trkpt lat="41.9391167" lon="2.29763"><ele>504.0</ele><time>2026-04-11T08:54:28.999Z</time></trkpt><trkpt lat="41.9390117" lon="2.2976017"><ele>504.0</ele><time>2026-04-11T08:54:29.999Z</time></trkpt><trkpt lat="41.93891" lon="2.29758"><ele>504.0</ele><time>2026-04-11T08:54:30.999Z</time></trkpt><trkpt lat="41.9387917" lon="2.2975533"><ele>504.0</ele><time>2026-04-11T08:54:31.999Z</time></trkpt><trkpt lat="41.9386683" lon="2.2975283"><ele>504.0</ele><time>2026-04-11T08:54:32.999Z</time></trkpt><trkpt lat="41.938535" lon="2.2975217"><ele>504.0</ele><time>2026-04-11T08:54:33.999Z</time></trkpt><trkpt lat="41.93839" lon="2.2975133"><ele>504.0</ele><time>2026-04-11T08:54:35Z</time></trkpt><trkpt lat="41.9382517" lon="2.297495"><ele>504.0</ele><time>2026-04-11T08:54:35.999Z</time></trkpt><trkpt lat="41.9381233" lon="2.2974633"><ele>504.0</ele><time>2026-04-11T08:54:36.999Z</time></trkpt><trkpt lat="41.9379917" lon="2.2974083"><ele>503.5</ele><time>2026-04-11T08:54:37.999Z</time></trkpt><trkpt lat="41.937865" lon="2.2973467"><ele>503.0</ele><time>2026-04-11T08:54:38.999Z</time></trkpt><trkpt lat="41.9377433" lon="2.2972867"><ele>502.5</ele><time>2026-04-11T08:54:39.999Z</time></trkpt><trkpt lat="41.9376283" lon="2.2972333"><ele>502.0</ele><time>2026-04-11T08:54:40.999Z</time></trkpt><trkpt lat="41.937525" lon="2.29719"><ele>501.1666666666667</ele><time>2026-04-11T08:54:41.999Z</time></trkpt><trkpt lat="41.9374333" lon="2.2971417"><ele>500.33333333333337</ele><time>2026-04-11T08:54:42.999Z</time></trkpt><trkpt lat="41.937355" lon="2.2970983"><ele>499.5</ele><time>2026-04-11T08:54:43.999Z</time></trkpt><trkpt lat="41.937275" lon="2.2970633"><ele>498.66666666666663</ele><time>2026-04-11T08:54:44.999Z</time></trkpt><trkpt lat="41.93719" lon="2.2970433"><ele>497.8333333333333</ele><time>2026-04-11T08:54:45.999Z</time></trkpt><trkpt lat="41.9370967" lon="2.2970433"><ele>497.0</ele><time>2026-04-11T08:54:46.999Z</time></trkpt><trkpt lat="41.936995" lon="2.2970683"><ele>496.99999999999994</ele><time>2026-04-11T08:54:47.999Z</time></trkpt><trkpt lat="41.9369033" lon="2.297095"><ele>497.0</ele><time>2026-04-11T08:54:48.999Z</time></trkpt><trkpt lat="41.9368233" lon="2.2971283"><ele>497.0</ele><time>2026-04-11T08:54:49.999Z</time></trkpt><trkpt lat="41.9367567" lon="2.2971583"><ele>497.0</ele><time>2026-04-11T08:54:50.999Z</time></trkpt><trkpt lat="41.9366933" lon="2.29719"><ele>496.99999999999994</ele><time>2026-04-11T08:54:52Z</time></trkpt><trkpt lat="41.93663" lon="2.297225"><ele>497.0</ele><time>2026-04-11T08:54:52.999Z</time></trkpt><trkpt lat="41.9365067" lon="2.297245"><ele>497.99999999999994</ele><time>2026-04-11T08:54:55Z</time></trkpt><trkpt lat="41.9364317" lon="2.2972567"><ele>499.0</ele><time>2026-04-11T08:54:55.999Z</time></trkpt><trkpt lat="41.9363583" lon="2.29728"><ele>500.0</ele><time>2026-04-11T08:54:56.999Z</time></trkpt><trkpt lat="41.936275" lon="2.2973183"><ele>501.0</ele><time>2026-04-11T08:54:57.999Z</time></trkpt><trkpt lat="41.936185" lon="2.29736"><ele>501.99999999999994</ele><time>2026-04-11T08:54:58.999Z</time></trkpt><trkpt lat="41.9360833" lon="2.2973933"><ele>503.0</ele><time>2026-04-11T08:54:59.999Z</time></trkpt><trkpt lat="41.9359717" lon="2.29742"><ele>502.79999999999995</ele><time>2026-04-11T08:55:00.999Z</time></trkpt><trkpt lat="41.9358567" lon="2.2974517"><ele>502.59999999999997</ele><time>2026-04-11T08:55:02Z</time></trkpt><trkpt lat="41.9357467" lon="2.2974883"><ele>502.40000000000003</ele><time>2026-04-11T08:55:02.999Z</time></trkpt><trkpt lat="41.935655" lon="2.297535"><ele>502.20000000000005</ele><time>2026-04-11T08:55:03.999Z</time></trkpt><trkpt lat="41.9355833" lon="2.2975917"><ele>502.0</ele><time>2026-04-11T08:55:04.999Z</time></trkpt><trkpt lat="41.935535" lon="2.2976633"><ele>502.00000000000006</ele><time>2026-04-11T08:55:05.999Z</time></trkpt><trkpt lat="41.9355133" lon="2.2977433"><ele>502.0</ele><time>2026-04-11T08:55:06.999Z</time></trkpt><trkpt lat="41.93552" lon="2.2978283"><ele>502.0</ele><time>2026-04-11T08:55:07.999Z</time></trkpt><trkpt lat="41.9355467" lon="2.29792"><ele>502.0</ele><time>2026-04-11T08:55:08.999Z</time></trkpt><trkpt lat="41.935555" lon="2.29805"><ele>502.00000000000006</ele><time>2026-04-11T08:55:10.999Z</time></trkpt><trkpt lat="41.9354817" lon="2.29806"><ele>502.0</ele><time>2026-04-11T08:55:13.999Z</time></trkpt><trkpt lat="41.9354417" lon="2.297935"><ele>502.00000000000006</ele><time>2026-04-11T08:55:15.999Z</time></trkpt><trkpt lat="41.9354217" lon="2.29784"><ele>502.0</ele><time>2026-04-11T08:55:16.999Z</time></trkpt><trkpt lat="41.9354033" lon="2.297735"><ele>502.0</ele><time>2026-04-11T08:55:17.999Z</time></trkpt><trkpt lat="41.9353817" lon="2.2976267"><ele>502.0</ele><time>2026-04-11T08:55:18.999Z</time></trkpt><trkpt lat="41.9353583" lon="2.29752"><ele>502.00000000000006</ele><time>2026-04-11T08:55:19.999Z</time></trkpt><trkpt lat="41.9353267" lon="2.2974067"><ele>502.0</ele><time>2026-04-11T08:55:20.999Z</time></trkpt><trkpt lat="41.9353017" lon="2.2973033"><ele>502.00000000000006</ele><time>2026-04-11T08:55:22Z</time></trkpt><trkpt lat="41.9352667" lon="2.2971933"><ele>502.0</ele><time>2026-04-11T08:55:22.999Z</time></trkpt><trkpt lat="41.9352283" lon="2.297085"><ele>502.0</ele><time>2026-04-11T08:55:23.999Z</time></trkpt><trkpt lat="41.935215" lon="2.2969883"><ele>502.0</ele><time>2026-04-11T08:55:25Z</time></trkpt><trkpt lat="41.93518" lon="2.2968867"><ele>502.00000000000006</ele><time>2026-04-11T08:55:25.999Z</time></trkpt><trkpt lat="41.9350933" lon="2.2968167"><ele>502.0</ele><time>2026-04-11T08:55:26.998Z</time></trkpt><trkpt lat="41.9349933" lon="2.2967583"><ele>502.00000000000006</ele><time>2026-04-11T08:55:27.998Z</time></trkpt><trkpt lat="41.9348967" lon="2.2966883"><ele>502.0</ele><time>2026-04-11T08:55:28.998Z</time></trkpt><trkpt lat="41.9348133" lon="2.2966067"><ele>502.0</ele><time>2026-04-11T08:55:29.998Z</time></trkpt><trkpt lat="41.9347583" lon="2.2965233"><ele>502.0</ele><time>2026-04-11T08:55:30.998Z</time></trkpt><trkpt lat="41.9347167" lon="2.2964317"><ele>502.00000000000006</ele><time>2026-04-11T08:55:31.998Z</time></trkpt><trkpt lat="41.9346733" lon="2.296355"><ele>502.0</ele><time>2026-04-11T08:55:32.998Z</time></trkpt><trkpt lat="41.9346167" lon="2.2963067"><ele>502.0</ele><time>2026-04-11T08:55:33.998Z</time></trkpt><trkpt lat="41.9345467" lon="2.2962917"><ele>502.00000000000006</ele><time>2026-04-11T08:55:34.998Z</time></trkpt><trkpt lat="41.9344583" lon="2.2963133"><ele>502.00000000000006</ele><time>2026-04-11T08:55:35.998Z</time></trkpt><trkpt lat="41.934355" lon="2.296345"><ele>502.0</ele><time>2026-04-11T08:55:36.998Z</time></trkpt><trkpt lat="41.9342533" lon="2.2963983"><ele>502.0</ele><time>2026-04-11T08:55:37.998Z</time></trkpt><trkpt lat="41.934135" lon="2.29645"><ele>501.75</ele><time>2026-04-11T08:55:38.998Z</time></trkpt><trkpt lat="41.9340183" lon="2.296485"><ele>501.5</ele><time>2026-04-11T08:55:39.998Z</time></trkpt><trkpt lat="41.933895" lon="2.2965017"><ele>501.25</ele><time>2026-04-11T08:55:40.998Z</time></trkpt><trkpt lat="41.93376" lon="2.2965117"><ele>501.0</ele><time>2026-04-11T08:55:41.998Z</time></trkpt><trkpt lat="41.933615" lon="2.2965017"><ele>501.0</ele><time>2026-04-11T08:55:42.998Z</time></trkpt><trkpt lat="41.9334783" lon="2.2965017"><ele>501.0</ele><time>2026-04-11T08:55:43.998Z</time></trkpt><trkpt lat="41.93335" lon="2.296515"><ele>501.0</ele><time>2026-04-11T08:55:44.998Z</time></trkpt><trkpt lat="41.9332283" lon="2.296525"><ele>501.0</ele><time>2026-04-11T08:55:45.998Z</time></trkpt><trkpt lat="41.93311" lon="2.2965317"><ele>501.5</ele><time>2026-04-11T08:55:46.998Z</time></trkpt><trkpt lat="41.9329867" lon="2.2965417"><ele>502.0</ele><time>2026-04-11T08:55:47.998Z</time></trkpt><trkpt lat="41.93286" lon="2.2965417"><ele>502.5</ele><time>2026-04-11T08:55:48.998Z</time></trkpt><trkpt lat="41.9327317" lon="2.29653"><ele>503.0</ele><time>2026-04-11T08:55:49.998Z</time></trkpt><trkpt lat="41.9326167" lon="2.29651"><ele>504.25</ele><time>2026-04-11T08:55:50.998Z</time></trkpt><trkpt lat="41.9325083" lon="2.2964883"><ele>505.5</ele><time>2026-04-11T08:55:51.998Z</time></trkpt><trkpt lat="41.9323983" lon="2.296485"><ele>506.75</ele><time>2026-04-11T08:55:52.998Z</time></trkpt><trkpt lat="41.9322783" lon="2.2965067"><ele>508.0</ele><time>2026-04-11T08:55:53.998Z</time></trkpt><trkpt lat="41.9321533" lon="2.2965483"><ele>508.0</ele><time>2026-04-11T08:55:54.998Z</time></trkpt><trkpt lat="41.932035" lon="2.2965917"><ele>508.0</ele><time>2026-04-11T08:55:55.998Z</time></trkpt><trkpt lat="41.93192" lon="2.29663"><ele>508.0</ele><time>2026-04-11T08:55:56.998Z</time></trkpt><trkpt lat="41.9318167" lon="2.2966683"><ele>508.0</ele><time>2026-04-11T08:55:57.998Z</time></trkpt><trkpt lat="41.93171" lon="2.296705"><ele>507.75</ele><time>2026-04-11T08:55:58.998Z</time></trkpt><trkpt lat="41.93161" lon="2.296755"><ele>507.5</ele><time>2026-04-11T08:55:59.998Z</time></trkpt><trkpt lat="41.9315" lon="2.2968317"><ele>507.25</ele><time>2026-04-11T08:56:00.998Z</time></trkpt><trkpt lat="41.931395" lon="2.2969183"><ele>507.0</ele><time>2026-04-11T08:56:01.998Z</time></trkpt><trkpt lat="41.9312983" lon="2.2970067"><ele>507.0</ele><time>2026-04-11T08:56:02.998Z</time></trkpt><trkpt lat="41.9312117" lon="2.29707"><ele>507.00000000000006</ele><time>2026-04-11T08:56:03.998Z</time></trkpt><trkpt lat="41.93112" lon="2.2971333"><ele>507.00000000000006</ele><time>2026-04-11T08:56:04.998Z</time></trkpt><trkpt lat="41.9310283" lon="2.2972"><ele>507.0</ele><time>2026-04-11T08:56:05.998Z</time></trkpt><trkpt lat="41.9309317" lon="2.2972783"><ele>507.0</ele><time>2026-04-11T08:56:06.998Z</time></trkpt><trkpt lat="41.9308267" lon="2.2973583"><ele>507.5</ele><time>2026-04-11T08:56:07.998Z</time></trkpt><trkpt lat="41.9307283" lon="2.2974433"><ele>508.0</ele><time>2026-04-11T08:56:08.998Z</time></trkpt><trkpt lat="41.9306333" lon="2.2975283"><ele>508.5</ele><time>2026-04-11T08:56:09.998Z</time></trkpt><trkpt lat="41.9305367" lon="2.2975983"><ele>509.0</ele><time>2026-04-11T08:56:10.998Z</time></trkpt><trkpt lat="41.9304217" lon="2.297655"><ele>509.0</ele><time>2026-04-11T08:56:11.998Z</time></trkpt><trkpt lat="41.930305" lon="2.2977133"><ele>509.0</ele><time>2026-04-11T08:56:12.998Z</time></trkpt><trkpt lat="41.9302" lon="2.29778"><ele>509.0</ele><time>2026-04-11T08:56:13.998Z</time></trkpt><trkpt lat="41.9301" lon="2.2978583"><ele>509.0</ele><time>2026-04-11T08:56:14.999Z</time></trkpt><trkpt lat="41.9300167" lon="2.29794"><ele>508.99999999999994</ele><time>2026-04-11T08:56:15.998Z</time></trkpt><trkpt lat="41.92994" lon="2.29801"><ele>509.0</ele><time>2026-04-11T08:56:16.998Z</time></trkpt><trkpt lat="41.9298583" lon="2.29805"><ele>509.0</ele><time>2026-04-11T08:56:17.998Z</time></trkpt><trkpt lat="41.92978" lon="2.298065"><ele>509.0</ele><time>2026-04-11T08:56:18.998Z</time></trkpt><trkpt lat="41.929695" lon="2.2980517"><ele>508.99999999999994</ele><time>2026-04-11T08:56:19.998Z</time></trkpt><trkpt lat="41.92962" lon="2.298"><ele>509.0</ele><time>2026-04-11T08:56:20.998Z</time></trkpt><trkpt lat="41.9295483" lon="2.2979183"><ele>509.0</ele><time>2026-04-11T08:56:21.998Z</time></trkpt><trkpt lat="41.9294883" lon="2.297775"><ele>509.0</ele><time>2026-04-11T08:56:22.998Z</time></trkpt><trkpt lat="41.9294333" lon="2.2976317"><ele>509.0</ele><time>2026-04-11T08:56:23.998Z</time></trkpt><trkpt lat="41.92937" lon="2.2974733"><ele>509.0</ele><time>2026-04-11T08:56:24.998Z</time></trkpt><trkpt lat="41.9293017" lon="2.2973183"><ele>509.25</ele><time>2026-04-11T08:56:25.998Z</time></trkpt><trkpt lat="41.9292217" lon="2.2971817"><ele>509.5</ele><time>2026-04-11T08:56:26.998Z</time></trkpt><trkpt lat="41.9291367" lon="2.2970817"><ele>509.75</ele><time>2026-04-11T08:56:27.998Z</time></trkpt><trkpt lat="41.92904" lon="2.2970133"><ele>510.0</ele><time>2026-04-11T08:56:28.998Z</time></trkpt><trkpt lat="41.9289383" lon="2.2969733"><ele>510.0</ele><time>2026-04-11T08:56:29.998Z</time></trkpt><trkpt lat="41.92884" lon="2.2969383"><ele>510.0</ele><time>2026-04-11T08:56:30.998Z</time></trkpt><trkpt lat="41.9287517" lon="2.2969083"><ele>510.0</ele><time>2026-04-11T08:56:31.998Z</time></trkpt><trkpt lat="41.9286683" lon="2.296895"><ele>510.0</ele><time>2026-04-11T08:56:32.998Z</time></trkpt><trkpt lat="41.928595" lon="2.2968917"><ele>510.0</ele><time>2026-04-11T08:56:33.998Z</time></trkpt><trkpt lat="41.9285217" lon="2.2969033"><ele>510.0</ele><time>2026-04-11T08:56:34.998Z</time></trkpt><trkpt lat="41.9284117" lon="2.296905"><ele>509.8</ele><time>2026-04-11T08:56:36.998Z</time></trkpt><trkpt lat="41.928325" lon="2.2968233"><ele>509.6</ele><time>2026-04-11T08:56:38.998Z</time></trkpt><trkpt lat="41.9282833" lon="2.29673"><ele>509.4</ele><time>2026-04-11T08:56:39.998Z</time></trkpt><trkpt lat="41.92823" lon="2.2966083"><ele>509.2</ele><time>2026-04-11T08:56:40.998Z</time></trkpt><trkpt lat="41.9281733" lon="2.2964767"><ele>509.0</ele><time>2026-04-11T08:56:41.998Z</time></trkpt><trkpt lat="41.9281117" lon="2.2963283"><ele>508.25</ele><time>2026-04-11T08:56:42.998Z</time></trkpt><trkpt lat="41.9280383" lon="2.29617"><ele>507.5</ele><time>2026-04-11T08:56:43.998Z</time></trkpt><trkpt lat="41.9279633" lon="2.2960017"><ele>506.75</ele><time>2026-04-11T08:56:44.998Z</time></trkpt><trkpt lat="41.9278833" lon="2.2958383"><ele>506.0</ele><time>2026-04-11T08:56:45.998Z</time></trkpt><trkpt lat="41.9278083" lon="2.2956817"><ele>506.4</ele><time>2026-04-11T08:56:46.998Z</time></trkpt><trkpt lat="41.92774" lon="2.2955317"><ele>506.8</ele><time>2026-04-11T08:56:47.998Z</time></trkpt><trkpt lat="41.9276767" lon="2.295395"><ele>507.19999999999993</ele><time>2026-04-11T08:56:48.998Z</time></trkpt><trkpt lat="41.9276267" lon="2.29528"><ele>507.59999999999997</ele><time>2026-04-11T08:56:49.998Z</time></trkpt><trkpt lat="41.9275883" lon="2.2951717"><ele>508.0</ele><time>2026-04-11T08:56:50.998Z</time></trkpt><trkpt lat="41.92756" lon="2.2950883"><ele>508.00000000000006</ele><time>2026-04-11T08:56:51.998Z</time></trkpt><trkpt lat="41.9275283" lon="2.29501"><ele>508.0</ele><time>2026-04-11T08:56:56.998Z</time></trkpt><trkpt lat="41.9274533" lon="2.2950367"><ele>508.0</ele><time>2026-04-11T08:56:58.999Z</time></trkpt><trkpt lat="41.9273267" lon="2.2950267"><ele>508.0</ele><time>2026-04-11T08:57:00.998Z</time></trkpt><trkpt lat="41.9272467" lon="2.2950083"><ele>508.00000000000006</ele><time>2026-04-11T08:57:01.998Z</time></trkpt><trkpt lat="41.9271683" lon="2.295005"><ele>508.0</ele><time>2026-04-11T08:57:02.998Z</time></trkpt><trkpt lat="41.9271017" lon="2.2950167"><ele>508.0</ele><time>2026-04-11T08:57:03.998Z</time></trkpt><trkpt lat="41.9269917" lon="2.2950833"><ele>507.99999999999994</ele><time>2026-04-11T08:57:05.998Z</time></trkpt><trkpt lat="41.9269383" lon="2.29515"><ele>507.99999999999994</ele><time>2026-04-11T08:57:06.998Z</time></trkpt><trkpt lat="41.9268717" lon="2.2952283"><ele>508.0</ele><time>2026-04-11T08:57:07.998Z</time></trkpt><trkpt lat="41.9267867" lon="2.2953283"><ele>508.0</ele><time>2026-04-11T08:57:08.998Z</time></trkpt><trkpt lat="41.9266867" lon="2.2954333"><ele>508.79999999999995</ele><time>2026-04-11T08:57:09.998Z</time></trkpt><trkpt lat="41.9265983" lon="2.2955283"><ele>509.59999999999997</ele><time>2026-04-11T08:57:10.999Z</time></trkpt><trkpt lat="41.926515" lon="2.2956083"><ele>510.40000000000003</ele><time>2026-04-11T08:57:11.998Z</time></trkpt><trkpt lat="41.9264467" lon="2.2956783"><ele>511.20000000000005</ele><time>2026-04-11T08:57:12.998Z</time></trkpt><trkpt lat="41.9263767" lon="2.2957367"><ele>512.0</ele><time>2026-04-11T08:57:13.998Z</time></trkpt><trkpt lat="41.92632" lon="2.2957967"><ele>511.99999999999994</ele><time>2026-04-11T08:57:14.998Z</time></trkpt><trkpt lat="41.9262733" lon="2.2958667"><ele>512.0</ele><time>2026-04-11T08:57:15.998Z</time></trkpt><trkpt lat="41.9262283" lon="2.2959367"><ele>512.0</ele><time>2026-04-11T08:57:16.998Z</time></trkpt><trkpt lat="41.92617" lon="2.29602"><ele>512.0</ele><time>2026-04-11T08:57:17.998Z</time></trkpt><trkpt lat="41.926095" lon="2.2960917"><ele>511.99999999999994</ele><time>2026-04-11T08:57:18.998Z</time></trkpt><trkpt lat="41.926025" lon="2.296145"><ele>512.0</ele><time>2026-04-11T08:57:19.998Z</time></trkpt><trkpt lat="41.9259533" lon="2.29614"><ele>512.2</ele><time>2026-04-11T08:57:20.998Z</time></trkpt><trkpt lat="41.92585" lon="2.2960567"><ele>512.4000000000001</ele><time>2026-04-11T08:57:22.998Z</time></trkpt><trkpt lat="41.9257967" lon="2.2959717"><ele>512.5999999999999</ele><time>2026-04-11T08:57:23.998Z</time></trkpt><trkpt lat="41.92572" lon="2.29587"><ele>512.8</ele><time>2026-04-11T08:57:24.998Z</time></trkpt><trkpt lat="41.9256267" lon="2.2958067"><ele>513.0</ele><time>2026-04-11T08:57:25.998Z</time></trkpt><trkpt lat="41.9255267" lon="2.29578"><ele>513.0</ele><time>2026-04-11T08:57:26.998Z</time></trkpt><trkpt lat="41.9254333" lon="2.2957767"><ele>513.0</ele><time>2026-04-11T08:57:27.998Z</time></trkpt><trkpt lat="41.9253417" lon="2.29581"><ele>513.0</ele><time>2026-04-11T08:57:28.998Z</time></trkpt><trkpt lat="41.9252417" lon="2.2958733"><ele>513.0</ele><time>2026-04-11T08:57:29.998Z</time></trkpt><trkpt lat="41.9251217" lon="2.2959567"><ele>513.0</ele><time>2026-04-11T08:57:30.998Z</time></trkpt><trkpt lat="41.9249983" lon="2.2960333"><ele>512.5</ele><time>2026-04-11T08:57:31.998Z</time></trkpt><trkpt lat="41.9248767" lon="2.2961117"><ele>512.0</ele><time>2026-04-11T08:57:32.998Z</time></trkpt><trkpt lat="41.924755" lon="2.2961933"><ele>511.5</ele><time>2026-04-11T08:57:33.998Z</time></trkpt><trkpt lat="41.924635" lon="2.2962617"><ele>511.0</ele><time>2026-04-11T08:57:34.999Z</time></trkpt><trkpt lat="41.924525" lon="2.296335"><ele>511.0</ele><time>2026-04-11T08:57:35.998Z</time></trkpt><trkpt lat="41.9244133" lon="2.29641"><ele>511.0</ele><time>2026-04-11T08:57:36.998Z</time></trkpt><trkpt lat="41.924295" lon="2.2964917"><ele>511.0</ele><time>2026-04-11T08:57:37.998Z</time></trkpt><trkpt lat="41.9241817" lon="2.296575"><ele>511.0</ele><time>2026-04-11T08:57:38.998Z</time></trkpt><trkpt lat="41.9240783" lon="2.2966667"><ele>511.75</ele><time>2026-04-11T08:57:39.998Z</time></trkpt><trkpt lat="41.9239717" lon="2.2967467"><ele>512.5</ele><time>2026-04-11T08:57:40.998Z</time></trkpt><trkpt lat="41.923845" lon="2.2968017"><ele>513.25</ele><time>2026-04-11T08:57:41.998Z</time></trkpt><trkpt lat="41.9237167" lon="2.2968333"><ele>514.0</ele><time>2026-04-11T08:57:42.998Z</time></trkpt><trkpt lat="41.923595" lon="2.29687"><ele>514.0</ele><time>2026-04-11T08:57:43.998Z</time></trkpt><trkpt lat="41.9234817" lon="2.2969117"><ele>514.0</ele><time>2026-04-11T08:57:44.998Z</time></trkpt><trkpt lat="41.9233783" lon="2.2969667"><ele>514.0</ele><time>2026-04-11T08:57:45.998Z</time></trkpt><trkpt lat="41.9232767" lon="2.29702"><ele>514.0</ele><time>2026-04-11T08:57:46.998Z</time></trkpt><trkpt lat="41.9231783" lon="2.2970833"><ele>514.0</ele><time>2026-04-11T08:57:47.998Z</time></trkpt><trkpt lat="41.9230783" lon="2.297165"><ele>513.25</ele><time>2026-04-11T08:57:48.998Z</time></trkpt><trkpt lat="41.9229683" lon="2.2972433"><ele>512.5</ele><time>2026-04-11T08:57:49.998Z</time></trkpt><trkpt lat="41.92287" lon="2.2973183"><ele>511.75</ele><time>2026-04-11T08:57:50.998Z</time></trkpt><trkpt lat="41.9227667" lon="2.2973783"><ele>511.0</ele><time>2026-04-11T08:57:51.998Z</time></trkpt><trkpt lat="41.9226617" lon="2.29744"><ele>511.75</ele><time>2026-04-11T08:57:52.998Z</time></trkpt><trkpt lat="41.92256" lon="2.2975117"><ele>512.5</ele><time>2026-04-11T08:57:53.998Z</time></trkpt><trkpt lat="41.9224533" lon="2.2975917"><ele>513.25</ele><time>2026-04-11T08:57:54.998Z</time></trkpt><trkpt lat="41.9223433" lon="2.2976733"><ele>514.0</ele><time>2026-04-11T08:57:55.998Z</time></trkpt><trkpt lat="41.9222383" lon="2.297765"><ele>514.0</ele><time>2026-04-11T08:57:56.998Z</time></trkpt><trkpt lat="41.9221383" lon="2.297865"><ele>514.0</ele><time>2026-04-11T08:57:57.998Z</time></trkpt><trkpt lat="41.9220317" lon="2.2979733"><ele>514.0</ele><time>2026-04-11T08:57:58.998Z</time></trkpt><trkpt lat="41.92192" lon="2.2980767"><ele>514.0</ele><time>2026-04-11T08:57:59.998Z</time></trkpt><trkpt lat="41.9218117" lon="2.2981683"><ele>516.0</ele><time>2026-04-11T08:58:00.998Z</time></trkpt><trkpt lat="41.9216983" lon="2.29827"><ele>518.0</ele><time>2026-04-11T08:58:01.998Z</time></trkpt><trkpt lat="41.9215933" lon="2.2983733"><ele>520.0</ele><time>2026-04-11T08:58:02.998Z</time></trkpt><trkpt lat="41.9214917" lon="2.29848"><ele>522.0</ele><time>2026-04-11T08:58:03.998Z</time></trkpt><trkpt lat="41.9214017" lon="2.298565"><ele>522.0</ele><time>2026-04-11T08:58:04.999Z</time></trkpt><trkpt lat="41.9213033" lon="2.2986567"><ele>522.0</ele><time>2026-04-11T08:58:05.998Z</time></trkpt><trkpt lat="41.9212033" lon="2.29874"><ele>522.0</ele><time>2026-04-11T08:58:06.998Z</time></trkpt><trkpt lat="41.92109" lon="2.29881"><ele>522.0</ele><time>2026-04-11T08:58:07.998Z</time></trkpt><trkpt lat="41.9209567" lon="2.2988733"><ele>523.0</ele><time>2026-04-11T08:58:08.998Z</time></trkpt><trkpt lat="41.920835" lon="2.2989467"><ele>524.0</ele><time>2026-04-11T08:58:09.998Z</time></trkpt><trkpt lat="41.9207133" lon="2.299015"><ele>525.0</ele><time>2026-04-11T08:58:10.998Z</time></trkpt><trkpt lat="41.9205967" lon="2.2990733"><ele>526.0</ele><time>2026-04-11T08:58:11.998Z</time></trkpt><trkpt lat="41.9204833" lon="2.2991317"><ele>526.0</ele><time>2026-04-11T08:58:12.998Z</time></trkpt><trkpt lat="41.9203817" lon="2.2991833"><ele>526.0</ele><time>2026-04-11T08:58:13.998Z</time></trkpt><trkpt lat="41.9202833" lon="2.2992467"><ele>526.0</ele><time>2026-04-11T08:58:14.998Z</time></trkpt><trkpt lat="41.9201883" lon="2.2993083"><ele>526.0</ele><time>2026-04-11T08:58:15.998Z</time></trkpt><trkpt lat="41.9200967" lon="2.2993667"><ele>526.0</ele><time>2026-04-11T08:58:16.998Z</time></trkpt><trkpt lat="41.9200183" lon="2.2993983"><ele>525.0</ele><time>2026-04-11T08:58:17.998Z</time></trkpt><trkpt lat="41.9199267" lon="2.2994117"><ele>524.0</ele><time>2026-04-11T08:58:18.999Z</time></trkpt><trkpt lat="41.9198383" lon="2.2994033"><ele>523.0</ele><time>2026-04-11T08:58:19.998Z</time></trkpt><trkpt lat="41.919755" lon="2.2993583"><ele>522.0</ele><time>2026-04-11T08:58:20.998Z</time></trkpt><trkpt lat="41.9196733" lon="2.2992583"><ele>521.0</ele><time>2026-04-11T08:58:21.998Z</time></trkpt><trkpt lat="41.9195883" lon="2.2991467"><ele>521.0</ele><time>2026-04-11T08:58:22.998Z</time></trkpt><trkpt lat="41.9194933" lon="2.2990367"><ele>521.0</ele><time>2026-04-11T08:58:23.998Z</time></trkpt><trkpt lat="41.9193883" lon="2.298915"><ele>521.0</ele><time>2026-04-11T08:58:24.998Z</time></trkpt><trkpt lat="41.919275" lon="2.2988133"><ele>521.0</ele><time>2026-04-11T08:58:25.998Z</time></trkpt><trkpt lat="41.919175" lon="2.2987167"><ele>520.6</ele><time>2026-04-11T08:58:26.998Z</time></trkpt><trkpt lat="41.9190867" lon="2.298625"><ele>520.2</ele><time>2026-04-11T08:58:27.998Z</time></trkpt><trkpt lat="41.9190117" lon="2.29853"><ele>519.8</ele><time>2026-04-11T08:58:28.998Z</time></trkpt><trkpt lat="41.9189567" lon="2.2984417"><ele>519.4</ele><time>2026-04-11T08:58:29.998Z</time></trkpt><trkpt lat="41.91892" lon="2.2983267"><ele>519.0</ele><time>2026-04-11T08:58:30.998Z</time></trkpt><trkpt lat="41.9188933" lon="2.2981833"><ele>519.0</ele><time>2026-04-11T08:58:31.999Z</time></trkpt><trkpt lat="41.9188933" lon="2.298065"><ele>519.0</ele><time>2026-04-11T08:58:32.998Z</time></trkpt><trkpt lat="41.9188783" lon="2.2979367"><ele>519.0</ele><time>2026-04-11T08:58:33.998Z</time></trkpt><trkpt lat="41.9188467" lon="2.2978017"><ele>519.0</ele><time>2026-04-11T08:58:34.998Z</time></trkpt><trkpt lat="41.918795" lon="2.2976783"><ele>519.0</ele><time>2026-04-11T08:58:35.998Z</time></trkpt><trkpt lat="41.9187217" lon="2.2975733"><ele>519.0</ele><time>2026-04-11T08:58:36.998Z</time></trkpt><trkpt lat="41.9186183" lon="2.2974733"><ele>519.0</ele><time>2026-04-11T08:58:37.998Z</time></trkpt><trkpt lat="41.9184967" lon="2.2973833"><ele>519.0</ele><time>2026-04-11T08:58:38.998Z</time></trkpt><trkpt lat="41.91837" lon="2.2973067"><ele>519.0</ele><time>2026-04-11T08:58:39.998Z</time></trkpt><trkpt lat="41.9182533" lon="2.2972517"><ele>519.2</ele><time>2026-04-11T08:58:40.998Z</time></trkpt><trkpt lat="41.9181467" lon="2.297225"><ele>519.4</ele><time>2026-04-11T08:58:41.998Z</time></trkpt><trkpt lat="41.918055" lon="2.29722"><ele>519.6</ele><time>2026-04-11T08:58:42.998Z</time></trkpt><trkpt lat="41.917975" lon="2.2972217"><ele>519.8</ele><time>2026-04-11T08:58:43.998Z</time></trkpt><trkpt lat="41.9178667" lon="2.297255"><ele>520.0</ele><time>2026-04-11T08:58:45.999Z</time></trkpt><trkpt lat="41.9178217" lon="2.2973183"><ele>520.6666666666667</ele><time>2026-04-11T08:58:46.998Z</time></trkpt><trkpt lat="41.9177817" lon="2.2974083"><ele>521.3333333333334</ele><time>2026-04-11T08:58:47.998Z</time></trkpt><trkpt lat="41.917735" lon="2.2974883"><ele>522.0</ele><time>2026-04-11T08:58:48.998Z</time></trkpt><trkpt lat="41.9176783" lon="2.2975567"><ele>522.6666666666666</ele><time>2026-04-11T08:58:49.998Z</time></trkpt><trkpt lat="41.91761" lon="2.2976033"><ele>523.3333333333333</ele><time>2026-04-11T08:58:50.998Z</time></trkpt><trkpt lat="41.91754" lon="2.29763"><ele>524.0</ele><time>2026-04-11T08:58:51.998Z</time></trkpt><trkpt lat="41.9174633" lon="2.29758"><ele>524.4</ele><time>2026-04-11T08:58:53.998Z</time></trkpt><trkpt lat="41.9174117" lon="2.2975283"><ele>524.8</ele><time>2026-04-11T08:58:56.998Z</time></trkpt><trkpt lat="41.9173467" lon="2.2975833"><ele>525.2</ele><time>2026-04-11T08:58:59.998Z</time></trkpt><trkpt lat="41.9172317" lon="2.2977167"><ele>525.6</ele><time>2026-04-11T08:59:01.999Z</time></trkpt><trkpt lat="41.9171633" lon="2.297795"><ele>526.0</ele><time>2026-04-11T08:59:02.998Z</time></trkpt><trkpt lat="41.917095" lon="2.29787"><ele>526.0</ele><time>2026-04-11T08:59:03.998Z</time></trkpt><trkpt lat="41.9170333" lon="2.2979467"><ele>526.0</ele><time>2026-04-11T08:59:04.998Z</time></trkpt><trkpt lat="41.916975" lon="2.298005"><ele>526.0</ele><time>2026-04-11T08:59:05.998Z</time></trkpt><trkpt lat="41.9169117" lon="2.29805"><ele>526.0</ele><time>2026-04-11T08:59:06.998Z</time></trkpt><trkpt lat="41.9168517" lon="2.2980767"><ele>526.0</ele><time>2026-04-11T08:59:07.998Z</time></trkpt><trkpt lat="41.9167883" lon="2.2980817"><ele>526.0</ele><time>2026-04-11T08:59:08.998Z</time></trkpt><trkpt lat="41.9166583" lon="2.2980883"><ele>527.0</ele><time>2026-04-11T08:59:10.998Z</time></trkpt><trkpt lat="41.916575" lon="2.2981117"><ele>528.0</ele><time>2026-04-11T08:59:11.998Z</time></trkpt><trkpt lat="41.9164817" lon="2.298155"><ele>529.0</ele><time>2026-04-11T08:59:12.999Z</time></trkpt><trkpt lat="41.91638" lon="2.29821"><ele>530.0</ele><time>2026-04-11T08:59:13.998Z</time></trkpt><trkpt lat="41.916285" lon="2.298275"><ele>531.0</ele><time>2026-04-11T08:59:14.998Z</time></trkpt><trkpt lat="41.91619" lon="2.2983567"><ele>531.0</ele><time>2026-04-11T08:59:15.998Z</time></trkpt><trkpt lat="41.9161033" lon="2.2984383"><ele>531.0</ele><time>2026-04-11T08:59:16.998Z</time></trkpt><trkpt lat="41.9160117" lon="2.298515"><ele>531.0</ele><time>2026-04-11T08:59:17.998Z</time></trkpt><trkpt lat="41.91592" lon="2.2985967"><ele>531.0</ele><time>2026-04-11T08:59:18.998Z</time></trkpt><trkpt lat="41.91582" lon="2.2986683"><ele>531.0</ele><time>2026-04-11T08:59:19.998Z</time></trkpt><trkpt lat="41.9157283" lon="2.2987283"><ele>532.2</ele><time>2026-04-11T08:59:20.998Z</time></trkpt><trkpt lat="41.9156517" lon="2.2987917"><ele>533.4000000000001</ele><time>2026-04-11T08:59:21.998Z</time></trkpt><trkpt lat="41.9155833" lon="2.29886"><ele>534.6</ele><time>2026-04-11T08:59:22.998Z</time></trkpt><trkpt lat="41.9155367" lon="2.2989517"><ele>535.8000000000001</ele><time>2026-04-11T08:59:23.998Z</time></trkpt><trkpt lat="41.9155117" lon="2.2990717"><ele>537.0</ele><time>2026-04-11T08:59:24.998Z</time></trkpt><trkpt lat="41.9155067" lon="2.2992067"><ele>538.4</ele><time>2026-04-11T08:59:25.998Z</time></trkpt><trkpt lat="41.915525" lon="2.2993433"><ele>539.8000000000001</ele><time>2026-04-11T08:59:26.998Z</time></trkpt><trkpt lat="41.9155583" lon="2.29947"><ele>541.2</ele><time>2026-04-11T08:59:27.998Z</time></trkpt><trkpt lat="41.9155817" lon="2.2996033"><ele>542.6</ele><time>2026-04-11T08:59:28.998Z</time></trkpt><trkpt lat="41.9155917" lon="2.29973"><ele>544.0</ele><time>2026-04-11T08:59:29.998Z</time></trkpt><trkpt lat="41.915575" lon="2.299865"><ele>544.6</ele><time>2026-04-11T08:59:30.998Z</time></trkpt><trkpt lat="41.915535" lon="2.299985"><ele>545.2</ele><time>2026-04-11T08:59:31.998Z</time></trkpt><trkpt lat="41.9154633" lon="2.30009"><ele>545.8000000000001</ele><time>2026-04-11T08:59:32.998Z</time></trkpt><trkpt lat="41.9153717" lon="2.3001833"><ele>546.4</ele><time>2026-04-11T08:59:33.999Z</time></trkpt><trkpt lat="41.91527" lon="2.30028"><ele>547.0</ele><time>2026-04-11T08:59:34.998Z</time></trkpt><trkpt lat="41.9151483" lon="2.3003517"><ele>551.5</ele><time>2026-04-11T08:59:35.999Z</time></trkpt><trkpt lat="41.915035" lon="2.3004333"><ele>556.0</ele><time>2026-04-11T08:59:36.998Z</time></trkpt><trkpt lat="41.91492" lon="2.30051"><ele>560.5</ele><time>2026-04-11T08:59:37.998Z</time></trkpt><trkpt lat="41.9148133" lon="2.3005583"><ele>565.0</ele><time>2026-04-11T08:59:38.998Z</time></trkpt><trkpt lat="41.914725" lon="2.30058"><ele>565.0</ele><time>2026-04-11T08:59:39.998Z</time></trkpt><trkpt lat="41.914635" lon="2.30058"><ele>565.0</ele><time>2026-04-11T08:59:40.998Z</time></trkpt><trkpt lat="41.9145367" lon="2.3005317"><ele>565.0</ele><time>2026-04-11T08:59:41.998Z</time></trkpt><trkpt lat="41.9144383" lon="2.30047"><ele>565.0</ele><time>2026-04-11T08:59:42.998Z</time></trkpt><trkpt lat="41.9143417" lon="2.3004383"><ele>565.0</ele><time>2026-04-11T08:59:43.998Z</time></trkpt><trkpt lat="41.9142517" lon="2.30044"><ele>565.8</ele><time>2026-04-11T08:59:44.998Z</time></trkpt><trkpt lat="41.9141867" lon="2.3005283"><ele>566.6</ele><time>2026-04-11T08:59:45.998Z</time></trkpt><trkpt lat="41.91415" lon="2.300665"><ele>567.4</ele><time>2026-04-11T08:59:46.998Z</time></trkpt><trkpt lat="41.9141233" lon="2.300825"><ele>568.2</ele><time>2026-04-11T08:59:47.998Z</time></trkpt><trkpt lat="41.9140917" lon="2.30099"><ele>569.0</ele><time>2026-04-11T08:59:48.998Z</time></trkpt><trkpt lat="41.914055" lon="2.3011533"><ele>569.0</ele><time>2026-04-11T08:59:49.998Z</time></trkpt><trkpt lat="41.914035" lon="2.30131"><ele>569.0</ele><time>2026-04-11T08:59:50.999Z</time></trkpt><trkpt lat="41.9140133" lon="2.3014333"><ele>569.0</ele><time>2026-04-11T08:59:51.998Z</time></trkpt><trkpt lat="41.91399" lon="2.3015267"><ele>569.0</ele><time>2026-04-11T08:59:52.998Z</time></trkpt><trkpt lat="41.9139217" lon="2.3015767"><ele>569.0</ele><time>2026-04-11T08:59:54.998Z</time></trkpt><trkpt lat="41.9138517" lon="2.3015417"><ele>569.0</ele><time>2026-04-11T08:59:55.998Z</time></trkpt><trkpt lat="41.9137683" lon="2.301485"><ele>569.0</ele><time>2026-04-11T08:59:56.998Z</time></trkpt><trkpt lat="41.9136717" lon="2.3014083"><ele>569.0</ele><time>2026-04-11T08:59:57.998Z</time></trkpt><trkpt lat="41.9135717" lon="2.3013167"><ele>569.0</ele><time>2026-04-11T08:59:58.998Z</time></trkpt><trkpt lat="41.9134717" lon="2.3011967"><ele>569.0</ele><time>2026-04-11T08:59:59.998Z</time></trkpt><trkpt lat="41.9133683" lon="2.30107"><ele>571.0</ele><time>2026-04-11T09:00:00.998Z</time></trkpt><trkpt lat="41.913265" lon="2.3009433"><ele>573.0</ele><time>2026-04-11T09:00:01.998Z</time></trkpt><trkpt lat="41.9131683" lon="2.3008133"><ele>575.0</ele><time>2026-04-11T09:00:02.998Z</time></trkpt><trkpt lat="41.9130733" lon="2.3006767"><ele>577.0</ele><time>2026-04-11T09:00:03.998Z</time></trkpt><trkpt lat="41.912975" lon="2.30057"><ele>577.75</ele><time>2026-04-11T09:00:04.998Z</time></trkpt><trkpt lat="41.9128817" lon="2.3004717"><ele>578.5</ele><time>2026-04-11T09:00:05.998Z</time></trkpt><trkpt lat="41.9127767" lon="2.300375"><ele>579.25</ele><time>2026-04-11T09:00:06.998Z</time></trkpt><trkpt lat="41.9126717" lon="2.3002817"><ele>580.0</ele><time>2026-04-11T09:00:07.999Z</time></trkpt><trkpt lat="41.9125633" lon="2.3002017"><ele>580.0</ele><time>2026-04-11T09:00:08.998Z</time></trkpt><trkpt lat="41.912455" lon="2.300105"><ele>580.0</ele><time>2026-04-11T09:00:09.998Z</time></trkpt><trkpt lat="41.91237" lon="2.29997"><ele>580.0</ele><time>2026-04-11T09:00:10.998Z</time></trkpt><trkpt lat="41.9122867" lon="2.2998483"><ele>580.0</ele><time>2026-04-11T09:00:11.999Z</time></trkpt><trkpt lat="41.9122067" lon="2.2997217"><ele>579.5</ele><time>2026-04-11T09:00:12.998Z</time></trkpt><trkpt lat="41.91213" lon="2.2995733"><ele>579.0</ele><time>2026-04-11T09:00:13.998Z</time></trkpt><trkpt lat="41.9120567" lon="2.2994217"><ele>578.5</ele><time>2026-04-11T09:00:14.998Z</time></trkpt><trkpt lat="41.9119833" lon="2.2992917"><ele>578.0</ele><time>2026-04-11T09:00:15.998Z</time></trkpt><trkpt lat="41.9119167" lon="2.29917"><ele>578.0</ele><time>2026-04-11T09:00:16.998Z</time></trkpt><trkpt lat="41.9118517" lon="2.2990667"><ele>578.0</ele><time>2026-04-11T09:00:17.998Z</time></trkpt><trkpt lat="41.9117933" lon="2.29897"><ele>578.0</ele><time>2026-04-11T09:00:18.998Z</time></trkpt><trkpt lat="41.9117367" lon="2.2988817"><ele>578.0</ele><time>2026-04-11T09:00:19.998Z</time></trkpt><trkpt lat="41.9116867" lon="2.2987867"><ele>578.0</ele><time>2026-04-11T09:00:20.998Z</time></trkpt><trkpt lat="41.911635" lon="2.2986767"><ele>578.25</ele><time>2026-04-11T09:00:21.999Z</time></trkpt><trkpt lat="41.91157" lon="2.2985433"><ele>578.5</ele><time>2026-04-11T09:00:22.998Z</time></trkpt><trkpt lat="41.9115" lon="2.2984067"><ele>578.75</ele><time>2026-04-11T09:00:23.998Z</time></trkpt><trkpt lat="41.9114233" lon="2.2982717"><ele>579.0</ele><time>2026-04-11T09:00:24.998Z</time></trkpt><trkpt lat="41.9113433" lon="2.2981533"><ele>579.0</ele><time>2026-04-11T09:00:25.998Z</time></trkpt><trkpt lat="41.9112667" lon="2.298035"><ele>579.0</ele><time>2026-04-11T09:00:26.998Z</time></trkpt><trkpt lat="41.9111917" lon="2.29792"><ele>579.0</ele><time>2026-04-11T09:00:27.998Z</time></trkpt><trkpt lat="41.91113" lon="2.2977917"><ele>579.0</ele><time>2026-04-11T09:00:28.998Z</time></trkpt><trkpt lat="41.911095" lon="2.29765"><ele>579.0</ele><time>2026-04-11T09:00:29.998Z</time></trkpt><trkpt lat="41.9110817" lon="2.2974933"><ele>579.0</ele><time>2026-04-11T09:00:30.998Z</time></trkpt><trkpt lat="41.9110667" lon="2.297315"><ele>579.0</ele><time>2026-04-11T09:00:31.999Z</time></trkpt><trkpt lat="41.911025" lon="2.2971467"><ele>579.0</ele><time>2026-04-11T09:00:32.998Z</time></trkpt><trkpt lat="41.9109633" lon="2.2969917"><ele>577.25</ele><time>2026-04-11T09:00:33.998Z</time></trkpt><trkpt lat="41.9108833" lon="2.2968617"><ele>575.5</ele><time>2026-04-11T09:00:34.998Z</time></trkpt><trkpt lat="41.910795" lon="2.2967317"><ele>573.75</ele><time>2026-04-11T09:00:35.998Z</time></trkpt><trkpt lat="41.9107017" lon="2.2966167"><ele>572.0</ele><time>2026-04-11T09:00:36.999Z</time></trkpt><trkpt lat="41.9106217" lon="2.296515"><ele>572.4</ele><time>2026-04-11T09:00:37.998Z</time></trkpt><trkpt lat="41.910555" lon="2.2963983"><ele>572.8000000000001</ele><time>2026-04-11T09:00:38.998Z</time></trkpt><trkpt lat="41.9105067" lon="2.2962867"><ele>573.2</ele><time>2026-04-11T09:00:39.998Z</time></trkpt><trkpt lat="41.9104867" lon="2.2961517"><ele>573.6</ele><time>2026-04-11T09:00:40.998Z</time></trkpt><trkpt lat="41.9104883" lon="2.2960233"><ele>574.0</ele><time>2026-04-11T09:00:41.998Z</time></trkpt><trkpt lat="41.9104783" lon="2.2958967"><ele>574.0</ele><time>2026-04-11T09:00:42.998Z</time></trkpt><trkpt lat="41.9104333" lon="2.2957567"><ele>574.0</ele><time>2026-04-11T09:00:43.998Z</time></trkpt><trkpt lat="41.9103567" lon="2.2956367"><ele>574.0</ele><time>2026-04-11T09:00:44.998Z</time></trkpt><trkpt lat="41.91025" lon="2.2955317"><ele>574.0</ele><time>2026-04-11T09:00:45.998Z</time></trkpt><trkpt lat="41.9101317" lon="2.29541"><ele>570.75</ele><time>2026-04-11T09:00:46.998Z</time></trkpt><trkpt lat="41.9100217" lon="2.29529"><ele>567.5</ele><time>2026-04-11T09:00:47.999Z</time></trkpt><trkpt lat="41.909905" lon="2.2951867"><ele>564.25</ele><time>2026-04-11T09:00:48.998Z</time></trkpt><trkpt lat="41.909775" lon="2.29509"><ele>561.0</ele><time>2026-04-11T09:00:49.998Z</time></trkpt><trkpt lat="41.9096433" lon="2.295005"><ele>561.0</ele><time>2026-04-11T09:00:50.998Z</time></trkpt><trkpt lat="41.90954" lon="2.2949"><ele>561.0</ele><time>2026-04-11T09:00:51.998Z</time></trkpt><trkpt lat="41.9094383" lon="2.2947817"><ele>561.0</ele><time>2026-04-11T09:00:52.998Z</time></trkpt><trkpt lat="41.90936" lon="2.294655"><ele>561.0</ele><time>2026-04-11T09:00:53.998Z</time></trkpt><trkpt lat="41.9092683" lon="2.294535"><ele>557.5</ele><time>2026-04-11T09:00:54.998Z</time></trkpt><trkpt lat="41.90915" lon="2.29441"><ele>554.0</ele><time>2026-04-11T09:00:55.998Z</time></trkpt><trkpt lat="41.9090133" lon="2.2943433"><ele>550.5</ele><time>2026-04-11T09:00:56.998Z</time></trkpt><trkpt lat="41.9088917" lon="2.2942767"><ele>547.0</ele><time>2026-04-11T09:00:57.999Z</time></trkpt><trkpt lat="41.908785" lon="2.2941983"><ele>547.0</ele><time>2026-04-11T09:00:58.998Z</time></trkpt><trkpt lat="41.9087183" lon="2.2940767"><ele>547.0</ele><time>2026-04-11T09:00:59.999Z</time></trkpt><trkpt lat="41.9086967" lon="2.2939283"><ele>547.0</ele><time>2026-04-11T09:01:00.998Z</time></trkpt><trkpt lat="41.9086583" lon="2.2938"><ele>547.0</ele><time>2026-04-11T09:01:01.998Z</time></trkpt><trkpt lat="41.9085817" lon="2.2936967"><ele>547.0</ele><time>2026-04-11T09:01:02.998Z</time></trkpt><trkpt lat="41.9084717" lon="2.2936467"><ele>545.25</ele><time>2026-04-11T09:01:03.998Z</time></trkpt><trkpt lat="41.90835" lon="2.293615"><ele>543.5</ele><time>2026-04-11T09:01:04.999Z</time></trkpt><trkpt lat="41.908225" lon="2.2935917"><ele>541.75</ele><time>2026-04-11T09:01:05.998Z</time></trkpt><trkpt lat="41.908105" lon="2.2935567"><ele>540.0</ele><time>2026-04-11T09:01:06.998Z</time></trkpt><trkpt lat="41.90798" lon="2.2935167"><ele>540.0</ele><time>2026-04-11T09:01:07.998Z</time></trkpt><trkpt lat="41.9078467" lon="2.2934633"><ele>540.0</ele><time>2026-04-11T09:01:08.998Z</time></trkpt><trkpt lat="41.907735" lon="2.2934117"><ele>540.0</ele><time>2026-04-11T09:01:09.999Z</time></trkpt><trkpt lat="41.907615" lon="2.29336"><ele>540.0</ele><time>2026-04-11T09:01:10.998Z</time></trkpt><trkpt lat="41.9074967" lon="2.2932933"><ele>539.8</ele><time>2026-04-11T09:01:11.999Z</time></trkpt><trkpt lat="41.9073767" lon="2.2932233"><ele>539.6</ele><time>2026-04-11T09:01:12.998Z</time></trkpt><trkpt lat="41.9072733" lon="2.29315"><ele>539.4</ele><time>2026-04-11T09:01:13.998Z</time></trkpt><trkpt lat="41.9071867" lon="2.2930817"><ele>539.2</ele><time>2026-04-11T09:01:14.998Z</time></trkpt><trkpt lat="41.9071233" lon="2.2930217"><ele>539.0</ele><time>2026-04-11T09:01:15.998Z</time></trkpt><trkpt lat="41.907065" lon="2.2929683"><ele>539.0</ele><time>2026-04-11T09:01:16.998Z</time></trkpt><trkpt lat="41.9069617" lon="2.2929233"><ele>539.0</ele><time>2026-04-11T09:01:18.998Z</time></trkpt><trkpt lat="41.9069" lon="2.2929517"><ele>539.0</ele><time>2026-04-11T09:01:19.999Z</time></trkpt><trkpt lat="41.90683" lon="2.29302"><ele>539.0</ele><time>2026-04-11T09:01:20.998Z</time></trkpt><trkpt lat="41.906745" lon="2.293115"><ele>539.0</ele><time>2026-04-11T09:01:21.998Z</time></trkpt><trkpt lat="41.9066533" lon="2.2932217"><ele>538.0</ele><time>2026-04-11T09:01:22.998Z</time></trkpt><trkpt lat="41.9065583" lon="2.2933317"><ele>537.0</ele><time>2026-04-11T09:01:23.998Z</time></trkpt><trkpt lat="41.9064367" lon="2.29343"><ele>536.0</ele><time>2026-04-11T09:01:24.998Z</time></trkpt><trkpt lat="41.90633" lon="2.2935467"><ele>535.0</ele><time>2026-04-11T09:01:25.998Z</time></trkpt><trkpt lat="41.9062233" lon="2.29367"><ele>535.0</ele><time>2026-04-11T09:01:26.998Z</time></trkpt><trkpt lat="41.9061183" lon="2.2937867"><ele>535.0</ele><time>2026-04-11T09:01:27.998Z</time></trkpt><trkpt lat="41.9060133" lon="2.29389"><ele>535.0</ele><time>2026-04-11T09:01:28.998Z</time></trkpt><trkpt lat="41.9059083" lon="2.2940067"><ele>535.0</ele><time>2026-04-11T09:01:29.998Z</time></trkpt><trkpt lat="41.9058383" lon="2.29411"><ele>535.0</ele><time>2026-04-11T09:01:30.998Z</time></trkpt><trkpt lat="41.90576" lon="2.294195"><ele>535.0</ele><time>2026-04-11T09:01:31.998Z</time></trkpt><trkpt lat="41.90569" lon="2.2942467"><ele>535.0</ele><time>2026-04-11T09:01:32.999Z</time></trkpt><trkpt lat="41.9056217" lon="2.2942767"><ele>535.0</ele><time>2026-04-11T09:01:33.999Z</time></trkpt><trkpt lat="41.90548" lon="2.29426"><ele>535.0</ele><time>2026-04-11T09:01:35.998Z</time></trkpt><trkpt lat="41.9053817" lon="2.2942583"><ele>535.0</ele><time>2026-04-11T09:01:36.998Z</time></trkpt><trkpt lat="41.9052717" lon="2.2942717"><ele>535.0</ele><time>2026-04-11T09:01:37.999Z</time></trkpt><trkpt lat="41.905165" lon="2.29427"><ele>535.0</ele><time>2026-04-11T09:01:38.998Z</time></trkpt><trkpt lat="41.9050533" lon="2.29426"><ele>535.0</ele><time>2026-04-11T09:01:39.998Z</time></trkpt><trkpt lat="41.9049433" lon="2.2942417"><ele>535.0</ele><time>2026-04-11T09:01:40.998Z</time></trkpt><trkpt lat="41.904835" lon="2.2942217"><ele>535.0</ele><time>2026-04-11T09:01:41.998Z</time></trkpt><trkpt lat="41.9047317" lon="2.2942017"><ele>535.0</ele><time>2026-04-11T09:01:42.998Z</time></trkpt><trkpt lat="41.90463" lon="2.2941717"><ele>535.0</ele><time>2026-04-11T09:01:43.998Z</time></trkpt><trkpt lat="41.9045333" lon="2.2941183"><ele>535.0</ele><time>2026-04-11T09:01:44.998Z</time></trkpt><trkpt lat="41.90443" lon="2.2940483"><ele>535.0</ele><time>2026-04-11T09:01:45.998Z</time></trkpt><trkpt lat="41.9043183" lon="2.2939633"><ele>535.25</ele><time>2026-04-11T09:01:46.998Z</time></trkpt><trkpt lat="41.9042067" lon="2.293885"><ele>535.5</ele><time>2026-04-11T09:01:47.998Z</time></trkpt><trkpt lat="41.904095" lon="2.2938"><ele>535.75</ele><time>2026-04-11T09:01:48.998Z</time></trkpt><trkpt lat="41.903995" lon="2.2937233"><ele>536.0</ele><time>2026-04-11T09:01:49.998Z</time></trkpt><trkpt lat="41.903895" lon="2.29365"><ele>536.0</ele><time>2026-04-11T09:01:50.998Z</time></trkpt><trkpt lat="41.9037817" lon="2.2935833"><ele>536.0</ele><time>2026-04-11T09:01:51.998Z</time></trkpt><trkpt lat="41.903665" lon="2.2935317"><ele>536.0</ele><time>2026-04-11T09:01:52.998Z</time></trkpt><trkpt lat="41.9035483" lon="2.29347"><ele>536.0</ele><time>2026-04-11T09:01:53.998Z</time></trkpt><trkpt lat="41.9034267" lon="2.293405"><ele>536.75</ele><time>2026-04-11T09:01:54.998Z</time></trkpt><trkpt lat="41.903315" lon="2.2933333"><ele>537.5</ele><time>2026-04-11T09:01:55.998Z</time></trkpt><trkpt lat="41.9032167" lon="2.2932633"><ele>538.25</ele><time>2026-04-11T09:01:56.998Z</time></trkpt><trkpt lat="41.9031217" lon="2.2931867"><ele>539.0</ele><time>2026-04-11T09:01:57.998Z</time></trkpt><trkpt lat="41.9030267" lon="2.293115"><ele>539.0</ele><time>2026-04-11T09:01:58.998Z</time></trkpt><trkpt lat="41.9029317" lon="2.29305"><ele>539.0</ele><time>2026-04-11T09:01:59.998Z</time></trkpt><trkpt lat="41.9028317" lon="2.2929917"><ele>539.0</ele><time>2026-04-11T09:02:00.999Z</time></trkpt><trkpt lat="41.9027333" lon="2.2929367"><ele>539.0</ele><time>2026-04-11T09:02:01.998Z</time></trkpt><trkpt lat="41.902645" lon="2.29289"><ele>539.0</ele><time>2026-04-11T09:02:02.998Z</time></trkpt><trkpt lat="41.9025617" lon="2.2928583"><ele>539.0</ele><time>2026-04-11T09:02:03.998Z</time></trkpt><trkpt lat="41.90249" lon="2.292845"><ele>539.0</ele><time>2026-04-11T09:02:04.998Z</time></trkpt><trkpt lat="41.90242" lon="2.2928483"><ele>539.0</ele><time>2026-04-11T09:02:05.999Z</time></trkpt><trkpt lat="41.902355" lon="2.2928483"><ele>539.0</ele><time>2026-04-11T09:02:06.998Z</time></trkpt><trkpt lat="41.90228" lon="2.2928383"><ele>539.0</ele><time>2026-04-11T09:02:07.998Z</time></trkpt><trkpt lat="41.9022067" lon="2.292825"><ele>539.0</ele><time>2026-04-11T09:02:08.998Z</time></trkpt><trkpt lat="41.902135" lon="2.2928133"><ele>539.0</ele><time>2026-04-11T09:02:09.998Z</time></trkpt><trkpt lat="41.90202" lon="2.2927833"><ele>539.0</ele><time>2026-04-11T09:02:11.998Z</time></trkpt><trkpt lat="41.9019033" lon="2.292775"><ele>539.0</ele><time>2026-04-11T09:02:13.998Z</time></trkpt><trkpt lat="41.90178" lon="2.2927817"><ele>539.0</ele><time>2026-04-11T09:02:15.998Z</time></trkpt><trkpt lat="41.9017133" lon="2.2927967"><ele>539.0</ele><time>2026-04-11T09:02:16.998Z</time></trkpt><trkpt lat="41.9016433" lon="2.292815"><ele>539.0</ele><time>2026-04-11T09:02:17.998Z</time></trkpt><trkpt lat="41.9015817" lon="2.2928383"><ele>539.0</ele><time>2026-04-11T09:02:18.998Z</time></trkpt><trkpt lat="41.9015133" lon="2.2928583"><ele>539.3333333333333</ele><time>2026-04-11T09:02:19.998Z</time></trkpt><trkpt lat="41.9014467" lon="2.2928717"><ele>539.6666666666666</ele><time>2026-04-11T09:02:20.998Z</time></trkpt><trkpt lat="41.901375" lon="2.2928667"><ele>540.0</ele><time>2026-04-11T09:02:21.998Z</time></trkpt><trkpt lat="41.9012967" lon="2.2928483"><ele>540.3333333333334</ele><time>2026-04-11T09:02:22.998Z</time></trkpt><trkpt lat="41.9012217" lon="2.29282"><ele>540.6666666666667</ele><time>2026-04-11T09:02:23.998Z</time></trkpt><trkpt lat="41.9011517" lon="2.2927767"><ele>541.0</ele><time>2026-04-11T09:02:24.998Z</time></trkpt><trkpt lat="41.9010767" lon="2.2927317"><ele>541.0</ele><time>2026-04-11T09:02:25.998Z</time></trkpt><trkpt lat="41.901" lon="2.2926967"><ele>541.0</ele><time>2026-04-11T09:02:26.998Z</time></trkpt><trkpt lat="41.9009267" lon="2.2926733"><ele>541.0</ele><time>2026-04-11T09:02:27.998Z</time></trkpt><trkpt lat="41.9007983" lon="2.292695"><ele>541.0</ele><time>2026-04-11T09:02:29.999Z</time></trkpt><trkpt lat="41.900725" lon="2.2927217"><ele>541.0</ele><time>2026-04-11T09:02:30.998Z</time></trkpt><trkpt lat="41.9006483" lon="2.2927517"><ele>541.0</ele><time>2026-04-11T09:02:31.998Z</time></trkpt><trkpt lat="41.9005633" lon="2.2927733"><ele>541.3333333333334</ele><time>2026-04-11T09:02:32.998Z</time></trkpt><trkpt lat="41.9004783" lon="2.292795"><ele>541.6666666666667</ele><time>2026-04-11T09:02:33.998Z</time></trkpt><trkpt lat="41.900395" lon="2.29282"><ele>542.0</ele><time>2026-04-11T09:02:34.998Z</time></trkpt><trkpt lat="41.9003133" lon="2.2928417"><ele>542.3333333333334</ele><time>2026-04-11T09:02:35.998Z</time></trkpt><trkpt lat="41.9002183" lon="2.2928517"><ele>542.6666666666666</ele><time>2026-04-11T09:02:36.998Z</time></trkpt><trkpt lat="41.9001267" lon="2.29287"><ele>543.0</ele><time>2026-04-11T09:02:37.998Z</time></trkpt><trkpt lat="41.9000367" lon="2.2928783"><ele>543.8</ele><time>2026-04-11T09:02:38.998Z</time></trkpt><trkpt lat="41.899955" lon="2.2928733"><ele>544.5999999999999</ele><time>2026-04-11T09:02:39.999Z</time></trkpt><trkpt lat="41.8998733" lon="2.2928533"><ele>545.4000000000001</ele><time>2026-04-11T09:02:40.998Z</time></trkpt><trkpt lat="41.899795" lon="2.292835"><ele>546.2</ele><time>2026-04-11T09:02:41.998Z</time></trkpt><trkpt lat="41.8997217" lon="2.2928133"><ele>547.0</ele><time>2026-04-11T09:02:42.998Z</time></trkpt><trkpt lat="41.8995883" lon="2.2928083"><ele>547.0</ele><time>2026-04-11T09:02:44.998Z</time></trkpt><trkpt lat="41.8995167" lon="2.2928233"><ele>547.0</ele><time>2026-04-11T09:02:45.998Z</time></trkpt><trkpt lat="41.8994533" lon="2.29283"><ele>547.0</ele><time>2026-04-11T09:02:46.998Z</time></trkpt><trkpt lat="41.8993867" lon="2.2928467"><ele>547.0</ele><time>2026-04-11T09:02:47.998Z</time></trkpt><trkpt lat="41.8993183" lon="2.2928517"><ele>547.0</ele><time>2026-04-11T09:02:48.998Z</time></trkpt><trkpt lat="41.8992333" lon="2.2928383"><ele>547.0</ele><time>2026-04-11T09:02:49.998Z</time></trkpt><trkpt lat="41.8991367" lon="2.2928217"><ele>547.2</ele><time>2026-04-11T09:02:50.998Z</time></trkpt><trkpt lat="41.89903" lon="2.2928"><ele>547.4000000000001</ele><time>2026-04-11T09:02:51.998Z</time></trkpt><trkpt lat="41.8989267" lon="2.2927733"><ele>547.5999999999999</ele><time>2026-04-11T09:02:52.998Z</time></trkpt><trkpt lat="41.8988283" lon="2.2927467"><ele>547.8</ele><time>2026-04-11T09:02:53.998Z</time></trkpt><trkpt lat="41.8987483" lon="2.2927317"><ele>548.0</ele><time>2026-04-11T09:02:54.998Z</time></trkpt><trkpt lat="41.89867" lon="2.2927283"><ele>548.0</ele><time>2026-04-11T09:02:55.998Z</time></trkpt><trkpt lat="41.8985917" lon="2.292745"><ele>548.0</ele><time>2026-04-11T09:02:56.998Z</time></trkpt><trkpt lat="41.8985117" lon="2.2927683"><ele>548.0</ele><time>2026-04-11T09:02:57.998Z</time></trkpt><trkpt lat="41.8984417" lon="2.2928033"><ele>548.0</ele><time>2026-04-11T09:02:58.998Z</time></trkpt><trkpt lat="41.8983817" lon="2.2928367"><ele>548.0</ele><time>2026-04-11T09:02:59.998Z</time></trkpt><trkpt lat="41.8983217" lon="2.2928933"><ele>548.0</ele><time>2026-04-11T09:03:01.998Z</time></trkpt><trkpt lat="41.89833" lon="2.293025"><ele>549.3333333333333</ele><time>2026-04-11T09:03:04.998Z</time></trkpt><trkpt lat="41.898345" lon="2.29311"><ele>550.6666666666666</ele><time>2026-04-11T09:03:05.998Z</time></trkpt><trkpt lat="41.898355" lon="2.29321"><ele>552.0</ele><time>2026-04-11T09:03:06.998Z</time></trkpt><trkpt lat="41.89836" lon="2.2933183"><ele>553.3333333333334</ele><time>2026-04-11T09:03:07.998Z</time></trkpt><trkpt lat="41.8983683" lon="2.2934333"><ele>554.6666666666667</ele><time>2026-04-11T09:03:08.998Z</time></trkpt><trkpt lat="41.8983833" lon="2.2935533"><ele>556.0</ele><time>2026-04-11T09:03:09.998Z</time></trkpt><trkpt lat="41.8983967" lon="2.2936917"><ele>556.0</ele><time>2026-04-11T09:03:10.998Z</time></trkpt><trkpt lat="41.898405" lon="2.2938333"><ele>556.0</ele><time>2026-04-11T09:03:11.998Z</time></trkpt><trkpt lat="41.8984117" lon="2.2939833"><ele>556.0</ele><time>2026-04-11T09:03:12.998Z</time></trkpt><trkpt lat="41.8984167" lon="2.2941383"><ele>556.0</ele><time>2026-04-11T09:03:13.998Z</time></trkpt><trkpt lat="41.8984167" lon="2.2942933"><ele>556.0</ele><time>2026-04-11T09:03:14.998Z</time></trkpt><trkpt lat="41.8984" lon="2.29446"><ele>557.5</ele><time>2026-04-11T09:03:15.998Z</time></trkpt><trkpt lat="41.89837" lon="2.29463"><ele>559.0</ele><time>2026-04-11T09:03:16.998Z</time></trkpt><trkpt lat="41.8983283" lon="2.2947917"><ele>560.5</ele><time>2026-04-11T09:03:17.998Z</time></trkpt><trkpt lat="41.8982883" lon="2.294935"><ele>562.0</ele><time>2026-04-11T09:03:18.998Z</time></trkpt><trkpt lat="41.8982683" lon="2.2950683"><ele>565.0</ele><time>2026-04-11T09:03:19.999Z</time></trkpt><trkpt lat="41.8982583" lon="2.295215"><ele>568.0</ele><time>2026-04-11T09:03:20.998Z</time></trkpt><trkpt lat="41.89825" lon="2.2953633"><ele>571.0</ele><time>2026-04-11T09:03:21.998Z</time></trkpt><trkpt lat="41.898215" lon="2.2955117"><ele>574.0</ele><time>2026-04-11T09:03:22.998Z</time></trkpt><trkpt lat="41.89816" lon="2.2956517"><ele>575.8</ele><time>2026-04-11T09:03:23.998Z</time></trkpt><trkpt lat="41.89809" lon="2.2957717"><ele>577.5999999999999</ele><time>2026-04-11T09:03:24.998Z</time></trkpt><trkpt lat="41.89801" lon="2.2958483"><ele>579.4</ele><time>2026-04-11T09:03:25.999Z</time></trkpt><trkpt lat="41.89793" lon="2.2959083"><ele>581.1999999999999</ele><time>2026-04-11T09:03:26.998Z</time></trkpt><trkpt lat="41.897855" lon="2.29596"><ele>583.0</ele><time>2026-04-11T09:03:27.998Z</time></trkpt><trkpt lat="41.89779" lon="2.2960033"><ele>583.0</ele><time>2026-04-11T09:03:28.998Z</time></trkpt><trkpt lat="41.89774" lon="2.2960617"><ele>583.0</ele><time>2026-04-11T09:03:29.998Z</time></trkpt><trkpt lat="41.897695" lon="2.2962"><ele>583.0</ele><time>2026-04-11T09:03:31.998Z</time></trkpt><trkpt lat="41.8977083" lon="2.2963217"><ele>583.0</ele><time>2026-04-11T09:03:32.998Z</time></trkpt><trkpt lat="41.8977217" lon="2.2964433"><ele>583.0</ele><time>2026-04-11T09:03:33.998Z</time></trkpt><trkpt lat="41.8977333" lon="2.296555"><ele>583.0</ele><time>2026-04-11T09:03:34.998Z</time></trkpt><trkpt lat="41.8977433" lon="2.296655"><ele>583.4</ele><time>2026-04-11T09:03:35.998Z</time></trkpt><trkpt lat="41.897735" lon="2.2967617"><ele>583.8</ele><time>2026-04-11T09:03:36.998Z</time></trkpt><trkpt lat="41.8977017" lon="2.2968883"><ele>584.2</ele><time>2026-04-11T09:03:37.998Z</time></trkpt><trkpt lat="41.8976717" lon="2.2970067"><ele>584.6</ele><time>2026-04-11T09:03:38.998Z</time></trkpt><trkpt lat="41.8975833" lon="2.2971117"><ele>585.0</ele><time>2026-04-11T09:03:39.998Z</time></trkpt><trkpt lat="41.8974817" lon="2.2972167"><ele>585.25</ele><time>2026-04-11T09:03:40.998Z</time></trkpt><trkpt lat="41.8973867" lon="2.29731"><ele>585.5</ele><time>2026-04-11T09:03:41.998Z</time></trkpt><trkpt lat="41.897275" lon="2.2973817"><ele>585.75</ele><time>2026-04-11T09:03:42.998Z</time></trkpt><trkpt lat="41.89717" lon="2.2974417"><ele>586.0</ele><time>2026-04-11T09:03:43.998Z</time></trkpt><trkpt lat="41.8970767" lon="2.29751"><ele>586.0</ele><time>2026-04-11T09:03:44.998Z</time></trkpt><trkpt lat="41.8970017" lon="2.2975817"><ele>586.0</ele><time>2026-04-11T09:03:45.998Z</time></trkpt><trkpt lat="41.89694" lon="2.2976567"><ele>586.0</ele><time>2026-04-11T09:03:46.998Z</time></trkpt><trkpt lat="41.8968967" lon="2.2977183"><ele>586.0</ele><time>2026-04-11T09:03:47.998Z</time></trkpt><trkpt lat="41.8968517" lon="2.2977983"><ele>586.0</ele><time>2026-04-11T09:03:49.999Z</time></trkpt><trkpt lat="41.8968" lon="2.2978483"><ele>586.0</ele><time>2026-04-11T09:03:51.998Z</time></trkpt><trkpt lat="41.89673" lon="2.2979117"><ele>586.0</ele><time>2026-04-11T09:03:53.998Z</time></trkpt><trkpt lat="41.89663" lon="2.2980083"><ele>586.0</ele><time>2026-04-11T09:03:55.998Z</time></trkpt><trkpt lat="41.8965717" lon="2.2980617"><ele>586.0</ele><time>2026-04-11T09:03:56.998Z</time></trkpt><trkpt lat="41.89651" lon="2.29812"><ele>586.0</ele><time>2026-04-11T09:03:57.998Z</time></trkpt><trkpt lat="41.8964533" lon="2.2981683"><ele>586.0</ele><time>2026-04-11T09:03:58.998Z</time></trkpt><trkpt lat="41.8963767" lon="2.29825"><ele>586.0</ele><time>2026-04-11T09:04:00.998Z</time></trkpt><trkpt lat="41.896325" lon="2.2983783"><ele>587.75</ele><time>2026-04-11T09:04:02.998Z</time></trkpt><trkpt lat="41.89624" lon="2.298495"><ele>589.5</ele><time>2026-04-11T09:04:04.998Z</time></trkpt><trkpt lat="41.8961517" lon="2.298585"><ele>591.25</ele><time>2026-04-11T09:04:06.998Z</time></trkpt><trkpt lat="41.896085" lon="2.2987233"><ele>593.0</ele><time>2026-04-11T09:04:08.998Z</time></trkpt><trkpt lat="41.896035" lon="2.2988667"><ele>593.0</ele><time>2026-04-11T09:04:10.998Z</time></trkpt><trkpt lat="41.89599" lon="2.2989733"><ele>593.0</ele><time>2026-04-11T09:04:12.998Z</time></trkpt><trkpt lat="41.8959167" lon="2.2990567"><ele>593.0</ele><time>2026-04-11T09:04:14.998Z</time></trkpt><trkpt lat="41.8958483" lon="2.2991233"><ele>593.0</ele><time>2026-04-11T09:04:16.999Z</time></trkpt><trkpt lat="41.89577" lon="2.2992033"><ele>593.0</ele><time>2026-04-11T09:04:18.998Z</time></trkpt><trkpt lat="41.8956983" lon="2.2992433"><ele>593.0</ele><time>2026-04-11T09:04:20.998Z</time></trkpt><trkpt lat="41.8956333" lon="2.2992733"><ele>593.8333333333333</ele><time>2026-04-11T09:04:22.998Z</time></trkpt><trkpt lat="41.8955933" lon="2.2993433"><ele>594.6666666666666</ele><time>2026-04-11T09:04:25.998Z</time></trkpt><trkpt lat="41.89558" lon="2.29947"><ele>595.5</ele><time>2026-04-11T09:04:27.998Z</time></trkpt><trkpt lat="41.8955683" lon="2.2995617"><ele>596.3333333333334</ele><time>2026-04-11T09:04:28.998Z</time></trkpt><trkpt lat="41.8955583" lon="2.2996683"><ele>597.1666666666667</ele><time>2026-04-11T09:04:29.998Z</time></trkpt><trkpt lat="41.89555" lon="2.2997817"><ele>598.0</ele><time>2026-04-11T09:04:30.998Z</time></trkpt><trkpt lat="41.89555" lon="2.2998767"><ele>598.1428571428571</ele><time>2026-04-11T09:04:31.998Z</time></trkpt><trkpt lat="41.895545" lon="2.2999767"><ele>598.2857142857143</ele><time>2026-04-11T09:04:32.998Z</time></trkpt><trkpt lat="41.8955483" lon="2.3000717"><ele>598.4285714285714</ele><time>2026-04-11T09:04:33.998Z</time></trkpt><trkpt lat="41.8955617" lon="2.3001567"><ele>598.5714285714286</ele><time>2026-04-11T09:04:34.998Z</time></trkpt><trkpt lat="41.8955717" lon="2.3002483"><ele>598.7142857142857</ele><time>2026-04-11T09:04:35.999Z</time></trkpt><trkpt lat="41.8955833" lon="2.3003433"><ele>598.8571428571429</ele><time>2026-04-11T09:04:36.998Z</time></trkpt><trkpt lat="41.895585" lon="2.3004517"><ele>599.0</ele><time>2026-04-11T09:04:37.998Z</time></trkpt><trkpt lat="41.8955833" lon="2.3005583"><ele>600.4</ele><time>2026-04-11T09:04:38.998Z</time></trkpt><trkpt lat="41.8955767" lon="2.3006683"><ele>601.8</ele><time>2026-04-11T09:04:39.998Z</time></trkpt><trkpt lat="41.895575" lon="2.30079"><ele>603.2</ele><time>2026-04-11T09:04:40.998Z</time></trkpt><trkpt lat="41.8955767" lon="2.3009167"><ele>604.6</ele><time>2026-04-11T09:04:41.998Z</time></trkpt><trkpt lat="41.8955767" lon="2.3010533"><ele>606.0</ele><time>2026-04-11T09:04:42.998Z</time></trkpt><trkpt lat="41.8955783" lon="2.3011883"><ele>606.0</ele><time>2026-04-11T09:04:43.998Z</time></trkpt><trkpt lat="41.8955833" lon="2.3013183"><ele>606.0</ele><time>2026-04-11T09:04:44.998Z</time></trkpt><trkpt lat="41.8955883" lon="2.3014383"><ele>606.0</ele><time>2026-04-11T09:04:45.998Z</time></trkpt><trkpt lat="41.8955817" lon="2.3015483"><ele>606.0</ele><time>2026-04-11T09:04:46.998Z</time></trkpt><trkpt lat="41.8955633" lon="2.30165"><ele>606.0</ele><time>2026-04-11T09:04:47.998Z</time></trkpt><trkpt lat="41.8955367" lon="2.3017517"><ele>606.0</ele><time>2026-04-11T09:04:48.998Z</time></trkpt><trkpt lat="41.8954933" lon="2.3018583"><ele>606.6</ele><time>2026-04-11T09:04:49.998Z</time></trkpt><trkpt lat="41.8954517" lon="2.3019617"><ele>607.2</ele><time>2026-04-11T09:04:50.998Z</time></trkpt><trkpt lat="41.89541" lon="2.3020683"><ele>607.8</ele><time>2026-04-11T09:04:51.998Z</time></trkpt><trkpt lat="41.89537" lon="2.30219"><ele>608.4</ele><time>2026-04-11T09:04:52.999Z</time></trkpt><trkpt lat="41.895335" lon="2.302305"><ele>609.0</ele><time>2026-04-11T09:04:53.998Z</time></trkpt><trkpt lat="41.8953" lon="2.302405"><ele>609.5</ele><time>2026-04-11T09:04:54.998Z</time></trkpt><trkpt lat="41.89526" lon="2.3025083"><ele>610.0</ele><time>2026-04-11T09:04:55.998Z</time></trkpt><trkpt lat="41.8952283" lon="2.3026083"><ele>610.5</ele><time>2026-04-11T09:04:56.998Z</time></trkpt><trkpt lat="41.895195" lon="2.3027067"><ele>611.0</ele><time>2026-04-11T09:04:57.998Z</time></trkpt><trkpt lat="41.8951533" lon="2.302805"><ele>611.5</ele><time>2026-04-11T09:04:58.998Z</time></trkpt><trkpt lat="41.8951083" lon="2.302895"><ele>612.0</ele><time>2026-04-11T09:04:59.998Z</time></trkpt><trkpt lat="41.8950617" lon="2.3029583"><ele>613.2</ele><time>2026-04-11T09:05:00.998Z</time></trkpt><trkpt lat="41.8949983" lon="2.30305"><ele>614.4000000000001</ele><time>2026-04-11T09:05:02.998Z</time></trkpt><trkpt lat="41.8949517" lon="2.3031367"><ele>615.5999999999999</ele><time>2026-04-11T09:05:05.998Z</time></trkpt><trkpt lat="41.8949033" lon="2.3032467"><ele>616.8</ele><time>2026-04-11T09:05:07.998Z</time></trkpt><trkpt lat="41.8948533" lon="2.3033467"><ele>618.0</ele><time>2026-04-11T09:05:09.998Z</time></trkpt><trkpt lat="41.89477" lon="2.3034533"><ele>618.3333333333334</ele><time>2026-04-11T09:05:11.998Z</time></trkpt><trkpt lat="41.894655" lon="2.3035317"><ele>618.6666666666666</ele><time>2026-04-11T09:05:13.998Z</time></trkpt><trkpt lat="41.8945817" lon="2.3035767"><ele>619.0</ele><time>2026-04-11T09:05:14.998Z</time></trkpt><trkpt lat="41.894505" lon="2.3036283"><ele>619.3333333333333</ele><time>2026-04-11T09:05:15.998Z</time></trkpt><trkpt lat="41.89444" lon="2.3036933"><ele>619.6666666666666</ele><time>2026-04-11T09:05:16.998Z</time></trkpt><trkpt lat="41.8943967" lon="2.3037717"><ele>620.0</ele><time>2026-04-11T09:05:17.998Z</time></trkpt><trkpt lat="41.8943617" lon="2.3039067"><ele>620.6666666666666</ele><time>2026-04-11T09:05:19.998Z</time></trkpt><trkpt lat="41.8943367" lon="2.303985"><ele>621.3333333333333</ele><time>2026-04-11T09:05:20.998Z</time></trkpt><trkpt lat="41.8942833" lon="2.3041317"><ele>622.0</ele><time>2026-04-11T09:05:22.998Z</time></trkpt><trkpt lat="41.8942267" lon="2.3042283"><ele>622.6666666666666</ele><time>2026-04-11T09:05:23.998Z</time></trkpt><trkpt lat="41.8941683" lon="2.3043267"><ele>623.3333333333334</ele><time>2026-04-11T09:05:24.998Z</time></trkpt><trkpt lat="41.894125" lon="2.3044133"><ele>624.0</ele><time>2026-04-11T09:05:25.998Z</time></trkpt><trkpt lat="41.8940883" lon="2.304505"><ele>624.1666666666666</ele><time>2026-04-11T09:05:26.998Z</time></trkpt><trkpt lat="41.8940483" lon="2.3046033"><ele>624.3333333333334</ele><time>2026-04-11T09:05:27.998Z</time></trkpt><trkpt lat="41.8940067" lon="2.304695"><ele>624.5</ele><time>2026-04-11T09:05:28.998Z</time></trkpt><trkpt lat="41.89396" lon="2.30479"><ele>624.6666666666667</ele><time>2026-04-11T09:05:29.998Z</time></trkpt><trkpt lat="41.893905" lon="2.3048883"><ele>624.8333333333334</ele><time>2026-04-11T09:05:30.998Z</time></trkpt><trkpt lat="41.8938467" lon="2.304975"><ele>625.0</ele><time>2026-04-11T09:05:31.999Z</time></trkpt><trkpt lat="41.8937817" lon="2.3050583"><ele>626.1666666666667</ele><time>2026-04-11T09:05:32.998Z</time></trkpt><trkpt lat="41.8937233" lon="2.3051317"><ele>627.3333333333334</ele><time>2026-04-11T09:05:33.998Z</time></trkpt><trkpt lat="41.8936717" lon="2.3052183"><ele>628.5</ele><time>2026-04-11T09:05:34.998Z</time></trkpt><trkpt lat="41.89363" lon="2.3053133"><ele>629.6666666666666</ele><time>2026-04-11T09:05:35.998Z</time></trkpt><trkpt lat="41.893595" lon="2.30542"><ele>630.8333333333333</ele><time>2026-04-11T09:05:36.998Z</time></trkpt><trkpt lat="41.8935567" lon="2.30552"><ele>632.0</ele><time>2026-04-11T09:05:37.998Z</time></trkpt><trkpt lat="41.8935267" lon="2.3056217"><ele>632.3333333333333</ele><time>2026-04-11T09:05:38.998Z</time></trkpt><trkpt lat="41.8935" lon="2.3057283"><ele>632.6666666666666</ele><time>2026-04-11T09:05:39.998Z</time></trkpt><trkpt lat="41.8934683" lon="2.305835"><ele>633.0</ele><time>2026-04-11T09:05:40.998Z</time></trkpt><trkpt lat="41.893425" lon="2.3059267"><ele>633.3333333333334</ele><time>2026-04-11T09:05:41.998Z</time></trkpt><trkpt lat="41.8933733" lon="2.306"><ele>633.6666666666667</ele><time>2026-04-11T09:05:42.998Z</time></trkpt><trkpt lat="41.8933133" lon="2.306065"><ele>634.0</ele><time>2026-04-11T09:05:43.998Z</time></trkpt><trkpt lat="41.8932433" lon="2.3061117"><ele>635.0</ele><time>2026-04-11T09:05:44.998Z</time></trkpt><trkpt lat="41.89316" lon="2.30613"><ele>636.0</ele><time>2026-04-11T09:05:45.998Z</time></trkpt><trkpt lat="41.8930667" lon="2.306125"><ele>637.0</ele><time>2026-04-11T09:05:46.998Z</time></trkpt><trkpt lat="41.892975" lon="2.3060967"><ele>638.0</ele><time>2026-04-11T09:05:47.998Z</time></trkpt><trkpt lat="41.8928733" lon="2.30604"><ele>639.0</ele><time>2026-04-11T09:05:48.998Z</time></trkpt><trkpt lat="41.8927733" lon="2.3059717"><ele>639.0</ele><time>2026-04-11T09:05:49.998Z</time></trkpt><trkpt lat="41.8926767" lon="2.3058917"><ele>639.0</ele><time>2026-04-11T09:05:50.998Z</time></trkpt><trkpt lat="41.892575" lon="2.3057917"><ele>639.0</ele><time>2026-04-11T09:05:51.998Z</time></trkpt><trkpt lat="41.8924883" lon="2.3056833"><ele>639.0</ele><time>2026-04-11T09:05:52.999Z</time></trkpt><trkpt lat="41.89242" lon="2.3055883"><ele>639.8</ele><time>2026-04-11T09:05:53.998Z</time></trkpt><trkpt lat="41.8923567" lon="2.3054683"><ele>640.5999999999999</ele><time>2026-04-11T09:05:54.998Z</time></trkpt><trkpt lat="41.8923017" lon="2.3053617"><ele>641.4</ele><time>2026-04-11T09:05:55.998Z</time></trkpt><trkpt lat="41.89224" lon="2.3052617"><ele>642.1999999999999</ele><time>2026-04-11T09:05:56.998Z</time></trkpt><trkpt lat="41.892175" lon="2.3051817"><ele>643.0</ele><time>2026-04-11T09:05:57.998Z</time></trkpt><trkpt lat="41.89209" lon="2.3051233"><ele>643.0</ele><time>2026-04-11T09:05:58.998Z</time></trkpt><trkpt lat="41.8920033" lon="2.30509"><ele>643.0</ele><time>2026-04-11T09:05:59.999Z</time></trkpt><trkpt lat="41.8919317" lon="2.3050617"><ele>643.0</ele><time>2026-04-11T09:06:00.998Z</time></trkpt><trkpt lat="41.89186" lon="2.3050133"><ele>643.0</ele><time>2026-04-11T09:06:01.998Z</time></trkpt><trkpt lat="41.8917867" lon="2.3049717"><ele>643.0</ele><time>2026-04-11T09:06:02.998Z</time></trkpt><trkpt lat="41.8916917" lon="2.304905"><ele>643.0</ele><time>2026-04-11T09:06:03.998Z</time></trkpt><trkpt lat="41.8915867" lon="2.3048433"><ele>643.0</ele><time>2026-04-11T09:06:04.998Z</time></trkpt><trkpt lat="41.8914667" lon="2.3048017"><ele>643.0</ele><time>2026-04-11T09:06:05.998Z</time></trkpt><trkpt lat="41.8913417" lon="2.3047633"><ele>643.0</ele><time>2026-04-11T09:06:06.998Z</time></trkpt><trkpt lat="41.8912133" lon="2.3047233"><ele>643.0</ele><time>2026-04-11T09:06:07.998Z</time></trkpt><trkpt lat="41.891085" lon="2.3046617"><ele>643.0</ele><time>2026-04-11T09:06:08.998Z</time></trkpt><trkpt lat="41.8909467" lon="2.3045783"><ele>643.0</ele><time>2026-04-11T09:06:09.998Z</time></trkpt><trkpt lat="41.8908" lon="2.3045167"><ele>643.0</ele><time>2026-04-11T09:06:10.998Z</time></trkpt><trkpt lat="41.89065" lon="2.3044633"><ele>643.25</ele><time>2026-04-11T09:06:11.998Z</time></trkpt><trkpt lat="41.8904967" lon="2.3044283"><ele>643.5</ele><time>2026-04-11T09:06:12.999Z</time></trkpt><trkpt lat="41.8903517" lon="2.3044017"><ele>643.75</ele><time>2026-04-11T09:06:13.998Z</time></trkpt><trkpt lat="41.8902133" lon="2.3043767"><ele>644.0</ele><time>2026-04-11T09:06:14.998Z</time></trkpt><trkpt lat="41.8900883" lon="2.304345"><ele>644.4000000000001</ele><time>2026-04-11T09:06:15.998Z</time></trkpt><trkpt lat="41.8899883" lon="2.3043167"><ele>644.8</ele><time>2026-04-11T09:06:16.998Z</time></trkpt><trkpt lat="41.88991" lon="2.3043017"><ele>645.2</ele><time>2026-04-11T09:06:17.998Z</time></trkpt><trkpt lat="41.8898067" lon="2.304305"><ele>645.5999999999999</ele><time>2026-04-11T09:06:19.998Z</time></trkpt><trkpt lat="41.8897333" lon="2.3043233"><ele>646.0</ele><time>2026-04-11T09:06:21.998Z</time></trkpt><trkpt lat="41.88963" lon="2.3043133"><ele>646.0000000000001</ele><time>2026-04-11T09:06:23.998Z</time></trkpt><trkpt lat="41.8895733" lon="2.30427"><ele>646.0</ele><time>2026-04-11T09:06:24.998Z</time></trkpt><trkpt lat="41.8895117" lon="2.3042217"><ele>646.0</ele><time>2026-04-11T09:06:25.998Z</time></trkpt><trkpt lat="41.8894417" lon="2.3041833"><ele>646.0</ele><time>2026-04-11T09:06:26.998Z</time></trkpt><trkpt lat="41.88937" lon="2.304155"><ele>646.0</ele><time>2026-04-11T09:06:27.998Z</time></trkpt><trkpt lat="41.8893" lon="2.3041283"><ele>646.0000000000001</ele><time>2026-04-11T09:06:28.998Z</time></trkpt><trkpt lat="41.88923" lon="2.3041117"><ele>646.0</ele><time>2026-04-11T09:06:29.998Z</time></trkpt><trkpt lat="41.8891517" lon="2.30411"><ele>646.8333333333334</ele><time>2026-04-11T09:06:30.998Z</time></trkpt><trkpt lat="41.889075" lon="2.3041183"><ele>647.6666666666667</ele><time>2026-04-11T09:06:31.998Z</time></trkpt><trkpt lat="41.8889933" lon="2.3041367"><ele>648.5</ele><time>2026-04-11T09:06:32.998Z</time></trkpt><trkpt lat="41.8889167" lon="2.3041583"><ele>649.3333333333334</ele><time>2026-04-11T09:06:33.998Z</time></trkpt><trkpt lat="41.88885" lon="2.3041867"><ele>650.1666666666666</ele><time>2026-04-11T09:06:34.998Z</time></trkpt><trkpt lat="41.8887933" lon="2.304225"><ele>651.0</ele><time>2026-04-11T09:06:35.999Z</time></trkpt><trkpt lat="41.8887317" lon="2.3043083"><ele>651.0</ele><time>2026-04-11T09:06:37.998Z</time></trkpt><trkpt lat="41.88871" lon="2.30439"><ele>651.0</ele><time>2026-04-11T09:06:40.998Z</time></trkpt><trkpt lat="41.8886567" lon="2.3043233"><ele>651.0</ele><time>2026-04-11T09:06:51.998Z</time></trkpt><trkpt lat="41.8885833" lon="2.304265"><ele>651.0</ele><time>2026-04-11T09:06:54.998Z</time></trkpt><trkpt lat="41.8884817" lon="2.3042467"><ele>651.0</ele><time>2026-04-11T09:06:56.998Z</time></trkpt><trkpt lat="41.8883783" lon="2.30427"><ele>651.0</ele><time>2026-04-11T09:06:58.998Z</time></trkpt><trkpt lat="41.8882583" lon="2.30429"><ele>651.8333333333334</ele><time>2026-04-11T09:07:00.998Z</time></trkpt><trkpt lat="41.8881267" lon="2.3042983"><ele>652.6666666666666</ele><time>2026-04-11T09:07:02.998Z</time></trkpt><trkpt lat="41.88806" lon="2.3043017"><ele>653.5</ele><time>2026-04-11T09:07:03.998Z</time></trkpt><trkpt lat="41.8879917" lon="2.30431"><ele>654.3333333333333</ele><time>2026-04-11T09:07:04.998Z</time></trkpt><trkpt lat="41.88792" lon="2.304335"><ele>655.1666666666666</ele><time>2026-04-11T09:07:05.998Z</time></trkpt><trkpt lat="41.8878567" lon="2.3043617"><ele>656.0</ele><time>2026-04-11T09:07:06.998Z</time></trkpt><trkpt lat="41.8877867" lon="2.3043867"><ele>656.0</ele><time>2026-04-11T09:07:07.998Z</time></trkpt><trkpt lat="41.8877083" lon="2.3044133"><ele>656.0</ele><time>2026-04-11T09:07:08.998Z</time></trkpt><trkpt lat="41.8876317" lon="2.3044333"><ele>656.0</ele><time>2026-04-11T09:07:09.998Z</time></trkpt><trkpt lat="41.887555" lon="2.3044517"><ele>656.0</ele><time>2026-04-11T09:07:10.998Z</time></trkpt><trkpt lat="41.8874783" lon="2.3044783"><ele>656.0</ele><time>2026-04-11T09:07:11.998Z</time></trkpt><trkpt lat="41.8874017" lon="2.3044983"><ele>656.0</ele><time>2026-04-11T09:07:12.998Z</time></trkpt><trkpt lat="41.8873283" lon="2.3045167"><ele>656.6666666666666</ele><time>2026-04-11T09:07:13.998Z</time></trkpt><trkpt lat="41.8872483" lon="2.30454"><ele>657.3333333333333</ele><time>2026-04-11T09:07:14.998Z</time></trkpt><trkpt lat="41.8871733" lon="2.3045617"><ele>658.0</ele><time>2026-04-11T09:07:15.998Z</time></trkpt><trkpt lat="41.8871083" lon="2.3045867"><ele>658.6666666666666</ele><time>2026-04-11T09:07:16.998Z</time></trkpt><trkpt lat="41.88704" lon="2.3046"><ele>659.3333333333334</ele><time>2026-04-11T09:07:17.998Z</time></trkpt><trkpt lat="41.8869733" lon="2.3046117"><ele>660.0</ele><time>2026-04-11T09:07:18.998Z</time></trkpt><trkpt lat="41.8868783" lon="2.3046333"><ele>660.0</ele><time>2026-04-11T09:07:20.999Z</time></trkpt><trkpt lat="41.8867717" lon="2.3046717"><ele>660.0</ele><time>2026-04-11T09:07:22.998Z</time></trkpt><trkpt lat="41.88665" lon="2.304745"><ele>660.0</ele><time>2026-04-11T09:07:24.998Z</time></trkpt><trkpt lat="41.88658" lon="2.3047933"><ele>660.0</ele><time>2026-04-11T09:07:25.998Z</time></trkpt><trkpt lat="41.886515" lon="2.3048467"><ele>660.0</ele><time>2026-04-11T09:07:26.998Z</time></trkpt><trkpt lat="41.88645" lon="2.304895"><ele>661.2857142857143</ele><time>2026-04-11T09:07:27.998Z</time></trkpt><trkpt lat="41.886385" lon="2.30495"><ele>662.5714285714286</ele><time>2026-04-11T09:07:28.998Z</time></trkpt><trkpt lat="41.8863333" lon="2.3050217"><ele>663.8571428571429</ele><time>2026-04-11T09:07:29.999Z</time></trkpt><trkpt lat="41.8862783" lon="2.3050817"><ele>665.1428571428571</ele><time>2026-04-11T09:07:30.998Z</time></trkpt><trkpt lat="41.8862167" lon="2.30513"><ele>666.4285714285714</ele><time>2026-04-11T09:07:31.998Z</time></trkpt><trkpt lat="41.8861633" lon="2.305175"><ele>667.7142857142858</ele><time>2026-04-11T09:07:32.998Z</time></trkpt><trkpt lat="41.886105" lon="2.3052283"><ele>669.0</ele><time>2026-04-11T09:07:33.998Z</time></trkpt><trkpt lat="41.8860317" lon="2.3052767"><ele>669.0</ele><time>2026-04-11T09:07:34.998Z</time></trkpt><trkpt lat="41.885955" lon="2.305325"><ele>669.0</ele><time>2026-04-11T09:07:35.999Z</time></trkpt><trkpt lat="41.885885" lon="2.305375"><ele>669.0</ele><time>2026-04-11T09:07:36.998Z</time></trkpt><trkpt lat="41.8858033" lon="2.3054233"><ele>669.0</ele><time>2026-04-11T09:07:37.998Z</time></trkpt><trkpt lat="41.8857133" lon="2.3054567"><ele>669.0</ele><time>2026-04-11T09:07:38.998Z</time></trkpt><trkpt lat="41.8856317" lon="2.3054783"><ele>669.0</ele><time>2026-04-11T09:07:39.998Z</time></trkpt><trkpt lat="41.8855517" lon="2.305495"><ele>670.0</ele><time>2026-04-11T09:07:40.998Z</time></trkpt><trkpt lat="41.885485" lon="2.305535"><ele>671.0</ele><time>2026-04-11T09:07:41.998Z</time></trkpt><trkpt lat="41.8854233" lon="2.3055783"><ele>672.0</ele><time>2026-04-11T09:07:42.998Z</time></trkpt><trkpt lat="41.885365" lon="2.3056167"><ele>673.0</ele><time>2026-04-11T09:07:43.998Z</time></trkpt><trkpt lat="41.885265" lon="2.305705"><ele>674.0</ele><time>2026-04-11T09:07:45.998Z</time></trkpt><trkpt lat="41.8851883" lon="2.30576"><ele>675.0</ele><time>2026-04-11T09:07:47.998Z</time></trkpt><trkpt lat="41.8851233" lon="2.3058483"><ele>677.6</ele><time>2026-04-11T09:07:49.998Z</time></trkpt><trkpt lat="41.8850233" lon="2.3059617"><ele>680.2</ele><time>2026-04-11T09:07:51.998Z</time></trkpt><trkpt lat="41.8849567" lon="2.3060183"><ele>682.8</ele><time>2026-04-11T09:07:52.998Z</time></trkpt><trkpt lat="41.8848667" lon="2.3060883"><ele>685.4</ele><time>2026-04-11T09:07:53.998Z</time></trkpt><trkpt lat="41.8847833" lon="2.3061483"><ele>688.0</ele><time>2026-04-11T09:07:54.998Z</time></trkpt><trkpt lat="41.8847" lon="2.3062033"><ele>688.0</ele><time>2026-04-11T09:07:55.999Z</time></trkpt><trkpt lat="41.8846383" lon="2.3062517"><ele>688.0</ele><time>2026-04-11T09:07:56.998Z</time></trkpt><trkpt lat="41.88454" lon="2.3062883"><ele>688.0</ele><time>2026-04-11T09:07:58.998Z</time></trkpt><trkpt lat="41.8845017" lon="2.3061983"><ele>688.0</ele><time>2026-04-11T09:08:01.998Z</time></trkpt><trkpt lat="41.8844717" lon="2.3060983"><ele>688.0</ele><time>2026-04-11T09:08:03.998Z</time></trkpt><trkpt lat="41.8843833" lon="2.30601"><ele>688.0</ele><time>2026-04-11T09:08:05.998Z</time></trkpt><trkpt lat="41.8843033" lon="2.305995"><ele>689.0</ele><time>2026-04-11T09:08:06.998Z</time></trkpt><trkpt lat="41.88421" lon="2.306"><ele>690.0</ele><time>2026-04-11T09:08:07.998Z</time></trkpt><trkpt lat="41.8841067" lon="2.3060117"><ele>691.0</ele><time>2026-04-11T09:08:08.998Z</time></trkpt><trkpt lat="41.8839933" lon="2.3060383"><ele>692.0</ele><time>2026-04-11T09:08:09.998Z</time></trkpt><trkpt lat="41.8838733" lon="2.306065"><ele>693.0</ele><time>2026-04-11T09:08:10.998Z</time></trkpt><trkpt lat="41.8837467" lon="2.3060917"><ele>693.0</ele><time>2026-04-11T09:08:11.998Z</time></trkpt><trkpt lat="41.8836117" lon="2.3061267"><ele>693.0</ele><time>2026-04-11T09:08:12.998Z</time></trkpt><trkpt lat="41.88348" lon="2.306145"><ele>693.0</ele><time>2026-04-11T09:08:13.998Z</time></trkpt><trkpt lat="41.8833467" lon="2.3061783"><ele>693.0</ele><time>2026-04-11T09:08:14.998Z</time></trkpt><trkpt lat="41.88322" lon="2.3062233"><ele>693.0</ele><time>2026-04-11T09:08:15.999Z</time></trkpt><trkpt lat="41.8831033" lon="2.3062733"><ele>693.0</ele><time>2026-04-11T09:08:16.998Z</time></trkpt><trkpt lat="41.8829917" lon="2.306325"><ele>693.0</ele><time>2026-04-11T09:08:17.998Z</time></trkpt><trkpt lat="41.8828867" lon="2.3063983"><ele>693.0</ele><time>2026-04-11T09:08:18.998Z</time></trkpt><trkpt lat="41.8827867" lon="2.3064733"><ele>693.0</ele><time>2026-04-11T09:08:19.998Z</time></trkpt><trkpt lat="41.8826917" lon="2.30655"><ele>693.0</ele><time>2026-04-11T09:08:20.998Z</time></trkpt><trkpt lat="41.8826" lon="2.3066367"><ele>693.0</ele><time>2026-04-11T09:08:21.998Z</time></trkpt><trkpt lat="41.882505" lon="2.306735"><ele>693.0</ele><time>2026-04-11T09:08:22.998Z</time></trkpt><trkpt lat="41.8824083" lon="2.3068333"><ele>695.0</ele><time>2026-04-11T09:08:23.998Z</time></trkpt><trkpt lat="41.8823117" lon="2.306935"><ele>697.0</ele><time>2026-04-11T09:08:24.998Z</time></trkpt><trkpt lat="41.8822117" lon="2.3070533"><ele>699.0</ele><time>2026-04-11T09:08:25.998Z</time></trkpt><trkpt lat="41.8821133" lon="2.3071767"><ele>701.0</ele><time>2026-04-11T09:08:26.998Z</time></trkpt><trkpt lat="41.88201" lon="2.307305"><ele>701.0</ele><time>2026-04-11T09:08:27.998Z</time></trkpt><trkpt lat="41.8819017" lon="2.3074317"><ele>701.0</ele><time>2026-04-11T09:08:28.998Z</time></trkpt><trkpt lat="41.8817967" lon="2.30755"><ele>701.0</ele><time>2026-04-11T09:08:29.998Z</time></trkpt><trkpt lat="41.8816967" lon="2.30766"><ele>701.0</ele><time>2026-04-11T09:08:30.998Z</time></trkpt><trkpt lat="41.8815983" lon="2.3077517"><ele>703.5999999999999</ele><time>2026-04-11T09:08:31.998Z</time></trkpt><trkpt lat="41.8815033" lon="2.3078133"><ele>706.2</ele><time>2026-04-11T09:08:32.998Z</time></trkpt><trkpt lat="41.881405" lon="2.3078483"><ele>708.8</ele><time>2026-04-11T09:08:33.998Z</time></trkpt><trkpt lat="41.8813" lon="2.3078533"><ele>711.4000000000001</ele><time>2026-04-11T09:08:34.998Z</time></trkpt><trkpt lat="41.8811883" lon="2.3078417"><ele>714.0</ele><time>2026-04-11T09:08:35.998Z</time></trkpt><trkpt lat="41.881065" lon="2.3078533"><ele>714.0</ele><time>2026-04-11T09:08:36.998Z</time></trkpt><trkpt lat="41.8809467" lon="2.3079"><ele>714.0</ele><time>2026-04-11T09:08:37.998Z</time></trkpt><trkpt lat="41.880845" lon="2.3079617"><ele>714.0</ele><time>2026-04-11T09:08:38.998Z</time></trkpt><trkpt lat="41.880755" lon="2.3080133"><ele>714.0</ele><time>2026-04-11T09:08:39.998Z</time></trkpt><trkpt lat="41.88066" lon="2.3080483"><ele>714.0</ele><time>2026-04-11T09:08:40.998Z</time></trkpt><trkpt lat="41.8805783" lon="2.3080833"><ele>714.6666666666666</ele><time>2026-04-11T09:08:41.998Z</time></trkpt><trkpt lat="41.880505" lon="2.3081117"><ele>715.3333333333334</ele><time>2026-04-11T09:08:42.998Z</time></trkpt><trkpt lat="41.8804333" lon="2.308155"><ele>716.0</ele><time>2026-04-11T09:08:43.998Z</time></trkpt><trkpt lat="41.8803667" lon="2.3082217"><ele>716.6666666666667</ele><time>2026-04-11T09:08:44.998Z</time></trkpt><trkpt lat="41.8803" lon="2.30831"><ele>717.3333333333334</ele><time>2026-04-11T09:08:45.998Z</time></trkpt><trkpt lat="41.880235" lon="2.308405"><ele>718.0</ele><time>2026-04-11T09:08:46.998Z</time></trkpt><trkpt lat="41.88017" lon="2.3085017"><ele>718.5999999999999</ele><time>2026-04-11T09:08:47.998Z</time></trkpt><trkpt lat="41.8800817" lon="2.3085867"><ele>719.1999999999999</ele><time>2026-04-11T09:08:48.998Z</time></trkpt><trkpt lat="41.8799883" lon="2.308675"><ele>719.8</ele><time>2026-04-11T09:08:49.999Z</time></trkpt><trkpt lat="41.879905" lon="2.308785"><ele>720.4</ele><time>2026-04-11T09:08:50.998Z</time></trkpt><trkpt lat="41.8798367" lon="2.3088933"><ele>721.0</ele><time>2026-04-11T09:08:51.998Z</time></trkpt><trkpt lat="41.879805" lon="2.3090133"><ele>721.0</ele><time>2026-04-11T09:08:52.998Z</time></trkpt><trkpt lat="41.8797967" lon="2.3091267"><ele>721.0</ele><time>2026-04-11T09:08:53.998Z</time></trkpt><trkpt lat="41.8797917" lon="2.3092233"><ele>721.0</ele><time>2026-04-11T09:08:54.998Z</time></trkpt><trkpt lat="41.879775" lon="2.3093617"><ele>721.0</ele><time>2026-04-11T09:08:56.998Z</time></trkpt><trkpt lat="41.879785" lon="2.309455"><ele>721.0</ele><time>2026-04-11T09:08:58.998Z</time></trkpt><trkpt lat="41.8798383" lon="2.309515"><ele>721.0</ele><time>2026-04-11T09:09:00.998Z</time></trkpt><trkpt lat="41.879905" lon="2.3094867"><ele>721.0</ele><time>2026-04-11T09:09:02.998Z</time></trkpt><trkpt lat="41.8799017" lon="2.309395"><ele>721.0</ele><time>2026-04-11T09:09:04.998Z</time></trkpt><trkpt lat="41.8798267" lon="2.30933"><ele>721.0</ele><time>2026-04-11T09:09:06.998Z</time></trkpt><trkpt lat="41.879765" lon="2.309365"><ele>721.0</ele><time>2026-04-11T09:09:08.998Z</time></trkpt><trkpt lat="41.87974" lon="2.3094717"><ele>721.0</ele><time>2026-04-11T09:09:10.998Z</time></trkpt><trkpt lat="41.87968" lon="2.3095617"><ele>721.0</ele><time>2026-04-11T09:09:12.998Z</time></trkpt><trkpt lat="41.87957" lon="2.3096533"><ele>721.0</ele><time>2026-04-11T09:09:14.998Z</time></trkpt><trkpt lat="41.8795183" lon="2.30971"><ele>721.0</ele><time>2026-04-11T09:09:15.999Z</time></trkpt><trkpt lat="41.8794633" lon="2.3098267"><ele>721.0</ele><time>2026-04-11T09:09:17.998Z</time></trkpt><trkpt lat="41.8794133" lon="2.3099883"><ele>721.0</ele><time>2026-04-11T09:09:19.998Z</time></trkpt><trkpt lat="41.8793817" lon="2.3100867"><ele>721.0</ele><time>2026-04-11T09:09:20.998Z</time></trkpt><trkpt lat="41.8793567" lon="2.3101967"><ele>721.6666666666667</ele><time>2026-04-11T09:09:21.998Z</time></trkpt><trkpt lat="41.879335" lon="2.3103117"><ele>722.3333333333334</ele><time>2026-04-11T09:09:22.998Z</time></trkpt><trkpt lat="41.8793067" lon="2.31043"><ele>723.0</ele><time>2026-04-11T09:09:23.998Z</time></trkpt><trkpt lat="41.8792783" lon="2.310535"><ele>723.6666666666666</ele><time>2026-04-11T09:09:24.998Z</time></trkpt><trkpt lat="41.879255" lon="2.310625"><ele>724.3333333333333</ele><time>2026-04-11T09:09:25.998Z</time></trkpt><trkpt lat="41.8792267" lon="2.3107133"><ele>725.0</ele><time>2026-04-11T09:09:26.998Z</time></trkpt><trkpt lat="41.8792033" lon="2.3107967"><ele>726.1666666666666</ele><time>2026-04-11T09:09:27.998Z</time></trkpt><trkpt lat="41.8791783" lon="2.310975"><ele>727.3333333333333</ele><time>2026-04-11T09:09:29.998Z</time></trkpt><trkpt lat="41.8791667" lon="2.3110683"><ele>728.5</ele><time>2026-04-11T09:09:30.998Z</time></trkpt><trkpt lat="41.879175" lon="2.3111583"><ele>729.6666666666666</ele><time>2026-04-11T09:09:31.998Z</time></trkpt><trkpt lat="41.8791967" lon="2.3112417"><ele>730.8333333333334</ele><time>2026-04-11T09:09:32.998Z</time></trkpt><trkpt lat="41.8792183" lon="2.31133"><ele>732.0</ele><time>2026-04-11T09:09:33.998Z</time></trkpt><trkpt lat="41.8792383" lon="2.3114233"><ele>733.1666666666666</ele><time>2026-04-11T09:09:34.998Z</time></trkpt><trkpt lat="41.8792517" lon="2.311525"><ele>734.3333333333334</ele><time>2026-04-11T09:09:35.998Z</time></trkpt><trkpt lat="41.8792617" lon="2.3116167"><ele>735.5</ele><time>2026-04-11T09:09:36.998Z</time></trkpt><trkpt lat="41.87928" lon="2.3117"><ele>736.6666666666667</ele><time>2026-04-11T09:09:37.998Z</time></trkpt><trkpt lat="41.879325" lon="2.3118133"><ele>737.8333333333334</ele><time>2026-04-11T09:09:39.998Z</time></trkpt><trkpt lat="41.8793617" lon="2.3119083"><ele>739.0</ele><time>2026-04-11T09:09:41.998Z</time></trkpt><trkpt lat="41.8793433" lon="2.3120367"><ele>739.0</ele><time>2026-04-11T09:09:43.998Z</time></trkpt><trkpt lat="41.879255" lon="2.3121583"><ele>739.0</ele><time>2026-04-11T09:09:45.998Z</time></trkpt><trkpt lat="41.8791883" lon="2.3122267"><ele>739.0</ele><time>2026-04-11T09:09:46.999Z</time></trkpt><trkpt lat="41.8791067" lon="2.3123033"><ele>739.0</ele><time>2026-04-11T09:09:47.998Z</time></trkpt><trkpt lat="41.8790033" lon="2.3123817"><ele>739.0</ele><time>2026-04-11T09:09:48.998Z</time></trkpt><trkpt lat="41.8789017" lon="2.31244"><ele>740.6</ele><time>2026-04-11T09:09:49.998Z</time></trkpt><trkpt lat="41.8787917" lon="2.312485"><ele>742.2</ele><time>2026-04-11T09:09:50.998Z</time></trkpt><trkpt lat="41.8786967" lon="2.3125283"><ele>743.8000000000001</ele><time>2026-04-11T09:09:51.999Z</time></trkpt><trkpt lat="41.87861" lon="2.3126017"><ele>745.4000000000001</ele><time>2026-04-11T09:09:52.998Z</time></trkpt><trkpt lat="41.8785117" lon="2.3126917"><ele>747.0</ele><time>2026-04-11T09:09:53.999Z</time></trkpt><trkpt lat="41.8784417" lon="2.3127867"><ele>747.0</ele><time>2026-04-11T09:09:54.998Z</time></trkpt><trkpt lat="41.87838" lon="2.3128917"><ele>747.0</ele><time>2026-04-11T09:09:55.998Z</time></trkpt><trkpt lat="41.87834" lon="2.3130017"><ele>747.0</ele><time>2026-04-11T09:09:56.998Z</time></trkpt><trkpt lat="41.87831" lon="2.313115"><ele>747.0</ele><time>2026-04-11T09:09:57.998Z</time></trkpt><trkpt lat="41.8782983" lon="2.31323"><ele>747.0</ele><time>2026-04-11T09:09:58.998Z</time></trkpt><trkpt lat="41.8782967" lon="2.313335"><ele>747.0</ele><time>2026-04-11T09:09:59.998Z</time></trkpt><trkpt lat="41.8782917" lon="2.3134367"><ele>747.0</ele><time>2026-04-11T09:10:00.999Z</time></trkpt><trkpt lat="41.87828" lon="2.31359"><ele>747.0</ele><time>2026-04-11T09:10:02.999Z</time></trkpt><trkpt lat="41.878255" lon="2.3136717"><ele>747.0</ele><time>2026-04-11T09:10:03.998Z</time></trkpt><trkpt lat="41.8782217" lon="2.31376"><ele>747.0</ele><time>2026-04-11T09:10:04.998Z</time></trkpt><trkpt lat="41.8781883" lon="2.3138617"><ele>747.0</ele><time>2026-04-11T09:10:05.998Z</time></trkpt><trkpt lat="41.8781533" lon="2.31399"><ele>747.0</ele><time>2026-04-11T09:10:06.998Z</time></trkpt><trkpt lat="41.87812" lon="2.3141333"><ele>745.25</ele><time>2026-04-11T09:10:07.998Z</time></trkpt><trkpt lat="41.8780833" lon="2.31429"><ele>743.5</ele><time>2026-04-11T09:10:08.998Z</time></trkpt><trkpt lat="41.8780367" lon="2.3144517"><ele>741.75</ele><time>2026-04-11T09:10:09.998Z</time></trkpt><trkpt lat="41.8779933" lon="2.3146017"><ele>740.0</ele><time>2026-04-11T09:10:10.998Z</time></trkpt><trkpt lat="41.87795" lon="2.314745"><ele>738.0</ele><time>2026-04-11T09:10:11.998Z</time></trkpt><trkpt lat="41.8779133" lon="2.3149067"><ele>736.0</ele><time>2026-04-11T09:10:12.998Z</time></trkpt><trkpt lat="41.8778733" lon="2.3150583"><ele>734.0</ele><time>2026-04-11T09:10:13.998Z</time></trkpt><trkpt lat="41.8778117" lon="2.31522"><ele>732.0</ele><time>2026-04-11T09:10:14.999Z</time></trkpt><trkpt lat="41.8777433" lon="2.3153733"><ele>732.0</ele><time>2026-04-11T09:10:15.998Z</time></trkpt><trkpt lat="41.87766" lon="2.3155283"><ele>732.0</ele><time>2026-04-11T09:10:16.998Z</time></trkpt><trkpt lat="41.8775867" lon="2.3156717"><ele>732.0</ele><time>2026-04-11T09:10:17.998Z</time></trkpt><trkpt lat="41.877535" lon="2.3158117"><ele>732.0</ele><time>2026-04-11T09:10:18.998Z</time></trkpt><trkpt lat="41.8774983" lon="2.315935"><ele>731.8</ele><time>2026-04-11T09:10:19.998Z</time></trkpt><trkpt lat="41.877505" lon="2.3160533"><ele>731.6</ele><time>2026-04-11T09:10:20.998Z</time></trkpt><trkpt lat="41.87753" lon="2.3161767"><ele>731.4</ele><time>2026-04-11T09:10:21.998Z</time></trkpt><trkpt lat="41.8775767" lon="2.3162933"><ele>731.1999999999999</ele><time>2026-04-11T09:10:22.998Z</time></trkpt><trkpt lat="41.8776333" lon="2.3164383"><ele>731.0</ele><time>2026-04-11T09:10:23.999Z</time></trkpt><trkpt lat="41.8776633" lon="2.3165867"><ele>731.0</ele><time>2026-04-11T09:10:24.998Z</time></trkpt><trkpt lat="41.877675" lon="2.31674"><ele>731.0</ele><time>2026-04-11T09:10:25.998Z</time></trkpt><trkpt lat="41.877655" lon="2.316905"><ele>731.0</ele><time>2026-04-11T09:10:26.998Z</time></trkpt><trkpt lat="41.8776017" lon="2.3170683"><ele>731.0</ele><time>2026-04-11T09:10:27.998Z</time></trkpt><trkpt lat="41.8775467" lon="2.317225"><ele>735.0</ele><time>2026-04-11T09:10:28.998Z</time></trkpt><trkpt lat="41.8774833" lon="2.3173833"><ele>739.0</ele><time>2026-04-11T09:10:29.998Z</time></trkpt><trkpt lat="41.8774183" lon="2.3175417"><ele>743.0</ele><time>2026-04-11T09:10:30.998Z</time></trkpt><trkpt lat="41.8773533" lon="2.3177217"><ele>747.0</ele><time>2026-04-11T09:10:31.998Z</time></trkpt><trkpt lat="41.8773017" lon="2.3178767"><ele>747.0</ele><time>2026-04-11T09:10:32.999Z</time></trkpt><trkpt lat="41.87725" lon="2.3180217"><ele>747.0</ele><time>2026-04-11T09:10:33.998Z</time></trkpt><trkpt lat="41.8772217" lon="2.31815"><ele>747.0</ele><time>2026-04-11T09:10:34.998Z</time></trkpt><trkpt lat="41.8772283" lon="2.318265"><ele>747.0</ele><time>2026-04-11T09:10:35.998Z</time></trkpt><trkpt lat="41.87726" lon="2.3183583"><ele>747.0</ele><time>2026-04-11T09:10:36.998Z</time></trkpt><trkpt lat="41.8773117" lon="2.31843"><ele>747.8</ele><time>2026-04-11T09:10:37.998Z</time></trkpt><trkpt lat="41.8773883" lon="2.3184567"><ele>748.6</ele><time>2026-04-11T09:10:38.998Z</time></trkpt><trkpt lat="41.877465" lon="2.318455"><ele>749.4</ele><time>2026-04-11T09:10:39.998Z</time></trkpt><trkpt lat="41.87756" lon="2.3184283"><ele>750.1999999999999</ele><time>2026-04-11T09:10:40.998Z</time></trkpt><trkpt lat="41.8776733" lon="2.3183833"><ele>751.0</ele><time>2026-04-11T09:10:41.998Z</time></trkpt><trkpt lat="41.8777667" lon="2.3183583"><ele>751.0</ele><time>2026-04-11T09:10:42.998Z</time></trkpt><trkpt lat="41.8778433" lon="2.3183533"><ele>751.0</ele><time>2026-04-11T09:10:43.998Z</time></trkpt><trkpt lat="41.877905" lon="2.3184433"><ele>751.0</ele><time>2026-04-11T09:10:45.998Z</time></trkpt><trkpt lat="41.877885" lon="2.318595"><ele>751.0</ele><time>2026-04-11T09:10:47.998Z</time></trkpt><trkpt lat="41.8778517" lon="2.31869"><ele>751.0</ele><time>2026-04-11T09:10:48.998Z</time></trkpt><trkpt lat="41.8778233" lon="2.3188"><ele>751.0</ele><time>2026-04-11T09:10:49.998Z</time></trkpt><trkpt lat="41.8778067" lon="2.31893"><ele>749.4</ele><time>2026-04-11T09:10:50.998Z</time></trkpt><trkpt lat="41.87778" lon="2.31907"><ele>747.8</ele><time>2026-04-11T09:10:51.998Z</time></trkpt><trkpt lat="41.8777333" lon="2.319185"><ele>746.1999999999999</ele><time>2026-04-11T09:10:52.998Z</time></trkpt><trkpt lat="41.8776533" lon="2.3192717"><ele>744.5999999999999</ele><time>2026-04-11T09:10:53.998Z</time></trkpt><trkpt lat="41.8775583" lon="2.319345"><ele>743.0</ele><time>2026-04-11T09:10:54.998Z</time></trkpt><trkpt lat="41.87745" lon="2.3194317"><ele>745.0</ele><time>2026-04-11T09:10:55.998Z</time></trkpt><trkpt lat="41.877335" lon="2.3195483"><ele>747.0</ele><time>2026-04-11T09:10:56.998Z</time></trkpt><trkpt lat="41.8772317" lon="2.3196983"><ele>749.0</ele><time>2026-04-11T09:10:57.998Z</time></trkpt><trkpt lat="41.8771483" lon="2.3198633"><ele>751.0</ele><time>2026-04-11T09:10:58.998Z</time></trkpt><trkpt lat="41.8770917" lon="2.3200417"><ele>751.0</ele><time>2026-04-11T09:10:59.999Z</time></trkpt><trkpt lat="41.8770267" lon="2.3202233"><ele>751.0</ele><time>2026-04-11T09:11:00.998Z</time></trkpt><trkpt lat="41.876955" lon="2.3204083"><ele>751.0</ele><time>2026-04-11T09:11:01.998Z</time></trkpt><trkpt lat="41.8768767" lon="2.320565"><ele>751.0</ele><time>2026-04-11T09:11:02.998Z</time></trkpt><trkpt lat="41.876795" lon="2.3207083"><ele>753.1999999999999</ele><time>2026-04-11T09:11:03.998Z</time></trkpt><trkpt lat="41.8767183" lon="2.3208383"><ele>755.4</ele><time>2026-04-11T09:11:04.998Z</time></trkpt><trkpt lat="41.87664" lon="2.32095"><ele>757.6</ele><time>2026-04-11T09:11:05.999Z</time></trkpt><trkpt lat="41.8765683" lon="2.3210417"><ele>759.8</ele><time>2026-04-11T09:11:06.998Z</time></trkpt><trkpt lat="41.8764967" lon="2.32111"><ele>762.0</ele><time>2026-04-11T09:11:07.998Z</time></trkpt><trkpt lat="41.8764517" lon="2.3212083"><ele>762.0</ele><time>2026-04-11T09:11:08.998Z</time></trkpt><trkpt lat="41.8764367" lon="2.3213333"><ele>762.0</ele><time>2026-04-11T09:11:09.998Z</time></trkpt><trkpt lat="41.87644" lon="2.3214783"><ele>762.0</ele><time>2026-04-11T09:11:10.998Z</time></trkpt><trkpt lat="41.87645" lon="2.321635"><ele>762.0</ele><time>2026-04-11T09:11:11.998Z</time></trkpt><trkpt lat="41.8764483" lon="2.3217883"><ele>762.0</ele><time>2026-04-11T09:11:12.999Z</time></trkpt><trkpt lat="41.8764283" lon="2.3219467"><ele>759.5</ele><time>2026-04-11T09:11:13.998Z</time></trkpt><trkpt lat="41.87638" lon="2.322105"><ele>757.0</ele><time>2026-04-11T09:11:14.998Z</time></trkpt><trkpt lat="41.8763083" lon="2.3222533"><ele>754.5</ele><time>2026-04-11T09:11:15.998Z</time></trkpt><trkpt lat="41.8762383" lon="2.322405"><ele>752.0</ele><time>2026-04-11T09:11:16.998Z</time></trkpt><trkpt lat="41.8761767" lon="2.3225633"><ele>750.25</ele><time>2026-04-11T09:11:17.998Z</time></trkpt><trkpt lat="41.8761233" lon="2.3227267"><ele>748.5</ele><time>2026-04-11T09:11:18.998Z</time></trkpt><trkpt lat="41.8760667" lon="2.3228933"><ele>746.75</ele><time>2026-04-11T09:11:19.998Z</time></trkpt><trkpt lat="41.8760117" lon="2.323045"><ele>745.0</ele><time>2026-04-11T09:11:20.998Z</time></trkpt><trkpt lat="41.875945" lon="2.323185"><ele>748.75</ele><time>2026-04-11T09:11:21.998Z</time></trkpt><trkpt lat="41.8758483" lon="2.3232917"><ele>752.5</ele><time>2026-04-11T09:11:22.998Z</time></trkpt><trkpt lat="41.8757433" lon="2.3233767"><ele>756.25</ele><time>2026-04-11T09:11:23.998Z</time></trkpt><trkpt lat="41.8756417" lon="2.3234717"><ele>760.0</ele><time>2026-04-11T09:11:24.998Z</time></trkpt><trkpt lat="41.87555" lon="2.3235517"><ele>760.0</ele><time>2026-04-11T09:11:25.998Z</time></trkpt><trkpt lat="41.87546" lon="2.3236483"><ele>760.0</ele><time>2026-04-11T09:11:26.998Z</time></trkpt><trkpt lat="41.875395" lon="2.3237317"><ele>760.0</ele><time>2026-04-11T09:11:27.998Z</time></trkpt><trkpt lat="41.8753467" lon="2.3237967"><ele>760.0</ele><time>2026-04-11T09:11:28.998Z</time></trkpt><trkpt lat="41.8752467" lon="2.3238683"><ele>760.0</ele><time>2026-04-11T09:11:30.998Z</time></trkpt><trkpt lat="41.8751583" lon="2.3238717"><ele>760.3333333333334</ele><time>2026-04-11T09:11:32.998Z</time></trkpt><trkpt lat="41.8750733" lon="2.3238517"><ele>760.6666666666667</ele><time>2026-04-11T09:11:34.998Z</time></trkpt><trkpt lat="41.87501" lon="2.32384"><ele>761.0</ele><time>2026-04-11T09:11:35.998Z</time></trkpt><trkpt lat="41.8749333" lon="2.32382"><ele>761.3333333333334</ele><time>2026-04-11T09:11:36.998Z</time></trkpt><trkpt lat="41.8748517" lon="2.3237833"><ele>761.6666666666666</ele><time>2026-04-11T09:11:37.998Z</time></trkpt><trkpt lat="41.87478" lon="2.3237333"><ele>762.0</ele><time>2026-04-11T09:11:38.998Z</time></trkpt><trkpt lat="41.874685" lon="2.3236317"><ele>762.0</ele><time>2026-04-11T09:11:40.998Z</time></trkpt><trkpt lat="41.8745783" lon="2.3235583"><ele>762.0</ele><time>2026-04-11T09:11:42.998Z</time></trkpt><trkpt lat="41.8744633" lon="2.3235467"><ele>762.0</ele><time>2026-04-11T09:11:44.998Z</time></trkpt><trkpt lat="41.8743883" lon="2.3235617"><ele>762.0</ele><time>2026-04-11T09:11:45.998Z</time></trkpt><trkpt lat="41.87431" lon="2.3235917"><ele>762.0</ele><time>2026-04-11T09:11:46.998Z</time></trkpt><trkpt lat="41.8742283" lon="2.3236283"><ele>761.0</ele><time>2026-04-11T09:11:47.998Z</time></trkpt><trkpt lat="41.87414" lon="2.3236733"><ele>760.0</ele><time>2026-04-11T09:11:48.998Z</time></trkpt><trkpt lat="41.8740483" lon="2.3237117"><ele>759.0</ele><time>2026-04-11T09:11:49.998Z</time></trkpt><trkpt lat="41.87397" lon="2.3237733"><ele>758.0</ele><time>2026-04-11T09:11:50.998Z</time></trkpt><trkpt lat="41.87389" lon="2.3238233"><ele>757.0</ele><time>2026-04-11T09:11:51.998Z</time></trkpt><trkpt lat="41.873815" lon="2.3238867"><ele>754.8333333333334</ele><time>2026-04-11T09:11:52.998Z</time></trkpt><trkpt lat="41.8737767" lon="2.3239817"><ele>752.6666666666667</ele><time>2026-04-11T09:11:53.998Z</time></trkpt><trkpt lat="41.8737567" lon="2.3240933"><ele>750.5</ele><time>2026-04-11T09:11:54.998Z</time></trkpt><trkpt lat="41.8737483" lon="2.3242"><ele>748.3333333333334</ele><time>2026-04-11T09:11:55.998Z</time></trkpt><trkpt lat="41.8737333" lon="2.32432"><ele>746.1666666666666</ele><time>2026-04-11T09:11:56.998Z</time></trkpt><trkpt lat="41.8737133" lon="2.3244333"><ele>744.0</ele><time>2026-04-11T09:11:57.998Z</time></trkpt><trkpt lat="41.8736733" lon="2.324535"><ele>744.0</ele><time>2026-04-11T09:11:58.998Z</time></trkpt><trkpt lat="41.8736117" lon="2.32464"><ele>744.0</ele><time>2026-04-11T09:11:59.998Z</time></trkpt><trkpt lat="41.8735283" lon="2.32474"><ele>744.0</ele><time>2026-04-11T09:12:00.998Z</time></trkpt><trkpt lat="41.8734283" lon="2.3248533"><ele>744.0</ele><time>2026-04-11T09:12:01.998Z</time></trkpt><trkpt lat="41.8733433" lon="2.3249583"><ele>744.0</ele><time>2026-04-11T09:12:02.998Z</time></trkpt><trkpt lat="41.8732583" lon="2.3250583"><ele>744.0</ele><time>2026-04-11T09:12:03.998Z</time></trkpt><trkpt lat="41.8731717" lon="2.3251217"><ele>744.0</ele><time>2026-04-11T09:12:04.998Z</time></trkpt><trkpt lat="41.8730917" lon="2.3251683"><ele>744.0</ele><time>2026-04-11T09:12:05.998Z</time></trkpt><trkpt lat="41.8730133" lon="2.3252233"><ele>744.0</ele><time>2026-04-11T09:12:06.998Z</time></trkpt><trkpt lat="41.8729483" lon="2.325205"><ele>744.0</ele><time>2026-04-11T09:12:07.998Z</time></trkpt><trkpt lat="41.87286" lon="2.3251033"><ele>744.0</ele><time>2026-04-11T09:12:09.998Z</time></trkpt><trkpt lat="41.8728167" lon="2.3250133"><ele>744.0</ele><time>2026-04-11T09:12:10.998Z</time></trkpt><trkpt lat="41.872785" lon="2.3248867"><ele>744.0</ele><time>2026-04-11T09:12:11.998Z</time></trkpt><trkpt lat="41.8727567" lon="2.32475"><ele>744.0</ele><time>2026-04-11T09:12:12.998Z</time></trkpt><trkpt lat="41.8727183" lon="2.324645"><ele>745.6</ele><time>2026-04-11T09:12:13.998Z</time></trkpt><trkpt lat="41.87264" lon="2.3245467"><ele>747.2</ele><time>2026-04-11T09:12:15.998Z</time></trkpt><trkpt lat="41.8725167" lon="2.3245467"><ele>748.8000000000001</ele><time>2026-04-11T09:12:17.998Z</time></trkpt><trkpt lat="41.872425" lon="2.3245667"><ele>750.4000000000001</ele><time>2026-04-11T09:12:18.998Z</time></trkpt><trkpt lat="41.8723417" lon="2.3245633"><ele>752.0</ele><time>2026-04-11T09:12:19.998Z</time></trkpt><trkpt lat="41.872245" lon="2.3245583"><ele>752.0</ele><time>2026-04-11T09:12:20.998Z</time></trkpt><trkpt lat="41.8721683" lon="2.3245367"><ele>752.0</ele><time>2026-04-11T09:12:21.998Z</time></trkpt><trkpt lat="41.8721067" lon="2.3245033"><ele>752.0</ele><time>2026-04-11T09:12:22.998Z</time></trkpt><trkpt lat="41.872005" lon="2.3244517"><ele>752.0</ele><time>2026-04-11T09:12:24.998Z</time></trkpt><trkpt lat="41.8719183" lon="2.3244567"><ele>752.0</ele><time>2026-04-11T09:12:26.998Z</time></trkpt><trkpt lat="41.8718617" lon="2.324565"><ele>752.0</ele><time>2026-04-11T09:12:28.998Z</time></trkpt><trkpt lat="41.871815" lon="2.324675"><ele>750.4000000000001</ele><time>2026-04-11T09:12:29.998Z</time></trkpt><trkpt lat="41.8717667" lon="2.324785"><ele>748.8000000000001</ele><time>2026-04-11T09:12:30.998Z</time></trkpt><trkpt lat="41.8717283" lon="2.3249"><ele>747.2</ele><time>2026-04-11T09:12:31.998Z</time></trkpt><trkpt lat="41.8716617" lon="2.3250383"><ele>745.6</ele><time>2026-04-11T09:12:32.998Z</time></trkpt><trkpt lat="41.8715867" lon="2.3251567"><ele>744.0</ele><time>2026-04-11T09:12:33.998Z</time></trkpt><trkpt lat="41.871495" lon="2.3252567"><ele>744.0</ele><time>2026-04-11T09:12:34.998Z</time></trkpt><trkpt lat="41.8714" lon="2.3253467"><ele>744.0</ele><time>2026-04-11T09:12:35.998Z</time></trkpt><trkpt lat="41.8713167" lon="2.3254283"><ele>744.0</ele><time>2026-04-11T09:12:36.998Z</time></trkpt><trkpt lat="41.8712467" lon="2.3255133"><ele>744.0</ele><time>2026-04-11T09:12:37.998Z</time></trkpt><trkpt lat="41.87118" lon="2.3255883"><ele>744.0</ele><time>2026-04-11T09:12:38.998Z</time></trkpt><trkpt lat="41.8711133" lon="2.325655"><ele>743.6666666666666</ele><time>2026-04-11T09:12:39.998Z</time></trkpt><trkpt lat="41.8710633" lon="2.32572"><ele>743.3333333333334</ele><time>2026-04-11T09:12:40.998Z</time></trkpt><trkpt lat="41.8709667" lon="2.3258033"><ele>743.0</ele><time>2026-04-11T09:12:42.998Z</time></trkpt><trkpt lat="41.8709033" lon="2.3258217"><ele>742.6666666666667</ele><time>2026-04-11T09:12:43.998Z</time></trkpt><trkpt lat="41.8708267" lon="2.325815"><ele>742.3333333333334</ele><time>2026-04-11T09:12:44.998Z</time></trkpt><trkpt lat="41.8707517" lon="2.32579"><ele>742.0</ele><time>2026-04-11T09:12:45.998Z</time></trkpt><trkpt lat="41.87068" lon="2.325775"><ele>742.0</ele><time>2026-04-11T09:12:46.998Z</time></trkpt><trkpt lat="41.8706167" lon="2.32578"><ele>742.0</ele><time>2026-04-11T09:12:47.998Z</time></trkpt><trkpt lat="41.87055" lon="2.3257883"><ele>742.0</ele><time>2026-04-11T09:12:48.998Z</time></trkpt><trkpt lat="41.87049" lon="2.325825"><ele>742.0</ele><time>2026-04-11T09:12:49.998Z</time></trkpt><trkpt lat="41.8704083" lon="2.3259367"><ele>742.0</ele><time>2026-04-11T09:12:51.998Z</time></trkpt><trkpt lat="41.87037" lon="2.3260983"><ele>742.0</ele><time>2026-04-11T09:12:53.998Z</time></trkpt><trkpt lat="41.8703633" lon="2.32621"><ele>742.0</ele><time>2026-04-11T09:12:54.998Z</time></trkpt><trkpt lat="41.870375" lon="2.3263367"><ele>742.0</ele><time>2026-04-11T09:12:55.998Z</time></trkpt><trkpt lat="41.8703567" lon="2.326455"><ele>742.0</ele><time>2026-04-11T09:12:56.998Z</time></trkpt><trkpt lat="41.870325" lon="2.3265633"><ele>742.0</ele><time>2026-04-11T09:12:57.998Z</time></trkpt><trkpt lat="41.87028" lon="2.3266517"><ele>742.0</ele><time>2026-04-11T09:12:58.998Z</time></trkpt><trkpt lat="41.8702117" lon="2.3267167"><ele>742.0</ele><time>2026-04-11T09:12:59.998Z</time></trkpt><trkpt lat="41.8701483" lon="2.3267567"><ele>741.8</ele><time>2026-04-11T09:13:00.998Z</time></trkpt><trkpt lat="41.8700483" lon="2.32676"><ele>741.6</ele><time>2026-04-11T09:13:01.998Z</time></trkpt><trkpt lat="41.869945" lon="2.3267033"><ele>741.4</ele><time>2026-04-11T09:13:02.998Z</time></trkpt><trkpt lat="41.869835" lon="2.3266667"><ele>741.1999999999999</ele><time>2026-04-11T09:13:03.998Z</time></trkpt><trkpt lat="41.8697483" lon="2.3266617"><ele>741.0</ele><time>2026-04-11T09:13:04.998Z</time></trkpt><trkpt lat="41.86965" lon="2.32668"><ele>741.0</ele><time>2026-04-11T09:13:05.999Z</time></trkpt><trkpt lat="41.869565" lon="2.3267283"><ele>741.0</ele><time>2026-04-11T09:13:06.998Z</time></trkpt><trkpt lat="41.8694933" lon="2.3268333"><ele>741.0</ele><time>2026-04-11T09:13:07.998Z</time></trkpt><trkpt lat="41.8694167" lon="2.32695"><ele>741.0</ele><time>2026-04-11T09:13:08.998Z</time></trkpt><trkpt lat="41.8693433" lon="2.3270517"><ele>741.0</ele><time>2026-04-11T09:13:09.998Z</time></trkpt><trkpt lat="41.8692633" lon="2.3271583"><ele>739.75</ele><time>2026-04-11T09:13:10.998Z</time></trkpt><trkpt lat="41.86916" lon="2.3272583"><ele>738.5</ele><time>2026-04-11T09:13:11.998Z</time></trkpt><trkpt lat="41.8690583" lon="2.32735"><ele>737.25</ele><time>2026-04-11T09:13:12.998Z</time></trkpt><trkpt lat="41.86894" lon="2.32744"><ele>736.0</ele><time>2026-04-11T09:13:13.998Z</time></trkpt><trkpt lat="41.8688333" lon="2.3275233"><ele>736.0</ele><time>2026-04-11T09:13:14.998Z</time></trkpt><trkpt lat="41.8687183" lon="2.3275917"><ele>736.0</ele><time>2026-04-11T09:13:15.998Z</time></trkpt><trkpt lat="41.8686133" lon="2.3276633"><ele>736.0</ele><time>2026-04-11T09:13:16.998Z</time></trkpt><trkpt lat="41.8685283" lon="2.3277417"><ele>736.0</ele><time>2026-04-11T09:13:17.998Z</time></trkpt><trkpt lat="41.8684533" lon="2.32782"><ele>736.0</ele><time>2026-04-11T09:13:18.998Z</time></trkpt><trkpt lat="41.8683833" lon="2.3279033"><ele>736.5</ele><time>2026-04-11T09:13:19.998Z</time></trkpt><trkpt lat="41.8683067" lon="2.3279583"><ele>737.0</ele><time>2026-04-11T09:13:20.999Z</time></trkpt><trkpt lat="41.8682333" lon="2.32799"><ele>737.5</ele><time>2026-04-11T09:13:21.998Z</time></trkpt><trkpt lat="41.8681667" lon="2.32797"><ele>738.0</ele><time>2026-04-11T09:13:22.998Z</time></trkpt><trkpt lat="41.8681083" lon="2.3278917"><ele>738.5</ele><time>2026-04-11T09:13:23.998Z</time></trkpt><trkpt lat="41.868045" lon="2.3278067"><ele>739.0</ele><time>2026-04-11T09:13:24.999Z</time></trkpt><trkpt lat="41.8679833" lon="2.3277167"><ele>739.0</ele><time>2026-04-11T09:13:25.998Z</time></trkpt><trkpt lat="41.86793" lon="2.327625"><ele>739.0</ele><time>2026-04-11T09:13:26.998Z</time></trkpt><trkpt lat="41.8678633" lon="2.32752"><ele>739.0</ele><time>2026-04-11T09:13:27.998Z</time></trkpt><trkpt lat="41.8678083" lon="2.327435"><ele>739.0</ele><time>2026-04-11T09:13:28.998Z</time></trkpt><trkpt lat="41.86776" lon="2.3273483"><ele>739.0</ele><time>2026-04-11T09:13:29.998Z</time></trkpt><trkpt lat="41.8677133" lon="2.327245"><ele>739.0</ele><time>2026-04-11T09:13:30.998Z</time></trkpt><trkpt lat="41.8676867" lon="2.3271167"><ele>740.6</ele><time>2026-04-11T09:13:31.998Z</time></trkpt><trkpt lat="41.867675" lon="2.32697"><ele>742.2</ele><time>2026-04-11T09:13:32.998Z</time></trkpt><trkpt lat="41.86767" lon="2.3268167"><ele>743.8000000000001</ele><time>2026-04-11T09:13:33.998Z</time></trkpt><trkpt lat="41.8676667" lon="2.326675"><ele>745.4000000000001</ele><time>2026-04-11T09:13:34.998Z</time></trkpt><trkpt lat="41.8676617" lon="2.3265283"><ele>747.0</ele><time>2026-04-11T09:13:35.998Z</time></trkpt><trkpt lat="41.8676417" lon="2.3263933"><ele>746.6666666666666</ele><time>2026-04-11T09:13:36.998Z</time></trkpt><trkpt lat="41.867615" lon="2.3262833"><ele>746.3333333333334</ele><time>2026-04-11T09:13:37.998Z</time></trkpt><trkpt lat="41.8675733" lon="2.3261983"><ele>746.0</ele><time>2026-04-11T09:13:38.998Z</time></trkpt><trkpt lat="41.86752" lon="2.32614"><ele>745.6666666666667</ele><time>2026-04-11T09:13:39.998Z</time></trkpt><trkpt lat="41.86743" lon="2.326135"><ele>745.3333333333334</ele><time>2026-04-11T09:13:40.998Z</time></trkpt><trkpt lat="41.8673383" lon="2.326135"><ele>745.0</ele><time>2026-04-11T09:13:41.998Z</time></trkpt><trkpt lat="41.867255" lon="2.3261133"><ele>745.0</ele><time>2026-04-11T09:13:42.998Z</time></trkpt><trkpt lat="41.8671783" lon="2.3260583"><ele>745.0</ele><time>2026-04-11T09:13:43.998Z</time></trkpt><trkpt lat="41.867115" lon="2.3259817"><ele>745.0</ele><time>2026-04-11T09:13:44.998Z</time></trkpt><trkpt lat="41.8670683" lon="2.325875"><ele>745.0</ele><time>2026-04-11T09:13:45.998Z</time></trkpt><trkpt lat="41.86702" lon="2.3257383"><ele>745.0</ele><time>2026-04-11T09:13:46.998Z</time></trkpt><trkpt lat="41.86696" lon="2.32561"><ele>747.0</ele><time>2026-04-11T09:13:47.998Z</time></trkpt><trkpt lat="41.866915" lon="2.3254883"><ele>749.0</ele><time>2026-04-11T09:13:48.998Z</time></trkpt><trkpt lat="41.866895" lon="2.3253617"><ele>751.0</ele><time>2026-04-11T09:13:49.998Z</time></trkpt><trkpt lat="41.8668933" lon="2.3252383"><ele>753.0</ele><time>2026-04-11T09:13:50.998Z</time></trkpt><trkpt lat="41.8669167" lon="2.3251217"><ele>755.0</ele><time>2026-04-11T09:13:51.998Z</time></trkpt><trkpt lat="41.8669583" lon="2.3249967"><ele>755.0</ele><time>2026-04-11T09:13:52.999Z</time></trkpt><trkpt lat="41.8670117" lon="2.32487"><ele>755.0</ele><time>2026-04-11T09:13:53.998Z</time></trkpt><trkpt lat="41.867085" lon="2.3247367"><ele>755.0</ele><time>2026-04-11T09:13:54.998Z</time></trkpt><trkpt lat="41.8671583" lon="2.3245867"><ele>755.0</ele><time>2026-04-11T09:13:55.998Z</time></trkpt><trkpt lat="41.86722" lon="2.3244283"><ele>757.0</ele><time>2026-04-11T09:13:56.998Z</time></trkpt><trkpt lat="41.8672817" lon="2.324295"><ele>759.0</ele><time>2026-04-11T09:13:57.998Z</time></trkpt><trkpt lat="41.867315" lon="2.3241883"><ele>761.0</ele><time>2026-04-11T09:13:58.999Z</time></trkpt><trkpt lat="41.867295" lon="2.3240567"><ele>763.0</ele><time>2026-04-11T09:14:00.998Z</time></trkpt><trkpt lat="41.8672433" lon="2.3240067"><ele>765.0</ele><time>2026-04-11T09:14:01.998Z</time></trkpt><trkpt lat="41.8671917" lon="2.3239567"><ele>767.0</ele><time>2026-04-11T09:14:02.998Z</time></trkpt><trkpt lat="41.86712" lon="2.3239183"><ele>769.8</ele><time>2026-04-11T09:14:03.998Z</time></trkpt><trkpt lat="41.8670417" lon="2.3238633"><ele>772.6</ele><time>2026-04-11T09:14:04.998Z</time></trkpt><trkpt lat="41.8670083" lon="2.323735"><ele>775.4</ele><time>2026-04-11T09:14:05.998Z</time></trkpt><trkpt lat="41.8669583" lon="2.3235917"><ele>778.1999999999999</ele><time>2026-04-11T09:14:06.998Z</time></trkpt><trkpt lat="41.8669233" lon="2.32343"><ele>781.0</ele><time>2026-04-11T09:14:07.998Z</time></trkpt><trkpt lat="41.8669033" lon="2.3232717"><ele>781.0</ele><time>2026-04-11T09:14:08.998Z</time></trkpt><trkpt lat="41.86689" lon="2.32312"><ele>781.0</ele><time>2026-04-11T09:14:09.998Z</time></trkpt><trkpt lat="41.8668617" lon="2.3229933"><ele>781.0</ele><time>2026-04-11T09:14:10.998Z</time></trkpt><trkpt lat="41.8668083" lon="2.3228867"><ele>781.0</ele><time>2026-04-11T09:14:11.998Z</time></trkpt><trkpt lat="41.8667417" lon="2.322775"><ele>781.0</ele><time>2026-04-11T09:14:12.998Z</time></trkpt><trkpt lat="41.8666733" lon="2.3226367"><ele>782.0</ele><time>2026-04-11T09:14:13.998Z</time></trkpt><trkpt lat="41.8666" lon="2.3224883"><ele>783.0</ele><time>2026-04-11T09:14:14.998Z</time></trkpt><trkpt lat="41.86653" lon="2.3223267"><ele>784.0</ele><time>2026-04-11T09:14:15.998Z</time></trkpt><trkpt lat="41.86645" lon="2.322165"><ele>785.0</ele><time>2026-04-11T09:14:16.998Z</time></trkpt><trkpt lat="41.866375" lon="2.3220167"><ele>785.0</ele><time>2026-04-11T09:14:17.998Z</time></trkpt><trkpt lat="41.866305" lon="2.3218917"><ele>785.0</ele><time>2026-04-11T09:14:18.998Z</time></trkpt><trkpt lat="41.8662467" lon="2.3217883"><ele>785.0</ele><time>2026-04-11T09:14:19.998Z</time></trkpt><trkpt lat="41.8662167" lon="2.3217067"><ele>785.0</ele><time>2026-04-11T09:14:20.998Z</time></trkpt><trkpt lat="41.866175" lon="2.3216067"><ele>785.0</ele><time>2026-04-11T09:14:22.998Z</time></trkpt><trkpt lat="41.86613" lon="2.32149"><ele>785.0000000000001</ele><time>2026-04-11T09:14:31.997Z</time></trkpt><trkpt lat="41.8660633" lon="2.32144"><ele>785.0</ele><time>2026-04-11T09:14:33.997Z</time></trkpt><trkpt lat="41.8659483" lon="2.3214517"><ele>785.0</ele><time>2026-04-11T09:14:35.997Z</time></trkpt><trkpt lat="41.8658783" lon="2.32146"><ele>785.0</ele><time>2026-04-11T09:14:36.997Z</time></trkpt><trkpt lat="41.8658" lon="2.321455"><ele>785.0000000000001</ele><time>2026-04-11T09:14:37.997Z</time></trkpt><trkpt lat="41.8657167" lon="2.3214417"><ele>785.0</ele><time>2026-04-11T09:14:38.997Z</time></trkpt><trkpt lat="41.8656283" lon="2.32142"><ele>783.4</ele><time>2026-04-11T09:14:39.997Z</time></trkpt><trkpt lat="41.86553" lon="2.3213917"><ele>781.8</ele><time>2026-04-11T09:14:40.997Z</time></trkpt><trkpt lat="41.8654183" lon="2.321355"><ele>780.2</ele><time>2026-04-11T09:14:41.997Z</time></trkpt><trkpt lat="41.8653083" lon="2.321305"><ele>778.6</ele><time>2026-04-11T09:14:42.997Z</time></trkpt><trkpt lat="41.8652" lon="2.3212617"><ele>777.0</ele><time>2026-04-11T09:14:43.997Z</time></trkpt><trkpt lat="41.865095" lon="2.3212383"><ele>780.8</ele><time>2026-04-11T09:14:44.997Z</time></trkpt><trkpt lat="41.8649933" lon="2.3212317"><ele>784.6</ele><time>2026-04-11T09:14:45.997Z</time></trkpt><trkpt lat="41.8648917" lon="2.32123"><ele>788.4</ele><time>2026-04-11T09:14:46.997Z</time></trkpt><trkpt lat="41.8647933" lon="2.3212383"><ele>792.1999999999999</ele><time>2026-04-11T09:14:47.997Z</time></trkpt><trkpt lat="41.8647033" lon="2.3212383"><ele>796.0</ele><time>2026-04-11T09:14:48.997Z</time></trkpt><trkpt lat="41.8646333" lon="2.3212483"><ele>796.0</ele><time>2026-04-11T09:14:49.997Z</time></trkpt><trkpt lat="41.86453" lon="2.3212583"><ele>796.0</ele><time>2026-04-11T09:14:51.997Z</time></trkpt><trkpt lat="41.8644033" lon="2.3212017"><ele>796.0</ele><time>2026-04-11T09:14:53.997Z</time></trkpt><trkpt lat="41.8643217" lon="2.32116"><ele>796.0</ele><time>2026-04-11T09:14:54.997Z</time></trkpt><trkpt lat="41.864225" lon="2.3211167"><ele>796.0</ele><time>2026-04-11T09:14:55.997Z</time></trkpt><trkpt lat="41.8641033" lon="2.3210767"><ele>799.5</ele><time>2026-04-11T09:14:56.997Z</time></trkpt><trkpt lat="41.86398" lon="2.3210567"><ele>803.0</ele><time>2026-04-11T09:14:57.997Z</time></trkpt><trkpt lat="41.8638583" lon="2.32103"><ele>806.5</ele><time>2026-04-11T09:14:58.997Z</time></trkpt><trkpt lat="41.86373" lon="2.321005"><ele>810.0</ele><time>2026-04-11T09:14:59.998Z</time></trkpt><trkpt lat="41.8635867" lon="2.3210267"><ele>810.0</ele><time>2026-04-11T09:15:00.997Z</time></trkpt><trkpt lat="41.863465" lon="2.3210333"><ele>810.0</ele><time>2026-04-11T09:15:01.997Z</time></trkpt><trkpt lat="41.8633433" lon="2.32105"><ele>810.0</ele><time>2026-04-11T09:15:02.997Z</time></trkpt><trkpt lat="41.86323" lon="2.32104"><ele>810.0</ele><time>2026-04-11T09:15:03.997Z</time></trkpt><trkpt lat="41.863115" lon="2.32099"><ele>811.5</ele><time>2026-04-11T09:15:04.997Z</time></trkpt><trkpt lat="41.86299" lon="2.32094"><ele>813.0</ele><time>2026-04-11T09:15:05.997Z</time></trkpt><trkpt lat="41.8628633" lon="2.3208933"><ele>814.5</ele><time>2026-04-11T09:15:06.997Z</time></trkpt><trkpt lat="41.8627433" lon="2.3208617"><ele>816.0</ele><time>2026-04-11T09:15:07.997Z</time></trkpt><trkpt lat="41.8626367" lon="2.3208417"><ele>816.4</ele><time>2026-04-11T09:15:08.997Z</time></trkpt><trkpt lat="41.8625467" lon="2.3207983"><ele>816.8</ele><time>2026-04-11T09:15:09.997Z</time></trkpt><trkpt lat="41.862455" lon="2.320735"><ele>817.1999999999999</ele><time>2026-04-11T09:15:10.997Z</time></trkpt><trkpt lat="41.8623683" lon="2.32064"><ele>817.5999999999999</ele><time>2026-04-11T09:15:11.997Z</time></trkpt><trkpt lat="41.8622883" lon="2.32051"><ele>818.0</ele><time>2026-04-11T09:15:12.997Z</time></trkpt><trkpt lat="41.8622067" lon="2.32037"><ele>818.0</ele><time>2026-04-11T09:15:13.997Z</time></trkpt><trkpt lat="41.8621217" lon="2.32023"><ele>818.0</ele><time>2026-04-11T09:15:14.997Z</time></trkpt><trkpt lat="41.8620383" lon="2.3201067"><ele>818.0</ele><time>2026-04-11T09:15:15.997Z</time></trkpt><trkpt lat="41.8619617" lon="2.32001"><ele>818.0</ele><time>2026-04-11T09:15:16.997Z</time></trkpt><trkpt lat="41.8618817" lon="2.31993"><ele>818.0</ele><time>2026-04-11T09:15:17.997Z</time></trkpt><trkpt lat="41.86179" lon="2.3198533"><ele>818.0</ele><time>2026-04-11T09:15:18.997Z</time></trkpt><trkpt lat="41.8616917" lon="2.3197967"><ele>818.0</ele><time>2026-04-11T09:15:19.997Z</time></trkpt><trkpt lat="41.8615867" lon="2.3197633"><ele>818.0</ele><time>2026-04-11T09:15:20.998Z</time></trkpt><trkpt lat="41.8614617" lon="2.3197417"><ele>818.0</ele><time>2026-04-11T09:15:21.997Z</time></trkpt><trkpt lat="41.861325" lon="2.3197083"><ele>815.0</ele><time>2026-04-11T09:15:22.998Z</time></trkpt><trkpt lat="41.8611883" lon="2.3196667"><ele>812.0</ele><time>2026-04-11T09:15:23.998Z</time></trkpt><trkpt lat="41.861055" lon="2.3196317"><ele>809.0</ele><time>2026-04-11T09:15:24.997Z</time></trkpt><trkpt lat="41.8609167" lon="2.3195867"><ele>806.0</ele><time>2026-04-11T09:15:25.997Z</time></trkpt><trkpt lat="41.8607783" lon="2.3195367"><ele>806.0</ele><time>2026-04-11T09:15:26.997Z</time></trkpt><trkpt lat="41.860645" lon="2.3194867"><ele>806.0</ele><time>2026-04-11T09:15:27.997Z</time></trkpt><trkpt lat="41.86053" lon="2.319435"><ele>806.0</ele><time>2026-04-11T09:15:28.997Z</time></trkpt><trkpt lat="41.8604283" lon="2.31939"><ele>806.0</ele><time>2026-04-11T09:15:29.997Z</time></trkpt><trkpt lat="41.86034" lon="2.3193167"><ele>806.0000000000001</ele><time>2026-04-11T09:15:30.997Z</time></trkpt><trkpt lat="41.8602667" lon="2.3192617"><ele>806.0</ele><time>2026-04-11T09:15:31.997Z</time></trkpt><trkpt lat="41.8602067" lon="2.31922"><ele>806.0</ele><time>2026-04-11T09:15:32.997Z</time></trkpt><trkpt lat="41.8601117" lon="2.3191"><ele>806.0</ele><time>2026-04-11T09:15:34.997Z</time></trkpt><trkpt lat="41.8600583" lon="2.319025"><ele>806.0000000000001</ele><time>2026-04-11T09:15:35.998Z</time></trkpt><trkpt lat="41.8599917" lon="2.3189683"><ele>806.0</ele><time>2026-04-11T09:15:36.998Z</time></trkpt><trkpt lat="41.859925" lon="2.318925"><ele>807.2857142857143</ele><time>2026-04-11T09:15:37.998Z</time></trkpt><trkpt lat="41.85985" lon="2.31891"><ele>808.5714285714286</ele><time>2026-04-11T09:15:38.997Z</time></trkpt><trkpt lat="41.859775" lon="2.31892"><ele>809.8571428571429</ele><time>2026-04-11T09:15:39.997Z</time></trkpt><trkpt lat="41.859695" lon="2.3189383"><ele>811.1428571428571</ele><time>2026-04-11T09:15:40.997Z</time></trkpt><trkpt lat="41.8596217" lon="2.31896"><ele>812.4285714285713</ele><time>2026-04-11T09:15:41.997Z</time></trkpt><trkpt lat="41.85955" lon="2.3189617"><ele>813.7142857142857</ele><time>2026-04-11T09:15:42.997Z</time></trkpt><trkpt lat="41.8594867" lon="2.3189483"><ele>815.0</ele><time>2026-04-11T09:15:43.997Z</time></trkpt><trkpt lat="41.8593967" lon="2.3188683"><ele>815.0</ele><time>2026-04-11T09:15:45.997Z</time></trkpt><trkpt lat="41.8593667" lon="2.318785"><ele>815.0</ele><time>2026-04-11T09:15:46.997Z</time></trkpt><trkpt lat="41.8593217" lon="2.3186867"><ele>815.0</ele><time>2026-04-11T09:15:47.998Z</time></trkpt><trkpt lat="41.859265" lon="2.3185783"><ele>815.0</ele><time>2026-04-11T09:15:48.997Z</time></trkpt><trkpt lat="41.8592033" lon="2.3184567"><ele>815.0</ele><time>2026-04-11T09:15:49.997Z</time></trkpt><trkpt lat="41.85914" lon="2.3183317"><ele>818.8</ele><time>2026-04-11T09:15:50.997Z</time></trkpt><trkpt lat="41.859075" lon="2.3182083"><ele>822.6</ele><time>2026-04-11T09:15:51.997Z</time></trkpt><trkpt lat="41.8590167" lon="2.318095"><ele>826.4000000000001</ele><time>2026-04-11T09:15:52.997Z</time></trkpt><trkpt lat="41.8589817" lon="2.3179817"><ele>830.2</ele><time>2026-04-11T09:15:53.997Z</time></trkpt><trkpt lat="41.8589583" lon="2.3178633"><ele>834.0</ele><time>2026-04-11T09:15:54.997Z</time></trkpt><trkpt lat="41.8589633" lon="2.3177483"><ele>834.0</ele><time>2026-04-11T09:15:55.997Z</time></trkpt><trkpt lat="41.8589817" lon="2.3176183"><ele>834.0</ele><time>2026-04-11T09:15:56.997Z</time></trkpt><trkpt lat="41.85899" lon="2.3174817"><ele>834.0</ele><time>2026-04-11T09:15:57.997Z</time></trkpt><trkpt lat="41.8589833" lon="2.3173467"><ele>834.0</ele><time>2026-04-11T09:15:58.997Z</time></trkpt><trkpt lat="41.8589783" lon="2.3172267"><ele>834.0</ele><time>2026-04-11T09:15:59.997Z</time></trkpt><trkpt lat="41.8589867" lon="2.3171017"><ele>833.25</ele><time>2026-04-11T09:16:00.998Z</time></trkpt><trkpt lat="41.85901" lon="2.31695"><ele>832.5</ele><time>2026-04-11T09:16:01.997Z</time></trkpt><trkpt lat="41.8590433" lon="2.3167883"><ele>831.75</ele><time>2026-04-11T09:16:02.997Z</time></trkpt><trkpt lat="41.8590867" lon="2.316615"><ele>831.0</ele><time>2026-04-11T09:16:03.997Z</time></trkpt><trkpt lat="41.859135" lon="2.3164367"><ele>830.25</ele><time>2026-04-11T09:16:04.997Z</time></trkpt><trkpt lat="41.8591917" lon="2.3162683"><ele>829.5</ele><time>2026-04-11T09:16:05.997Z</time></trkpt><trkpt lat="41.859235" lon="2.3161017"><ele>828.75</ele><time>2026-04-11T09:16:06.997Z</time></trkpt><trkpt lat="41.859275" lon="2.315915"><ele>828.0</ele><time>2026-04-11T09:16:07.997Z</time></trkpt><trkpt lat="41.8593117" lon="2.3157317"><ele>826.25</ele><time>2026-04-11T09:16:08.997Z</time></trkpt><trkpt lat="41.8593367" lon="2.3155633"><ele>824.5</ele><time>2026-04-11T09:16:09.997Z</time></trkpt><trkpt lat="41.8593567" lon="2.3154133"><ele>822.75</ele><time>2026-04-11T09:16:10.997Z</time></trkpt><trkpt lat="41.8593783" lon="2.3152933"><ele>821.0</ele><time>2026-04-11T09:16:11.997Z</time></trkpt><trkpt lat="41.85943" lon="2.3151483"><ele>821.0</ele><time>2026-04-11T09:16:13.997Z</time></trkpt><trkpt lat="41.8595133" lon="2.3150217"><ele>821.0</ele><time>2026-04-11T09:16:15.997Z</time></trkpt><trkpt lat="41.8595717" lon="2.3149717"><ele>821.0</ele><time>2026-04-11T09:16:16.998Z</time></trkpt><trkpt lat="41.8596483" lon="2.3149267"><ele>821.0</ele><time>2026-04-11T09:16:17.997Z</time></trkpt><trkpt lat="41.85973" lon="2.3148867"><ele>821.0</ele><time>2026-04-11T09:16:18.997Z</time></trkpt><trkpt lat="41.8598117" lon="2.3148483"><ele>821.0000000000001</ele><time>2026-04-11T09:16:19.997Z</time></trkpt><trkpt lat="41.8598733" lon="2.31481"><ele>821.0</ele><time>2026-04-11T09:16:20.997Z</time></trkpt><trkpt lat="41.85994" lon="2.3147333"><ele>821.0</ele><time>2026-04-11T09:16:22.997Z</time></trkpt><trkpt lat="41.859925" lon="2.31464"><ele>821.0</ele><time>2026-04-11T09:16:25.997Z</time></trkpt><trkpt lat="41.8598433" lon="2.3146317"><ele>821.0000000000001</ele><time>2026-04-11T09:16:27.997Z</time></trkpt><trkpt lat="41.85974" lon="2.314625"><ele>821.0</ele><time>2026-04-11T09:16:29.997Z</time></trkpt><trkpt lat="41.85967" lon="2.3146367"><ele>820.8333333333334</ele><time>2026-04-11T09:16:30.997Z</time></trkpt><trkpt lat="41.8595967" lon="2.3146467"><ele>820.6666666666667</ele><time>2026-04-11T09:16:31.997Z</time></trkpt><trkpt lat="41.8595183" lon="2.3146533"><ele>820.5</ele><time>2026-04-11T09:16:32.997Z</time></trkpt><trkpt lat="41.8594317" lon="2.31464"><ele>820.3333333333333</ele><time>2026-04-11T09:16:33.997Z</time></trkpt><trkpt lat="41.8593417" lon="2.3146317"><ele>820.1666666666666</ele><time>2026-04-11T09:16:34.997Z</time></trkpt><trkpt lat="41.85926" lon="2.3146417"><ele>820.0</ele><time>2026-04-11T09:16:35.997Z</time></trkpt><trkpt lat="41.8591767" lon="2.3146433"><ele>819.9999999999999</ele><time>2026-04-11T09:16:36.997Z</time></trkpt><trkpt lat="41.8591017" lon="2.3146633"><ele>820.0</ele><time>2026-04-11T09:16:37.997Z</time></trkpt><trkpt lat="41.8590333" lon="2.3146833"><ele>820.0</ele><time>2026-04-11T09:16:38.997Z</time></trkpt><trkpt lat="41.858975" lon="2.3147167"><ele>820.0</ele><time>2026-04-11T09:16:39.997Z</time></trkpt><trkpt lat="41.8589083" lon="2.3148267"><ele>819.9999999999999</ele><time>2026-04-11T09:16:41.997Z</time></trkpt><trkpt lat="41.858855" lon="2.3148883"><ele>820.0</ele><time>2026-04-11T09:16:43.997Z</time></trkpt><trkpt lat="41.8587817" lon="2.3148517"><ele>820.0</ele><time>2026-04-11T09:16:46.997Z</time></trkpt><trkpt lat="41.8587883" lon="2.3147583"><ele>820.0</ele><time>2026-04-11T09:16:48.997Z</time></trkpt><trkpt lat="41.8588033" lon="2.3146683"><ele>820.0</ele><time>2026-04-11T09:16:49.997Z</time></trkpt><trkpt lat="41.8588117" lon="2.3145433"><ele>820.0</ele><time>2026-04-11T09:16:50.997Z</time></trkpt><trkpt lat="41.8588117" lon="2.3143983"><ele>820.0</ele><time>2026-04-11T09:16:51.997Z</time></trkpt><trkpt lat="41.8588" lon="2.3142467"><ele>820.0</ele><time>2026-04-11T09:16:52.997Z</time></trkpt><trkpt lat="41.8587683" lon="2.3141083"><ele>820.0</ele><time>2026-04-11T09:16:53.997Z</time></trkpt><trkpt lat="41.8587233" lon="2.31398"><ele>820.0</ele><time>2026-04-11T09:16:54.997Z</time></trkpt><trkpt lat="41.858665" lon="2.3138533"><ele>820.0</ele><time>2026-04-11T09:16:55.997Z</time></trkpt><trkpt lat="41.85859" lon="2.3137067"><ele>819.25</ele><time>2026-04-11T09:16:56.997Z</time></trkpt><trkpt lat="41.85852" lon="2.3135733"><ele>818.5</ele><time>2026-04-11T09:16:57.997Z</time></trkpt><trkpt lat="41.85847" lon="2.3134483"><ele>817.75</ele><time>2026-04-11T09:16:58.997Z</time></trkpt><trkpt lat="41.85843" lon="2.3133017"><ele>817.0</ele><time>2026-04-11T09:16:59.997Z</time></trkpt><trkpt lat="41.8583933" lon="2.3131567"><ele>816.6</ele><time>2026-04-11T09:17:00.997Z</time></trkpt><trkpt lat="41.8583683" lon="2.3130267"><ele>816.2</ele><time>2026-04-11T09:17:01.997Z</time></trkpt><trkpt lat="41.8583333" lon="2.3128967"><ele>815.8</ele><time>2026-04-11T09:17:02.997Z</time></trkpt><trkpt lat="41.858275" lon="2.3127767"><ele>815.4</ele><time>2026-04-11T09:17:03.997Z</time></trkpt><trkpt lat="41.8581967" lon="2.312655"><ele>815.0</ele><time>2026-04-11T09:17:04.997Z</time></trkpt><trkpt lat="41.858115" lon="2.3125367"><ele>815.0</ele><time>2026-04-11T09:17:05.997Z</time></trkpt><trkpt lat="41.8580367" lon="2.312415"><ele>815.0</ele><time>2026-04-11T09:17:06.997Z</time></trkpt><trkpt lat="41.8579533" lon="2.3122767"><ele>815.0</ele><time>2026-04-11T09:17:07.997Z</time></trkpt><trkpt lat="41.857875" lon="2.3121333"><ele>815.0</ele><time>2026-04-11T09:17:08.997Z</time></trkpt><trkpt lat="41.857785" lon="2.31196"><ele>813.0</ele><time>2026-04-11T09:17:09.997Z</time></trkpt><trkpt lat="41.857705" lon="2.3118117"><ele>811.0</ele><time>2026-04-11T09:17:10.997Z</time></trkpt><trkpt lat="41.857615" lon="2.3116767"><ele>809.0</ele><time>2026-04-11T09:17:11.997Z</time></trkpt><trkpt lat="41.857515" lon="2.311545"><ele>807.0</ele><time>2026-04-11T09:17:12.997Z</time></trkpt><trkpt lat="41.85742" lon="2.3114183"><ele>806.0</ele><time>2026-04-11T09:17:13.997Z</time></trkpt><trkpt lat="41.8573183" lon="2.3112667"><ele>805.0</ele><time>2026-04-11T09:17:14.997Z</time></trkpt><trkpt lat="41.857225" lon="2.3111333"><ele>804.0</ele><time>2026-04-11T09:17:15.997Z</time></trkpt><trkpt lat="41.8571233" lon="2.3109983"><ele>803.0</ele><time>2026-04-11T09:17:16.997Z</time></trkpt><trkpt lat="41.8570083" lon="2.3108517"><ele>803.0</ele><time>2026-04-11T09:17:17.997Z</time></trkpt><trkpt lat="41.8568967" lon="2.3107133"><ele>803.0</ele><time>2026-04-11T09:17:18.997Z</time></trkpt><trkpt lat="41.85679" lon="2.31059"><ele>803.0</ele><time>2026-04-11T09:17:19.997Z</time></trkpt><trkpt lat="41.8566767" lon="2.3104683"><ele>803.0</ele><time>2026-04-11T09:17:20.997Z</time></trkpt><trkpt lat="41.8565567" lon="2.3103333"><ele>801.3333333333334</ele><time>2026-04-11T09:17:21.997Z</time></trkpt><trkpt lat="41.856425" lon="2.3101517"><ele>799.6666666666667</ele><time>2026-04-11T09:17:22.997Z</time></trkpt><trkpt lat="41.8563117" lon="2.3100133"><ele>798.0</ele><time>2026-04-11T09:17:23.998Z</time></trkpt><trkpt lat="41.8562" lon="2.3098933"><ele>798.0</ele><time>2026-04-11T09:17:24.997Z</time></trkpt><trkpt lat="41.85609" lon="2.3097783"><ele>798.0</ele><time>2026-04-11T09:17:25.998Z</time></trkpt><trkpt lat="41.8559767" lon="2.30965"><ele>798.0</ele><time>2026-04-11T09:17:26.997Z</time></trkpt><trkpt lat="41.85587" lon="2.3095283"><ele>798.0</ele><time>2026-04-11T09:17:27.997Z</time></trkpt><trkpt lat="41.8557783" lon="2.3094117"><ele>796.25</ele><time>2026-04-11T09:17:28.997Z</time></trkpt><trkpt lat="41.8556917" lon="2.3093133"><ele>794.5</ele><time>2026-04-11T09:17:29.997Z</time></trkpt><trkpt lat="41.8556117" lon="2.3091867"><ele>792.75</ele><time>2026-04-11T09:17:30.997Z</time></trkpt><trkpt lat="41.8555317" lon="2.3090817"><ele>791.0</ele><time>2026-04-11T09:17:31.997Z</time></trkpt><trkpt lat="41.855445" lon="2.3089617"><ele>790.0</ele><time>2026-04-11T09:17:32.997Z</time></trkpt><trkpt lat="41.855375" lon="2.3088483"><ele>789.0</ele><time>2026-04-11T09:17:33.997Z</time></trkpt><trkpt lat="41.8553067" lon="2.3087367"><ele>788.0</ele><time>2026-04-11T09:17:34.997Z</time></trkpt><trkpt lat="41.8552317" lon="2.3086367"><ele>787.0</ele><time>2026-04-11T09:17:35.997Z</time></trkpt><trkpt lat="41.8551683" lon="2.3085667"><ele>786.0</ele><time>2026-04-11T09:17:36.997Z</time></trkpt><trkpt lat="41.8551083" lon="2.3084817"><ele>786.0</ele><time>2026-04-11T09:17:37.997Z</time></trkpt><trkpt lat="41.8550683" lon="2.3083933"><ele>786.0</ele><time>2026-04-11T09:17:38.997Z</time></trkpt><trkpt lat="41.8550433" lon="2.3082967"><ele>786.0</ele><time>2026-04-11T09:17:39.997Z</time></trkpt><trkpt lat="41.85503" lon="2.3082"><ele>786.0</ele><time>2026-04-11T09:17:40.997Z</time></trkpt><trkpt lat="41.8550383" lon="2.3081033"><ele>786.0</ele><time>2026-04-11T09:17:41.997Z</time></trkpt><trkpt lat="41.8550483" lon="2.3079583"><ele>786.0</ele><time>2026-04-11T09:17:42.997Z</time></trkpt><trkpt lat="41.855075" lon="2.3077717"><ele>786.0</ele><time>2026-04-11T09:17:43.997Z</time></trkpt><trkpt lat="41.8550933" lon="2.3075933"><ele>786.0</ele><time>2026-04-11T09:17:44.997Z</time></trkpt><trkpt lat="41.85511" lon="2.3074033"><ele>786.0</ele><time>2026-04-11T09:17:45.997Z</time></trkpt><trkpt lat="41.8551233" lon="2.307195"><ele>786.0</ele><time>2026-04-11T09:17:46.997Z</time></trkpt><trkpt lat="41.855135" lon="2.3069567"><ele>783.5</ele><time>2026-04-11T09:17:47.997Z</time></trkpt><trkpt lat="41.85514" lon="2.306765"><ele>781.0</ele><time>2026-04-11T09:17:48.997Z</time></trkpt><trkpt lat="41.855155" lon="2.30659"><ele>778.5</ele><time>2026-04-11T09:17:49.997Z</time></trkpt><trkpt lat="41.8551683" lon="2.306425"><ele>776.0</ele><time>2026-04-11T09:17:50.997Z</time></trkpt><trkpt lat="41.85518" lon="2.3062883"><ele>776.0000000000001</ele><time>2026-04-11T09:17:51.997Z</time></trkpt><trkpt lat="41.8551917" lon="2.3061633"><ele>776.0</ele><time>2026-04-11T09:17:52.997Z</time></trkpt><trkpt lat="41.8552133" lon="2.3060483"><ele>776.0</ele><time>2026-04-11T09:17:53.997Z</time></trkpt><trkpt lat="41.8552367" lon="2.3059433"><ele>776.0</ele><time>2026-04-11T09:17:54.998Z</time></trkpt><trkpt lat="41.8552633" lon="2.30585"><ele>776.0000000000001</ele><time>2026-04-11T09:17:55.997Z</time></trkpt><trkpt lat="41.8552933" lon="2.3057217"><ele>776.0</ele><time>2026-04-11T09:17:57.997Z</time></trkpt><trkpt lat="41.8552783" lon="2.3056217"><ele>776.1999999999999</ele><time>2026-04-11T09:17:59.997Z</time></trkpt><trkpt lat="41.8552117" lon="2.3055717"><ele>776.4</ele><time>2026-04-11T09:18:01.997Z</time></trkpt><trkpt lat="41.8550683" lon="2.3055883"><ele>776.6</ele><time>2026-04-11T09:18:03.997Z</time></trkpt><trkpt lat="41.8549633" lon="2.30562"><ele>776.8</ele><time>2026-04-11T09:18:04.997Z</time></trkpt><trkpt lat="41.8548783" lon="2.3056317"><ele>777.0</ele><time>2026-04-11T09:18:05.997Z</time></trkpt><trkpt lat="41.854795" lon="2.3056483"><ele>778.0</ele><time>2026-04-11T09:18:06.997Z</time></trkpt><trkpt lat="41.8547217" lon="2.30566"><ele>779.0</ele><time>2026-04-11T09:18:07.997Z</time></trkpt><trkpt lat="41.8546483" lon="2.3056617"><ele>780.0</ele><time>2026-04-11T09:18:08.997Z</time></trkpt><trkpt lat="41.8545717" lon="2.3056633"><ele>781.0</ele><time>2026-04-11T09:18:09.997Z</time></trkpt><trkpt lat="41.854505" lon="2.3056567"><ele>782.0</ele><time>2026-04-11T09:18:10.997Z</time></trkpt><trkpt lat="41.8543967" lon="2.3056317"><ele>783.0</ele><time>2026-04-11T09:18:12.998Z</time></trkpt><trkpt lat="41.8542933" lon="2.3055783"><ele>782.5</ele><time>2026-04-11T09:18:14.997Z</time></trkpt><trkpt lat="41.8541867" lon="2.3055517"><ele>782.0</ele><time>2026-04-11T09:18:16.997Z</time></trkpt><trkpt lat="41.854115" lon="2.30554"><ele>781.5</ele><time>2026-04-11T09:18:17.997Z</time></trkpt><trkpt lat="41.85405" lon="2.3055233"><ele>781.0</ele><time>2026-04-11T09:18:18.997Z</time></trkpt><trkpt lat="41.8539833" lon="2.3054933"><ele>780.5</ele><time>2026-04-11T09:18:19.997Z</time></trkpt><trkpt lat="41.8539" lon="2.3054267"><ele>780.0</ele><time>2026-04-11T09:18:20.997Z</time></trkpt><trkpt lat="41.8538183" lon="2.3053617"><ele>780.0</ele><time>2026-04-11T09:18:21.997Z</time></trkpt><trkpt lat="41.8537383" lon="2.3052817"><ele>780.0</ele><time>2026-04-11T09:18:22.997Z</time></trkpt><trkpt lat="41.853655" lon="2.3052033"><ele>780.0</ele><time>2026-04-11T09:18:23.997Z</time></trkpt><trkpt lat="41.8535683" lon="2.3051333"><ele>780.0</ele><time>2026-04-11T09:18:24.997Z</time></trkpt><trkpt lat="41.8534883" lon="2.3050767"><ele>780.0</ele><time>2026-04-11T09:18:25.997Z</time></trkpt><trkpt lat="41.853395" lon="2.305045"><ele>780.0</ele><time>2026-04-11T09:18:26.997Z</time></trkpt><trkpt lat="41.8533083" lon="2.3050333"><ele>780.0</ele><time>2026-04-11T09:18:27.997Z</time></trkpt><trkpt lat="41.8532317" lon="2.305035"><ele>780.0</ele><time>2026-04-11T09:18:28.997Z</time></trkpt><trkpt lat="41.8531567" lon="2.3050367"><ele>780.0</ele><time>2026-04-11T09:18:29.997Z</time></trkpt><trkpt lat="41.853085" lon="2.3050317"><ele>780.0</ele><time>2026-04-11T09:18:30.997Z</time></trkpt><trkpt lat="41.8530183" lon="2.3050167"><ele>780.0</ele><time>2026-04-11T09:18:31.997Z</time></trkpt><trkpt lat="41.8529517" lon="2.304995"><ele>780.0</ele><time>2026-04-11T09:18:32.997Z</time></trkpt><trkpt lat="41.8528967" lon="2.3049533"><ele>780.0</ele><time>2026-04-11T09:18:33.997Z</time></trkpt><trkpt lat="41.8528433" lon="2.3048433"><ele>780.0</ele><time>2026-04-11T09:18:35.997Z</time></trkpt><trkpt lat="41.8528533" lon="2.3046767"><ele>780.0</ele><time>2026-04-11T09:18:37.997Z</time></trkpt><trkpt lat="41.852885" lon="2.30459"><ele>780.0</ele><time>2026-04-11T09:18:38.997Z</time></trkpt><trkpt lat="41.8529083" lon="2.30449"><ele>780.0</ele><time>2026-04-11T09:18:39.997Z</time></trkpt><trkpt lat="41.8529267" lon="2.3043633"><ele>779.5</ele><time>2026-04-11T09:18:40.997Z</time></trkpt><trkpt lat="41.85292" lon="2.3042267"><ele>779.0</ele><time>2026-04-11T09:18:41.998Z</time></trkpt><trkpt lat="41.8529083" lon="2.30409"><ele>778.5</ele><time>2026-04-11T09:18:42.997Z</time></trkpt><trkpt lat="41.8528967" lon="2.30399"><ele>778.0</ele><time>2026-04-11T09:18:43.997Z</time></trkpt><trkpt lat="41.8528967" lon="2.3038883"><ele>777.5</ele><time>2026-04-11T09:18:44.997Z</time></trkpt><trkpt lat="41.85289" lon="2.30378"><ele>777.0</ele><time>2026-04-11T09:18:45.997Z</time></trkpt><trkpt lat="41.8528717" lon="2.303685"><ele>774.5</ele><time>2026-04-11T09:18:46.997Z</time></trkpt><trkpt lat="41.8528367" lon="2.30359"><ele>772.0</ele><time>2026-04-11T09:18:47.998Z</time></trkpt><trkpt lat="41.8527917" lon="2.3034883"><ele>769.5</ele><time>2026-04-11T09:18:48.997Z</time></trkpt><trkpt lat="41.8527483" lon="2.3033867"><ele>767.0</ele><time>2026-04-11T09:18:49.998Z</time></trkpt><trkpt lat="41.8527083" lon="2.3032767"><ele>764.5</ele><time>2026-04-11T09:18:50.997Z</time></trkpt><trkpt lat="41.8526683" lon="2.3031617"><ele>762.0</ele><time>2026-04-11T09:18:51.997Z</time></trkpt><trkpt lat="41.8526183" lon="2.30305"><ele>761.2</ele><time>2026-04-11T09:18:52.997Z</time></trkpt><trkpt lat="41.8525533" lon="2.3029533"><ele>760.4000000000001</ele><time>2026-04-11T09:18:53.997Z</time></trkpt><trkpt lat="41.8524783" lon="2.30286"><ele>759.5999999999999</ele><time>2026-04-11T09:18:54.997Z</time></trkpt><trkpt lat="41.852405" lon="2.302765"><ele>758.8</ele><time>2026-04-11T09:18:55.997Z</time></trkpt><trkpt lat="41.8523367" lon="2.3026667"><ele>758.0</ele><time>2026-04-11T09:18:56.997Z</time></trkpt><trkpt lat="41.8522667" lon="2.3025667"><ele>758.0</ele><time>2026-04-11T09:18:57.997Z</time></trkpt><trkpt lat="41.8521967" lon="2.3024717"><ele>758.0</ele><time>2026-04-11T09:18:58.997Z</time></trkpt><trkpt lat="41.8521267" lon="2.3023733"><ele>758.0</ele><time>2026-04-11T09:18:59.997Z</time></trkpt><trkpt lat="41.8520667" lon="2.3022833"><ele>758.0</ele><time>2026-04-11T09:19:00.997Z</time></trkpt><trkpt lat="41.8519967" lon="2.3021983"><ele>758.0</ele><time>2026-04-11T09:19:01.997Z</time></trkpt><trkpt lat="41.8519067" lon="2.3021233"><ele>756.75</ele><time>2026-04-11T09:19:02.997Z</time></trkpt><trkpt lat="41.8517933" lon="2.3020633"><ele>755.5</ele><time>2026-04-11T09:19:03.997Z</time></trkpt><trkpt lat="41.851675" lon="2.302005"><ele>754.25</ele><time>2026-04-11T09:19:04.997Z</time></trkpt><trkpt lat="41.8515533" lon="2.30194"><ele>753.0</ele><time>2026-04-11T09:19:05.997Z</time></trkpt><trkpt lat="41.8514517" lon="2.3018833"><ele>752.2</ele><time>2026-04-11T09:19:06.997Z</time></trkpt><trkpt lat="41.8513533" lon="2.3018233"><ele>751.4</ele><time>2026-04-11T09:19:07.997Z</time></trkpt><trkpt lat="41.8512667" lon="2.3017667"><ele>750.6</ele><time>2026-04-11T09:19:08.998Z</time></trkpt><trkpt lat="41.85119" lon="2.30172"><ele>749.8000000000001</ele><time>2026-04-11T09:19:09.997Z</time></trkpt><trkpt lat="41.85111" lon="2.3016533"><ele>749.0</ele><time>2026-04-11T09:19:10.997Z</time></trkpt><trkpt lat="41.85103" lon="2.3015833"><ele>747.75</ele><time>2026-04-11T09:19:11.997Z</time></trkpt><trkpt lat="41.8509383" lon="2.3014867"><ele>746.5</ele><time>2026-04-11T09:19:12.997Z</time></trkpt><trkpt lat="41.85085" lon="2.3014033"><ele>745.25</ele><time>2026-04-11T09:19:13.997Z</time></trkpt><trkpt lat="41.8507617" lon="2.3013167"><ele>744.0</ele><time>2026-04-11T09:19:14.997Z</time></trkpt><trkpt lat="41.85067" lon="2.3012217"><ele>744.0</ele><time>2026-04-11T09:19:15.997Z</time></trkpt><trkpt lat="41.850575" lon="2.30113"><ele>744.0</ele><time>2026-04-11T09:19:16.997Z</time></trkpt><trkpt lat="41.8504767" lon="2.301045"><ele>744.0</ele><time>2026-04-11T09:19:17.997Z</time></trkpt><trkpt lat="41.8503833" lon="2.300965"><ele>744.0</ele><time>2026-04-11T09:19:18.997Z</time></trkpt><trkpt lat="41.8502833" lon="2.3008783"><ele>744.0</ele><time>2026-04-11T09:19:19.997Z</time></trkpt><trkpt lat="41.8501817" lon="2.300795"><ele>744.0</ele><time>2026-04-11T09:19:20.997Z</time></trkpt><trkpt lat="41.8500983" lon="2.3007083"><ele>744.0</ele><time>2026-04-11T09:19:21.997Z</time></trkpt><trkpt lat="41.8500367" lon="2.3006383"><ele>744.0</ele><time>2026-04-11T09:19:22.997Z</time></trkpt><trkpt lat="41.8499917" lon="2.3005667"><ele>744.0</ele><time>2026-04-11T09:19:23.997Z</time></trkpt><trkpt lat="41.8499567" lon="2.3004817"><ele>744.0</ele><time>2026-04-11T09:19:24.997Z</time></trkpt><trkpt lat="41.84994" lon="2.3003933"><ele>741.8000000000001</ele><time>2026-04-11T09:19:25.997Z</time></trkpt><trkpt lat="41.849935" lon="2.3002483"><ele>739.6</ele><time>2026-04-11T09:19:27.997Z</time></trkpt><trkpt lat="41.8499917" lon="2.3000767"><ele>737.4</ele><time>2026-04-11T09:19:29.997Z</time></trkpt><trkpt lat="41.850015" lon="2.299995"><ele>735.2</ele><time>2026-04-11T09:19:30.997Z</time></trkpt><trkpt lat="41.8500383" lon="2.2998967"><ele>733.0</ele><time>2026-04-11T09:19:31.997Z</time></trkpt><trkpt lat="41.85005" lon="2.2997583"><ele>732.2</ele><time>2026-04-11T09:19:32.997Z</time></trkpt><trkpt lat="41.850055" lon="2.2996267"><ele>731.4</ele><time>2026-04-11T09:19:33.997Z</time></trkpt><trkpt lat="41.85004" lon="2.2995233"><ele>730.6</ele><time>2026-04-11T09:19:34.997Z</time></trkpt><trkpt lat="41.8500367" lon="2.299415"><ele>729.8000000000001</ele><time>2026-04-11T09:19:35.997Z</time></trkpt><trkpt lat="41.8500667" lon="2.2992233"><ele>729.0</ele><time>2026-04-11T09:19:37.997Z</time></trkpt><trkpt lat="41.8501117" lon="2.2991267"><ele>727.6</ele><time>2026-04-11T09:19:38.998Z</time></trkpt><trkpt lat="41.85016" lon="2.299005"><ele>726.2</ele><time>2026-04-11T09:19:39.997Z</time></trkpt><trkpt lat="41.8502017" lon="2.2989083"><ele>724.8000000000001</ele><time>2026-04-11T09:19:40.997Z</time></trkpt><trkpt lat="41.8502583" lon="2.29882"><ele>723.4000000000001</ele><time>2026-04-11T09:19:41.997Z</time></trkpt><trkpt lat="41.8503067" lon="2.2987217"><ele>722.0</ele><time>2026-04-11T09:19:42.998Z</time></trkpt><trkpt lat="41.8503533" lon="2.2986133"><ele>721.8</ele><time>2026-04-11T09:19:43.997Z</time></trkpt><trkpt lat="41.85039" lon="2.2984933"><ele>721.6</ele><time>2026-04-11T09:19:44.997Z</time></trkpt><trkpt lat="41.8504233" lon="2.2983667"><ele>721.4</ele><time>2026-04-11T09:19:45.997Z</time></trkpt><trkpt lat="41.85046" lon="2.298245"><ele>721.1999999999999</ele><time>2026-04-11T09:19:46.997Z</time></trkpt><trkpt lat="41.8504933" lon="2.2981283"><ele>721.0</ele><time>2026-04-11T09:19:47.997Z</time></trkpt><trkpt lat="41.8505267" lon="2.2980167"><ele>720.3333333333334</ele><time>2026-04-11T09:19:48.997Z</time></trkpt><trkpt lat="41.8505567" lon="2.2979017"><ele>719.6666666666667</ele><time>2026-04-11T09:19:49.998Z</time></trkpt><trkpt lat="41.8505667" lon="2.2977817"><ele>719.0</ele><time>2026-04-11T09:19:50.998Z</time></trkpt><trkpt lat="41.8505633" lon="2.2976767"><ele>718.3333333333334</ele><time>2026-04-11T09:19:51.997Z</time></trkpt><trkpt lat="41.8505417" lon="2.297575"><ele>717.6666666666666</ele><time>2026-04-11T09:19:52.997Z</time></trkpt><trkpt lat="41.850495" lon="2.2974733"><ele>717.0</ele><time>2026-04-11T09:19:53.997Z</time></trkpt><trkpt lat="41.8504417" lon="2.2973767"><ele>717.0</ele><time>2026-04-11T09:19:54.997Z</time></trkpt><trkpt lat="41.85038" lon="2.2972733"><ele>717.0</ele><time>2026-04-11T09:19:55.997Z</time></trkpt><trkpt lat="41.8503217" lon="2.29717"><ele>717.0</ele><time>2026-04-11T09:19:56.997Z</time></trkpt><trkpt lat="41.8502617" lon="2.2970633"><ele>717.0</ele><time>2026-04-11T09:19:57.997Z</time></trkpt><trkpt lat="41.8502133" lon="2.2969533"><ele>717.0</ele><time>2026-04-11T09:19:58.997Z</time></trkpt><trkpt lat="41.850175" lon="2.2968483"><ele>715.8</ele><time>2026-04-11T09:19:59.997Z</time></trkpt><trkpt lat="41.85015" lon="2.2967383"><ele>714.6</ele><time>2026-04-11T09:20:00.997Z</time></trkpt><trkpt lat="41.8501317" lon="2.296605"><ele>713.4</ele><time>2026-04-11T09:20:01.997Z</time></trkpt><trkpt lat="41.850125" lon="2.2964533"><ele>712.1999999999999</ele><time>2026-04-11T09:20:02.997Z</time></trkpt><trkpt lat="41.8501183" lon="2.29629"><ele>711.0</ele><time>2026-04-11T09:20:03.997Z</time></trkpt><trkpt lat="41.85011" lon="2.2961183"><ele>711.0</ele><time>2026-04-11T09:20:04.997Z</time></trkpt><trkpt lat="41.8501033" lon="2.2959433"><ele>711.0</ele><time>2026-04-11T09:20:05.997Z</time></trkpt><trkpt lat="41.8500983" lon="2.2957883"><ele>711.0</ele><time>2026-04-11T09:20:06.997Z</time></trkpt><trkpt lat="41.8500917" lon="2.2956183"><ele>711.0</ele><time>2026-04-11T09:20:07.998Z</time></trkpt><trkpt lat="41.850085" lon="2.295465"><ele>710.0</ele><time>2026-04-11T09:20:08.997Z</time></trkpt><trkpt lat="41.8500817" lon="2.2953333"><ele>709.0</ele><time>2026-04-11T09:20:09.997Z</time></trkpt><trkpt lat="41.850095" lon="2.2952233"><ele>708.0</ele><time>2026-04-11T09:20:10.997Z</time></trkpt><trkpt lat="41.8501" lon="2.2951017"><ele>707.0</ele><time>2026-04-11T09:20:11.998Z</time></trkpt><trkpt lat="41.8501083" lon="2.2949867"><ele>706.0</ele><time>2026-04-11T09:20:12.997Z</time></trkpt><trkpt lat="41.8501117" lon="2.2948867"><ele>705.0</ele><time>2026-04-11T09:20:13.997Z</time></trkpt><trkpt lat="41.8501067" lon="2.2947817"><ele>703.4</ele><time>2026-04-11T09:20:14.997Z</time></trkpt><trkpt lat="41.8501167" lon="2.2946733"><ele>701.8</ele><time>2026-04-11T09:20:15.997Z</time></trkpt><trkpt lat="41.8501317" lon="2.2945517"><ele>700.2</ele><time>2026-04-11T09:20:16.997Z</time></trkpt><trkpt lat="41.8501533" lon="2.2944317"><ele>698.6</ele><time>2026-04-11T09:20:17.997Z</time></trkpt><trkpt lat="41.8501717" lon="2.2943083"><ele>697.0</ele><time>2026-04-11T09:20:18.997Z</time></trkpt><trkpt lat="41.8501717" lon="2.2941533"><ele>696.0</ele><time>2026-04-11T09:20:19.997Z</time></trkpt><trkpt lat="41.8501683" lon="2.2939933"><ele>695.0</ele><time>2026-04-11T09:20:20.997Z</time></trkpt><trkpt lat="41.8501633" lon="2.2938217"><ele>694.0</ele><time>2026-04-11T09:20:21.997Z</time></trkpt><trkpt lat="41.850155" lon="2.2936533"><ele>693.0</ele><time>2026-04-11T09:20:22.997Z</time></trkpt><trkpt lat="41.8501433" lon="2.2934833"><ele>693.0</ele><time>2026-04-11T09:20:23.997Z</time></trkpt><trkpt lat="41.8501233" lon="2.2932967"><ele>693.0</ele><time>2026-04-11T09:20:24.997Z</time></trkpt><trkpt lat="41.85012" lon="2.2931283"><ele>693.0</ele><time>2026-04-11T09:20:25.997Z</time></trkpt><trkpt lat="41.850105" lon="2.2929633"><ele>693.0</ele><time>2026-04-11T09:20:26.997Z</time></trkpt><trkpt lat="41.8500983" lon="2.292795"><ele>693.0</ele><time>2026-04-11T09:20:27.997Z</time></trkpt><trkpt lat="41.8500917" lon="2.292605"><ele>693.0</ele><time>2026-04-11T09:20:28.997Z</time></trkpt><trkpt lat="41.85009" lon="2.2924233"><ele>693.0</ele><time>2026-04-11T09:20:29.998Z</time></trkpt><trkpt lat="41.85008" lon="2.2922433"><ele>693.0</ele><time>2026-04-11T09:20:30.997Z</time></trkpt><trkpt lat="41.85007" lon="2.292065"><ele>693.0</ele><time>2026-04-11T09:20:31.997Z</time></trkpt><trkpt lat="41.850065" lon="2.2918917"><ele>693.0</ele><time>2026-04-11T09:20:32.997Z</time></trkpt><trkpt lat="41.85007" lon="2.291735"><ele>693.0</ele><time>2026-04-11T09:20:33.997Z</time></trkpt><trkpt lat="41.8500933" lon="2.2915833"><ele>693.0</ele><time>2026-04-11T09:20:34.997Z</time></trkpt><trkpt lat="41.8501117" lon="2.2914267"><ele>690.75</ele><time>2026-04-11T09:20:35.997Z</time></trkpt><trkpt lat="41.85013" lon="2.2912717"><ele>688.5</ele><time>2026-04-11T09:20:36.997Z</time></trkpt><trkpt lat="41.85014" lon="2.291115"><ele>686.25</ele><time>2026-04-11T09:20:37.997Z</time></trkpt><trkpt lat="41.850155" lon="2.2909733"><ele>684.0</ele><time>2026-04-11T09:20:38.997Z</time></trkpt><trkpt lat="41.8501683" lon="2.2908267"><ele>684.0</ele><time>2026-04-11T09:20:39.997Z</time></trkpt><trkpt lat="41.8501733" lon="2.2907017"><ele>684.0</ele><time>2026-04-11T09:20:40.997Z</time></trkpt><trkpt lat="41.850165" lon="2.290585"><ele>684.0</ele><time>2026-04-11T09:20:41.997Z</time></trkpt><trkpt lat="41.8501333" lon="2.2904733"><ele>684.0</ele><time>2026-04-11T09:20:42.998Z</time></trkpt><trkpt lat="41.8500883" lon="2.2903633"><ele>684.0</ele><time>2026-04-11T09:20:43.998Z</time></trkpt><trkpt lat="41.8500317" lon="2.2902783"><ele>684.0</ele><time>2026-04-11T09:20:44.997Z</time></trkpt><trkpt lat="41.8499633" lon="2.2902133"><ele>684.0</ele><time>2026-04-11T09:20:45.997Z</time></trkpt><trkpt lat="41.8498867" lon="2.29016"><ele>684.0</ele><time>2026-04-11T09:20:46.997Z</time></trkpt><trkpt lat="41.8498233" lon="2.2901017"><ele>684.0</ele><time>2026-04-11T09:20:47.997Z</time></trkpt><trkpt lat="41.8497283" lon="2.29"><ele>684.0</ele><time>2026-04-11T09:20:49.997Z</time></trkpt><trkpt lat="41.8496483" lon="2.28988"><ele>684.0</ele><time>2026-04-11T09:20:51.997Z</time></trkpt><trkpt lat="41.8496133" lon="2.2897283"><ele>684.0</ele><time>2026-04-11T09:20:53.997Z</time></trkpt><trkpt lat="41.8496033" lon="2.28963"><ele>684.0</ele><time>2026-04-11T09:20:54.997Z</time></trkpt><trkpt lat="41.849555" lon="2.2895033"><ele>684.0</ele><time>2026-04-11T09:20:56.997Z</time></trkpt><trkpt lat="41.849455" lon="2.2893783"><ele>684.0</ele><time>2026-04-11T09:20:58.997Z</time></trkpt><trkpt lat="41.8493983" lon="2.2893317"><ele>684.0</ele><time>2026-04-11T09:20:59.997Z</time></trkpt><trkpt lat="41.8492983" lon="2.2892633"><ele>684.0</ele><time>2026-04-11T09:21:01.997Z</time></trkpt><trkpt lat="41.84922" lon="2.289185"><ele>684.0</ele><time>2026-04-11T09:21:03.997Z</time></trkpt><trkpt lat="41.8492583" lon="2.2891017"><ele>684.0</ele><time>2026-04-11T09:21:06.997Z</time></trkpt><trkpt lat="41.8493767" lon="2.2891117"><ele>684.0</ele><time>2026-04-11T09:21:08.997Z</time></trkpt><trkpt lat="41.8494567" lon="2.289105"><ele>684.0</ele><time>2026-04-11T09:21:09.997Z</time></trkpt><trkpt lat="41.8495183" lon="2.2890717"><ele>684.0</ele><time>2026-04-11T09:21:10.997Z</time></trkpt><trkpt lat="41.84956" lon="2.289005"><ele>683.8000000000001</ele><time>2026-04-11T09:21:11.997Z</time></trkpt><trkpt lat="41.8495833" lon="2.288915"><ele>683.6</ele><time>2026-04-11T09:21:12.997Z</time></trkpt><trkpt lat="41.849585" lon="2.2887933"><ele>683.4</ele><time>2026-04-11T09:21:13.997Z</time></trkpt><trkpt lat="41.8495817" lon="2.2886683"><ele>683.2</ele><time>2026-04-11T09:21:14.997Z</time></trkpt><trkpt lat="41.8495733" lon="2.288525"><ele>683.0</ele><time>2026-04-11T09:21:15.997Z</time></trkpt><trkpt lat="41.8495683" lon="2.288385"><ele>683.0</ele><time>2026-04-11T09:21:16.997Z</time></trkpt><trkpt lat="41.849555" lon="2.288265"><ele>683.0</ele><time>2026-04-11T09:21:17.997Z</time></trkpt><trkpt lat="41.8495183" lon="2.2881583"><ele>683.0</ele><time>2026-04-11T09:21:18.997Z</time></trkpt><trkpt lat="41.8494767" lon="2.288065"><ele>683.0</ele><time>2026-04-11T09:21:19.997Z</time></trkpt><trkpt lat="41.8494083" lon="2.2880133"><ele>683.0</ele><time>2026-04-11T09:21:20.997Z</time></trkpt><trkpt lat="41.8493367" lon="2.2879617"><ele>683.0</ele><time>2026-04-11T09:21:21.997Z</time></trkpt><trkpt lat="41.849255" lon="2.287925"><ele>680.0</ele><time>2026-04-11T09:21:22.997Z</time></trkpt><trkpt lat="41.84918" lon="2.2878983"><ele>677.0</ele><time>2026-04-11T09:21:23.997Z</time></trkpt><trkpt lat="41.8491083" lon="2.2878667"><ele>674.0</ele><time>2026-04-11T09:21:24.997Z</time></trkpt><trkpt lat="41.8490267" lon="2.2878483"><ele>671.0</ele><time>2026-04-11T09:21:25.997Z</time></trkpt><trkpt lat="41.8489383" lon="2.28784"><ele>668.0</ele><time>2026-04-11T09:21:26.997Z</time></trkpt><trkpt lat="41.84882" lon="2.2878233"><ele>665.0</ele><time>2026-04-11T09:21:27.997Z</time></trkpt><trkpt lat="41.8487183" lon="2.2878"><ele>665.0</ele><time>2026-04-11T09:21:28.997Z</time></trkpt><trkpt lat="41.8486067" lon="2.2877617"><ele>665.0</ele><time>2026-04-11T09:21:29.997Z</time></trkpt><trkpt lat="41.8485067" lon="2.2877583"><ele>665.0</ele><time>2026-04-11T09:21:30.997Z</time></trkpt><trkpt lat="41.84842" lon="2.28778"><ele>665.0</ele><time>2026-04-11T09:21:31.997Z</time></trkpt><trkpt lat="41.8483267" lon="2.2877883"><ele>665.0</ele><time>2026-04-11T09:21:32.997Z</time></trkpt><trkpt lat="41.848235" lon="2.2877983"><ele>663.0</ele><time>2026-04-11T09:21:33.997Z</time></trkpt><trkpt lat="41.8481033" lon="2.287775"><ele>661.0</ele><time>2026-04-11T09:21:34.997Z</time></trkpt><trkpt lat="41.848" lon="2.287755"><ele>659.0</ele><time>2026-04-11T09:21:35.997Z</time></trkpt><trkpt lat="41.8478967" lon="2.287745"><ele>657.0</ele><time>2026-04-11T09:21:36.997Z</time></trkpt><trkpt lat="41.8477967" lon="2.2877317"><ele>655.0</ele><time>2026-04-11T09:21:37.997Z</time></trkpt><trkpt lat="41.8477083" lon="2.28772"><ele>655.0</ele><time>2026-04-11T09:21:38.997Z</time></trkpt><trkpt lat="41.8476283" lon="2.2877033"><ele>655.0</ele><time>2026-04-11T09:21:39.997Z</time></trkpt><trkpt lat="41.8475233" lon="2.2876733"><ele>655.0</ele><time>2026-04-11T09:21:41.997Z</time></trkpt><trkpt lat="41.847605" lon="2.28763"><ele>655.0</ele><time>2026-04-11T09:22:09.997Z</time></trkpt><trkpt lat="41.8476483" lon="2.2875683"><ele>655.0</ele><time>2026-04-11T09:22:10.997Z</time></trkpt><trkpt lat="41.8476867" lon="2.2874983"><ele>655.0</ele><time>2026-04-11T09:22:11.997Z</time></trkpt><trkpt lat="41.84772" lon="2.2874217"><ele>655.0</ele><time>2026-04-11T09:22:12.997Z</time></trkpt><trkpt lat="41.8477417" lon="2.287325"><ele>655.0</ele><time>2026-04-11T09:22:13.997Z</time></trkpt><trkpt lat="41.8477533" lon="2.2872183"><ele>655.0</ele><time>2026-04-11T09:22:14.997Z</time></trkpt><trkpt lat="41.8477733" lon="2.2870883"><ele>655.0</ele><time>2026-04-11T09:22:15.997Z</time></trkpt><trkpt lat="41.8478067" lon="2.2869633"><ele>655.0</ele><time>2026-04-11T09:22:16.997Z</time></trkpt><trkpt lat="41.8478367" lon="2.2868367"><ele>654.5</ele><time>2026-04-11T09:22:17.997Z</time></trkpt><trkpt lat="41.847875" lon="2.2867167"><ele>654.0</ele><time>2026-04-11T09:22:18.997Z</time></trkpt><trkpt lat="41.8479183" lon="2.2866167"><ele>653.5</ele><time>2026-04-11T09:22:19.997Z</time></trkpt><trkpt lat="41.8479633" lon="2.2865417"><ele>653.0</ele><time>2026-04-11T09:22:20.997Z</time></trkpt><trkpt lat="41.8480133" lon="2.28649"><ele>652.5</ele><time>2026-04-11T09:22:21.997Z</time></trkpt><trkpt lat="41.8480917" lon="2.2864483"><ele>652.0</ele><time>2026-04-11T09:22:22.997Z</time></trkpt><trkpt lat="41.8481683" lon="2.2864167"><ele>651.6666666666667</ele><time>2026-04-11T09:22:23.997Z</time></trkpt><trkpt lat="41.84823" lon="2.286365"><ele>651.3333333333334</ele><time>2026-04-11T09:22:24.997Z</time></trkpt><trkpt lat="41.848295" lon="2.2862967"><ele>651.0</ele><time>2026-04-11T09:22:25.997Z</time></trkpt><trkpt lat="41.8483417" lon="2.2862083"><ele>650.6666666666666</ele><time>2026-04-11T09:22:26.997Z</time></trkpt><trkpt lat="41.8483667" lon="2.286085"><ele>650.3333333333333</ele><time>2026-04-11T09:22:27.998Z</time></trkpt><trkpt lat="41.8483783" lon="2.2859367"><ele>650.0</ele><time>2026-04-11T09:22:28.997Z</time></trkpt><trkpt lat="41.8483867" lon="2.2857967"><ele>650.0</ele><time>2026-04-11T09:22:29.997Z</time></trkpt><trkpt lat="41.848395" lon="2.2856833"><ele>650.0</ele><time>2026-04-11T09:22:30.997Z</time></trkpt><trkpt lat="41.8484083" lon="2.2855933"><ele>650.0</ele><time>2026-04-11T09:22:31.997Z</time></trkpt><trkpt lat="41.8484383" lon="2.2855067"><ele>650.0</ele><time>2026-04-11T09:22:32.997Z</time></trkpt><trkpt lat="41.848475" lon="2.2854033"><ele>650.0</ele><time>2026-04-11T09:22:33.998Z</time></trkpt><trkpt lat="41.8485133" lon="2.2852933"><ele>650.0</ele><time>2026-04-11T09:22:34.997Z</time></trkpt><trkpt lat="41.8485583" lon="2.28518"><ele>649.2</ele><time>2026-04-11T09:22:35.997Z</time></trkpt><trkpt lat="41.84862" lon="2.2850767"><ele>648.4</ele><time>2026-04-11T09:22:36.997Z</time></trkpt><trkpt lat="41.8486733" lon="2.2849667"><ele>647.5999999999999</ele><time>2026-04-11T09:22:37.997Z</time></trkpt><trkpt lat="41.848705" lon="2.2848533"><ele>646.8</ele><time>2026-04-11T09:22:38.997Z</time></trkpt><trkpt lat="41.8487367" lon="2.2847267"><ele>646.0</ele><time>2026-04-11T09:22:39.997Z</time></trkpt><trkpt lat="41.8487667" lon="2.2845983"><ele>646.0</ele><time>2026-04-11T09:22:40.997Z</time></trkpt><trkpt lat="41.8487983" lon="2.2844867"><ele>646.0</ele><time>2026-04-11T09:22:41.997Z</time></trkpt><trkpt lat="41.8488383" lon="2.28438"><ele>646.0</ele><time>2026-04-11T09:22:42.997Z</time></trkpt><trkpt lat="41.8488933" lon="2.284275"><ele>646.0</ele><time>2026-04-11T09:22:43.997Z</time></trkpt><trkpt lat="41.8489367" lon="2.2841917"><ele>646.0</ele><time>2026-04-11T09:22:44.997Z</time></trkpt><trkpt lat="41.8489767" lon="2.2841083"><ele>646.0</ele><time>2026-04-11T09:22:45.997Z</time></trkpt><trkpt lat="41.849015" lon="2.28404"><ele>646.0</ele><time>2026-04-11T09:22:46.997Z</time></trkpt><trkpt lat="41.84907" lon="2.2839367"><ele>646.0</ele><time>2026-04-11T09:22:48.997Z</time></trkpt><trkpt lat="41.8491483" lon="2.2838733"><ele>646.0</ele><time>2026-04-11T09:22:50.998Z</time></trkpt><trkpt lat="41.8492183" lon="2.2838333"><ele>646.0</ele><time>2026-04-11T09:22:52.998Z</time></trkpt><trkpt lat="41.8492883" lon="2.283835"><ele>646.0</ele><time>2026-04-11T09:23:16.997Z</time></trkpt><trkpt lat="41.84935" lon="2.2838017"><ele>646.0</ele><time>2026-04-11T09:23:19.997Z</time></trkpt><trkpt lat="41.849405" lon="2.2836967"><ele>645.5714285714287</ele><time>2026-04-11T09:23:22.997Z</time></trkpt><trkpt lat="41.8494517" lon="2.2836383"><ele>645.1428571428571</ele><time>2026-04-11T09:23:24.997Z</time></trkpt><trkpt lat="41.8494917" lon="2.28355"><ele>644.7142857142858</ele><time>2026-04-11T09:23:26.997Z</time></trkpt><trkpt lat="41.8494867" lon="2.2834333"><ele>644.2857142857143</ele><time>2026-04-11T09:23:29.997Z</time></trkpt><trkpt lat="41.8494483" lon="2.283365"><ele>643.8571428571429</ele><time>2026-04-11T09:23:31.997Z</time></trkpt><trkpt lat="41.8494117" lon="2.2832817"><ele>643.4285714285714</ele><time>2026-04-11T09:23:33.997Z</time></trkpt><trkpt lat="41.8493917" lon="2.2831767"><ele>643.0</ele><time>2026-04-11T09:23:36.997Z</time></trkpt><trkpt lat="41.8494117" lon="2.283065"><ele>641.8333333333334</ele><time>2026-04-11T09:23:39.997Z</time></trkpt><trkpt lat="41.84943" lon="2.2829833"><ele>640.6666666666667</ele><time>2026-04-11T09:23:41.997Z</time></trkpt><trkpt lat="41.849425" lon="2.282885"><ele>639.5</ele><time>2026-04-11T09:23:43.997Z</time></trkpt><trkpt lat="41.8494117" lon="2.28275"><ele>638.3333333333334</ele><time>2026-04-11T09:23:45.997Z</time></trkpt><trkpt lat="41.8493983" lon="2.2826433"><ele>637.1666666666666</ele><time>2026-04-11T09:23:47.997Z</time></trkpt><trkpt lat="41.849375" lon="2.2825267"><ele>636.0</ele><time>2026-04-11T09:23:49.997Z</time></trkpt><trkpt lat="41.8493867" lon="2.282405"><ele>636.0</ele><time>2026-04-11T09:23:51.997Z</time></trkpt><trkpt lat="41.849405" lon="2.2822867"><ele>636.0</ele><time>2026-04-11T09:23:53.997Z</time></trkpt><trkpt lat="41.849445" lon="2.2821517"><ele>636.0</ele><time>2026-04-11T09:23:55.997Z</time></trkpt><trkpt lat="41.8494883" lon="2.2820267"><ele>636.0</ele><time>2026-04-11T09:23:57.997Z</time></trkpt><trkpt lat="41.8495317" lon="2.2819017"><ele>636.0</ele><time>2026-04-11T09:23:59.997Z</time></trkpt><trkpt lat="41.8495833" lon="2.2817583"><ele>633.6</ele><time>2026-04-11T09:24:01.997Z</time></trkpt><trkpt lat="41.8496133" lon="2.2816833"><ele>631.2</ele><time>2026-04-11T09:24:02.997Z</time></trkpt><trkpt lat="41.8496683" lon="2.2815417"><ele>628.8</ele><time>2026-04-11T09:24:04.997Z</time></trkpt><trkpt lat="41.8497083" lon="2.2813967"><ele>626.4</ele><time>2026-04-11T09:24:06.997Z</time></trkpt><trkpt lat="41.84974" lon="2.2812333"><ele>624.0</ele><time>2026-04-11T09:24:08.997Z</time></trkpt><trkpt lat="41.8497683" lon="2.2811517"><ele>620.8</ele><time>2026-04-11T09:24:09.997Z</time></trkpt><trkpt lat="41.8497967" lon="2.28107"><ele>617.5999999999999</ele><time>2026-04-11T09:24:10.998Z</time></trkpt><trkpt lat="41.8498417" lon="2.2809233"><ele>614.4</ele><time>2026-04-11T09:24:12.997Z</time></trkpt><trkpt lat="41.8498767" lon="2.280795"><ele>611.1999999999999</ele><time>2026-04-11T09:24:14.997Z</time></trkpt><trkpt lat="41.84993" lon="2.2807167"><ele>608.0</ele><time>2026-04-11T09:24:16.997Z</time></trkpt><trkpt lat="41.8500217" lon="2.2806883"><ele>608.0</ele><time>2026-04-11T09:24:18.997Z</time></trkpt><trkpt lat="41.8500867" lon="2.280685"><ele>608.0</ele><time>2026-04-11T09:24:19.998Z</time></trkpt><trkpt lat="41.8501533" lon="2.2806833"><ele>608.0</ele><time>2026-04-11T09:24:20.997Z</time></trkpt><trkpt lat="41.8502683" lon="2.28069"><ele>608.0</ele><time>2026-04-11T09:24:22.997Z</time></trkpt><trkpt lat="41.8503367" lon="2.2806917"><ele>608.0</ele><time>2026-04-11T09:24:23.997Z</time></trkpt><trkpt lat="41.8504083" lon="2.2806783"><ele>608.0</ele><time>2026-04-11T09:24:25.997Z</time></trkpt><trkpt lat="41.850465" lon="2.2806233"><ele>607.5</ele><time>2026-04-11T09:24:27.997Z</time></trkpt><trkpt lat="41.8504933" lon="2.2805067"><ele>607.0</ele><time>2026-04-11T09:24:30.997Z</time></trkpt><trkpt lat="41.8505" lon="2.28041"><ele>606.5</ele><time>2026-04-11T09:24:32.997Z</time></trkpt><trkpt lat="41.8504617" lon="2.2803383"><ele>606.0</ele><time>2026-04-11T09:24:34.997Z</time></trkpt><trkpt lat="41.85041" lon="2.28029"><ele>605.5</ele><time>2026-04-11T09:24:36.997Z</time></trkpt><trkpt lat="41.8503617" lon="2.2801983"><ele>605.0</ele><time>2026-04-11T09:24:39.997Z</time></trkpt><trkpt lat="41.850355" lon="2.2800867"><ele>605.0</ele><time>2026-04-11T09:24:41.997Z</time></trkpt><trkpt lat="41.8503533" lon="2.28"><ele>605.0</ele><time>2026-04-11T09:24:43.997Z</time></trkpt><trkpt lat="41.8503833" lon="2.27989"><ele>605.0</ele><time>2026-04-11T09:24:45.997Z</time></trkpt><trkpt lat="41.850435" lon="2.279775"><ele>605.0</ele><time>2026-04-11T09:24:47.997Z</time></trkpt><trkpt lat="41.850485" lon="2.2796633"><ele>605.0</ele><time>2026-04-11T09:24:49.997Z</time></trkpt><trkpt lat="41.8505267" lon="2.279555"><ele>605.0</ele><time>2026-04-11T09:24:51.998Z</time></trkpt><trkpt lat="41.8505883" lon="2.279415"><ele>603.6666666666666</ele><time>2026-04-11T09:24:53.996Z</time></trkpt><trkpt lat="41.850615" lon="2.27933"><ele>602.3333333333333</ele><time>2026-04-11T09:24:54.996Z</time></trkpt><trkpt lat="41.85064" lon="2.2792383"><ele>601.0</ele><time>2026-04-11T09:24:55.996Z</time></trkpt><trkpt lat="41.8506633" lon="2.2791533"><ele>599.6666666666666</ele><time>2026-04-11T09:24:56.996Z</time></trkpt><trkpt lat="41.8507233" lon="2.2790283"><ele>598.3333333333334</ele><time>2026-04-11T09:24:58.996Z</time></trkpt><trkpt lat="41.8507967" lon="2.2789333"><ele>597.0</ele><time>2026-04-11T09:25:00.996Z</time></trkpt><trkpt lat="41.85084" lon="2.2788467"><ele>596.3333333333334</ele><time>2026-04-11T09:25:02.996Z</time></trkpt><trkpt lat="41.8508583" lon="2.2787617"><ele>595.6666666666666</ele><time>2026-04-11T09:25:04.996Z</time></trkpt><trkpt lat="41.8508667" lon="2.2786633"><ele>595.0</ele><time>2026-04-11T09:25:06.996Z</time></trkpt><trkpt lat="41.8508633" lon="2.2785267"><ele>594.3333333333333</ele><time>2026-04-11T09:25:08.996Z</time></trkpt><trkpt lat="41.8508567" lon="2.278365"><ele>593.6666666666666</ele><time>2026-04-11T09:25:10.996Z</time></trkpt><trkpt lat="41.85086" lon="2.2782667"><ele>593.0</ele><time>2026-04-11T09:25:11.996Z</time></trkpt><trkpt lat="41.850855" lon="2.278165"><ele>592.6666666666666</ele><time>2026-04-11T09:25:12.996Z</time></trkpt><trkpt lat="41.8508333" lon="2.2780683"><ele>592.3333333333333</ele><time>2026-04-11T09:25:13.996Z</time></trkpt><trkpt lat="41.8508017" lon="2.2779683"><ele>592.0</ele><time>2026-04-11T09:25:14.996Z</time></trkpt><trkpt lat="41.8507717" lon="2.2778683"><ele>591.6666666666666</ele><time>2026-04-11T09:25:15.996Z</time></trkpt><trkpt lat="41.8507417" lon="2.277765"><ele>591.3333333333334</ele><time>2026-04-11T09:25:16.996Z</time></trkpt><trkpt lat="41.8507067" lon="2.27763"><ele>591.0</ele><time>2026-04-11T09:25:17.996Z</time></trkpt><trkpt lat="41.850665" lon="2.277505"><ele>591.0</ele><time>2026-04-11T09:25:18.996Z</time></trkpt><trkpt lat="41.85062" lon="2.2774017"><ele>591.0</ele><time>2026-04-11T09:25:19.996Z</time></trkpt><trkpt lat="41.85057" lon="2.2773067"><ele>591.0</ele><time>2026-04-11T09:25:20.997Z</time></trkpt><trkpt lat="41.8505033" lon="2.2772183"><ele>591.0</ele><time>2026-04-11T09:25:21.996Z</time></trkpt><trkpt lat="41.8504317" lon="2.2771467"><ele>591.0</ele><time>2026-04-11T09:25:22.996Z</time></trkpt><trkpt lat="41.8503717" lon="2.2771"><ele>591.0</ele><time>2026-04-11T09:25:23.996Z</time></trkpt><trkpt lat="41.8503" lon="2.27701"><ele>591.2</ele><time>2026-04-11T09:25:25.996Z</time></trkpt><trkpt lat="41.8503083" lon="2.27687"><ele>591.4000000000001</ele><time>2026-04-11T09:25:27.996Z</time></trkpt><trkpt lat="41.8503317" lon="2.2767817"><ele>591.6</ele><time>2026-04-11T09:25:28.996Z</time></trkpt><trkpt lat="41.8503583" lon="2.2766783"><ele>591.8000000000001</ele><time>2026-04-11T09:25:29.996Z</time></trkpt><trkpt lat="41.850385" lon="2.27654"><ele>592.0</ele><time>2026-04-11T09:25:30.996Z</time></trkpt><trkpt lat="41.8504167" lon="2.2763717"><ele>592.0</ele><time>2026-04-11T09:25:31.996Z</time></trkpt><trkpt lat="41.85045" lon="2.2762017"><ele>592.0</ele><time>2026-04-11T09:25:32.996Z</time></trkpt><trkpt lat="41.8504783" lon="2.2760467"><ele>592.0</ele><time>2026-04-11T09:25:33.996Z</time></trkpt><trkpt lat="41.850495" lon="2.2759217"><ele>592.0</ele><time>2026-04-11T09:25:34.996Z</time></trkpt><trkpt lat="41.8504967" lon="2.2758267"><ele>592.0</ele><time>2026-04-11T09:25:35.996Z</time></trkpt><trkpt lat="41.8504633" lon="2.2757117"><ele>592.0</ele><time>2026-04-11T09:25:37.996Z</time></trkpt><trkpt lat="41.85037" lon="2.2756817"><ele>592.0</ele><time>2026-04-11T09:25:39.997Z</time></trkpt><trkpt lat="41.85029" lon="2.2757117"><ele>592.0</ele><time>2026-04-11T09:25:40.996Z</time></trkpt><trkpt lat="41.850215" lon="2.275755"><ele>592.0</ele><time>2026-04-11T09:25:41.996Z</time></trkpt><trkpt lat="41.8500983" lon="2.275795"><ele>592.0</ele><time>2026-04-11T09:25:42.996Z</time></trkpt><trkpt lat="41.849995" lon="2.27579"><ele>593.8000000000001</ele><time>2026-04-11T09:25:43.996Z</time></trkpt><trkpt lat="41.8499083" lon="2.2757367"><ele>595.6</ele><time>2026-04-11T09:25:44.996Z</time></trkpt><trkpt lat="41.84984" lon="2.275685"><ele>597.4000000000001</ele><time>2026-04-11T09:25:45.996Z</time></trkpt><trkpt lat="41.8497583" lon="2.2756067"><ele>599.2</ele><time>2026-04-11T09:25:47.996Z</time></trkpt><trkpt lat="41.8496817" lon="2.275605"><ele>601.0</ele><time>2026-04-11T09:25:49.996Z</time></trkpt><trkpt lat="41.8495683" lon="2.27562"><ele>601.0</ele><time>2026-04-11T09:25:51.996Z</time></trkpt><trkpt lat="41.8495017" lon="2.2756567"><ele>601.0</ele><time>2026-04-11T09:25:52.996Z</time></trkpt><trkpt lat="41.8494117" lon="2.2757217"><ele>601.0</ele><time>2026-04-11T09:25:53.996Z</time></trkpt><trkpt lat="41.8493083" lon="2.2757983"><ele>601.0</ele><time>2026-04-11T09:25:54.997Z</time></trkpt><trkpt lat="41.8491933" lon="2.2758917"><ele>601.0</ele><time>2026-04-11T09:25:55.996Z</time></trkpt><trkpt lat="41.849075" lon="2.2760017"><ele>604.5</ele><time>2026-04-11T09:25:56.996Z</time></trkpt><trkpt lat="41.8489767" lon="2.27611"><ele>608.0</ele><time>2026-04-11T09:25:57.996Z</time></trkpt><trkpt lat="41.848885" lon="2.2762083"><ele>611.5</ele><time>2026-04-11T09:25:58.996Z</time></trkpt><trkpt lat="41.8488033" lon="2.27633"><ele>615.0</ele><time>2026-04-11T09:25:59.996Z</time></trkpt><trkpt lat="41.848725" lon="2.2764583"><ele>615.0</ele><time>2026-04-11T09:26:00.996Z</time></trkpt><trkpt lat="41.84865" lon="2.2765833"><ele>615.0</ele><time>2026-04-11T09:26:01.996Z</time></trkpt><trkpt lat="41.8485683" lon="2.2766967"><ele>615.0</ele><time>2026-04-11T09:26:02.996Z</time></trkpt><trkpt lat="41.8485" lon="2.276805"><ele>615.0</ele><time>2026-04-11T09:26:03.996Z</time></trkpt><trkpt lat="41.84843" lon="2.2769167"><ele>616.8</ele><time>2026-04-11T09:26:04.996Z</time></trkpt><trkpt lat="41.8483667" lon="2.2770433"><ele>618.6</ele><time>2026-04-11T09:26:05.996Z</time></trkpt><trkpt lat="41.8483133" lon="2.2771533"><ele>620.4</ele><time>2026-04-11T09:26:06.996Z</time></trkpt><trkpt lat="41.84828" lon="2.27726"><ele>622.2</ele><time>2026-04-11T09:26:07.996Z</time></trkpt><trkpt lat="41.8482483" lon="2.2773683"><ele>624.0</ele><time>2026-04-11T09:26:08.996Z</time></trkpt><trkpt lat="41.84823" lon="2.27746"><ele>624.0</ele><time>2026-04-11T09:26:09.996Z</time></trkpt><trkpt lat="41.8481733" lon="2.2775783"><ele>624.0</ele><time>2026-04-11T09:26:11.996Z</time></trkpt><trkpt lat="41.8481217" lon="2.2776817"><ele>624.0</ele><time>2026-04-11T09:26:23.996Z</time></trkpt><trkpt lat="41.8480767" lon="2.27782"><ele>624.0</ele><time>2026-04-11T09:26:25.996Z</time></trkpt><trkpt lat="41.8480333" lon="2.2779433"><ele>624.0</ele><time>2026-04-11T09:26:26.996Z</time></trkpt><trkpt lat="41.8480117" lon="2.2780633"><ele>625.0</ele><time>2026-04-11T09:26:27.996Z</time></trkpt><trkpt lat="41.8479967" lon="2.2781767"><ele>626.0</ele><time>2026-04-11T09:26:28.996Z</time></trkpt><trkpt lat="41.8479817" lon="2.2782867"><ele>627.0</ele><time>2026-04-11T09:26:29.996Z</time></trkpt><trkpt lat="41.8479533" lon="2.2783967"><ele>628.0</ele><time>2026-04-11T09:26:30.996Z</time></trkpt><trkpt lat="41.84793" lon="2.2784967"><ele>629.0</ele><time>2026-04-11T09:26:31.996Z</time></trkpt><trkpt lat="41.8479233" lon="2.2785933"><ele>630.0</ele><time>2026-04-11T09:26:32.996Z</time></trkpt><trkpt lat="41.84794" lon="2.2787033"><ele>630.0</ele><time>2026-04-11T09:26:33.996Z</time></trkpt><trkpt lat="41.8479483" lon="2.2788183"><ele>630.0</ele><time>2026-04-11T09:26:34.996Z</time></trkpt><trkpt lat="41.8479383" lon="2.2789283"><ele>630.0</ele><time>2026-04-11T09:26:35.996Z</time></trkpt><trkpt lat="41.84791" lon="2.2790617"><ele>630.0</ele><time>2026-04-11T09:26:36.996Z</time></trkpt><trkpt lat="41.8478833" lon="2.2792167"><ele>630.0</ele><time>2026-04-11T09:26:37.996Z</time></trkpt><trkpt lat="41.847855" lon="2.2793783"><ele>632.0</ele><time>2026-04-11T09:26:38.996Z</time></trkpt><trkpt lat="41.84783" lon="2.2795183"><ele>634.0</ele><time>2026-04-11T09:26:39.996Z</time></trkpt><trkpt lat="41.8477917" lon="2.2796417"><ele>636.0</ele><time>2026-04-11T09:26:40.996Z</time></trkpt><trkpt lat="41.847745" lon="2.2797517"><ele>638.0</ele><time>2026-04-11T09:26:41.996Z</time></trkpt><trkpt lat="41.8476983" lon="2.27986"><ele>640.0</ele><time>2026-04-11T09:26:42.996Z</time></trkpt><trkpt lat="41.847655" lon="2.2799633"><ele>639.5</ele><time>2026-04-11T09:26:43.996Z</time></trkpt><trkpt lat="41.8476083" lon="2.2800617"><ele>639.0</ele><time>2026-04-11T09:26:44.996Z</time></trkpt><trkpt lat="41.84756" lon="2.2801583"><ele>638.5</ele><time>2026-04-11T09:26:45.996Z</time></trkpt><trkpt lat="41.84751" lon="2.2802517"><ele>638.0</ele><time>2026-04-11T09:26:46.996Z</time></trkpt><trkpt lat="41.8474417" lon="2.2803367"><ele>637.5</ele><time>2026-04-11T09:26:47.996Z</time></trkpt><trkpt lat="41.8473783" lon="2.2804117"><ele>637.0</ele><time>2026-04-11T09:26:48.996Z</time></trkpt><trkpt lat="41.8473" lon="2.280545"><ele>637.8333333333334</ele><time>2026-04-11T09:26:50.996Z</time></trkpt><trkpt lat="41.8473467" lon="2.2806433"><ele>638.6666666666667</ele><time>2026-04-11T09:26:52.996Z</time></trkpt><trkpt lat="41.8474083" lon="2.2806717"><ele>639.5</ele><time>2026-04-11T09:26:53.996Z</time></trkpt><trkpt lat="41.8474767" lon="2.2806967"><ele>640.3333333333334</ele><time>2026-04-11T09:26:54.996Z</time></trkpt><trkpt lat="41.8475367" lon="2.2807283"><ele>641.1666666666666</ele><time>2026-04-11T09:26:55.996Z</time></trkpt><trkpt lat="41.8476017" lon="2.28082"><ele>642.0</ele><time>2026-04-11T09:26:57.996Z</time></trkpt><trkpt lat="41.8475717" lon="2.2809133"><ele>642.0</ele><time>2026-04-11T09:26:59.996Z</time></trkpt><trkpt lat="41.8475117" lon="2.2809417"><ele>642.0</ele><time>2026-04-11T09:27:00.996Z</time></trkpt><trkpt lat="41.84744" lon="2.2809867"><ele>642.0</ele><time>2026-04-11T09:27:01.996Z</time></trkpt><trkpt lat="41.84735" lon="2.2810433"><ele>642.0</ele><time>2026-04-11T09:27:02.996Z</time></trkpt><trkpt lat="41.8472367" lon="2.2811233"><ele>642.0</ele><time>2026-04-11T09:27:03.996Z</time></trkpt><trkpt lat="41.8471117" lon="2.28124"><ele>642.0</ele><time>2026-04-11T09:27:04.996Z</time></trkpt><trkpt lat="41.8469817" lon="2.2813467"><ele>642.0</ele><time>2026-04-11T09:27:05.996Z</time></trkpt><trkpt lat="41.846845" lon="2.281445"><ele>642.0</ele><time>2026-04-11T09:27:06.996Z</time></trkpt><trkpt lat="41.84671" lon="2.28152"><ele>641.5</ele><time>2026-04-11T09:27:07.996Z</time></trkpt><trkpt lat="41.8465717" lon="2.2815683"><ele>641.0</ele><time>2026-04-11T09:27:08.996Z</time></trkpt><trkpt lat="41.84644" lon="2.2815933"><ele>640.5</ele><time>2026-04-11T09:27:09.997Z</time></trkpt><trkpt lat="41.8463083" lon="2.281635"><ele>640.0</ele><time>2026-04-11T09:27:10.996Z</time></trkpt><trkpt lat="41.8461783" lon="2.2816567"><ele>640.0</ele><time>2026-04-11T09:27:11.996Z</time></trkpt><trkpt lat="41.8460683" lon="2.2817167"><ele>640.0</ele><time>2026-04-11T09:27:12.996Z</time></trkpt><trkpt lat="41.8459567" lon="2.2817933"><ele>640.0</ele><time>2026-04-11T09:27:13.996Z</time></trkpt><trkpt lat="41.845845" lon="2.2818767"><ele>640.0</ele><time>2026-04-11T09:27:14.996Z</time></trkpt><trkpt lat="41.8457267" lon="2.281945"><ele>641.0</ele><time>2026-04-11T09:27:15.996Z</time></trkpt><trkpt lat="41.8455983" lon="2.2819833"><ele>642.0</ele><time>2026-04-11T09:27:16.996Z</time></trkpt><trkpt lat="41.8454533" lon="2.2819967"><ele>643.0</ele><time>2026-04-11T09:27:17.996Z</time></trkpt><trkpt lat="41.8452917" lon="2.28199"><ele>644.0</ele><time>2026-04-11T09:27:18.996Z</time></trkpt><trkpt lat="41.8451283" lon="2.281975"><ele>644.5</ele><time>2026-04-11T09:27:19.996Z</time></trkpt><trkpt lat="41.844975" lon="2.2819767"><ele>645.0</ele><time>2026-04-11T09:27:20.996Z</time></trkpt><trkpt lat="41.8448233" lon="2.281985"><ele>645.5</ele><time>2026-04-11T09:27:21.996Z</time></trkpt><trkpt lat="41.8446833" lon="2.2819883"><ele>646.0</ele><time>2026-04-11T09:27:22.996Z</time></trkpt><trkpt lat="41.8445667" lon="2.2819717"><ele>646.0</ele><time>2026-04-11T09:27:23.996Z</time></trkpt><trkpt lat="41.8444567" lon="2.2819333"><ele>646.0</ele><time>2026-04-11T09:27:24.996Z</time></trkpt><trkpt lat="41.8443583" lon="2.2818867"><ele>646.0</ele><time>2026-04-11T09:27:25.996Z</time></trkpt><trkpt lat="41.8442633" lon="2.2818667"><ele>646.0</ele><time>2026-04-11T09:27:26.996Z</time></trkpt><trkpt lat="41.8441733" lon="2.2818733"><ele>646.0</ele><time>2026-04-11T09:27:27.996Z</time></trkpt><trkpt lat="41.844105" lon="2.2819017"><ele>646.6666666666667</ele><time>2026-04-11T09:27:28.996Z</time></trkpt><trkpt lat="41.8440433" lon="2.2819483"><ele>647.3333333333334</ele><time>2026-04-11T09:27:29.996Z</time></trkpt><trkpt lat="41.8439833" lon="2.282015"><ele>648.0</ele><time>2026-04-11T09:27:30.996Z</time></trkpt><trkpt lat="41.8439283" lon="2.282095"><ele>648.6666666666666</ele><time>2026-04-11T09:27:31.996Z</time></trkpt><trkpt lat="41.8438667" lon="2.2821867"><ele>649.3333333333333</ele><time>2026-04-11T09:27:32.996Z</time></trkpt><trkpt lat="41.843795" lon="2.2822933"><ele>650.0</ele><time>2026-04-11T09:27:33.996Z</time></trkpt><trkpt lat="41.8437233" lon="2.2824033"><ele>650.2</ele><time>2026-04-11T09:27:34.996Z</time></trkpt><trkpt lat="41.8436433" lon="2.2824833"><ele>650.4</ele><time>2026-04-11T09:27:35.996Z</time></trkpt><trkpt lat="41.8435533" lon="2.282525"><ele>650.5999999999999</ele><time>2026-04-11T09:27:36.996Z</time></trkpt><trkpt lat="41.8434583" lon="2.282535"><ele>650.8</ele><time>2026-04-11T09:27:37.996Z</time></trkpt><trkpt lat="41.8433483" lon="2.2825333"><ele>651.0</ele><time>2026-04-11T09:27:38.997Z</time></trkpt><trkpt lat="41.8432367" lon="2.282535"><ele>652.0</ele><time>2026-04-11T09:27:39.996Z</time></trkpt><trkpt lat="41.84312" lon="2.28254"><ele>653.0</ele><time>2026-04-11T09:27:40.997Z</time></trkpt><trkpt lat="41.84302" lon="2.2825883"><ele>654.0</ele><time>2026-04-11T09:27:41.996Z</time></trkpt><trkpt lat="41.8429117" lon="2.2826317"><ele>655.0</ele><time>2026-04-11T09:27:42.996Z</time></trkpt><trkpt lat="41.842805" lon="2.282675"><ele>656.0</ele><time>2026-04-11T09:27:43.996Z</time></trkpt><trkpt lat="41.8426867" lon="2.2827233"><ele>657.25</ele><time>2026-04-11T09:27:44.996Z</time></trkpt><trkpt lat="41.8425567" lon="2.282785"><ele>658.5</ele><time>2026-04-11T09:27:45.996Z</time></trkpt><trkpt lat="41.8424233" lon="2.282865"><ele>659.75</ele><time>2026-04-11T09:27:46.996Z</time></trkpt><trkpt lat="41.8422967" lon="2.2829483"><ele>661.0</ele><time>2026-04-11T09:27:47.996Z</time></trkpt><trkpt lat="41.8421617" lon="2.2830267"><ele>661.0</ele><time>2026-04-11T09:27:48.996Z</time></trkpt><trkpt lat="41.8420433" lon="2.2830917"><ele>661.0</ele><time>2026-04-11T09:27:49.996Z</time></trkpt><trkpt lat="41.8419183" lon="2.283125"><ele>661.0</ele><time>2026-04-11T09:27:50.996Z</time></trkpt><trkpt lat="41.8418017" lon="2.2831867"><ele>661.0</ele><time>2026-04-11T09:27:51.996Z</time></trkpt><trkpt lat="41.8416767" lon="2.2832033"><ele>661.5999999999999</ele><time>2026-04-11T09:27:52.996Z</time></trkpt><trkpt lat="41.8415633" lon="2.2832"><ele>662.2</ele><time>2026-04-11T09:27:53.996Z</time></trkpt><trkpt lat="41.841465" lon="2.2831667"><ele>662.8</ele><time>2026-04-11T09:27:54.996Z</time></trkpt><trkpt lat="41.841355" lon="2.28312"><ele>663.4000000000001</ele><time>2026-04-11T09:27:55.996Z</time></trkpt><trkpt lat="41.841245" lon="2.283085"><ele>664.0</ele><time>2026-04-11T09:27:56.996Z</time></trkpt><trkpt lat="41.8411267" lon="2.28306"><ele>664.0</ele><time>2026-04-11T09:27:57.996Z</time></trkpt><trkpt lat="41.8409983" lon="2.28304"><ele>664.0</ele><time>2026-04-11T09:27:58.996Z</time></trkpt><trkpt lat="41.8408417" lon="2.2829817"><ele>664.0</ele><time>2026-04-11T09:27:59.996Z</time></trkpt><trkpt lat="41.8407117" lon="2.2830167"><ele>664.0</ele><time>2026-04-11T09:28:00.996Z</time></trkpt><trkpt lat="41.8405833" lon="2.28305"><ele>664.2</ele><time>2026-04-11T09:28:01.996Z</time></trkpt><trkpt lat="41.8404667" lon="2.283075"><ele>664.4000000000001</ele><time>2026-04-11T09:28:02.996Z</time></trkpt><trkpt lat="41.8403617" lon="2.2831117"><ele>664.6</ele><time>2026-04-11T09:28:03.996Z</time></trkpt><trkpt lat="41.8402783" lon="2.283145"><ele>664.8</ele><time>2026-04-11T09:28:04.997Z</time></trkpt><trkpt lat="41.8402033" lon="2.2831733"><ele>665.0</ele><time>2026-04-11T09:28:05.996Z</time></trkpt><trkpt lat="41.8401317" lon="2.2831967"><ele>665.75</ele><time>2026-04-11T09:28:06.996Z</time></trkpt><trkpt lat="41.8400117" lon="2.2832067"><ele>666.5</ele><time>2026-04-11T09:28:08.996Z</time></trkpt><trkpt lat="41.8399117" lon="2.2830917"><ele>667.25</ele><time>2026-04-11T09:28:10.996Z</time></trkpt><trkpt lat="41.839865" lon="2.2829817"><ele>668.0</ele><time>2026-04-11T09:28:11.996Z</time></trkpt><trkpt lat="41.839805" lon="2.2828483"><ele>668.0</ele><time>2026-04-11T09:28:12.996Z</time></trkpt><trkpt lat="41.8397283" lon="2.282685"><ele>668.0</ele><time>2026-04-11T09:28:13.996Z</time></trkpt><trkpt lat="41.8396433" lon="2.2825117"><ele>668.0</ele><time>2026-04-11T09:28:14.996Z</time></trkpt><trkpt lat="41.839555" lon="2.2823383"><ele>667.6666666666666</ele><time>2026-04-11T09:28:15.996Z</time></trkpt><trkpt lat="41.8394667" lon="2.28216"><ele>667.3333333333334</ele><time>2026-04-11T09:28:16.996Z</time></trkpt><trkpt lat="41.8393717" lon="2.2819817"><ele>667.0</ele><time>2026-04-11T09:28:17.996Z</time></trkpt><trkpt lat="41.8392883" lon="2.28183"><ele>667.0</ele><time>2026-04-11T09:28:18.996Z</time></trkpt><trkpt lat="41.839205" lon="2.2816767"><ele>667.0</ele><time>2026-04-11T09:28:19.996Z</time></trkpt><trkpt lat="41.8391183" lon="2.2815483"><ele>667.0</ele><time>2026-04-11T09:28:20.996Z</time></trkpt><trkpt lat="41.83902" lon="2.2814167"><ele>667.0</ele><time>2026-04-11T09:28:21.996Z</time></trkpt><trkpt lat="41.8389267" lon="2.2813183"><ele>667.0</ele><time>2026-04-11T09:28:22.996Z</time></trkpt><trkpt lat="41.8388267" lon="2.281265"><ele>667.0</ele><time>2026-04-11T09:28:23.996Z</time></trkpt><trkpt lat="41.8387183" lon="2.2812133"><ele>667.0</ele><time>2026-04-11T09:28:24.996Z</time></trkpt><trkpt lat="41.8386067" lon="2.2811867"><ele>667.0</ele><time>2026-04-11T09:28:25.997Z</time></trkpt><trkpt lat="41.8384933" lon="2.28117"><ele>667.8</ele><time>2026-04-11T09:28:26.996Z</time></trkpt><trkpt lat="41.8383817" lon="2.2811667"><ele>668.6</ele><time>2026-04-11T09:28:27.996Z</time></trkpt><trkpt lat="41.838265" lon="2.2811683"><ele>669.4</ele><time>2026-04-11T09:28:28.996Z</time></trkpt><trkpt lat="41.8381583" lon="2.2811883"><ele>670.1999999999999</ele><time>2026-04-11T09:28:29.996Z</time></trkpt><trkpt lat="41.8380567" lon="2.2812017"><ele>671.0</ele><time>2026-04-11T09:28:30.996Z</time></trkpt><trkpt lat="41.8379483" lon="2.28121"><ele>671.0</ele><time>2026-04-11T09:28:31.996Z</time></trkpt><trkpt lat="41.837845" lon="2.28123"><ele>671.0</ele><time>2026-04-11T09:28:32.996Z</time></trkpt><trkpt lat="41.8377533" lon="2.28126"><ele>671.0</ele><time>2026-04-11T09:28:33.996Z</time></trkpt><trkpt lat="41.8376717" lon="2.2812917"><ele>671.0</ele><time>2026-04-11T09:28:34.996Z</time></trkpt><trkpt lat="41.8375983" lon="2.2813083"><ele>671.0</ele><time>2026-04-11T09:28:35.996Z</time></trkpt><trkpt lat="41.837495" lon="2.2813"><ele>671.0</ele><time>2026-04-11T09:28:37.996Z</time></trkpt><trkpt lat="41.8374467" lon="2.2812117"><ele>671.0</ele><time>2026-04-11T09:28:39.996Z</time></trkpt><trkpt lat="41.8374017" lon="2.28109"><ele>671.0</ele><time>2026-04-11T09:28:41.996Z</time></trkpt><trkpt lat="41.8373317" lon="2.2810533"><ele>671.0</ele><time>2026-04-11T09:28:44.996Z</time></trkpt><trkpt lat="41.837255" lon="2.2811217"><ele>671.0</ele><time>2026-04-11T09:28:46.996Z</time></trkpt><trkpt lat="41.8371983" lon="2.2811817"><ele>671.0</ele><time>2026-04-11T09:28:47.996Z</time></trkpt><trkpt lat="41.83713" lon="2.2812333"><ele>671.0</ele><time>2026-04-11T09:28:48.996Z</time></trkpt><trkpt lat="41.8370517" lon="2.2812917"><ele>671.0</ele><time>2026-04-11T09:28:49.996Z</time></trkpt><trkpt lat="41.8369667" lon="2.281335"><ele>671.0</ele><time>2026-04-11T09:28:50.996Z</time></trkpt><trkpt lat="41.8368683" lon="2.2813967"><ele>671.0</ele><time>2026-04-11T09:28:51.996Z</time></trkpt><trkpt lat="41.8367467" lon="2.2814683"><ele>671.0</ele><time>2026-04-11T09:28:52.996Z</time></trkpt><trkpt lat="41.8366083" lon="2.28156"><ele>672.3333333333333</ele><time>2026-04-11T09:28:53.996Z</time></trkpt><trkpt lat="41.8364717" lon="2.2816533"><ele>673.6666666666666</ele><time>2026-04-11T09:28:54.996Z</time></trkpt><trkpt lat="41.8363233" lon="2.2817383"><ele>675.0</ele><time>2026-04-11T09:28:55.996Z</time></trkpt><trkpt lat="41.8361767" lon="2.2818117"><ele>675.0</ele><time>2026-04-11T09:28:56.996Z</time></trkpt><trkpt lat="41.836045" lon="2.2818783"><ele>675.0</ele><time>2026-04-11T09:28:57.996Z</time></trkpt><trkpt lat="41.8359117" lon="2.2819233"><ele>675.0</ele><time>2026-04-11T09:28:58.996Z</time></trkpt><trkpt lat="41.835805" lon="2.2819583"><ele>675.0</ele><time>2026-04-11T09:28:59.996Z</time></trkpt><trkpt lat="41.8357183" lon="2.2820083"><ele>676.0</ele><time>2026-04-11T09:29:00.996Z</time></trkpt><trkpt lat="41.8356333" lon="2.2820567"><ele>677.0</ele><time>2026-04-11T09:29:01.996Z</time></trkpt><trkpt lat="41.8355417" lon="2.282115"><ele>678.0</ele><time>2026-04-11T09:29:02.996Z</time></trkpt><trkpt lat="41.8354433" lon="2.28218"><ele>679.0</ele><time>2026-04-11T09:29:03.996Z</time></trkpt><trkpt lat="41.8353333" lon="2.282235"><ele>680.0</ele><time>2026-04-11T09:29:04.996Z</time></trkpt><trkpt lat="41.835215" lon="2.2822917"><ele>680.75</ele><time>2026-04-11T09:29:05.996Z</time></trkpt><trkpt lat="41.8350883" lon="2.2823417"><ele>681.5</ele><time>2026-04-11T09:29:06.996Z</time></trkpt><trkpt lat="41.8349517" lon="2.2824"><ele>682.25</ele><time>2026-04-11T09:29:07.996Z</time></trkpt><trkpt lat="41.8348033" lon="2.282455"><ele>683.0</ele><time>2026-04-11T09:29:08.996Z</time></trkpt><trkpt lat="41.8346567" lon="2.2825017"><ele>683.0</ele><time>2026-04-11T09:29:09.996Z</time></trkpt><trkpt lat="41.8345133" lon="2.2825433"><ele>683.0</ele><time>2026-04-11T09:29:10.996Z</time></trkpt><trkpt lat="41.834355" lon="2.2825717"><ele>683.0</ele><time>2026-04-11T09:29:11.996Z</time></trkpt><trkpt lat="41.834205" lon="2.282615"><ele>684.0</ele><time>2026-04-11T09:29:12.996Z</time></trkpt><trkpt lat="41.834055" lon="2.2826633"><ele>685.0</ele><time>2026-04-11T09:29:13.996Z</time></trkpt><trkpt lat="41.8339" lon="2.2827117"><ele>686.0</ele><time>2026-04-11T09:29:14.996Z</time></trkpt><trkpt lat="41.8337717" lon="2.2827383"><ele>687.0</ele><time>2026-04-11T09:29:15.996Z</time></trkpt><trkpt lat="41.8336317" lon="2.282785"><ele>687.0</ele><time>2026-04-11T09:29:16.996Z</time></trkpt><trkpt lat="41.8334867" lon="2.2828367"><ele>687.0</ele><time>2026-04-11T09:29:17.996Z</time></trkpt><trkpt lat="41.8333433" lon="2.2828767"><ele>687.0</ele><time>2026-04-11T09:29:18.996Z</time></trkpt><trkpt lat="41.833185" lon="2.2829017"><ele>688.25</ele><time>2026-04-11T09:29:19.996Z</time></trkpt><trkpt lat="41.8330433" lon="2.2829367"><ele>689.5</ele><time>2026-04-11T09:29:20.996Z</time></trkpt><trkpt lat="41.8329017" lon="2.282985"><ele>690.75</ele><time>2026-04-11T09:29:21.996Z</time></trkpt><trkpt lat="41.8327583" lon="2.2830333"><ele>692.0</ele><time>2026-04-11T09:29:22.996Z</time></trkpt><trkpt lat="41.8326033" lon="2.2830883"><ele>693.25</ele><time>2026-04-11T09:29:23.996Z</time></trkpt><trkpt lat="41.83246" lon="2.2831417"><ele>694.5</ele><time>2026-04-11T09:29:24.996Z</time></trkpt><trkpt lat="41.832335" lon="2.2831867"><ele>695.75</ele><time>2026-04-11T09:29:25.997Z</time></trkpt><trkpt lat="41.8322133" lon="2.2832533"><ele>697.0</ele><time>2026-04-11T09:29:26.996Z</time></trkpt><trkpt lat="41.8321033" lon="2.2833183"><ele>697.0</ele><time>2026-04-11T09:29:27.997Z</time></trkpt><trkpt lat="41.8319917" lon="2.2833617"><ele>697.0</ele><time>2026-04-11T09:29:28.996Z</time></trkpt><trkpt lat="41.831895" lon="2.2833983"><ele>697.0</ele><time>2026-04-11T09:29:29.996Z</time></trkpt><trkpt lat="41.8317933" lon="2.2834283"><ele>697.0</ele><time>2026-04-11T09:29:30.996Z</time></trkpt><trkpt lat="41.8316917" lon="2.2834617"><ele>697.0</ele><time>2026-04-11T09:29:31.996Z</time></trkpt><trkpt lat="41.8315833" lon="2.283485"><ele>699.2</ele><time>2026-04-11T09:29:32.996Z</time></trkpt><trkpt lat="41.8314683" lon="2.2835017"><ele>701.4000000000001</ele><time>2026-04-11T09:29:33.996Z</time></trkpt><trkpt lat="41.8313567" lon="2.28352"><ele>703.5999999999999</ele><time>2026-04-11T09:29:34.996Z</time></trkpt><trkpt lat="41.83125" lon="2.2835567"><ele>705.8</ele><time>2026-04-11T09:29:35.996Z</time></trkpt><trkpt lat="41.83115" lon="2.2836083"><ele>708.0</ele><time>2026-04-11T09:29:36.996Z</time></trkpt><trkpt lat="41.8310317" lon="2.2836633"><ele>708.8</ele><time>2026-04-11T09:29:37.997Z</time></trkpt><trkpt lat="41.8309283" lon="2.2837167"><ele>709.5999999999999</ele><time>2026-04-11T09:29:38.996Z</time></trkpt><trkpt lat="41.8308483" lon="2.28377"><ele>710.4000000000001</ele><time>2026-04-11T09:29:39.996Z</time></trkpt><trkpt lat="41.8307583" lon="2.2838183"><ele>711.2</ele><time>2026-04-11T09:29:40.996Z</time></trkpt><trkpt lat="41.8306833" lon="2.283885"><ele>712.0</ele><time>2026-04-11T09:29:41.996Z</time></trkpt><trkpt lat="41.8305833" lon="2.2839317"><ele>712.0</ele><time>2026-04-11T09:29:42.996Z</time></trkpt><trkpt lat="41.8305083" lon="2.28398"><ele>712.0</ele><time>2026-04-11T09:29:43.996Z</time></trkpt><trkpt lat="41.8304183" lon="2.2840133"><ele>712.0</ele><time>2026-04-11T09:29:44.996Z</time></trkpt><trkpt lat="41.83032" lon="2.2840517"><ele>712.0</ele><time>2026-04-11T09:29:45.996Z</time></trkpt><trkpt lat="41.8302133" lon="2.2840783"><ele>712.0</ele><time>2026-04-11T09:29:46.996Z</time></trkpt><trkpt lat="41.8301183" lon="2.2841167"><ele>714.4000000000001</ele><time>2026-04-11T09:29:47.996Z</time></trkpt><trkpt lat="41.830025" lon="2.2841583"><ele>716.8000000000001</ele><time>2026-04-11T09:29:48.996Z</time></trkpt><trkpt lat="41.8299283" lon="2.2842017"><ele>719.2</ele><time>2026-04-11T09:29:49.996Z</time></trkpt><trkpt lat="41.8298317" lon="2.2842383"><ele>721.6</ele><time>2026-04-11T09:29:50.996Z</time></trkpt><trkpt lat="41.8297383" lon="2.284285"><ele>724.0</ele><time>2026-04-11T09:29:51.996Z</time></trkpt><trkpt lat="41.8296317" lon="2.2843383"><ele>724.0</ele><time>2026-04-11T09:29:52.996Z</time></trkpt><trkpt lat="41.8295317" lon="2.2843933"><ele>724.0</ele><time>2026-04-11T09:29:53.996Z</time></trkpt><trkpt lat="41.8294333" lon="2.2845133"><ele>724.0</ele><time>2026-04-11T09:29:54.996Z</time></trkpt><trkpt lat="41.829355" lon="2.28462"><ele>724.0</ele><time>2026-04-11T09:29:55.996Z</time></trkpt><trkpt lat="41.8292883" lon="2.284715"><ele>725.6666666666667</ele><time>2026-04-11T09:29:56.996Z</time></trkpt><trkpt lat="41.8292383" lon="2.2848083"><ele>727.3333333333334</ele><time>2026-04-11T09:29:57.996Z</time></trkpt><trkpt lat="41.8291967" lon="2.2848933"><ele>729.0</ele><time>2026-04-11T09:29:58.996Z</time></trkpt><trkpt lat="41.82918" lon="2.2849917"><ele>730.6666666666666</ele><time>2026-04-11T09:29:59.996Z</time></trkpt><trkpt lat="41.82916" lon="2.2850867"><ele>732.3333333333333</ele><time>2026-04-11T09:30:00.996Z</time></trkpt><trkpt lat="41.8291767" lon="2.28519"><ele>734.0</ele><time>2026-04-11T09:30:01.996Z</time></trkpt><trkpt lat="41.829205" lon="2.2853133"><ele>734.0</ele><time>2026-04-11T09:30:02.996Z</time></trkpt><trkpt lat="41.829245" lon="2.2854367"><ele>734.0</ele><time>2026-04-11T09:30:03.996Z</time></trkpt><trkpt lat="41.8293083" lon="2.28554"><ele>734.0</ele><time>2026-04-11T09:30:04.996Z</time></trkpt><trkpt lat="41.829375" lon="2.285615"><ele>734.0</ele><time>2026-04-11T09:30:05.996Z</time></trkpt><trkpt lat="41.829445" lon="2.2856633"><ele>734.0</ele><time>2026-04-11T09:30:06.996Z</time></trkpt><trkpt lat="41.82952" lon="2.28573"><ele>732.8000000000001</ele><time>2026-04-11T09:30:07.996Z</time></trkpt><trkpt lat="41.8295983" lon="2.2858117"><ele>731.6</ele><time>2026-04-11T09:30:08.996Z</time></trkpt><trkpt lat="41.829665" lon="2.2859117"><ele>730.4</ele><time>2026-04-11T09:30:09.996Z</time></trkpt><trkpt lat="41.8296733" lon="2.28604"><ele>729.2</ele><time>2026-04-11T09:30:10.996Z</time></trkpt><trkpt lat="41.8296383" lon="2.2861683"><ele>728.0</ele><time>2026-04-11T09:30:11.996Z</time></trkpt><trkpt lat="41.82957" lon="2.2862683"><ele>728.0</ele><time>2026-04-11T09:30:12.997Z</time></trkpt><trkpt lat="41.8294917" lon="2.2863633"><ele>728.0</ele><time>2026-04-11T09:30:13.996Z</time></trkpt><trkpt lat="41.8294217" lon="2.2864567"><ele>728.0</ele><time>2026-04-11T09:30:14.996Z</time></trkpt><trkpt lat="41.8293533" lon="2.2865483"><ele>728.0</ele><time>2026-04-11T09:30:15.996Z</time></trkpt><trkpt lat="41.8292683" lon="2.2866317"><ele>728.0</ele><time>2026-04-11T09:30:16.996Z</time></trkpt><trkpt lat="41.8291683" lon="2.2867033"><ele>731.25</ele><time>2026-04-11T09:30:17.996Z</time></trkpt><trkpt lat="41.8290733" lon="2.2867683"><ele>734.5</ele><time>2026-04-11T09:30:18.996Z</time></trkpt><trkpt lat="41.82896" lon="2.2868167"><ele>737.75</ele><time>2026-04-11T09:30:19.996Z</time></trkpt><trkpt lat="41.8288383" lon="2.2868283"><ele>741.0</ele><time>2026-04-11T09:30:20.996Z</time></trkpt><trkpt lat="41.8287183" lon="2.2868367"><ele>741.0</ele><time>2026-04-11T09:30:21.997Z</time></trkpt><trkpt lat="41.8285933" lon="2.2868533"><ele>741.0</ele><time>2026-04-11T09:30:22.996Z</time></trkpt><trkpt lat="41.82847" lon="2.28689"><ele>741.0</ele><time>2026-04-11T09:30:23.996Z</time></trkpt><trkpt lat="41.828355" lon="2.28694"><ele>741.0</ele><time>2026-04-11T09:30:24.997Z</time></trkpt><trkpt lat="41.82825" lon="2.2869983"><ele>742.4</ele><time>2026-04-11T09:30:25.996Z</time></trkpt><trkpt lat="41.82815" lon="2.2870633"><ele>743.8</ele><time>2026-04-11T09:30:26.996Z</time></trkpt><trkpt lat="41.82806" lon="2.2871283"><ele>745.1999999999999</ele><time>2026-04-11T09:30:27.996Z</time></trkpt><trkpt lat="41.8279817" lon="2.2871967"><ele>746.5999999999999</ele><time>2026-04-11T09:30:28.996Z</time></trkpt><trkpt lat="41.8279083" lon="2.2872667"><ele>748.0</ele><time>2026-04-11T09:30:29.996Z</time></trkpt><trkpt lat="41.8278417" lon="2.2873333"><ele>748.1666666666667</ele><time>2026-04-11T09:30:30.996Z</time></trkpt><trkpt lat="41.82778" lon="2.2874133"><ele>748.3333333333334</ele><time>2026-04-11T09:30:31.996Z</time></trkpt><trkpt lat="41.82773" lon="2.28752"><ele>748.5</ele><time>2026-04-11T09:30:32.996Z</time></trkpt><trkpt lat="41.8276917" lon="2.2876333"><ele>748.6666666666666</ele><time>2026-04-11T09:30:33.996Z</time></trkpt><trkpt lat="41.8276533" lon="2.28773"><ele>748.8333333333333</ele><time>2026-04-11T09:30:34.996Z</time></trkpt><trkpt lat="41.82761" lon="2.2878133"><ele>749.0</ele><time>2026-04-11T09:30:35.996Z</time></trkpt><trkpt lat="41.8274917" lon="2.287835"><ele>750.8000000000001</ele><time>2026-04-11T09:30:37.997Z</time></trkpt><trkpt lat="41.8273817" lon="2.287765"><ele>752.6</ele><time>2026-04-11T09:30:39.996Z</time></trkpt><trkpt lat="41.827345" lon="2.287675"><ele>754.4</ele><time>2026-04-11T09:30:40.997Z</time></trkpt><trkpt lat="41.8273233" lon="2.287565"><ele>756.2</ele><time>2026-04-11T09:30:41.996Z</time></trkpt><trkpt lat="41.827315" lon="2.2874333"><ele>758.0</ele><time>2026-04-11T09:30:42.996Z</time></trkpt><trkpt lat="41.8272967" lon="2.2872983"><ele>758.25</ele><time>2026-04-11T09:30:43.996Z</time></trkpt><trkpt lat="41.8272767" lon="2.2871467"><ele>758.5</ele><time>2026-04-11T09:30:44.996Z</time></trkpt><trkpt lat="41.8272467" lon="2.286975"><ele>758.75</ele><time>2026-04-11T09:30:45.996Z</time></trkpt><trkpt lat="41.8272117" lon="2.2868017"><ele>759.0</ele><time>2026-04-11T09:30:46.996Z</time></trkpt><trkpt lat="41.8271567" lon="2.2866317"><ele>759.0</ele><time>2026-04-11T09:30:47.996Z</time></trkpt><trkpt lat="41.8270917" lon="2.2864567"><ele>759.0</ele><time>2026-04-11T09:30:48.997Z</time></trkpt><trkpt lat="41.827005" lon="2.2862883"><ele>759.0</ele><time>2026-04-11T09:30:49.996Z</time></trkpt><trkpt lat="41.826905" lon="2.2861283"><ele>761.6666666666666</ele><time>2026-04-11T09:30:50.997Z</time></trkpt><trkpt lat="41.8268017" lon="2.2859817"><ele>764.3333333333333</ele><time>2026-04-11T09:30:51.996Z</time></trkpt><trkpt lat="41.826675" lon="2.2858567"><ele>767.0</ele><time>2026-04-11T09:30:52.996Z</time></trkpt><trkpt lat="41.8265533" lon="2.2857367"><ele>767.0</ele><time>2026-04-11T09:30:53.996Z</time></trkpt><trkpt lat="41.8264367" lon="2.2856133"><ele>767.0</ele><time>2026-04-11T09:30:54.996Z</time></trkpt><trkpt lat="41.8263267" lon="2.2855067"><ele>767.0</ele><time>2026-04-11T09:30:55.996Z</time></trkpt><trkpt lat="41.8262233" lon="2.285385"><ele>767.0</ele><time>2026-04-11T09:30:56.996Z</time></trkpt><trkpt lat="41.8261183" lon="2.2852783"><ele>766.75</ele><time>2026-04-11T09:30:57.996Z</time></trkpt><trkpt lat="41.826015" lon="2.28517"><ele>766.5</ele><time>2026-04-11T09:30:58.996Z</time></trkpt><trkpt lat="41.8259067" lon="2.285055"><ele>766.25</ele><time>2026-04-11T09:30:59.996Z</time></trkpt><trkpt lat="41.8257917" lon="2.28496"><ele>766.0</ele><time>2026-04-11T09:31:00.996Z</time></trkpt><trkpt lat="41.8256767" lon="2.28486"><ele>767.0</ele><time>2026-04-11T09:31:01.996Z</time></trkpt><trkpt lat="41.82556" lon="2.284755"><ele>768.0</ele><time>2026-04-11T09:31:02.996Z</time></trkpt><trkpt lat="41.825435" lon="2.284635"><ele>769.0</ele><time>2026-04-11T09:31:03.996Z</time></trkpt><trkpt lat="41.8253083" lon="2.2845117"><ele>769.0</ele><time>2026-04-11T09:31:04.996Z</time></trkpt><trkpt lat="41.8251883" lon="2.2843917"><ele>769.0</ele><time>2026-04-11T09:31:05.996Z</time></trkpt><trkpt lat="41.8250783" lon="2.2842817"><ele>769.0</ele><time>2026-04-11T09:31:06.996Z</time></trkpt><trkpt lat="41.8249783" lon="2.284165"><ele>769.0</ele><time>2026-04-11T09:31:07.996Z</time></trkpt><trkpt lat="41.82489" lon="2.2840317"><ele>768.75</ele><time>2026-04-11T09:31:08.996Z</time></trkpt><trkpt lat="41.8248183" lon="2.2838783"><ele>768.5</ele><time>2026-04-11T09:31:09.996Z</time></trkpt><trkpt lat="41.8247567" lon="2.2837233"><ele>768.25</ele><time>2026-04-11T09:31:10.997Z</time></trkpt><trkpt lat="41.8247" lon="2.2835483"><ele>768.0</ele><time>2026-04-11T09:31:11.996Z</time></trkpt><trkpt lat="41.8246367" lon="2.2833833"><ele>768.0</ele><time>2026-04-11T09:31:12.996Z</time></trkpt><trkpt lat="41.8245633" lon="2.2832217"><ele>768.0</ele><time>2026-04-11T09:31:13.996Z</time></trkpt><trkpt lat="41.824505" lon="2.2830667"><ele>768.0</ele><time>2026-04-11T09:31:14.996Z</time></trkpt><trkpt lat="41.8244467" lon="2.2829"><ele>768.0</ele><time>2026-04-11T09:31:15.996Z</time></trkpt><trkpt lat="41.82439" lon="2.2827467"><ele>768.2</ele><time>2026-04-11T09:31:16.996Z</time></trkpt><trkpt lat="41.8243467" lon="2.2826"><ele>768.4</ele><time>2026-04-11T09:31:17.996Z</time></trkpt><trkpt lat="41.824315" lon="2.2824583"><ele>768.6</ele><time>2026-04-11T09:31:18.996Z</time></trkpt><trkpt lat="41.8242917" lon="2.28234"><ele>768.8000000000001</ele><time>2026-04-11T09:31:19.996Z</time></trkpt><trkpt lat="41.8242667" lon="2.2822333"><ele>769.0</ele><time>2026-04-11T09:31:20.996Z</time></trkpt><trkpt lat="41.8242267" lon="2.28216"><ele>768.0</ele><time>2026-04-11T09:31:21.996Z</time></trkpt><trkpt lat="41.82417" lon="2.2821083"><ele>767.0</ele><time>2026-04-11T09:31:22.996Z</time></trkpt><trkpt lat="41.8240867" lon="2.2820883"><ele>766.0</ele><time>2026-04-11T09:31:23.996Z</time></trkpt><trkpt lat="41.82399" lon="2.2820883"><ele>765.0</ele><time>2026-04-11T09:31:24.996Z</time></trkpt><trkpt lat="41.8238817" lon="2.282085"><ele>764.0</ele><time>2026-04-11T09:31:25.996Z</time></trkpt><trkpt lat="41.82377" lon="2.2820867"><ele>764.0</ele><time>2026-04-11T09:31:26.996Z</time></trkpt><trkpt lat="41.82367" lon="2.282095"><ele>764.0</ele><time>2026-04-11T09:31:27.996Z</time></trkpt><trkpt lat="41.8235733" lon="2.282095"><ele>764.0</ele><time>2026-04-11T09:31:28.996Z</time></trkpt><trkpt lat="41.823495" lon="2.2820933"><ele>764.0</ele><time>2026-04-11T09:31:29.996Z</time></trkpt><trkpt lat="41.8234283" lon="2.2820917"><ele>764.0</ele><time>2026-04-11T09:31:30.997Z</time></trkpt><trkpt lat="41.82336" lon="2.2821017"><ele>764.0</ele><time>2026-04-11T09:31:31.996Z</time></trkpt><trkpt lat="41.8232767" lon="2.282115"><ele>765.8000000000001</ele><time>2026-04-11T09:31:32.996Z</time></trkpt><trkpt lat="41.823185" lon="2.2821367"><ele>767.6</ele><time>2026-04-11T09:31:33.996Z</time></trkpt><trkpt lat="41.8230833" lon="2.2821667"><ele>769.4</ele><time>2026-04-11T09:31:34.996Z</time></trkpt><trkpt lat="41.82298" lon="2.2822133"><ele>771.2</ele><time>2026-04-11T09:31:35.996Z</time></trkpt><trkpt lat="41.8228733" lon="2.282265"><ele>773.0</ele><time>2026-04-11T09:31:36.997Z</time></trkpt><trkpt lat="41.8227733" lon="2.2823467"><ele>773.5</ele><time>2026-04-11T09:31:37.996Z</time></trkpt><trkpt lat="41.8226833" lon="2.2824533"><ele>774.0</ele><time>2026-04-11T09:31:38.996Z</time></trkpt><trkpt lat="41.8226017" lon="2.2825783"><ele>774.5</ele><time>2026-04-11T09:31:39.996Z</time></trkpt><trkpt lat="41.8225433" lon="2.2827117"><ele>775.0</ele><time>2026-04-11T09:31:40.996Z</time></trkpt><trkpt lat="41.8224967" lon="2.28284"><ele>775.8</ele><time>2026-04-11T09:31:41.997Z</time></trkpt><trkpt lat="41.8224567" lon="2.28295"><ele>776.6</ele><time>2026-04-11T09:31:42.996Z</time></trkpt><trkpt lat="41.82242" lon="2.283025"><ele>777.4000000000001</ele><time>2026-04-11T09:31:43.996Z</time></trkpt><trkpt lat="41.8223033" lon="2.283055"><ele>778.2</ele><time>2026-04-11T09:31:45.996Z</time></trkpt><trkpt lat="41.8222183" lon="2.28302"><ele>779.0</ele><time>2026-04-11T09:31:46.996Z</time></trkpt><trkpt lat="41.8221283" lon="2.2829683"><ele>779.0</ele><time>2026-04-11T09:31:47.996Z</time></trkpt><trkpt lat="41.822025" lon="2.2829067"><ele>779.0</ele><time>2026-04-11T09:31:48.996Z</time></trkpt><trkpt lat="41.8219183" lon="2.2828583"><ele>779.0</ele><time>2026-04-11T09:31:49.996Z</time></trkpt><trkpt lat="41.8217917" lon="2.2828067"><ele>779.0</ele><time>2026-04-11T09:31:50.996Z</time></trkpt><trkpt lat="41.8216717" lon="2.282755"><ele>778.25</ele><time>2026-04-11T09:31:51.996Z</time></trkpt><trkpt lat="41.8215517" lon="2.2827117"><ele>777.5</ele><time>2026-04-11T09:31:52.996Z</time></trkpt><trkpt lat="41.8214333" lon="2.2826733"><ele>776.75</ele><time>2026-04-11T09:31:53.996Z</time></trkpt><trkpt lat="41.8213117" lon="2.2826283"><ele>776.0</ele><time>2026-04-11T09:31:54.996Z</time></trkpt><trkpt lat="41.8212" lon="2.28259"><ele>776.0</ele><time>2026-04-11T09:31:55.996Z</time></trkpt><trkpt lat="41.8210917" lon="2.2825433"><ele>776.0</ele><time>2026-04-11T09:31:56.996Z</time></trkpt><trkpt lat="41.820985" lon="2.28251"><ele>776.0</ele><time>2026-04-11T09:31:57.996Z</time></trkpt><trkpt lat="41.820885" lon="2.28249"><ele>776.0</ele><time>2026-04-11T09:31:58.997Z</time></trkpt><trkpt lat="41.82078" lon="2.2824667"><ele>776.0</ele><time>2026-04-11T09:31:59.996Z</time></trkpt><trkpt lat="41.82068" lon="2.2824517"><ele>775.0</ele><time>2026-04-11T09:32:00.996Z</time></trkpt><trkpt lat="41.8205867" lon="2.2824317"><ele>774.0</ele><time>2026-04-11T09:32:01.996Z</time></trkpt><trkpt lat="41.82051" lon="2.2824067"><ele>773.0</ele><time>2026-04-11T09:32:02.996Z</time></trkpt><trkpt lat="41.8203883" lon="2.2823933"><ele>772.0</ele><time>2026-04-11T09:32:04.996Z</time></trkpt><trkpt lat="41.82039" lon="2.2825033"><ele>771.0</ele><time>2026-04-11T09:32:07.996Z</time></trkpt><trkpt lat="41.820485" lon="2.2825267"><ele>771.0</ele><time>2026-04-11T09:32:09.996Z</time></trkpt><trkpt lat="41.8205633" lon="2.2824467"><ele>771.0</ele><time>2026-04-11T09:32:10.996Z</time></trkpt><trkpt lat="41.8206233" lon="2.2823583"><ele>771.0</ele><time>2026-04-11T09:32:11.996Z</time></trkpt><trkpt lat="41.8206667" lon="2.282235"><ele>771.0</ele><time>2026-04-11T09:32:12.996Z</time></trkpt><trkpt lat="41.8206917" lon="2.2820917"><ele>771.0</ele><time>2026-04-11T09:32:13.996Z</time></trkpt><trkpt lat="41.82071" lon="2.28194"><ele>770.8</ele><time>2026-04-11T09:32:14.996Z</time></trkpt><trkpt lat="41.8207033" lon="2.2817933"><ele>770.5999999999999</ele><time>2026-04-11T09:32:15.996Z</time></trkpt><trkpt lat="41.8206767" lon="2.28165"><ele>770.4</ele><time>2026-04-11T09:32:16.997Z</time></trkpt><trkpt lat="41.8206267" lon="2.2815167"><ele>770.2</ele><time>2026-04-11T09:32:17.996Z</time></trkpt><trkpt lat="41.82057" lon="2.2813933"><ele>770.0</ele><time>2026-04-11T09:32:18.996Z</time></trkpt><trkpt lat="41.8205133" lon="2.2812717"><ele>769.0</ele><time>2026-04-11T09:32:19.996Z</time></trkpt><trkpt lat="41.8204733" lon="2.2811367"><ele>768.0</ele><time>2026-04-11T09:32:20.996Z</time></trkpt><trkpt lat="41.820455" lon="2.2809883"><ele>767.0</ele><time>2026-04-11T09:32:21.997Z</time></trkpt><trkpt lat="41.8204283" lon="2.2808383"><ele>766.0</ele><time>2026-04-11T09:32:22.996Z</time></trkpt><trkpt lat="41.82039" lon="2.2806867"><ele>766.0</ele><time>2026-04-11T09:32:23.997Z</time></trkpt><trkpt lat="41.8203417" lon="2.28052"><ele>766.0</ele><time>2026-04-11T09:32:24.996Z</time></trkpt><trkpt lat="41.82028" lon="2.2803483"><ele>766.0</ele><time>2026-04-11T09:32:25.996Z</time></trkpt><trkpt lat="41.8202233" lon="2.280175"><ele>766.0</ele><time>2026-04-11T09:32:26.996Z</time></trkpt><trkpt lat="41.8201667" lon="2.28"><ele>766.0</ele><time>2026-04-11T09:32:27.996Z</time></trkpt><trkpt lat="41.8201183" lon="2.2798183"><ele>766.0</ele><time>2026-04-11T09:32:28.996Z</time></trkpt><trkpt lat="41.8200633" lon="2.27964"><ele>766.0</ele><time>2026-04-11T09:32:29.997Z</time></trkpt><trkpt lat="41.8200117" lon="2.2794483"><ele>766.0</ele><time>2026-04-11T09:32:30.996Z</time></trkpt><trkpt lat="41.8199633" lon="2.2792617"><ele>766.0</ele><time>2026-04-11T09:32:31.996Z</time></trkpt><trkpt lat="41.8199083" lon="2.2790733"><ele>766.0</ele><time>2026-04-11T09:32:32.996Z</time></trkpt><trkpt lat="41.819855" lon="2.2788967"><ele>766.0</ele><time>2026-04-11T09:32:33.996Z</time></trkpt><trkpt lat="41.8198017" lon="2.27874"><ele>766.0</ele><time>2026-04-11T09:32:34.996Z</time></trkpt><trkpt lat="41.8197583" lon="2.27859"><ele>766.0</ele><time>2026-04-11T09:32:35.996Z</time></trkpt><trkpt lat="41.81972" lon="2.278475"><ele>766.0</ele><time>2026-04-11T09:32:36.996Z</time></trkpt><trkpt lat="41.8196783" lon="2.27837"><ele>766.0</ele><time>2026-04-11T09:32:37.996Z</time></trkpt><trkpt lat="41.8196283" lon="2.27829"><ele>766.0</ele><time>2026-04-11T09:32:38.996Z</time></trkpt><trkpt lat="41.8195617" lon="2.2782317"><ele>766.0</ele><time>2026-04-11T09:32:39.996Z</time></trkpt><trkpt lat="41.8194783" lon="2.27821"><ele>766.0</ele><time>2026-04-11T09:32:40.997Z</time></trkpt><trkpt lat="41.8193683" lon="2.2782233"><ele>765.75</ele><time>2026-04-11T09:32:41.997Z</time></trkpt><trkpt lat="41.81925" lon="2.278245"><ele>765.5</ele><time>2026-04-11T09:32:42.996Z</time></trkpt><trkpt lat="41.8191183" lon="2.2782633"><ele>765.25</ele><time>2026-04-11T09:32:43.996Z</time></trkpt><trkpt lat="41.8189917" lon="2.2782933"><ele>765.0</ele><time>2026-04-11T09:32:44.996Z</time></trkpt><trkpt lat="41.81888" lon="2.2783467"><ele>765.0</ele><time>2026-04-11T09:32:45.996Z</time></trkpt><trkpt lat="41.8187667" lon="2.2784083"><ele>765.0</ele><time>2026-04-11T09:32:46.997Z</time></trkpt><trkpt lat="41.8186467" lon="2.2784567"><ele>765.0</ele><time>2026-04-11T09:32:47.996Z</time></trkpt><trkpt lat="41.8185533" lon="2.278485"><ele>765.0</ele><time>2026-04-11T09:32:48.996Z</time></trkpt><trkpt lat="41.8184733" lon="2.278515"><ele>765.0</ele><time>2026-04-11T09:32:49.996Z</time></trkpt><trkpt lat="41.8184033" lon="2.2785267"><ele>765.0</ele><time>2026-04-11T09:32:50.996Z</time></trkpt><trkpt lat="41.818385" lon="2.2784433"><ele>765.0</ele><time>2026-04-11T09:32:53.996Z</time></trkpt><trkpt lat="41.8184767" lon="2.2784483"><ele>765.0</ele><time>2026-04-11T09:33:04.996Z</time></trkpt><trkpt lat="41.818545" lon="2.2784283"><ele>765.0</ele><time>2026-04-11T09:33:05.996Z</time></trkpt><trkpt lat="41.8186167" lon="2.2783967"><ele>765.0</ele><time>2026-04-11T09:33:06.996Z</time></trkpt><trkpt lat="41.8186983" lon="2.278355"><ele>765.0</ele><time>2026-04-11T09:33:07.996Z</time></trkpt><trkpt lat="41.8187983" lon="2.2783"><ele>765.0</ele><time>2026-04-11T09:33:08.996Z</time></trkpt><trkpt lat="41.81891" lon="2.27824"><ele>765.0</ele><time>2026-04-11T09:33:09.996Z</time></trkpt><trkpt lat="41.8190167" lon="2.2782017"><ele>765.0</ele><time>2026-04-11T09:33:10.996Z</time></trkpt><trkpt lat="41.8191183" lon="2.2781833"><ele>765.0</ele><time>2026-04-11T09:33:11.997Z</time></trkpt><trkpt lat="41.819215" lon="2.27818"><ele>765.0</ele><time>2026-04-11T09:33:12.996Z</time></trkpt><trkpt lat="41.8193" lon="2.27818"><ele>765.1428571428572</ele><time>2026-04-11T09:33:13.996Z</time></trkpt><trkpt lat="41.8193767" lon="2.2781733"><ele>765.2857142857143</ele><time>2026-04-11T09:33:14.996Z</time></trkpt><trkpt lat="41.8194517" lon="2.2781717"><ele>765.4285714285714</ele><time>2026-04-11T09:33:15.996Z</time></trkpt><trkpt lat="41.8195183" lon="2.2781733"><ele>765.5714285714287</ele><time>2026-04-11T09:33:16.996Z</time></trkpt><trkpt lat="41.8196017" lon="2.2782"><ele>765.7142857142857</ele><time>2026-04-11T09:33:18.996Z</time></trkpt><trkpt lat="41.819655" lon="2.2782467"><ele>765.8571428571429</ele><time>2026-04-11T09:33:22.997Z</time></trkpt><trkpt lat="41.8195833" lon="2.278215"><ele>766.0</ele><time>2026-04-11T09:33:30.996Z</time></trkpt><trkpt lat="41.8194833" lon="2.2782133"><ele>766.0</ele><time>2026-04-11T09:33:32.996Z</time></trkpt><trkpt lat="41.819415" lon="2.2782083"><ele>766.0</ele><time>2026-04-11T09:33:33.996Z</time></trkpt><trkpt lat="41.8193317" lon="2.2782133"><ele>766.0</ele><time>2026-04-11T09:33:34.996Z</time></trkpt><trkpt lat="41.8192433" lon="2.2782267"><ele>766.0</ele><time>2026-04-11T09:33:35.996Z</time></trkpt><trkpt lat="41.81915" lon="2.278245"><ele>766.0</ele><time>2026-04-11T09:33:36.997Z</time></trkpt><trkpt lat="41.8190483" lon="2.2782567"><ele>766.0</ele><time>2026-04-11T09:33:37.996Z</time></trkpt><trkpt lat="41.818935" lon="2.2782933"><ele>765.8</ele><time>2026-04-11T09:33:38.996Z</time></trkpt><trkpt lat="41.8188267" lon="2.278345"><ele>765.5999999999999</ele><time>2026-04-11T09:33:39.996Z</time></trkpt><trkpt lat="41.8187267" lon="2.2783983"><ele>765.4</ele><time>2026-04-11T09:33:40.996Z</time></trkpt><trkpt lat="41.8186367" lon="2.27844"><ele>765.2</ele><time>2026-04-11T09:33:41.996Z</time></trkpt><trkpt lat="41.8185533" lon="2.2784683"><ele>765.0</ele><time>2026-04-11T09:33:42.996Z</time></trkpt><trkpt lat="41.8184867" lon="2.2784833"><ele>765.3333333333334</ele><time>2026-04-11T09:33:43.996Z</time></trkpt><trkpt lat="41.818405" lon="2.278505"><ele>765.6666666666666</ele><time>2026-04-11T09:33:45.996Z</time></trkpt><trkpt lat="41.8183483" lon="2.2784183"><ele>766.0</ele><time>2026-04-11T09:33:49.996Z</time></trkpt><trkpt lat="41.8182533" lon="2.27833"><ele>766.3333333333333</ele><time>2026-04-11T09:33:51.996Z</time></trkpt><trkpt lat="41.818185" lon="2.278275"><ele>766.6666666666666</ele><time>2026-04-11T09:33:52.996Z</time></trkpt><trkpt lat="41.81812" lon="2.2782217"><ele>767.0</ele><time>2026-04-11T09:33:53.996Z</time></trkpt><trkpt lat="41.81805" lon="2.2781617"><ele>768.1666666666666</ele><time>2026-04-11T09:33:54.996Z</time></trkpt><trkpt lat="41.817985" lon="2.27809"><ele>769.3333333333333</ele><time>2026-04-11T09:33:55.996Z</time></trkpt><trkpt lat="41.817925" lon="2.2780117"><ele>770.5</ele><time>2026-04-11T09:33:56.996Z</time></trkpt><trkpt lat="41.8178833" lon="2.277945"><ele>771.6666666666666</ele><time>2026-04-11T09:33:57.996Z</time></trkpt><trkpt lat="41.8178467" lon="2.277815"><ele>772.8333333333334</ele><time>2026-04-11T09:33:59.996Z</time></trkpt><trkpt lat="41.8178467" lon="2.2777183"><ele>774.0</ele><time>2026-04-11T09:34:01.996Z</time></trkpt><trkpt lat="41.8178883" lon="2.27787"><ele>774.0</ele><time>2026-04-11T09:34:11.997Z</time></trkpt><trkpt lat="41.81793" lon="2.2779467"><ele>774.0</ele><time>2026-04-11T09:34:12.996Z</time></trkpt><trkpt lat="41.8179767" lon="2.27802"><ele>774.0</ele><time>2026-04-11T09:34:13.996Z</time></trkpt><trkpt lat="41.81806" lon="2.2781117"><ele>774.0</ele><time>2026-04-11T09:34:15.996Z</time></trkpt><trkpt lat="41.8181333" lon="2.278165"><ele>774.0</ele><time>2026-04-11T09:34:17.996Z</time></trkpt><trkpt lat="41.8181933" lon="2.2782167"><ele>774.0</ele><time>2026-04-11T09:34:19.996Z</time></trkpt><trkpt lat="41.818265" lon="2.278285"><ele>772.6</ele><time>2026-04-11T09:34:21.996Z</time></trkpt><trkpt lat="41.8183417" lon="2.278345"><ele>771.2</ele><time>2026-04-11T09:34:23.996Z</time></trkpt><trkpt lat="41.8183967" lon="2.2783883"><ele>769.8000000000001</ele><time>2026-04-11T09:34:25.996Z</time></trkpt><trkpt lat="41.8184867" lon="2.2784117"><ele>768.4000000000001</ele><time>2026-04-11T09:34:39.995Z</time></trkpt><trkpt lat="41.8186317" lon="2.278375"><ele>767.0</ele><time>2026-04-11T09:34:41.995Z</time></trkpt><trkpt lat="41.818735" lon="2.27833"><ele>766.5</ele><time>2026-04-11T09:34:42.995Z</time></trkpt><trkpt lat="41.81886" lon="2.27827"><ele>766.0</ele><time>2026-04-11T09:34:43.996Z</time></trkpt><trkpt lat="41.818985" lon="2.2782233"><ele>765.5</ele><time>2026-04-11T09:34:44.995Z</time></trkpt><trkpt lat="41.8191017" lon="2.278195"><ele>765.0</ele><time>2026-04-11T09:34:45.995Z</time></trkpt><trkpt lat="41.81922" lon="2.27818"><ele>765.2</ele><time>2026-04-11T09:34:46.995Z</time></trkpt><trkpt lat="41.81933" lon="2.27817"><ele>765.4</ele><time>2026-04-11T09:34:47.995Z</time></trkpt><trkpt lat="41.819435" lon="2.278165"><ele>765.5999999999999</ele><time>2026-04-11T09:34:48.995Z</time></trkpt><trkpt lat="41.819525" lon="2.2781833"><ele>765.8</ele><time>2026-04-11T09:34:49.995Z</time></trkpt><trkpt lat="41.8196033" lon="2.2782167"><ele>766.0</ele><time>2026-04-11T09:34:50.995Z</time></trkpt><trkpt lat="41.8196733" lon="2.2782767"><ele>766.0</ele><time>2026-04-11T09:34:51.995Z</time></trkpt><trkpt lat="41.819725" lon="2.2783717"><ele>766.0</ele><time>2026-04-11T09:34:52.995Z</time></trkpt><trkpt lat="41.8197617" lon="2.278505"><ele>766.0</ele><time>2026-04-11T09:34:53.995Z</time></trkpt><trkpt lat="41.8198" lon="2.278665"><ele>766.0</ele><time>2026-04-11T09:34:54.995Z</time></trkpt><trkpt lat="41.819845" lon="2.27883"><ele>766.0</ele><time>2026-04-11T09:34:55.995Z</time></trkpt><trkpt lat="41.819895" lon="2.2790067"><ele>766.0</ele><time>2026-04-11T09:34:56.996Z</time></trkpt><trkpt lat="41.8199483" lon="2.279185"><ele>766.0</ele><time>2026-04-11T09:34:57.995Z</time></trkpt><trkpt lat="41.8200033" lon="2.2793617"><ele>766.0</ele><time>2026-04-11T09:34:58.995Z</time></trkpt><trkpt lat="41.8200583" lon="2.2795417"><ele>766.0</ele><time>2026-04-11T09:34:59.995Z</time></trkpt><trkpt lat="41.820115" lon="2.279725"><ele>766.0</ele><time>2026-04-11T09:35:00.995Z</time></trkpt><trkpt lat="41.82017" lon="2.2799083"><ele>766.0</ele><time>2026-04-11T09:35:01.995Z</time></trkpt><trkpt lat="41.8202283" lon="2.28009"><ele>766.0</ele><time>2026-04-11T09:35:02.995Z</time></trkpt><trkpt lat="41.8202817" lon="2.2802683"><ele>766.0</ele><time>2026-04-11T09:35:03.996Z</time></trkpt><trkpt lat="41.8203283" lon="2.28045"><ele>766.0</ele><time>2026-04-11T09:35:04.995Z</time></trkpt><trkpt lat="41.82038" lon="2.28063"><ele>766.0</ele><time>2026-04-11T09:35:05.995Z</time></trkpt><trkpt lat="41.8204333" lon="2.2807967"><ele>766.0</ele><time>2026-04-11T09:35:06.995Z</time></trkpt><trkpt lat="41.8204767" lon="2.2809483"><ele>766.0</ele><time>2026-04-11T09:35:07.995Z</time></trkpt><trkpt lat="41.8205067" lon="2.2810917"><ele>766.0</ele><time>2026-04-11T09:35:08.996Z</time></trkpt><trkpt lat="41.8205433" lon="2.2812133"><ele>766.0</ele><time>2026-04-11T09:35:09.995Z</time></trkpt><trkpt lat="41.8205867" lon="2.2813217"><ele>766.0</ele><time>2026-04-11T09:35:10.995Z</time></trkpt><trkpt lat="41.8206317" lon="2.281435"><ele>766.0</ele><time>2026-04-11T09:35:11.995Z</time></trkpt><trkpt lat="41.82068" lon="2.2815283"><ele>766.8</ele><time>2026-04-11T09:35:12.995Z</time></trkpt><trkpt lat="41.82072" lon="2.2816283"><ele>767.5999999999999</ele><time>2026-04-11T09:35:13.995Z</time></trkpt><trkpt lat="41.8207567" lon="2.28173"><ele>768.4</ele><time>2026-04-11T09:35:14.995Z</time></trkpt><trkpt lat="41.8207517" lon="2.2818783"><ele>769.2</ele><time>2026-04-11T09:35:15.995Z</time></trkpt><trkpt lat="41.8207233" lon="2.2820183"><ele>770.0</ele><time>2026-04-11T09:35:16.995Z</time></trkpt><trkpt lat="41.8206983" lon="2.2821367"><ele>770.0000000000001</ele><time>2026-04-11T09:35:17.995Z</time></trkpt><trkpt lat="41.8206667" lon="2.2822417"><ele>770.0</ele><time>2026-04-11T09:35:18.995Z</time></trkpt><trkpt lat="41.820625" lon="2.2823833"><ele>770.0</ele><time>2026-04-11T09:35:20.995Z</time></trkpt><trkpt lat="41.8206567" lon="2.282465"><ele>770.0</ele><time>2026-04-11T09:35:22.995Z</time></trkpt><trkpt lat="41.8207417" lon="2.2824867"><ele>770.0000000000001</ele><time>2026-04-11T09:35:23.995Z</time></trkpt><trkpt lat="41.8208267" lon="2.2825167"><ele>770.0</ele><time>2026-04-11T09:35:24.996Z</time></trkpt><trkpt lat="41.8209317" lon="2.282545"><ele>771.5</ele><time>2026-04-11T09:35:25.996Z</time></trkpt><trkpt lat="41.8210433" lon="2.2825717"><ele>773.0</ele><time>2026-04-11T09:35:26.996Z</time></trkpt><trkpt lat="41.8211583" lon="2.282595"><ele>774.5</ele><time>2026-04-11T09:35:27.995Z</time></trkpt><trkpt lat="41.8212683" lon="2.2826217"><ele>776.0</ele><time>2026-04-11T09:35:28.995Z</time></trkpt><trkpt lat="41.821375" lon="2.282645"><ele>776.0</ele><time>2026-04-11T09:35:29.995Z</time></trkpt><trkpt lat="41.821485" lon="2.2826767"><ele>776.0</ele><time>2026-04-11T09:35:30.995Z</time></trkpt><trkpt lat="41.8215867" lon="2.2827183"><ele>776.0</ele><time>2026-04-11T09:35:31.995Z</time></trkpt><trkpt lat="41.8216867" lon="2.2827733"><ele>776.0</ele><time>2026-04-11T09:35:32.995Z</time></trkpt><trkpt lat="41.8217867" lon="2.282825"><ele>776.0</ele><time>2026-04-11T09:35:33.995Z</time></trkpt><trkpt lat="41.8218867" lon="2.2828767"><ele>776.5999999999999</ele><time>2026-04-11T09:35:34.995Z</time></trkpt><trkpt lat="41.8219883" lon="2.2829267"><ele>777.2</ele><time>2026-04-11T09:35:35.995Z</time></trkpt><trkpt lat="41.8220867" lon="2.2829733"><ele>777.8</ele><time>2026-04-11T09:35:36.995Z</time></trkpt><trkpt lat="41.8221967" lon="2.2830133"><ele>778.4000000000001</ele><time>2026-04-11T09:35:37.995Z</time></trkpt><trkpt lat="41.8222883" lon="2.2830517"><ele>779.0</ele><time>2026-04-11T09:35:38.995Z</time></trkpt><trkpt lat="41.8223733" lon="2.283065"><ele>779.0000000000001</ele><time>2026-04-11T09:35:39.995Z</time></trkpt><trkpt lat="41.8224433" lon="2.2830483"><ele>779.0</ele><time>2026-04-11T09:35:40.995Z</time></trkpt><trkpt lat="41.8225017" lon="2.2829867"><ele>779.0</ele><time>2026-04-11T09:35:41.995Z</time></trkpt><trkpt lat="41.8225417" lon="2.28289"><ele>779.0</ele><time>2026-04-11T09:35:42.995Z</time></trkpt><trkpt lat="41.82258" lon="2.28277"><ele>779.0000000000001</ele><time>2026-04-11T09:35:43.995Z</time></trkpt><trkpt lat="41.8226267" lon="2.2826533"><ele>779.0</ele><time>2026-04-11T09:35:44.996Z</time></trkpt><trkpt lat="41.8226917" lon="2.2825533"><ele>778.3333333333334</ele><time>2026-04-11T09:35:45.995Z</time></trkpt><trkpt lat="41.8227617" lon="2.28248"><ele>777.6666666666667</ele><time>2026-04-11T09:35:46.995Z</time></trkpt><trkpt lat="41.8228317" lon="2.2824183"><ele>777.0</ele><time>2026-04-11T09:35:47.995Z</time></trkpt><trkpt lat="41.8228867" lon="2.2823717"><ele>776.3333333333333</ele><time>2026-04-11T09:35:48.995Z</time></trkpt><trkpt lat="41.8229567" lon="2.2822817"><ele>775.6666666666666</ele><time>2026-04-11T09:35:50.995Z</time></trkpt><trkpt lat="41.8229367" lon="2.2821833"><ele>775.0</ele><time>2026-04-11T09:35:53.995Z</time></trkpt><trkpt lat="41.8229033" lon="2.282075"><ele>774.6</ele><time>2026-04-11T09:35:55.995Z</time></trkpt><trkpt lat="41.8228717" lon="2.28198"><ele>774.2</ele><time>2026-04-11T09:35:56.996Z</time></trkpt><trkpt lat="41.8228283" lon="2.2818533"><ele>773.8</ele><time>2026-04-11T09:35:57.995Z</time></trkpt><trkpt lat="41.8227817" lon="2.2817267"><ele>773.4</ele><time>2026-04-11T09:35:58.995Z</time></trkpt><trkpt lat="41.822755" lon="2.28161"><ele>773.0</ele><time>2026-04-11T09:35:59.995Z</time></trkpt><trkpt lat="41.82275" lon="2.2814967"><ele>772.0</ele><time>2026-04-11T09:36:00.995Z</time></trkpt><trkpt lat="41.82277" lon="2.2813767"><ele>771.0</ele><time>2026-04-11T09:36:01.995Z</time></trkpt><trkpt lat="41.8228167" lon="2.281235"><ele>770.0</ele><time>2026-04-11T09:36:02.995Z</time></trkpt><trkpt lat="41.822865" lon="2.2810733"><ele>769.0</ele><time>2026-04-11T09:36:03.995Z</time></trkpt><trkpt lat="41.8229067" lon="2.28091"><ele>769.0</ele><time>2026-04-11T09:36:04.995Z</time></trkpt><trkpt lat="41.8229467" lon="2.2807467"><ele>769.0</ele><time>2026-04-11T09:36:05.995Z</time></trkpt><trkpt lat="41.8229767" lon="2.2805833"><ele>769.0</ele><time>2026-04-11T09:36:06.995Z</time></trkpt><trkpt lat="41.8230167" lon="2.28041"><ele>769.0</ele><time>2026-04-11T09:36:07.995Z</time></trkpt><trkpt lat="41.82306" lon="2.2802433"><ele>768.25</ele><time>2026-04-11T09:36:08.996Z</time></trkpt><trkpt lat="41.8230833" lon="2.280065"><ele>767.5</ele><time>2026-04-11T09:36:09.996Z</time></trkpt><trkpt lat="41.8231" lon="2.2798817"><ele>766.75</ele><time>2026-04-11T09:36:10.995Z</time></trkpt><trkpt lat="41.8231067" lon="2.2796867"><ele>766.0</ele><time>2026-04-11T09:36:11.995Z</time></trkpt><trkpt lat="41.8231117" lon="2.27949"><ele>764.75</ele><time>2026-04-11T09:36:12.995Z</time></trkpt><trkpt lat="41.8231183" lon="2.279295"><ele>763.5</ele><time>2026-04-11T09:36:13.995Z</time></trkpt><trkpt lat="41.82312" lon="2.279105"><ele>762.25</ele><time>2026-04-11T09:36:14.995Z</time></trkpt><trkpt lat="41.82313" lon="2.278905"><ele>761.0</ele><time>2026-04-11T09:36:15.995Z</time></trkpt><trkpt lat="41.8231433" lon="2.2787233"><ele>760.5</ele><time>2026-04-11T09:36:16.995Z</time></trkpt><trkpt lat="41.8231517" lon="2.2785417"><ele>760.0</ele><time>2026-04-11T09:36:17.995Z</time></trkpt><trkpt lat="41.8231583" lon="2.2783567"><ele>759.5</ele><time>2026-04-11T09:36:18.995Z</time></trkpt><trkpt lat="41.8231567" lon="2.2781783"><ele>759.0</ele><time>2026-04-11T09:36:19.995Z</time></trkpt><trkpt lat="41.823155" lon="2.2779683"><ele>758.5</ele><time>2026-04-11T09:36:20.995Z</time></trkpt><trkpt lat="41.8231567" lon="2.27778"><ele>758.0</ele><time>2026-04-11T09:36:21.995Z</time></trkpt><trkpt lat="41.8231667" lon="2.2776017"><ele>757.5</ele><time>2026-04-11T09:36:22.995Z</time></trkpt><trkpt lat="41.8231783" lon="2.2774183"><ele>757.0</ele><time>2026-04-11T09:36:23.995Z</time></trkpt><trkpt lat="41.8231917" lon="2.2772567"><ele>756.2</ele><time>2026-04-11T09:36:24.995Z</time></trkpt><trkpt lat="41.8231983" lon="2.2771033"><ele>755.4000000000001</ele><time>2026-04-11T09:36:25.995Z</time></trkpt><trkpt lat="41.8232" lon="2.2769567"><ele>754.5999999999999</ele><time>2026-04-11T09:36:26.995Z</time></trkpt><trkpt lat="41.82319" lon="2.2768183"><ele>753.8</ele><time>2026-04-11T09:36:27.995Z</time></trkpt><trkpt lat="41.8231833" lon="2.276685"><ele>753.0</ele><time>2026-04-11T09:36:28.995Z</time></trkpt><trkpt lat="41.823185" lon="2.27656"><ele>753.0</ele><time>2026-04-11T09:36:29.995Z</time></trkpt><trkpt lat="41.8231733" lon="2.2764483"><ele>753.0</ele><time>2026-04-11T09:36:30.995Z</time></trkpt><trkpt lat="41.8231467" lon="2.2763533"><ele>753.0</ele><time>2026-04-11T09:36:31.995Z</time></trkpt><trkpt lat="41.82311" lon="2.2762567"><ele>753.0</ele><time>2026-04-11T09:36:32.995Z</time></trkpt><trkpt lat="41.823065" lon="2.276175"><ele>753.0</ele><time>2026-04-11T09:36:33.995Z</time></trkpt><trkpt lat="41.8229967" lon="2.276095"><ele>753.0</ele><time>2026-04-11T09:36:34.995Z</time></trkpt><trkpt lat="41.8229233" lon="2.2760017"><ele>752.4</ele><time>2026-04-11T09:36:35.995Z</time></trkpt><trkpt lat="41.822855" lon="2.2759"><ele>751.8</ele><time>2026-04-11T09:36:36.995Z</time></trkpt><trkpt lat="41.8227917" lon="2.275795"><ele>751.2</ele><time>2026-04-11T09:36:37.995Z</time></trkpt><trkpt lat="41.8227317" lon="2.2756983"><ele>750.6</ele><time>2026-04-11T09:36:38.995Z</time></trkpt><trkpt lat="41.8226783" lon="2.2756133"><ele>750.0</ele><time>2026-04-11T09:36:39.995Z</time></trkpt><trkpt lat="41.8226033" lon="2.2754983"><ele>749.6666666666666</ele><time>2026-04-11T09:36:41.995Z</time></trkpt><trkpt lat="41.8225267" lon="2.2754617"><ele>749.3333333333334</ele><time>2026-04-11T09:36:43.995Z</time></trkpt><trkpt lat="41.822455" lon="2.2755067"><ele>749.0</ele><time>2026-04-11T09:36:45.995Z</time></trkpt><trkpt lat="41.8223783" lon="2.2754617"><ele>748.6666666666667</ele><time>2026-04-11T09:36:47.995Z</time></trkpt><trkpt lat="41.822335" lon="2.2753967"><ele>748.3333333333334</ele><time>2026-04-11T09:36:48.995Z</time></trkpt><trkpt lat="41.8222883" lon="2.2753"><ele>748.0</ele><time>2026-04-11T09:36:49.995Z</time></trkpt><trkpt lat="41.8222267" lon="2.2751667"><ele>748.0</ele><time>2026-04-11T09:36:50.995Z</time></trkpt><trkpt lat="41.82216" lon="2.2750367"><ele>748.0</ele><time>2026-04-11T09:36:51.995Z</time></trkpt><trkpt lat="41.8220733" lon="2.2749217"><ele>748.0</ele><time>2026-04-11T09:36:52.995Z</time></trkpt><trkpt lat="41.82197" lon="2.2748217"><ele>748.0</ele><time>2026-04-11T09:36:53.996Z</time></trkpt><trkpt lat="41.8218533" lon="2.27474"><ele>748.0</ele><time>2026-04-11T09:36:54.995Z</time></trkpt><trkpt lat="41.8217333" lon="2.2746917"><ele>748.0</ele><time>2026-04-11T09:36:55.995Z</time></trkpt><trkpt lat="41.8216117" lon="2.2746567"><ele>748.0</ele><time>2026-04-11T09:36:56.995Z</time></trkpt><trkpt lat="41.8214983" lon="2.274675"><ele>748.0</ele><time>2026-04-11T09:36:57.995Z</time></trkpt><trkpt lat="41.8213783" lon="2.2746917"><ele>748.0</ele><time>2026-04-11T09:36:58.995Z</time></trkpt><trkpt lat="41.821255" lon="2.27471"><ele>748.0</ele><time>2026-04-11T09:36:59.995Z</time></trkpt><trkpt lat="41.821135" lon="2.274735"><ele>748.0</ele><time>2026-04-11T09:37:00.995Z</time></trkpt><trkpt lat="41.8210067" lon="2.2747467"><ele>748.0</ele><time>2026-04-11T09:37:01.995Z</time></trkpt><trkpt lat="41.8208917" lon="2.2747583"><ele>750.5999999999999</ele><time>2026-04-11T09:37:02.995Z</time></trkpt><trkpt lat="41.8207717" lon="2.2747783"><ele>753.1999999999999</ele><time>2026-04-11T09:37:03.995Z</time></trkpt><trkpt lat="41.8206583" lon="2.2748033"><ele>755.8</ele><time>2026-04-11T09:37:04.995Z</time></trkpt><trkpt lat="41.82055" lon="2.2748267"><ele>758.4</ele><time>2026-04-11T09:37:05.995Z</time></trkpt><trkpt lat="41.82045" lon="2.2748517"><ele>761.0</ele><time>2026-04-11T09:37:06.995Z</time></trkpt><trkpt lat="41.8203517" lon="2.2748817"><ele>761.0</ele><time>2026-04-11T09:37:07.995Z</time></trkpt><trkpt lat="41.8202533" lon="2.27492"><ele>761.0</ele><time>2026-04-11T09:37:08.995Z</time></trkpt><trkpt lat="41.8201617" lon="2.2749867"><ele>761.0</ele><time>2026-04-11T09:37:09.995Z</time></trkpt><trkpt lat="41.820075" lon="2.275065"><ele>761.0</ele><time>2026-04-11T09:37:10.996Z</time></trkpt><trkpt lat="41.8199983" lon="2.2751683"><ele>761.0</ele><time>2026-04-11T09:37:11.995Z</time></trkpt><trkpt lat="41.81992" lon="2.2752883"><ele>762.0</ele><time>2026-04-11T09:37:12.996Z</time></trkpt><trkpt lat="41.8198417" lon="2.2754033"><ele>763.0</ele><time>2026-04-11T09:37:13.995Z</time></trkpt><trkpt lat="41.81975" lon="2.2755217"><ele>764.0</ele><time>2026-04-11T09:37:14.995Z</time></trkpt><trkpt lat="41.8196483" lon="2.27567"><ele>765.0</ele><time>2026-04-11T09:37:15.995Z</time></trkpt><trkpt lat="41.8195283" lon="2.2757767"><ele>765.5</ele><time>2026-04-11T09:37:16.996Z</time></trkpt><trkpt lat="41.819395" lon="2.2758467"><ele>766.0</ele><time>2026-04-11T09:37:17.996Z</time></trkpt><trkpt lat="41.8192783" lon="2.2759333"><ele>766.5</ele><time>2026-04-11T09:37:18.995Z</time></trkpt><trkpt lat="41.8191567" lon="2.2760117"><ele>767.0</ele><time>2026-04-11T09:37:19.995Z</time></trkpt><trkpt lat="41.81903" lon="2.2760617"><ele>767.6</ele><time>2026-04-11T09:37:20.995Z</time></trkpt><trkpt lat="41.8189233" lon="2.276125"><ele>768.2</ele><time>2026-04-11T09:37:21.995Z</time></trkpt><trkpt lat="41.818835" lon="2.2761717"><ele>768.8</ele><time>2026-04-11T09:37:22.995Z</time></trkpt><trkpt lat="41.8187383" lon="2.2762167"><ele>769.4</ele><time>2026-04-11T09:37:23.995Z</time></trkpt><trkpt lat="41.8186333" lon="2.2762467"><ele>770.0</ele><time>2026-04-11T09:37:24.996Z</time></trkpt><trkpt lat="41.818515" lon="2.2762633"><ele>769.75</ele><time>2026-04-11T09:37:25.995Z</time></trkpt><trkpt lat="41.818395" lon="2.2762667"><ele>769.5</ele><time>2026-04-11T09:37:26.995Z</time></trkpt><trkpt lat="41.8182783" lon="2.2762583"><ele>769.25</ele><time>2026-04-11T09:37:27.995Z</time></trkpt><trkpt lat="41.8181433" lon="2.2762083"><ele>769.0</ele><time>2026-04-11T09:37:28.996Z</time></trkpt><trkpt lat="41.818015" lon="2.2761517"><ele>769.0</ele><time>2026-04-11T09:37:29.995Z</time></trkpt><trkpt lat="41.8178917" lon="2.276085"><ele>769.0</ele><time>2026-04-11T09:37:30.995Z</time></trkpt><trkpt lat="41.817765" lon="2.2760233"><ele>769.0</ele><time>2026-04-11T09:37:31.995Z</time></trkpt><trkpt lat="41.8176383" lon="2.27594"><ele>769.0</ele><time>2026-04-11T09:37:32.995Z</time></trkpt><trkpt lat="41.8175083" lon="2.27584"><ele>768.75</ele><time>2026-04-11T09:37:33.995Z</time></trkpt><trkpt lat="41.8173817" lon="2.2757433"><ele>768.5</ele><time>2026-04-11T09:37:34.995Z</time></trkpt><trkpt lat="41.8172667" lon="2.275655"><ele>768.25</ele><time>2026-04-11T09:37:35.995Z</time></trkpt><trkpt lat="41.8171517" lon="2.2755717"><ele>768.0</ele><time>2026-04-11T09:37:36.995Z</time></trkpt><trkpt lat="41.817025" lon="2.27552"><ele>767.75</ele><time>2026-04-11T09:37:37.995Z</time></trkpt><trkpt lat="41.8168867" lon="2.2754717"><ele>767.5</ele><time>2026-04-11T09:37:38.995Z</time></trkpt><trkpt lat="41.8167483" lon="2.2754433"><ele>767.25</ele><time>2026-04-11T09:37:39.995Z</time></trkpt><trkpt lat="41.8166067" lon="2.2754183"><ele>767.0</ele><time>2026-04-11T09:37:40.995Z</time></trkpt><trkpt lat="41.8164633" lon="2.27539"><ele>767.0</ele><time>2026-04-11T09:37:41.995Z</time></trkpt><trkpt lat="41.8163383" lon="2.2753683"><ele>767.0</ele><time>2026-04-11T09:37:42.995Z</time></trkpt><trkpt lat="41.8162117" lon="2.2753583"><ele>767.0</ele><time>2026-04-11T09:37:43.995Z</time></trkpt><trkpt lat="41.8160767" lon="2.2753717"><ele>767.0</ele><time>2026-04-11T09:37:44.995Z</time></trkpt><trkpt lat="41.8159417" lon="2.2753717"><ele>767.75</ele><time>2026-04-11T09:37:45.995Z</time></trkpt><trkpt lat="41.81578" lon="2.2753533"><ele>768.5</ele><time>2026-04-11T09:37:46.995Z</time></trkpt><trkpt lat="41.815635" lon="2.275365"><ele>769.25</ele><time>2026-04-11T09:37:47.995Z</time></trkpt><trkpt lat="41.8155" lon="2.2753733"><ele>770.0</ele><time>2026-04-11T09:37:48.995Z</time></trkpt><trkpt lat="41.8153583" lon="2.2753667"><ele>770.0</ele><time>2026-04-11T09:37:49.995Z</time></trkpt><trkpt lat="41.8152233" lon="2.27536"><ele>770.0</ele><time>2026-04-11T09:37:50.995Z</time></trkpt><trkpt lat="41.8150967" lon="2.2753617"><ele>770.0</ele><time>2026-04-11T09:37:51.995Z</time></trkpt><trkpt lat="41.8149883" lon="2.2753717"><ele>770.0</ele><time>2026-04-11T09:37:52.995Z</time></trkpt><trkpt lat="41.8148833" lon="2.275405"><ele>769.5000000000001</ele><time>2026-04-11T09:37:53.995Z</time></trkpt><trkpt lat="41.8148083" lon="2.2754583"><ele>769.0</ele><time>2026-04-11T09:37:54.995Z</time></trkpt><trkpt lat="41.8147567" lon="2.2755567"><ele>768.5</ele><time>2026-04-11T09:37:55.995Z</time></trkpt><trkpt lat="41.8147017" lon="2.27564"><ele>768.0</ele><time>2026-04-11T09:37:56.995Z</time></trkpt><trkpt lat="41.814665" lon="2.2757433"><ele>767.5</ele><time>2026-04-11T09:37:57.995Z</time></trkpt><trkpt lat="41.8146283" lon="2.2758433"><ele>767.0</ele><time>2026-04-11T09:37:58.995Z</time></trkpt><trkpt lat="41.8145817" lon="2.275975"><ele>766.8</ele><time>2026-04-11T09:37:59.995Z</time></trkpt><trkpt lat="41.8145433" lon="2.276105"><ele>766.6</ele><time>2026-04-11T09:38:00.995Z</time></trkpt><trkpt lat="41.8145217" lon="2.2762317"><ele>766.4</ele><time>2026-04-11T09:38:01.995Z</time></trkpt><trkpt lat="41.8145033" lon="2.2763617"><ele>766.1999999999999</ele><time>2026-04-11T09:38:02.995Z</time></trkpt><trkpt lat="41.8145083" lon="2.27649"><ele>766.0</ele><time>2026-04-11T09:38:03.995Z</time></trkpt><trkpt lat="41.8145283" lon="2.276595"><ele>765.3333333333334</ele><time>2026-04-11T09:38:04.996Z</time></trkpt><trkpt lat="41.8145633" lon="2.2766817"><ele>764.6666666666667</ele><time>2026-04-11T09:38:05.995Z</time></trkpt><trkpt lat="41.8146083" lon="2.2767733"><ele>764.0</ele><time>2026-04-11T09:38:06.995Z</time></trkpt><trkpt lat="41.8146617" lon="2.27686"><ele>763.3333333333334</ele><time>2026-04-11T09:38:07.995Z</time></trkpt><trkpt lat="41.8147167" lon="2.2769483"><ele>762.6666666666666</ele><time>2026-04-11T09:38:08.995Z</time></trkpt><trkpt lat="41.8147567" lon="2.27704"><ele>762.0</ele><time>2026-04-11T09:38:09.995Z</time></trkpt><trkpt lat="41.8147967" lon="2.2771383"><ele>762.0</ele><time>2026-04-11T09:38:10.996Z</time></trkpt><trkpt lat="41.814825" lon="2.277235"><ele>762.0</ele><time>2026-04-11T09:38:11.995Z</time></trkpt><trkpt lat="41.8148483" lon="2.2773283"><ele>762.0</ele><time>2026-04-11T09:38:12.995Z</time></trkpt><trkpt lat="41.8148567" lon="2.277455"><ele>762.0</ele><time>2026-04-11T09:38:13.995Z</time></trkpt><trkpt lat="41.81485" lon="2.2775783"><ele>762.0</ele><time>2026-04-11T09:38:14.995Z</time></trkpt><trkpt lat="41.8148267" lon="2.2776883"><ele>762.0</ele><time>2026-04-11T09:38:15.995Z</time></trkpt><trkpt lat="41.8148" lon="2.2777983"><ele>760.8333333333334</ele><time>2026-04-11T09:38:16.995Z</time></trkpt><trkpt lat="41.8147667" lon="2.27792"><ele>759.6666666666666</ele><time>2026-04-11T09:38:17.995Z</time></trkpt><trkpt lat="41.8147433" lon="2.27803"><ele>758.5</ele><time>2026-04-11T09:38:18.995Z</time></trkpt><trkpt lat="41.8147217" lon="2.2781417"><ele>757.3333333333333</ele><time>2026-04-11T09:38:19.995Z</time></trkpt><trkpt lat="41.8146817" lon="2.2782483"><ele>756.1666666666666</ele><time>2026-04-11T09:38:20.995Z</time></trkpt><trkpt lat="41.8146333" lon="2.2783367"><ele>755.0</ele><time>2026-04-11T09:38:21.995Z</time></trkpt><trkpt lat="41.8145783" lon="2.2784"><ele>754.2</ele><time>2026-04-11T09:38:22.995Z</time></trkpt><trkpt lat="41.814495" lon="2.27845"><ele>753.4</ele><time>2026-04-11T09:38:23.995Z</time></trkpt><trkpt lat="41.814395" lon="2.2784983"><ele>752.5999999999999</ele><time>2026-04-11T09:38:24.995Z</time></trkpt><trkpt lat="41.8143" lon="2.2785583"><ele>751.8</ele><time>2026-04-11T09:38:25.995Z</time></trkpt><trkpt lat="41.8142033" lon="2.27863"><ele>751.0</ele><time>2026-04-11T09:38:26.995Z</time></trkpt><trkpt lat="41.8141383" lon="2.2787367"><ele>750.5</ele><time>2026-04-11T09:38:27.995Z</time></trkpt><trkpt lat="41.8141067" lon="2.27884"><ele>750.0</ele><time>2026-04-11T09:38:28.996Z</time></trkpt><trkpt lat="41.8140817" lon="2.27896"><ele>749.5</ele><time>2026-04-11T09:38:29.995Z</time></trkpt><trkpt lat="41.8140717" lon="2.27908"><ele>749.0</ele><time>2026-04-11T09:38:30.995Z</time></trkpt><trkpt lat="41.8140633" lon="2.2791767"><ele>748.5</ele><time>2026-04-11T09:38:31.995Z</time></trkpt><trkpt lat="41.8140433" lon="2.27928"><ele>748.0</ele><time>2026-04-11T09:38:32.995Z</time></trkpt><trkpt lat="41.81399" lon="2.2793833"><ele>746.8</ele><time>2026-04-11T09:38:33.995Z</time></trkpt><trkpt lat="41.8139217" lon="2.279475"><ele>745.5999999999999</ele><time>2026-04-11T09:38:34.995Z</time></trkpt><trkpt lat="41.81384" lon="2.279525"><ele>744.4000000000001</ele><time>2026-04-11T09:38:35.995Z</time></trkpt><trkpt lat="41.8137583" lon="2.27957"><ele>743.2</ele><time>2026-04-11T09:38:36.995Z</time></trkpt><trkpt lat="41.813695" lon="2.2796033"><ele>742.0</ele><time>2026-04-11T09:38:37.995Z</time></trkpt><trkpt lat="41.8135833" lon="2.2797083"><ele>741.8333333333334</ele><time>2026-04-11T09:38:39.995Z</time></trkpt><trkpt lat="41.8135117" lon="2.2797717"><ele>741.6666666666667</ele><time>2026-04-11T09:38:40.995Z</time></trkpt><trkpt lat="41.8134683" lon="2.2798483"><ele>741.5</ele><time>2026-04-11T09:38:41.995Z</time></trkpt><trkpt lat="41.8134483" lon="2.279935"><ele>741.3333333333334</ele><time>2026-04-11T09:38:42.995Z</time></trkpt><trkpt lat="41.8133983" lon="2.2800783"><ele>741.1666666666666</ele><time>2026-04-11T09:38:44.995Z</time></trkpt><trkpt lat="41.8133233" lon="2.28015"><ele>741.0</ele><time>2026-04-11T09:38:46.995Z</time></trkpt><trkpt lat="41.8132367" lon="2.28011"><ele>740.0</ele><time>2026-04-11T09:38:48.995Z</time></trkpt><trkpt lat="41.8131683" lon="2.280015"><ele>739.0</ele><time>2026-04-11T09:38:49.995Z</time></trkpt><trkpt lat="41.81311" lon="2.2799183"><ele>738.0</ele><time>2026-04-11T09:38:50.995Z</time></trkpt><trkpt lat="41.8130483" lon="2.279825"><ele>737.0</ele><time>2026-04-11T09:38:51.995Z</time></trkpt><trkpt lat="41.8129983" lon="2.2797617"><ele>736.0</ele><time>2026-04-11T09:38:52.995Z</time></trkpt><trkpt lat="41.812905" lon="2.2797533"><ele>735.0</ele><time>2026-04-11T09:38:54.995Z</time></trkpt><trkpt lat="41.812835" lon="2.2798967"><ele>735.0</ele><time>2026-04-11T09:38:56.995Z</time></trkpt><trkpt lat="41.8127967" lon="2.2800017"><ele>735.0</ele><time>2026-04-11T09:38:57.995Z</time></trkpt><trkpt lat="41.8127633" lon="2.280135"><ele>735.0</ele><time>2026-04-11T09:38:58.995Z</time></trkpt><trkpt lat="41.81274" lon="2.2802717"><ele>735.0</ele><time>2026-04-11T09:38:59.995Z</time></trkpt><trkpt lat="41.8127167" lon="2.280425"><ele>735.0</ele><time>2026-04-11T09:39:00.995Z</time></trkpt><trkpt lat="41.81268" lon="2.2805733"><ele>738.6</ele><time>2026-04-11T09:39:01.995Z</time></trkpt><trkpt lat="41.8126417" lon="2.2807017"><ele>742.2</ele><time>2026-04-11T09:39:02.995Z</time></trkpt><trkpt lat="41.8126117" lon="2.2808067"><ele>745.8</ele><time>2026-04-11T09:39:03.995Z</time></trkpt><trkpt lat="41.812575" lon="2.2809233"><ele>749.4</ele><time>2026-04-11T09:39:04.995Z</time></trkpt><trkpt lat="41.8125583" lon="2.2810317"><ele>753.0</ele><time>2026-04-11T09:39:05.995Z</time></trkpt><trkpt lat="41.8125417" lon="2.2811633"><ele>753.0</ele><time>2026-04-11T09:39:06.995Z</time></trkpt><trkpt lat="41.8124983" lon="2.28131"><ele>753.0</ele><time>2026-04-11T09:39:07.995Z</time></trkpt><trkpt lat="41.8124683" lon="2.2814417"><ele>753.0</ele><time>2026-04-11T09:39:08.996Z</time></trkpt><trkpt lat="41.8124433" lon="2.2815833"><ele>753.0</ele><time>2026-04-11T09:39:09.995Z</time></trkpt><trkpt lat="41.812425" lon="2.28169"><ele>753.0</ele><time>2026-04-11T09:39:10.995Z</time></trkpt><trkpt lat="41.81239" lon="2.2818167"><ele>754.5999999999999</ele><time>2026-04-11T09:39:11.995Z</time></trkpt><trkpt lat="41.8123617" lon="2.281935"><ele>756.1999999999999</ele><time>2026-04-11T09:39:12.995Z</time></trkpt><trkpt lat="41.8123233" lon="2.2820617"><ele>757.8</ele><time>2026-04-11T09:39:13.995Z</time></trkpt><trkpt lat="41.8122983" lon="2.282175"><ele>759.4</ele><time>2026-04-11T09:39:14.995Z</time></trkpt><trkpt lat="41.8122617" lon="2.2823067"><ele>761.0</ele><time>2026-04-11T09:39:15.995Z</time></trkpt><trkpt lat="41.8122317" lon="2.2824217"><ele>762.3333333333333</ele><time>2026-04-11T09:39:16.995Z</time></trkpt><trkpt lat="41.8122" lon="2.2825333"><ele>763.6666666666666</ele><time>2026-04-11T09:39:17.995Z</time></trkpt><trkpt lat="41.8121867" lon="2.282645"><ele>765.0</ele><time>2026-04-11T09:39:18.995Z</time></trkpt><trkpt lat="41.8121733" lon="2.2827583"><ele>766.3333333333333</ele><time>2026-04-11T09:39:19.995Z</time></trkpt><trkpt lat="41.812175" lon="2.2828667"><ele>767.6666666666666</ele><time>2026-04-11T09:39:20.995Z</time></trkpt><trkpt lat="41.8121983" lon="2.2829633"><ele>769.0</ele><time>2026-04-11T09:39:21.995Z</time></trkpt><trkpt lat="41.8122183" lon="2.2830983"><ele>771.5</ele><time>2026-04-11T09:39:22.995Z</time></trkpt><trkpt lat="41.812245" lon="2.2832517"><ele>774.0</ele><time>2026-04-11T09:39:23.995Z</time></trkpt><trkpt lat="41.8122467" lon="2.283435"><ele>776.5</ele><time>2026-04-11T09:39:24.996Z</time></trkpt><trkpt lat="41.812255" lon="2.283605"><ele>779.0</ele><time>2026-04-11T09:39:25.995Z</time></trkpt><trkpt lat="41.8122533" lon="2.2837667"><ele>779.0</ele><time>2026-04-11T09:39:26.996Z</time></trkpt><trkpt lat="41.8122667" lon="2.28393"><ele>779.0</ele><time>2026-04-11T09:39:27.995Z</time></trkpt><trkpt lat="41.812275" lon="2.284095"><ele>779.0</ele><time>2026-04-11T09:39:28.995Z</time></trkpt><trkpt lat="41.81229" lon="2.284265"><ele>779.0</ele><time>2026-04-11T09:39:29.995Z</time></trkpt><trkpt lat="41.81231" lon="2.2844283"><ele>780.4000000000001</ele><time>2026-04-11T09:39:30.995Z</time></trkpt><trkpt lat="41.8123283" lon="2.2845767"><ele>781.8</ele><time>2026-04-11T09:39:31.995Z</time></trkpt><trkpt lat="41.8123517" lon="2.2846917"><ele>783.2</ele><time>2026-04-11T09:39:32.995Z</time></trkpt><trkpt lat="41.8124033" lon="2.2847983"><ele>784.5999999999999</ele><time>2026-04-11T09:39:33.995Z</time></trkpt><trkpt lat="41.81245" lon="2.2848717"><ele>786.0</ele><time>2026-04-11T09:39:34.995Z</time></trkpt><trkpt lat="41.8125183" lon="2.2849333"><ele>787.25</ele><time>2026-04-11T09:39:35.995Z</time></trkpt><trkpt lat="41.8126017" lon="2.285015"><ele>788.5</ele><time>2026-04-11T09:39:36.995Z</time></trkpt><trkpt lat="41.8126883" lon="2.28511"><ele>789.75</ele><time>2026-04-11T09:39:37.995Z</time></trkpt><trkpt lat="41.8127683" lon="2.2852333"><ele>791.0</ele><time>2026-04-11T09:39:38.995Z</time></trkpt><trkpt lat="41.8128367" lon="2.2853767"><ele>790.25</ele><time>2026-04-11T09:39:39.995Z</time></trkpt><trkpt lat="41.8129083" lon="2.2855383"><ele>789.5</ele><time>2026-04-11T09:39:40.995Z</time></trkpt><trkpt lat="41.8129833" lon="2.2857117"><ele>788.75</ele><time>2026-04-11T09:39:41.995Z</time></trkpt><trkpt lat="41.81304" lon="2.28591"><ele>788.0</ele><time>2026-04-11T09:39:42.995Z</time></trkpt><trkpt lat="41.813095" lon="2.2861017"><ele>788.0</ele><time>2026-04-11T09:39:43.995Z</time></trkpt><trkpt lat="41.813145" lon="2.2862867"><ele>788.0</ele><time>2026-04-11T09:39:44.995Z</time></trkpt><trkpt lat="41.8131933" lon="2.286445"><ele>788.0</ele><time>2026-04-11T09:39:45.996Z</time></trkpt><trkpt lat="41.813235" lon="2.2865817"><ele>788.0</ele><time>2026-04-11T09:39:46.995Z</time></trkpt><trkpt lat="41.8132783" lon="2.2867267"><ele>789.0</ele><time>2026-04-11T09:39:47.995Z</time></trkpt><trkpt lat="41.8133367" lon="2.28687"><ele>790.0</ele><time>2026-04-11T09:39:48.995Z</time></trkpt><trkpt lat="41.81339" lon="2.2869983"><ele>791.0</ele><time>2026-04-11T09:39:49.995Z</time></trkpt><trkpt lat="41.8134217" lon="2.2871533"><ele>792.0</ele><time>2026-04-11T09:39:50.995Z</time></trkpt><trkpt lat="41.813445" lon="2.2873167"><ele>792.25</ele><time>2026-04-11T09:39:51.995Z</time></trkpt><trkpt lat="41.8134583" lon="2.2875067"><ele>792.5</ele><time>2026-04-11T09:39:52.995Z</time></trkpt><trkpt lat="41.81347" lon="2.28771"><ele>792.75</ele><time>2026-04-11T09:39:53.995Z</time></trkpt><trkpt lat="41.8134717" lon="2.2879183"><ele>793.0</ele><time>2026-04-11T09:39:54.995Z</time></trkpt><trkpt lat="41.81347" lon="2.28809"><ele>792.75</ele><time>2026-04-11T09:39:55.995Z</time></trkpt><trkpt lat="41.8134567" lon="2.2882517"><ele>792.5</ele><time>2026-04-11T09:39:56.995Z</time></trkpt><trkpt lat="41.813465" lon="2.2884067"><ele>792.25</ele><time>2026-04-11T09:39:57.995Z</time></trkpt><trkpt lat="41.813485" lon="2.2885617"><ele>792.0</ele><time>2026-04-11T09:39:58.995Z</time></trkpt><trkpt lat="41.8135167" lon="2.2887467"><ele>792.0</ele><time>2026-04-11T09:39:59.995Z</time></trkpt><trkpt lat="41.8135517" lon="2.2889117"><ele>792.0</ele><time>2026-04-11T09:40:00.996Z</time></trkpt><trkpt lat="41.8135767" lon="2.2890333"><ele>792.0</ele><time>2026-04-11T09:40:01.995Z</time></trkpt><trkpt lat="41.8135783" lon="2.289165"><ele>792.0</ele><time>2026-04-11T09:40:02.995Z</time></trkpt><trkpt lat="41.8135767" lon="2.2893217"><ele>792.0</ele><time>2026-04-11T09:40:03.995Z</time></trkpt><trkpt lat="41.81356" lon="2.2895167"><ele>794.5</ele><time>2026-04-11T09:40:04.995Z</time></trkpt><trkpt lat="41.8135733" lon="2.2896917"><ele>797.0</ele><time>2026-04-11T09:40:05.995Z</time></trkpt><trkpt lat="41.8135617" lon="2.2898783"><ele>799.5</ele><time>2026-04-11T09:40:06.995Z</time></trkpt><trkpt lat="41.8135617" lon="2.29003"><ele>802.0</ele><time>2026-04-11T09:40:07.995Z</time></trkpt><trkpt lat="41.8135533" lon="2.2901583"><ele>803.8</ele><time>2026-04-11T09:40:08.995Z</time></trkpt><trkpt lat="41.8135367" lon="2.2902883"><ele>805.6</ele><time>2026-04-11T09:40:09.996Z</time></trkpt><trkpt lat="41.813505" lon="2.2903883"><ele>807.4</ele><time>2026-04-11T09:40:10.995Z</time></trkpt><trkpt lat="41.813455" lon="2.29048"><ele>809.1999999999999</ele><time>2026-04-11T09:40:11.995Z</time></trkpt><trkpt lat="41.813385" lon="2.2905683"><ele>811.0</ele><time>2026-04-11T09:40:12.995Z</time></trkpt><trkpt lat="41.8133183" lon="2.290685"><ele>814.75</ele><time>2026-04-11T09:40:13.995Z</time></trkpt><trkpt lat="41.8132633" lon="2.2908367"><ele>818.5</ele><time>2026-04-11T09:40:14.996Z</time></trkpt><trkpt lat="41.8132067" lon="2.2910067"><ele>822.25</ele><time>2026-04-11T09:40:15.995Z</time></trkpt><trkpt lat="41.8131433" lon="2.2911833"><ele>826.0</ele><time>2026-04-11T09:40:16.995Z</time></trkpt><trkpt lat="41.81307" lon="2.2913333"><ele>826.5</ele><time>2026-04-11T09:40:17.995Z</time></trkpt><trkpt lat="41.8129833" lon="2.2914833"><ele>827.0</ele><time>2026-04-11T09:40:18.995Z</time></trkpt><trkpt lat="41.8129083" lon="2.2916317"><ele>827.5</ele><time>2026-04-11T09:40:19.995Z</time></trkpt><trkpt lat="41.8128383" lon="2.2917667"><ele>828.0</ele><time>2026-04-11T09:40:20.995Z</time></trkpt><trkpt lat="41.8127717" lon="2.2919133"><ele>828.0</ele><time>2026-04-11T09:40:21.996Z</time></trkpt><trkpt lat="41.81271" lon="2.2920817"><ele>828.0</ele><time>2026-04-11T09:40:22.995Z</time></trkpt><trkpt lat="41.8126417" lon="2.29227"><ele>828.0</ele><time>2026-04-11T09:40:23.995Z</time></trkpt><trkpt lat="41.81259" lon="2.2924267"><ele>828.0</ele><time>2026-04-11T09:40:24.996Z</time></trkpt><trkpt lat="41.8125383" lon="2.2925833"><ele>831.25</ele><time>2026-04-11T09:40:25.995Z</time></trkpt><trkpt lat="41.81247" lon="2.2927317"><ele>834.5</ele><time>2026-04-11T09:40:26.995Z</time></trkpt><trkpt lat="41.8123817" lon="2.29287"><ele>837.75</ele><time>2026-04-11T09:40:27.995Z</time></trkpt><trkpt lat="41.8122983" lon="2.2929633"><ele>841.0</ele><time>2026-04-11T09:40:28.995Z</time></trkpt><trkpt lat="41.81221" lon="2.2930383"><ele>841.1999999999999</ele><time>2026-04-11T09:40:29.995Z</time></trkpt><trkpt lat="41.81211" lon="2.293095"><ele>841.4</ele><time>2026-04-11T09:40:30.995Z</time></trkpt><trkpt lat="41.812005" lon="2.2931733"><ele>841.6</ele><time>2026-04-11T09:40:31.995Z</time></trkpt><trkpt lat="41.8119233" lon="2.2932733"><ele>841.8</ele><time>2026-04-11T09:40:32.995Z</time></trkpt><trkpt lat="41.8118667" lon="2.293385"><ele>842.0</ele><time>2026-04-11T09:40:33.995Z</time></trkpt><trkpt lat="41.8118033" lon="2.29351"><ele>842.0</ele><time>2026-04-11T09:40:34.995Z</time></trkpt><trkpt lat="41.811745" lon="2.2935817"><ele>842.0</ele><time>2026-04-11T09:40:35.995Z</time></trkpt><trkpt lat="41.81167" lon="2.293645"><ele>842.0</ele><time>2026-04-11T09:40:36.995Z</time></trkpt><trkpt lat="41.81158" lon="2.2936917"><ele>842.0</ele><time>2026-04-11T09:40:37.995Z</time></trkpt><trkpt lat="41.8114583" lon="2.2937333"><ele>842.0</ele><time>2026-04-11T09:40:38.996Z</time></trkpt><trkpt lat="41.81133" lon="2.293775"><ele>842.0</ele><time>2026-04-11T09:40:39.995Z</time></trkpt><trkpt lat="41.811185" lon="2.2938017"><ele>842.0</ele><time>2026-04-11T09:40:40.995Z</time></trkpt><trkpt lat="41.8110317" lon="2.2937917"><ele>842.0</ele><time>2026-04-11T09:40:41.995Z</time></trkpt><trkpt lat="41.8108783" lon="2.2937917"><ele>840.5</ele><time>2026-04-11T09:40:42.995Z</time></trkpt><trkpt lat="41.81074" lon="2.2938317"><ele>839.0</ele><time>2026-04-11T09:40:43.995Z</time></trkpt><trkpt lat="41.810605" lon="2.2939083"><ele>837.5</ele><time>2026-04-11T09:40:44.995Z</time></trkpt><trkpt lat="41.8104683" lon="2.293995"><ele>836.0</ele><time>2026-04-11T09:40:45.996Z</time></trkpt><trkpt lat="41.8103333" lon="2.2940683"><ele>837.0</ele><time>2026-04-11T09:40:46.995Z</time></trkpt><trkpt lat="41.8102033" lon="2.29413"><ele>838.0</ele><time>2026-04-11T09:40:47.995Z</time></trkpt><trkpt lat="41.8100683" lon="2.2941933"><ele>839.0</ele><time>2026-04-11T09:40:48.995Z</time></trkpt><trkpt lat="41.8099383" lon="2.2942683"><ele>840.0</ele><time>2026-04-11T09:40:49.995Z</time></trkpt><trkpt lat="41.8098383" lon="2.2943567"><ele>840.0</ele><time>2026-04-11T09:40:50.995Z</time></trkpt><trkpt lat="41.8097583" lon="2.294425"><ele>840.0</ele><time>2026-04-11T09:40:51.995Z</time></trkpt><trkpt lat="41.809685" lon="2.2945117"><ele>840.0</ele><time>2026-04-11T09:40:52.995Z</time></trkpt><trkpt lat="41.8096133" lon="2.29459"><ele>840.0</ele><time>2026-04-11T09:40:53.995Z</time></trkpt><trkpt lat="41.8095517" lon="2.2947"><ele>840.0</ele><time>2026-04-11T09:40:54.995Z</time></trkpt><trkpt lat="41.809495" lon="2.2948"><ele>839.8</ele><time>2026-04-11T09:40:55.995Z</time></trkpt><trkpt lat="41.8094283" lon="2.294885"><ele>839.6</ele><time>2026-04-11T09:40:56.996Z</time></trkpt><trkpt lat="41.8093367" lon="2.2949617"><ele>839.4000000000001</ele><time>2026-04-11T09:40:57.995Z</time></trkpt><trkpt lat="41.809235" lon="2.2950233"><ele>839.2</ele><time>2026-04-11T09:40:58.995Z</time></trkpt><trkpt lat="41.8091433" lon="2.2950667"><ele>839.0</ele><time>2026-04-11T09:40:59.995Z</time></trkpt><trkpt lat="41.8090583" lon="2.2951183"><ele>839.0</ele><time>2026-04-11T09:41:00.995Z</time></trkpt><trkpt lat="41.8089933" lon="2.2951767"><ele>839.0</ele><time>2026-04-11T09:41:01.995Z</time></trkpt><trkpt lat="41.808905" lon="2.2952133"><ele>839.0</ele><time>2026-04-11T09:41:02.995Z</time></trkpt><trkpt lat="41.8088117" lon="2.2952533"><ele>839.0</ele><time>2026-04-11T09:41:03.995Z</time></trkpt><trkpt lat="41.808705" lon="2.2953"><ele>839.0</ele><time>2026-04-11T09:41:04.995Z</time></trkpt><trkpt lat="41.8085867" lon="2.29536"><ele>840.5</ele><time>2026-04-11T09:41:05.995Z</time></trkpt><trkpt lat="41.8084617" lon="2.2954217"><ele>842.0</ele><time>2026-04-11T09:41:06.995Z</time></trkpt><trkpt lat="41.808325" lon="2.2954683"><ele>843.5</ele><time>2026-04-11T09:41:07.995Z</time></trkpt><trkpt lat="41.8081783" lon="2.2955033"><ele>845.0</ele><time>2026-04-11T09:41:08.995Z</time></trkpt><trkpt lat="41.808035" lon="2.2955133"><ele>845.0</ele><time>2026-04-11T09:41:09.995Z</time></trkpt><trkpt lat="41.8078817" lon="2.295465"><ele>845.0</ele><time>2026-04-11T09:41:10.995Z</time></trkpt><trkpt lat="41.80775" lon="2.295415"><ele>845.0</ele><time>2026-04-11T09:41:11.995Z</time></trkpt><trkpt lat="41.8076283" lon="2.2953283"><ele>845.0</ele><time>2026-04-11T09:41:12.995Z</time></trkpt><trkpt lat="41.8075367" lon="2.2952183"><ele>845.25</ele><time>2026-04-11T09:41:13.995Z</time></trkpt><trkpt lat="41.8074867" lon="2.295045"><ele>845.5</ele><time>2026-04-11T09:41:14.995Z</time></trkpt><trkpt lat="41.8074067" lon="2.29491"><ele>845.75</ele><time>2026-04-11T09:41:15.995Z</time></trkpt><trkpt lat="41.8073317" lon="2.2947433"><ele>846.0</ele><time>2026-04-11T09:41:16.995Z</time></trkpt><trkpt lat="41.8072617" lon="2.29459"><ele>846.0</ele><time>2026-04-11T09:41:17.995Z</time></trkpt><trkpt lat="41.8071783" lon="2.2944383"><ele>846.0</ele><time>2026-04-11T09:41:18.995Z</time></trkpt><trkpt lat="41.8070983" lon="2.2942833"><ele>846.0</ele><time>2026-04-11T09:41:19.995Z</time></trkpt><trkpt lat="41.80702" lon="2.2941367"><ele>846.0</ele><time>2026-04-11T09:41:20.995Z</time></trkpt><trkpt lat="41.8069233" lon="2.294005"><ele>846.0</ele><time>2026-04-11T09:41:21.995Z</time></trkpt><trkpt lat="41.8068433" lon="2.293865"><ele>846.0</ele><time>2026-04-11T09:41:22.995Z</time></trkpt><trkpt lat="41.8067533" lon="2.2937333"><ele>846.0</ele><time>2026-04-11T09:41:23.996Z</time></trkpt><trkpt lat="41.8066717" lon="2.29362"><ele>846.0</ele><time>2026-04-11T09:41:24.995Z</time></trkpt><trkpt lat="41.8066083" lon="2.2935117"><ele>844.25</ele><time>2026-04-11T09:41:25.995Z</time></trkpt><trkpt lat="41.8065683" lon="2.2933867"><ele>842.5</ele><time>2026-04-11T09:41:26.995Z</time></trkpt><trkpt lat="41.806535" lon="2.293245"><ele>840.75</ele><time>2026-04-11T09:41:27.995Z</time></trkpt><trkpt lat="41.8064983" lon="2.2930933"><ele>839.0</ele><time>2026-04-11T09:41:28.995Z</time></trkpt><trkpt lat="41.80645" lon="2.29293"><ele>837.75</ele><time>2026-04-11T09:41:29.995Z</time></trkpt><trkpt lat="41.8063933" lon="2.2927683"><ele>836.5</ele><time>2026-04-11T09:41:30.995Z</time></trkpt><trkpt lat="41.80634" lon="2.2926067"><ele>835.25</ele><time>2026-04-11T09:41:31.995Z</time></trkpt><trkpt lat="41.8062967" lon="2.2924617"><ele>834.0</ele><time>2026-04-11T09:41:32.995Z</time></trkpt><trkpt lat="41.8062633" lon="2.29232"><ele>832.75</ele><time>2026-04-11T09:41:33.995Z</time></trkpt><trkpt lat="41.806245" lon="2.2921867"><ele>831.5</ele><time>2026-04-11T09:41:34.995Z</time></trkpt><trkpt lat="41.8062483" lon="2.2920333"><ele>830.25</ele><time>2026-04-11T09:41:35.995Z</time></trkpt><trkpt lat="41.8062683" lon="2.2918567"><ele>829.0</ele><time>2026-04-11T09:41:36.995Z</time></trkpt><trkpt lat="41.806295" lon="2.2916783"><ele>829.0</ele><time>2026-04-11T09:41:37.995Z</time></trkpt><trkpt lat="41.80633" lon="2.2915083"><ele>829.0</ele><time>2026-04-11T09:41:38.995Z</time></trkpt><trkpt lat="41.806365" lon="2.2913183"><ele>829.0</ele><time>2026-04-11T09:41:39.995Z</time></trkpt><trkpt lat="41.8063933" lon="2.29114"><ele>829.0</ele><time>2026-04-11T09:41:40.995Z</time></trkpt><trkpt lat="41.8064317" lon="2.2909767"><ele>829.0</ele><time>2026-04-11T09:41:41.995Z</time></trkpt><trkpt lat="41.8064617" lon="2.2908033"><ele>829.0</ele><time>2026-04-11T09:41:42.995Z</time></trkpt><trkpt lat="41.80649" lon="2.2906417"><ele>829.0</ele><time>2026-04-11T09:41:43.995Z</time></trkpt><trkpt lat="41.8065083" lon="2.29048"><ele>829.0</ele><time>2026-04-11T09:41:44.995Z</time></trkpt><trkpt lat="41.8065167" lon="2.2903367"><ele>829.0</ele><time>2026-04-11T09:41:45.995Z</time></trkpt><trkpt lat="41.8065" lon="2.2902133"><ele>829.0</ele><time>2026-04-11T09:41:46.995Z</time></trkpt><trkpt lat="41.806445" lon="2.290125"><ele>829.0</ele><time>2026-04-11T09:41:47.995Z</time></trkpt><trkpt lat="41.80636" lon="2.290085"><ele>829.0</ele><time>2026-04-11T09:41:48.996Z</time></trkpt><trkpt lat="41.806265" lon="2.29013"><ele>829.0</ele><time>2026-04-11T09:41:49.996Z</time></trkpt><trkpt lat="41.806165" lon="2.2901967"><ele>829.0</ele><time>2026-04-11T09:41:50.995Z</time></trkpt><trkpt lat="41.8060633" lon="2.2903033"><ele>829.0</ele><time>2026-04-11T09:41:51.995Z</time></trkpt><trkpt lat="41.805965" lon="2.290415"><ele>829.0</ele><time>2026-04-11T09:41:52.996Z</time></trkpt><trkpt lat="41.8058817" lon="2.2905233"><ele>829.0</ele><time>2026-04-11T09:41:53.995Z</time></trkpt><trkpt lat="41.80582" lon="2.2906167"><ele>830.6666666666666</ele><time>2026-04-11T09:41:54.996Z</time></trkpt><trkpt lat="41.8057517" lon="2.290695"><ele>832.3333333333333</ele><time>2026-04-11T09:41:55.995Z</time></trkpt><trkpt lat="41.80568" lon="2.2907483"><ele>834.0</ele><time>2026-04-11T09:41:56.996Z</time></trkpt><trkpt lat="41.8056" lon="2.2907867"><ele>835.6666666666667</ele><time>2026-04-11T09:41:57.995Z</time></trkpt><trkpt lat="41.8055183" lon="2.2907917"><ele>837.3333333333334</ele><time>2026-04-11T09:41:58.995Z</time></trkpt><trkpt lat="41.80545" lon="2.290785"><ele>839.0</ele><time>2026-04-11T09:41:59.996Z</time></trkpt><trkpt lat="41.8053717" lon="2.2906817"><ele>835.75</ele><time>2026-04-11T09:42:00.995Z</time></trkpt><trkpt lat="41.8053333" lon="2.290475"><ele>832.5</ele><time>2026-04-11T09:42:01.995Z</time></trkpt><trkpt lat="41.805295" lon="2.2903217"><ele>829.25</ele><time>2026-04-11T09:42:02.995Z</time></trkpt><trkpt lat="41.8052633" lon="2.2901433"><ele>826.0</ele><time>2026-04-11T09:42:03.996Z</time></trkpt><trkpt lat="41.8052217" lon="2.289965"><ele>828.25</ele><time>2026-04-11T09:42:04.995Z</time></trkpt><trkpt lat="41.80516" lon="2.2898083"><ele>830.5</ele><time>2026-04-11T09:42:05.995Z</time></trkpt><trkpt lat="41.8050883" lon="2.2896533"><ele>832.75</ele><time>2026-04-11T09:42:06.995Z</time></trkpt><trkpt lat="41.8050217" lon="2.289505"><ele>835.0</ele><time>2026-04-11T09:42:07.995Z</time></trkpt><trkpt lat="41.804975" lon="2.2893533"><ele>835.0</ele><time>2026-04-11T09:42:08.995Z</time></trkpt><trkpt lat="41.8049583" lon="2.289205"><ele>835.0</ele><time>2026-04-11T09:42:09.995Z</time></trkpt><trkpt lat="41.8049967" lon="2.2890467"><ele>835.0</ele><time>2026-04-11T09:42:10.995Z</time></trkpt><trkpt lat="41.8050583" lon="2.28891"><ele>835.0</ele><time>2026-04-11T09:42:11.995Z</time></trkpt><trkpt lat="41.805105" lon="2.2887633"><ele>834.6</ele><time>2026-04-11T09:42:12.996Z</time></trkpt><trkpt lat="41.8051233" lon="2.288625"><ele>834.2</ele><time>2026-04-11T09:42:13.996Z</time></trkpt><trkpt lat="41.805115" lon="2.2884917"><ele>833.8</ele><time>2026-04-11T09:42:14.995Z</time></trkpt><trkpt lat="41.8050617" lon="2.2883833"><ele>833.4</ele><time>2026-04-11T09:42:15.995Z</time></trkpt><trkpt lat="41.80499" lon="2.2882733"><ele>833.0</ele><time>2026-04-11T09:42:16.996Z</time></trkpt><trkpt lat="41.8049067" lon="2.2881533"><ele>831.0</ele><time>2026-04-11T09:42:17.995Z</time></trkpt><trkpt lat="41.804835" lon="2.28802"><ele>829.0</ele><time>2026-04-11T09:42:18.995Z</time></trkpt><trkpt lat="41.804785" lon="2.287885"><ele>827.0</ele><time>2026-04-11T09:42:19.995Z</time></trkpt><trkpt lat="41.8047483" lon="2.287755"><ele>825.0</ele><time>2026-04-11T09:42:20.995Z</time></trkpt><trkpt lat="41.8047317" lon="2.2875917"><ele>825.0</ele><time>2026-04-11T09:42:21.995Z</time></trkpt><trkpt lat="41.804735" lon="2.28742"><ele>825.0</ele><time>2026-04-11T09:42:22.995Z</time></trkpt><trkpt lat="41.8047383" lon="2.2872617"><ele>825.0</ele><time>2026-04-11T09:42:23.995Z</time></trkpt><trkpt lat="41.8047617" lon="2.2870883"><ele>825.0</ele><time>2026-04-11T09:42:24.995Z</time></trkpt><trkpt lat="41.8047883" lon="2.28693"><ele>824.6666666666666</ele><time>2026-04-11T09:42:25.995Z</time></trkpt><trkpt lat="41.804805" lon="2.2867983"><ele>824.3333333333333</ele><time>2026-04-11T09:42:26.995Z</time></trkpt><trkpt lat="41.804805" lon="2.2866583"><ele>824.0</ele><time>2026-04-11T09:42:27.995Z</time></trkpt><trkpt lat="41.8047883" lon="2.2865467"><ele>823.6666666666666</ele><time>2026-04-11T09:42:28.995Z</time></trkpt><trkpt lat="41.8047483" lon="2.2864683"><ele>823.3333333333333</ele><time>2026-04-11T09:42:29.995Z</time></trkpt><trkpt lat="41.804685" lon="2.2864133"><ele>823.0</ele><time>2026-04-11T09:42:30.995Z</time></trkpt><trkpt lat="41.8045967" lon="2.286365"><ele>823.75</ele><time>2026-04-11T09:42:31.995Z</time></trkpt><trkpt lat="41.804515" lon="2.2863633"><ele>824.5</ele><time>2026-04-11T09:42:32.995Z</time></trkpt><trkpt lat="41.8044083" lon="2.2863933"><ele>825.25</ele><time>2026-04-11T09:42:33.995Z</time></trkpt><trkpt lat="41.8042883" lon="2.2864533"><ele>826.0</ele><time>2026-04-11T09:42:34.995Z</time></trkpt><trkpt lat="41.804155" lon="2.2865533"><ele>826.0</ele><time>2026-04-11T09:42:35.995Z</time></trkpt><trkpt lat="41.8040383" lon="2.28666"><ele>826.0</ele><time>2026-04-11T09:42:36.996Z</time></trkpt><trkpt lat="41.8039133" lon="2.2867517"><ele>826.0</ele><time>2026-04-11T09:42:37.995Z</time></trkpt><trkpt lat="41.8037883" lon="2.286825"><ele>826.0</ele><time>2026-04-11T09:42:38.995Z</time></trkpt><trkpt lat="41.8036733" lon="2.2868817"><ele>826.0</ele><time>2026-04-11T09:42:39.995Z</time></trkpt><trkpt lat="41.8035533" lon="2.28691"><ele>826.0</ele><time>2026-04-11T09:42:40.995Z</time></trkpt><trkpt lat="41.8034267" lon="2.2869117"><ele>826.0</ele><time>2026-04-11T09:42:41.995Z</time></trkpt><trkpt lat="41.8033033" lon="2.2869"><ele>826.0</ele><time>2026-04-11T09:42:42.995Z</time></trkpt><trkpt lat="41.8031867" lon="2.286915"><ele>825.25</ele><time>2026-04-11T09:42:43.995Z</time></trkpt><trkpt lat="41.803065" lon="2.28695"><ele>824.5</ele><time>2026-04-11T09:42:44.995Z</time></trkpt><trkpt lat="41.8029433" lon="2.287"><ele>823.75</ele><time>2026-04-11T09:42:45.995Z</time></trkpt><trkpt lat="41.8028417" lon="2.2870617"><ele>823.0</ele><time>2026-04-11T09:42:46.995Z</time></trkpt><trkpt lat="41.8027417" lon="2.28713"><ele>824.4999999999999</ele><time>2026-04-11T09:42:47.995Z</time></trkpt><trkpt lat="41.8026517" lon="2.287155"><ele>826.0</ele><time>2026-04-11T09:42:48.995Z</time></trkpt><trkpt lat="41.802555" lon="2.28714"><ele>827.5</ele><time>2026-04-11T09:42:49.996Z</time></trkpt><trkpt lat="41.80247" lon="2.287095"><ele>829.0</ele><time>2026-04-11T09:42:50.994Z</time></trkpt><trkpt lat="41.80241" lon="2.2870267"><ele>830.4999999999999</ele><time>2026-04-11T09:42:51.994Z</time></trkpt><trkpt lat="41.8023667" lon="2.2869283"><ele>832.0</ele><time>2026-04-11T09:42:52.994Z</time></trkpt><trkpt lat="41.802415" lon="2.2867183"><ele>832.0</ele><time>2026-04-11T09:42:53.994Z</time></trkpt><trkpt lat="41.8024483" lon="2.2865517"><ele>832.0</ele><time>2026-04-11T09:42:54.994Z</time></trkpt><trkpt lat="41.8024983" lon="2.2863733"><ele>832.0</ele><time>2026-04-11T09:42:55.994Z</time></trkpt><trkpt lat="41.8025333" lon="2.2862167"><ele>832.0</ele><time>2026-04-11T09:42:56.995Z</time></trkpt><trkpt lat="41.80256" lon="2.2860483"><ele>832.6</ele><time>2026-04-11T09:42:57.994Z</time></trkpt><trkpt lat="41.8025533" lon="2.2858933"><ele>833.2</ele><time>2026-04-11T09:42:58.994Z</time></trkpt><trkpt lat="41.802525" lon="2.2857583"><ele>833.8</ele><time>2026-04-11T09:42:59.994Z</time></trkpt><trkpt lat="41.8024817" lon="2.28563"><ele>834.4</ele><time>2026-04-11T09:43:00.994Z</time></trkpt><trkpt lat="41.8024117" lon="2.2855067"><ele>835.0</ele><time>2026-04-11T09:43:01.994Z</time></trkpt><trkpt lat="41.8023233" lon="2.2854017"><ele>834.4</ele><time>2026-04-11T09:43:02.995Z</time></trkpt><trkpt lat="41.8022183" lon="2.2853383"><ele>833.8</ele><time>2026-04-11T09:43:03.994Z</time></trkpt><trkpt lat="41.802115" lon="2.285325"><ele>833.2</ele><time>2026-04-11T09:43:04.994Z</time></trkpt><trkpt lat="41.8020117" lon="2.2853483"><ele>832.6</ele><time>2026-04-11T09:43:05.994Z</time></trkpt><trkpt lat="41.8019" lon="2.285395"><ele>832.0</ele><time>2026-04-11T09:43:06.994Z</time></trkpt><trkpt lat="41.8017783" lon="2.2854433"><ele>832.0</ele><time>2026-04-11T09:43:07.994Z</time></trkpt><trkpt lat="41.80166" lon="2.28549"><ele>832.0</ele><time>2026-04-11T09:43:08.994Z</time></trkpt><trkpt lat="41.801545" lon="2.2855083"><ele>832.0</ele><time>2026-04-11T09:43:09.994Z</time></trkpt><trkpt lat="41.8014367" lon="2.2855"><ele>832.0</ele><time>2026-04-11T09:43:10.994Z</time></trkpt><trkpt lat="41.8013017" lon="2.2854467"><ele>832.0</ele><time>2026-04-11T09:43:11.995Z</time></trkpt><trkpt lat="41.8011817" lon="2.2853967"><ele>832.0</ele><time>2026-04-11T09:43:12.994Z</time></trkpt><trkpt lat="41.8010617" lon="2.28534"><ele>832.0</ele><time>2026-04-11T09:43:13.994Z</time></trkpt><trkpt lat="41.800935" lon="2.285295"><ele>832.0</ele><time>2026-04-11T09:43:14.994Z</time></trkpt><trkpt lat="41.800815" lon="2.2852783"><ele>833.4000000000001</ele><time>2026-04-11T09:43:15.994Z</time></trkpt><trkpt lat="41.800705" lon="2.2852767"><ele>834.8000000000001</ele><time>2026-04-11T09:43:16.994Z</time></trkpt><trkpt lat="41.8006083" lon="2.2853067"><ele>836.2</ele><time>2026-04-11T09:43:17.994Z</time></trkpt><trkpt lat="41.8005367" lon="2.2853767"><ele>837.6</ele><time>2026-04-11T09:43:18.994Z</time></trkpt><trkpt lat="41.8004867" lon="2.2854817"><ele>839.0</ele><time>2026-04-11T09:43:19.994Z</time></trkpt><trkpt lat="41.80045" lon="2.285615"><ele>839.0</ele><time>2026-04-11T09:43:20.994Z</time></trkpt><trkpt lat="41.800405" lon="2.2857633"><ele>839.0</ele><time>2026-04-11T09:43:21.994Z</time></trkpt><trkpt lat="41.8003417" lon="2.285895"><ele>839.0</ele><time>2026-04-11T09:43:22.994Z</time></trkpt><trkpt lat="41.8002633" lon="2.28599"><ele>839.0</ele><time>2026-04-11T09:43:23.994Z</time></trkpt><trkpt lat="41.8001617" lon="2.286045"><ele>839.0</ele><time>2026-04-11T09:43:24.994Z</time></trkpt><trkpt lat="41.8000417" lon="2.2860833"><ele>839.0</ele><time>2026-04-11T09:43:25.994Z</time></trkpt><trkpt lat="41.7999283" lon="2.2860983"><ele>839.0</ele><time>2026-04-11T09:43:26.994Z</time></trkpt><trkpt lat="41.7998083" lon="2.2861117"><ele>839.0</ele><time>2026-04-11T09:43:27.994Z</time></trkpt><trkpt lat="41.7996817" lon="2.2861117"><ele>839.0</ele><time>2026-04-11T09:43:28.994Z</time></trkpt><trkpt lat="41.799565" lon="2.2861233"><ele>839.0</ele><time>2026-04-11T09:43:29.994Z</time></trkpt><trkpt lat="41.79946" lon="2.2861067"><ele>839.0</ele><time>2026-04-11T09:43:30.994Z</time></trkpt><trkpt lat="41.7993483" lon="2.2861283"><ele>839.0</ele><time>2026-04-11T09:43:31.994Z</time></trkpt><trkpt lat="41.7992467" lon="2.2861317"><ele>839.0</ele><time>2026-04-11T09:43:32.994Z</time></trkpt><trkpt lat="41.7991517" lon="2.2861867"><ele>838.8000000000001</ele><time>2026-04-11T09:43:33.994Z</time></trkpt><trkpt lat="41.7990583" lon="2.28624"><ele>838.6</ele><time>2026-04-11T09:43:34.994Z</time></trkpt><trkpt lat="41.7989717" lon="2.2863167"><ele>838.4</ele><time>2026-04-11T09:43:35.994Z</time></trkpt><trkpt lat="41.7988967" lon="2.2864067"><ele>838.2</ele><time>2026-04-11T09:43:36.995Z</time></trkpt><trkpt lat="41.7988217" lon="2.2864917"><ele>838.0</ele><time>2026-04-11T09:43:37.994Z</time></trkpt><trkpt lat="41.79875" lon="2.2865633"><ele>836.8</ele><time>2026-04-11T09:43:38.994Z</time></trkpt><trkpt lat="41.7986783" lon="2.28661"><ele>835.5999999999999</ele><time>2026-04-11T09:43:39.994Z</time></trkpt><trkpt lat="41.7985483" lon="2.2866067"><ele>834.4000000000001</ele><time>2026-04-11T09:43:41.994Z</time></trkpt><trkpt lat="41.7984933" lon="2.2865633"><ele>833.2</ele><time>2026-04-11T09:43:42.994Z</time></trkpt><trkpt lat="41.7983833" lon="2.2864983"><ele>832.0</ele><time>2026-04-11T09:43:44.994Z</time></trkpt><trkpt lat="41.7982667" lon="2.2864083"><ele>832.0</ele><time>2026-04-11T09:43:46.994Z</time></trkpt><trkpt lat="41.7982033" lon="2.286325"><ele>832.0</ele><time>2026-04-11T09:43:47.995Z</time></trkpt><trkpt lat="41.7981267" lon="2.28623"><ele>832.0</ele><time>2026-04-11T09:43:48.994Z</time></trkpt><trkpt lat="41.7980567" lon="2.2861133"><ele>832.0</ele><time>2026-04-11T09:43:49.994Z</time></trkpt><trkpt lat="41.797995" lon="2.28598"><ele>832.0</ele><time>2026-04-11T09:43:50.994Z</time></trkpt><trkpt lat="41.797925" lon="2.28584"><ele>832.0</ele><time>2026-04-11T09:43:51.994Z</time></trkpt><trkpt lat="41.797855" lon="2.2856817"><ele>832.0</ele><time>2026-04-11T09:43:52.995Z</time></trkpt><trkpt lat="41.7977783" lon="2.2855217"><ele>832.0</ele><time>2026-04-11T09:43:53.994Z</time></trkpt><trkpt lat="41.797705" lon="2.2853533"><ele>832.0</ele><time>2026-04-11T09:43:54.994Z</time></trkpt><trkpt lat="41.7976383" lon="2.2851933"><ele>834.75</ele><time>2026-04-11T09:43:55.994Z</time></trkpt><trkpt lat="41.7975783" lon="2.2850267"><ele>837.5</ele><time>2026-04-11T09:43:56.994Z</time></trkpt><trkpt lat="41.7975283" lon="2.2848533"><ele>840.25</ele><time>2026-04-11T09:43:57.994Z</time></trkpt><trkpt lat="41.7974967" lon="2.2846733"><ele>843.0</ele><time>2026-04-11T09:43:58.994Z</time></trkpt><trkpt lat="41.7974667" lon="2.2844867"><ele>843.0</ele><time>2026-04-11T09:43:59.994Z</time></trkpt><trkpt lat="41.7974317" lon="2.2842967"><ele>843.0</ele><time>2026-04-11T09:44:00.994Z</time></trkpt><trkpt lat="41.7973817" lon="2.2841333"><ele>843.0</ele><time>2026-04-11T09:44:01.994Z</time></trkpt><trkpt lat="41.7973233" lon="2.2839983"><ele>843.0</ele><time>2026-04-11T09:44:02.994Z</time></trkpt><trkpt lat="41.7972717" lon="2.28388"><ele>842.8</ele><time>2026-04-11T09:44:03.994Z</time></trkpt><trkpt lat="41.7972267" lon="2.2837967"><ele>842.5999999999999</ele><time>2026-04-11T09:44:04.994Z</time></trkpt><trkpt lat="41.79715" lon="2.2837367"><ele>842.4000000000001</ele><time>2026-04-11T09:44:05.994Z</time></trkpt><trkpt lat="41.7970517" lon="2.283705"><ele>842.2</ele><time>2026-04-11T09:44:06.994Z</time></trkpt><trkpt lat="41.7969383" lon="2.2837017"><ele>842.0</ele><time>2026-04-11T09:44:07.994Z</time></trkpt><trkpt lat="41.7968217" lon="2.28372"><ele>842.8</ele><time>2026-04-11T09:44:08.994Z</time></trkpt><trkpt lat="41.7967083" lon="2.283745"><ele>843.6</ele><time>2026-04-11T09:44:09.994Z</time></trkpt><trkpt lat="41.7966017" lon="2.2837817"><ele>844.4</ele><time>2026-04-11T09:44:10.994Z</time></trkpt><trkpt lat="41.7964967" lon="2.28381"><ele>845.1999999999999</ele><time>2026-04-11T09:44:11.994Z</time></trkpt><trkpt lat="41.7963867" lon="2.2838417"><ele>846.0</ele><time>2026-04-11T09:44:12.994Z</time></trkpt><trkpt lat="41.7962533" lon="2.28384"><ele>846.0</ele><time>2026-04-11T09:44:13.994Z</time></trkpt><trkpt lat="41.7961183" lon="2.2838583"><ele>846.0</ele><time>2026-04-11T09:44:14.994Z</time></trkpt><trkpt lat="41.7959817" lon="2.2838717"><ele>846.0</ele><time>2026-04-11T09:44:15.994Z</time></trkpt><trkpt lat="41.7958483" lon="2.2838833"><ele>846.0</ele><time>2026-04-11T09:44:16.994Z</time></trkpt><trkpt lat="41.7957167" lon="2.2838967"><ele>845.5999999999999</ele><time>2026-04-11T09:44:17.994Z</time></trkpt><trkpt lat="41.7955967" lon="2.28389"><ele>845.2</ele><time>2026-04-11T09:44:18.994Z</time></trkpt><trkpt lat="41.7954867" lon="2.2838717"><ele>844.8</ele><time>2026-04-11T09:44:19.994Z</time></trkpt><trkpt lat="41.79539" lon="2.283835"><ele>844.4000000000001</ele><time>2026-04-11T09:44:20.994Z</time></trkpt><trkpt lat="41.7952933" lon="2.283775"><ele>844.0</ele><time>2026-04-11T09:44:21.994Z</time></trkpt><trkpt lat="41.7952033" lon="2.2837117"><ele>843.4000000000001</ele><time>2026-04-11T09:44:22.994Z</time></trkpt><trkpt lat="41.79511" lon="2.283635"><ele>842.8</ele><time>2026-04-11T09:44:23.994Z</time></trkpt><trkpt lat="41.795025" lon="2.283545"><ele>842.2</ele><time>2026-04-11T09:44:24.995Z</time></trkpt><trkpt lat="41.79496" lon="2.2834383"><ele>841.5999999999999</ele><time>2026-04-11T09:44:25.994Z</time></trkpt><trkpt lat="41.7949083" lon="2.2833283"><ele>841.0</ele><time>2026-04-11T09:44:26.994Z</time></trkpt><trkpt lat="41.79487" lon="2.2831933"><ele>841.4</ele><time>2026-04-11T09:44:27.994Z</time></trkpt><trkpt lat="41.7948533" lon="2.2830517"><ele>841.8</ele><time>2026-04-11T09:44:28.994Z</time></trkpt><trkpt lat="41.7948467" lon="2.2828983"><ele>842.1999999999999</ele><time>2026-04-11T09:44:29.994Z</time></trkpt><trkpt lat="41.7948417" lon="2.28276"><ele>842.5999999999999</ele><time>2026-04-11T09:44:30.994Z</time></trkpt><trkpt lat="41.7948483" lon="2.2826117"><ele>843.0</ele><time>2026-04-11T09:44:31.994Z</time></trkpt><trkpt lat="41.7948683" lon="2.2825033"><ele>843.0</ele><time>2026-04-11T09:44:32.994Z</time></trkpt><trkpt lat="41.7948833" lon="2.2824017"><ele>843.0</ele><time>2026-04-11T09:44:33.995Z</time></trkpt><trkpt lat="41.794885" lon="2.282305"><ele>843.0</ele><time>2026-04-11T09:44:34.994Z</time></trkpt><trkpt lat="41.794865" lon="2.2821967"><ele>843.0</ele><time>2026-04-11T09:44:35.995Z</time></trkpt><trkpt lat="41.7948383" lon="2.2821"><ele>843.0</ele><time>2026-04-11T09:44:36.994Z</time></trkpt><trkpt lat="41.7947933" lon="2.282005"><ele>843.0</ele><time>2026-04-11T09:44:37.994Z</time></trkpt><trkpt lat="41.7947183" lon="2.281905"><ele>843.25</ele><time>2026-04-11T09:44:38.994Z</time></trkpt><trkpt lat="41.7946117" lon="2.2818283"><ele>843.5</ele><time>2026-04-11T09:44:39.994Z</time></trkpt><trkpt lat="41.794495" lon="2.2817583"><ele>843.75</ele><time>2026-04-11T09:44:40.994Z</time></trkpt><trkpt lat="41.7943783" lon="2.2816933"><ele>844.0</ele><time>2026-04-11T09:44:41.994Z</time></trkpt><trkpt lat="41.7942683" lon="2.2816333"><ele>843.5</ele><time>2026-04-11T09:44:42.994Z</time></trkpt><trkpt lat="41.7941467" lon="2.2815617"><ele>843.0</ele><time>2026-04-11T09:44:43.994Z</time></trkpt><trkpt lat="41.794025" lon="2.2815083"><ele>842.5</ele><time>2026-04-11T09:44:44.994Z</time></trkpt><trkpt lat="41.7938983" lon="2.2814433"><ele>842.0</ele><time>2026-04-11T09:44:45.994Z</time></trkpt><trkpt lat="41.793765" lon="2.2813767"><ele>842.0</ele><time>2026-04-11T09:44:46.994Z</time></trkpt><trkpt lat="41.7936267" lon="2.2813067"><ele>842.0</ele><time>2026-04-11T09:44:47.994Z</time></trkpt><trkpt lat="41.7934833" lon="2.28123"><ele>842.0</ele><time>2026-04-11T09:44:48.994Z</time></trkpt><trkpt lat="41.7933417" lon="2.2811683"><ele>842.5</ele><time>2026-04-11T09:44:49.994Z</time></trkpt><trkpt lat="41.7932033" lon="2.28112"><ele>843.0</ele><time>2026-04-11T09:44:50.994Z</time></trkpt><trkpt lat="41.7930583" lon="2.28108"><ele>843.5</ele><time>2026-04-11T09:44:51.994Z</time></trkpt><trkpt lat="41.7929183" lon="2.281055"><ele>844.0</ele><time>2026-04-11T09:44:52.994Z</time></trkpt><trkpt lat="41.792785" lon="2.2810383"><ele>844.4000000000001</ele><time>2026-04-11T09:44:53.994Z</time></trkpt><trkpt lat="41.792665" lon="2.2810633"><ele>844.8</ele><time>2026-04-11T09:44:54.994Z</time></trkpt><trkpt lat="41.7925583" lon="2.2810717"><ele>845.2</ele><time>2026-04-11T09:44:55.994Z</time></trkpt><trkpt lat="41.7924617" lon="2.281065"><ele>845.5999999999999</ele><time>2026-04-11T09:44:56.994Z</time></trkpt><trkpt lat="41.792365" lon="2.2810633"><ele>846.0</ele><time>2026-04-11T09:44:57.994Z</time></trkpt><trkpt lat="41.7922733" lon="2.28106"><ele>846.0</ele><time>2026-04-11T09:44:58.994Z</time></trkpt><trkpt lat="41.7921867" lon="2.281055"><ele>846.0</ele><time>2026-04-11T09:44:59.994Z</time></trkpt><trkpt lat="41.7920867" lon="2.2810483"><ele>846.0</ele><time>2026-04-11T09:45:00.994Z</time></trkpt><trkpt lat="41.7919883" lon="2.2810283"><ele>846.0</ele><time>2026-04-11T09:45:01.994Z</time></trkpt><trkpt lat="41.791885" lon="2.2809917"><ele>846.0</ele><time>2026-04-11T09:45:02.994Z</time></trkpt><trkpt lat="41.791775" lon="2.280955"><ele>846.1999999999999</ele><time>2026-04-11T09:45:03.994Z</time></trkpt><trkpt lat="41.7916767" lon="2.2809117"><ele>846.4</ele><time>2026-04-11T09:45:04.994Z</time></trkpt><trkpt lat="41.7915817" lon="2.2808433"><ele>846.6</ele><time>2026-04-11T09:45:05.994Z</time></trkpt><trkpt lat="41.7914983" lon="2.280745"><ele>846.8</ele><time>2026-04-11T09:45:06.994Z</time></trkpt><trkpt lat="41.7914183" lon="2.280615"><ele>847.0</ele><time>2026-04-11T09:45:07.994Z</time></trkpt><trkpt lat="41.791335" lon="2.2804767"><ele>846.0</ele><time>2026-04-11T09:45:08.994Z</time></trkpt><trkpt lat="41.791245" lon="2.2803833"><ele>845.0</ele><time>2026-04-11T09:45:09.994Z</time></trkpt><trkpt lat="41.7911383" lon="2.28032"><ele>844.0</ele><time>2026-04-11T09:45:10.995Z</time></trkpt><trkpt lat="41.7910283" lon="2.2802683"><ele>843.0</ele><time>2026-04-11T09:45:11.994Z</time></trkpt><trkpt lat="41.7909033" lon="2.280225"><ele>843.0</ele><time>2026-04-11T09:45:12.994Z</time></trkpt><trkpt lat="41.7907833" lon="2.2801783"><ele>843.0</ele><time>2026-04-11T09:45:13.994Z</time></trkpt><trkpt lat="41.79068" lon="2.2801167"><ele>843.0</ele><time>2026-04-11T09:45:14.994Z</time></trkpt><trkpt lat="41.7906033" lon="2.2800183"><ele>843.0</ele><time>2026-04-11T09:45:15.994Z</time></trkpt><trkpt lat="41.7905417" lon="2.2798967"><ele>843.0</ele><time>2026-04-11T09:45:16.994Z</time></trkpt><trkpt lat="41.79047" lon="2.279775"><ele>843.0</ele><time>2026-04-11T09:45:17.994Z</time></trkpt><trkpt lat="41.790415" lon="2.2796467"><ele>843.0</ele><time>2026-04-11T09:45:18.994Z</time></trkpt><trkpt lat="41.7903617" lon="2.27952"><ele>843.0</ele><time>2026-04-11T09:45:19.995Z</time></trkpt><trkpt lat="41.7903417" lon="2.279405"><ele>843.0</ele><time>2026-04-11T09:45:20.994Z</time></trkpt><trkpt lat="41.7903533" lon="2.279295"><ele>842.0</ele><time>2026-04-11T09:45:21.994Z</time></trkpt><trkpt lat="41.7903867" lon="2.2791467"><ele>841.0</ele><time>2026-04-11T09:45:22.994Z</time></trkpt><trkpt lat="41.7904183" lon="2.279"><ele>840.0</ele><time>2026-04-11T09:45:23.994Z</time></trkpt><trkpt lat="41.7904167" lon="2.2788567"><ele>839.0</ele><time>2026-04-11T09:45:24.994Z</time></trkpt><trkpt lat="41.7903917" lon="2.2787383"><ele>838.0</ele><time>2026-04-11T09:45:25.994Z</time></trkpt><trkpt lat="41.79033" lon="2.27864"><ele>838.2</ele><time>2026-04-11T09:45:26.994Z</time></trkpt><trkpt lat="41.7902483" lon="2.2785683"><ele>838.4</ele><time>2026-04-11T09:45:27.994Z</time></trkpt><trkpt lat="41.79015" lon="2.2785"><ele>838.6</ele><time>2026-04-11T09:45:28.994Z</time></trkpt><trkpt lat="41.7900517" lon="2.27845"><ele>838.8000000000001</ele><time>2026-04-11T09:45:29.994Z</time></trkpt><trkpt lat="41.78996" lon="2.2784183"><ele>839.0</ele><time>2026-04-11T09:45:30.994Z</time></trkpt><trkpt lat="41.78987" lon="2.2784083"><ele>839.0</ele><time>2026-04-11T09:45:31.994Z</time></trkpt><trkpt lat="41.7897783" lon="2.2784083"><ele>839.0</ele><time>2026-04-11T09:45:32.994Z</time></trkpt><trkpt lat="41.7896817" lon="2.27842"><ele>839.0</ele><time>2026-04-11T09:45:33.994Z</time></trkpt><trkpt lat="41.7896033" lon="2.2783983"><ele>839.0</ele><time>2026-04-11T09:45:34.994Z</time></trkpt><trkpt lat="41.7894917" lon="2.2783167"><ele>839.0</ele><time>2026-04-11T09:45:36.995Z</time></trkpt><trkpt lat="41.789455" lon="2.2782033"><ele>838.8000000000001</ele><time>2026-04-11T09:45:37.994Z</time></trkpt><trkpt lat="41.7894233" lon="2.2780783"><ele>838.6</ele><time>2026-04-11T09:45:38.994Z</time></trkpt><trkpt lat="41.78939" lon="2.2779317"><ele>838.4</ele><time>2026-04-11T09:45:39.994Z</time></trkpt><trkpt lat="41.7893667" lon="2.277775"><ele>838.2</ele><time>2026-04-11T09:45:40.994Z</time></trkpt><trkpt lat="41.7893533" lon="2.27765"><ele>838.0</ele><time>2026-04-11T09:45:41.994Z</time></trkpt><trkpt lat="41.7893367" lon="2.27753"><ele>838.0</ele><time>2026-04-11T09:45:42.994Z</time></trkpt><trkpt lat="41.789315" lon="2.27741"><ele>838.0</ele><time>2026-04-11T09:45:43.994Z</time></trkpt><trkpt lat="41.7892767" lon="2.2772833"><ele>838.0</ele><time>2026-04-11T09:45:44.994Z</time></trkpt><trkpt lat="41.7892467" lon="2.2771467"><ele>838.0</ele><time>2026-04-11T09:45:45.994Z</time></trkpt><trkpt lat="41.789215" lon="2.2769967"><ele>838.0</ele><time>2026-04-11T09:45:46.994Z</time></trkpt><trkpt lat="41.7891833" lon="2.2768567"><ele>837.0</ele><time>2026-04-11T09:45:47.994Z</time></trkpt><trkpt lat="41.78915" lon="2.2767417"><ele>836.0</ele><time>2026-04-11T09:45:48.994Z</time></trkpt><trkpt lat="41.7891183" lon="2.27665"><ele>835.0</ele><time>2026-04-11T09:45:49.995Z</time></trkpt><trkpt lat="41.78903" lon="2.276535"><ele>834.0</ele><time>2026-04-11T09:45:51.994Z</time></trkpt><trkpt lat="41.7889117" lon="2.2765183"><ele>833.0</ele><time>2026-04-11T09:45:53.994Z</time></trkpt><trkpt lat="41.7888367" lon="2.2765383"><ele>833.0</ele><time>2026-04-11T09:45:54.994Z</time></trkpt><trkpt lat="41.7887467" lon="2.2765717"><ele>833.0</ele><time>2026-04-11T09:45:55.994Z</time></trkpt><trkpt lat="41.7886517" lon="2.27658"><ele>833.0</ele><time>2026-04-11T09:45:56.994Z</time></trkpt><trkpt lat="41.7885417" lon="2.27658"><ele>833.0</ele><time>2026-04-11T09:45:57.994Z</time></trkpt><trkpt lat="41.7884417" lon="2.2765883"><ele>833.0</ele><time>2026-04-11T09:45:58.994Z</time></trkpt><trkpt lat="41.7883867" lon="2.2765317"><ele>833.5999999999999</ele><time>2026-04-11T09:45:59.994Z</time></trkpt><trkpt lat="41.78835" lon="2.2764533"><ele>834.1999999999999</ele><time>2026-04-11T09:46:00.995Z</time></trkpt><trkpt lat="41.7883267" lon="2.2763367"><ele>834.8</ele><time>2026-04-11T09:46:01.994Z</time></trkpt><trkpt lat="41.7883033" lon="2.276195"><ele>835.4</ele><time>2026-04-11T09:46:02.994Z</time></trkpt><trkpt lat="41.7882783" lon="2.2760383"><ele>836.0</ele><time>2026-04-11T09:46:03.994Z</time></trkpt><trkpt lat="41.7882417" lon="2.2758817"><ele>836.0</ele><time>2026-04-11T09:46:04.994Z</time></trkpt><trkpt lat="41.7882083" lon="2.275755"><ele>836.0</ele><time>2026-04-11T09:46:05.994Z</time></trkpt><trkpt lat="41.7881633" lon="2.2756233"><ele>836.0</ele><time>2026-04-11T09:46:06.994Z</time></trkpt><trkpt lat="41.7881167" lon="2.2754983"><ele>836.0</ele><time>2026-04-11T09:46:07.994Z</time></trkpt><trkpt lat="41.788075" lon="2.27538"><ele>836.0</ele><time>2026-04-11T09:46:08.994Z</time></trkpt><trkpt lat="41.788035" lon="2.27528"><ele>835.4</ele><time>2026-04-11T09:46:09.994Z</time></trkpt><trkpt lat="41.7879783" lon="2.2751917"><ele>834.8</ele><time>2026-04-11T09:46:10.994Z</time></trkpt><trkpt lat="41.7879317" lon="2.275115"><ele>834.1999999999999</ele><time>2026-04-11T09:46:11.994Z</time></trkpt><trkpt lat="41.7878483" lon="2.2750383"><ele>833.5999999999999</ele><time>2026-04-11T09:46:13.995Z</time></trkpt><trkpt lat="41.7877383" lon="2.27506"><ele>833.0</ele><time>2026-04-11T09:46:16.994Z</time></trkpt><trkpt lat="41.7876183" lon="2.27514"><ele>833.0000000000001</ele><time>2026-04-11T09:46:18.994Z</time></trkpt><trkpt lat="41.7875617" lon="2.2752133"><ele>833.0</ele><time>2026-04-11T09:46:19.994Z</time></trkpt><trkpt lat="41.7875167" lon="2.27528"><ele>833.0</ele><time>2026-04-11T09:46:20.994Z</time></trkpt><trkpt lat="41.7874683" lon="2.275335"><ele>833.0</ele><time>2026-04-11T09:46:21.994Z</time></trkpt><trkpt lat="41.7873817" lon="2.2753983"><ele>833.0000000000001</ele><time>2026-04-11T09:46:22.994Z</time></trkpt><trkpt lat="41.7873083" lon="2.275425"><ele>833.0</ele><time>2026-04-11T09:46:23.994Z</time></trkpt><trkpt lat="41.7872383" lon="2.2754117"><ele>833.0000000000001</ele><time>2026-04-11T09:46:24.994Z</time></trkpt><trkpt lat="41.787125" lon="2.275385"><ele>833.0</ele><time>2026-04-11T09:46:25.994Z</time></trkpt><trkpt lat="41.78704" lon="2.2753383"><ele>833.0</ele><time>2026-04-11T09:46:26.994Z</time></trkpt><trkpt lat="41.786995" lon="2.2752517"><ele>833.0</ele><time>2026-04-11T09:46:27.994Z</time></trkpt><trkpt lat="41.7869517" lon="2.27518"><ele>833.0000000000001</ele><time>2026-04-11T09:46:28.994Z</time></trkpt><trkpt lat="41.7869" lon="2.27511"><ele>833.0</ele><time>2026-04-11T09:46:29.994Z</time></trkpt><trkpt lat="41.7868333" lon="2.27504"><ele>833.3333333333334</ele><time>2026-04-11T09:46:30.994Z</time></trkpt><trkpt lat="41.7867733" lon="2.2749717"><ele>833.6666666666667</ele><time>2026-04-11T09:46:31.994Z</time></trkpt><trkpt lat="41.7867083" lon="2.27488"><ele>834.0</ele><time>2026-04-11T09:46:32.994Z</time></trkpt><trkpt lat="41.78666" lon="2.2747717"><ele>834.3333333333333</ele><time>2026-04-11T09:46:33.994Z</time></trkpt><trkpt lat="41.78662" lon="2.2746683"><ele>834.6666666666666</ele><time>2026-04-11T09:46:34.994Z</time></trkpt><trkpt lat="41.78659" lon="2.2745633"><ele>835.0</ele><time>2026-04-11T09:46:35.994Z</time></trkpt><trkpt lat="41.7865967" lon="2.274465"><ele>833.3333333333333</ele><time>2026-04-11T09:46:36.994Z</time></trkpt><trkpt lat="41.7866033" lon="2.274355"><ele>831.6666666666666</ele><time>2026-04-11T09:46:37.994Z</time></trkpt><trkpt lat="41.7866017" lon="2.2742483"><ele>830.0</ele><time>2026-04-11T09:46:38.994Z</time></trkpt><trkpt lat="41.786595" lon="2.2741383"><ele>828.3333333333333</ele><time>2026-04-11T09:46:39.994Z</time></trkpt><trkpt lat="41.786585" lon="2.2740267"><ele>826.6666666666666</ele><time>2026-04-11T09:46:40.994Z</time></trkpt><trkpt lat="41.7865717" lon="2.2739283"><ele>825.0</ele><time>2026-04-11T09:46:41.994Z</time></trkpt><trkpt lat="41.786515" lon="2.273765"><ele>823.5</ele><time>2026-04-11T09:46:43.994Z</time></trkpt><trkpt lat="41.7864733" lon="2.2736783"><ele>822.0</ele><time>2026-04-11T09:46:44.994Z</time></trkpt><trkpt lat="41.7864167" lon="2.273605"><ele>820.5</ele><time>2026-04-11T09:46:45.994Z</time></trkpt><trkpt lat="41.7863483" lon="2.2735317"><ele>819.0</ele><time>2026-04-11T09:46:46.994Z</time></trkpt><trkpt lat="41.78629" lon="2.2734417"><ele>817.5</ele><time>2026-04-11T09:46:47.994Z</time></trkpt><trkpt lat="41.78624" lon="2.2733567"><ele>816.0</ele><time>2026-04-11T09:46:48.994Z</time></trkpt><trkpt lat="41.786205" lon="2.2732433"><ele>816.0</ele><time>2026-04-11T09:46:49.994Z</time></trkpt><trkpt lat="41.78618" lon="2.2731167"><ele>816.0</ele><time>2026-04-11T09:46:50.994Z</time></trkpt><trkpt lat="41.786145" lon="2.2730033"><ele>816.0</ele><time>2026-04-11T09:46:51.994Z</time></trkpt><trkpt lat="41.7861267" lon="2.2728917"><ele>816.0</ele><time>2026-04-11T09:46:52.994Z</time></trkpt><trkpt lat="41.7861033" lon="2.272755"><ele>816.0</ele><time>2026-04-11T09:46:53.994Z</time></trkpt><trkpt lat="41.7860733" lon="2.2726567"><ele>815.4</ele><time>2026-04-11T09:46:54.994Z</time></trkpt><trkpt lat="41.7860283" lon="2.2725567"><ele>814.8</ele><time>2026-04-11T09:46:55.994Z</time></trkpt><trkpt lat="41.7859817" lon="2.27245"><ele>814.1999999999999</ele><time>2026-04-11T09:46:56.994Z</time></trkpt><trkpt lat="41.7859367" lon="2.2723367"><ele>813.5999999999999</ele><time>2026-04-11T09:46:57.994Z</time></trkpt><trkpt lat="41.785895" lon="2.272205"><ele>813.0</ele><time>2026-04-11T09:46:58.994Z</time></trkpt><trkpt lat="41.7858483" lon="2.2720783"><ele>814.3333333333334</ele><time>2026-04-11T09:46:59.994Z</time></trkpt><trkpt lat="41.7857983" lon="2.2719583"><ele>815.6666666666667</ele><time>2026-04-11T09:47:00.994Z</time></trkpt><trkpt lat="41.78575" lon="2.271865"><ele>817.0</ele><time>2026-04-11T09:47:01.994Z</time></trkpt><trkpt lat="41.7857017" lon="2.2717867"><ele>818.3333333333334</ele><time>2026-04-11T09:47:02.994Z</time></trkpt><trkpt lat="41.7856583" lon="2.27171"><ele>819.6666666666667</ele><time>2026-04-11T09:47:03.994Z</time></trkpt><trkpt lat="41.7856067" lon="2.2716317"><ele>821.0</ele><time>2026-04-11T09:47:04.994Z</time></trkpt><trkpt lat="41.785545" lon="2.27158"><ele>821.0000000000001</ele><time>2026-04-11T09:47:05.994Z</time></trkpt><trkpt lat="41.7854983" lon="2.2715217"><ele>821.0</ele><time>2026-04-11T09:47:06.994Z</time></trkpt><trkpt lat="41.7854517" lon="2.2714517"><ele>821.0</ele><time>2026-04-11T09:47:07.995Z</time></trkpt><trkpt lat="41.7854067" lon="2.2713767"><ele>821.0</ele><time>2026-04-11T09:47:08.994Z</time></trkpt><trkpt lat="41.785345" lon="2.2712967"><ele>821.0000000000001</ele><time>2026-04-11T09:47:09.994Z</time></trkpt><trkpt lat="41.78528" lon="2.2712033"><ele>821.0</ele><time>2026-04-11T09:47:10.994Z</time></trkpt><trkpt lat="41.7852233" lon="2.2711467"><ele>819.8</ele><time>2026-04-11T09:47:11.994Z</time></trkpt><trkpt lat="41.785115" lon="2.2710917"><ele>818.5999999999999</ele><time>2026-04-11T09:47:13.994Z</time></trkpt><trkpt lat="41.7850033" lon="2.27112"><ele>817.4</ele><time>2026-04-11T09:47:15.994Z</time></trkpt><trkpt lat="41.784895" lon="2.2711633"><ele>816.2</ele><time>2026-04-11T09:47:17.994Z</time></trkpt><trkpt lat="41.784825" lon="2.2711567"><ele>815.0</ele><time>2026-04-11T09:47:18.994Z</time></trkpt><trkpt lat="41.7847583" lon="2.271155"><ele>815.0</ele><time>2026-04-11T09:47:19.994Z</time></trkpt><trkpt lat="41.78468" lon="2.2711617"><ele>815.0</ele><time>2026-04-11T09:47:20.994Z</time></trkpt><trkpt lat="41.7845967" lon="2.271175"><ele>815.0</ele><time>2026-04-11T09:47:21.994Z</time></trkpt><trkpt lat="41.7844733" lon="2.271205"><ele>815.0</ele><time>2026-04-11T09:47:22.994Z</time></trkpt><trkpt lat="41.7843417" lon="2.2712567"><ele>815.0</ele><time>2026-04-11T09:47:23.994Z</time></trkpt><trkpt lat="41.784215" lon="2.2713167"><ele>815.8</ele><time>2026-04-11T09:47:24.994Z</time></trkpt><trkpt lat="41.7841217" lon="2.2713633"><ele>816.6</ele><time>2026-04-11T09:47:25.994Z</time></trkpt><trkpt lat="41.7840217" lon="2.2713867"><ele>817.4000000000001</ele><time>2026-04-11T09:47:26.994Z</time></trkpt><trkpt lat="41.7839367" lon="2.2714133"><ele>818.2</ele><time>2026-04-11T09:47:27.994Z</time></trkpt><trkpt lat="41.7838717" lon="2.2714333"><ele>819.0</ele><time>2026-04-11T09:47:28.995Z</time></trkpt><trkpt lat="41.78375" lon="2.271495"><ele>818.1666666666666</ele><time>2026-04-11T09:47:30.995Z</time></trkpt><trkpt lat="41.783685" lon="2.271525"><ele>817.3333333333333</ele><time>2026-04-11T09:47:31.995Z</time></trkpt><trkpt lat="41.7835967" lon="2.27156"><ele>816.5</ele><time>2026-04-11T09:47:32.994Z</time></trkpt><trkpt lat="41.7835083" lon="2.2715783"><ele>815.6666666666666</ele><time>2026-04-11T09:47:33.994Z</time></trkpt><trkpt lat="41.7834117" lon="2.2715967"><ele>814.8333333333333</ele><time>2026-04-11T09:47:34.994Z</time></trkpt><trkpt lat="41.78332" lon="2.271615"><ele>814.0</ele><time>2026-04-11T09:47:35.994Z</time></trkpt><trkpt lat="41.783215" lon="2.2716067"><ele>814.0</ele><time>2026-04-11T09:47:36.994Z</time></trkpt><trkpt lat="41.7831" lon="2.2715933"><ele>814.0</ele><time>2026-04-11T09:47:37.994Z</time></trkpt><trkpt lat="41.7829833" lon="2.2715767"><ele>814.0</ele><time>2026-04-11T09:47:38.994Z</time></trkpt><trkpt lat="41.7828833" lon="2.27157"><ele>814.0</ele><time>2026-04-11T09:47:39.994Z</time></trkpt><trkpt lat="41.7828017" lon="2.2715517"><ele>814.0</ele><time>2026-04-11T09:47:40.994Z</time></trkpt><trkpt lat="41.782725" lon="2.2715467"><ele>815.3333333333333</ele><time>2026-04-11T09:47:41.994Z</time></trkpt><trkpt lat="41.78263" lon="2.2715667"><ele>816.6666666666666</ele><time>2026-04-11T09:47:42.994Z</time></trkpt><trkpt lat="41.7825333" lon="2.2715967"><ele>818.0</ele><time>2026-04-11T09:47:43.994Z</time></trkpt><trkpt lat="41.782455" lon="2.2716233"><ele>819.3333333333333</ele><time>2026-04-11T09:47:44.994Z</time></trkpt><trkpt lat="41.7823683" lon="2.2716233"><ele>820.6666666666666</ele><time>2026-04-11T09:47:45.994Z</time></trkpt><trkpt lat="41.7822917" lon="2.271605"><ele>822.0</ele><time>2026-04-11T09:47:46.994Z</time></trkpt><trkpt lat="41.782215" lon="2.271565"><ele>822.0</ele><time>2026-04-11T09:47:47.994Z</time></trkpt><trkpt lat="41.7821317" lon="2.2715067"><ele>822.0</ele><time>2026-04-11T09:47:48.994Z</time></trkpt><trkpt lat="41.782055" lon="2.2713933"><ele>822.0</ele><time>2026-04-11T09:47:49.994Z</time></trkpt><trkpt lat="41.78199" lon="2.2712817"><ele>822.0</ele><time>2026-04-11T09:47:50.994Z</time></trkpt><trkpt lat="41.7819417" lon="2.2711567"><ele>822.0</ele><time>2026-04-11T09:47:51.994Z</time></trkpt><trkpt lat="41.78191" lon="2.271035"><ele>821.8333333333334</ele><time>2026-04-11T09:47:52.994Z</time></trkpt><trkpt lat="41.7818833" lon="2.2708983"><ele>821.6666666666667</ele><time>2026-04-11T09:47:53.994Z</time></trkpt><trkpt lat="41.78186" lon="2.27079"><ele>821.5</ele><time>2026-04-11T09:47:54.994Z</time></trkpt><trkpt lat="41.7818267" lon="2.2706933"><ele>821.3333333333334</ele><time>2026-04-11T09:47:55.994Z</time></trkpt><trkpt lat="41.7817667" lon="2.2706067"><ele>821.1666666666667</ele><time>2026-04-11T09:47:56.994Z</time></trkpt><trkpt lat="41.781695" lon="2.2705417"><ele>821.0</ele><time>2026-04-11T09:47:57.994Z</time></trkpt><trkpt lat="41.78164" lon="2.2704967"><ele>822.0</ele><time>2026-04-11T09:47:58.994Z</time></trkpt><trkpt lat="41.781565" lon="2.2703817"><ele>823.0</ele><time>2026-04-11T09:48:00.995Z</time></trkpt><trkpt lat="41.781615" lon="2.2702583"><ele>824.0</ele><time>2026-04-11T09:48:02.994Z</time></trkpt><trkpt lat="41.781665" lon="2.2701817"><ele>825.0</ele><time>2026-04-11T09:48:03.994Z</time></trkpt><trkpt lat="41.781725" lon="2.2701"><ele>826.0</ele><time>2026-04-11T09:48:04.994Z</time></trkpt><trkpt lat="41.7817917" lon="2.27001"><ele>824.0</ele><time>2026-04-11T09:48:05.994Z</time></trkpt><trkpt lat="41.7818633" lon="2.26993"><ele>822.0</ele><time>2026-04-11T09:48:06.994Z</time></trkpt><trkpt lat="41.7819483" lon="2.2698817"><ele>820.0</ele><time>2026-04-11T09:48:07.994Z</time></trkpt><trkpt lat="41.7820267" lon="2.2698283"><ele>818.0</ele><time>2026-04-11T09:48:08.994Z</time></trkpt><trkpt lat="41.7821133" lon="2.2697683"><ele>816.0</ele><time>2026-04-11T09:48:09.995Z</time></trkpt><trkpt lat="41.78218" lon="2.2696933"><ele>815.0</ele><time>2026-04-11T09:48:10.994Z</time></trkpt><trkpt lat="41.7822317" lon="2.26961"><ele>814.0</ele><time>2026-04-11T09:48:11.994Z</time></trkpt><trkpt lat="41.7822867" lon="2.2695217"><ele>813.0</ele><time>2026-04-11T09:48:12.994Z</time></trkpt><trkpt lat="41.7823267" lon="2.2694267"><ele>812.0</ele><time>2026-04-11T09:48:13.994Z</time></trkpt><trkpt lat="41.7823633" lon="2.2693367"><ele>811.0</ele><time>2026-04-11T09:48:14.995Z</time></trkpt><trkpt lat="41.7823933" lon="2.2692467"><ele>810.0</ele><time>2026-04-11T09:48:15.994Z</time></trkpt><trkpt lat="41.7824033" lon="2.2691567"><ele>810.0</ele><time>2026-04-11T09:48:16.994Z</time></trkpt><trkpt lat="41.7823683" lon="2.2690283"><ele>810.0</ele><time>2026-04-11T09:48:18.994Z</time></trkpt><trkpt lat="41.782355" lon="2.2688967"><ele>810.0</ele><time>2026-04-11T09:48:20.994Z</time></trkpt><trkpt lat="41.78236" lon="2.2688083"><ele>810.0</ele><time>2026-04-11T09:48:21.994Z</time></trkpt><trkpt lat="41.7823567" lon="2.2687233"><ele>810.0</ele><time>2026-04-11T09:48:22.994Z</time></trkpt><trkpt lat="41.7823483" lon="2.2686333"><ele>810.0</ele><time>2026-04-11T09:48:23.994Z</time></trkpt><trkpt lat="41.7823367" lon="2.2685483"><ele>808.3333333333334</ele><time>2026-04-11T09:48:24.994Z</time></trkpt><trkpt lat="41.7823317" lon="2.268385"><ele>806.6666666666667</ele><time>2026-04-11T09:48:26.995Z</time></trkpt><trkpt lat="41.7823367" lon="2.2683"><ele>805.0</ele><time>2026-04-11T09:48:27.994Z</time></trkpt><trkpt lat="41.7823517" lon="2.2682067"><ele>803.3333333333334</ele><time>2026-04-11T09:48:28.994Z</time></trkpt><trkpt lat="41.78237" lon="2.2681167"><ele>801.6666666666667</ele><time>2026-04-11T09:48:29.994Z</time></trkpt><trkpt lat="41.7823933" lon="2.2680117"><ele>800.0</ele><time>2026-04-11T09:48:30.994Z</time></trkpt><trkpt lat="41.782415" lon="2.2679"><ele>798.8333333333334</ele><time>2026-04-11T09:48:31.994Z</time></trkpt><trkpt lat="41.7824283" lon="2.26779"><ele>797.6666666666667</ele><time>2026-04-11T09:48:32.994Z</time></trkpt><trkpt lat="41.7824383" lon="2.2676967"><ele>796.5</ele><time>2026-04-11T09:48:33.994Z</time></trkpt><trkpt lat="41.78244" lon="2.2675933"><ele>795.3333333333333</ele><time>2026-04-11T09:48:34.994Z</time></trkpt><trkpt lat="41.7824383" lon="2.2674933"><ele>794.1666666666666</ele><time>2026-04-11T09:48:35.994Z</time></trkpt><trkpt lat="41.7824433" lon="2.267395"><ele>793.0</ele><time>2026-04-11T09:48:36.994Z</time></trkpt><trkpt lat="41.78244" lon="2.2672933"><ele>791.3333333333333</ele><time>2026-04-11T09:48:37.994Z</time></trkpt><trkpt lat="41.782435" lon="2.2671833"><ele>789.6666666666666</ele><time>2026-04-11T09:48:38.994Z</time></trkpt><trkpt lat="41.7824367" lon="2.2670617"><ele>788.0</ele><time>2026-04-11T09:48:39.994Z</time></trkpt><trkpt lat="41.782425" lon="2.2669483"><ele>786.3333333333333</ele><time>2026-04-11T09:48:40.994Z</time></trkpt><trkpt lat="41.7824067" lon="2.2668333"><ele>784.6666666666666</ele><time>2026-04-11T09:48:41.994Z</time></trkpt><trkpt lat="41.7823833" lon="2.2667117"><ele>783.0</ele><time>2026-04-11T09:48:42.995Z</time></trkpt><trkpt lat="41.7823733" lon="2.2665717"><ele>781.8333333333334</ele><time>2026-04-11T09:48:43.994Z</time></trkpt><trkpt lat="41.7823617" lon="2.2664383"><ele>780.6666666666667</ele><time>2026-04-11T09:48:44.994Z</time></trkpt><trkpt lat="41.7823517" lon="2.266325"><ele>779.5</ele><time>2026-04-11T09:48:45.994Z</time></trkpt><trkpt lat="41.78235" lon="2.26623"><ele>778.3333333333334</ele><time>2026-04-11T09:48:46.995Z</time></trkpt><trkpt lat="41.7823533" lon="2.2661267"><ele>777.1666666666667</ele><time>2026-04-11T09:48:47.994Z</time></trkpt><trkpt lat="41.782375" lon="2.266025"><ele>776.0</ele><time>2026-04-11T09:48:48.994Z</time></trkpt><trkpt lat="41.7824167" lon="2.2659517"><ele>776.0</ele><time>2026-04-11T09:48:49.994Z</time></trkpt><trkpt lat="41.7824767" lon="2.2658783"><ele>776.0</ele><time>2026-04-11T09:48:50.994Z</time></trkpt><trkpt lat="41.7826017" lon="2.2658383"><ele>776.0</ele><time>2026-04-11T09:48:52.994Z</time></trkpt><trkpt lat="41.7826833" lon="2.2658233"><ele>776.0</ele><time>2026-04-11T09:48:53.994Z</time></trkpt><trkpt lat="41.78277" lon="2.2657817"><ele>776.0</ele><time>2026-04-11T09:48:54.994Z</time></trkpt><trkpt lat="41.7828567" lon="2.2657183"><ele>774.0</ele><time>2026-04-11T09:48:55.994Z</time></trkpt><trkpt lat="41.78295" lon="2.265635"><ele>772.0</ele><time>2026-04-11T09:48:56.994Z</time></trkpt><trkpt lat="41.7830383" lon="2.2655383"><ele>770.0</ele><time>2026-04-11T09:48:57.994Z</time></trkpt><trkpt lat="41.783125" lon="2.2654433"><ele>768.0</ele><time>2026-04-11T09:48:58.994Z</time></trkpt><trkpt lat="41.7831967" lon="2.26535"><ele>766.0</ele><time>2026-04-11T09:48:59.994Z</time></trkpt><trkpt lat="41.78326" lon="2.2652717"><ele>765.1666666666667</ele><time>2026-04-11T09:49:00.994Z</time></trkpt><trkpt lat="41.7833217" lon="2.2652017"><ele>764.3333333333334</ele><time>2026-04-11T09:49:01.994Z</time></trkpt><trkpt lat="41.7833967" lon="2.2651367"><ele>763.5</ele><time>2026-04-11T09:49:02.994Z</time></trkpt><trkpt lat="41.7834717" lon="2.26508"><ele>762.6666666666666</ele><time>2026-04-11T09:49:03.994Z</time></trkpt><trkpt lat="41.7835467" lon="2.2650167"><ele>761.8333333333333</ele><time>2026-04-11T09:49:04.994Z</time></trkpt><trkpt lat="41.7836133" lon="2.26495"><ele>761.0</ele><time>2026-04-11T09:49:05.994Z</time></trkpt><trkpt lat="41.7836667" lon="2.2648733"><ele>759.5</ele><time>2026-04-11T09:49:06.994Z</time></trkpt><trkpt lat="41.78371" lon="2.2648"><ele>758.0</ele><time>2026-04-11T09:49:07.994Z</time></trkpt><trkpt lat="41.7837217" lon="2.264695"><ele>756.5</ele><time>2026-04-11T09:49:08.994Z</time></trkpt><trkpt lat="41.7837283" lon="2.2645717"><ele>755.0</ele><time>2026-04-11T09:49:09.994Z</time></trkpt><trkpt lat="41.78373" lon="2.264455"><ele>753.5</ele><time>2026-04-11T09:49:10.994Z</time></trkpt><trkpt lat="41.7837333" lon="2.2643583"><ele>752.0</ele><time>2026-04-11T09:49:11.994Z</time></trkpt><trkpt lat="41.7837983" lon="2.2642417"><ele>751.0</ele><time>2026-04-11T09:49:13.994Z</time></trkpt><trkpt lat="41.783865" lon="2.26419"><ele>750.0</ele><time>2026-04-11T09:49:14.994Z</time></trkpt><trkpt lat="41.7839433" lon="2.26413"><ele>749.0</ele><time>2026-04-11T09:49:15.994Z</time></trkpt><trkpt lat="41.78403" lon="2.264055"><ele>748.0</ele><time>2026-04-11T09:49:16.995Z</time></trkpt><trkpt lat="41.7841017" lon="2.2639533"><ele>747.0</ele><time>2026-04-11T09:49:17.994Z</time></trkpt><trkpt lat="41.7841583" lon="2.2638267"><ele>746.4000000000001</ele><time>2026-04-11T09:49:18.994Z</time></trkpt><trkpt lat="41.7842117" lon="2.26369"><ele>745.8000000000001</ele><time>2026-04-11T09:49:19.994Z</time></trkpt><trkpt lat="41.7842633" lon="2.2635717"><ele>745.2</ele><time>2026-04-11T09:49:20.994Z</time></trkpt><trkpt lat="41.7843117" lon="2.26346"><ele>744.6</ele><time>2026-04-11T09:49:21.994Z</time></trkpt><trkpt lat="41.784355" lon="2.2633617"><ele>744.0</ele><time>2026-04-11T09:49:22.994Z</time></trkpt><trkpt lat="41.784385" lon="2.263275"><ele>742.2</ele><time>2026-04-11T09:49:23.994Z</time></trkpt><trkpt lat="41.7844133" lon="2.2631883"><ele>740.4000000000001</ele><time>2026-04-11T09:49:24.994Z</time></trkpt><trkpt lat="41.7844083" lon="2.2630217"><ele>738.6</ele><time>2026-04-11T09:49:26.995Z</time></trkpt><trkpt lat="41.784365" lon="2.2629033"><ele>736.8</ele><time>2026-04-11T09:49:28.994Z</time></trkpt><trkpt lat="41.7842767" lon="2.2627717"><ele>735.0</ele><time>2026-04-11T09:49:30.994Z</time></trkpt><trkpt lat="41.784235" lon="2.2627033"><ele>734.6</ele><time>2026-04-11T09:49:31.994Z</time></trkpt><trkpt lat="41.7841583" lon="2.262585"><ele>734.2</ele><time>2026-04-11T09:49:33.994Z</time></trkpt><trkpt lat="41.7840983" lon="2.2625483"><ele>733.8</ele><time>2026-04-11T09:49:34.994Z</time></trkpt><trkpt lat="41.7839717" lon="2.2624983"><ele>733.4</ele><time>2026-04-11T09:49:36.994Z</time></trkpt><trkpt lat="41.7839017" lon="2.262465"><ele>733.0</ele><time>2026-04-11T09:49:37.994Z</time></trkpt><trkpt lat="41.7838417" lon="2.2624167"><ele>733.0</ele><time>2026-04-11T09:49:38.994Z</time></trkpt><trkpt lat="41.7837733" lon="2.2623033"><ele>733.0</ele><time>2026-04-11T09:49:40.994Z</time></trkpt><trkpt lat="41.7838083" lon="2.26221"><ele>733.0</ele><time>2026-04-11T09:49:42.994Z</time></trkpt><trkpt lat="41.78386" lon="2.2620367"><ele>733.0</ele><time>2026-04-11T09:49:44.994Z</time></trkpt><trkpt lat="41.783905" lon="2.2619167"><ele>733.0</ele><time>2026-04-11T09:49:45.994Z</time></trkpt><trkpt lat="41.7839567" lon="2.2617967"><ele>731.5999999999999</ele><time>2026-04-11T09:49:46.994Z</time></trkpt><trkpt lat="41.7839967" lon="2.2616983"><ele>730.1999999999999</ele><time>2026-04-11T09:49:47.994Z</time></trkpt><trkpt lat="41.784025" lon="2.2616133"><ele>728.8</ele><time>2026-04-11T09:49:48.994Z</time></trkpt><trkpt lat="41.7840733" lon="2.261465"><ele>727.4</ele><time>2026-04-11T09:49:50.994Z</time></trkpt><trkpt lat="41.7840267" lon="2.2613217"><ele>726.0</ele><time>2026-04-11T09:49:52.994Z</time></trkpt><trkpt lat="41.7839783" lon="2.2612533"><ele>725.8</ele><time>2026-04-11T09:49:53.994Z</time></trkpt><trkpt lat="41.7839067" lon="2.2611633"><ele>725.5999999999999</ele><time>2026-04-11T09:49:54.994Z</time></trkpt><trkpt lat="41.78382" lon="2.26105"><ele>725.4</ele><time>2026-04-11T09:49:55.994Z</time></trkpt><trkpt lat="41.7837583" lon="2.2609817"><ele>725.2</ele><time>2026-04-11T09:49:56.994Z</time></trkpt><trkpt lat="41.7836783" lon="2.260885"><ele>725.0</ele><time>2026-04-11T09:49:57.994Z</time></trkpt><trkpt lat="41.783595" lon="2.2607767"><ele>721.75</ele><time>2026-04-11T09:49:58.994Z</time></trkpt><trkpt lat="41.783495" lon="2.2606483"><ele>718.5</ele><time>2026-04-11T09:49:59.994Z</time></trkpt><trkpt lat="41.783415" lon="2.26052"><ele>715.25</ele><time>2026-04-11T09:50:00.994Z</time></trkpt><trkpt lat="41.7833483" lon="2.2604"><ele>712.0</ele><time>2026-04-11T09:50:01.994Z</time></trkpt><trkpt lat="41.7832933" lon="2.2602683"><ele>711.1666666666667</ele><time>2026-04-11T09:50:02.994Z</time></trkpt><trkpt lat="41.7832517" lon="2.2601567"><ele>710.3333333333334</ele><time>2026-04-11T09:50:03.994Z</time></trkpt><trkpt lat="41.7832217" lon="2.2600683"><ele>709.5</ele><time>2026-04-11T09:50:04.994Z</time></trkpt><trkpt lat="41.7831633" lon="2.2599683"><ele>708.6666666666666</ele><time>2026-04-11T09:50:06.994Z</time></trkpt><trkpt lat="41.78311" lon="2.2600167"><ele>707.8333333333333</ele><time>2026-04-11T09:50:08.994Z</time></trkpt><trkpt lat="41.783105" lon="2.2601633"><ele>707.0</ele><time>2026-04-11T09:50:10.994Z</time></trkpt><trkpt lat="41.7831267" lon="2.2602583"><ele>707.0</ele><time>2026-04-11T09:50:11.994Z</time></trkpt><trkpt lat="41.7831417" lon="2.2603617"><ele>707.0</ele><time>2026-04-11T09:50:12.994Z</time></trkpt><trkpt lat="41.7831467" lon="2.260465"><ele>707.0</ele><time>2026-04-11T09:50:13.994Z</time></trkpt><trkpt lat="41.7831383" lon="2.260565"><ele>707.0</ele><time>2026-04-11T09:50:14.994Z</time></trkpt><trkpt lat="41.7830983" lon="2.2606567"><ele>707.0</ele><time>2026-04-11T09:50:15.994Z</time></trkpt><trkpt lat="41.7830517" lon="2.26076"><ele>707.0</ele><time>2026-04-11T09:50:16.994Z</time></trkpt><trkpt lat="41.7829967" lon="2.26086"><ele>706.4000000000001</ele><time>2026-04-11T09:50:17.994Z</time></trkpt><trkpt lat="41.7829317" lon="2.2609417"><ele>705.8000000000001</ele><time>2026-04-11T09:50:18.994Z</time></trkpt><trkpt lat="41.7828683" lon="2.26099"><ele>705.2</ele><time>2026-04-11T09:50:19.994Z</time></trkpt><trkpt lat="41.78277" lon="2.2610117"><ele>704.6</ele><time>2026-04-11T09:50:20.994Z</time></trkpt><trkpt lat="41.7826533" lon="2.26101"><ele>704.0</ele><time>2026-04-11T09:50:21.994Z</time></trkpt><trkpt lat="41.78253" lon="2.2610283"><ele>704.0</ele><time>2026-04-11T09:50:22.995Z</time></trkpt><trkpt lat="41.7824283" lon="2.2610533"><ele>704.0</ele><time>2026-04-11T09:50:23.994Z</time></trkpt><trkpt lat="41.7823183" lon="2.2610767"><ele>704.0</ele><time>2026-04-11T09:50:24.994Z</time></trkpt><trkpt lat="41.7822117" lon="2.2611067"><ele>704.0</ele><time>2026-04-11T09:50:25.994Z</time></trkpt><trkpt lat="41.7821183" lon="2.2611383"><ele>704.0</ele><time>2026-04-11T09:50:26.994Z</time></trkpt><trkpt lat="41.78203" lon="2.261175"><ele>704.0</ele><time>2026-04-11T09:50:27.995Z</time></trkpt><trkpt lat="41.781965" lon="2.26121"><ele>704.0</ele><time>2026-04-11T09:50:28.994Z</time></trkpt><trkpt lat="41.78186" lon="2.261225"><ele>704.0</ele><time>2026-04-11T09:50:30.994Z</time></trkpt><trkpt lat="41.781815" lon="2.26108"><ele>704.0</ele><time>2026-04-11T09:50:32.994Z</time></trkpt><trkpt lat="41.78178" lon="2.2609517"><ele>704.0</ele><time>2026-04-11T09:50:33.994Z</time></trkpt><trkpt lat="41.781745" lon="2.2608667"><ele>704.0</ele><time>2026-04-11T09:50:34.994Z</time></trkpt><trkpt lat="41.781685" lon="2.2607833"><ele>704.0</ele><time>2026-04-11T09:50:35.994Z</time></trkpt><trkpt lat="41.7815783" lon="2.2606967"><ele>704.0</ele><time>2026-04-11T09:50:37.995Z</time></trkpt><trkpt lat="41.781515" lon="2.2606867"><ele>704.0</ele><time>2026-04-11T09:50:38.994Z</time></trkpt><trkpt lat="41.7813933" lon="2.2606217"><ele>704.0</ele><time>2026-04-11T09:50:40.994Z</time></trkpt><trkpt lat="41.78132" lon="2.260575"><ele>703.6</ele><time>2026-04-11T09:50:41.994Z</time></trkpt><trkpt lat="41.7812283" lon="2.260515"><ele>703.2</ele><time>2026-04-11T09:50:42.994Z</time></trkpt><trkpt lat="41.7811333" lon="2.2604417"><ele>702.8000000000001</ele><time>2026-04-11T09:50:43.995Z</time></trkpt><trkpt lat="41.7810367" lon="2.2603667"><ele>702.4000000000001</ele><time>2026-04-11T09:50:44.994Z</time></trkpt><trkpt lat="41.7809467" lon="2.26031"><ele>702.0</ele><time>2026-04-11T09:50:45.994Z</time></trkpt><trkpt lat="41.78087" lon="2.2602717"><ele>702.0</ele><time>2026-04-11T09:50:46.994Z</time></trkpt><trkpt lat="41.7808067" lon="2.2602217"><ele>702.0</ele><time>2026-04-11T09:50:47.994Z</time></trkpt><trkpt lat="41.7807483" lon="2.2601817"><ele>702.0</ele><time>2026-04-11T09:50:48.994Z</time></trkpt><trkpt lat="41.7806667" lon="2.2600633"><ele>702.0</ele><time>2026-04-11T09:50:50.994Z</time></trkpt><trkpt lat="41.7806283" lon="2.2599817"><ele>702.0</ele><time>2026-04-11T09:50:51.994Z</time></trkpt><trkpt lat="41.7806" lon="2.259885"><ele>702.0</ele><time>2026-04-11T09:50:52.994Z</time></trkpt><trkpt lat="41.78058" lon="2.2597933"><ele>701.3333333333334</ele><time>2026-04-11T09:50:53.994Z</time></trkpt><trkpt lat="41.7805583" lon="2.2597133"><ele>700.6666666666666</ele><time>2026-04-11T09:50:54.994Z</time></trkpt><trkpt lat="41.7805283" lon="2.25961"><ele>700.0</ele><time>2026-04-11T09:50:55.994Z</time></trkpt><trkpt lat="41.7804967" lon="2.25953"><ele>699.3333333333333</ele><time>2026-04-11T09:50:56.994Z</time></trkpt><trkpt lat="41.7804633" lon="2.2594517"><ele>698.6666666666666</ele><time>2026-04-11T09:50:57.994Z</time></trkpt><trkpt lat="41.7804067" lon="2.2593033"><ele>698.0</ele><time>2026-04-11T09:50:59.994Z</time></trkpt><trkpt lat="41.7803567" lon="2.25922"><ele>697.9999999999999</ele><time>2026-04-11T09:51:00.995Z</time></trkpt><trkpt lat="41.7802983" lon="2.25915"><ele>698.0</ele><time>2026-04-11T09:51:01.994Z</time></trkpt><trkpt lat="41.7802367" lon="2.2590983"><ele>698.0</ele><time>2026-04-11T09:51:02.994Z</time></trkpt><trkpt lat="41.7801733" lon="2.2590717"><ele>698.0</ele><time>2026-04-11T09:51:03.994Z</time></trkpt><trkpt lat="41.7801117" lon="2.2590433"><ele>698.0</ele><time>2026-04-11T09:51:04.994Z</time></trkpt><trkpt lat="41.7800367" lon="2.2589967"><ele>697.9999999999999</ele><time>2026-04-11T09:51:05.994Z</time></trkpt><trkpt lat="41.7799667" lon="2.2589467"><ele>698.0</ele><time>2026-04-11T09:51:06.994Z</time></trkpt><trkpt lat="41.7799017" lon="2.2589017"><ele>695.5</ele><time>2026-04-11T09:51:07.994Z</time></trkpt><trkpt lat="41.7798267" lon="2.25886"><ele>693.0</ele><time>2026-04-11T09:51:09.994Z</time></trkpt><trkpt lat="41.779775" lon="2.2588083"><ele>690.5</ele><time>2026-04-11T09:51:11.994Z</time></trkpt><trkpt lat="41.7797317" lon="2.25873"><ele>688.0</ele><time>2026-04-11T09:51:14.994Z</time></trkpt><trkpt lat="41.7797567" lon="2.2585667"><ele>685.5</ele><time>2026-04-11T09:51:16.994Z</time></trkpt><trkpt lat="41.7797767" lon="2.25847"><ele>683.0</ele><time>2026-04-11T09:51:17.994Z</time></trkpt><trkpt lat="41.7798033" lon="2.2583617"><ele>683.0</ele><time>2026-04-11T09:51:18.994Z</time></trkpt><trkpt lat="41.77982" lon="2.2582633"><ele>683.0</ele><time>2026-04-11T09:51:19.995Z</time></trkpt><trkpt lat="41.779815" lon="2.2581083"><ele>683.0</ele><time>2026-04-11T09:51:21.994Z</time></trkpt><trkpt lat="41.779745" lon="2.2579933"><ele>683.0</ele><time>2026-04-11T09:51:23.994Z</time></trkpt><trkpt lat="41.779615" lon="2.25795"><ele>683.0</ele><time>2026-04-11T09:51:25.994Z</time></trkpt><trkpt lat="41.7795267" lon="2.2579233"><ele>680.5</ele><time>2026-04-11T09:51:26.994Z</time></trkpt><trkpt lat="41.77944" lon="2.2579"><ele>678.0</ele><time>2026-04-11T09:51:27.994Z</time></trkpt><trkpt lat="41.77936" lon="2.2578633"><ele>675.5</ele><time>2026-04-11T09:51:28.994Z</time></trkpt><trkpt lat="41.7792783" lon="2.2578317"><ele>673.0</ele><time>2026-04-11T09:51:29.994Z</time></trkpt><trkpt lat="41.7791967" lon="2.2577817"><ele>670.5</ele><time>2026-04-11T09:51:30.995Z</time></trkpt><trkpt lat="41.7791183" lon="2.2577367"><ele>668.0</ele><time>2026-04-11T09:51:31.994Z</time></trkpt><trkpt lat="41.7790483" lon="2.2576933"><ele>666.0</ele><time>2026-04-11T09:51:32.994Z</time></trkpt><trkpt lat="41.778985" lon="2.25766"><ele>664.0</ele><time>2026-04-11T09:51:33.994Z</time></trkpt><trkpt lat="41.7788733" lon="2.257645"><ele>662.0</ele><time>2026-04-11T09:51:35.994Z</time></trkpt><trkpt lat="41.7788117" lon="2.2577017"><ele>660.0</ele><time>2026-04-11T09:51:37.994Z</time></trkpt><trkpt lat="41.7788117" lon="2.2578117"><ele>658.0</ele><time>2026-04-11T09:51:39.993Z</time></trkpt><trkpt lat="41.7788183" lon="2.2579"><ele>656.0</ele><time>2026-04-11T09:51:40.993Z</time></trkpt><trkpt lat="41.778835" lon="2.258055"><ele>655.8</ele><time>2026-04-11T09:51:42.993Z</time></trkpt><trkpt lat="41.778795" lon="2.258205"><ele>655.5999999999999</ele><time>2026-04-11T09:51:44.993Z</time></trkpt><trkpt lat="41.77868" lon="2.258265"><ele>655.4</ele><time>2026-04-11T09:51:46.993Z</time></trkpt><trkpt lat="41.7785817" lon="2.25825"><ele>655.2</ele><time>2026-04-11T09:51:47.993Z</time></trkpt><trkpt lat="41.7785" lon="2.2582167"><ele>655.0</ele><time>2026-04-11T09:51:48.993Z</time></trkpt><trkpt lat="41.778435" lon="2.2581817"><ele>655.0</ele><time>2026-04-11T09:51:49.993Z</time></trkpt><trkpt lat="41.7783533" lon="2.258135"><ele>655.0</ele><time>2026-04-11T09:51:50.993Z</time></trkpt><trkpt lat="41.77828" lon="2.2580883"><ele>655.0</ele><time>2026-04-11T09:51:51.993Z</time></trkpt><trkpt lat="41.778215" lon="2.2580767"><ele>655.0</ele><time>2026-04-11T09:51:52.993Z</time></trkpt><trkpt lat="41.7781067" lon="2.2581433"><ele>655.0</ele><time>2026-04-11T09:51:54.993Z</time></trkpt><trkpt lat="41.778065" lon="2.25821"><ele>655.0</ele><time>2026-04-11T09:51:55.993Z</time></trkpt><trkpt lat="41.7780217" lon="2.2583"><ele>655.0</ele><time>2026-04-11T09:51:56.994Z</time></trkpt><trkpt lat="41.7779633" lon="2.2583767"><ele>655.0</ele><time>2026-04-11T09:51:57.993Z</time></trkpt><trkpt lat="41.7779067" lon="2.258445"><ele>655.0</ele><time>2026-04-11T09:51:58.993Z</time></trkpt><trkpt lat="41.7778417" lon="2.258505"><ele>655.0</ele><time>2026-04-11T09:51:59.993Z</time></trkpt><trkpt lat="41.777775" lon="2.2585633"><ele>655.0</ele><time>2026-04-11T09:52:00.993Z</time></trkpt><trkpt lat="41.7777167" lon="2.2586183"><ele>655.0</ele><time>2026-04-11T09:52:01.994Z</time></trkpt><trkpt lat="41.77766" lon="2.2586717"><ele>653.8</ele><time>2026-04-11T09:52:02.993Z</time></trkpt><trkpt lat="41.7776067" lon="2.2587267"><ele>652.6</ele><time>2026-04-11T09:52:03.993Z</time></trkpt><trkpt lat="41.777515" lon="2.258805"><ele>651.4000000000001</ele><time>2026-04-11T09:52:05.993Z</time></trkpt><trkpt lat="41.7774233" lon="2.258855"><ele>650.2</ele><time>2026-04-11T09:52:07.993Z</time></trkpt><trkpt lat="41.7773367" lon="2.2589167"><ele>649.0</ele><time>2026-04-11T09:52:09.993Z</time></trkpt><trkpt lat="41.77726" lon="2.2589633"><ele>646.3333333333334</ele><time>2026-04-11T09:52:11.993Z</time></trkpt><trkpt lat="41.777195" lon="2.2588883"><ele>643.6666666666667</ele><time>2026-04-11T09:52:14.993Z</time></trkpt><trkpt lat="41.7772317" lon="2.25875"><ele>641.0</ele><time>2026-04-11T09:52:16.993Z</time></trkpt><trkpt lat="41.7772683" lon="2.2586667"><ele>638.3333333333334</ele><time>2026-04-11T09:52:17.993Z</time></trkpt><trkpt lat="41.77731" lon="2.2585717"><ele>635.6666666666666</ele><time>2026-04-11T09:52:18.993Z</time></trkpt><trkpt lat="41.7773533" lon="2.2584817"><ele>633.0</ele><time>2026-04-11T09:52:19.993Z</time></trkpt><trkpt lat="41.7774133" lon="2.2584017"><ele>633.0</ele><time>2026-04-11T09:52:20.993Z</time></trkpt><trkpt lat="41.7774933" lon="2.2583183"><ele>633.0</ele><time>2026-04-11T09:52:21.993Z</time></trkpt><trkpt lat="41.7775783" lon="2.2582367"><ele>633.0</ele><time>2026-04-11T09:52:22.993Z</time></trkpt><trkpt lat="41.7776733" lon="2.2581317"><ele>633.0</ele><time>2026-04-11T09:52:23.993Z</time></trkpt><trkpt lat="41.777755" lon="2.2580233"><ele>633.0</ele><time>2026-04-11T09:52:24.993Z</time></trkpt><trkpt lat="41.777825" lon="2.2579183"><ele>634.1666666666666</ele><time>2026-04-11T09:52:25.993Z</time></trkpt><trkpt lat="41.7778883" lon="2.2578217"><ele>635.3333333333334</ele><time>2026-04-11T09:52:26.993Z</time></trkpt><trkpt lat="41.77795" lon="2.2577383"><ele>636.5</ele><time>2026-04-11T09:52:27.993Z</time></trkpt><trkpt lat="41.7780117" lon="2.257685"><ele>637.6666666666667</ele><time>2026-04-11T09:52:28.993Z</time></trkpt><trkpt lat="41.7780717" lon="2.2576333"><ele>638.8333333333334</ele><time>2026-04-11T09:52:29.994Z</time></trkpt><trkpt lat="41.7781383" lon="2.257535"><ele>640.0</ele><time>2026-04-11T09:52:31.993Z</time></trkpt><trkpt lat="41.778155" lon="2.25741"><ele>636.1666666666667</ele><time>2026-04-11T09:52:33.993Z</time></trkpt><trkpt lat="41.7781133" lon="2.25728"><ele>632.3333333333334</ele><time>2026-04-11T09:52:35.993Z</time></trkpt><trkpt lat="41.77808" lon="2.257205"><ele>628.5</ele><time>2026-04-11T09:52:36.993Z</time></trkpt><trkpt lat="41.7780467" lon="2.25711"><ele>624.6666666666666</ele><time>2026-04-11T09:52:37.993Z</time></trkpt><trkpt lat="41.7779917" lon="2.2569517"><ele>620.8333333333333</ele><time>2026-04-11T09:52:39.993Z</time></trkpt><trkpt lat="41.7779617" lon="2.2568717"><ele>617.0</ele><time>2026-04-11T09:52:40.993Z</time></trkpt><trkpt lat="41.7779417" lon="2.2567833"><ele>617.0</ele><time>2026-04-11T09:52:41.993Z</time></trkpt><trkpt lat="41.7779433" lon="2.256625"><ele>617.0</ele><time>2026-04-11T09:52:43.993Z</time></trkpt><trkpt lat="41.7780067" lon="2.2565083"><ele>617.0</ele><time>2026-04-11T09:52:45.993Z</time></trkpt><trkpt lat="41.7781333" lon="2.25646"><ele>617.0</ele><time>2026-04-11T09:52:47.993Z</time></trkpt><trkpt lat="41.7782167" lon="2.2564533"><ele>617.0</ele><time>2026-04-11T09:52:48.993Z</time></trkpt><trkpt lat="41.778305" lon="2.25645"><ele>611.8000000000001</ele><time>2026-04-11T09:52:49.993Z</time></trkpt><trkpt lat="41.7783917" lon="2.2564333"><ele>606.6</ele><time>2026-04-11T09:52:50.993Z</time></trkpt><trkpt lat="41.778485" lon="2.2564267"><ele>601.4000000000001</ele><time>2026-04-11T09:52:51.993Z</time></trkpt><trkpt lat="41.778575" lon="2.2564017"><ele>596.2</ele><time>2026-04-11T09:52:52.993Z</time></trkpt><trkpt lat="41.7786717" lon="2.256375"><ele>591.0</ele><time>2026-04-11T09:52:53.993Z</time></trkpt><trkpt lat="41.7787667" lon="2.2563567"><ele>591.0</ele><time>2026-04-11T09:52:54.993Z</time></trkpt><trkpt lat="41.7788633" lon="2.2563383"><ele>591.0</ele><time>2026-04-11T09:52:55.993Z</time></trkpt><trkpt lat="41.7789483" lon="2.25632"><ele>591.0</ele><time>2026-04-11T09:52:56.993Z</time></trkpt><trkpt lat="41.7790217" lon="2.2562883"><ele>591.0</ele><time>2026-04-11T09:52:57.993Z</time></trkpt><trkpt lat="41.779105" lon="2.2562117"><ele>591.0</ele><time>2026-04-11T09:52:59.993Z</time></trkpt><trkpt lat="41.7791033" lon="2.2560983"><ele>591.0</ele><time>2026-04-11T09:53:01.993Z</time></trkpt><trkpt lat="41.77903" lon="2.2560217"><ele>591.0</ele><time>2026-04-11T09:53:03.994Z</time></trkpt><trkpt lat="41.7789667" lon="2.2559783"><ele>591.0</ele><time>2026-04-11T09:53:04.993Z</time></trkpt><trkpt lat="41.7788833" lon="2.255955"><ele>591.0</ele><time>2026-04-11T09:53:05.993Z</time></trkpt><trkpt lat="41.7788067" lon="2.2559367"><ele>591.0</ele><time>2026-04-11T09:53:06.993Z</time></trkpt><trkpt lat="41.7787317" lon="2.2559217"><ele>591.0</ele><time>2026-04-11T09:53:07.993Z</time></trkpt><trkpt lat="41.7786183" lon="2.255925"><ele>591.0</ele><time>2026-04-11T09:53:09.993Z</time></trkpt><trkpt lat="41.7785433" lon="2.255905"><ele>591.0</ele><time>2026-04-11T09:53:11.993Z</time></trkpt><trkpt lat="41.7785217" lon="2.255815"><ele>591.0</ele><time>2026-04-11T09:53:13.993Z</time></trkpt><trkpt lat="41.7785567" lon="2.2557067"><ele>591.0</ele><time>2026-04-11T09:53:15.993Z</time></trkpt><trkpt lat="41.77868" lon="2.2556383"><ele>591.0</ele><time>2026-04-11T09:53:17.993Z</time></trkpt><trkpt lat="41.7787367" lon="2.2555683"><ele>591.0</ele><time>2026-04-11T09:53:18.993Z</time></trkpt><trkpt lat="41.7787883" lon="2.2555"><ele>591.0</ele><time>2026-04-11T09:53:19.993Z</time></trkpt><trkpt lat="41.778815" lon="2.255415"><ele>588.5</ele><time>2026-04-11T09:53:20.993Z</time></trkpt><trkpt lat="41.7787967" lon="2.2553233"><ele>586.0</ele><time>2026-04-11T09:53:21.993Z</time></trkpt><trkpt lat="41.7786933" lon="2.2552667"><ele>583.5</ele><time>2026-04-11T09:53:23.993Z</time></trkpt><trkpt lat="41.7786117" lon="2.2552667"><ele>581.0</ele><time>2026-04-11T09:53:24.993Z</time></trkpt><trkpt lat="41.77853" lon="2.2552883"><ele>578.5</ele><time>2026-04-11T09:53:25.993Z</time></trkpt><trkpt lat="41.77844" lon="2.2553"><ele>576.0</ele><time>2026-04-11T09:53:26.993Z</time></trkpt><trkpt lat="41.77836" lon="2.2553"><ele>574.5</ele><time>2026-04-11T09:53:27.993Z</time></trkpt><trkpt lat="41.7782817" lon="2.2553017"><ele>573.0</ele><time>2026-04-11T09:53:28.993Z</time></trkpt><trkpt lat="41.77818" lon="2.2552483"><ele>571.5</ele><time>2026-04-11T09:53:30.993Z</time></trkpt><trkpt lat="41.778145" lon="2.2551467"><ele>570.0</ele><time>2026-04-11T09:53:32.993Z</time></trkpt><trkpt lat="41.7781917" lon="2.255085"><ele>568.5</ele><time>2026-04-11T09:53:33.993Z</time></trkpt><trkpt lat="41.7782217" lon="2.25498"><ele>567.0</ele><time>2026-04-11T09:53:34.993Z</time></trkpt><trkpt lat="41.7782433" lon="2.2548717"><ele>564.6666666666666</ele><time>2026-04-11T09:53:35.994Z</time></trkpt><trkpt lat="41.7782733" lon="2.2547367"><ele>562.3333333333334</ele><time>2026-04-11T09:53:36.993Z</time></trkpt><trkpt lat="41.7782783" lon="2.2546233"><ele>560.0</ele><time>2026-04-11T09:53:37.993Z</time></trkpt><trkpt lat="41.7782833" lon="2.2545067"><ele>557.6666666666667</ele><time>2026-04-11T09:53:38.993Z</time></trkpt><trkpt lat="41.7782833" lon="2.2544067"><ele>555.3333333333334</ele><time>2026-04-11T09:53:39.993Z</time></trkpt><trkpt lat="41.778255" lon="2.2543233"><ele>553.0</ele><time>2026-04-11T09:53:41.994Z</time></trkpt><trkpt lat="41.778315" lon="2.25428"><ele>553.0</ele><time>2026-04-11T09:53:51.993Z</time></trkpt><trkpt lat="41.7783633" lon="2.2541517"><ele>553.0</ele><time>2026-04-11T09:53:53.993Z</time></trkpt><trkpt lat="41.7784" lon="2.2540483"><ele>553.0</ele><time>2026-04-11T09:53:54.993Z</time></trkpt><trkpt lat="41.7784467" lon="2.25396"><ele>553.0</ele><time>2026-04-11T09:53:55.993Z</time></trkpt><trkpt lat="41.7784983" lon="2.2538583"><ele>553.0</ele><time>2026-04-11T09:53:56.993Z</time></trkpt><trkpt lat="41.77857" lon="2.2537417"><ele>552.5</ele><time>2026-04-11T09:53:57.994Z</time></trkpt><trkpt lat="41.7786283" lon="2.25365"><ele>552.0</ele><time>2026-04-11T09:53:58.993Z</time></trkpt><trkpt lat="41.77869" lon="2.2535817"><ele>551.5</ele><time>2026-04-11T09:53:59.993Z</time></trkpt><trkpt lat="41.7787533" lon="2.2535517"><ele>551.0</ele><time>2026-04-11T09:54:00.993Z</time></trkpt><trkpt lat="41.7788633" lon="2.2535117"><ele>550.5</ele><time>2026-04-11T09:54:02.993Z</time></trkpt><trkpt lat="41.7789567" lon="2.253495"><ele>550.0</ele><time>2026-04-11T09:54:04.994Z</time></trkpt><trkpt lat="41.77902" lon="2.2534983"><ele>550.0</ele><time>2026-04-11T09:54:06.993Z</time></trkpt><trkpt lat="41.7791083" lon="2.2534667"><ele>550.0</ele><time>2026-04-11T09:54:09.993Z</time></trkpt><trkpt lat="41.7792417" lon="2.253405"><ele>550.0</ele><time>2026-04-11T09:54:11.993Z</time></trkpt><trkpt lat="41.7793083" lon="2.2533583"><ele>550.0</ele><time>2026-04-11T09:54:12.993Z</time></trkpt><trkpt lat="41.7793733" lon="2.2533117"><ele>550.0</ele><time>2026-04-11T09:54:13.993Z</time></trkpt><trkpt lat="41.7794467" lon="2.2532767"><ele>550.0</ele><time>2026-04-11T09:54:14.993Z</time></trkpt><trkpt lat="41.779555" lon="2.253225"><ele>550.0</ele><time>2026-04-11T09:54:16.993Z</time></trkpt><trkpt lat="41.779465" lon="2.2532833"><ele>550.0</ele><time>2026-04-11T09:54:41.993Z</time></trkpt><trkpt lat="41.779395" lon="2.2533533"><ele>550.0</ele><time>2026-04-11T09:54:42.993Z</time></trkpt><trkpt lat="41.7793317" lon="2.25342"><ele>550.0</ele><time>2026-04-11T09:54:43.993Z</time></trkpt><trkpt lat="41.779255" lon="2.253485"><ele>550.0</ele><time>2026-04-11T09:54:44.993Z</time></trkpt><trkpt lat="41.7791733" lon="2.2535383"><ele>550.0</ele><time>2026-04-11T09:54:45.993Z</time></trkpt><trkpt lat="41.7791" lon="2.2535767"><ele>550.0</ele><time>2026-04-11T09:54:46.993Z</time></trkpt><trkpt lat="41.7790217" lon="2.25361"><ele>550.0</ele><time>2026-04-11T09:54:47.993Z</time></trkpt><trkpt lat="41.7789067" lon="2.2536183"><ele>550.0</ele><time>2026-04-11T09:54:48.993Z</time></trkpt><trkpt lat="41.7788183" lon="2.2536367"><ele>550.0</ele><time>2026-04-11T09:54:49.993Z</time></trkpt><trkpt lat="41.7787233" lon="2.2536383"><ele>550.0</ele><time>2026-04-11T09:54:50.993Z</time></trkpt><trkpt lat="41.7786467" lon="2.2536317"><ele>550.0</ele><time>2026-04-11T09:54:51.993Z</time></trkpt><trkpt lat="41.77858" lon="2.2536167"><ele>550.0</ele><time>2026-04-11T09:54:52.993Z</time></trkpt><trkpt lat="41.7784967" lon="2.25362"><ele>550.0</ele><time>2026-04-11T09:54:54.993Z</time></trkpt><trkpt lat="41.7784367" lon="2.2536567"><ele>550.0</ele><time>2026-04-11T09:55:07.993Z</time></trkpt><trkpt lat="41.7783883" lon="2.25372"><ele>550.0</ele><time>2026-04-11T09:55:09.993Z</time></trkpt><trkpt lat="41.7783167" lon="2.253775"><ele>550.0</ele><time>2026-04-11T09:55:13.993Z</time></trkpt><trkpt lat="41.77834" lon="2.253685"><ele>550.0</ele><time>2026-04-11T09:55:16.993Z</time></trkpt><trkpt lat="41.7783767" lon="2.2536117"><ele>550.0</ele><time>2026-04-11T09:55:17.994Z</time></trkpt><trkpt lat="41.7784167" lon="2.2535333"><ele>550.0</ele><time>2026-04-11T09:55:18.993Z</time></trkpt><trkpt lat="41.7784983" lon="2.2533833"><ele>550.0</ele><time>2026-04-11T09:55:20.993Z</time></trkpt><trkpt lat="41.7785767" lon="2.25328"><ele>550.0</ele><time>2026-04-11T09:55:22.993Z</time></trkpt><trkpt lat="41.77864" lon="2.2532367"><ele>550.0</ele><time>2026-04-11T09:55:23.993Z</time></trkpt><trkpt lat="41.7787" lon="2.2532"><ele>550.0</ele><time>2026-04-11T09:55:24.993Z</time></trkpt><trkpt lat="41.778825" lon="2.2531267"><ele>550.0</ele><time>2026-04-11T09:55:26.993Z</time></trkpt><trkpt lat="41.77891" lon="2.2530633"><ele>550.0</ele><time>2026-04-11T09:55:27.993Z</time></trkpt><trkpt lat="41.77897" lon="2.2529933"><ele>545.8333333333334</ele><time>2026-04-11T09:55:28.993Z</time></trkpt><trkpt lat="41.7790267" lon="2.25291"><ele>541.6666666666667</ele><time>2026-04-11T09:55:29.993Z</time></trkpt><trkpt lat="41.779085" lon="2.2528333"><ele>537.5</ele><time>2026-04-11T09:55:30.993Z</time></trkpt><trkpt lat="41.7791267" lon="2.2527533"><ele>533.3333333333334</ele><time>2026-04-11T09:55:31.993Z</time></trkpt><trkpt lat="41.779165" lon="2.25268"><ele>529.1666666666666</ele><time>2026-04-11T09:55:32.993Z</time></trkpt><trkpt lat="41.77924" lon="2.2525617"><ele>525.0</ele><time>2026-04-11T09:55:34.993Z</time></trkpt><trkpt lat="41.7793083" lon="2.2524767"><ele>525.0</ele><time>2026-04-11T09:55:36.993Z</time></trkpt><trkpt lat="41.779345" lon="2.252405"><ele>525.0</ele><time>2026-04-11T09:55:39.993Z</time></trkpt><trkpt lat="41.7793217" lon="2.2523233"><ele>525.0</ele><time>2026-04-11T09:55:43.993Z</time></trkpt><trkpt lat="41.779255" lon="2.2522933"><ele>525.0</ele><time>2026-04-11T09:55:48.993Z</time></trkpt><trkpt lat="41.7791533" lon="2.2522617"><ele>525.0</ele><time>2026-04-11T09:55:51.993Z</time></trkpt><trkpt lat="41.7790833" lon="2.2522433"><ele>525.0</ele><time>2026-04-11T09:55:53.993Z</time></trkpt><trkpt lat="41.7790183" lon="2.2522267"><ele>525.0</ele><time>2026-04-11T09:55:55.993Z</time></trkpt><trkpt lat="41.7789517" lon="2.25219"><ele>521.5</ele><time>2026-04-11T09:55:57.993Z</time></trkpt><trkpt lat="41.7788733" lon="2.2521717"><ele>518.0</ele><time>2026-04-11T09:56:00.993Z</time></trkpt><trkpt lat="41.7787917" lon="2.2521317"><ele>514.5</ele><time>2026-04-11T09:56:03.993Z</time></trkpt><trkpt lat="41.7787333" lon="2.252045"><ele>511.0</ele><time>2026-04-11T09:56:05.993Z</time></trkpt><trkpt lat="41.7786817" lon="2.2519867"><ele>507.5</ele><time>2026-04-11T09:56:07.993Z</time></trkpt><trkpt lat="41.7786267" lon="2.2518717"><ele>504.0</ele><time>2026-04-11T09:56:10.993Z</time></trkpt><trkpt lat="41.7786033" lon="2.2517433"><ele>504.0</ele><time>2026-04-11T09:56:13.993Z</time></trkpt><trkpt lat="41.7785883" lon="2.2516417"><ele>504.0</ele><time>2026-04-11T09:56:15.994Z</time></trkpt><trkpt lat="41.778595" lon="2.2515217"><ele>504.0</ele><time>2026-04-11T09:56:18.993Z</time></trkpt><trkpt lat="41.7786317" lon="2.2514233"><ele>504.0</ele><time>2026-04-11T09:56:21.993Z</time></trkpt><trkpt lat="41.7786683" lon="2.2513383"><ele>504.0</ele><time>2026-04-11T09:56:24.993Z</time></trkpt><trkpt lat="41.7787383" lon="2.2512967"><ele>504.0</ele><time>2026-04-11T09:56:27.993Z</time></trkpt><trkpt lat="41.7787767" lon="2.2512083"><ele>501.42857142857144</ele><time>2026-04-11T09:56:30.993Z</time></trkpt><trkpt lat="41.7787117" lon="2.25114"><ele>498.8571428571429</ele><time>2026-04-11T09:56:33.993Z</time></trkpt><trkpt lat="41.778645" lon="2.251095"><ele>496.2857142857143</ele><time>2026-04-11T09:56:35.993Z</time></trkpt><trkpt lat="41.7785883" lon="2.2510517"><ele>493.7142857142857</ele><time>2026-04-11T09:56:37.993Z</time></trkpt><trkpt lat="41.7785283" lon="2.2509967"><ele>491.14285714285717</ele><time>2026-04-11T09:56:39.993Z</time></trkpt><trkpt lat="41.77846" lon="2.2509367"><ele>488.57142857142856</ele><time>2026-04-11T09:56:41.993Z</time></trkpt><trkpt lat="41.7783933" lon="2.25092"><ele>486.0</ele><time>2026-04-11T09:56:43.993Z</time></trkpt><trkpt lat="41.7783267" lon="2.2509483"><ele>485.5</ele><time>2026-04-11T09:56:45.994Z</time></trkpt><trkpt lat="41.7782633" lon="2.2509883"><ele>485.0</ele><time>2026-04-11T09:56:47.993Z</time></trkpt><trkpt lat="41.7782183" lon="2.2510483"><ele>484.5</ele><time>2026-04-11T09:56:50.993Z</time></trkpt><trkpt lat="41.7781733" lon="2.2511167"><ele>484.0</ele><time>2026-04-11T09:56:59.993Z</time></trkpt><trkpt lat="41.778115" lon="2.2512483"><ele>483.5</ele><time>2026-04-11T09:57:01.994Z</time></trkpt><trkpt lat="41.7780767" lon="2.2513183"><ele>483.0</ele><time>2026-04-11T09:57:02.993Z</time></trkpt><trkpt lat="41.7780117" lon="2.2513683"><ele>483.0</ele><time>2026-04-11T09:57:03.993Z</time></trkpt><trkpt lat="41.77791" lon="2.2514117"><ele>482.99999999999994</ele><time>2026-04-11T09:57:05.993Z</time></trkpt><trkpt lat="41.7778017" lon="2.25145"><ele>482.99999999999994</ele><time>2026-04-11T09:57:07.993Z</time></trkpt><trkpt lat="41.7777467" lon="2.2514933"><ele>483.0</ele><time>2026-04-11T09:57:08.993Z</time></trkpt><trkpt lat="41.7776433" lon="2.2515567"><ele>483.0</ele><time>2026-04-11T09:57:10.993Z</time></trkpt><trkpt lat="41.77755" lon="2.25161"><ele>482.79999999999995</ele><time>2026-04-11T09:57:12.993Z</time></trkpt><trkpt lat="41.7774767" lon="2.2516233"><ele>482.59999999999997</ele><time>2026-04-11T09:57:13.993Z</time></trkpt><trkpt lat="41.7773717" lon="2.2516167"><ele>482.40000000000003</ele><time>2026-04-11T09:57:15.993Z</time></trkpt><trkpt lat="41.77737" lon="2.2515"><ele>482.20000000000005</ele><time>2026-04-11T09:57:17.993Z</time></trkpt><trkpt lat="41.7773983" lon="2.2513567"><ele>482.0</ele><time>2026-04-11T09:57:19.993Z</time></trkpt><trkpt lat="41.77743" lon="2.25122"><ele>479.40000000000003</ele><time>2026-04-11T09:57:21.993Z</time></trkpt><trkpt lat="41.7774183" lon="2.2510683"><ele>476.80000000000007</ele><time>2026-04-11T09:57:23.993Z</time></trkpt><trkpt lat="41.777385" lon="2.2509483"><ele>474.2</ele><time>2026-04-11T09:57:25.993Z</time></trkpt><trkpt lat="41.777365" lon="2.2508017"><ele>471.6</ele><time>2026-04-11T09:57:27.993Z</time></trkpt><trkpt lat="41.7773567" lon="2.2506933"><ele>469.0</ele><time>2026-04-11T09:57:28.994Z</time></trkpt><trkpt lat="41.7773417" lon="2.2505733"><ele>466.79999999999995</ele><time>2026-04-11T09:57:29.993Z</time></trkpt><trkpt lat="41.7773317" lon="2.2504317"><ele>464.59999999999997</ele><time>2026-04-11T09:57:30.993Z</time></trkpt><trkpt lat="41.7773267" lon="2.2503233"><ele>462.4</ele><time>2026-04-11T09:57:31.993Z</time></trkpt><trkpt lat="41.7773133" lon="2.250205"><ele>460.2</ele><time>2026-04-11T09:57:32.993Z</time></trkpt><trkpt lat="41.77732" lon="2.2501"><ele>458.0</ele><time>2026-04-11T09:57:33.993Z</time></trkpt><trkpt lat="41.77732" lon="2.2499633"><ele>457.99999999999994</ele><time>2026-04-11T09:57:34.993Z</time></trkpt><trkpt lat="41.77732" lon="2.2498467"><ele>458.0</ele><time>2026-04-11T09:57:35.993Z</time></trkpt><trkpt lat="41.77731" lon="2.2497383"><ele>458.0</ele><time>2026-04-11T09:57:36.993Z</time></trkpt><trkpt lat="41.7773033" lon="2.2496367"><ele>458.0</ele><time>2026-04-11T09:57:37.993Z</time></trkpt><trkpt lat="41.77729" lon="2.2495333"><ele>457.99999999999994</ele><time>2026-04-11T09:57:38.993Z</time></trkpt><trkpt lat="41.7772667" lon="2.24941"><ele>458.0</ele><time>2026-04-11T09:57:39.993Z</time></trkpt><trkpt lat="41.777255" lon="2.24929"><ele>455.8333333333333</ele><time>2026-04-11T09:57:40.993Z</time></trkpt><trkpt lat="41.7772667" lon="2.2491717"><ele>453.66666666666663</ele><time>2026-04-11T09:57:41.993Z</time></trkpt><trkpt lat="41.7772667" lon="2.2490683"><ele>451.5</ele><time>2026-04-11T09:57:42.993Z</time></trkpt><trkpt lat="41.7772483" lon="2.2489667"><ele>449.33333333333337</ele><time>2026-04-11T09:57:43.993Z</time></trkpt><trkpt lat="41.77716" lon="2.2488617"><ele>447.1666666666667</ele><time>2026-04-11T09:57:45.993Z</time></trkpt><trkpt lat="41.7770967" lon="2.2488483"><ele>445.0</ele><time>2026-04-11T09:57:46.994Z</time></trkpt><trkpt lat="41.777025" lon="2.2488517"><ele>444.00000000000006</ele><time>2026-04-11T09:57:47.993Z</time></trkpt><trkpt lat="41.77695" lon="2.2488617"><ele>443.0</ele><time>2026-04-11T09:57:48.993Z</time></trkpt><trkpt lat="41.7768833" lon="2.24888"><ele>442.0</ele><time>2026-04-11T09:57:49.993Z</time></trkpt><trkpt lat="41.7768483" lon="2.248955"><ele>441.0</ele><time>2026-04-11T09:57:50.993Z</time></trkpt><trkpt lat="41.7768217" lon="2.2490433"><ele>440.00000000000006</ele><time>2026-04-11T09:57:51.993Z</time></trkpt><trkpt lat="41.7767517" lon="2.24914"><ele>439.0</ele><time>2026-04-11T09:57:53.993Z</time></trkpt><trkpt lat="41.77666" lon="2.24908"><ele>437.0</ele><time>2026-04-11T09:57:55.993Z</time></trkpt><trkpt lat="41.776605" lon="2.24892"><ele>435.0</ele><time>2026-04-11T09:57:57.993Z</time></trkpt><trkpt lat="41.77657" lon="2.2488317"><ele>433.0</ele><time>2026-04-11T09:57:58.993Z</time></trkpt><trkpt lat="41.776545" lon="2.2487133"><ele>431.0</ele><time>2026-04-11T09:57:59.993Z</time></trkpt><trkpt lat="41.7765167" lon="2.2485867"><ele>429.0</ele><time>2026-04-11T09:58:00.993Z</time></trkpt><trkpt lat="41.7764983" lon="2.2484367"><ele>429.0</ele><time>2026-04-11T09:58:01.993Z</time></trkpt><trkpt lat="41.7764567" lon="2.2483167"><ele>429.0</ele><time>2026-04-11T09:58:02.993Z</time></trkpt><trkpt lat="41.7764167" lon="2.2481867"><ele>429.0</ele><time>2026-04-11T09:58:03.993Z</time></trkpt><trkpt lat="41.77639" lon="2.24806"><ele>429.0</ele><time>2026-04-11T09:58:04.993Z</time></trkpt><trkpt lat="41.7763667" lon="2.2479483"><ele>429.0</ele><time>2026-04-11T09:58:05.993Z</time></trkpt><trkpt lat="41.7763433" lon="2.2478417"><ele>428.1666666666667</ele><time>2026-04-11T09:58:06.993Z</time></trkpt><trkpt lat="41.776315" lon="2.2477383"><ele>427.33333333333337</ele><time>2026-04-11T09:58:07.993Z</time></trkpt><trkpt lat="41.776265" lon="2.24763"><ele>426.5</ele><time>2026-04-11T09:58:08.993Z</time></trkpt><trkpt lat="41.7762083" lon="2.2475417"><ele>425.6666666666667</ele><time>2026-04-11T09:58:09.993Z</time></trkpt><trkpt lat="41.776145" lon="2.247465"><ele>424.83333333333337</ele><time>2026-04-11T09:58:10.993Z</time></trkpt><trkpt lat="41.7760933" lon="2.2473867"><ele>424.0</ele><time>2026-04-11T09:58:11.993Z</time></trkpt><trkpt lat="41.7760367" lon="2.24728"><ele>423.6</ele><time>2026-04-11T09:58:13.993Z</time></trkpt><trkpt lat="41.775995" lon="2.247205"><ele>423.2</ele><time>2026-04-11T09:58:15.993Z</time></trkpt><trkpt lat="41.7758633" lon="2.2471733"><ele>422.8</ele><time>2026-04-11T09:58:17.993Z</time></trkpt><trkpt lat="41.7757717" lon="2.2471867"><ele>422.40000000000003</ele><time>2026-04-11T09:58:18.993Z</time></trkpt><trkpt lat="41.775665" lon="2.247205"><ele>422.0</ele><time>2026-04-11T09:58:19.994Z</time></trkpt><trkpt lat="41.7755483" lon="2.2472117"><ele>422.0</ele><time>2026-04-11T09:58:20.994Z</time></trkpt><trkpt lat="41.7754217" lon="2.2472233"><ele>422.0</ele><time>2026-04-11T09:58:21.993Z</time></trkpt><trkpt lat="41.7753017" lon="2.2472283"><ele>422.0</ele><time>2026-04-11T09:58:22.993Z</time></trkpt><trkpt lat="41.7751833" lon="2.2472383"><ele>422.0</ele><time>2026-04-11T09:58:23.993Z</time></trkpt><trkpt lat="41.7750583" lon="2.2472483"><ele>421.25</ele><time>2026-04-11T09:58:24.993Z</time></trkpt><trkpt lat="41.774945" lon="2.24726"><ele>420.5</ele><time>2026-04-11T09:58:25.993Z</time></trkpt><trkpt lat="41.7748283" lon="2.2472733"><ele>419.75</ele><time>2026-04-11T09:58:26.994Z</time></trkpt><trkpt lat="41.7747117" lon="2.2472733"><ele>419.0</ele><time>2026-04-11T09:58:27.993Z</time></trkpt><trkpt lat="41.7745867" lon="2.247275"><ele>419.0</ele><time>2026-04-11T09:58:28.993Z</time></trkpt><trkpt lat="41.7744667" lon="2.2472833"><ele>419.0</ele><time>2026-04-11T09:58:29.993Z</time></trkpt><trkpt lat="41.7743433" lon="2.2472867"><ele>419.0</ele><time>2026-04-11T09:58:30.993Z</time></trkpt><trkpt lat="41.77422" lon="2.2472883"><ele>419.0</ele><time>2026-04-11T09:58:31.993Z</time></trkpt><trkpt lat="41.774095" lon="2.2472883"><ele>418.75</ele><time>2026-04-11T09:58:32.993Z</time></trkpt><trkpt lat="41.7739733" lon="2.2472917"><ele>418.5</ele><time>2026-04-11T09:58:33.993Z</time></trkpt><trkpt lat="41.7738467" lon="2.2472983"><ele>418.25</ele><time>2026-04-11T09:58:34.993Z</time></trkpt><trkpt lat="41.7737167" lon="2.2473067"><ele>418.0</ele><time>2026-04-11T09:58:35.993Z</time></trkpt><trkpt lat="41.7735867" lon="2.2473133"><ele>419.0</ele><time>2026-04-11T09:58:36.993Z</time></trkpt><trkpt lat="41.7734633" lon="2.24732"><ele>420.0</ele><time>2026-04-11T09:58:37.994Z</time></trkpt><trkpt lat="41.7733417" lon="2.2473283"><ele>421.0</ele><time>2026-04-11T09:58:38.993Z</time></trkpt><trkpt lat="41.7732333" lon="2.2473333"><ele>422.0</ele><time>2026-04-11T09:58:39.993Z</time></trkpt><trkpt lat="41.773125" lon="2.247335"><ele>422.0</ele><time>2026-04-11T09:58:40.993Z</time></trkpt><trkpt lat="41.7730067" lon="2.2473383"><ele>422.0</ele><time>2026-04-11T09:58:41.993Z</time></trkpt><trkpt lat="41.77288" lon="2.24734"><ele>422.0</ele><time>2026-04-11T09:58:42.993Z</time></trkpt><trkpt lat="41.772745" lon="2.2473433"><ele>422.0</ele><time>2026-04-11T09:58:43.993Z</time></trkpt><trkpt lat="41.77261" lon="2.24735"><ele>422.25</ele><time>2026-04-11T09:58:44.993Z</time></trkpt><trkpt lat="41.772475" lon="2.2473617"><ele>422.5</ele><time>2026-04-11T09:58:45.993Z</time></trkpt><trkpt lat="41.7723367" lon="2.247365"><ele>422.75</ele><time>2026-04-11T09:58:46.993Z</time></trkpt><trkpt lat="41.7721967" lon="2.2473683"><ele>423.0</ele><time>2026-04-11T09:58:47.993Z</time></trkpt><trkpt lat="41.7720617" lon="2.2473683"><ele>423.0</ele><time>2026-04-11T09:58:48.993Z</time></trkpt><trkpt lat="41.77193" lon="2.2473717"><ele>423.0</ele><time>2026-04-11T09:58:49.994Z</time></trkpt><trkpt lat="41.7718033" lon="2.24739"><ele>423.0</ele><time>2026-04-11T09:58:50.993Z</time></trkpt><trkpt lat="41.7716733" lon="2.24741"><ele>423.0</ele><time>2026-04-11T09:58:51.993Z</time></trkpt><trkpt lat="41.7715467" lon="2.24745"><ele>422.5</ele><time>2026-04-11T09:58:52.993Z</time></trkpt><trkpt lat="41.771425" lon="2.247485"><ele>422.0</ele><time>2026-04-11T09:58:53.993Z</time></trkpt><trkpt lat="41.7713" lon="2.2475367"><ele>421.5</ele><time>2026-04-11T09:58:54.993Z</time></trkpt><trkpt lat="41.771185" lon="2.2475817"><ele>421.0</ele><time>2026-04-11T09:58:55.994Z</time></trkpt><trkpt lat="41.7710767" lon="2.2476233"><ele>420.20000000000005</ele><time>2026-04-11T09:58:56.993Z</time></trkpt><trkpt lat="41.770975" lon="2.247665"><ele>419.40000000000003</ele><time>2026-04-11T09:58:57.993Z</time></trkpt><trkpt lat="41.7708833" lon="2.2477167"><ele>418.6</ele><time>2026-04-11T09:58:58.993Z</time></trkpt><trkpt lat="41.7707917" lon="2.24778"><ele>417.8</ele><time>2026-04-11T09:58:59.993Z</time></trkpt><trkpt lat="41.7706883" lon="2.2478383"><ele>417.0</ele><time>2026-04-11T09:59:00.993Z</time></trkpt><trkpt lat="41.7705767" lon="2.2479"><ele>417.0</ele><time>2026-04-11T09:59:01.994Z</time></trkpt><trkpt lat="41.7704783" lon="2.2479833"><ele>417.0</ele><time>2026-04-11T09:59:02.993Z</time></trkpt><trkpt lat="41.7703933" lon="2.248075"><ele>417.0</ele><time>2026-04-11T09:59:03.993Z</time></trkpt><trkpt lat="41.7703017" lon="2.2481817"><ele>417.0</ele><time>2026-04-11T09:59:04.993Z</time></trkpt><trkpt lat="41.77021" lon="2.2483"><ele>415.5</ele><time>2026-04-11T09:59:05.993Z</time></trkpt><trkpt lat="41.7701283" lon="2.24842"><ele>414.0</ele><time>2026-04-11T09:59:06.993Z</time></trkpt><trkpt lat="41.7700517" lon="2.2485367"><ele>412.5</ele><time>2026-04-11T09:59:07.993Z</time></trkpt><trkpt lat="41.7699717" lon="2.2486433"><ele>411.0</ele><time>2026-04-11T09:59:08.99Z</time></trkpt><trkpt lat="41.7698883" lon="2.2487567"><ele>411.0</ele><time>2026-04-11T09:59:09.993Z</time></trkpt><trkpt lat="41.7698083" lon="2.248865"><ele>411.0</ele><time>2026-04-11T09:59:10.993Z</time></trkpt><trkpt lat="41.769725" lon="2.2489783"><ele>411.0</ele><time>2026-04-11T09:59:11.993Z</time></trkpt><trkpt lat="41.7696467" lon="2.2490883"><ele>411.0</ele><time>2026-04-11T09:59:12.994Z</time></trkpt><trkpt lat="41.76957" lon="2.2491933"><ele>411.75</ele><time>2026-04-11T09:59:13.993Z</time></trkpt><trkpt lat="41.7694967" lon="2.2493033"><ele>412.5</ele><time>2026-04-11T09:59:14.993Z</time></trkpt><trkpt lat="41.769415" lon="2.2494067"><ele>413.25</ele><time>2026-04-11T09:59:15.993Z</time></trkpt><trkpt lat="41.7693367" lon="2.2495183"><ele>414.0</ele><time>2026-04-11T09:59:16.993Z</time></trkpt><trkpt lat="41.769255" lon="2.24964"><ele>413.2</ele><time>2026-04-11T09:59:17.993Z</time></trkpt><trkpt lat="41.7691483" lon="2.2497467"><ele>412.4</ele><time>2026-04-11T09:59:18.993Z</time></trkpt><trkpt lat="41.7690667" lon="2.249845"><ele>411.6</ele><time>2026-04-11T09:59:19.993Z</time></trkpt><trkpt lat="41.7689967" lon="2.2499433"><ele>410.8</ele><time>2026-04-11T09:59:20.993Z</time></trkpt><trkpt lat="41.7689417" lon="2.25002"><ele>410.0</ele><time>2026-04-11T09:59:21.993Z</time></trkpt><trkpt lat="41.7688783" lon="2.2501133"><ele>409.99999999999994</ele><time>2026-04-11T09:59:23.993Z</time></trkpt><trkpt lat="41.7688167" lon="2.2501533"><ele>410.0</ele><time>2026-04-11T09:59:33.992Z</time></trkpt><trkpt lat="41.768735" lon="2.250135"><ele>410.0</ele><time>2026-04-11T09:59:35.992Z</time></trkpt><trkpt lat="41.7686817" lon="2.2500667"><ele>410.0</ele><time>2026-04-11T09:59:37.992Z</time></trkpt><trkpt lat="41.7686333" lon="2.249985"><ele>409.99999999999994</ele><time>2026-04-11T09:59:39.993Z</time></trkpt><trkpt lat="41.7685867" lon="2.2499183"><ele>410.0</ele><time>2026-04-11T09:59:41.992Z</time></trkpt><trkpt lat="41.7685167" lon="2.2498667"><ele>409.8333333333333</ele><time>2026-04-11T09:59:44.992Z</time></trkpt><trkpt lat="41.7684433" lon="2.2498783"><ele>409.66666666666663</ele><time>2026-04-11T09:59:48.992Z</time></trkpt><trkpt lat="41.768375" lon="2.2499317"><ele>409.5</ele><time>2026-04-11T09:59:52.992Z</time></trkpt><trkpt lat="41.7683167" lon="2.2499883"><ele>409.33333333333337</ele><time>2026-04-11T09:59:54.993Z</time></trkpt><trkpt lat="41.76826" lon="2.2500367"><ele>409.1666666666667</ele><time>2026-04-11T09:59:56.992Z</time></trkpt><trkpt lat="41.7681917" lon="2.25008"><ele>409.0</ele><time>2026-04-11T09:59:58.992Z</time></trkpt><trkpt lat="41.7681233" lon="2.250155"><ele>409.00000000000006</ele><time>2026-04-11T10:00:01.992Z</time></trkpt><trkpt lat="41.7680783" lon="2.25023"><ele>409.0</ele><time>2026-04-11T10:00:03.992Z</time></trkpt><trkpt lat="41.768025" lon="2.2503033"><ele>409.0</ele><time>2026-04-11T10:00:05.992Z</time></trkpt><trkpt lat="41.7679483" lon="2.2504083"><ele>409.0</ele><time>2026-04-11T10:00:07.993Z</time></trkpt><trkpt lat="41.767895" lon="2.250465"><ele>409.00000000000006</ele><time>2026-04-11T10:00:08.992Z</time></trkpt><trkpt lat="41.7678383" lon="2.2505183"><ele>409.0</ele><time>2026-04-11T10:00:09.992Z</time></trkpt><trkpt lat="41.7677867" lon="2.2505717"><ele>409.0</ele><time>2026-04-11T10:00:10.993Z</time></trkpt><trkpt lat="41.7677067" lon="2.2506867"><ele>409.0</ele><time>2026-04-11T10:00:12.992Z</time></trkpt><trkpt lat="41.7676317" lon="2.2507817"><ele>409.0</ele><time>2026-04-11T10:00:14.992Z</time></trkpt><trkpt lat="41.7675233" lon="2.2508667"><ele>409.0</ele><time>2026-04-11T10:00:16.992Z</time></trkpt><trkpt lat="41.767475" lon="2.2509217"><ele>409.0</ele><time>2026-04-11T10:00:17.992Z</time></trkpt><trkpt lat="41.7674233" lon="2.2509733"><ele>408.6666666666667</ele><time>2026-04-11T10:00:18.992Z</time></trkpt><trkpt lat="41.767365" lon="2.251025"><ele>408.33333333333337</ele><time>2026-04-11T10:00:19.992Z</time></trkpt><trkpt lat="41.7672833" lon="2.25111"><ele>408.0</ele><time>2026-04-11T10:00:20.992Z</time></trkpt><trkpt lat="41.7672133" lon="2.2511633"><ele>407.66666666666663</ele><time>2026-04-11T10:00:21.992Z</time></trkpt><trkpt lat="41.76714" lon="2.2512017"><ele>407.3333333333333</ele><time>2026-04-11T10:00:22.992Z</time></trkpt><trkpt lat="41.7670667" lon="2.251255"><ele>407.0</ele><time>2026-04-11T10:00:23.992Z</time></trkpt><trkpt lat="41.7669983" lon="2.2513233"><ele>407.0</ele><time>2026-04-11T10:00:24.992Z</time></trkpt><trkpt lat="41.7669383" lon="2.2513933"><ele>407.0</ele><time>2026-04-11T10:00:25.992Z</time></trkpt><trkpt lat="41.7668733" lon="2.25147"><ele>407.0</ele><time>2026-04-11T10:00:26.992Z</time></trkpt><trkpt lat="41.7667883" lon="2.2515383"><ele>407.0</ele><time>2026-04-11T10:00:27.992Z</time></trkpt><trkpt lat="41.766705" lon="2.2516183"><ele>407.0</ele><time>2026-04-11T10:00:28.992Z</time></trkpt><trkpt lat="41.766625" lon="2.251685"><ele>406.8333333333333</ele><time>2026-04-11T10:00:29.993Z</time></trkpt><trkpt lat="41.7665617" lon="2.2517533"><ele>406.66666666666663</ele><time>2026-04-11T10:00:30.992Z</time></trkpt><trkpt lat="41.766495" lon="2.2518267"><ele>406.5</ele><time>2026-04-11T10:00:31.993Z</time></trkpt><trkpt lat="41.7664367" lon="2.2519"><ele>406.33333333333337</ele><time>2026-04-11T10:00:32.992Z</time></trkpt><trkpt lat="41.766355" lon="2.2519533"><ele>406.1666666666667</ele><time>2026-04-11T10:00:33.992Z</time></trkpt><trkpt lat="41.7662833" lon="2.25201"><ele>406.0</ele><time>2026-04-11T10:00:34.992Z</time></trkpt><trkpt lat="41.7662183" lon="2.2520767"><ele>406.00000000000006</ele><time>2026-04-11T10:00:35.993Z</time></trkpt><trkpt lat="41.766165" lon="2.2521383"><ele>406.0</ele><time>2026-04-11T10:00:36.992Z</time></trkpt><trkpt lat="41.7660917" lon="2.252185"><ele>406.0</ele><time>2026-04-11T10:00:37.992Z</time></trkpt><trkpt lat="41.766015" lon="2.2522267"><ele>406.0</ele><time>2026-04-11T10:00:38.992Z</time></trkpt><trkpt lat="41.765925" lon="2.25226"><ele>406.00000000000006</ele><time>2026-04-11T10:00:39.992Z</time></trkpt><trkpt lat="41.76585" lon="2.2523033"><ele>406.0</ele><time>2026-04-11T10:00:40.992Z</time></trkpt><trkpt lat="41.765755" lon="2.2523417"><ele>406.00000000000006</ele><time>2026-04-11T10:00:41.992Z</time></trkpt><trkpt lat="41.7656817" lon="2.2523883"><ele>406.0</ele><time>2026-04-11T10:00:42.992Z</time></trkpt><trkpt lat="41.765595" lon="2.2524133"><ele>406.0</ele><time>2026-04-11T10:00:43.992Z</time></trkpt><trkpt lat="41.7655233" lon="2.2524583"><ele>406.0</ele><time>2026-04-11T10:00:44.992Z</time></trkpt><trkpt lat="41.7654433" lon="2.252475"><ele>406.00000000000006</ele><time>2026-04-11T10:00:45.992Z</time></trkpt><trkpt lat="41.7653567" lon="2.2524833"><ele>406.0</ele><time>2026-04-11T10:00:46.992Z</time></trkpt><trkpt lat="41.7652667" lon="2.2524983"><ele>406.1666666666667</ele><time>2026-04-11T10:00:47.992Z</time></trkpt><trkpt lat="41.7651767" lon="2.2525"><ele>406.33333333333337</ele><time>2026-04-11T10:00:48.992Z</time></trkpt><trkpt lat="41.7650783" lon="2.252495"><ele>406.5</ele><time>2026-04-11T10:00:49.992Z</time></trkpt><trkpt lat="41.76498" lon="2.252495"><ele>406.66666666666663</ele><time>2026-04-11T10:00:50.992Z</time></trkpt><trkpt lat="41.7648983" lon="2.2524917"><ele>406.8333333333333</ele><time>2026-04-11T10:00:51.992Z</time></trkpt><trkpt lat="41.7648183" lon="2.2524883"><ele>407.0</ele><time>2026-04-11T10:00:52.992Z</time></trkpt><trkpt lat="41.7647483" lon="2.2524817"><ele>406.99999999999994</ele><time>2026-04-11T10:00:53.992Z</time></trkpt><trkpt lat="41.7646783" lon="2.2524617"><ele>407.0</ele><time>2026-04-11T10:00:54.992Z</time></trkpt><trkpt lat="41.76462" lon="2.2524217"><ele>407.0</ele><time>2026-04-11T10:00:55.992Z</time></trkpt><trkpt lat="41.7645517" lon="2.2523933"><ele>407.0</ele><time>2026-04-11T10:00:56.992Z</time></trkpt><trkpt lat="41.764515" lon="2.2522433"><ele>406.99999999999994</ele><time>2026-04-11T10:00:58.992Z</time></trkpt><trkpt lat="41.76456" lon="2.252135"><ele>407.0</ele><time>2026-04-11T10:00:59.992Z</time></trkpt><trkpt lat="41.7646233" lon="2.2520283"><ele>406.20000000000005</ele><time>2026-04-11T10:01:00.993Z</time></trkpt><trkpt lat="41.7646833" lon="2.2519183"><ele>405.4</ele><time>2026-04-11T10:01:01.992Z</time></trkpt><trkpt lat="41.7647317" lon="2.2518"><ele>404.6</ele><time>2026-04-11T10:01:02.992Z</time></trkpt><trkpt lat="41.7647767" lon="2.2517"><ele>403.79999999999995</ele><time>2026-04-11T10:01:03.992Z</time></trkpt><trkpt lat="41.7648233" lon="2.2516"><ele>403.0</ele><time>2026-04-11T10:01:04.992Z</time></trkpt><trkpt lat="41.7648617" lon="2.2515083"><ele>403.33333333333337</ele><time>2026-04-11T10:01:05.992Z</time></trkpt><trkpt lat="41.7648883" lon="2.2514067"><ele>403.6666666666667</ele><time>2026-04-11T10:01:06.992Z</time></trkpt><trkpt lat="41.7649067" lon="2.2513"><ele>404.0</ele><time>2026-04-11T10:01:07.992Z</time></trkpt><trkpt lat="41.76491" lon="2.2511967"><ele>404.33333333333337</ele><time>2026-04-11T10:01:08.992Z</time></trkpt><trkpt lat="41.7649067" lon="2.2510883"><ele>404.6666666666667</ele><time>2026-04-11T10:01:09.992Z</time></trkpt><trkpt lat="41.7649" lon="2.2509767"><ele>405.0</ele><time>2026-04-11T10:01:10.992Z</time></trkpt><trkpt lat="41.7648833" lon="2.25083"><ele>404.99999999999994</ele><time>2026-04-11T10:01:11.992Z</time></trkpt><trkpt lat="41.7648633" lon="2.25071"><ele>405.0</ele><time>2026-04-11T10:01:12.992Z</time></trkpt><trkpt lat="41.764845" lon="2.2506183"><ele>405.0</ele><time>2026-04-11T10:01:13.992Z</time></trkpt><trkpt lat="41.76483" lon="2.2505217"><ele>405.0</ele><time>2026-04-11T10:01:14.992Z</time></trkpt><trkpt lat="41.7648167" lon="2.2504317"><ele>405.0</ele><time>2026-04-11T10:01:15.992Z</time></trkpt><trkpt lat="41.7648017" lon="2.2503383"><ele>404.99999999999994</ele><time>2026-04-11T10:01:16.992Z</time></trkpt><trkpt lat="41.7647933" lon="2.2502533"><ele>405.0</ele><time>2026-04-11T10:01:17.992Z</time></trkpt><trkpt lat="41.7647767" lon="2.2501633"><ele>405.8333333333333</ele><time>2026-04-11T10:01:18.992Z</time></trkpt><trkpt lat="41.764765" lon="2.2500683"><ele>406.66666666666663</ele><time>2026-04-11T10:01:19.993Z</time></trkpt><trkpt lat="41.764745" lon="2.2499767"><ele>407.5</ele><time>2026-04-11T10:01:20.992Z</time></trkpt><trkpt lat="41.7647267" lon="2.24988"><ele>408.3333333333333</ele><time>2026-04-11T10:01:21.992Z</time></trkpt><trkpt lat="41.764635" lon="2.2497583"><ele>409.16666666666663</ele><time>2026-04-11T10:01:23.992Z</time></trkpt><trkpt lat="41.76456" lon="2.2497383"><ele>410.0</ele><time>2026-04-11T10:01:24.992Z</time></trkpt><trkpt lat="41.76448" lon="2.2497417"><ele>411.4</ele><time>2026-04-11T10:01:25.992Z</time></trkpt><trkpt lat="41.764405" lon="2.24975"><ele>412.8</ele><time>2026-04-11T10:01:26.992Z</time></trkpt><trkpt lat="41.7643383" lon="2.2497567"><ele>414.20000000000005</ele><time>2026-04-11T10:01:27.992Z</time></trkpt><trkpt lat="41.7642083" lon="2.2497633"><ele>415.6</ele><time>2026-04-11T10:01:29.992Z</time></trkpt><trkpt lat="41.764145" lon="2.2497617"><ele>417.0</ele><time>2026-04-11T10:01:30.992Z</time></trkpt><trkpt lat="41.764025" lon="2.249735"><ele>417.0</ele><time>2026-04-11T10:01:32.992Z</time></trkpt><trkpt lat="41.7639417" lon="2.2496717"><ele>417.0</ele><time>2026-04-11T10:01:34.992Z</time></trkpt><trkpt lat="41.7638883" lon="2.2495567"><ele>417.0</ele><time>2026-04-11T10:01:36.992Z</time></trkpt><trkpt lat="41.7638633" lon="2.2494283"><ele>417.0</ele><time>2026-04-11T10:01:38.992Z</time></trkpt><trkpt lat="41.7638567" lon="2.2492783"><ele>417.0</ele><time>2026-04-11T10:01:40.992Z</time></trkpt><trkpt lat="41.763825" lon="2.2491383"><ele>417.0</ele><time>2026-04-11T10:01:42.993Z</time></trkpt><trkpt lat="41.7637917" lon="2.2490417"><ele>417.0</ele><time>2026-04-11T10:01:44.992Z</time></trkpt><trkpt lat="41.7637683" lon="2.248945"><ele>417.0</ele><time>2026-04-11T10:01:48.992Z</time></trkpt><trkpt lat="41.763685" lon="2.2489417"><ele>417.0</ele><time>2026-04-11T10:02:57.992Z</time></trkpt><trkpt lat="41.7636217" lon="2.2489667"><ele>417.0</ele><time>2026-04-11T10:02:58.992Z</time></trkpt><trkpt lat="41.76355" lon="2.2489983"><ele>417.0</ele><time>2026-04-11T10:02:59.992Z</time></trkpt><trkpt lat="41.7634733" lon="2.2490333"><ele>417.8</ele><time>2026-04-11T10:03:00.992Z</time></trkpt><trkpt lat="41.7633933" lon="2.2490683"><ele>418.6</ele><time>2026-04-11T10:03:01.992Z</time></trkpt><trkpt lat="41.76332" lon="2.249105"><ele>419.40000000000003</ele><time>2026-04-11T10:03:02.992Z</time></trkpt><trkpt lat="41.7632467" lon="2.2491267"><ele>420.20000000000005</ele><time>2026-04-11T10:03:03.992Z</time></trkpt><trkpt lat="41.7631067" lon="2.2491483"><ele>421.0</ele><time>2026-04-11T10:03:05.992Z</time></trkpt><trkpt lat="41.76301" lon="2.2491417"><ele>421.0</ele><time>2026-04-11T10:03:06.992Z</time></trkpt><trkpt lat="41.7629033" lon="2.249125"><ele>421.0</ele><time>2026-04-11T10:03:07.992Z</time></trkpt><trkpt lat="41.7627867" lon="2.24909"><ele>421.0</ele><time>2026-04-11T10:03:08.992Z</time></trkpt><trkpt lat="41.7626617" lon="2.2490567"><ele>421.0</ele><time>2026-04-11T10:03:09.992Z</time></trkpt><trkpt lat="41.762535" lon="2.2490183"><ele>421.6</ele><time>2026-04-11T10:03:10.992Z</time></trkpt><trkpt lat="41.7624167" lon="2.2489883"><ele>422.20000000000005</ele><time>2026-04-11T10:03:11.992Z</time></trkpt><trkpt lat="41.76231" lon="2.2489583"><ele>422.79999999999995</ele><time>2026-04-11T10:03:12.992Z</time></trkpt><trkpt lat="41.7622333" lon="2.2489333"><ele>423.4</ele><time>2026-04-11T10:03:13.992Z</time></trkpt><trkpt lat="41.76218" lon="2.2488517"><ele>424.0</ele><time>2026-04-11T10:03:15.992Z</time></trkpt><trkpt lat="41.762225" lon="2.2487383"><ele>425.6666666666667</ele><time>2026-04-11T10:03:17.992Z</time></trkpt><trkpt lat="41.762255" lon="2.2486517"><ele>427.33333333333337</ele><time>2026-04-11T10:03:18.992Z</time></trkpt><trkpt lat="41.7622667" lon="2.24856"><ele>429.0</ele><time>2026-04-11T10:03:19.992Z</time></trkpt><trkpt lat="41.7622133" lon="2.2484283"><ele>430.66666666666663</ele><time>2026-04-11T10:03:21.992Z</time></trkpt><trkpt lat="41.7621567" lon="2.2483883"><ele>432.3333333333333</ele><time>2026-04-11T10:03:22.992Z</time></trkpt><trkpt lat="41.7620717" lon="2.24837"><ele>434.0</ele><time>2026-04-11T10:03:23.992Z</time></trkpt><trkpt lat="41.7619683" lon="2.24836"><ele>433.5</ele><time>2026-04-11T10:03:24.992Z</time></trkpt><trkpt lat="41.76183" lon="2.2483467"><ele>433.0</ele><time>2026-04-11T10:03:25.992Z</time></trkpt><trkpt lat="41.761685" lon="2.2483217"><ele>432.5</ele><time>2026-04-11T10:03:26.992Z</time></trkpt><trkpt lat="41.7615417" lon="2.24829"><ele>432.0</ele><time>2026-04-11T10:03:27.992Z</time></trkpt><trkpt lat="41.7614067" lon="2.2482617"><ele>432.0</ele><time>2026-04-11T10:03:28.992Z</time></trkpt><trkpt lat="41.7612517" lon="2.2482433"><ele>432.0</ele><time>2026-04-11T10:03:29.992Z</time></trkpt><trkpt lat="41.761115" lon="2.2482183"><ele>432.0</ele><time>2026-04-11T10:03:30.992Z</time></trkpt><trkpt lat="41.761" lon="2.24822"><ele>432.0</ele><time>2026-04-11T10:03:31.992Z</time></trkpt><trkpt lat="41.7609083" lon="2.2482133"><ele>431.0</ele><time>2026-04-11T10:03:32.992Z</time></trkpt><trkpt lat="41.76084" lon="2.2482017"><ele>430.0</ele><time>2026-04-11T10:03:33.992Z</time></trkpt><trkpt lat="41.7608" lon="2.24812"><ele>429.0</ele><time>2026-04-11T10:03:36.992Z</time></trkpt><trkpt lat="41.7608367" lon="2.2479917"><ele>428.0</ele><time>2026-04-11T10:03:38.992Z</time></trkpt><trkpt lat="41.7608633" lon="2.24789"><ele>427.0</ele><time>2026-04-11T10:03:39.992Z</time></trkpt><trkpt lat="41.7608717" lon="2.247785"><ele>426.0</ele><time>2026-04-11T10:03:40.993Z</time></trkpt><trkpt lat="41.7608717" lon="2.2476783"><ele>428.8333333333333</ele><time>2026-04-11T10:03:41.992Z</time></trkpt><trkpt lat="41.7608233" lon="2.2476083"><ele>431.66666666666663</ele><time>2026-04-11T10:03:42.992Z</time></trkpt><trkpt lat="41.7607617" lon="2.2475567"><ele>434.5</ele><time>2026-04-11T10:03:43.992Z</time></trkpt><trkpt lat="41.7606817" lon="2.2475217"><ele>437.3333333333333</ele><time>2026-04-11T10:03:44.992Z</time></trkpt><trkpt lat="41.7605783" lon="2.2475133"><ele>440.16666666666663</ele><time>2026-04-11T10:03:45.992Z</time></trkpt><trkpt lat="41.7604633" lon="2.2475067"><ele>443.0</ele><time>2026-04-11T10:03:46.992Z</time></trkpt><trkpt lat="41.7603483" lon="2.247505"><ele>443.0</ele><time>2026-04-11T10:03:47.992Z</time></trkpt><trkpt lat="41.76024" lon="2.2475083"><ele>442.99999999999994</ele><time>2026-04-11T10:03:48.992Z</time></trkpt><trkpt lat="41.760145" lon="2.2475117"><ele>442.99999999999994</ele><time>2026-04-11T10:03:49.992Z</time></trkpt><trkpt lat="41.7600567" lon="2.2475017"><ele>443.0</ele><time>2026-04-11T10:03:50.992Z</time></trkpt><trkpt lat="41.7599733" lon="2.247505"><ele>443.0</ele><time>2026-04-11T10:03:51.992Z</time></trkpt><trkpt lat="41.759895" lon="2.2474883"><ele>442.49999999999994</ele><time>2026-04-11T10:03:52.992Z</time></trkpt><trkpt lat="41.7598183" lon="2.2474617"><ele>442.0</ele><time>2026-04-11T10:03:53.992Z</time></trkpt><trkpt lat="41.7597517" lon="2.2474317"><ele>441.5</ele><time>2026-04-11T10:03:54.992Z</time></trkpt><trkpt lat="41.7596533" lon="2.247375"><ele>441.0</ele><time>2026-04-11T10:03:56.992Z</time></trkpt><trkpt lat="41.759555" lon="2.247335"><ele>440.49999999999994</ele><time>2026-04-11T10:04:07.992Z</time></trkpt><trkpt lat="41.7594833" lon="2.2473017"><ele>440.0</ele><time>2026-04-11T10:04:08.992Z</time></trkpt><trkpt lat="41.75939" lon="2.2472467"><ele>440.8333333333333</ele><time>2026-04-11T10:04:09.992Z</time></trkpt><trkpt lat="41.7593133" lon="2.2471967"><ele>441.66666666666663</ele><time>2026-04-11T10:04:10.992Z</time></trkpt><trkpt lat="41.7592483" lon="2.2471483"><ele>442.5</ele><time>2026-04-11T10:04:11.992Z</time></trkpt><trkpt lat="41.75919" lon="2.2470917"><ele>443.33333333333337</ele><time>2026-04-11T10:04:12.993Z</time></trkpt><trkpt lat="41.7591433" lon="2.2469383"><ele>444.1666666666667</ele><time>2026-04-11T10:04:14.992Z</time></trkpt><trkpt lat="41.7591433" lon="2.2468267"><ele>445.0</ele><time>2026-04-11T10:04:15.992Z</time></trkpt><trkpt lat="41.7591383" lon="2.24669"><ele>445.0</ele><time>2026-04-11T10:04:16.992Z</time></trkpt><trkpt lat="41.759135" lon="2.2465483"><ele>445.0</ele><time>2026-04-11T10:04:17.992Z</time></trkpt><trkpt lat="41.759135" lon="2.2464167"><ele>445.0</ele><time>2026-04-11T10:04:18.992Z</time></trkpt><trkpt lat="41.7591383" lon="2.2462833"><ele>445.0</ele><time>2026-04-11T10:04:19.992Z</time></trkpt><trkpt lat="41.7591417" lon="2.2461583"><ele>445.0</ele><time>2026-04-11T10:04:20.992Z</time></trkpt><trkpt lat="41.7591383" lon="2.24605"><ele>447.1666666666667</ele><time>2026-04-11T10:04:21.992Z</time></trkpt><trkpt lat="41.7591183" lon="2.2459667"><ele>449.33333333333337</ele><time>2026-04-11T10:04:22.992Z</time></trkpt><trkpt lat="41.7590533" lon="2.24586"><ele>451.5</ele><time>2026-04-11T10:04:24.992Z</time></trkpt><trkpt lat="41.758945" lon="2.2458433"><ele>453.66666666666663</ele><time>2026-04-11T10:04:26.992Z</time></trkpt><trkpt lat="41.7588733" lon="2.2458817"><ele>455.8333333333333</ele><time>2026-04-11T10:04:27.992Z</time></trkpt><trkpt lat="41.758795" lon="2.2459283"><ele>458.0</ele><time>2026-04-11T10:04:28.992Z</time></trkpt><trkpt lat="41.7587117" lon="2.245985"><ele>458.0</ele><time>2026-04-11T10:04:29.993Z</time></trkpt><trkpt lat="41.7586217" lon="2.2460217"><ele>457.99999999999994</ele><time>2026-04-11T10:04:30.992Z</time></trkpt><trkpt lat="41.7585283" lon="2.24605"><ele>457.99999999999994</ele><time>2026-04-11T10:04:31.992Z</time></trkpt><trkpt lat="41.7584133" lon="2.2460633"><ele>458.0</ele><time>2026-04-11T10:04:32.992Z</time></trkpt><trkpt lat="41.7583033" lon="2.2460683"><ele>458.0</ele><time>2026-04-11T10:04:33.992Z</time></trkpt><trkpt lat="41.7582167" lon="2.2460717"><ele>458.79999999999995</ele><time>2026-04-11T10:04:34.992Z</time></trkpt><trkpt lat="41.7581367" lon="2.2461183"><ele>459.59999999999997</ele><time>2026-04-11T10:04:37.992Z</time></trkpt><trkpt lat="41.7580967" lon="2.2462717"><ele>460.40000000000003</ele><time>2026-04-11T10:04:39.992Z</time></trkpt><trkpt lat="41.7580767" lon="2.2463633"><ele>461.20000000000005</ele><time>2026-04-11T10:04:40.992Z</time></trkpt><trkpt lat="41.7580483" lon="2.2465"><ele>462.0</ele><time>2026-04-11T10:04:42.992Z</time></trkpt><trkpt lat="41.757965" lon="2.2465483"><ele>459.20000000000005</ele><time>2026-04-11T10:04:44.992Z</time></trkpt><trkpt lat="41.7578983" lon="2.2465467"><ele>456.40000000000003</ele><time>2026-04-11T10:04:45.992Z</time></trkpt><trkpt lat="41.757815" lon="2.24654"><ele>453.59999999999997</ele><time>2026-04-11T10:04:46.992Z</time></trkpt><trkpt lat="41.757705" lon="2.24652"><ele>450.79999999999995</ele><time>2026-04-11T10:04:47.992Z</time></trkpt><trkpt lat="41.7575983" lon="2.2465083"><ele>448.0</ele><time>2026-04-11T10:04:48.992Z</time></trkpt><trkpt lat="41.7575" lon="2.2465033"><ele>448.1666666666667</ele><time>2026-04-11T10:04:49.992Z</time></trkpt><trkpt lat="41.75741" lon="2.2464967"><ele>448.33333333333337</ele><time>2026-04-11T10:04:50.992Z</time></trkpt><trkpt lat="41.7573233" lon="2.24648"><ele>448.5</ele><time>2026-04-11T10:04:51.992Z</time></trkpt><trkpt lat="41.757255" lon="2.2464533"><ele>448.66666666666663</ele><time>2026-04-11T10:04:52.992Z</time></trkpt><trkpt lat="41.7571533" lon="2.2463817"><ele>448.8333333333333</ele><time>2026-04-11T10:04:54.992Z</time></trkpt><trkpt lat="41.757115" lon="2.24631"><ele>449.0</ele><time>2026-04-11T10:04:55.992Z</time></trkpt><trkpt lat="41.7571067" lon="2.24621"><ele>449.0</ele><time>2026-04-11T10:04:56.992Z</time></trkpt><trkpt lat="41.7571333" lon="2.2460917"><ele>449.0</ele><time>2026-04-11T10:04:57.992Z</time></trkpt><trkpt lat="41.757185" lon="2.2459667"><ele>449.0</ele><time>2026-04-11T10:04:58.992Z</time></trkpt><trkpt lat="41.7572433" lon="2.2458133"><ele>449.0</ele><time>2026-04-11T10:04:59.992Z</time></trkpt><trkpt lat="41.7572867" lon="2.245645"><ele>450.2</ele><time>2026-04-11T10:05:00.992Z</time></trkpt><trkpt lat="41.757295" lon="2.2454883"><ele>451.4</ele><time>2026-04-11T10:05:01.992Z</time></trkpt><trkpt lat="41.7572833" lon="2.245355"><ele>452.6</ele><time>2026-04-11T10:05:02.992Z</time></trkpt><trkpt lat="41.7572433" lon="2.2452383"><ele>453.8</ele><time>2026-04-11T10:05:03.992Z</time></trkpt><trkpt lat="41.7571867" lon="2.2451317"><ele>455.0</ele><time>2026-04-11T10:05:04.992Z</time></trkpt><trkpt lat="41.7571233" lon="2.245015"><ele>455.0</ele><time>2026-04-11T10:05:05.992Z</time></trkpt><trkpt lat="41.7570683" lon="2.244885"><ele>455.0</ele><time>2026-04-11T10:05:06.992Z</time></trkpt><trkpt lat="41.757015" lon="2.2447267"><ele>455.0</ele><time>2026-04-11T10:05:07.992Z</time></trkpt><trkpt lat="41.7569733" lon="2.2445583"><ele>455.0</ele><time>2026-04-11T10:05:08.992Z</time></trkpt><trkpt lat="41.7569333" lon="2.2443817"><ele>454.75</ele><time>2026-04-11T10:05:09.992Z</time></trkpt><trkpt lat="41.7569" lon="2.2442167"><ele>454.5</ele><time>2026-04-11T10:05:10.992Z</time></trkpt><trkpt lat="41.7568733" lon="2.2440483"><ele>454.25</ele><time>2026-04-11T10:05:11.992Z</time></trkpt><trkpt lat="41.7568633" lon="2.2438933"><ele>454.0</ele><time>2026-04-11T10:05:12.993Z</time></trkpt><trkpt lat="41.7568683" lon="2.2437617"><ele>452.79999999999995</ele><time>2026-04-11T10:05:13.992Z</time></trkpt><trkpt lat="41.7569117" lon="2.2436417"><ele>451.59999999999997</ele><time>2026-04-11T10:05:14.992Z</time></trkpt><trkpt lat="41.7569683" lon="2.243525"><ele>450.4</ele><time>2026-04-11T10:05:15.992Z</time></trkpt><trkpt lat="41.757025" lon="2.243405"><ele>449.2</ele><time>2026-04-11T10:05:16.992Z</time></trkpt><trkpt lat="41.75706" lon="2.2432917"><ele>448.0</ele><time>2026-04-11T10:05:17.992Z</time></trkpt><trkpt lat="41.75707" lon="2.2431817"><ele>447.2</ele><time>2026-04-11T10:05:18.992Z</time></trkpt><trkpt lat="41.7570583" lon="2.2430683"><ele>446.4</ele><time>2026-04-11T10:05:19.992Z</time></trkpt><trkpt lat="41.75702" lon="2.2429583"><ele>445.59999999999997</ele><time>2026-04-11T10:05:20.992Z</time></trkpt><trkpt lat="41.7569667" lon="2.2428483"><ele>444.79999999999995</ele><time>2026-04-11T10:05:21.992Z</time></trkpt><trkpt lat="41.7568933" lon="2.2427483"><ele>444.0</ele><time>2026-04-11T10:05:22.992Z</time></trkpt><trkpt lat="41.756805" lon="2.24268"><ele>443.3333333333333</ele><time>2026-04-11T10:05:23.992Z</time></trkpt><trkpt lat="41.7567183" lon="2.2426733"><ele>442.66666666666663</ele><time>2026-04-11T10:05:24.992Z</time></trkpt><trkpt lat="41.7566317" lon="2.242695"><ele>442.0</ele><time>2026-04-11T10:05:25.992Z</time></trkpt><trkpt lat="41.7565483" lon="2.2427233"><ele>441.3333333333333</ele><time>2026-04-11T10:05:26.992Z</time></trkpt><trkpt lat="41.7564717" lon="2.2427533"><ele>440.66666666666663</ele><time>2026-04-11T10:05:27.992Z</time></trkpt><trkpt lat="41.7564067" lon="2.242775"><ele>440.0</ele><time>2026-04-11T10:05:28.992Z</time></trkpt><trkpt lat="41.756335" lon="2.2427867"><ele>439.99999999999994</ele><time>2026-04-11T10:05:29.992Z</time></trkpt><trkpt lat="41.7562783" lon="2.2428317"><ele>440.0</ele><time>2026-04-11T10:05:31.992Z</time></trkpt><trkpt lat="41.75636" lon="2.242845"><ele>440.0</ele><time>2026-04-11T10:05:35.992Z</time></trkpt><trkpt lat="41.7564383" lon="2.2427633"><ele>440.0</ele><time>2026-04-11T10:05:37.992Z</time></trkpt><trkpt lat="41.7565" lon="2.2427183"><ele>439.99999999999994</ele><time>2026-04-11T10:05:38.992Z</time></trkpt><trkpt lat="41.7565633" lon="2.242685"><ele>440.0</ele><time>2026-04-11T10:05:39.992Z</time></trkpt><trkpt lat="41.75664" lon="2.2426533"><ele>439.99999999999994</ele><time>2026-04-11T10:05:40.992Z</time></trkpt><trkpt lat="41.7567167" lon="2.2426383"><ele>440.0</ele><time>2026-04-11T10:05:41.992Z</time></trkpt><trkpt lat="41.7567883" lon="2.24264"><ele>440.0</ele><time>2026-04-11T10:05:42.992Z</time></trkpt><trkpt lat="41.75689" lon="2.2426833"><ele>440.0</ele><time>2026-04-11T10:05:44.992Z</time></trkpt><trkpt lat="41.7569117" lon="2.242575"><ele>439.99999999999994</ele><time>2026-04-11T10:05:48.992Z</time></trkpt><trkpt lat="41.75684" lon="2.2424817"><ele>440.0</ele><time>2026-04-11T10:05:50.993Z</time></trkpt><trkpt lat="41.7567667" lon="2.242425"><ele>439.99999999999994</ele><time>2026-04-11T10:05:52.992Z</time></trkpt><trkpt lat="41.7566967" lon="2.2424033"><ele>440.0</ele><time>2026-04-11T10:05:54.992Z</time></trkpt><trkpt lat="41.7566217" lon="2.242365"><ele>440.0</ele><time>2026-04-11T10:05:56.992Z</time></trkpt><trkpt lat="41.7565667" lon="2.2422617"><ele>440.0</ele><time>2026-04-11T10:05:58.992Z</time></trkpt><trkpt lat="41.7564967" lon="2.24218"><ele>439.99999999999994</ele><time>2026-04-11T10:06:00.992Z</time></trkpt><trkpt lat="41.75643" lon="2.2420983"><ele>440.0</ele><time>2026-04-11T10:06:02.992Z</time></trkpt><trkpt lat="41.7563517" lon="2.2420133"><ele>442.3333333333333</ele><time>2026-04-11T10:06:04.992Z</time></trkpt><trkpt lat="41.7562733" lon="2.241915"><ele>444.66666666666663</ele><time>2026-04-11T10:06:06.992Z</time></trkpt><trkpt lat="41.7562167" lon="2.24187"><ele>447.0</ele><time>2026-04-11T10:06:08.992Z</time></trkpt><trkpt lat="41.75615" lon="2.241815"><ele>449.33333333333337</ele><time>2026-04-11T10:06:10.992Z</time></trkpt><trkpt lat="41.7560833" lon="2.2418017"><ele>451.6666666666667</ele><time>2026-04-11T10:06:12.992Z</time></trkpt><trkpt lat="41.7559983" lon="2.2418533"><ele>454.0</ele><time>2026-04-11T10:06:14.992Z</time></trkpt><trkpt lat="41.7559167" lon="2.2419617"><ele>454.1666666666667</ele><time>2026-04-11T10:06:16.991Z</time></trkpt><trkpt lat="41.755865" lon="2.2420383"><ele>454.33333333333337</ele><time>2026-04-11T10:06:17.991Z</time></trkpt><trkpt lat="41.7558033" lon="2.2421167"><ele>454.5</ele><time>2026-04-11T10:06:18.991Z</time></trkpt><trkpt lat="41.7557583" lon="2.2422067"><ele>454.66666666666663</ele><time>2026-04-11T10:06:19.991Z</time></trkpt><trkpt lat="41.75572" lon="2.242285"><ele>454.8333333333333</ele><time>2026-04-11T10:06:20.991Z</time></trkpt><trkpt lat="41.755655" lon="2.2424417"><ele>455.0</ele><time>2026-04-11T10:06:22.991Z</time></trkpt><trkpt lat="41.7555983" lon="2.2425333"><ele>454.99999999999994</ele><time>2026-04-11T10:06:23.991Z</time></trkpt><trkpt lat="41.7555367" lon="2.2426217"><ele>455.0</ele><time>2026-04-11T10:06:24.991Z</time></trkpt><trkpt lat="41.755475" lon="2.242705"><ele>455.0</ele><time>2026-04-11T10:06:25.991Z</time></trkpt><trkpt lat="41.7554083" lon="2.2427717"><ele>455.0</ele><time>2026-04-11T10:06:26.991Z</time></trkpt><trkpt lat="41.7553417" lon="2.2428367"><ele>454.99999999999994</ele><time>2026-04-11T10:06:27.991Z</time></trkpt><trkpt lat="41.75527" lon="2.2429"><ele>455.0</ele><time>2026-04-11T10:06:28.991Z</time></trkpt><trkpt lat="41.7552067" lon="2.2429867"><ele>454.0</ele><time>2026-04-11T10:06:29.991Z</time></trkpt><trkpt lat="41.7551467" lon="2.2430667"><ele>453.0</ele><time>2026-04-11T10:06:30.991Z</time></trkpt><trkpt lat="41.7550917" lon="2.2431433"><ele>452.0</ele><time>2026-04-11T10:06:31.991Z</time></trkpt><trkpt lat="41.7550167" lon="2.24323"><ele>451.0</ele><time>2026-04-11T10:06:32.991Z</time></trkpt><trkpt lat="41.7549417" lon="2.2433117"><ele>450.0</ele><time>2026-04-11T10:06:33.991Z</time></trkpt><trkpt lat="41.75486" lon="2.2433883"><ele>450.0</ele><time>2026-04-11T10:06:34.991Z</time></trkpt><trkpt lat="41.7547733" lon="2.2434733"><ele>450.0</ele><time>2026-04-11T10:06:35.991Z</time></trkpt><trkpt lat="41.7546967" lon="2.24355"><ele>450.0</ele><time>2026-04-11T10:06:36.991Z</time></trkpt><trkpt lat="41.75462" lon="2.2436283"><ele>450.0</ele><time>2026-04-11T10:06:37.991Z</time></trkpt><trkpt lat="41.7545417" lon="2.2436917"><ele>450.0</ele><time>2026-04-11T10:06:38.991Z</time></trkpt><trkpt lat="41.7544767" lon="2.24372"><ele>450.0</ele><time>2026-04-11T10:06:39.991Z</time></trkpt><trkpt lat="41.7544" lon="2.24375"><ele>450.0</ele><time>2026-04-11T10:06:40.991Z</time></trkpt><trkpt lat="41.7543217" lon="2.2437817"><ele>450.0</ele><time>2026-04-11T10:06:41.992Z</time></trkpt><trkpt lat="41.7542533" lon="2.2437933"><ele>450.0</ele><time>2026-04-11T10:06:42.991Z</time></trkpt><trkpt lat="41.7541833" lon="2.243785"><ele>450.0</ele><time>2026-04-11T10:06:43.991Z</time></trkpt><trkpt lat="41.7541233" lon="2.2437433"><ele>450.0</ele><time>2026-04-11T10:06:44.991Z</time></trkpt><trkpt lat="41.7540483" lon="2.2436883"><ele>450.2</ele><time>2026-04-11T10:06:45.991Z</time></trkpt><trkpt lat="41.7539767" lon="2.2436167"><ele>450.4</ele><time>2026-04-11T10:06:46.991Z</time></trkpt><trkpt lat="41.75389" lon="2.2435367"><ele>450.6</ele><time>2026-04-11T10:06:47.991Z</time></trkpt><trkpt lat="41.7538" lon="2.243465"><ele>450.8</ele><time>2026-04-11T10:06:48.991Z</time></trkpt><trkpt lat="41.75373" lon="2.2433983"><ele>451.0</ele><time>2026-04-11T10:06:49.991Z</time></trkpt><trkpt lat="41.7536733" lon="2.243345"><ele>451.0</ele><time>2026-04-11T10:06:50.991Z</time></trkpt><trkpt lat="41.7536133" lon="2.2432883"><ele>451.0</ele><time>2026-04-11T10:06:51.991Z</time></trkpt><trkpt lat="41.7535433" lon="2.2432217"><ele>451.0</ele><time>2026-04-11T10:06:52.991Z</time></trkpt><trkpt lat="41.7534817" lon="2.243155"><ele>451.0</ele><time>2026-04-11T10:06:53.991Z</time></trkpt><trkpt lat="41.753395" lon="2.243025"><ele>451.0</ele><time>2026-04-11T10:06:55.991Z</time></trkpt><trkpt lat="41.753355" lon="2.24293"><ele>449.75</ele><time>2026-04-11T10:06:56.991Z</time></trkpt><trkpt lat="41.7533217" lon="2.2428117"><ele>448.5</ele><time>2026-04-11T10:06:57.991Z</time></trkpt><trkpt lat="41.7532733" lon="2.242665"><ele>447.25</ele><time>2026-04-11T10:06:58.991Z</time></trkpt><trkpt lat="41.7532283" lon="2.2424983"><ele>446.0</ele><time>2026-04-11T10:06:59.991Z</time></trkpt><trkpt lat="41.7531783" lon="2.2423567"><ele>448.8</ele><time>2026-04-11T10:07:00.991Z</time></trkpt><trkpt lat="41.7531183" lon="2.2422383"><ele>451.6</ele><time>2026-04-11T10:07:01.991Z</time></trkpt><trkpt lat="41.7530483" lon="2.242135"><ele>454.4</ele><time>2026-04-11T10:07:02.991Z</time></trkpt><trkpt lat="41.752975" lon="2.2420167"><ele>457.2</ele><time>2026-04-11T10:07:03.991Z</time></trkpt><trkpt lat="41.7529017" lon="2.24189"><ele>460.0</ele><time>2026-04-11T10:07:04.991Z</time></trkpt><trkpt lat="41.75284" lon="2.24178"><ele>460.0</ele><time>2026-04-11T10:07:05.991Z</time></trkpt><trkpt lat="41.7527983" lon="2.2416817"><ele>460.0</ele><time>2026-04-11T10:07:06.992Z</time></trkpt><trkpt lat="41.75276" lon="2.2415833"><ele>460.0</ele><time>2026-04-11T10:07:07.991Z</time></trkpt><trkpt lat="41.7527167" lon="2.2415"><ele>460.0</ele><time>2026-04-11T10:07:08.991Z</time></trkpt><trkpt lat="41.7526083" lon="2.24148"><ele>460.0</ele><time>2026-04-11T10:07:10.991Z</time></trkpt><trkpt lat="41.75253" lon="2.2416283"><ele>457.4</ele><time>2026-04-11T10:07:12.991Z</time></trkpt><trkpt lat="41.7525117" lon="2.241765"><ele>454.8</ele><time>2026-04-11T10:07:13.991Z</time></trkpt><trkpt lat="41.752505" lon="2.2418967"><ele>452.20000000000005</ele><time>2026-04-11T10:07:14.991Z</time></trkpt><trkpt lat="41.752515" lon="2.2420467"><ele>449.6</ele><time>2026-04-11T10:07:15.992Z</time></trkpt><trkpt lat="41.752515" lon="2.2422117"><ele>447.0</ele><time>2026-04-11T10:07:16.991Z</time></trkpt><trkpt lat="41.752475" lon="2.2423717"><ele>445.75</ele><time>2026-04-11T10:07:17.991Z</time></trkpt><trkpt lat="41.7524383" lon="2.2425233"><ele>444.5</ele><time>2026-04-11T10:07:18.991Z</time></trkpt><trkpt lat="41.7523883" lon="2.2426683"><ele>443.25</ele><time>2026-04-11T10:07:19.991Z</time></trkpt><trkpt lat="41.75235" lon="2.2428233"><ele>442.0</ele><time>2026-04-11T10:07:20.991Z</time></trkpt><trkpt lat="41.7523" lon="2.2430167"><ele>441.33333333333337</ele><time>2026-04-11T10:07:21.991Z</time></trkpt><trkpt lat="41.7522417" lon="2.243215"><ele>440.66666666666663</ele><time>2026-04-11T10:07:22.991Z</time></trkpt><trkpt lat="41.7521717" lon="2.2434083"><ele>440.0</ele><time>2026-04-11T10:07:23.991Z</time></trkpt><trkpt lat="41.7521017" lon="2.2435833"><ele>440.0</ele><time>2026-04-11T10:07:24.991Z</time></trkpt><trkpt lat="41.7520217" lon="2.2437417"><ele>440.0</ele><time>2026-04-11T10:07:25.991Z</time></trkpt><trkpt lat="41.751945" lon="2.2438983"><ele>440.0</ele><time>2026-04-11T10:07:26.991Z</time></trkpt><trkpt lat="41.7518767" lon="2.244045"><ele>440.0</ele><time>2026-04-11T10:07:27.991Z</time></trkpt><trkpt lat="41.75183" lon="2.2442167"><ele>444.6</ele><time>2026-04-11T10:07:28.991Z</time></trkpt><trkpt lat="41.7517983" lon="2.2443767"><ele>449.2</ele><time>2026-04-11T10:07:29.991Z</time></trkpt><trkpt lat="41.751805" lon="2.2445333"><ele>453.79999999999995</ele><time>2026-04-11T10:07:30.991Z</time></trkpt><trkpt lat="41.7517867" lon="2.24467"><ele>458.4</ele><time>2026-04-11T10:07:31.991Z</time></trkpt><trkpt lat="41.751735" lon="2.2447833"><ele>463.0</ele><time>2026-04-11T10:07:32.991Z</time></trkpt><trkpt lat="41.7516467" lon="2.24494"><ele>463.0</ele><time>2026-04-11T10:07:33.992Z</time></trkpt><trkpt lat="41.75155" lon="2.2450617"><ele>463.0</ele><time>2026-04-11T10:07:34.991Z</time></trkpt><trkpt lat="41.7514517" lon="2.245215"><ele>463.0</ele><time>2026-04-11T10:07:35.991Z</time></trkpt><trkpt lat="41.751365" lon="2.2454133"><ele>463.0</ele><time>2026-04-11T10:07:36.991Z</time></trkpt><trkpt lat="41.75133" lon="2.24558"><ele>463.0</ele><time>2026-04-11T10:07:37.991Z</time></trkpt><trkpt lat="41.7513167" lon="2.24575"><ele>463.0</ele><time>2026-04-11T10:07:38.991Z</time></trkpt><trkpt lat="41.7513317" lon="2.2459367"><ele>463.0</ele><time>2026-04-11T10:07:39.991Z</time></trkpt><trkpt lat="41.7513483" lon="2.2461383"><ele>462.75</ele><time>2026-04-11T10:07:40.991Z</time></trkpt><trkpt lat="41.7513667" lon="2.246345"><ele>462.5</ele><time>2026-04-11T10:07:41.991Z</time></trkpt><trkpt lat="41.75138" lon="2.24654"><ele>462.25</ele><time>2026-04-11T10:07:42.991Z</time></trkpt><trkpt lat="41.7513617" lon="2.2466933"><ele>462.0</ele><time>2026-04-11T10:07:43.991Z</time></trkpt><trkpt lat="41.7513333" lon="2.2468133"><ele>462.75</ele><time>2026-04-11T10:07:44.991Z</time></trkpt><trkpt lat="41.75124" lon="2.24694"><ele>463.5</ele><time>2026-04-11T10:07:46.991Z</time></trkpt><trkpt lat="41.7511217" lon="2.2469617"><ele>464.25</ele><time>2026-04-11T10:07:48.991Z</time></trkpt><trkpt lat="41.75102" lon="2.2468417"><ele>465.0</ele><time>2026-04-11T10:07:50.991Z</time></trkpt><trkpt lat="41.750975" lon="2.24676"><ele>465.0</ele><time>2026-04-11T10:07:51.991Z</time></trkpt><trkpt lat="41.750935" lon="2.2466717"><ele>465.0</ele><time>2026-04-11T10:07:52.991Z</time></trkpt><trkpt lat="41.75088" lon="2.2465583"><ele>465.0</ele><time>2026-04-11T10:07:54.991Z</time></trkpt><trkpt lat="41.7509267" lon="2.246645"><ele>465.0</ele><time>2026-04-11T10:08:07.991Z</time></trkpt><trkpt lat="41.7509833" lon="2.24672"><ele>465.0</ele><time>2026-04-11T10:08:08.991Z</time></trkpt><trkpt lat="41.7510317" lon="2.2468033"><ele>465.0</ele><time>2026-04-11T10:08:09.991Z</time></trkpt><trkpt lat="41.7510767" lon="2.2468683"><ele>465.0</ele><time>2026-04-11T10:08:10.991Z</time></trkpt><trkpt lat="41.75114" lon="2.2469633"><ele>465.0</ele><time>2026-04-11T10:08:12.991Z</time></trkpt><trkpt lat="41.7511717" lon="2.24707"><ele>465.0</ele><time>2026-04-11T10:08:15.991Z</time></trkpt><trkpt lat="41.7510883" lon="2.2471"><ele>465.0</ele><time>2026-04-11T10:08:17.991Z</time></trkpt><trkpt lat="41.7510183" lon="2.2471017"><ele>465.0</ele><time>2026-04-11T10:08:18.991Z</time></trkpt><trkpt lat="41.7508833" lon="2.247075"><ele>467.0</ele><time>2026-04-11T10:08:19.991Z</time></trkpt><trkpt lat="41.75073" lon="2.247015"><ele>469.0</ele><time>2026-04-11T10:08:20.991Z</time></trkpt><trkpt lat="41.7505683" lon="2.2469433"><ele>471.0</ele><time>2026-04-11T10:08:21.991Z</time></trkpt><trkpt lat="41.7504117" lon="2.2468917"><ele>471.0</ele><time>2026-04-11T10:08:22.992Z</time></trkpt><trkpt lat="41.75027" lon="2.2468517"><ele>471.0</ele><time>2026-04-11T10:08:23.991Z</time></trkpt><trkpt lat="41.7501367" lon="2.2468217"><ele>471.0</ele><time>2026-04-11T10:08:24.991Z</time></trkpt><trkpt lat="41.7499967" lon="2.24682"><ele>471.0</ele><time>2026-04-11T10:08:25.992Z</time></trkpt><trkpt lat="41.7498417" lon="2.2468533"><ele>469.33333333333337</ele><time>2026-04-11T10:08:26.991Z</time></trkpt><trkpt lat="41.749685" lon="2.24687"><ele>467.6666666666667</ele><time>2026-04-11T10:08:27.991Z</time></trkpt><trkpt lat="41.7495267" lon="2.2468683"><ele>466.0</ele><time>2026-04-11T10:08:28.992Z</time></trkpt><trkpt lat="41.749385" lon="2.246855"><ele>466.25</ele><time>2026-04-11T10:08:29.991Z</time></trkpt><trkpt lat="41.7492483" lon="2.2468417"><ele>466.5</ele><time>2026-04-11T10:08:30.991Z</time></trkpt><trkpt lat="41.7491217" lon="2.24683"><ele>466.75</ele><time>2026-04-11T10:08:31.991Z</time></trkpt><trkpt lat="41.749015" lon="2.2468183"><ele>467.0</ele><time>2026-04-11T10:08:32.991Z</time></trkpt><trkpt lat="41.74892" lon="2.2468033"><ele>467.0</ele><time>2026-04-11T10:08:33.991Z</time></trkpt><trkpt lat="41.74882" lon="2.2467933"><ele>467.00000000000006</ele><time>2026-04-11T10:08:34.992Z</time></trkpt><trkpt lat="41.7487117" lon="2.2467567"><ele>467.00000000000006</ele><time>2026-04-11T10:08:35.991Z</time></trkpt><trkpt lat="41.748605" lon="2.2466967"><ele>467.0</ele><time>2026-04-11T10:08:36.992Z</time></trkpt><trkpt lat="41.748515" lon="2.2466167"><ele>467.0</ele><time>2026-04-11T10:08:37.991Z</time></trkpt><trkpt lat="41.7484483" lon="2.2465317"><ele>468.8</ele><time>2026-04-11T10:08:38.991Z</time></trkpt><trkpt lat="41.7483883" lon="2.246455"><ele>470.6</ele><time>2026-04-11T10:08:39.991Z</time></trkpt><trkpt lat="41.7483" lon="2.246395"><ele>472.40000000000003</ele><time>2026-04-11T10:08:40.991Z</time></trkpt><trkpt lat="41.7481933" lon="2.2463417"><ele>474.20000000000005</ele><time>2026-04-11T10:08:41.991Z</time></trkpt><trkpt lat="41.7480933" lon="2.2462783"><ele>476.0</ele><time>2026-04-11T10:08:42.992Z</time></trkpt><trkpt lat="41.7480067" lon="2.24621"><ele>476.0</ele><time>2026-04-11T10:08:43.991Z</time></trkpt><trkpt lat="41.747925" lon="2.2461133"><ele>476.0</ele><time>2026-04-11T10:08:44.991Z</time></trkpt><trkpt lat="41.7478433" lon="2.2460233"><ele>476.0</ele><time>2026-04-11T10:08:45.991Z</time></trkpt><trkpt lat="41.7477733" lon="2.2459217"><ele>476.0</ele><time>2026-04-11T10:08:46.991Z</time></trkpt><trkpt lat="41.747705" lon="2.2458383"><ele>476.0</ele><time>2026-04-11T10:08:47.991Z</time></trkpt><trkpt lat="41.7476283" lon="2.2457617"><ele>476.4</ele><time>2026-04-11T10:08:48.991Z</time></trkpt><trkpt lat="41.7475383" lon="2.2456967"><ele>476.8</ele><time>2026-04-11T10:08:49.991Z</time></trkpt><trkpt lat="41.7474483" lon="2.2456383"><ele>477.19999999999993</ele><time>2026-04-11T10:08:50.991Z</time></trkpt><trkpt lat="41.74737" lon="2.2455933"><ele>477.59999999999997</ele><time>2026-04-11T10:08:51.991Z</time></trkpt><trkpt lat="41.7472833" lon="2.2455833"><ele>478.0</ele><time>2026-04-11T10:08:52.991Z</time></trkpt><trkpt lat="41.7471967" lon="2.2455783"><ele>478.0</ele><time>2026-04-11T10:08:53.991Z</time></trkpt><trkpt lat="41.74709" lon="2.2455533"><ele>478.0</ele><time>2026-04-11T10:08:54.991Z</time></trkpt><trkpt lat="41.746975" lon="2.2455233"><ele>478.0</ele><time>2026-04-11T10:08:55.991Z</time></trkpt><trkpt lat="41.7468517" lon="2.24548"><ele>478.0</ele><time>2026-04-11T10:08:56.991Z</time></trkpt><trkpt lat="41.7467283" lon="2.245465"><ele>476.0</ele><time>2026-04-11T10:08:57.992Z</time></trkpt><trkpt lat="41.7466117" lon="2.245455"><ele>473.99999999999994</ele><time>2026-04-11T10:08:58.991Z</time></trkpt><trkpt lat="41.7464933" lon="2.245425"><ele>471.99999999999994</ele><time>2026-04-11T10:08:59.991Z</time></trkpt><trkpt lat="41.7463917" lon="2.2453917"><ele>470.0</ele><time>2026-04-11T10:09:00.991Z</time></trkpt><trkpt lat="41.746305" lon="2.2453633"><ele>468.0</ele><time>2026-04-11T10:09:01.991Z</time></trkpt><trkpt lat="41.74622" lon="2.24536"><ele>468.0</ele><time>2026-04-11T10:09:02.991Z</time></trkpt><trkpt lat="41.746145" lon="2.245375"><ele>467.99999999999994</ele><time>2026-04-11T10:09:03.991Z</time></trkpt><trkpt lat="41.7460467" lon="2.2454917"><ele>467.99999999999994</ele><time>2026-04-11T10:09:05.991Z</time></trkpt><trkpt lat="41.7460383" lon="2.2455867"><ele>468.0</ele><time>2026-04-11T10:09:06.991Z</time></trkpt><trkpt lat="41.7460483" lon="2.2457067"><ele>468.0</ele><time>2026-04-11T10:09:07.991Z</time></trkpt><trkpt lat="41.7460783" lon="2.2458383"><ele>464.0</ele><time>2026-04-11T10:09:08.991Z</time></trkpt><trkpt lat="41.74613" lon="2.245975"><ele>460.0</ele><time>2026-04-11T10:09:09.992Z</time></trkpt><trkpt lat="41.7462117" lon="2.2461067"><ele>456.0</ele><time>2026-04-11T10:09:10.991Z</time></trkpt><trkpt lat="41.7463" lon="2.24624"><ele>452.0</ele><time>2026-04-11T10:09:11.991Z</time></trkpt><trkpt lat="41.7463817" lon="2.24639"><ele>451.66666666666663</ele><time>2026-04-11T10:09:12.991Z</time></trkpt><trkpt lat="41.74648" lon="2.246555"><ele>451.33333333333337</ele><time>2026-04-11T10:09:13.991Z</time></trkpt><trkpt lat="41.7465983" lon="2.246735"><ele>451.0</ele><time>2026-04-11T10:09:14.991Z</time></trkpt><trkpt lat="41.74671" lon="2.2468967"><ele>451.0</ele><time>2026-04-11T10:09:15.991Z</time></trkpt><trkpt lat="41.7468017" lon="2.2470433"><ele>451.0</ele><time>2026-04-11T10:09:16.991Z</time></trkpt><trkpt lat="41.746875" lon="2.24718"><ele>451.0</ele><time>2026-04-11T10:09:17.991Z</time></trkpt><trkpt lat="41.7469517" lon="2.2473067"><ele>451.0</ele><time>2026-04-11T10:09:18.991Z</time></trkpt><trkpt lat="41.74703" lon="2.2474233"><ele>449.50000000000006</ele><time>2026-04-11T10:09:19.991Z</time></trkpt><trkpt lat="41.7470933" lon="2.2475267"><ele>448.0</ele><time>2026-04-11T10:09:20.991Z</time></trkpt><trkpt lat="41.7471167" lon="2.2476267"><ele>446.5</ele><time>2026-04-11T10:09:21.991Z</time></trkpt><trkpt lat="41.74713" lon="2.2477483"><ele>445.0</ele><time>2026-04-11T10:09:22.991Z</time></trkpt><trkpt lat="41.7471083" lon="2.247845"><ele>443.50000000000006</ele><time>2026-04-11T10:09:23.991Z</time></trkpt><trkpt lat="41.7470817" lon="2.2479283"><ele>442.0</ele><time>2026-04-11T10:09:24.991Z</time></trkpt><trkpt lat="41.7469917" lon="2.2479833"><ele>442.00000000000006</ele><time>2026-04-11T10:09:25.991Z</time></trkpt><trkpt lat="41.746935" lon="2.248045"><ele>442.0</ele><time>2026-04-11T10:09:26.991Z</time></trkpt><trkpt lat="41.7468917" lon="2.24814"><ele>442.0</ele><time>2026-04-11T10:09:27.991Z</time></trkpt><trkpt lat="41.7468733" lon="2.248225"><ele>442.0</ele><time>2026-04-11T10:09:28.991Z</time></trkpt><trkpt lat="41.7468917" lon="2.24835"><ele>442.00000000000006</ele><time>2026-04-11T10:09:29.991Z</time></trkpt><trkpt lat="41.7469267" lon="2.2484833"><ele>442.0</ele><time>2026-04-11T10:09:30.991Z</time></trkpt><trkpt lat="41.7469683" lon="2.2486033"><ele>443.8</ele><time>2026-04-11T10:09:31.991Z</time></trkpt><trkpt lat="41.7470217" lon="2.2487067"><ele>445.6</ele><time>2026-04-11T10:09:32.991Z</time></trkpt><trkpt lat="41.7470767" lon="2.2488133"><ele>447.40000000000003</ele><time>2026-04-11T10:09:33.991Z</time></trkpt><trkpt lat="41.7471367" lon="2.248935"><ele>449.20000000000005</ele><time>2026-04-11T10:09:34.991Z</time></trkpt><trkpt lat="41.7472367" lon="2.24905"><ele>451.0</ele><time>2026-04-11T10:09:35.991Z</time></trkpt><trkpt lat="41.747335" lon="2.2491467"><ele>454.75</ele><time>2026-04-11T10:09:36.991Z</time></trkpt><trkpt lat="41.7474467" lon="2.2492517"><ele>458.5</ele><time>2026-04-11T10:09:37.991Z</time></trkpt><trkpt lat="41.747565" lon="2.249365"><ele>462.25</ele><time>2026-04-11T10:09:38.991Z</time></trkpt><trkpt lat="41.74766" lon="2.2494833"><ele>466.0</ele><time>2026-04-11T10:09:39.992Z</time></trkpt><trkpt lat="41.74774" lon="2.2495917"><ele>466.33333333333337</ele><time>2026-04-11T10:09:40.991Z</time></trkpt><trkpt lat="41.7477933" lon="2.24968"><ele>466.6666666666667</ele><time>2026-04-11T10:09:41.991Z</time></trkpt><trkpt lat="41.7478483" lon="2.2497433"><ele>467.0</ele><time>2026-04-11T10:09:42.991Z</time></trkpt><trkpt lat="41.7479583" lon="2.24976"><ele>467.33333333333337</ele><time>2026-04-11T10:09:44.991Z</time></trkpt><trkpt lat="41.7480183" lon="2.2497033"><ele>467.6666666666667</ele><time>2026-04-11T10:09:45.991Z</time></trkpt><trkpt lat="41.7480733" lon="2.24963"><ele>468.0</ele><time>2026-04-11T10:09:46.991Z</time></trkpt><trkpt lat="41.7481317" lon="2.249565"><ele>468.0</ele><time>2026-04-11T10:09:47.991Z</time></trkpt><trkpt lat="41.7481883" lon="2.2495133"><ele>467.99999999999994</ele><time>2026-04-11T10:09:48.991Z</time></trkpt><trkpt lat="41.7482717" lon="2.249515"><ele>467.99999999999994</ele><time>2026-04-11T10:09:50.991Z</time></trkpt><trkpt lat="41.7482567" lon="2.2497167"><ele>468.0</ele><time>2026-04-11T10:09:52.991Z</time></trkpt><trkpt lat="41.7482433" lon="2.2498783"><ele>468.0</ele><time>2026-04-11T10:09:53.991Z</time></trkpt><trkpt lat="41.74823" lon="2.2500567"><ele>471.5</ele><time>2026-04-11T10:09:54.992Z</time></trkpt><trkpt lat="41.7482383" lon="2.2502433"><ele>475.0</ele><time>2026-04-11T10:09:55.991Z</time></trkpt><trkpt lat="41.7482333" lon="2.25044"><ele>478.5</ele><time>2026-04-11T10:09:56.991Z</time></trkpt><trkpt lat="41.7482517" lon="2.2506283"><ele>482.0</ele><time>2026-04-11T10:09:57.991Z</time></trkpt><trkpt lat="41.7482783" lon="2.2507633"><ele>481.99999999999994</ele><time>2026-04-11T10:09:58.991Z</time></trkpt><trkpt lat="41.7483067" lon="2.25085"><ele>482.0</ele><time>2026-04-11T10:09:59.991Z</time></trkpt><trkpt lat="41.7483667" lon="2.2509617"><ele>482.0</ele><time>2026-04-11T10:10:01.991Z</time></trkpt><trkpt lat="41.7484683" lon="2.2509233"><ele>482.0</ele><time>2026-04-11T10:10:03.992Z</time></trkpt><trkpt lat="41.74849" lon="2.2508367"><ele>481.99999999999994</ele><time>2026-04-11T10:10:04.991Z</time></trkpt><trkpt lat="41.7485133" lon="2.2507267"><ele>482.0</ele><time>2026-04-11T10:10:05.991Z</time></trkpt><trkpt lat="41.74854" lon="2.2505967"><ele>480.6</ele><time>2026-04-11T10:10:06.991Z</time></trkpt><trkpt lat="41.7485667" lon="2.2504817"><ele>479.20000000000005</ele><time>2026-04-11T10:10:07.992Z</time></trkpt><trkpt lat="41.748585" lon="2.2503767"><ele>477.8</ele><time>2026-04-11T10:10:08.991Z</time></trkpt><trkpt lat="41.7486633" lon="2.25039"><ele>476.4</ele><time>2026-04-11T10:10:10.991Z</time></trkpt><trkpt lat="41.748695" lon="2.2505133"><ele>475.0</ele><time>2026-04-11T10:10:12.991Z</time></trkpt><trkpt lat="41.7487017" lon="2.2506533"><ele>475.0</ele><time>2026-04-11T10:10:13.991Z</time></trkpt><trkpt lat="41.7487133" lon="2.25082"><ele>475.0</ele><time>2026-04-11T10:10:14.991Z</time></trkpt><trkpt lat="41.748715" lon="2.2510183"><ele>475.0</ele><time>2026-04-11T10:10:15.992Z</time></trkpt><trkpt lat="41.748725" lon="2.2511967"><ele>475.0</ele><time>2026-04-11T10:10:16.992Z</time></trkpt><trkpt lat="41.7487267" lon="2.25134"><ele>475.00000000000006</ele><time>2026-04-11T10:10:17.991Z</time></trkpt><trkpt lat="41.7487233" lon="2.251445"><ele>475.0</ele><time>2026-04-11T10:10:18.991Z</time></trkpt><trkpt lat="41.7487333" lon="2.2515317"><ele>475.0</ele><time>2026-04-11T10:10:19.991Z</time></trkpt><trkpt lat="41.7487417" lon="2.2516217"><ele>475.0</ele><time>2026-04-11T10:10:21.991Z</time></trkpt><trkpt lat="41.7486767" lon="2.2517117"><ele>475.00000000000006</ele><time>2026-04-11T10:12:35.991Z</time></trkpt><trkpt lat="41.74861" lon="2.2517217"><ele>475.0</ele><time>2026-04-11T10:12:53.99Z</time></trkpt><trkpt lat="41.7485267" lon="2.2517867"><ele>478.1666666666667</ele><time>2026-04-11T10:12:55.99Z</time></trkpt><trkpt lat="41.74844" lon="2.2518483"><ele>481.33333333333337</ele><time>2026-04-11T10:12:57.99Z</time></trkpt><trkpt lat="41.7483833" lon="2.2519233"><ele>484.5</ele><time>2026-04-11T10:12:59.99Z</time></trkpt><trkpt lat="41.7483467" lon="2.252"><ele>487.66666666666663</ele><time>2026-04-11T10:13:01.99Z</time></trkpt><trkpt lat="41.7483317" lon="2.252085"><ele>490.8333333333333</ele><time>2026-04-11T10:13:03.99Z</time></trkpt><trkpt lat="41.7483083" lon="2.25219"><ele>494.0</ele><time>2026-04-11T10:13:05.99Z</time></trkpt><trkpt lat="41.7482683" lon="2.252315"><ele>495.4</ele><time>2026-04-11T10:13:07.99Z</time></trkpt><trkpt lat="41.748215" lon="2.2524367"><ele>496.79999999999995</ele><time>2026-04-11T10:13:09.99Z</time></trkpt><trkpt lat="41.7481433" lon="2.252525"><ele>498.20000000000005</ele><time>2026-04-11T10:13:11.99Z</time></trkpt><trkpt lat="41.7480567" lon="2.2525933"><ele>499.6</ele><time>2026-04-11T10:13:13.99Z</time></trkpt><trkpt lat="41.7479517" lon="2.2526333"><ele>501.0</ele><time>2026-04-11T10:13:15.991Z</time></trkpt><trkpt lat="41.74786" lon="2.2526667"><ele>501.0</ele><time>2026-04-11T10:13:17.99Z</time></trkpt><trkpt lat="41.747805" lon="2.2527133"><ele>501.0</ele><time>2026-04-11T10:13:19.99Z</time></trkpt><trkpt lat="41.7477333" lon="2.25274"><ele>501.0</ele><time>2026-04-11T10:13:22.99Z</time></trkpt><trkpt lat="41.74765" lon="2.252775"><ele>501.0</ele><time>2026-04-11T10:13:31.99Z</time></trkpt><trkpt lat="41.7475833" lon="2.2528817"><ele>501.0</ele><time>2026-04-11T10:13:38.99Z</time></trkpt><trkpt lat="41.747545" lon="2.2529583"><ele>501.0</ele><time>2026-04-11T10:13:40.99Z</time></trkpt><trkpt lat="41.74751" lon="2.25308"><ele>505.5</ele><time>2026-04-11T10:13:43.99Z</time></trkpt><trkpt lat="41.7475283" lon="2.2531617"><ele>510.0</ele><time>2026-04-11T10:13:45.99Z</time></trkpt><trkpt lat="41.7475183" lon="2.25325"><ele>514.5</ele><time>2026-04-11T10:13:47.99Z</time></trkpt><trkpt lat="41.7474817" lon="2.253355"><ele>519.0</ele><time>2026-04-11T10:13:49.991Z</time></trkpt><trkpt lat="41.7474317" lon="2.253445"><ele>523.5</ele><time>2026-04-11T10:13:52.99Z</time></trkpt><trkpt lat="41.7473583" lon="2.2535017"><ele>528.0</ele><time>2026-04-11T10:14:01.99Z</time></trkpt><trkpt lat="41.747285" lon="2.2534917"><ele>528.0</ele><time>2026-04-11T10:14:03.99Z</time></trkpt><trkpt lat="41.7471883" lon="2.2535183"><ele>528.0</ele><time>2026-04-11T10:14:05.99Z</time></trkpt><trkpt lat="41.7470933" lon="2.2535583"><ele>528.0</ele><time>2026-04-11T10:14:07.99Z</time></trkpt><trkpt lat="41.7470067" lon="2.2536383"><ele>528.0</ele><time>2026-04-11T10:14:09.99Z</time></trkpt><trkpt lat="41.7469567" lon="2.253695"><ele>528.0</ele><time>2026-04-11T10:14:12.991Z</time></trkpt><trkpt lat="41.7469" lon="2.2537333"><ele>528.0</ele><time>2026-04-11T10:14:15.99Z</time></trkpt><trkpt lat="41.746825" lon="2.2538383"><ele>531.0</ele><time>2026-04-11T10:14:28.991Z</time></trkpt><trkpt lat="41.7467733" lon="2.2539167"><ele>534.0</ele><time>2026-04-11T10:14:30.991Z</time></trkpt><trkpt lat="41.74672" lon="2.2540083"><ele>537.0</ele><time>2026-04-11T10:14:32.99Z</time></trkpt><trkpt lat="41.746685" lon="2.2540833"><ele>540.0</ele><time>2026-04-11T10:14:34.99Z</time></trkpt><trkpt lat="41.7466567" lon="2.2541783"><ele>543.0</ele><time>2026-04-11T10:14:38.99Z</time></trkpt><trkpt lat="41.7466267" lon="2.2542867"><ele>546.0</ele><time>2026-04-11T10:14:41.99Z</time></trkpt><trkpt lat="41.7465617" lon="2.2542983"><ele>546.0</ele><time>2026-04-11T10:14:44.99Z</time></trkpt><trkpt lat="41.74652" lon="2.254175"><ele>546.0</ele><time>2026-04-11T10:14:46.99Z</time></trkpt><trkpt lat="41.746485" lon="2.2540433"><ele>546.0</ele><time>2026-04-11T10:14:48.99Z</time></trkpt><trkpt lat="41.7464983" lon="2.2539517"><ele>546.0</ele><time>2026-04-11T10:14:49.99Z</time></trkpt><trkpt lat="41.746485" lon="2.25381"><ele>546.0</ele><time>2026-04-11T10:14:51.99Z</time></trkpt><trkpt lat="41.7464117" lon="2.2537017"><ele>546.0</ele><time>2026-04-11T10:14:53.99Z</time></trkpt><trkpt lat="41.7462867" lon="2.253595"><ele>546.0</ele><time>2026-04-11T10:14:55.99Z</time></trkpt><trkpt lat="41.74621" lon="2.253525"><ele>546.0</ele><time>2026-04-11T10:14:56.99Z</time></trkpt><trkpt lat="41.7461217" lon="2.2534567"><ele>546.0</ele><time>2026-04-11T10:14:57.99Z</time></trkpt><trkpt lat="41.7460283" lon="2.2533983"><ele>546.0</ele><time>2026-04-11T10:14:58.99Z</time></trkpt><trkpt lat="41.7459283" lon="2.2533433"><ele>551.75</ele><time>2026-04-11T10:14:59.99Z</time></trkpt><trkpt lat="41.7458283" lon="2.2532933"><ele>557.5</ele><time>2026-04-11T10:15:00.99Z</time></trkpt><trkpt lat="41.745705" lon="2.2532567"><ele>563.25</ele><time>2026-04-11T10:15:01.99Z</time></trkpt><trkpt lat="41.7455817" lon="2.253225"><ele>569.0</ele><time>2026-04-11T10:15:02.99Z</time></trkpt><trkpt lat="41.7454533" lon="2.2531917"><ele>569.0</ele><time>2026-04-11T10:15:03.99Z</time></trkpt><trkpt lat="41.74532" lon="2.25315"><ele>569.0</ele><time>2026-04-11T10:15:04.99Z</time></trkpt><trkpt lat="41.74519" lon="2.2530967"><ele>569.0</ele><time>2026-04-11T10:15:05.99Z</time></trkpt><trkpt lat="41.7450583" lon="2.2530317"><ele>569.0</ele><time>2026-04-11T10:15:06.99Z</time></trkpt><trkpt lat="41.7449217" lon="2.2529717"><ele>569.25</ele><time>2026-04-11T10:15:07.99Z</time></trkpt><trkpt lat="41.7447817" lon="2.2529167"><ele>569.5</ele><time>2026-04-11T10:15:08.99Z</time></trkpt><trkpt lat="41.7446317" lon="2.2528667"><ele>569.75</ele><time>2026-04-11T10:15:09.99Z</time></trkpt><trkpt lat="41.7444917" lon="2.2528333"><ele>570.0</ele><time>2026-04-11T10:15:10.99Z</time></trkpt><trkpt lat="41.7443733" lon="2.25282"><ele>571.8333333333334</ele><time>2026-04-11T10:15:11.99Z</time></trkpt><trkpt lat="41.7442717" lon="2.25281"><ele>573.6666666666666</ele><time>2026-04-11T10:15:12.99Z</time></trkpt><trkpt lat="41.744185" lon="2.2528033"><ele>575.5</ele><time>2026-04-11T10:15:13.99Z</time></trkpt><trkpt lat="41.7441033" lon="2.2528167"><ele>577.3333333333333</ele><time>2026-04-11T10:15:14.99Z</time></trkpt><trkpt lat="41.7440167" lon="2.2528467"><ele>579.1666666666666</ele><time>2026-04-11T10:15:15.99Z</time></trkpt><trkpt lat="41.7439333" lon="2.25288"><ele>581.0</ele><time>2026-04-11T10:15:16.99Z</time></trkpt><trkpt lat="41.743835" lon="2.2529317"><ele>581.0</ele><time>2026-04-11T10:15:17.99Z</time></trkpt><trkpt lat="41.74373" lon="2.2529767"><ele>581.0</ele><time>2026-04-11T10:15:18.99Z</time></trkpt><trkpt lat="41.7436133" lon="2.253005"><ele>581.0</ele><time>2026-04-11T10:15:19.99Z</time></trkpt><trkpt lat="41.74349" lon="2.2530167"><ele>581.0</ele><time>2026-04-11T10:15:20.99Z</time></trkpt><trkpt lat="41.7433817" lon="2.253025"><ele>584.4</ele><time>2026-04-11T10:15:21.99Z</time></trkpt><trkpt lat="41.7432767" lon="2.2530183"><ele>587.8</ele><time>2026-04-11T10:15:22.99Z</time></trkpt><trkpt lat="41.7431633" lon="2.2530017"><ele>591.1999999999999</ele><time>2026-04-11T10:15:23.99Z</time></trkpt><trkpt lat="41.74305" lon="2.2529833"><ele>594.6</ele><time>2026-04-11T10:15:24.991Z</time></trkpt><trkpt lat="41.7429417" lon="2.2529733"><ele>598.0</ele><time>2026-04-11T10:15:25.99Z</time></trkpt><trkpt lat="41.7428367" lon="2.2529583"><ele>598.0</ele><time>2026-04-11T10:15:26.99Z</time></trkpt><trkpt lat="41.7427433" lon="2.2529283"><ele>598.0</ele><time>2026-04-11T10:15:27.99Z</time></trkpt><trkpt lat="41.7426483" lon="2.2529"><ele>598.0</ele><time>2026-04-11T10:15:28.991Z</time></trkpt><trkpt lat="41.7425517" lon="2.2528933"><ele>598.0</ele><time>2026-04-11T10:15:29.99Z</time></trkpt><trkpt lat="41.7424483" lon="2.2528867"><ele>598.0</ele><time>2026-04-11T10:15:30.99Z</time></trkpt><trkpt lat="41.7423583" lon="2.25288"><ele>601.0</ele><time>2026-04-11T10:15:31.99Z</time></trkpt><trkpt lat="41.7422817" lon="2.2528517"><ele>604.0</ele><time>2026-04-11T10:15:32.99Z</time></trkpt><trkpt lat="41.742215" lon="2.252795"><ele>607.0</ele><time>2026-04-11T10:15:33.99Z</time></trkpt><trkpt lat="41.7421483" lon="2.2527183"><ele>610.0</ele><time>2026-04-11T10:15:34.99Z</time></trkpt><trkpt lat="41.74207" lon="2.2526233"><ele>613.0</ele><time>2026-04-11T10:15:35.99Z</time></trkpt><trkpt lat="41.7419867" lon="2.252515"><ele>613.0</ele><time>2026-04-11T10:15:36.991Z</time></trkpt><trkpt lat="41.741895" lon="2.2524233"><ele>613.0</ele><time>2026-04-11T10:15:37.991Z</time></trkpt><trkpt lat="41.741795" lon="2.2523183"><ele>613.0</ele><time>2026-04-11T10:15:38.99Z</time></trkpt><trkpt lat="41.7416933" lon="2.2522133"><ele>613.0</ele><time>2026-04-11T10:15:39.99Z</time></trkpt><trkpt lat="41.7416033" lon="2.252115"><ele>613.1999999999999</ele><time>2026-04-11T10:15:40.991Z</time></trkpt><trkpt lat="41.7415133" lon="2.252015"><ele>613.4</ele><time>2026-04-11T10:15:41.99Z</time></trkpt><trkpt lat="41.741425" lon="2.2519383"><ele>613.5999999999999</ele><time>2026-04-11T10:15:42.99Z</time></trkpt><trkpt lat="41.74133" lon="2.2519017"><ele>613.8</ele><time>2026-04-11T10:15:43.99Z</time></trkpt><trkpt lat="41.7412333" lon="2.25187"><ele>614.0</ele><time>2026-04-11T10:15:44.99Z</time></trkpt><trkpt lat="41.741135" lon="2.2518233"><ele>613.25</ele><time>2026-04-11T10:15:45.99Z</time></trkpt><trkpt lat="41.7410317" lon="2.2517667"><ele>612.5</ele><time>2026-04-11T10:15:46.99Z</time></trkpt><trkpt lat="41.74092" lon="2.2516633"><ele>611.75</ele><time>2026-04-11T10:15:47.99Z</time></trkpt><trkpt lat="41.7408217" lon="2.25159"><ele>611.0</ele><time>2026-04-11T10:15:48.99Z</time></trkpt><trkpt lat="41.7407267" lon="2.2514967"><ele>611.8</ele><time>2026-04-11T10:15:49.99Z</time></trkpt><trkpt lat="41.7406383" lon="2.2514117"><ele>612.6</ele><time>2026-04-11T10:15:50.99Z</time></trkpt><trkpt lat="41.74055" lon="2.251335"><ele>613.4</ele><time>2026-04-11T10:15:51.99Z</time></trkpt><trkpt lat="41.740475" lon="2.2512667"><ele>614.2</ele><time>2026-04-11T10:15:52.99Z</time></trkpt><trkpt lat="41.740405" lon="2.25119"><ele>615.0</ele><time>2026-04-11T10:15:53.99Z</time></trkpt><trkpt lat="41.740335" lon="2.251125"><ele>615.0</ele><time>2026-04-11T10:15:54.99Z</time></trkpt><trkpt lat="41.7402683" lon="2.2510417"><ele>615.0</ele><time>2026-04-11T10:15:55.99Z</time></trkpt><trkpt lat="41.7402217" lon="2.2509517"><ele>615.0</ele><time>2026-04-11T10:15:56.99Z</time></trkpt><trkpt lat="41.740185" lon="2.2508467"><ele>615.0</ele><time>2026-04-11T10:15:57.99Z</time></trkpt><trkpt lat="41.740165" lon="2.25072"><ele>615.0</ele><time>2026-04-11T10:15:58.99Z</time></trkpt><trkpt lat="41.7401617" lon="2.2505833"><ele>614.8</ele><time>2026-04-11T10:15:59.991Z</time></trkpt><trkpt lat="41.7401817" lon="2.2504433"><ele>614.6</ele><time>2026-04-11T10:16:00.99Z</time></trkpt><trkpt lat="41.740205" lon="2.25031"><ele>614.4</ele><time>2026-04-11T10:16:01.99Z</time></trkpt><trkpt lat="41.7402333" lon="2.2501783"><ele>614.2</ele><time>2026-04-11T10:16:02.99Z</time></trkpt><trkpt lat="41.7402633" lon="2.2500517"><ele>614.0</ele><time>2026-04-11T10:16:03.99Z</time></trkpt><trkpt lat="41.7402983" lon="2.2499433"><ele>614.0</ele><time>2026-04-11T10:16:04.99Z</time></trkpt><trkpt lat="41.7403233" lon="2.24982"><ele>614.0</ele><time>2026-04-11T10:16:05.99Z</time></trkpt><trkpt lat="41.740335" lon="2.2496733"><ele>614.0</ele><time>2026-04-11T10:16:06.99Z</time></trkpt><trkpt lat="41.7403317" lon="2.24953"><ele>614.0</ele><time>2026-04-11T10:16:07.99Z</time></trkpt><trkpt lat="41.7403183" lon="2.2493917"><ele>614.0</ele><time>2026-04-11T10:16:08.99Z</time></trkpt><trkpt lat="41.740285" lon="2.2492717"><ele>614.4</ele><time>2026-04-11T10:16:09.99Z</time></trkpt><trkpt lat="41.740245" lon="2.249165"><ele>614.8</ele><time>2026-04-11T10:16:10.99Z</time></trkpt><trkpt lat="41.7401683" lon="2.2491017"><ele>615.2</ele><time>2026-04-11T10:16:11.99Z</time></trkpt><trkpt lat="41.7400617" lon="2.2490683"><ele>615.6</ele><time>2026-04-11T10:16:12.99Z</time></trkpt><trkpt lat="41.7399383" lon="2.249055"><ele>616.0</ele><time>2026-04-11T10:16:13.99Z</time></trkpt><trkpt lat="41.7398133" lon="2.249045"><ele>612.8</ele><time>2026-04-11T10:16:14.99Z</time></trkpt><trkpt lat="41.7396983" lon="2.24905"><ele>609.6</ele><time>2026-04-11T10:16:15.99Z</time></trkpt><trkpt lat="41.7395933" lon="2.24904"><ele>606.4</ele><time>2026-04-11T10:16:16.99Z</time></trkpt><trkpt lat="41.7395033" lon="2.2490267"><ele>603.2</ele><time>2026-04-11T10:16:17.99Z</time></trkpt><trkpt lat="41.73942" lon="2.2490083"><ele>600.0</ele><time>2026-04-11T10:16:18.99Z</time></trkpt><trkpt lat="41.739345" lon="2.2489717"><ele>599.6</ele><time>2026-04-11T10:16:19.99Z</time></trkpt><trkpt lat="41.73925" lon="2.2488617"><ele>599.2</ele><time>2026-04-11T10:16:21.99Z</time></trkpt><trkpt lat="41.7391933" lon="2.24876"><ele>598.8</ele><time>2026-04-11T10:16:22.99Z</time></trkpt><trkpt lat="41.73913" lon="2.248635"><ele>598.4</ele><time>2026-04-11T10:16:23.99Z</time></trkpt><trkpt lat="41.7390633" lon="2.2485233"><ele>598.0</ele><time>2026-04-11T10:16:24.99Z</time></trkpt><trkpt lat="41.7389817" lon="2.2484033"><ele>598.0</ele><time>2026-04-11T10:16:25.99Z</time></trkpt><trkpt lat="41.7389033" lon="2.2482817"><ele>598.0</ele><time>2026-04-11T10:16:26.99Z</time></trkpt><trkpt lat="41.73882" lon="2.248145"><ele>598.0</ele><time>2026-04-11T10:16:27.99Z</time></trkpt><trkpt lat="41.7387483" lon="2.2479917"><ele>598.0</ele><time>2026-04-11T10:16:28.99Z</time></trkpt><trkpt lat="41.7386833" lon="2.247835"><ele>597.0</ele><time>2026-04-11T10:16:29.99Z</time></trkpt><trkpt lat="41.7386117" lon="2.2476767"><ele>596.0</ele><time>2026-04-11T10:16:30.99Z</time></trkpt><trkpt lat="41.7385317" lon="2.247535"><ele>595.0</ele><time>2026-04-11T10:16:31.99Z</time></trkpt><trkpt lat="41.7384433" lon="2.2473933"><ele>594.0</ele><time>2026-04-11T10:16:32.99Z</time></trkpt><trkpt lat="41.7383517" lon="2.2472567"><ele>598.0</ele><time>2026-04-11T10:16:33.99Z</time></trkpt><trkpt lat="41.7382567" lon="2.24713"><ele>602.0</ele><time>2026-04-11T10:16:34.99Z</time></trkpt><trkpt lat="41.7381717" lon="2.247035"><ele>606.0</ele><time>2026-04-11T10:16:35.99Z</time></trkpt><trkpt lat="41.7380933" lon="2.24698"><ele>610.0</ele><time>2026-04-11T10:16:36.99Z</time></trkpt><trkpt lat="41.738025" lon="2.2469467"><ele>614.0</ele><time>2026-04-11T10:16:37.99Z</time></trkpt><trkpt lat="41.73796" lon="2.2469367"><ele>614.0</ele><time>2026-04-11T10:16:38.99Z</time></trkpt><trkpt lat="41.73784" lon="2.2469717"><ele>614.0</ele><time>2026-04-11T10:16:40.99Z</time></trkpt><trkpt lat="41.73772" lon="2.247005"><ele>614.0</ele><time>2026-04-11T10:16:42.99Z</time></trkpt><trkpt lat="41.7376483" lon="2.247005"><ele>614.0</ele><time>2026-04-11T10:16:43.99Z</time></trkpt><trkpt lat="41.737565" lon="2.24699"><ele>614.0</ele><time>2026-04-11T10:16:44.99Z</time></trkpt><trkpt lat="41.73748" lon="2.2469667"><ele>614.4</ele><time>2026-04-11T10:16:45.99Z</time></trkpt><trkpt lat="41.7373967" lon="2.2469483"><ele>614.8</ele><time>2026-04-11T10:16:46.99Z</time></trkpt><trkpt lat="41.7373167" lon="2.24695"><ele>615.2</ele><time>2026-04-11T10:16:47.99Z</time></trkpt><trkpt lat="41.7372317" lon="2.2469667"><ele>615.6</ele><time>2026-04-11T10:16:48.99Z</time></trkpt><trkpt lat="41.7371183" lon="2.247005"><ele>616.0</ele><time>2026-04-11T10:16:49.99Z</time></trkpt><trkpt lat="41.7370033" lon="2.2470367"><ele>616.5</ele><time>2026-04-11T10:16:50.99Z</time></trkpt><trkpt lat="41.7368683" lon="2.24707"><ele>617.0</ele><time>2026-04-11T10:16:51.99Z</time></trkpt><trkpt lat="41.7367533" lon="2.2470833"><ele>617.5</ele><time>2026-04-11T10:16:52.99Z</time></trkpt><trkpt lat="41.7366383" lon="2.2470833"><ele>618.0</ele><time>2026-04-11T10:16:53.99Z</time></trkpt><trkpt lat="41.7365417" lon="2.2470533"><ele>618.0</ele><time>2026-04-11T10:16:54.991Z</time></trkpt><trkpt lat="41.7364533" lon="2.2469967"><ele>618.0</ele><time>2026-04-11T10:16:55.99Z</time></trkpt><trkpt lat="41.7363767" lon="2.2469167"><ele>618.0</ele><time>2026-04-11T10:16:56.99Z</time></trkpt><trkpt lat="41.7362883" lon="2.246825"><ele>618.0</ele><time>2026-04-11T10:16:57.99Z</time></trkpt><trkpt lat="41.7361967" lon="2.2467367"><ele>618.0</ele><time>2026-04-11T10:16:58.99Z</time></trkpt><trkpt lat="41.7361117" lon="2.246635"><ele>616.6</ele><time>2026-04-11T10:16:59.99Z</time></trkpt><trkpt lat="41.736045" lon="2.2465433"><ele>615.1999999999999</ele><time>2026-04-11T10:17:00.99Z</time></trkpt><trkpt lat="41.7359933" lon="2.2464317"><ele>613.8</ele><time>2026-04-11T10:17:01.99Z</time></trkpt><trkpt lat="41.7359483" lon="2.2463067"><ele>612.4</ele><time>2026-04-11T10:17:02.99Z</time></trkpt><trkpt lat="41.7359083" lon="2.24617"><ele>611.0</ele><time>2026-04-11T10:17:03.99Z</time></trkpt><trkpt lat="41.735855" lon="2.2460267"><ele>611.0</ele><time>2026-04-11T10:17:04.99Z</time></trkpt><trkpt lat="41.7358017" lon="2.245875"><ele>611.0</ele><time>2026-04-11T10:17:05.99Z</time></trkpt><trkpt lat="41.7357467" lon="2.24571"><ele>611.0</ele><time>2026-04-11T10:17:06.99Z</time></trkpt><trkpt lat="41.7357067" lon="2.2455633"><ele>611.0</ele><time>2026-04-11T10:17:07.99Z</time></trkpt><trkpt lat="41.735685" lon="2.2454133"><ele>612.6666666666666</ele><time>2026-04-11T10:17:08.99Z</time></trkpt><trkpt lat="41.7356483" lon="2.24528"><ele>614.3333333333333</ele><time>2026-04-11T10:17:09.99Z</time></trkpt><trkpt lat="41.7356033" lon="2.2451767"><ele>616.0</ele><time>2026-04-11T10:17:10.99Z</time></trkpt><trkpt lat="41.735555" lon="2.2451033"><ele>617.6666666666666</ele><time>2026-04-11T10:17:11.991Z</time></trkpt><trkpt lat="41.7354933" lon="2.2450733"><ele>619.3333333333334</ele><time>2026-04-11T10:17:12.99Z</time></trkpt><trkpt lat="41.7354167" lon="2.24507"><ele>621.0</ele><time>2026-04-11T10:17:13.99Z</time></trkpt><trkpt lat="41.7353483" lon="2.2450867"><ele>621.0</ele><time>2026-04-11T10:17:14.99Z</time></trkpt><trkpt lat="41.73529" lon="2.2451567"><ele>621.0</ele><time>2026-04-11T10:17:15.99Z</time></trkpt><trkpt lat="41.7352317" lon="2.2452417"><ele>621.0</ele><time>2026-04-11T10:17:16.991Z</time></trkpt><trkpt lat="41.73517" lon="2.24536"><ele>621.0</ele><time>2026-04-11T10:17:17.99Z</time></trkpt><trkpt lat="41.73511" lon="2.2454683"><ele>621.0</ele><time>2026-04-11T10:17:18.99Z</time></trkpt><trkpt lat="41.7350567" lon="2.2455467"><ele>620.0</ele><time>2026-04-11T10:17:19.99Z</time></trkpt><trkpt lat="41.7349583" lon="2.245595"><ele>619.0</ele><time>2026-04-11T10:17:21.99Z</time></trkpt><trkpt lat="41.73484" lon="2.24555"><ele>618.0</ele><time>2026-04-11T10:17:23.99Z</time></trkpt><trkpt lat="41.7347383" lon="2.2455567"><ele>617.0</ele><time>2026-04-11T10:17:25.99Z</time></trkpt><trkpt lat="41.734695" lon="2.2456467"><ele>616.0</ele><time>2026-04-11T10:17:27.99Z</time></trkpt><trkpt lat="41.734705" lon="2.24576"><ele>612.8</ele><time>2026-04-11T10:17:29.99Z</time></trkpt><trkpt lat="41.7347017" lon="2.2458617"><ele>609.6</ele><time>2026-04-11T10:17:31.99Z</time></trkpt><trkpt lat="41.734645" lon="2.2459967"><ele>606.4</ele><time>2026-04-11T10:17:33.99Z</time></trkpt><trkpt lat="41.7345983" lon="2.2460917"><ele>603.2</ele><time>2026-04-11T10:17:34.99Z</time></trkpt><trkpt lat="41.7345533" lon="2.2462167"><ele>600.0</ele><time>2026-04-11T10:17:35.99Z</time></trkpt><trkpt lat="41.7345133" lon="2.2463383"><ele>600.0</ele><time>2026-04-11T10:17:36.99Z</time></trkpt><trkpt lat="41.7344767" lon="2.24646"><ele>600.0</ele><time>2026-04-11T10:17:37.99Z</time></trkpt><trkpt lat="41.7344417" lon="2.246585"><ele>600.0</ele><time>2026-04-11T10:17:38.99Z</time></trkpt><trkpt lat="41.7343917" lon="2.2466933"><ele>600.0</ele><time>2026-04-11T10:17:39.99Z</time></trkpt><trkpt lat="41.7343333" lon="2.2467933"><ele>600.0</ele><time>2026-04-11T10:17:40.99Z</time></trkpt><trkpt lat="41.7342617" lon="2.24688"><ele>601.25</ele><time>2026-04-11T10:17:41.99Z</time></trkpt><trkpt lat="41.734165" lon="2.2469483"><ele>602.5</ele><time>2026-04-11T10:17:42.99Z</time></trkpt><trkpt lat="41.7340633" lon="2.2470267"><ele>603.75</ele><time>2026-04-11T10:17:43.99Z</time></trkpt><trkpt lat="41.73395" lon="2.2471067"><ele>605.0</ele><time>2026-04-11T10:17:44.99Z</time></trkpt><trkpt lat="41.733845" lon="2.2471417"><ele>605.0</ele><time>2026-04-11T10:17:45.99Z</time></trkpt><trkpt lat="41.733735" lon="2.24716"><ele>605.0</ele><time>2026-04-11T10:17:46.99Z</time></trkpt><trkpt lat="41.733645" lon="2.247145"><ele>605.0</ele><time>2026-04-11T10:17:47.99Z</time></trkpt><trkpt lat="41.73357" lon="2.247105"><ele>605.0</ele><time>2026-04-11T10:17:48.99Z</time></trkpt><trkpt lat="41.7334933" lon="2.2470483"><ele>605.0</ele><time>2026-04-11T10:17:49.99Z</time></trkpt><trkpt lat="41.7333983" lon="2.2469617"><ele>606.0</ele><time>2026-04-11T10:17:50.99Z</time></trkpt><trkpt lat="41.7333" lon="2.2468917"><ele>607.0</ele><time>2026-04-11T10:17:51.99Z</time></trkpt><trkpt lat="41.73321" lon="2.2468333"><ele>608.0</ele><time>2026-04-11T10:17:52.99Z</time></trkpt><trkpt lat="41.733135" lon="2.2467817"><ele>609.0</ele><time>2026-04-11T10:17:53.99Z</time></trkpt><trkpt lat="41.733065" lon="2.246715"><ele>610.0</ele><time>2026-04-11T10:17:54.99Z</time></trkpt><trkpt lat="41.7330017" lon="2.2466367"><ele>610.0</ele><time>2026-04-11T10:17:55.99Z</time></trkpt><trkpt lat="41.7329417" lon="2.24657"><ele>610.0</ele><time>2026-04-11T10:17:56.99Z</time></trkpt><trkpt lat="41.7328833" lon="2.2465283"><ele>610.0</ele><time>2026-04-11T10:17:57.99Z</time></trkpt><trkpt lat="41.7328133" lon="2.246545"><ele>610.0</ele><time>2026-04-11T10:17:58.99Z</time></trkpt><trkpt lat="41.7327467" lon="2.2465983"><ele>610.0</ele><time>2026-04-11T10:17:59.99Z</time></trkpt><trkpt lat="41.73269" lon="2.246695"><ele>610.0</ele><time>2026-04-11T10:18:00.99Z</time></trkpt><trkpt lat="41.7326333" lon="2.2467733"><ele>610.6</ele><time>2026-04-11T10:18:01.99Z</time></trkpt><trkpt lat="41.7325683" lon="2.2468667"><ele>611.2</ele><time>2026-04-11T10:18:02.99Z</time></trkpt><trkpt lat="41.7325083" lon="2.246965"><ele>611.8</ele><time>2026-04-11T10:18:03.99Z</time></trkpt><trkpt lat="41.7324633" lon="2.2471017"><ele>612.4</ele><time>2026-04-11T10:18:04.99Z</time></trkpt><trkpt lat="41.7324117" lon="2.24725"><ele>613.0</ele><time>2026-04-11T10:18:05.99Z</time></trkpt><trkpt lat="41.7323383" lon="2.2473867"><ele>610.0</ele><time>2026-04-11T10:18:06.991Z</time></trkpt><trkpt lat="41.73227" lon="2.2475133"><ele>607.0</ele><time>2026-04-11T10:18:07.99Z</time></trkpt><trkpt lat="41.7321983" lon="2.2476333"><ele>604.0</ele><time>2026-04-11T10:18:08.99Z</time></trkpt><trkpt lat="41.7321317" lon="2.2477333"><ele>601.0</ele><time>2026-04-11T10:18:09.99Z</time></trkpt><trkpt lat="41.7320333" lon="2.2478333"><ele>601.0</ele><time>2026-04-11T10:18:10.99Z</time></trkpt><trkpt lat="41.7319383" lon="2.24792"><ele>601.0</ele><time>2026-04-11T10:18:11.99Z</time></trkpt><trkpt lat="41.7318383" lon="2.24801"><ele>601.0</ele><time>2026-04-11T10:18:12.99Z</time></trkpt><trkpt lat="41.731775" lon="2.2481167"><ele>601.0</ele><time>2026-04-11T10:18:13.99Z</time></trkpt><trkpt lat="41.7317167" lon="2.2482333"><ele>601.0</ele><time>2026-04-11T10:18:14.99Z</time></trkpt><trkpt lat="41.7316483" lon="2.2483533"><ele>606.75</ele><time>2026-04-11T10:18:15.99Z</time></trkpt><trkpt lat="41.73159" lon="2.2484683"><ele>612.5</ele><time>2026-04-11T10:18:16.99Z</time></trkpt><trkpt lat="41.7315167" lon="2.24858"><ele>618.25</ele><time>2026-04-11T10:18:17.99Z</time></trkpt><trkpt lat="41.7314233" lon="2.2487017"><ele>624.0</ele><time>2026-04-11T10:18:18.99Z</time></trkpt><trkpt lat="41.7313433" lon="2.2488067"><ele>624.0</ele><time>2026-04-11T10:18:19.99Z</time></trkpt><trkpt lat="41.7312967" lon="2.2488983"><ele>624.0</ele><time>2026-04-11T10:18:20.99Z</time></trkpt><trkpt lat="41.7312683" lon="2.2489867"><ele>624.0</ele><time>2026-04-11T10:18:21.99Z</time></trkpt><trkpt lat="41.73127" lon="2.24909"><ele>624.0</ele><time>2026-04-11T10:18:22.99Z</time></trkpt><trkpt lat="41.7312933" lon="2.2491967"><ele>624.0</ele><time>2026-04-11T10:18:23.99Z</time></trkpt><trkpt lat="41.7312967" lon="2.2493417"><ele>624.0</ele><time>2026-04-11T10:18:24.99Z</time></trkpt><trkpt lat="41.7312983" lon="2.2494833"><ele>623.8</ele><time>2026-04-11T10:18:25.99Z</time></trkpt><trkpt lat="41.7313017" lon="2.2496317"><ele>623.5999999999999</ele><time>2026-04-11T10:18:26.99Z</time></trkpt><trkpt lat="41.7313017" lon="2.249755"><ele>623.4</ele><time>2026-04-11T10:18:27.99Z</time></trkpt><trkpt lat="41.731295" lon="2.2498867"><ele>623.1999999999999</ele><time>2026-04-11T10:18:28.99Z</time></trkpt><trkpt lat="41.7312917" lon="2.2500067"><ele>623.0</ele><time>2026-04-11T10:18:29.99Z</time></trkpt><trkpt lat="41.73127" lon="2.2501"><ele>624.3333333333333</ele><time>2026-04-11T10:18:30.99Z</time></trkpt><trkpt lat="41.7312517" lon="2.2501883"><ele>625.6666666666666</ele><time>2026-04-11T10:18:31.99Z</time></trkpt><trkpt lat="41.7312333" lon="2.250285"><ele>627.0</ele><time>2026-04-11T10:18:32.99Z</time></trkpt><trkpt lat="41.7311917" lon="2.25038"><ele>628.3333333333334</ele><time>2026-04-11T10:18:33.99Z</time></trkpt><trkpt lat="41.7311383" lon="2.2504617"><ele>629.6666666666667</ele><time>2026-04-11T10:18:34.99Z</time></trkpt><trkpt lat="41.7310717" lon="2.2505167"><ele>631.0</ele><time>2026-04-11T10:18:35.99Z</time></trkpt><trkpt lat="41.7309767" lon="2.2505467"><ele>633.8</ele><time>2026-04-11T10:18:36.99Z</time></trkpt><trkpt lat="41.7308767" lon="2.2505533"><ele>636.6</ele><time>2026-04-11T10:18:37.99Z</time></trkpt><trkpt lat="41.730765" lon="2.25054"><ele>639.4</ele><time>2026-04-11T10:18:38.99Z</time></trkpt><trkpt lat="41.73065" lon="2.2505183"><ele>642.2</ele><time>2026-04-11T10:18:39.99Z</time></trkpt><trkpt lat="41.7305467" lon="2.2504717"><ele>645.0</ele><time>2026-04-11T10:18:40.99Z</time></trkpt><trkpt lat="41.7304733" lon="2.2504417"><ele>645.0</ele><time>2026-04-11T10:18:41.99Z</time></trkpt><trkpt lat="41.7303817" lon="2.2503967"><ele>645.0</ele><time>2026-04-11T10:18:43.99Z</time></trkpt><trkpt lat="41.7303133" lon="2.2503183"><ele>645.0</ele><time>2026-04-11T10:18:45.99Z</time></trkpt><trkpt lat="41.7302467" lon="2.2502"><ele>645.0</ele><time>2026-04-11T10:18:47.99Z</time></trkpt><trkpt lat="41.7302233" lon="2.2501083"><ele>645.0</ele><time>2026-04-11T10:18:48.99Z</time></trkpt><trkpt lat="41.730205" lon="2.25"><ele>643.75</ele><time>2026-04-11T10:18:49.99Z</time></trkpt><trkpt lat="41.730185" lon="2.2498567"><ele>642.5</ele><time>2026-04-11T10:18:50.99Z</time></trkpt><trkpt lat="41.7301517" lon="2.2496967"><ele>641.25</ele><time>2026-04-11T10:18:51.99Z</time></trkpt><trkpt lat="41.7301217" lon="2.2495367"><ele>640.0</ele><time>2026-04-11T10:18:52.99Z</time></trkpt><trkpt lat="41.7300733" lon="2.2493867"><ele>640.0</ele><time>2026-04-11T10:18:53.991Z</time></trkpt><trkpt lat="41.73001" lon="2.2492267"><ele>640.0</ele><time>2026-04-11T10:18:54.99Z</time></trkpt><trkpt lat="41.7299417" lon="2.2490933"><ele>640.0</ele><time>2026-04-11T10:18:55.99Z</time></trkpt><trkpt lat="41.72988" lon="2.2489883"><ele>640.0</ele><time>2026-04-11T10:18:56.991Z</time></trkpt><trkpt lat="41.7298167" lon="2.248875"><ele>642.2</ele><time>2026-04-11T10:18:57.99Z</time></trkpt><trkpt lat="41.7297583" lon="2.248755"><ele>644.4</ele><time>2026-04-11T10:18:58.99Z</time></trkpt><trkpt lat="41.7296983" lon="2.2486317"><ele>646.5999999999999</ele><time>2026-04-11T10:18:59.99Z</time></trkpt><trkpt lat="41.7296467" lon="2.2485133"><ele>648.8</ele><time>2026-04-11T10:19:00.99Z</time></trkpt><trkpt lat="41.7296217" lon="2.248385"><ele>651.0</ele><time>2026-04-11T10:19:01.991Z</time></trkpt><trkpt lat="41.7296033" lon="2.2482283"><ele>651.1999999999999</ele><time>2026-04-11T10:19:02.991Z</time></trkpt><trkpt lat="41.7295733" lon="2.2480767"><ele>651.4</ele><time>2026-04-11T10:19:03.99Z</time></trkpt><trkpt lat="41.7295333" lon="2.2479433"><ele>651.6</ele><time>2026-04-11T10:19:04.99Z</time></trkpt><trkpt lat="41.7294867" lon="2.2478217"><ele>651.8</ele><time>2026-04-11T10:19:05.99Z</time></trkpt><trkpt lat="41.7294417" lon="2.2477"><ele>652.0</ele><time>2026-04-11T10:19:06.99Z</time></trkpt><trkpt lat="41.7293983" lon="2.2475917"><ele>646.5</ele><time>2026-04-11T10:19:07.99Z</time></trkpt><trkpt lat="41.7293733" lon="2.2474817"><ele>641.0</ele><time>2026-04-11T10:19:08.991Z</time></trkpt><trkpt lat="41.7293433" lon="2.247375"><ele>635.5</ele><time>2026-04-11T10:19:09.99Z</time></trkpt><trkpt lat="41.7293017" lon="2.2472633"><ele>630.0</ele><time>2026-04-11T10:19:10.99Z</time></trkpt><trkpt lat="41.72925" lon="2.247175"><ele>624.5</ele><time>2026-04-11T10:19:11.99Z</time></trkpt><trkpt lat="41.7292033" lon="2.2470917"><ele>619.0</ele><time>2026-04-11T10:19:12.99Z</time></trkpt><trkpt lat="41.7291517" lon="2.24703"><ele>619.0</ele><time>2026-04-11T10:19:13.99Z</time></trkpt><trkpt lat="41.7291" lon="2.2469683"><ele>619.0</ele><time>2026-04-11T10:19:14.99Z</time></trkpt><trkpt lat="41.7290233" lon="2.2468717"><ele>619.0</ele><time>2026-04-11T10:19:16.99Z</time></trkpt><trkpt lat="41.72899" lon="2.2467883"><ele>619.0</ele><time>2026-04-11T10:19:18.99Z</time></trkpt><trkpt lat="41.72902" lon="2.2466983"><ele>619.0</ele><time>2026-04-11T10:19:21.99Z</time></trkpt><trkpt lat="41.729155" lon="2.2466517"><ele>619.0</ele><time>2026-04-11T10:19:23.99Z</time></trkpt><trkpt lat="41.729235" lon="2.2466167"><ele>619.0</ele><time>2026-04-11T10:19:24.99Z</time></trkpt><trkpt lat="41.7293483" lon="2.246565"><ele>619.0</ele><time>2026-04-11T10:19:25.989Z</time></trkpt><trkpt lat="41.729455" lon="2.246515"><ele>619.0</ele><time>2026-04-11T10:19:26.989Z</time></trkpt><trkpt lat="41.729555" lon="2.2464517"><ele>619.0</ele><time>2026-04-11T10:19:27.989Z</time></trkpt><trkpt lat="41.7296367" lon="2.24637"><ele>620.6</ele><time>2026-04-11T10:19:28.989Z</time></trkpt><trkpt lat="41.7297033" lon="2.24627"><ele>622.2</ele><time>2026-04-11T10:19:29.989Z</time></trkpt><trkpt lat="41.729765" lon="2.2461583"><ele>623.8000000000001</ele><time>2026-04-11T10:19:30.989Z</time></trkpt><trkpt lat="41.72982" lon="2.2460467"><ele>625.4</ele><time>2026-04-11T10:19:31.989Z</time></trkpt><trkpt lat="41.7298617" lon="2.2459433"><ele>627.0</ele><time>2026-04-11T10:19:32.989Z</time></trkpt><trkpt lat="41.72989" lon="2.245835"><ele>627.0</ele><time>2026-04-11T10:19:33.989Z</time></trkpt><trkpt lat="41.7299133" lon="2.2457117"><ele>627.0</ele><time>2026-04-11T10:19:34.989Z</time></trkpt><trkpt lat="41.729925" lon="2.2455933"><ele>627.0</ele><time>2026-04-11T10:19:35.989Z</time></trkpt><trkpt lat="41.72994" lon="2.2454767"><ele>627.0</ele><time>2026-04-11T10:19:36.989Z</time></trkpt><trkpt lat="41.7299617" lon="2.2453717"><ele>627.0</ele><time>2026-04-11T10:19:37.989Z</time></trkpt><trkpt lat="41.7299783" lon="2.24526"><ele>627.0</ele><time>2026-04-11T10:19:38.989Z</time></trkpt><trkpt lat="41.7299967" lon="2.245155"><ele>625.3333333333334</ele><time>2026-04-11T10:19:39.989Z</time></trkpt><trkpt lat="41.7300017" lon="2.2450433"><ele>623.6666666666666</ele><time>2026-04-11T10:19:40.989Z</time></trkpt><trkpt lat="41.7300067" lon="2.2449433"><ele>622.0</ele><time>2026-04-11T10:19:41.989Z</time></trkpt><trkpt lat="41.7300083" lon="2.2448417"><ele>620.3333333333333</ele><time>2026-04-11T10:19:42.989Z</time></trkpt><trkpt lat="41.7300067" lon="2.2447483"><ele>618.6666666666666</ele><time>2026-04-11T10:19:43.989Z</time></trkpt><trkpt lat="41.7300083" lon="2.2446583"><ele>617.0</ele><time>2026-04-11T10:19:44.989Z</time></trkpt><trkpt lat="41.7300367" lon="2.2444833"><ele>615.3333333333333</ele><time>2026-04-11T10:19:46.989Z</time></trkpt><trkpt lat="41.7300567" lon="2.2443867"><ele>613.6666666666666</ele><time>2026-04-11T10:19:47.989Z</time></trkpt><trkpt lat="41.730075" lon="2.2442917"><ele>612.0</ele><time>2026-04-11T10:19:48.989Z</time></trkpt><trkpt lat="41.7301067" lon="2.2441933"><ele>610.3333333333334</ele><time>2026-04-11T10:19:49.989Z</time></trkpt><trkpt lat="41.730135" lon="2.244105"><ele>608.6666666666667</ele><time>2026-04-11T10:19:50.989Z</time></trkpt><trkpt lat="41.730175" lon="2.2439517"><ele>607.0</ele><time>2026-04-11T10:19:52.989Z</time></trkpt><trkpt lat="41.730155" lon="2.24381"><ele>607.0</ele><time>2026-04-11T10:19:54.989Z</time></trkpt><trkpt lat="41.7300817" lon="2.2437183"><ele>607.0</ele><time>2026-04-11T10:19:56.989Z</time></trkpt><trkpt lat="41.7300033" lon="2.2436433"><ele>607.0</ele><time>2026-04-11T10:19:57.989Z</time></trkpt><trkpt lat="41.7299133" lon="2.243615"><ele>607.0</ele><time>2026-04-11T10:19:58.989Z</time></trkpt><trkpt lat="41.7298217" lon="2.2436"><ele>607.0</ele><time>2026-04-11T10:19:59.99Z</time></trkpt><trkpt lat="41.7297233" lon="2.2435833"><ele>607.0</ele><time>2026-04-11T10:20:00.989Z</time></trkpt><trkpt lat="41.7296233" lon="2.2435433"><ele>607.0</ele><time>2026-04-11T10:20:01.989Z</time></trkpt><trkpt lat="41.72954" lon="2.2434983"><ele>607.0</ele><time>2026-04-11T10:20:02.989Z</time></trkpt><trkpt lat="41.72947" lon="2.243435"><ele>607.0</ele><time>2026-04-11T10:20:03.989Z</time></trkpt><trkpt lat="41.729415" lon="2.2433567"><ele>607.0</ele><time>2026-04-11T10:20:04.99Z</time></trkpt><trkpt lat="41.72937" lon="2.2432533"><ele>607.0</ele><time>2026-04-11T10:20:05.989Z</time></trkpt><trkpt lat="41.729335" lon="2.2431267"><ele>602.8333333333334</ele><time>2026-04-11T10:20:06.989Z</time></trkpt><trkpt lat="41.7292967" lon="2.24301"><ele>598.6666666666667</ele><time>2026-04-11T10:20:07.989Z</time></trkpt><trkpt lat="41.7292717" lon="2.2429"><ele>594.5</ele><time>2026-04-11T10:20:08.99Z</time></trkpt><trkpt lat="41.7292583" lon="2.2427967"><ele>590.3333333333334</ele><time>2026-04-11T10:20:09.989Z</time></trkpt><trkpt lat="41.7292467" lon="2.2427017"><ele>586.1666666666666</ele><time>2026-04-11T10:20:10.989Z</time></trkpt><trkpt lat="41.7292483" lon="2.2426133"><ele>582.0</ele><time>2026-04-11T10:20:11.989Z</time></trkpt><trkpt lat="41.7292917" lon="2.2424417"><ele>582.0</ele><time>2026-04-11T10:20:13.989Z</time></trkpt><trkpt lat="41.7293467" lon="2.24234"><ele>582.0</ele><time>2026-04-11T10:20:14.989Z</time></trkpt><trkpt lat="41.7294067" lon="2.2422217"><ele>582.0</ele><time>2026-04-11T10:20:15.989Z</time></trkpt><trkpt lat="41.72948" lon="2.2421067"><ele>582.0</ele><time>2026-04-11T10:20:16.989Z</time></trkpt><trkpt lat="41.7295483" lon="2.2420033"><ele>582.0</ele><time>2026-04-11T10:20:17.989Z</time></trkpt><trkpt lat="41.7296067" lon="2.2419183"><ele>584.6</ele><time>2026-04-11T10:20:18.989Z</time></trkpt><trkpt lat="41.7296667" lon="2.2418267"><ele>587.2</ele><time>2026-04-11T10:20:19.99Z</time></trkpt><trkpt lat="41.7297217" lon="2.241735"><ele>589.8</ele><time>2026-04-11T10:20:20.99Z</time></trkpt><trkpt lat="41.72976" lon="2.241635"><ele>592.4</ele><time>2026-04-11T10:20:21.989Z</time></trkpt><trkpt lat="41.729795" lon="2.24149"><ele>595.0</ele><time>2026-04-11T10:20:23.989Z</time></trkpt><trkpt lat="41.7297833" lon="2.2413433"><ele>595.2</ele><time>2026-04-11T10:20:25.989Z</time></trkpt><trkpt lat="41.7297267" lon="2.2411917"><ele>595.4</ele><time>2026-04-11T10:20:27.989Z</time></trkpt><trkpt lat="41.72969" lon="2.2410967"><ele>595.6</ele><time>2026-04-11T10:20:28.989Z</time></trkpt><trkpt lat="41.7296667" lon="2.2409867"><ele>595.8</ele><time>2026-04-11T10:20:29.989Z</time></trkpt><trkpt lat="41.7296517" lon="2.24087"><ele>596.0</ele><time>2026-04-11T10:20:30.989Z</time></trkpt><trkpt lat="41.7296483" lon="2.2407417"><ele>596.0</ele><time>2026-04-11T10:20:31.989Z</time></trkpt><trkpt lat="41.729635" lon="2.24065"><ele>596.0</ele><time>2026-04-11T10:20:32.989Z</time></trkpt><trkpt lat="41.729575" lon="2.2405367"><ele>596.0</ele><time>2026-04-11T10:20:34.989Z</time></trkpt><trkpt lat="41.729495" lon="2.24055"><ele>596.0</ele><time>2026-04-11T10:20:37.989Z</time></trkpt><trkpt lat="41.7294633" lon="2.2406617"><ele>596.0</ele><time>2026-04-11T10:20:38.989Z</time></trkpt><trkpt lat="41.7294317" lon="2.2407767"><ele>596.0</ele><time>2026-04-11T10:20:39.989Z</time></trkpt><trkpt lat="41.7293767" lon="2.2409067"><ele>595.4</ele><time>2026-04-11T10:20:40.989Z</time></trkpt><trkpt lat="41.7293217" lon="2.2410067"><ele>594.8</ele><time>2026-04-11T10:20:41.989Z</time></trkpt><trkpt lat="41.7292483" lon="2.241095"><ele>594.1999999999999</ele><time>2026-04-11T10:20:42.989Z</time></trkpt><trkpt lat="41.7291667" lon="2.2411717"><ele>593.6</ele><time>2026-04-11T10:20:43.989Z</time></trkpt><trkpt lat="41.7290517" lon="2.24126"><ele>593.0</ele><time>2026-04-11T10:20:44.989Z</time></trkpt><trkpt lat="41.7289317" lon="2.2413"><ele>593.0</ele><time>2026-04-11T10:20:45.989Z</time></trkpt><trkpt lat="41.72881" lon="2.2413417"><ele>593.0</ele><time>2026-04-11T10:20:46.989Z</time></trkpt><trkpt lat="41.7287017" lon="2.2413783"><ele>593.0</ele><time>2026-04-11T10:20:47.989Z</time></trkpt><trkpt lat="41.7285967" lon="2.241425"><ele>593.0</ele><time>2026-04-11T10:20:48.989Z</time></trkpt><trkpt lat="41.7285083" lon="2.2414717"><ele>593.0</ele><time>2026-04-11T10:20:49.989Z</time></trkpt><trkpt lat="41.72842" lon="2.2415167"><ele>593.0</ele><time>2026-04-11T10:20:50.989Z</time></trkpt><trkpt lat="41.7283433" lon="2.2415567"><ele>593.0</ele><time>2026-04-11T10:20:51.989Z</time></trkpt><trkpt lat="41.72827" lon="2.241565"><ele>593.0</ele><time>2026-04-11T10:20:52.989Z</time></trkpt><trkpt lat="41.7281917" lon="2.2415533"><ele>593.0</ele><time>2026-04-11T10:20:53.989Z</time></trkpt><trkpt lat="41.7281267" lon="2.2415267"><ele>593.0</ele><time>2026-04-11T10:20:54.989Z</time></trkpt><trkpt lat="41.7280617" lon="2.2414633"><ele>593.0</ele><time>2026-04-11T10:20:55.989Z</time></trkpt><trkpt lat="41.7279983" lon="2.2413867"><ele>593.0</ele><time>2026-04-11T10:20:56.989Z</time></trkpt><trkpt lat="41.7279383" lon="2.2413267"><ele>593.0</ele><time>2026-04-11T10:20:57.989Z</time></trkpt><trkpt lat="41.7278783" lon="2.2412733"><ele>593.0</ele><time>2026-04-11T10:20:58.989Z</time></trkpt><trkpt lat="41.72781" lon="2.241235"><ele>593.0</ele><time>2026-04-11T10:20:59.99Z</time></trkpt><trkpt lat="41.7277417" lon="2.2411967"><ele>593.0</ele><time>2026-04-11T10:21:00.989Z</time></trkpt><trkpt lat="41.727665" lon="2.241165"><ele>593.0</ele><time>2026-04-11T10:21:01.989Z</time></trkpt><trkpt lat="41.7275867" lon="2.2411283"><ele>591.5714285714286</ele><time>2026-04-11T10:21:02.989Z</time></trkpt><trkpt lat="41.727515" lon="2.2411067"><ele>590.1428571428571</ele><time>2026-04-11T10:21:03.989Z</time></trkpt><trkpt lat="41.7274517" lon="2.24109"><ele>588.7142857142858</ele><time>2026-04-11T10:21:04.989Z</time></trkpt><trkpt lat="41.7273717" lon="2.2410717"><ele>587.2857142857142</ele><time>2026-04-11T10:21:06.989Z</time></trkpt><trkpt lat="41.72729" lon="2.2410883"><ele>585.8571428571429</ele><time>2026-04-11T10:21:09.99Z</time></trkpt><trkpt lat="41.7272967" lon="2.2411783"><ele>584.4285714285714</ele><time>2026-04-11T10:21:12.989Z</time></trkpt><trkpt lat="41.7273" lon="2.2412667"><ele>583.0</ele><time>2026-04-11T10:21:13.989Z</time></trkpt><trkpt lat="41.7273133" lon="2.24135"><ele>583.0</ele><time>2026-04-11T10:21:14.989Z</time></trkpt><trkpt lat="41.727335" lon="2.2414317"><ele>583.0</ele><time>2026-04-11T10:21:15.989Z</time></trkpt><trkpt lat="41.7273733" lon="2.2415483"><ele>583.0</ele><time>2026-04-11T10:21:17.989Z</time></trkpt><trkpt lat="41.7274133" lon="2.2416533"><ele>583.0</ele><time>2026-04-11T10:21:19.989Z</time></trkpt><trkpt lat="41.7274517" lon="2.2417583"><ele>583.0</ele><time>2026-04-11T10:21:21.989Z</time></trkpt><trkpt lat="41.7274333" lon="2.241905"><ele>583.0</ele><time>2026-04-11T10:21:23.989Z</time></trkpt><trkpt lat="41.7274117" lon="2.2419867"><ele>581.8333333333334</ele><time>2026-04-11T10:21:24.989Z</time></trkpt><trkpt lat="41.7273967" lon="2.2420733"><ele>580.6666666666667</ele><time>2026-04-11T10:21:25.989Z</time></trkpt><trkpt lat="41.727395" lon="2.2422417"><ele>579.5</ele><time>2026-04-11T10:21:27.989Z</time></trkpt><trkpt lat="41.7274" lon="2.24233"><ele>578.3333333333334</ele><time>2026-04-11T10:21:28.989Z</time></trkpt><trkpt lat="41.7273967" lon="2.242425"><ele>577.1666666666666</ele><time>2026-04-11T10:21:29.989Z</time></trkpt><trkpt lat="41.727385" lon="2.24251"><ele>576.0</ele><time>2026-04-11T10:21:30.989Z</time></trkpt><trkpt lat="41.727335" lon="2.2426283"><ele>575.4</ele><time>2026-04-11T10:21:32.989Z</time></trkpt><trkpt lat="41.727255" lon="2.2426967"><ele>574.8</ele><time>2026-04-11T10:21:34.989Z</time></trkpt><trkpt lat="41.7271983" lon="2.2427517"><ele>574.1999999999999</ele><time>2026-04-11T10:21:36.989Z</time></trkpt><trkpt lat="41.727165" lon="2.2428367"><ele>573.6</ele><time>2026-04-11T10:21:38.99Z</time></trkpt><trkpt lat="41.7271433" lon="2.2429817"><ele>573.0</ele><time>2026-04-11T10:21:40.989Z</time></trkpt><trkpt lat="41.7271" lon="2.243145"><ele>570.8333333333334</ele><time>2026-04-11T10:21:42.989Z</time></trkpt><trkpt lat="41.7270517" lon="2.2432183"><ele>568.6666666666666</ele><time>2026-04-11T10:21:43.989Z</time></trkpt><trkpt lat="41.7269933" lon="2.24328"><ele>566.5</ele><time>2026-04-11T10:21:44.989Z</time></trkpt><trkpt lat="41.726925" lon="2.243335"><ele>564.3333333333333</ele><time>2026-04-11T10:21:45.989Z</time></trkpt><trkpt lat="41.7268567" lon="2.2433867"><ele>562.1666666666666</ele><time>2026-04-11T10:21:46.99Z</time></trkpt><trkpt lat="41.7267883" lon="2.2434333"><ele>560.0</ele><time>2026-04-11T10:21:47.989Z</time></trkpt><trkpt lat="41.7267233" lon="2.2434783"><ele>566.0</ele><time>2026-04-11T10:21:48.989Z</time></trkpt><trkpt lat="41.7266583" lon="2.243545"><ele>572.0</ele><time>2026-04-11T10:21:49.989Z</time></trkpt><trkpt lat="41.7265833" lon="2.24363"><ele>578.0</ele><time>2026-04-11T10:21:50.989Z</time></trkpt><trkpt lat="41.726515" lon="2.2437183"><ele>584.0</ele><time>2026-04-11T10:21:51.989Z</time></trkpt><trkpt lat="41.7264433" lon="2.2438"><ele>590.0</ele><time>2026-04-11T10:21:52.989Z</time></trkpt><trkpt lat="41.7263817" lon="2.2438667"><ele>596.0</ele><time>2026-04-11T10:21:53.989Z</time></trkpt><trkpt lat="41.7263067" lon="2.243915"><ele>596.0</ele><time>2026-04-11T10:21:54.989Z</time></trkpt><trkpt lat="41.7262233" lon="2.2439367"><ele>596.0</ele><time>2026-04-11T10:21:55.989Z</time></trkpt><trkpt lat="41.72614" lon="2.24394"><ele>596.0</ele><time>2026-04-11T10:21:56.989Z</time></trkpt><trkpt lat="41.726045" lon="2.2439367"><ele>596.0</ele><time>2026-04-11T10:21:57.989Z</time></trkpt><trkpt lat="41.7259467" lon="2.2439117"><ele>596.0</ele><time>2026-04-11T10:21:58.989Z</time></trkpt><trkpt lat="41.7258733" lon="2.2438783"><ele>596.0</ele><time>2026-04-11T10:21:59.99Z</time></trkpt><trkpt lat="41.7258033" lon="2.243805"><ele>597.8333333333333</ele><time>2026-04-11T10:22:00.989Z</time></trkpt><trkpt lat="41.725745" lon="2.2437217"><ele>599.6666666666666</ele><time>2026-04-11T10:22:01.989Z</time></trkpt><trkpt lat="41.725705" lon="2.2436217"><ele>601.5</ele><time>2026-04-11T10:22:02.989Z</time></trkpt><trkpt lat="41.725665" lon="2.2435183"><ele>603.3333333333334</ele><time>2026-04-11T10:22:03.989Z</time></trkpt><trkpt lat="41.7256067" lon="2.2434417"><ele>605.1666666666667</ele><time>2026-04-11T10:22:04.989Z</time></trkpt><trkpt lat="41.7255383" lon="2.2433933"><ele>607.0</ele><time>2026-04-11T10:22:05.989Z</time></trkpt><trkpt lat="41.7254533" lon="2.2433667"><ele>607.0</ele><time>2026-04-11T10:22:06.989Z</time></trkpt><trkpt lat="41.725355" lon="2.24336"><ele>607.0</ele><time>2026-04-11T10:22:07.989Z</time></trkpt><trkpt lat="41.7252483" lon="2.2433383"><ele>607.0</ele><time>2026-04-11T10:22:08.989Z</time></trkpt><trkpt lat="41.7251433" lon="2.2432983"><ele>607.0</ele><time>2026-04-11T10:22:09.989Z</time></trkpt><trkpt lat="41.72505" lon="2.2432717"><ele>607.0</ele><time>2026-04-11T10:22:10.989Z</time></trkpt><trkpt lat="41.7249617" lon="2.243255"><ele>608.3333333333334</ele><time>2026-04-11T10:22:11.989Z</time></trkpt><trkpt lat="41.7248717" lon="2.2432433"><ele>609.6666666666667</ele><time>2026-04-11T10:22:12.989Z</time></trkpt><trkpt lat="41.724785" lon="2.2432217"><ele>611.0</ele><time>2026-04-11T10:22:13.989Z</time></trkpt><trkpt lat="41.7247033" lon="2.243185"><ele>612.3333333333334</ele><time>2026-04-11T10:22:14.989Z</time></trkpt><trkpt lat="41.7246333" lon="2.2431317"><ele>613.6666666666666</ele><time>2026-04-11T10:22:15.989Z</time></trkpt><trkpt lat="41.72457" lon="2.2430883"><ele>615.0</ele><time>2026-04-11T10:22:16.989Z</time></trkpt><trkpt lat="41.7245183" lon="2.2430067"><ele>615.0</ele><time>2026-04-11T10:22:17.989Z</time></trkpt><trkpt lat="41.7244733" lon="2.2429183"><ele>615.0</ele><time>2026-04-11T10:22:18.989Z</time></trkpt><trkpt lat="41.724435" lon="2.242845"><ele>615.0</ele><time>2026-04-11T10:22:19.989Z</time></trkpt><trkpt lat="41.724385" lon="2.2427833"><ele>615.0</ele><time>2026-04-11T10:22:20.989Z</time></trkpt><trkpt lat="41.7243317" lon="2.2427367"><ele>615.0</ele><time>2026-04-11T10:22:21.989Z</time></trkpt><trkpt lat="41.7242183" lon="2.24273"><ele>615.0</ele><time>2026-04-11T10:22:23.989Z</time></trkpt><trkpt lat="41.7241" lon="2.24271"><ele>613.4</ele><time>2026-04-11T10:22:25.989Z</time></trkpt><trkpt lat="41.724015" lon="2.2425817"><ele>611.8</ele><time>2026-04-11T10:22:27.989Z</time></trkpt><trkpt lat="41.7239783" lon="2.24249"><ele>610.2</ele><time>2026-04-11T10:22:28.989Z</time></trkpt><trkpt lat="41.723925" lon="2.2423967"><ele>608.6</ele><time>2026-04-11T10:22:29.989Z</time></trkpt><trkpt lat="41.7238767" lon="2.2423017"><ele>607.0</ele><time>2026-04-11T10:22:30.989Z</time></trkpt><trkpt lat="41.7238333" lon="2.2422033"><ele>607.0</ele><time>2026-04-11T10:22:31.989Z</time></trkpt><trkpt lat="41.7238" lon="2.2421067"><ele>607.0</ele><time>2026-04-11T10:22:32.989Z</time></trkpt><trkpt lat="41.7237817" lon="2.2419733"><ele>607.0</ele><time>2026-04-11T10:22:34.989Z</time></trkpt><trkpt lat="41.72377" lon="2.24189"><ele>607.0</ele><time>2026-04-11T10:22:36.989Z</time></trkpt><trkpt lat="41.7237083" lon="2.2418083"><ele>607.0</ele><time>2026-04-11T10:22:38.989Z</time></trkpt><trkpt lat="41.7236067" lon="2.241775"><ele>607.0</ele><time>2026-04-11T10:22:40.989Z</time></trkpt><trkpt lat="41.7235167" lon="2.2418267"><ele>604.4</ele><time>2026-04-11T10:22:42.989Z</time></trkpt><trkpt lat="41.72339" lon="2.2418917"><ele>601.8000000000001</ele><time>2026-04-11T10:22:44.989Z</time></trkpt><trkpt lat="41.7232983" lon="2.24193"><ele>599.2</ele><time>2026-04-11T10:22:45.989Z</time></trkpt><trkpt lat="41.7232" lon="2.2419517"><ele>596.6</ele><time>2026-04-11T10:22:46.989Z</time></trkpt><trkpt lat="41.723105" lon="2.241965"><ele>594.0</ele><time>2026-04-11T10:22:47.989Z</time></trkpt><trkpt lat="41.7230017" lon="2.24196"><ele>594.0</ele><time>2026-04-11T10:22:48.989Z</time></trkpt><trkpt lat="41.722895" lon="2.2419367"><ele>594.0</ele><time>2026-04-11T10:22:49.989Z</time></trkpt><trkpt lat="41.7228117" lon="2.2419183"><ele>594.0</ele><time>2026-04-11T10:22:50.989Z</time></trkpt><trkpt lat="41.7227333" lon="2.2418133"><ele>594.0</ele><time>2026-04-11T10:22:52.99Z</time></trkpt><trkpt lat="41.7227117" lon="2.2417217"><ele>594.0</ele><time>2026-04-11T10:22:53.989Z</time></trkpt><trkpt lat="41.7226967" lon="2.2416"><ele>593.3333333333334</ele><time>2026-04-11T10:22:54.989Z</time></trkpt><trkpt lat="41.7226967" lon="2.2414783"><ele>592.6666666666666</ele><time>2026-04-11T10:22:55.989Z</time></trkpt><trkpt lat="41.72268" lon="2.2413733"><ele>592.0</ele><time>2026-04-11T10:22:56.989Z</time></trkpt><trkpt lat="41.722615" lon="2.2412917"><ele>591.3333333333333</ele><time>2026-04-11T10:22:58.989Z</time></trkpt><trkpt lat="41.7225517" lon="2.2413117"><ele>590.6666666666666</ele><time>2026-04-11T10:23:00.989Z</time></trkpt><trkpt lat="41.7225217" lon="2.2414183"><ele>590.0</ele><time>2026-04-11T10:23:02.989Z</time></trkpt><trkpt lat="41.7224667" lon="2.2415533"><ele>590.0</ele><time>2026-04-11T10:23:04.989Z</time></trkpt><trkpt lat="41.7224067" lon="2.241635"><ele>590.0</ele><time>2026-04-11T10:23:06.99Z</time></trkpt><trkpt lat="41.7223283" lon="2.2416633"><ele>590.0</ele><time>2026-04-11T10:23:17.99Z</time></trkpt><trkpt lat="41.7222933" lon="2.2417983"><ele>590.0</ele><time>2026-04-11T10:23:35.989Z</time></trkpt><trkpt lat="41.7223083" lon="2.2418983"><ele>590.0</ele><time>2026-04-11T10:23:52.989Z</time></trkpt><trkpt lat="41.72236" lon="2.242025"><ele>590.0000000000001</ele><time>2026-04-11T10:23:54.989Z</time></trkpt><trkpt lat="41.7223967" lon="2.2421033"><ele>590.0</ele><time>2026-04-11T10:23:55.989Z</time></trkpt><trkpt lat="41.7224383" lon="2.2421783"><ele>590.0</ele><time>2026-04-11T10:23:56.989Z</time></trkpt><trkpt lat="41.7224767" lon="2.24226"><ele>590.0</ele><time>2026-04-11T10:23:57.989Z</time></trkpt><trkpt lat="41.7225133" lon="2.24235"><ele>590.0</ele><time>2026-04-11T10:23:58.989Z</time></trkpt><trkpt lat="41.722545" lon="2.2424483"><ele>590.0000000000001</ele><time>2026-04-11T10:23:59.989Z</time></trkpt><trkpt lat="41.7225717" lon="2.2425483"><ele>590.0</ele><time>2026-04-11T10:24:00.989Z</time></trkpt><trkpt lat="41.72259" lon="2.24264"><ele>590.5</ele><time>2026-04-11T10:24:01.989Z</time></trkpt><trkpt lat="41.722605" lon="2.2427383"><ele>591.0</ele><time>2026-04-11T10:24:02.989Z</time></trkpt><trkpt lat="41.7226233" lon="2.2428517"><ele>591.5</ele><time>2026-04-11T10:24:03.989Z</time></trkpt><trkpt lat="41.7226433" lon="2.242975"><ele>592.0</ele><time>2026-04-11T10:24:04.989Z</time></trkpt><trkpt lat="41.7226717" lon="2.243085"><ele>592.5</ele><time>2026-04-11T10:24:05.989Z</time></trkpt><trkpt lat="41.722715" lon="2.2431783"><ele>593.0</ele><time>2026-04-11T10:24:06.989Z</time></trkpt><trkpt lat="41.722775" lon="2.2432733"><ele>588.8</ele><time>2026-04-11T10:24:07.989Z</time></trkpt><trkpt lat="41.7228183" lon="2.2433717"><ele>584.5999999999999</ele><time>2026-04-11T10:24:08.989Z</time></trkpt><trkpt lat="41.7228467" lon="2.2434817"><ele>580.4000000000001</ele><time>2026-04-11T10:24:09.989Z</time></trkpt><trkpt lat="41.722875" lon="2.2436067"><ele>576.2</ele><time>2026-04-11T10:24:10.989Z</time></trkpt><trkpt lat="41.7229033" lon="2.2437417"><ele>572.0</ele><time>2026-04-11T10:24:11.989Z</time></trkpt><trkpt lat="41.7229267" lon="2.2438667"><ele>573.6666666666666</ele><time>2026-04-11T10:24:12.989Z</time></trkpt><trkpt lat="41.7229683" lon="2.243975"><ele>575.3333333333333</ele><time>2026-04-11T10:24:13.989Z</time></trkpt><trkpt lat="41.7230167" lon="2.2440483"><ele>577.0</ele><time>2026-04-11T10:24:14.989Z</time></trkpt><trkpt lat="41.7230583" lon="2.2441233"><ele>578.6666666666666</ele><time>2026-04-11T10:24:15.989Z</time></trkpt><trkpt lat="41.7230867" lon="2.2442117"><ele>580.3333333333334</ele><time>2026-04-11T10:24:16.989Z</time></trkpt><trkpt lat="41.723115" lon="2.2442933"><ele>582.0</ele><time>2026-04-11T10:24:17.989Z</time></trkpt><trkpt lat="41.7231883" lon="2.2444233"><ele>582.0</ele><time>2026-04-11T10:24:19.989Z</time></trkpt><trkpt lat="41.7232433" lon="2.2445133"><ele>582.0</ele><time>2026-04-11T10:24:20.989Z</time></trkpt><trkpt lat="41.723305" lon="2.2446133"><ele>582.0</ele><time>2026-04-11T10:24:21.989Z</time></trkpt><trkpt lat="41.7233633" lon="2.2447083"><ele>582.0</ele><time>2026-04-11T10:24:22.989Z</time></trkpt><trkpt lat="41.723415" lon="2.24481"><ele>582.0</ele><time>2026-04-11T10:24:23.989Z</time></trkpt><trkpt lat="41.7234617" lon="2.2449117"><ele>584.8333333333334</ele><time>2026-04-11T10:24:24.989Z</time></trkpt><trkpt lat="41.7234983" lon="2.2450217"><ele>587.6666666666666</ele><time>2026-04-11T10:24:25.989Z</time></trkpt><trkpt lat="41.723525" lon="2.24513"><ele>590.5</ele><time>2026-04-11T10:24:26.989Z</time></trkpt><trkpt lat="41.7235333" lon="2.245235"><ele>593.3333333333333</ele><time>2026-04-11T10:24:27.989Z</time></trkpt><trkpt lat="41.7235217" lon="2.24535"><ele>596.1666666666666</ele><time>2026-04-11T10:24:28.989Z</time></trkpt><trkpt lat="41.7235183" lon="2.245445"><ele>599.0</ele><time>2026-04-11T10:24:29.989Z</time></trkpt><trkpt lat="41.72351" lon="2.2455333"><ele>599.0</ele><time>2026-04-11T10:24:30.989Z</time></trkpt><trkpt lat="41.7235083" lon="2.2456217"><ele>599.0</ele><time>2026-04-11T10:24:31.989Z</time></trkpt><trkpt lat="41.7235417" lon="2.245765"><ele>599.0</ele><time>2026-04-11T10:24:33.989Z</time></trkpt><trkpt lat="41.7235933" lon="2.2459033"><ele>599.0</ele><time>2026-04-11T10:24:35.989Z</time></trkpt><trkpt lat="41.7237017" lon="2.2460017"><ele>599.0</ele><time>2026-04-11T10:24:37.989Z</time></trkpt><trkpt lat="41.7237817" lon="2.2460417"><ele>597.4</ele><time>2026-04-11T10:24:38.989Z</time></trkpt><trkpt lat="41.7238717" lon="2.24609"><ele>595.8</ele><time>2026-04-11T10:24:39.989Z</time></trkpt><trkpt lat="41.7239667" lon="2.246155"><ele>594.2</ele><time>2026-04-11T10:24:40.989Z</time></trkpt><trkpt lat="41.7240483" lon="2.2462367"><ele>592.6</ele><time>2026-04-11T10:24:41.989Z</time></trkpt><trkpt lat="41.72411" lon="2.2463467"><ele>591.0</ele><time>2026-04-11T10:24:42.989Z</time></trkpt><trkpt lat="41.7241583" lon="2.2464617"><ele>594.1666666666666</ele><time>2026-04-11T10:24:43.989Z</time></trkpt><trkpt lat="41.7241917" lon="2.246575"><ele>597.3333333333334</ele><time>2026-04-11T10:24:44.989Z</time></trkpt><trkpt lat="41.72422" lon="2.24668"><ele>600.5</ele><time>2026-04-11T10:24:45.989Z</time></trkpt><trkpt lat="41.724255" lon="2.2467733"><ele>603.6666666666667</ele><time>2026-04-11T10:24:46.989Z</time></trkpt><trkpt lat="41.7242933" lon="2.2468583"><ele>606.8333333333334</ele><time>2026-04-11T10:24:47.989Z</time></trkpt><trkpt lat="41.7243217" lon="2.24696"><ele>610.0</ele><time>2026-04-11T10:24:48.989Z</time></trkpt><trkpt lat="41.7243317" lon="2.24707"><ele>610.0</ele><time>2026-04-11T10:24:49.989Z</time></trkpt><trkpt lat="41.7243133" lon="2.24718"><ele>610.0</ele><time>2026-04-11T10:24:50.989Z</time></trkpt><trkpt lat="41.724285" lon="2.2472767"><ele>610.0</ele><time>2026-04-11T10:24:51.989Z</time></trkpt><trkpt lat="41.7242617" lon="2.247365"><ele>610.0</ele><time>2026-04-11T10:24:52.989Z</time></trkpt><trkpt lat="41.7242383" lon="2.2474617"><ele>610.0</ele><time>2026-04-11T10:24:53.989Z</time></trkpt><trkpt lat="41.7242033" lon="2.2475433"><ele>610.0</ele><time>2026-04-11T10:24:54.989Z</time></trkpt><trkpt lat="41.7241483" lon="2.24761"><ele>611.0</ele><time>2026-04-11T10:24:55.989Z</time></trkpt><trkpt lat="41.724075" lon="2.2476767"><ele>612.0</ele><time>2026-04-11T10:24:56.989Z</time></trkpt><trkpt lat="41.7239783" lon="2.2477333"><ele>613.0</ele><time>2026-04-11T10:24:57.989Z</time></trkpt><trkpt lat="41.72388" lon="2.2477917"><ele>614.0</ele><time>2026-04-11T10:24:58.989Z</time></trkpt><trkpt lat="41.723775" lon="2.2478517"><ele>615.0</ele><time>2026-04-11T10:24:59.989Z</time></trkpt><trkpt lat="41.723675" lon="2.2479033"><ele>615.0</ele><time>2026-04-11T10:25:00.989Z</time></trkpt><trkpt lat="41.7235867" lon="2.2479367"><ele>615.0</ele><time>2026-04-11T10:25:01.989Z</time></trkpt><trkpt lat="41.7235217" lon="2.2480067"><ele>615.0</ele><time>2026-04-11T10:25:02.989Z</time></trkpt><trkpt lat="41.7234767" lon="2.2480817"><ele>615.0</ele><time>2026-04-11T10:25:03.989Z</time></trkpt><trkpt lat="41.7234167" lon="2.2481483"><ele>615.0</ele><time>2026-04-11T10:25:05.99Z</time></trkpt><trkpt lat="41.7233633" lon="2.2482133"><ele>615.0</ele><time>2026-04-11T10:26:38.988Z</time></trkpt><trkpt lat="41.7233" lon="2.2483267"><ele>617.8</ele><time>2026-04-11T10:26:40.989Z</time></trkpt><trkpt lat="41.723225" lon="2.2484433"><ele>620.6</ele><time>2026-04-11T10:26:42.989Z</time></trkpt><trkpt lat="41.72316" lon="2.2485217"><ele>623.4</ele><time>2026-04-11T10:26:44.988Z</time></trkpt><trkpt lat="41.72309" lon="2.2485917"><ele>626.2</ele><time>2026-04-11T10:26:46.988Z</time></trkpt><trkpt lat="41.7229917" lon="2.2486217"><ele>629.0</ele><time>2026-04-11T10:26:48.988Z</time></trkpt><trkpt lat="41.7228883" lon="2.2486"><ele>629.0</ele><time>2026-04-11T10:26:50.988Z</time></trkpt><trkpt lat="41.7227667" lon="2.2486083"><ele>629.0</ele><time>2026-04-11T10:26:52.988Z</time></trkpt><trkpt lat="41.7226967" lon="2.2486233"><ele>629.0</ele><time>2026-04-11T10:26:53.988Z</time></trkpt><trkpt lat="41.72259" lon="2.2486633"><ele>629.0</ele><time>2026-04-11T10:26:55.988Z</time></trkpt><trkpt lat="41.72248" lon="2.2486033"><ele>629.0</ele><time>2026-04-11T10:26:58.988Z</time></trkpt><trkpt lat="41.722365" lon="2.2485683"><ele>630.2</ele><time>2026-04-11T10:27:00.988Z</time></trkpt><trkpt lat="41.7222467" lon="2.2486167"><ele>631.4</ele><time>2026-04-11T10:27:02.988Z</time></trkpt><trkpt lat="41.7221883" lon="2.2486767"><ele>632.6</ele><time>2026-04-11T10:27:03.988Z</time></trkpt><trkpt lat="41.72213" lon="2.2487533"><ele>633.8</ele><time>2026-04-11T10:27:04.989Z</time></trkpt><trkpt lat="41.72207" lon="2.2488367"><ele>635.0</ele><time>2026-04-11T10:27:05.988Z</time></trkpt><trkpt lat="41.7219883" lon="2.2489067"><ele>635.0</ele><time>2026-04-11T10:27:06.988Z</time></trkpt><trkpt lat="41.7219033" lon="2.248955"><ele>635.0</ele><time>2026-04-11T10:27:07.988Z</time></trkpt><trkpt lat="41.7218283" lon="2.2489917"><ele>635.0</ele><time>2026-04-11T10:27:08.988Z</time></trkpt><trkpt lat="41.7217233" lon="2.2490117"><ele>635.0</ele><time>2026-04-11T10:27:10.988Z</time></trkpt><trkpt lat="41.72165" lon="2.2490233"><ele>635.0</ele><time>2026-04-11T10:27:28.989Z</time></trkpt><trkpt lat="41.7215767" lon="2.2490567"><ele>635.0</ele><time>2026-04-11T10:27:30.988Z</time></trkpt><trkpt lat="41.721485" lon="2.2491217"><ele>635.4</ele><time>2026-04-11T10:27:32.988Z</time></trkpt><trkpt lat="41.72138" lon="2.2491817"><ele>635.8</ele><time>2026-04-11T10:27:34.988Z</time></trkpt><trkpt lat="41.72126" lon="2.2492333"><ele>636.2</ele><time>2026-04-11T10:27:36.988Z</time></trkpt><trkpt lat="41.72118" lon="2.2492717"><ele>636.6</ele><time>2026-04-11T10:27:37.988Z</time></trkpt><trkpt lat="41.7211017" lon="2.249315"><ele>637.0</ele><time>2026-04-11T10:27:38.988Z</time></trkpt><trkpt lat="41.7210183" lon="2.24937"><ele>635.3333333333334</ele><time>2026-04-11T10:27:39.988Z</time></trkpt><trkpt lat="41.7209333" lon="2.2494117"><ele>633.6666666666667</ele><time>2026-04-11T10:27:40.988Z</time></trkpt><trkpt lat="41.7208567" lon="2.2494317"><ele>632.0</ele><time>2026-04-11T10:27:41.989Z</time></trkpt><trkpt lat="41.7207767" lon="2.24945"><ele>630.3333333333334</ele><time>2026-04-11T10:27:42.989Z</time></trkpt><trkpt lat="41.7206933" lon="2.24946"><ele>628.6666666666666</ele><time>2026-04-11T10:27:43.988Z</time></trkpt><trkpt lat="41.720615" lon="2.2494533"><ele>627.0</ele><time>2026-04-11T10:27:44.988Z</time></trkpt><trkpt lat="41.72054" lon="2.2494417"><ele>627.0</ele><time>2026-04-11T10:27:45.989Z</time></trkpt><trkpt lat="41.7204633" lon="2.24944"><ele>627.0</ele><time>2026-04-11T10:27:46.988Z</time></trkpt><trkpt lat="41.7203883" lon="2.249445"><ele>627.0</ele><time>2026-04-11T10:27:47.988Z</time></trkpt><trkpt lat="41.7203217" lon="2.2494583"><ele>627.0</ele><time>2026-04-11T10:27:48.988Z</time></trkpt><trkpt lat="41.720255" lon="2.2494767"><ele>627.0</ele><time>2026-04-11T10:27:49.988Z</time></trkpt><trkpt lat="41.720185" lon="2.2495017"><ele>627.0</ele><time>2026-04-11T10:27:50.988Z</time></trkpt><trkpt lat="41.7201167" lon="2.2495383"><ele>627.0</ele><time>2026-04-11T10:27:51.988Z</time></trkpt><trkpt lat="41.7200533" lon="2.249575"><ele>626.0</ele><time>2026-04-11T10:27:52.988Z</time></trkpt><trkpt lat="41.7199867" lon="2.2496233"><ele>625.0</ele><time>2026-04-11T10:27:53.988Z</time></trkpt><trkpt lat="41.7199183" lon="2.2497017"><ele>624.0</ele><time>2026-04-11T10:27:54.988Z</time></trkpt><trkpt lat="41.7198567" lon="2.249785"><ele>623.0</ele><time>2026-04-11T10:27:55.988Z</time></trkpt><trkpt lat="41.7197883" lon="2.2498867"><ele>622.0</ele><time>2026-04-11T10:27:56.988Z</time></trkpt><trkpt lat="41.71972" lon="2.2499933"><ele>622.0</ele><time>2026-04-11T10:27:57.988Z</time></trkpt><trkpt lat="41.7196367" lon="2.2501033"><ele>622.0</ele><time>2026-04-11T10:27:58.988Z</time></trkpt><trkpt lat="41.7195433" lon="2.2502067"><ele>622.0</ele><time>2026-04-11T10:27:59.988Z</time></trkpt><trkpt lat="41.71945" lon="2.2502983"><ele>622.0</ele><time>2026-04-11T10:28:00.988Z</time></trkpt><trkpt lat="41.719355" lon="2.2503483"><ele>622.0</ele><time>2026-04-11T10:28:01.988Z</time></trkpt><trkpt lat="41.7192667" lon="2.2503767"><ele>622.0</ele><time>2026-04-11T10:28:02.988Z</time></trkpt><trkpt lat="41.7191733" lon="2.2503883"><ele>622.0</ele><time>2026-04-11T10:28:03.988Z</time></trkpt><trkpt lat="41.7190867" lon="2.250405"><ele>622.0</ele><time>2026-04-11T10:28:04.988Z</time></trkpt><trkpt lat="41.719" lon="2.250425"><ele>622.0</ele><time>2026-04-11T10:28:05.988Z</time></trkpt><trkpt lat="41.7189167" lon="2.250455"><ele>622.0</ele><time>2026-04-11T10:28:06.988Z</time></trkpt><trkpt lat="41.7188433" lon="2.2504717"><ele>622.0</ele><time>2026-04-11T10:28:07.988Z</time></trkpt><trkpt lat="41.7187317" lon="2.2504567"><ele>622.0</ele><time>2026-04-11T10:28:09.989Z</time></trkpt><trkpt lat="41.7186417" lon="2.2503767"><ele>622.0</ele><time>2026-04-11T10:28:11.988Z</time></trkpt><trkpt lat="41.7185583" lon="2.250315"><ele>622.0</ele><time>2026-04-11T10:28:13.988Z</time></trkpt><trkpt lat="41.7184567" lon="2.25027"><ele>622.0</ele><time>2026-04-11T10:28:15.988Z</time></trkpt><trkpt lat="41.7183717" lon="2.2502633"><ele>622.0</ele><time>2026-04-11T10:28:17.988Z</time></trkpt><trkpt lat="41.71832" lon="2.2503683"><ele>622.0</ele><time>2026-04-11T10:28:20.988Z</time></trkpt><trkpt lat="41.7183233" lon="2.25047"><ele>622.0</ele><time>2026-04-11T10:28:22.988Z</time></trkpt><trkpt lat="41.71835" lon="2.2505933"><ele>622.0</ele><time>2026-04-11T10:28:24.988Z</time></trkpt><trkpt lat="41.7183717" lon="2.250705"><ele>622.0</ele><time>2026-04-11T10:28:26.988Z</time></trkpt><trkpt lat="41.7184033" lon="2.2508117"><ele>622.0</ele><time>2026-04-11T10:28:28.988Z</time></trkpt><trkpt lat="41.718425" lon="2.2509317"><ele>622.0</ele><time>2026-04-11T10:28:30.988Z</time></trkpt><trkpt lat="41.7184267" lon="2.2510633"><ele>622.0</ele><time>2026-04-11T10:28:32.988Z</time></trkpt><trkpt lat="41.7184117" lon="2.2511633"><ele>622.0</ele><time>2026-04-11T10:28:34.988Z</time></trkpt><trkpt lat="41.71832" lon="2.2512533"><ele>622.0</ele><time>2026-04-11T10:28:36.988Z</time></trkpt><trkpt lat="41.718255" lon="2.2512317"><ele>622.0</ele><time>2026-04-11T10:28:38.988Z</time></trkpt><trkpt lat="41.7181917" lon="2.25121"><ele>622.0</ele><time>2026-04-11T10:28:40.988Z</time></trkpt><trkpt lat="41.7181333" lon="2.2511717"><ele>622.0</ele><time>2026-04-11T10:28:42.988Z</time></trkpt><trkpt lat="41.7180433" lon="2.2511417"><ele>622.0</ele><time>2026-04-11T10:28:45.988Z</time></trkpt><trkpt lat="41.7179783" lon="2.2511217"><ele>622.0</ele><time>2026-04-11T10:28:47.988Z</time></trkpt><trkpt lat="41.7179117" lon="2.2511117"><ele>622.0</ele><time>2026-04-11T10:28:49.988Z</time></trkpt><trkpt lat="41.7178067" lon="2.25116"><ele>622.0</ele><time>2026-04-11T10:28:51.988Z</time></trkpt><trkpt lat="41.7177367" lon="2.251195"><ele>622.0</ele><time>2026-04-11T10:28:52.988Z</time></trkpt><trkpt lat="41.717635" lon="2.25126"><ele>619.1666666666667</ele><time>2026-04-11T10:28:54.989Z</time></trkpt><trkpt lat="41.71753" lon="2.251335"><ele>616.3333333333334</ele><time>2026-04-11T10:28:56.988Z</time></trkpt><trkpt lat="41.71747" lon="2.2513983"><ele>613.5</ele><time>2026-04-11T10:28:57.988Z</time></trkpt><trkpt lat="41.7174183" lon="2.2514683"><ele>610.6666666666666</ele><time>2026-04-11T10:28:58.988Z</time></trkpt><trkpt lat="41.7173567" lon="2.2515533"><ele>607.8333333333333</ele><time>2026-04-11T10:28:59.988Z</time></trkpt><trkpt lat="41.7173" lon="2.251645"><ele>605.0</ele><time>2026-04-11T10:29:00.988Z</time></trkpt><trkpt lat="41.71721" lon="2.2517767"><ele>605.0</ele><time>2026-04-11T10:29:01.988Z</time></trkpt><trkpt lat="41.7171183" lon="2.2519067"><ele>605.0</ele><time>2026-04-11T10:29:02.988Z</time></trkpt><trkpt lat="41.71704" lon="2.2520233"><ele>605.0</ele><time>2026-04-11T10:29:03.988Z</time></trkpt><trkpt lat="41.7169767" lon="2.25212"><ele>605.0</ele><time>2026-04-11T10:29:04.988Z</time></trkpt><trkpt lat="41.7169233" lon="2.2522167"><ele>605.0</ele><time>2026-04-11T10:29:05.988Z</time></trkpt><trkpt lat="41.7168817" lon="2.252315"><ele>601.25</ele><time>2026-04-11T10:29:06.988Z</time></trkpt><trkpt lat="41.7168417" lon="2.2524433"><ele>597.5</ele><time>2026-04-11T10:29:07.988Z</time></trkpt><trkpt lat="41.716775" lon="2.2526067"><ele>593.75</ele><time>2026-04-11T10:29:08.988Z</time></trkpt><trkpt lat="41.7167067" lon="2.2527767"><ele>590.0</ele><time>2026-04-11T10:29:09.989Z</time></trkpt><trkpt lat="41.7166267" lon="2.2529"><ele>590.0</ele><time>2026-04-11T10:29:10.988Z</time></trkpt><trkpt lat="41.7165617" lon="2.252975"><ele>590.0</ele><time>2026-04-11T10:29:11.988Z</time></trkpt><trkpt lat="41.716495" lon="2.2530433"><ele>590.0</ele><time>2026-04-11T10:29:12.988Z</time></trkpt><trkpt lat="41.71643" lon="2.25311"><ele>590.0</ele><time>2026-04-11T10:29:13.988Z</time></trkpt><trkpt lat="41.716365" lon="2.253175"><ele>590.0</ele><time>2026-04-11T10:29:14.988Z</time></trkpt><trkpt lat="41.7162883" lon="2.25325"><ele>590.0</ele><time>2026-04-11T10:29:15.988Z</time></trkpt><trkpt lat="41.7162133" lon="2.25332"><ele>591.0</ele><time>2026-04-11T10:29:16.988Z</time></trkpt><trkpt lat="41.716145" lon="2.2534017"><ele>592.0</ele><time>2026-04-11T10:29:17.988Z</time></trkpt><trkpt lat="41.7160783" lon="2.25347"><ele>593.0</ele><time>2026-04-11T10:29:18.988Z</time></trkpt><trkpt lat="41.716015" lon="2.2535217"><ele>594.0</ele><time>2026-04-11T10:29:19.988Z</time></trkpt><trkpt lat="41.7159133" lon="2.25355"><ele>595.0</ele><time>2026-04-11T10:29:21.988Z</time></trkpt><trkpt lat="41.7158617" lon="2.253475"><ele>596.0</ele><time>2026-04-11T10:29:23.988Z</time></trkpt><trkpt lat="41.7158467" lon="2.2533267"><ele>590.0</ele><time>2026-04-11T10:29:25.988Z</time></trkpt><trkpt lat="41.7158633" lon="2.2532083"><ele>584.0</ele><time>2026-04-11T10:29:26.988Z</time></trkpt><trkpt lat="41.7158867" lon="2.2530783"><ele>578.0</ele><time>2026-04-11T10:29:27.988Z</time></trkpt><trkpt lat="41.71591" lon="2.2529517"><ele>572.0</ele><time>2026-04-11T10:29:28.988Z</time></trkpt><trkpt lat="41.715945" lon="2.2528333"><ele>566.0</ele><time>2026-04-11T10:29:29.988Z</time></trkpt><trkpt lat="41.7159783" lon="2.2527317"><ele>564.6</ele><time>2026-04-11T10:29:30.988Z</time></trkpt><trkpt lat="41.7160167" lon="2.2526283"><ele>563.2</ele><time>2026-04-11T10:29:31.988Z</time></trkpt><trkpt lat="41.7160567" lon="2.25253"><ele>561.8</ele><time>2026-04-11T10:29:32.988Z</time></trkpt><trkpt lat="41.7160917" lon="2.2524433"><ele>560.4</ele><time>2026-04-11T10:29:33.988Z</time></trkpt><trkpt lat="41.716125" lon="2.2522983"><ele>559.0</ele><time>2026-04-11T10:29:35.988Z</time></trkpt><trkpt lat="41.7161283" lon="2.2521283"><ele>557.8333333333334</ele><time>2026-04-11T10:29:37.988Z</time></trkpt><trkpt lat="41.71611" lon="2.2520283"><ele>556.6666666666667</ele><time>2026-04-11T10:29:38.988Z</time></trkpt><trkpt lat="41.7160817" lon="2.2519517"><ele>555.5</ele><time>2026-04-11T10:29:39.988Z</time></trkpt><trkpt lat="41.7160483" lon="2.2518717"><ele>554.3333333333334</ele><time>2026-04-11T10:29:40.988Z</time></trkpt><trkpt lat="41.7159367" lon="2.2517833"><ele>553.1666666666666</ele><time>2026-04-11T10:29:42.988Z</time></trkpt><trkpt lat="41.7158633" lon="2.2517617"><ele>552.0</ele><time>2026-04-11T10:29:43.988Z</time></trkpt><trkpt lat="41.715795" lon="2.2517583"><ele>552.0</ele><time>2026-04-11T10:29:44.988Z</time></trkpt><trkpt lat="41.7157283" lon="2.2517567"><ele>552.0</ele><time>2026-04-11T10:29:45.988Z</time></trkpt><trkpt lat="41.7156183" lon="2.25173"><ele>552.0</ele><time>2026-04-11T10:29:47.988Z</time></trkpt><trkpt lat="41.71554" lon="2.25165"><ele>552.0</ele><time>2026-04-11T10:29:49.988Z</time></trkpt><trkpt lat="41.7155567" lon="2.251545"><ele>552.0</ele><time>2026-04-11T10:29:50.988Z</time></trkpt><trkpt lat="41.7155817" lon="2.2514167"><ele>551.0</ele><time>2026-04-11T10:29:51.988Z</time></trkpt><trkpt lat="41.7156" lon="2.2512783"><ele>550.0</ele><time>2026-04-11T10:29:52.988Z</time></trkpt><trkpt lat="41.7156133" lon="2.2511283"><ele>549.0</ele><time>2026-04-11T10:29:53.988Z</time></trkpt><trkpt lat="41.7156083" lon="2.2509783"><ele>548.0</ele><time>2026-04-11T10:29:54.988Z</time></trkpt><trkpt lat="41.7156017" lon="2.2508367"><ele>547.0</ele><time>2026-04-11T10:29:55.988Z</time></trkpt><trkpt lat="41.7155917" lon="2.2507117"><ele>545.2</ele><time>2026-04-11T10:29:56.988Z</time></trkpt><trkpt lat="41.7155733" lon="2.2505783"><ele>543.4000000000001</ele><time>2026-04-11T10:29:57.988Z</time></trkpt><trkpt lat="41.715555" lon="2.2504367"><ele>541.5999999999999</ele><time>2026-04-11T10:29:58.988Z</time></trkpt><trkpt lat="41.71555" lon="2.25031"><ele>539.8</ele><time>2026-04-11T10:29:59.989Z</time></trkpt><trkpt lat="41.71555" lon="2.2501917"><ele>538.0</ele><time>2026-04-11T10:30:00.988Z</time></trkpt><trkpt lat="41.715555" lon="2.25007"><ele>538.0</ele><time>2026-04-11T10:30:01.988Z</time></trkpt><trkpt lat="41.7155633" lon="2.2499383"><ele>538.0</ele><time>2026-04-11T10:30:02.988Z</time></trkpt><trkpt lat="41.7155817" lon="2.2497983"><ele>538.0</ele><time>2026-04-11T10:30:03.988Z</time></trkpt><trkpt lat="41.7156" lon="2.2496667"><ele>538.0</ele><time>2026-04-11T10:30:04.988Z</time></trkpt><trkpt lat="41.715605" lon="2.2495433"><ele>538.0</ele><time>2026-04-11T10:30:05.988Z</time></trkpt><trkpt lat="41.71561" lon="2.2494283"><ele>534.1999999999999</ele><time>2026-04-11T10:30:06.988Z</time></trkpt><trkpt lat="41.7156183" lon="2.2493133"><ele>530.4</ele><time>2026-04-11T10:30:07.988Z</time></trkpt><trkpt lat="41.715635" lon="2.24918"><ele>526.5999999999999</ele><time>2026-04-11T10:30:08.988Z</time></trkpt><trkpt lat="41.7156683" lon="2.249045"><ele>522.8</ele><time>2026-04-11T10:30:09.989Z</time></trkpt><trkpt lat="41.7157017" lon="2.248905"><ele>519.0</ele><time>2026-04-11T10:30:10.988Z</time></trkpt><trkpt lat="41.7157383" lon="2.24878"><ele>516.8333333333334</ele><time>2026-04-11T10:30:11.988Z</time></trkpt><trkpt lat="41.715765" lon="2.2486633"><ele>514.6666666666666</ele><time>2026-04-11T10:30:12.988Z</time></trkpt><trkpt lat="41.7157867" lon="2.2485517"><ele>512.5</ele><time>2026-04-11T10:30:13.988Z</time></trkpt><trkpt lat="41.7158133" lon="2.2484433"><ele>510.3333333333333</ele><time>2026-04-11T10:30:14.989Z</time></trkpt><trkpt lat="41.7158367" lon="2.2483317"><ele>508.16666666666663</ele><time>2026-04-11T10:30:15.988Z</time></trkpt><trkpt lat="41.715865" lon="2.24822"><ele>506.0</ele><time>2026-04-11T10:30:16.988Z</time></trkpt><trkpt lat="41.715895" lon="2.2480983"><ele>505.0</ele><time>2026-04-11T10:30:17.988Z</time></trkpt><trkpt lat="41.7159267" lon="2.2479683"><ele>504.0</ele><time>2026-04-11T10:30:18.988Z</time></trkpt><trkpt lat="41.715945" lon="2.2478433"><ele>503.0</ele><time>2026-04-11T10:30:19.988Z</time></trkpt><trkpt lat="41.7159583" lon="2.2477233"><ele>502.0</ele><time>2026-04-11T10:30:20.988Z</time></trkpt><trkpt lat="41.7159817" lon="2.247605"><ele>501.0</ele><time>2026-04-11T10:30:21.988Z</time></trkpt><trkpt lat="41.7160067" lon="2.2474883"><ele>501.0</ele><time>2026-04-11T10:30:22.988Z</time></trkpt><trkpt lat="41.7160383" lon="2.2473817"><ele>501.0</ele><time>2026-04-11T10:30:23.988Z</time></trkpt><trkpt lat="41.71606" lon="2.2472833"><ele>501.0</ele><time>2026-04-11T10:30:24.988Z</time></trkpt><trkpt lat="41.7160867" lon="2.2471433"><ele>501.0</ele><time>2026-04-11T10:30:26.988Z</time></trkpt><trkpt lat="41.7160367" lon="2.2470683"><ele>501.0</ele><time>2026-04-11T10:30:28.988Z</time></trkpt><trkpt lat="41.715995" lon="2.24716"><ele>501.0</ele><time>2026-04-11T10:30:31.988Z</time></trkpt><trkpt lat="41.716" lon="2.247285"><ele>501.0</ele><time>2026-04-11T10:30:32.988Z</time></trkpt><trkpt lat="41.7159883" lon="2.2474233"><ele>501.0</ele><time>2026-04-11T10:30:33.988Z</time></trkpt><trkpt lat="41.7159517" lon="2.247575"><ele>501.0</ele><time>2026-04-11T10:30:34.988Z</time></trkpt><trkpt lat="41.7158867" lon="2.2477417"><ele>501.0</ele><time>2026-04-11T10:30:35.988Z</time></trkpt><trkpt lat="41.7158183" lon="2.2478883"><ele>501.0</ele><time>2026-04-11T10:30:36.988Z</time></trkpt><trkpt lat="41.7157417" lon="2.248015"><ele>501.0</ele><time>2026-04-11T10:30:37.988Z</time></trkpt><trkpt lat="41.71566" lon="2.24813"><ele>501.0</ele><time>2026-04-11T10:30:38.988Z</time></trkpt><trkpt lat="41.7155667" lon="2.248235"><ele>501.0</ele><time>2026-04-11T10:30:39.988Z</time></trkpt><trkpt lat="41.7154883" lon="2.24834"><ele>502.0</ele><time>2026-04-11T10:30:40.988Z</time></trkpt><trkpt lat="41.7154267" lon="2.2484633"><ele>503.0</ele><time>2026-04-11T10:30:41.988Z</time></trkpt><trkpt lat="41.7153733" lon="2.2485917"><ele>504.0</ele><time>2026-04-11T10:30:42.988Z</time></trkpt><trkpt lat="41.7153317" lon="2.2487283"><ele>505.0</ele><time>2026-04-11T10:30:43.988Z</time></trkpt><trkpt lat="41.715305" lon="2.2488517"><ele>506.0</ele><time>2026-04-11T10:30:44.988Z</time></trkpt><trkpt lat="41.7152733" lon="2.248985"><ele>498.5</ele><time>2026-04-11T10:30:45.988Z</time></trkpt><trkpt lat="41.7152367" lon="2.249115"><ele>491.0</ele><time>2026-04-11T10:30:46.988Z</time></trkpt><trkpt lat="41.715205" lon="2.2492583"><ele>483.5</ele><time>2026-04-11T10:30:47.989Z</time></trkpt><trkpt lat="41.7151717" lon="2.2494133"><ele>476.0</ele><time>2026-04-11T10:30:48.988Z</time></trkpt><trkpt lat="41.7151233" lon="2.2495967"><ele>476.0</ele><time>2026-04-11T10:30:49.988Z</time></trkpt><trkpt lat="41.7150767" lon="2.24978"><ele>476.0</ele><time>2026-04-11T10:30:50.988Z</time></trkpt><trkpt lat="41.715025" lon="2.2499567"><ele>476.0</ele><time>2026-04-11T10:30:51.988Z</time></trkpt><trkpt lat="41.7149783" lon="2.250125"><ele>476.0</ele><time>2026-04-11T10:30:52.988Z</time></trkpt><trkpt lat="41.7149333" lon="2.2502933"><ele>478.75</ele><time>2026-04-11T10:30:53.988Z</time></trkpt><trkpt lat="41.714905" lon="2.250455"><ele>481.5</ele><time>2026-04-11T10:30:54.988Z</time></trkpt><trkpt lat="41.714885" lon="2.2506117"><ele>484.25</ele><time>2026-04-11T10:30:55.988Z</time></trkpt><trkpt lat="41.7148633" lon="2.2507717"><ele>487.0</ele><time>2026-04-11T10:30:56.988Z</time></trkpt><trkpt lat="41.714845" lon="2.2509183"><ele>488.6</ele><time>2026-04-11T10:30:57.988Z</time></trkpt><trkpt lat="41.7148233" lon="2.2510567"><ele>490.20000000000005</ele><time>2026-04-11T10:30:58.988Z</time></trkpt><trkpt lat="41.7147967" lon="2.2511933"><ele>491.8</ele><time>2026-04-11T10:30:59.988Z</time></trkpt><trkpt lat="41.7147683" lon="2.2513217"><ele>493.4</ele><time>2026-04-11T10:31:00.988Z</time></trkpt><trkpt lat="41.7147383" lon="2.251445"><ele>495.0</ele><time>2026-04-11T10:31:01.988Z</time></trkpt><trkpt lat="41.7147083" lon="2.2515617"><ele>496.8</ele><time>2026-04-11T10:31:02.988Z</time></trkpt><trkpt lat="41.7146683" lon="2.251675"><ele>498.6</ele><time>2026-04-11T10:31:03.988Z</time></trkpt><trkpt lat="41.7146283" lon="2.2517783"><ele>500.4</ele><time>2026-04-11T10:31:04.988Z</time></trkpt><trkpt lat="41.7145817" lon="2.251885"><ele>502.2</ele><time>2026-04-11T10:31:05.988Z</time></trkpt><trkpt lat="41.71454" lon="2.25199"><ele>504.0</ele><time>2026-04-11T10:31:06.988Z</time></trkpt><trkpt lat="41.7144933" lon="2.25209"><ele>504.0</ele><time>2026-04-11T10:31:07.988Z</time></trkpt><trkpt lat="41.7144533" lon="2.2521833"><ele>504.0</ele><time>2026-04-11T10:31:08.988Z</time></trkpt><trkpt lat="41.7144133" lon="2.2522717"><ele>504.0</ele><time>2026-04-11T10:31:09.988Z</time></trkpt><trkpt lat="41.7143717" lon="2.2523617"><ele>504.0</ele><time>2026-04-11T10:31:10.988Z</time></trkpt><trkpt lat="41.7143467" lon="2.252455"><ele>504.0</ele><time>2026-04-11T10:31:11.988Z</time></trkpt><trkpt lat="41.7143233" lon="2.252555"><ele>504.0</ele><time>2026-04-11T10:31:12.988Z</time></trkpt><trkpt lat="41.7143117" lon="2.2526533"><ele>497.2857142857143</ele><time>2026-04-11T10:31:13.988Z</time></trkpt><trkpt lat="41.7143067" lon="2.252755"><ele>490.57142857142856</ele><time>2026-04-11T10:31:14.988Z</time></trkpt><trkpt lat="41.71431" lon="2.25285"><ele>483.8571428571429</ele><time>2026-04-11T10:31:15.988Z</time></trkpt><trkpt lat="41.7143183" lon="2.252935"><ele>477.14285714285717</ele><time>2026-04-11T10:31:16.988Z</time></trkpt><trkpt lat="41.714325" lon="2.2530317"><ele>470.42857142857144</ele><time>2026-04-11T10:31:17.988Z</time></trkpt><trkpt lat="41.7143333" lon="2.2531333"><ele>463.7142857142858</ele><time>2026-04-11T10:31:18.988Z</time></trkpt><trkpt lat="41.714345" lon="2.2532267"><ele>457.00000000000006</ele><time>2026-04-11T10:31:19.988Z</time></trkpt><trkpt lat="41.714365" lon="2.2533117"><ele>457.0</ele><time>2026-04-11T10:31:20.989Z</time></trkpt><trkpt lat="41.714385" lon="2.2534"><ele>457.00000000000006</ele><time>2026-04-11T10:31:21.988Z</time></trkpt><trkpt lat="41.7143967" lon="2.2534883"><ele>457.00000000000006</ele><time>2026-04-11T10:31:22.988Z</time></trkpt><trkpt lat="41.7144083" lon="2.2536"><ele>457.0</ele><time>2026-04-11T10:31:23.988Z</time></trkpt><trkpt lat="41.7144133" lon="2.25374"><ele>457.0</ele><time>2026-04-11T10:31:24.988Z</time></trkpt><trkpt lat="41.7144167" lon="2.25391"><ele>473.6666666666667</ele><time>2026-04-11T10:31:25.988Z</time></trkpt><trkpt lat="41.71442" lon="2.2541067"><ele>490.33333333333337</ele><time>2026-04-11T10:31:26.988Z</time></trkpt><trkpt lat="41.71442" lon="2.254325"><ele>507.0</ele><time>2026-04-11T10:31:27.988Z</time></trkpt><trkpt lat="41.7144267" lon="2.2545417"><ele>507.0</ele><time>2026-04-11T10:31:28.988Z</time></trkpt><trkpt lat="41.7144433" lon="2.2547567"><ele>507.0</ele><time>2026-04-11T10:31:29.989Z</time></trkpt><trkpt lat="41.714465" lon="2.25496"><ele>507.0</ele><time>2026-04-11T10:31:30.988Z</time></trkpt><trkpt lat="41.71447" lon="2.2551617"><ele>507.0</ele><time>2026-04-11T10:31:31.988Z</time></trkpt><trkpt lat="41.7144617" lon="2.25536"><ele>507.0</ele><time>2026-04-11T10:31:32.988Z</time></trkpt><trkpt lat="41.7144383" lon="2.2555467"><ele>507.0</ele><time>2026-04-11T10:31:33.988Z</time></trkpt><trkpt lat="41.71442" lon="2.2557383"><ele>507.0</ele><time>2026-04-11T10:31:34.988Z</time></trkpt><trkpt lat="41.714425" lon="2.2559383"><ele>503.66666666666663</ele><time>2026-04-11T10:31:35.988Z</time></trkpt><trkpt lat="41.714465" lon="2.2561467"><ele>500.3333333333333</ele><time>2026-04-11T10:31:36.988Z</time></trkpt><trkpt lat="41.7145183" lon="2.2563533"><ele>497.0</ele><time>2026-04-11T10:31:37.988Z</time></trkpt><trkpt lat="41.71458" lon="2.256545"><ele>490.3333333333333</ele><time>2026-04-11T10:31:38.988Z</time></trkpt><trkpt lat="41.7146467" lon="2.2567317"><ele>483.66666666666663</ele><time>2026-04-11T10:31:39.988Z</time></trkpt><trkpt lat="41.714715" lon="2.2569133"><ele>477.0</ele><time>2026-04-11T10:31:40.988Z</time></trkpt><trkpt lat="41.714775" lon="2.257095"><ele>477.0</ele><time>2026-04-11T10:31:41.988Z</time></trkpt><trkpt lat="41.7148417" lon="2.257255"><ele>477.0</ele><time>2026-04-11T10:31:42.988Z</time></trkpt><trkpt lat="41.71492" lon="2.2573833"><ele>477.0</ele><time>2026-04-11T10:31:43.988Z</time></trkpt><trkpt lat="41.7149983" lon="2.2574833"><ele>477.0</ele><time>2026-04-11T10:31:44.988Z</time></trkpt><trkpt lat="41.71505" lon="2.2576017"><ele>472.25</ele><time>2026-04-11T10:31:45.989Z</time></trkpt><trkpt lat="41.7150817" lon="2.2577517"><ele>467.5</ele><time>2026-04-11T10:31:46.988Z</time></trkpt><trkpt lat="41.7150417" lon="2.257925"><ele>462.75</ele><time>2026-04-11T10:31:47.988Z</time></trkpt><trkpt lat="41.7149933" lon="2.258105"><ele>458.0</ele><time>2026-04-11T10:31:48.988Z</time></trkpt><trkpt lat="41.714975" lon="2.2582767"><ele>456.0</ele><time>2026-04-11T10:31:49.988Z</time></trkpt><trkpt lat="41.7149833" lon="2.2584667"><ele>454.0</ele><time>2026-04-11T10:31:50.988Z</time></trkpt><trkpt lat="41.7149933" lon="2.2586583"><ele>452.0</ele><time>2026-04-11T10:31:51.988Z</time></trkpt><trkpt lat="41.7149867" lon="2.258865"><ele>450.0</ele><time>2026-04-11T10:31:52.988Z</time></trkpt><trkpt lat="41.71495" lon="2.2590733"><ele>450.0</ele><time>2026-04-11T10:31:53.988Z</time></trkpt><trkpt lat="41.714915" lon="2.2592867"><ele>450.0</ele><time>2026-04-11T10:31:54.988Z</time></trkpt><trkpt lat="41.714845" lon="2.259515"><ele>450.0</ele><time>2026-04-11T10:31:55.988Z</time></trkpt><trkpt lat="41.71477" lon="2.2597467"><ele>453.33333333333337</ele><time>2026-04-11T10:31:56.988Z</time></trkpt><trkpt lat="41.714705" lon="2.2599583"><ele>456.6666666666667</ele><time>2026-04-11T10:31:57.988Z</time></trkpt><trkpt lat="41.7146283" lon="2.260165"><ele>460.0</ele><time>2026-04-11T10:31:58.988Z</time></trkpt><trkpt lat="41.71455" lon="2.2603617"><ele>460.0</ele><time>2026-04-11T10:31:59.988Z</time></trkpt><trkpt lat="41.7144817" lon="2.260565"><ele>460.0</ele><time>2026-04-11T10:32:00.988Z</time></trkpt><trkpt lat="41.7144183" lon="2.26076"><ele>460.0</ele><time>2026-04-11T10:32:01.988Z</time></trkpt><trkpt lat="41.71437" lon="2.260945"><ele>459.75</ele><time>2026-04-11T10:32:02.988Z</time></trkpt><trkpt lat="41.7143517" lon="2.26113"><ele>459.5</ele><time>2026-04-11T10:32:03.988Z</time></trkpt><trkpt lat="41.7143683" lon="2.2613217"><ele>459.25</ele><time>2026-04-11T10:32:04.988Z</time></trkpt><trkpt lat="41.71443" lon="2.2615167"><ele>459.0</ele><time>2026-04-11T10:32:05.988Z</time></trkpt><trkpt lat="41.7145083" lon="2.2617067"><ele>459.0</ele><time>2026-04-11T10:32:06.988Z</time></trkpt><trkpt lat="41.7145717" lon="2.2618967"><ele>459.0</ele><time>2026-04-11T10:32:07.988Z</time></trkpt><trkpt lat="41.7146083" lon="2.2620783"><ele>459.0</ele><time>2026-04-11T10:32:08.988Z</time></trkpt><trkpt lat="41.7146217" lon="2.2622817"><ele>459.0</ele><time>2026-04-11T10:32:09.988Z</time></trkpt><trkpt lat="41.7146017" lon="2.2624967"><ele>455.75</ele><time>2026-04-11T10:32:10.988Z</time></trkpt><trkpt lat="41.7145783" lon="2.2627017"><ele>452.5</ele><time>2026-04-11T10:32:11.988Z</time></trkpt><trkpt lat="41.714565" lon="2.2628833"><ele>449.25</ele><time>2026-04-11T10:32:12.988Z</time></trkpt><trkpt lat="41.714555" lon="2.2630617"><ele>446.0</ele><time>2026-04-11T10:32:13.988Z</time></trkpt><trkpt lat="41.7145617" lon="2.2632367"><ele>443.0</ele><time>2026-04-11T10:32:14.988Z</time></trkpt><trkpt lat="41.7146133" lon="2.2633867"><ele>440.0</ele><time>2026-04-11T10:32:15.988Z</time></trkpt><trkpt lat="41.7146917" lon="2.2635217"><ele>437.0</ele><time>2026-04-11T10:32:16.988Z</time></trkpt><trkpt lat="41.7148017" lon="2.2636417"><ele>434.0</ele><time>2026-04-11T10:32:17.988Z</time></trkpt><trkpt lat="41.7149217" lon="2.2637867"><ele>434.0</ele><time>2026-04-11T10:32:18.988Z</time></trkpt><trkpt lat="41.7150467" lon="2.2639267"><ele>434.0</ele><time>2026-04-11T10:32:19.988Z</time></trkpt><trkpt lat="41.715175" lon="2.2640667"><ele>434.0</ele><time>2026-04-11T10:32:20.988Z</time></trkpt><trkpt lat="41.715275" lon="2.2642133"><ele>435.75</ele><time>2026-04-11T10:32:21.988Z</time></trkpt><trkpt lat="41.7153717" lon="2.2643667"><ele>437.5</ele><time>2026-04-11T10:32:22.988Z</time></trkpt><trkpt lat="41.7154633" lon="2.26451"><ele>439.25</ele><time>2026-04-11T10:32:23.988Z</time></trkpt><trkpt lat="41.7155333" lon="2.26466"><ele>441.0</ele><time>2026-04-11T10:32:24.988Z</time></trkpt><trkpt lat="41.7155967" lon="2.26481"><ele>435.25</ele><time>2026-04-11T10:32:25.988Z</time></trkpt><trkpt lat="41.715655" lon="2.26495"><ele>429.5</ele><time>2026-04-11T10:32:26.988Z</time></trkpt><trkpt lat="41.7157383" lon="2.265065"><ele>423.75</ele><time>2026-04-11T10:32:27.988Z</time></trkpt><trkpt lat="41.71585" lon="2.26516"><ele>418.0</ele><time>2026-04-11T10:32:28.988Z</time></trkpt><trkpt lat="41.7159617" lon="2.2652567"><ele>418.0</ele><time>2026-04-11T10:32:29.988Z</time></trkpt><trkpt lat="41.716025" lon="2.2654033"><ele>418.0</ele><time>2026-04-11T10:32:30.988Z</time></trkpt><trkpt lat="41.7161" lon="2.265545"><ele>418.0</ele><time>2026-04-11T10:32:31.988Z</time></trkpt><trkpt lat="41.7161717" lon="2.2657033"><ele>418.0</ele><time>2026-04-11T10:32:32.988Z</time></trkpt><trkpt lat="41.7162317" lon="2.265875"><ele>418.59999999999997</ele><time>2026-04-11T10:32:33.988Z</time></trkpt><trkpt lat="41.716295" lon="2.2660117"><ele>419.2</ele><time>2026-04-11T10:32:34.988Z</time></trkpt><trkpt lat="41.7163333" lon="2.2661383"><ele>419.8</ele><time>2026-04-11T10:32:35.989Z</time></trkpt><trkpt lat="41.7163233" lon="2.2662667"><ele>420.4</ele><time>2026-04-11T10:32:36.988Z</time></trkpt><trkpt lat="41.7163" lon="2.2663733"><ele>421.0</ele><time>2026-04-11T10:32:37.989Z</time></trkpt><trkpt lat="41.7162583" lon="2.266455"><ele>418.0</ele><time>2026-04-11T10:32:38.988Z</time></trkpt><trkpt lat="41.7161367" lon="2.2664533"><ele>415.0</ele><time>2026-04-11T10:32:40.987Z</time></trkpt><trkpt lat="41.7160617" lon="2.2663533"><ele>412.0</ele><time>2026-04-11T10:32:41.987Z</time></trkpt><trkpt lat="41.7159883" lon="2.2661117"><ele>409.0</ele><time>2026-04-11T10:32:42.987Z</time></trkpt><trkpt lat="41.7159267" lon="2.2659217"><ele>407.0</ele><time>2026-04-11T10:32:43.987Z</time></trkpt><trkpt lat="41.7158533" lon="2.2657517"><ele>405.0</ele><time>2026-04-11T10:32:44.987Z</time></trkpt><trkpt lat="41.71577" lon="2.2656083"><ele>403.0</ele><time>2026-04-11T10:32:45.987Z</time></trkpt><trkpt lat="41.71566" lon="2.26551"><ele>401.0</ele><time>2026-04-11T10:32:46.987Z</time></trkpt><trkpt lat="41.715545" lon="2.265425"><ele>400.25</ele><time>2026-04-11T10:32:47.987Z</time></trkpt><trkpt lat="41.7154167" lon="2.2653433"><ele>399.5</ele><time>2026-04-11T10:32:48.987Z</time></trkpt><trkpt lat="41.71529" lon="2.26526"><ele>398.75</ele><time>2026-04-11T10:32:49.987Z</time></trkpt><trkpt lat="41.7151683" lon="2.26517"><ele>398.0</ele><time>2026-04-11T10:32:50.988Z</time></trkpt><trkpt lat="41.715045" lon="2.26506"><ele>398.0</ele><time>2026-04-11T10:32:51.987Z</time></trkpt><trkpt lat="41.7149267" lon="2.2649667"><ele>398.0</ele><time>2026-04-11T10:32:52.987Z</time></trkpt><trkpt lat="41.7148067" lon="2.264875"><ele>398.0</ele><time>2026-04-11T10:32:53.987Z</time></trkpt><trkpt lat="41.71468" lon="2.2647917"><ele>398.0</ele><time>2026-04-11T10:32:54.987Z</time></trkpt><trkpt lat="41.7145367" lon="2.26471"><ele>397.5</ele><time>2026-04-11T10:32:55.987Z</time></trkpt><trkpt lat="41.71441" lon="2.2646267"><ele>397.0</ele><time>2026-04-11T10:32:56.987Z</time></trkpt><trkpt lat="41.7143067" lon="2.2645383"><ele>396.5</ele><time>2026-04-11T10:32:57.987Z</time></trkpt><trkpt lat="41.7142333" lon="2.2644117"><ele>396.0</ele><time>2026-04-11T10:32:58.987Z</time></trkpt><trkpt lat="41.7141533" lon="2.2642867"><ele>396.0</ele><time>2026-04-11T10:32:59.987Z</time></trkpt><trkpt lat="41.7140717" lon="2.26418"><ele>396.0</ele><time>2026-04-11T10:33:00.988Z</time></trkpt><trkpt lat="41.71398" lon="2.2641283"><ele>396.0</ele><time>2026-04-11T10:33:01.987Z</time></trkpt><trkpt lat="41.7138967" lon="2.2641483"><ele>396.0</ele><time>2026-04-11T10:33:02.987Z</time></trkpt><trkpt lat="41.7138167" lon="2.2642183"><ele>396.0</ele><time>2026-04-11T10:33:03.987Z</time></trkpt><trkpt lat="41.71379" lon="2.2643617"><ele>396.0</ele><time>2026-04-11T10:33:04.987Z</time></trkpt><trkpt lat="41.7138117" lon="2.2645117"><ele>396.0</ele><time>2026-04-11T10:33:05.987Z</time></trkpt><trkpt lat="41.7138733" lon="2.264645"><ele>396.0</ele><time>2026-04-11T10:33:06.987Z</time></trkpt><trkpt lat="41.713975" lon="2.2647517"><ele>396.0</ele><time>2026-04-11T10:33:07.987Z</time></trkpt><trkpt lat="41.7140983" lon="2.264845"><ele>396.5</ele><time>2026-04-11T10:33:08.987Z</time></trkpt><trkpt lat="41.7142317" lon="2.2649433"><ele>397.0</ele><time>2026-04-11T10:33:09.988Z</time></trkpt><trkpt lat="41.7143617" lon="2.2650533"><ele>397.5</ele><time>2026-04-11T10:33:10.988Z</time></trkpt><trkpt lat="41.714465" lon="2.2651867"><ele>398.0</ele><time>2026-04-11T10:33:11.987Z</time></trkpt><trkpt lat="41.7145533" lon="2.265345"><ele>398.0</ele><time>2026-04-11T10:33:12.987Z</time></trkpt><trkpt lat="41.714615" lon="2.2655333"><ele>398.0</ele><time>2026-04-11T10:33:13.987Z</time></trkpt><trkpt lat="41.714655" lon="2.265725"><ele>398.0</ele><time>2026-04-11T10:33:14.987Z</time></trkpt><trkpt lat="41.7146867" lon="2.2659217"><ele>395.75</ele><time>2026-04-11T10:33:15.987Z</time></trkpt><trkpt lat="41.714705" lon="2.26611"><ele>393.5</ele><time>2026-04-11T10:33:16.987Z</time></trkpt><trkpt lat="41.7147117" lon="2.2663"><ele>391.25</ele><time>2026-04-11T10:33:17.987Z</time></trkpt><trkpt lat="41.7147017" lon="2.2664867"><ele>389.0</ele><time>2026-04-11T10:33:18.987Z</time></trkpt><trkpt lat="41.7146867" lon="2.26665"><ele>387.2</ele><time>2026-04-11T10:33:19.987Z</time></trkpt><trkpt lat="41.7146783" lon="2.2667917"><ele>385.4</ele><time>2026-04-11T10:33:20.987Z</time></trkpt><trkpt lat="41.7147" lon="2.2669133"><ele>383.6</ele><time>2026-04-11T10:33:21.987Z</time></trkpt><trkpt lat="41.7147633" lon="2.2670217"><ele>381.8</ele><time>2026-04-11T10:33:22.987Z</time></trkpt><trkpt lat="41.7148567" lon="2.2671283"><ele>380.0</ele><time>2026-04-11T10:33:23.987Z</time></trkpt><trkpt lat="41.71497" lon="2.2672333"><ele>383.0</ele><time>2026-04-11T10:33:24.987Z</time></trkpt><trkpt lat="41.7150617" lon="2.2673917"><ele>386.0</ele><time>2026-04-11T10:33:25.987Z</time></trkpt><trkpt lat="41.7151333" lon="2.2675533"><ele>389.0</ele><time>2026-04-11T10:33:26.987Z</time></trkpt><trkpt lat="41.7151983" lon="2.26771"><ele>392.0</ele><time>2026-04-11T10:33:27.987Z</time></trkpt><trkpt lat="41.7152833" lon="2.2678417"><ele>392.0</ele><time>2026-04-11T10:33:28.987Z</time></trkpt><trkpt lat="41.7153883" lon="2.2679683"><ele>392.0</ele><time>2026-04-11T10:33:29.987Z</time></trkpt><trkpt lat="41.7154883" lon="2.2681067"><ele>392.0</ele><time>2026-04-11T10:33:30.987Z</time></trkpt><trkpt lat="41.7155883" lon="2.2682317"><ele>392.0</ele><time>2026-04-11T10:33:31.987Z</time></trkpt><trkpt lat="41.7157083" lon="2.2683217"><ele>385.5</ele><time>2026-04-11T10:33:32.987Z</time></trkpt><trkpt lat="41.7158217" lon="2.2684267"><ele>379.0</ele><time>2026-04-11T10:33:33.987Z</time></trkpt><trkpt lat="41.71591" lon="2.2685767"><ele>372.5</ele><time>2026-04-11T10:33:34.987Z</time></trkpt><trkpt lat="41.7159717" lon="2.2687517"><ele>366.0</ele><time>2026-04-11T10:33:35.987Z</time></trkpt><trkpt lat="41.7160117" lon="2.2689317"><ele>367.5</ele><time>2026-04-11T10:33:36.987Z</time></trkpt><trkpt lat="41.7160517" lon="2.2691133"><ele>369.0</ele><time>2026-04-11T10:33:37.987Z</time></trkpt><trkpt lat="41.71611" lon="2.2692883"><ele>370.5</ele><time>2026-04-11T10:33:38.988Z</time></trkpt><trkpt lat="41.7161833" lon="2.2694617"><ele>372.0</ele><time>2026-04-11T10:33:39.987Z</time></trkpt><trkpt lat="41.716265" lon="2.2696183"><ele>366.5</ele><time>2026-04-11T10:33:40.987Z</time></trkpt><trkpt lat="41.7163367" lon="2.2697867"><ele>361.0</ele><time>2026-04-11T10:33:41.987Z</time></trkpt><trkpt lat="41.7164117" lon="2.269955"><ele>355.5</ele><time>2026-04-11T10:33:42.987Z</time></trkpt><trkpt lat="41.7164783" lon="2.27011"><ele>350.0</ele><time>2026-04-11T10:33:43.987Z</time></trkpt><trkpt lat="41.7165533" lon="2.27025"><ele>350.0</ele><time>2026-04-11T10:33:44.987Z</time></trkpt><trkpt lat="41.7166233" lon="2.2703733"><ele>350.0</ele><time>2026-04-11T10:33:45.987Z</time></trkpt><trkpt lat="41.7167067" lon="2.2704483"><ele>350.0</ele><time>2026-04-11T10:33:46.987Z</time></trkpt><trkpt lat="41.71679" lon="2.2704767"><ele>350.0</ele><time>2026-04-11T10:33:47.987Z</time></trkpt><trkpt lat="41.7168717" lon="2.2704733"><ele>350.0</ele><time>2026-04-11T10:33:48.987Z</time></trkpt><trkpt lat="41.7169383" lon="2.2703883"><ele>350.5</ele><time>2026-04-11T10:33:49.987Z</time></trkpt><trkpt lat="41.7169817" lon="2.27025"><ele>351.0</ele><time>2026-04-11T10:33:50.987Z</time></trkpt><trkpt lat="41.7170183" lon="2.27009"><ele>351.5</ele><time>2026-04-11T10:33:51.987Z</time></trkpt><trkpt lat="41.7170667" lon="2.2699167"><ele>352.0</ele><time>2026-04-11T10:33:52.987Z</time></trkpt><trkpt lat="41.71714" lon="2.2697467"><ele>352.0</ele><time>2026-04-11T10:33:53.987Z</time></trkpt><trkpt lat="41.71722" lon="2.2695967"><ele>352.0</ele><time>2026-04-11T10:33:54.987Z</time></trkpt><trkpt lat="41.71729" lon="2.2694783"><ele>352.0</ele><time>2026-04-11T10:33:55.987Z</time></trkpt><trkpt lat="41.7173483" lon="2.26938"><ele>352.0</ele><time>2026-04-11T10:33:56.987Z</time></trkpt><trkpt lat="41.7174317" lon="2.2693233"><ele>352.0</ele><time>2026-04-11T10:33:57.987Z</time></trkpt><trkpt lat="41.717515" lon="2.2693267"><ele>352.0</ele><time>2026-04-11T10:33:58.987Z</time></trkpt><trkpt lat="41.7175967" lon="2.269385"><ele>352.0</ele><time>2026-04-11T10:33:59.987Z</time></trkpt><trkpt lat="41.7176717" lon="2.2694767"><ele>352.0</ele><time>2026-04-11T10:34:00.987Z</time></trkpt><trkpt lat="41.7177017" lon="2.2696083"><ele>352.0</ele><time>2026-04-11T10:34:01.987Z</time></trkpt><trkpt lat="41.7176717" lon="2.2698083"><ele>352.0</ele><time>2026-04-11T10:34:02.987Z</time></trkpt><trkpt lat="41.717655" lon="2.2699883"><ele>353.25</ele><time>2026-04-11T10:34:03.987Z</time></trkpt><trkpt lat="41.7176617" lon="2.2701517"><ele>354.5</ele><time>2026-04-11T10:34:04.987Z</time></trkpt><trkpt lat="41.7176883" lon="2.2703133"><ele>355.75</ele><time>2026-04-11T10:34:05.987Z</time></trkpt><trkpt lat="41.717735" lon="2.2704683"><ele>357.0</ele><time>2026-04-11T10:34:06.987Z</time></trkpt><trkpt lat="41.7178033" lon="2.2706"><ele>351.75</ele><time>2026-04-11T10:34:07.987Z</time></trkpt><trkpt lat="41.7179" lon="2.2707217"><ele>346.5</ele><time>2026-04-11T10:34:08.987Z</time></trkpt><trkpt lat="41.718015" lon="2.2708183"><ele>341.25</ele><time>2026-04-11T10:34:09.987Z</time></trkpt><trkpt lat="41.718125" lon="2.2709133"><ele>336.0</ele><time>2026-04-11T10:34:10.987Z</time></trkpt><trkpt lat="41.71823" lon="2.2710067"><ele>336.0</ele><time>2026-04-11T10:34:11.987Z</time></trkpt><trkpt lat="41.7183233" lon="2.2710967"><ele>336.0</ele><time>2026-04-11T10:34:12.987Z</time></trkpt><trkpt lat="41.7184033" lon="2.2711817"><ele>336.0</ele><time>2026-04-11T10:34:13.987Z</time></trkpt><trkpt lat="41.7184633" lon="2.2712717"><ele>336.0</ele><time>2026-04-11T10:34:14.987Z</time></trkpt><trkpt lat="41.7185033" lon="2.2713767"><ele>336.0</ele><time>2026-04-11T10:34:15.987Z</time></trkpt><trkpt lat="41.7185267" lon="2.2715067"><ele>333.6</ele><time>2026-04-11T10:34:16.987Z</time></trkpt><trkpt lat="41.7185017" lon="2.27166"><ele>331.20000000000005</ele><time>2026-04-11T10:34:17.987Z</time></trkpt><trkpt lat="41.7184933" lon="2.2718167"><ele>328.79999999999995</ele><time>2026-04-11T10:34:18.987Z</time></trkpt><trkpt lat="41.7185217" lon="2.27196"><ele>326.4</ele><time>2026-04-11T10:34:19.987Z</time></trkpt><trkpt lat="41.7185733" lon="2.2720767"><ele>324.0</ele><time>2026-04-11T10:34:20.987Z</time></trkpt><trkpt lat="41.7186333" lon="2.272175"><ele>324.0</ele><time>2026-04-11T10:34:21.987Z</time></trkpt><trkpt lat="41.7187133" lon="2.272245"><ele>324.0</ele><time>2026-04-11T10:34:22.987Z</time></trkpt><trkpt lat="41.7187867" lon="2.2722767"><ele>324.0</ele><time>2026-04-11T10:34:23.987Z</time></trkpt><trkpt lat="41.718855" lon="2.272255"><ele>324.0</ele><time>2026-04-11T10:34:24.987Z</time></trkpt><trkpt lat="41.7189333" lon="2.27219"><ele>324.0</ele><time>2026-04-11T10:34:25.987Z</time></trkpt><trkpt lat="41.719015" lon="2.2721067"><ele>324.0</ele><time>2026-04-11T10:34:26.987Z</time></trkpt><trkpt lat="41.7191267" lon="2.2720217"><ele>324.0</ele><time>2026-04-11T10:34:27.987Z</time></trkpt><trkpt lat="41.7192383" lon="2.2719317"><ele>324.0</ele><time>2026-04-11T10:34:28.987Z</time></trkpt><trkpt lat="41.71934" lon="2.2718533"><ele>324.0</ele><time>2026-04-11T10:34:29.987Z</time></trkpt><trkpt lat="41.71945" lon="2.2718083"><ele>324.0</ele><time>2026-04-11T10:34:30.987Z</time></trkpt><trkpt lat="41.7195583" lon="2.2717917"><ele>322.8</ele><time>2026-04-11T10:34:31.987Z</time></trkpt><trkpt lat="41.71968" lon="2.2717867"><ele>321.59999999999997</ele><time>2026-04-11T10:34:32.987Z</time></trkpt><trkpt lat="41.71979" lon="2.271805"><ele>320.4</ele><time>2026-04-11T10:34:33.988Z</time></trkpt><trkpt lat="41.7199017" lon="2.2718117"><ele>319.2</ele><time>2026-04-11T10:34:34.987Z</time></trkpt><trkpt lat="41.7200067" lon="2.271815"><ele>318.0</ele><time>2026-04-11T10:34:35.987Z</time></trkpt><trkpt lat="41.7201167" lon="2.2718067"><ele>318.0</ele><time>2026-04-11T10:34:36.987Z</time></trkpt><trkpt lat="41.72022" lon="2.2717933"><ele>318.0</ele><time>2026-04-11T10:34:37.987Z</time></trkpt><trkpt lat="41.720325" lon="2.2717817"><ele>318.0</ele><time>2026-04-11T10:34:38.987Z</time></trkpt><trkpt lat="41.7204317" lon="2.2717667"><ele>318.0</ele><time>2026-04-11T10:34:39.988Z</time></trkpt><trkpt lat="41.7205383" lon="2.2717483"><ele>318.0</ele><time>2026-04-11T10:34:40.987Z</time></trkpt><trkpt lat="41.7206467" lon="2.271735"><ele>318.6</ele><time>2026-04-11T10:34:41.987Z</time></trkpt><trkpt lat="41.72076" lon="2.27173"><ele>319.20000000000005</ele><time>2026-04-11T10:34:42.987Z</time></trkpt><trkpt lat="41.7208617" lon="2.271725"><ele>319.8</ele><time>2026-04-11T10:34:43.987Z</time></trkpt><trkpt lat="41.7209433" lon="2.2717117"><ele>320.40000000000003</ele><time>2026-04-11T10:34:44.987Z</time></trkpt><trkpt lat="41.7210183" lon="2.271715"><ele>321.0</ele><time>2026-04-11T10:34:45.987Z</time></trkpt><trkpt lat="41.721075" lon="2.2718083"><ele>321.0</ele><time>2026-04-11T10:34:47.987Z</time></trkpt><trkpt lat="41.7210567" lon="2.27196"><ele>321.0</ele><time>2026-04-11T10:34:49.987Z</time></trkpt><trkpt lat="41.721045" lon="2.2721583"><ele>321.0</ele><time>2026-04-11T10:34:51.987Z</time></trkpt><trkpt lat="41.7210383" lon="2.2722867"><ele>321.0</ele><time>2026-04-11T10:34:52.987Z</time></trkpt><trkpt lat="41.7210417" lon="2.2724083"><ele>320.5</ele><time>2026-04-11T10:34:53.987Z</time></trkpt><trkpt lat="41.721045" lon="2.2725183"><ele>320.0</ele><time>2026-04-11T10:34:54.987Z</time></trkpt><trkpt lat="41.72104" lon="2.2726117"><ele>319.5</ele><time>2026-04-11T10:34:55.987Z</time></trkpt><trkpt lat="41.72103" lon="2.2727333"><ele>319.0</ele><time>2026-04-11T10:34:57.987Z</time></trkpt><trkpt lat="41.7210833" lon="2.272825"><ele>318.5</ele><time>2026-04-11T10:35:09.987Z</time></trkpt><trkpt lat="41.721185" lon="2.2728633"><ele>318.0</ele><time>2026-04-11T10:35:11.987Z</time></trkpt><trkpt lat="41.72128" lon="2.272875"><ele>318.0</ele><time>2026-04-11T10:35:13.987Z</time></trkpt><trkpt lat="41.72136" lon="2.2728733"><ele>318.0</ele><time>2026-04-11T10:35:15.987Z</time></trkpt><trkpt lat="41.7214233" lon="2.27288"><ele>318.0</ele><time>2026-04-11T10:35:17.987Z</time></trkpt><trkpt lat="41.7214867" lon="2.2729133"><ele>318.0</ele><time>2026-04-11T10:35:20.987Z</time></trkpt><trkpt lat="41.7214283" lon="2.2728467"><ele>318.0</ele><time>2026-04-11T10:35:26.987Z</time></trkpt><trkpt lat="41.7213517" lon="2.272815"><ele>318.0</ele><time>2026-04-11T10:35:28.987Z</time></trkpt><trkpt lat="41.7212317" lon="2.2728133"><ele>318.0</ele><time>2026-04-11T10:35:30.987Z</time></trkpt><trkpt lat="41.7211717" lon="2.2728917"><ele>318.0</ele><time>2026-04-11T10:35:32.988Z</time></trkpt><trkpt lat="41.7211567" lon="2.2730417"><ele>318.0</ele><time>2026-04-11T10:35:34.987Z</time></trkpt><trkpt lat="41.721175" lon="2.273125"><ele>318.0</ele><time>2026-04-11T10:35:35.987Z</time></trkpt><trkpt lat="41.7212367" lon="2.2732033"><ele>318.0</ele><time>2026-04-11T10:35:37.988Z</time></trkpt><trkpt lat="41.7213433" lon="2.2732383"><ele>319.6666666666667</ele><time>2026-04-11T10:35:40.987Z</time></trkpt><trkpt lat="41.7214483" lon="2.27324"><ele>321.3333333333333</ele><time>2026-04-11T10:35:42.987Z</time></trkpt><trkpt lat="41.7215267" lon="2.2732483"><ele>323.0</ele><time>2026-04-11T10:35:43.987Z</time></trkpt><trkpt lat="41.721595" lon="2.27327"><ele>324.66666666666663</ele><time>2026-04-11T10:35:44.987Z</time></trkpt><trkpt lat="41.7216633" lon="2.27329"><ele>326.3333333333333</ele><time>2026-04-11T10:35:45.987Z</time></trkpt><trkpt lat="41.72173" lon="2.27331"><ele>328.0</ele><time>2026-04-11T10:35:46.987Z</time></trkpt><trkpt lat="41.7217967" lon="2.2733267"><ele>327.99999999999994</ele><time>2026-04-11T10:35:47.987Z</time></trkpt><trkpt lat="41.721865" lon="2.2733383"><ele>328.0</ele><time>2026-04-11T10:35:48.988Z</time></trkpt><trkpt lat="41.721935" lon="2.273335"><ele>328.0</ele><time>2026-04-11T10:35:49.987Z</time></trkpt><trkpt lat="41.72201" lon="2.273335"><ele>328.0</ele><time>2026-04-11T10:35:50.987Z</time></trkpt><trkpt lat="41.72208" lon="2.273335"><ele>328.0</ele><time>2026-04-11T10:35:51.987Z</time></trkpt><trkpt lat="41.72215" lon="2.2733283"><ele>327.99999999999994</ele><time>2026-04-11T10:35:52.987Z</time></trkpt><trkpt lat="41.7222267" lon="2.2733217"><ele>328.0</ele><time>2026-04-11T10:35:53.987Z</time></trkpt><trkpt lat="41.7223367" lon="2.27335"><ele>328.3333333333333</ele><time>2026-04-11T10:35:54.987Z</time></trkpt><trkpt lat="41.72241" lon="2.2733083"><ele>328.66666666666663</ele><time>2026-04-11T10:35:55.987Z</time></trkpt><trkpt lat="41.7224867" lon="2.2732467"><ele>329.0</ele><time>2026-04-11T10:35:56.987Z</time></trkpt><trkpt lat="41.7225617" lon="2.2731967"><ele>329.3333333333333</ele><time>2026-04-11T10:35:57.988Z</time></trkpt><trkpt lat="41.7226433" lon="2.2731683"><ele>329.6666666666667</ele><time>2026-04-11T10:35:58.987Z</time></trkpt><trkpt lat="41.7227233" lon="2.2731583"><ele>330.0</ele><time>2026-04-11T10:35:59.987Z</time></trkpt><trkpt lat="41.7228133" lon="2.273145"><ele>330.0</ele><time>2026-04-11T10:36:00.987Z</time></trkpt><trkpt lat="41.7229017" lon="2.2731583"><ele>330.0</ele><time>2026-04-11T10:36:01.987Z</time></trkpt><trkpt lat="41.7229867" lon="2.2731667"><ele>330.0</ele><time>2026-04-11T10:36:02.987Z</time></trkpt><trkpt lat="41.723065" lon="2.273165"><ele>330.0</ele><time>2026-04-11T10:36:03.987Z</time></trkpt><trkpt lat="41.7231367" lon="2.2731467"><ele>330.0</ele><time>2026-04-11T10:36:04.988Z</time></trkpt><trkpt lat="41.7232433" lon="2.2731233"><ele>330.0</ele><time>2026-04-11T10:36:06.987Z</time></trkpt><trkpt lat="41.723375" lon="2.2730933"><ele>328.4</ele><time>2026-04-11T10:36:08.987Z</time></trkpt><trkpt lat="41.7234583" lon="2.2730783"><ele>326.8</ele><time>2026-04-11T10:36:09.987Z</time></trkpt><trkpt lat="41.7235583" lon="2.273075"><ele>325.20000000000005</ele><time>2026-04-11T10:36:10.987Z</time></trkpt><trkpt lat="41.7236783" lon="2.27308"><ele>323.6</ele><time>2026-04-11T10:36:11.987Z</time></trkpt><trkpt lat="41.7237933" lon="2.27308"><ele>322.0</ele><time>2026-04-11T10:36:12.987Z</time></trkpt><trkpt lat="41.7239133" lon="2.2730883"><ele>322.5</ele><time>2026-04-11T10:36:13.987Z</time></trkpt><trkpt lat="41.7240417" lon="2.2731217"><ele>323.0</ele><time>2026-04-11T10:36:14.987Z</time></trkpt><trkpt lat="41.7241633" lon="2.273165"><ele>323.5</ele><time>2026-04-11T10:36:15.987Z</time></trkpt><trkpt lat="41.7242833" lon="2.2732017"><ele>324.0</ele><time>2026-04-11T10:36:16.987Z</time></trkpt><trkpt lat="41.7243967" lon="2.2732467"><ele>324.0</ele><time>2026-04-11T10:36:17.987Z</time></trkpt><trkpt lat="41.724515" lon="2.2733017"><ele>324.0</ele><time>2026-04-11T10:36:18.988Z</time></trkpt><trkpt lat="41.7246333" lon="2.273355"><ele>324.0</ele><time>2026-04-11T10:36:19.987Z</time></trkpt><trkpt lat="41.7247483" lon="2.2734067"><ele>324.0</ele><time>2026-04-11T10:36:20.987Z</time></trkpt><trkpt lat="41.72488" lon="2.2734583"><ele>324.0</ele><time>2026-04-11T10:36:21.987Z</time></trkpt><trkpt lat="41.7249967" lon="2.2735067"><ele>324.0</ele><time>2026-04-11T10:36:22.987Z</time></trkpt><trkpt lat="41.7251183" lon="2.2735383"><ele>324.0</ele><time>2026-04-11T10:36:23.987Z</time></trkpt><trkpt lat="41.7252333" lon="2.2735683"><ele>324.0</ele><time>2026-04-11T10:36:24.987Z</time></trkpt><trkpt lat="41.725345" lon="2.2735933"><ele>324.1666666666667</ele><time>2026-04-11T10:36:25.987Z</time></trkpt><trkpt lat="41.7254517" lon="2.27361"><ele>324.3333333333333</ele><time>2026-04-11T10:36:26.987Z</time></trkpt><trkpt lat="41.7255433" lon="2.2736167"><ele>324.5</ele><time>2026-04-11T10:36:27.987Z</time></trkpt><trkpt lat="41.7256217" lon="2.2736283"><ele>324.66666666666663</ele><time>2026-04-11T10:36:28.987Z</time></trkpt><trkpt lat="41.725695" lon="2.2736417"><ele>324.8333333333333</ele><time>2026-04-11T10:36:29.987Z</time></trkpt><trkpt lat="41.72577" lon="2.2737083"><ele>325.0</ele><time>2026-04-11T10:36:31.987Z</time></trkpt><trkpt lat="41.7258" lon="2.2738183"><ele>325.0</ele><time>2026-04-11T10:36:33.987Z</time></trkpt><trkpt lat="41.7258083" lon="2.273905"><ele>325.0</ele><time>2026-04-11T10:36:34.987Z</time></trkpt><trkpt lat="41.725825" lon="2.2740483"><ele>325.0</ele><time>2026-04-11T10:36:36.987Z</time></trkpt><trkpt lat="41.725825" lon="2.2741783"><ele>325.0</ele><time>2026-04-11T10:36:38.987Z</time></trkpt><trkpt lat="41.7258217" lon="2.2742717"><ele>325.0</ele><time>2026-04-11T10:36:39.987Z</time></trkpt><trkpt lat="41.72582" lon="2.2743817"><ele>325.0</ele><time>2026-04-11T10:36:40.987Z</time></trkpt><trkpt lat="41.7258233" lon="2.2745033"><ele>328.2</ele><time>2026-04-11T10:36:41.987Z</time></trkpt><trkpt lat="41.725825" lon="2.274615"><ele>331.4</ele><time>2026-04-11T10:36:42.987Z</time></trkpt><trkpt lat="41.72583" lon="2.274705"><ele>334.6</ele><time>2026-04-11T10:36:43.987Z</time></trkpt><trkpt lat="41.7258567" lon="2.274835"><ele>337.8</ele><time>2026-04-11T10:36:45.987Z</time></trkpt><trkpt lat="41.7258617" lon="2.2749617"><ele>341.0</ele><time>2026-04-11T10:36:47.987Z</time></trkpt><trkpt lat="41.7258917" lon="2.2751133"><ele>342.20000000000005</ele><time>2026-04-11T10:36:49.987Z</time></trkpt><trkpt lat="41.7259583" lon="2.2752783"><ele>343.40000000000003</ele><time>2026-04-11T10:36:51.987Z</time></trkpt><trkpt lat="41.725995" lon="2.275365"><ele>344.6</ele><time>2026-04-11T10:36:52.987Z</time></trkpt><trkpt lat="41.7260417" lon="2.2754433"><ele>345.8</ele><time>2026-04-11T10:36:53.987Z</time></trkpt><trkpt lat="41.7260867" lon="2.2755167"><ele>347.0</ele><time>2026-04-11T10:36:54.987Z</time></trkpt><trkpt lat="41.7261483" lon="2.2756533"><ele>349.20000000000005</ele><time>2026-04-11T10:36:56.987Z</time></trkpt><trkpt lat="41.726205" lon="2.2757983"><ele>351.4</ele><time>2026-04-11T10:36:58.987Z</time></trkpt><trkpt lat="41.726225" lon="2.2759083"><ele>353.6</ele><time>2026-04-11T10:36:59.987Z</time></trkpt><trkpt lat="41.726255" lon="2.27603"><ele>355.79999999999995</ele><time>2026-04-11T10:37:00.987Z</time></trkpt><trkpt lat="41.7262917" lon="2.276165"><ele>358.0</ele><time>2026-04-11T10:37:01.987Z</time></trkpt><trkpt lat="41.7263217" lon="2.2762967"><ele>358.0</ele><time>2026-04-11T10:37:02.987Z</time></trkpt><trkpt lat="41.7263517" lon="2.276395"><ele>358.0</ele><time>2026-04-11T10:37:03.987Z</time></trkpt><trkpt lat="41.7263283" lon="2.2765417"><ele>358.0</ele><time>2026-04-11T10:37:05.987Z</time></trkpt><trkpt lat="41.7262583" lon="2.2765183"><ele>358.0</ele><time>2026-04-11T10:37:07.987Z</time></trkpt><trkpt lat="41.7261783" lon="2.27638"><ele>358.0</ele><time>2026-04-11T10:37:09.987Z</time></trkpt><trkpt lat="41.7261233" lon="2.276295"><ele>358.0</ele><time>2026-04-11T10:37:10.987Z</time></trkpt><trkpt lat="41.7260633" lon="2.2762067"><ele>358.0</ele><time>2026-04-11T10:37:11.987Z</time></trkpt><trkpt lat="41.7260017" lon="2.27612"><ele>358.0</ele><time>2026-04-11T10:37:12.987Z</time></trkpt><trkpt lat="41.7259383" lon="2.2760283"><ele>358.0</ele><time>2026-04-11T10:37:13.987Z</time></trkpt><trkpt lat="41.7258667" lon="2.2759217"><ele>358.0</ele><time>2026-04-11T10:37:14.987Z</time></trkpt><trkpt lat="41.7257783" lon="2.2758133"><ele>358.79999999999995</ele><time>2026-04-11T10:37:15.987Z</time></trkpt><trkpt lat="41.7256967" lon="2.2757233"><ele>359.6</ele><time>2026-04-11T10:37:16.987Z</time></trkpt><trkpt lat="41.7256267" lon="2.2756367"><ele>360.4</ele><time>2026-04-11T10:37:17.987Z</time></trkpt><trkpt lat="41.7255733" lon="2.27555"><ele>361.20000000000005</ele><time>2026-04-11T10:37:18.987Z</time></trkpt><trkpt lat="41.725505" lon="2.2754667"><ele>362.0</ele><time>2026-04-11T10:37:19.987Z</time></trkpt><trkpt lat="41.7254283" lon="2.275385"><ele>361.5</ele><time>2026-04-11T10:37:20.987Z</time></trkpt><trkpt lat="41.725355" lon="2.275325"><ele>361.0</ele><time>2026-04-11T10:37:21.987Z</time></trkpt><trkpt lat="41.7252933" lon="2.27528"><ele>360.5</ele><time>2026-04-11T10:37:22.987Z</time></trkpt><trkpt lat="41.7252283" lon="2.2752317"><ele>360.0</ele><time>2026-04-11T10:37:23.987Z</time></trkpt><trkpt lat="41.7251567" lon="2.2751833"><ele>359.5</ele><time>2026-04-11T10:37:24.987Z</time></trkpt><trkpt lat="41.7250817" lon="2.2751083"><ele>359.0</ele><time>2026-04-11T10:37:25.987Z</time></trkpt><trkpt lat="41.7249933" lon="2.2750433"><ele>359.0</ele><time>2026-04-11T10:37:26.987Z</time></trkpt><trkpt lat="41.7249117" lon="2.274985"><ele>359.0</ele><time>2026-04-11T10:37:27.988Z</time></trkpt><trkpt lat="41.72483" lon="2.274915"><ele>359.0</ele><time>2026-04-11T10:37:28.987Z</time></trkpt><trkpt lat="41.7247717" lon="2.2748533"><ele>359.0</ele><time>2026-04-11T10:37:29.987Z</time></trkpt><trkpt lat="41.7247233" lon="2.2747917"><ele>359.0</ele><time>2026-04-11T10:37:30.987Z</time></trkpt><trkpt lat="41.7246567" lon="2.2747367"><ele>359.0</ele><time>2026-04-11T10:37:32.987Z</time></trkpt><trkpt lat="41.7246883" lon="2.274835"><ele>359.0</ele><time>2026-04-11T10:37:35.987Z</time></trkpt><trkpt lat="41.7247917" lon="2.27493"><ele>359.0</ele><time>2026-04-11T10:37:37.987Z</time></trkpt><trkpt lat="41.7248667" lon="2.2750017"><ele>359.0</ele><time>2026-04-11T10:37:38.987Z</time></trkpt><trkpt lat="41.724955" lon="2.2750817"><ele>359.0</ele><time>2026-04-11T10:37:39.987Z</time></trkpt><trkpt lat="41.725065" lon="2.2751667"><ele>359.0</ele><time>2026-04-11T10:37:40.987Z</time></trkpt><trkpt lat="41.7251783" lon="2.2752583"><ele>359.0</ele><time>2026-04-11T10:37:41.987Z</time></trkpt><trkpt lat="41.7252783" lon="2.275355"><ele>359.0</ele><time>2026-04-11T10:37:42.987Z</time></trkpt><trkpt lat="41.725365" lon="2.2754617"><ele>359.0</ele><time>2026-04-11T10:37:43.988Z</time></trkpt><trkpt lat="41.7254433" lon="2.27556"><ele>359.75</ele><time>2026-04-11T10:37:44.987Z</time></trkpt><trkpt lat="41.72554" lon="2.2756633"><ele>360.5</ele><time>2026-04-11T10:37:45.987Z</time></trkpt><trkpt lat="41.7256333" lon="2.27577"><ele>361.25</ele><time>2026-04-11T10:37:46.987Z</time></trkpt><trkpt lat="41.7257333" lon="2.2758833"><ele>362.0</ele><time>2026-04-11T10:37:47.987Z</time></trkpt><trkpt lat="41.7258283" lon="2.2760183"><ele>362.0</ele><time>2026-04-11T10:37:48.987Z</time></trkpt><trkpt lat="41.7259233" lon="2.276165"><ele>362.0</ele><time>2026-04-11T10:37:49.987Z</time></trkpt><trkpt lat="41.726005" lon="2.2763167"><ele>362.0</ele><time>2026-04-11T10:37:50.987Z</time></trkpt><trkpt lat="41.72606" lon="2.2764733"><ele>362.0</ele><time>2026-04-11T10:37:51.987Z</time></trkpt><trkpt lat="41.7261117" lon="2.276625"><ele>360.25</ele><time>2026-04-11T10:37:52.987Z</time></trkpt><trkpt lat="41.726155" lon="2.2767817"><ele>358.5</ele><time>2026-04-11T10:37:53.987Z</time></trkpt><trkpt lat="41.726185" lon="2.2769467"><ele>356.75</ele><time>2026-04-11T10:37:54.987Z</time></trkpt><trkpt lat="41.7262333" lon="2.2770933"><ele>355.0</ele><time>2026-04-11T10:37:55.987Z</time></trkpt><trkpt lat="41.726275" lon="2.2772383"><ele>356.0</ele><time>2026-04-11T10:37:56.987Z</time></trkpt><trkpt lat="41.7263217" lon="2.277385"><ele>357.0</ele><time>2026-04-11T10:37:57.987Z</time></trkpt><trkpt lat="41.726375" lon="2.277515"><ele>358.0</ele><time>2026-04-11T10:37:58.987Z</time></trkpt><trkpt lat="41.7264383" lon="2.2776533"><ele>359.0</ele><time>2026-04-11T10:37:59.987Z</time></trkpt><trkpt lat="41.7265" lon="2.277795"><ele>359.0</ele><time>2026-04-11T10:38:00.987Z</time></trkpt><trkpt lat="41.7265567" lon="2.2779367"><ele>359.0</ele><time>2026-04-11T10:38:01.987Z</time></trkpt><trkpt lat="41.7266017" lon="2.2780867"><ele>359.0</ele><time>2026-04-11T10:38:02.987Z</time></trkpt><trkpt lat="41.7266383" lon="2.2782333"><ele>359.0</ele><time>2026-04-11T10:38:03.987Z</time></trkpt><trkpt lat="41.72666" lon="2.27838"><ele>361.0</ele><time>2026-04-11T10:38:04.987Z</time></trkpt><trkpt lat="41.726685" lon="2.2785183"><ele>363.0</ele><time>2026-04-11T10:38:05.987Z</time></trkpt><trkpt lat="41.7267183" lon="2.2786517"><ele>365.0</ele><time>2026-04-11T10:38:06.987Z</time></trkpt><trkpt lat="41.72673" lon="2.2787933"><ele>367.0</ele><time>2026-04-11T10:38:07.987Z</time></trkpt><trkpt lat="41.7267517" lon="2.2789417"><ele>369.0</ele><time>2026-04-11T10:38:08.987Z</time></trkpt><trkpt lat="41.7267517" lon="2.2791017"><ele>372.0</ele><time>2026-04-11T10:38:09.987Z</time></trkpt><trkpt lat="41.72676" lon="2.2792633"><ele>375.0</ele><time>2026-04-11T10:38:10.987Z</time></trkpt><trkpt lat="41.726755" lon="2.2794233"><ele>378.0</ele><time>2026-04-11T10:38:11.987Z</time></trkpt><trkpt lat="41.7267433" lon="2.279585"><ele>381.0</ele><time>2026-04-11T10:38:12.987Z</time></trkpt><trkpt lat="41.72671" lon="2.2797367"><ele>382.4</ele><time>2026-04-11T10:38:13.987Z</time></trkpt><trkpt lat="41.726685" lon="2.279885"><ele>383.8</ele><time>2026-04-11T10:38:14.987Z</time></trkpt><trkpt lat="41.726665" lon="2.2800267"><ele>385.2</ele><time>2026-04-11T10:38:15.987Z</time></trkpt><trkpt lat="41.7266467" lon="2.28016"><ele>386.59999999999997</ele><time>2026-04-11T10:38:16.987Z</time></trkpt><trkpt lat="41.7266383" lon="2.2802933"><ele>388.0</ele><time>2026-04-11T10:38:17.987Z</time></trkpt><trkpt lat="41.72664" lon="2.2804367"><ele>388.0</ele><time>2026-04-11T10:38:18.987Z</time></trkpt><trkpt lat="41.72666" lon="2.2805833"><ele>388.0</ele><time>2026-04-11T10:38:19.987Z</time></trkpt><trkpt lat="41.7266817" lon="2.280725"><ele>388.0</ele><time>2026-04-11T10:38:20.987Z</time></trkpt><trkpt lat="41.7266967" lon="2.2808733"><ele>388.0</ele><time>2026-04-11T10:38:21.987Z</time></trkpt><trkpt lat="41.7267117" lon="2.2810317"><ele>388.0</ele><time>2026-04-11T10:38:22.987Z</time></trkpt><trkpt lat="41.72673" lon="2.2811783"><ele>388.0</ele><time>2026-04-11T10:38:23.987Z</time></trkpt><trkpt lat="41.7267283" lon="2.2813217"><ele>388.0</ele><time>2026-04-11T10:38:24.987Z</time></trkpt><trkpt lat="41.726715" lon="2.2814517"><ele>388.0</ele><time>2026-04-11T10:38:25.987Z</time></trkpt><trkpt lat="41.7266767" lon="2.2815967"><ele>388.0</ele><time>2026-04-11T10:38:26.987Z</time></trkpt><trkpt lat="41.7266417" lon="2.28174"><ele>388.25</ele><time>2026-04-11T10:38:27.988Z</time></trkpt><trkpt lat="41.726585" lon="2.2818883"><ele>388.5</ele><time>2026-04-11T10:38:28.987Z</time></trkpt><trkpt lat="41.7265417" lon="2.2820417"><ele>388.75</ele><time>2026-04-11T10:38:29.988Z</time></trkpt><trkpt lat="41.7265083" lon="2.28219"><ele>389.0</ele><time>2026-04-11T10:38:30.987Z</time></trkpt><trkpt lat="41.72648" lon="2.2823317"><ele>389.0</ele><time>2026-04-11T10:38:31.987Z</time></trkpt><trkpt lat="41.726455" lon="2.28248"><ele>389.0</ele><time>2026-04-11T10:38:32.987Z</time></trkpt><trkpt lat="41.7264233" lon="2.2826483"><ele>389.0</ele><time>2026-04-11T10:38:33.987Z</time></trkpt><trkpt lat="41.726385" lon="2.2828117"><ele>389.0</ele><time>2026-04-11T10:38:34.987Z</time></trkpt><trkpt lat="41.726355" lon="2.2829717"><ele>389.25</ele><time>2026-04-11T10:38:35.987Z</time></trkpt><trkpt lat="41.7263217" lon="2.283145"><ele>389.5</ele><time>2026-04-11T10:38:36.987Z</time></trkpt><trkpt lat="41.7262867" lon="2.283325"><ele>389.75</ele><time>2026-04-11T10:38:37.987Z</time></trkpt><trkpt lat="41.726255" lon="2.2835033"><ele>390.0</ele><time>2026-04-11T10:38:38.987Z</time></trkpt><trkpt lat="41.72624" lon="2.2836667"><ele>390.0</ele><time>2026-04-11T10:38:39.987Z</time></trkpt><trkpt lat="41.7262367" lon="2.2838233"><ele>390.0</ele><time>2026-04-11T10:38:40.987Z</time></trkpt><trkpt lat="41.72624" lon="2.283985"><ele>390.0</ele><time>2026-04-11T10:38:41.987Z</time></trkpt><trkpt lat="41.7262417" lon="2.2841367"><ele>390.0</ele><time>2026-04-11T10:38:42.987Z</time></trkpt><trkpt lat="41.726235" lon="2.28428"><ele>391.2</ele><time>2026-04-11T10:38:43.987Z</time></trkpt><trkpt lat="41.7262433" lon="2.2844117"><ele>392.4</ele><time>2026-04-11T10:38:44.987Z</time></trkpt><trkpt lat="41.726285" lon="2.284525"><ele>393.6</ele><time>2026-04-11T10:38:45.986Z</time></trkpt><trkpt lat="41.72634" lon="2.28465"><ele>394.8</ele><time>2026-04-11T10:38:46.986Z</time></trkpt><trkpt lat="41.72639" lon="2.284785"><ele>396.0</ele><time>2026-04-11T10:38:47.986Z</time></trkpt><trkpt lat="41.7264233" lon="2.2849283"><ele>397.0</ele><time>2026-04-11T10:38:48.986Z</time></trkpt><trkpt lat="41.726445" lon="2.2850783"><ele>398.0</ele><time>2026-04-11T10:38:49.986Z</time></trkpt><trkpt lat="41.7264667" lon="2.2852283"><ele>399.0</ele><time>2026-04-11T10:38:50.986Z</time></trkpt><trkpt lat="41.7264717" lon="2.285375"><ele>400.0</ele><time>2026-04-11T10:38:51.986Z</time></trkpt><trkpt lat="41.726455" lon="2.2855133"><ele>401.0</ele><time>2026-04-11T10:38:52.987Z</time></trkpt><trkpt lat="41.7264067" lon="2.2856533"><ele>402.8</ele><time>2026-04-11T10:38:53.986Z</time></trkpt><trkpt lat="41.7263467" lon="2.2857883"><ele>404.6</ele><time>2026-04-11T10:38:54.986Z</time></trkpt><trkpt lat="41.72628" lon="2.28593"><ele>406.4</ele><time>2026-04-11T10:38:55.986Z</time></trkpt><trkpt lat="41.726245" lon="2.28606"><ele>408.2</ele><time>2026-04-11T10:38:56.986Z</time></trkpt><trkpt lat="41.72622" lon="2.2861867"><ele>410.0</ele><time>2026-04-11T10:38:57.986Z</time></trkpt><trkpt lat="41.7262083" lon="2.2863217"><ele>412.8</ele><time>2026-04-11T10:38:58.986Z</time></trkpt><trkpt lat="41.7261983" lon="2.2864667"><ele>415.6</ele><time>2026-04-11T10:38:59.986Z</time></trkpt><trkpt lat="41.7261817" lon="2.2866167"><ele>418.4</ele><time>2026-04-11T10:39:00.986Z</time></trkpt><trkpt lat="41.7261533" lon="2.2867633"><ele>421.2</ele><time>2026-04-11T10:39:01.986Z</time></trkpt><trkpt lat="41.7261217" lon="2.2869033"><ele>424.0</ele><time>2026-04-11T10:39:02.986Z</time></trkpt><trkpt lat="41.726095" lon="2.28705"><ele>424.0</ele><time>2026-04-11T10:39:03.987Z</time></trkpt><trkpt lat="41.72607" lon="2.2871933"><ele>424.0</ele><time>2026-04-11T10:39:04.986Z</time></trkpt><trkpt lat="41.7260467" lon="2.2873383"><ele>424.0</ele><time>2026-04-11T10:39:05.986Z</time></trkpt><trkpt lat="41.7260133" lon="2.28749"><ele>424.0</ele><time>2026-04-11T10:39:06.986Z</time></trkpt><trkpt lat="41.7259667" lon="2.2876267"><ele>423.50000000000006</ele><time>2026-04-11T10:39:07.986Z</time></trkpt><trkpt lat="41.7259383" lon="2.2877483"><ele>423.0</ele><time>2026-04-11T10:39:08.986Z</time></trkpt><trkpt lat="41.7259367" lon="2.2878667"><ele>422.5</ele><time>2026-04-11T10:39:09.986Z</time></trkpt><trkpt lat="41.72597" lon="2.2879667"><ele>422.0</ele><time>2026-04-11T10:39:10.986Z</time></trkpt><trkpt lat="41.7260133" lon="2.28808"><ele>421.50000000000006</ele><time>2026-04-11T10:39:11.986Z</time></trkpt><trkpt lat="41.72605" lon="2.2881817"><ele>421.0</ele><time>2026-04-11T10:39:12.986Z</time></trkpt><trkpt lat="41.726075" lon="2.2882867"><ele>420.8</ele><time>2026-04-11T10:39:13.986Z</time></trkpt><trkpt lat="41.7260817" lon="2.288395"><ele>420.6</ele><time>2026-04-11T10:39:14.986Z</time></trkpt><trkpt lat="41.726075" lon="2.288525"><ele>420.4</ele><time>2026-04-11T10:39:15.986Z</time></trkpt><trkpt lat="41.7260517" lon="2.2886767"><ele>420.2</ele><time>2026-04-11T10:39:16.986Z</time></trkpt><trkpt lat="41.72603" lon="2.2888217"><ele>420.0</ele><time>2026-04-11T10:39:17.986Z</time></trkpt><trkpt lat="41.7260117" lon="2.2889567"><ele>421.4</ele><time>2026-04-11T10:39:18.986Z</time></trkpt><trkpt lat="41.7260083" lon="2.2891033"><ele>422.8</ele><time>2026-04-11T10:39:19.986Z</time></trkpt><trkpt lat="41.7260217" lon="2.28925"><ele>424.20000000000005</ele><time>2026-04-11T10:39:20.986Z</time></trkpt><trkpt lat="41.72604" lon="2.2893933"><ele>425.6</ele><time>2026-04-11T10:39:21.987Z</time></trkpt><trkpt lat="41.7260367" lon="2.2895417"><ele>427.0</ele><time>2026-04-11T10:39:22.986Z</time></trkpt><trkpt lat="41.7260183" lon="2.2896833"><ele>430.0</ele><time>2026-04-11T10:39:23.986Z</time></trkpt><trkpt lat="41.7259867" lon="2.2898217"><ele>433.0</ele><time>2026-04-11T10:39:24.986Z</time></trkpt><trkpt lat="41.725945" lon="2.2899767"><ele>436.0</ele><time>2026-04-11T10:39:25.986Z</time></trkpt><trkpt lat="41.7259117" lon="2.2901433"><ele>439.0</ele><time>2026-04-11T10:39:26.986Z</time></trkpt><trkpt lat="41.725895" lon="2.2903017"><ele>439.0</ele><time>2026-04-11T10:39:27.986Z</time></trkpt><trkpt lat="41.725885" lon="2.2904717"><ele>439.0</ele><time>2026-04-11T10:39:28.986Z</time></trkpt><trkpt lat="41.72588" lon="2.2906483"><ele>439.0</ele><time>2026-04-11T10:39:29.986Z</time></trkpt><trkpt lat="41.7258867" lon="2.2908283"><ele>439.0</ele><time>2026-04-11T10:39:30.986Z</time></trkpt><trkpt lat="41.72589" lon="2.29101"><ele>440.6</ele><time>2026-04-11T10:39:31.986Z</time></trkpt><trkpt lat="41.7259" lon="2.29119"><ele>442.2</ele><time>2026-04-11T10:39:32.986Z</time></trkpt><trkpt lat="41.7259167" lon="2.2913433"><ele>443.80000000000007</ele><time>2026-04-11T10:39:33.986Z</time></trkpt><trkpt lat="41.7259233" lon="2.291475"><ele>445.40000000000003</ele><time>2026-04-11T10:39:34.986Z</time></trkpt><trkpt lat="41.7259033" lon="2.2915833"><ele>447.0</ele><time>2026-04-11T10:39:35.986Z</time></trkpt><trkpt lat="41.72587" lon="2.2916817"><ele>447.8333333333333</ele><time>2026-04-11T10:39:36.986Z</time></trkpt><trkpt lat="41.72584" lon="2.2917683"><ele>448.66666666666663</ele><time>2026-04-11T10:39:37.986Z</time></trkpt><trkpt lat="41.7258183" lon="2.2918517"><ele>449.5</ele><time>2026-04-11T10:39:38.986Z</time></trkpt><trkpt lat="41.725805" lon="2.2919417"><ele>450.3333333333333</ele><time>2026-04-11T10:39:39.986Z</time></trkpt><trkpt lat="41.7257967" lon="2.29204"><ele>451.16666666666663</ele><time>2026-04-11T10:39:40.986Z</time></trkpt><trkpt lat="41.72579" lon="2.2921583"><ele>452.0</ele><time>2026-04-11T10:39:41.986Z</time></trkpt><trkpt lat="41.7257833" lon="2.2922933"><ele>453.16666666666663</ele><time>2026-04-11T10:39:42.986Z</time></trkpt><trkpt lat="41.7257667" lon="2.2924267"><ele>454.3333333333333</ele><time>2026-04-11T10:39:43.987Z</time></trkpt><trkpt lat="41.725745" lon="2.292555"><ele>455.5</ele><time>2026-04-11T10:39:44.987Z</time></trkpt><trkpt lat="41.7257217" lon="2.2926733"><ele>456.66666666666663</ele><time>2026-04-11T10:39:45.986Z</time></trkpt><trkpt lat="41.725695" lon="2.2927767"><ele>457.8333333333333</ele><time>2026-04-11T10:39:46.986Z</time></trkpt><trkpt lat="41.7256567" lon="2.292855"><ele>459.0</ele><time>2026-04-11T10:39:48.986Z</time></trkpt><trkpt lat="41.725705" lon="2.2927433"><ele>459.0</ele><time>2026-04-11T10:39:56.986Z</time></trkpt><trkpt lat="41.7257283" lon="2.29259"><ele>459.0</ele><time>2026-04-11T10:39:57.986Z</time></trkpt><trkpt lat="41.7257517" lon="2.292435"><ele>459.0</ele><time>2026-04-11T10:39:58.986Z</time></trkpt><trkpt lat="41.72577" lon="2.2922917"><ele>459.0</ele><time>2026-04-11T10:39:59.986Z</time></trkpt><trkpt lat="41.7257783" lon="2.2921567"><ele>459.0</ele><time>2026-04-11T10:40:00.986Z</time></trkpt><trkpt lat="41.7257833" lon="2.292015"><ele>457.6</ele><time>2026-04-11T10:40:01.986Z</time></trkpt><trkpt lat="41.725795" lon="2.2918883"><ele>456.2</ele><time>2026-04-11T10:40:02.987Z</time></trkpt><trkpt lat="41.72582" lon="2.2917683"><ele>454.80000000000007</ele><time>2026-04-11T10:40:03.986Z</time></trkpt><trkpt lat="41.7258467" lon="2.29167"><ele>453.40000000000003</ele><time>2026-04-11T10:40:04.986Z</time></trkpt><trkpt lat="41.725895" lon="2.2915533"><ele>452.0</ele><time>2026-04-11T10:40:06.986Z</time></trkpt><trkpt lat="41.7258133" lon="2.291665"><ele>452.0</ele><time>2026-04-11T10:40:12.986Z</time></trkpt><trkpt lat="41.7257833" lon="2.2917733"><ele>452.00000000000006</ele><time>2026-04-11T10:40:13.986Z</time></trkpt><trkpt lat="41.72575" lon="2.291895"><ele>452.00000000000006</ele><time>2026-04-11T10:40:14.986Z</time></trkpt><trkpt lat="41.7257083" lon="2.2920283"><ele>452.0</ele><time>2026-04-11T10:40:15.986Z</time></trkpt><trkpt lat="41.7256383" lon="2.2921467"><ele>452.0</ele><time>2026-04-11T10:40:16.987Z</time></trkpt><trkpt lat="41.7255633" lon="2.2922533"><ele>453.40000000000003</ele><time>2026-04-11T10:40:17.986Z</time></trkpt><trkpt lat="41.725485" lon="2.2923483"><ele>454.80000000000007</ele><time>2026-04-11T10:40:18.987Z</time></trkpt><trkpt lat="41.7254033" lon="2.29244"><ele>456.2</ele><time>2026-04-11T10:40:19.986Z</time></trkpt><trkpt lat="41.7253283" lon="2.2925367"><ele>457.6</ele><time>2026-04-11T10:40:20.986Z</time></trkpt><trkpt lat="41.7252733" lon="2.2926317"><ele>459.0</ele><time>2026-04-11T10:40:21.986Z</time></trkpt><trkpt lat="41.7252333" lon="2.29273"><ele>456.6</ele><time>2026-04-11T10:40:22.986Z</time></trkpt><trkpt lat="41.7252017" lon="2.292845"><ele>454.2</ele><time>2026-04-11T10:40:23.986Z</time></trkpt><trkpt lat="41.7251767" lon="2.2929717"><ele>451.80000000000007</ele><time>2026-04-11T10:40:24.986Z</time></trkpt><trkpt lat="41.7251567" lon="2.2931033"><ele>449.40000000000003</ele><time>2026-04-11T10:40:25.986Z</time></trkpt><trkpt lat="41.7251367" lon="2.2932383"><ele>447.0</ele><time>2026-04-11T10:40:26.986Z</time></trkpt><trkpt lat="41.725115" lon="2.2933733"><ele>447.0</ele><time>2026-04-11T10:40:27.986Z</time></trkpt><trkpt lat="41.7250983" lon="2.2934967"><ele>447.0</ele><time>2026-04-11T10:40:28.986Z</time></trkpt><trkpt lat="41.7250883" lon="2.29361"><ele>447.0</ele><time>2026-04-11T10:40:29.986Z</time></trkpt><trkpt lat="41.7250983" lon="2.293715"><ele>447.0</ele><time>2026-04-11T10:40:30.986Z</time></trkpt><trkpt lat="41.725125" lon="2.2938017"><ele>447.0</ele><time>2026-04-11T10:40:31.986Z</time></trkpt><trkpt lat="41.7251583" lon="2.293875"><ele>447.0</ele><time>2026-04-11T10:40:32.986Z</time></trkpt><trkpt lat="41.7251883" lon="2.2940083"><ele>448.0</ele><time>2026-04-11T10:40:34.986Z</time></trkpt><trkpt lat="41.72507" lon="2.2940767"><ele>449.00000000000006</ele><time>2026-04-11T10:40:36.986Z</time></trkpt><trkpt lat="41.7250133" lon="2.2941383"><ele>450.00000000000006</ele><time>2026-04-11T10:40:38.986Z</time></trkpt><trkpt lat="41.724955" lon="2.2942167"><ele>451.0</ele><time>2026-04-11T10:40:40.986Z</time></trkpt><trkpt lat="41.7248967" lon="2.2943567"><ele>452.0</ele><time>2026-04-11T10:40:42.986Z</time></trkpt><trkpt lat="41.7248767" lon="2.2944683"><ele>451.99999999999994</ele><time>2026-04-11T10:40:43.986Z</time></trkpt><trkpt lat="41.72486" lon="2.2945833"><ele>452.0</ele><time>2026-04-11T10:40:44.986Z</time></trkpt><trkpt lat="41.7248417" lon="2.294705"><ele>452.0</ele><time>2026-04-11T10:40:45.986Z</time></trkpt><trkpt lat="41.7248317" lon="2.2948167"><ele>452.0</ele><time>2026-04-11T10:40:46.986Z</time></trkpt><trkpt lat="41.7248333" lon="2.2949133"><ele>451.99999999999994</ele><time>2026-04-11T10:40:47.986Z</time></trkpt><trkpt lat="41.7248517" lon="2.2950083"><ele>452.0</ele><time>2026-04-11T10:40:48.987Z</time></trkpt><trkpt lat="41.724885" lon="2.29514"><ele>452.8333333333333</ele><time>2026-04-11T10:40:50.986Z</time></trkpt><trkpt lat="41.7249" lon="2.29525"><ele>453.66666666666663</ele><time>2026-04-11T10:40:53.986Z</time></trkpt><trkpt lat="41.724895" lon="2.2953517"><ele>454.5</ele><time>2026-04-11T10:40:55.986Z</time></trkpt><trkpt lat="41.72487" lon="2.2954367"><ele>455.33333333333337</ele><time>2026-04-11T10:40:57.986Z</time></trkpt><trkpt lat="41.7248267" lon="2.2955017"><ele>456.1666666666667</ele><time>2026-04-11T10:41:25.986Z</time></trkpt><trkpt lat="41.7248033" lon="2.29542"><ele>457.0</ele><time>2026-04-11T10:41:27.986Z</time></trkpt><trkpt lat="41.7247333" lon="2.2953217"><ele>457.0</ele><time>2026-04-11T10:41:29.986Z</time></trkpt><trkpt lat="41.724655" lon="2.29522"><ele>457.00000000000006</ele><time>2026-04-11T10:41:31.986Z</time></trkpt><trkpt lat="41.7245817" lon="2.29511"><ele>457.00000000000006</ele><time>2026-04-11T10:41:33.986Z</time></trkpt><trkpt lat="41.7245467" lon="2.2950367"><ele>457.0</ele><time>2026-04-11T10:41:34.986Z</time></trkpt><trkpt lat="41.724485" lon="2.294895"><ele>457.0</ele><time>2026-04-11T10:41:36.986Z</time></trkpt><trkpt lat="41.7244367" lon="2.294825"><ele>456.0</ele><time>2026-04-11T10:41:37.986Z</time></trkpt><trkpt lat="41.7243733" lon="2.2946983"><ele>455.00000000000006</ele><time>2026-04-11T10:41:39.986Z</time></trkpt><trkpt lat="41.7243567" lon="2.294525"><ele>454.00000000000006</ele><time>2026-04-11T10:41:41.986Z</time></trkpt><trkpt lat="41.7243967" lon="2.2944083"><ele>453.0</ele><time>2026-04-11T10:41:42.986Z</time></trkpt><trkpt lat="41.72443" lon="2.29431"><ele>452.0</ele><time>2026-04-11T10:41:43.986Z</time></trkpt><trkpt lat="41.724455" lon="2.2942117"><ele>452.0</ele><time>2026-04-11T10:41:44.986Z</time></trkpt><trkpt lat="41.7244517" lon="2.2940967"><ele>452.00000000000006</ele><time>2026-04-11T10:41:45.986Z</time></trkpt><trkpt lat="41.7244233" lon="2.2939733"><ele>452.00000000000006</ele><time>2026-04-11T10:41:46.986Z</time></trkpt><trkpt lat="41.7243817" lon="2.2938567"><ele>452.0</ele><time>2026-04-11T10:41:47.986Z</time></trkpt><trkpt lat="41.7243333" lon="2.2937483"><ele>452.0</ele><time>2026-04-11T10:41:48.986Z</time></trkpt><trkpt lat="41.72426" lon="2.2936633"><ele>454.6</ele><time>2026-04-11T10:41:49.986Z</time></trkpt><trkpt lat="41.72417" lon="2.293585"><ele>457.20000000000005</ele><time>2026-04-11T10:41:50.986Z</time></trkpt><trkpt lat="41.72413" lon="2.2934983"><ele>459.8</ele><time>2026-04-11T10:41:51.986Z</time></trkpt><trkpt lat="41.7241317" lon="2.2933767"><ele>462.4</ele><time>2026-04-11T10:41:52.986Z</time></trkpt><trkpt lat="41.7241033" lon="2.2932733"><ele>465.0</ele><time>2026-04-11T10:41:53.986Z</time></trkpt><trkpt lat="41.7240533" lon="2.29316"><ele>462.2</ele><time>2026-04-11T10:41:54.987Z</time></trkpt><trkpt lat="41.7239883" lon="2.29305"><ele>459.4</ele><time>2026-04-11T10:41:55.986Z</time></trkpt><trkpt lat="41.7238917" lon="2.2929567"><ele>456.6</ele><time>2026-04-11T10:41:56.987Z</time></trkpt><trkpt lat="41.723805" lon="2.292875"><ele>453.8</ele><time>2026-04-11T10:41:57.986Z</time></trkpt><trkpt lat="41.7237133" lon="2.2927917"><ele>451.0</ele><time>2026-04-11T10:41:58.987Z</time></trkpt><trkpt lat="41.7236183" lon="2.292705"><ele>458.6</ele><time>2026-04-11T10:41:59.986Z</time></trkpt><trkpt lat="41.7235383" lon="2.2926283"><ele>466.20000000000005</ele><time>2026-04-11T10:42:00.986Z</time></trkpt><trkpt lat="41.723465" lon="2.2925467"><ele>473.79999999999995</ele><time>2026-04-11T10:42:01.986Z</time></trkpt><trkpt lat="41.7233933" lon="2.2924833"><ele>481.4</ele><time>2026-04-11T10:42:02.986Z</time></trkpt><trkpt lat="41.723335" lon="2.292445"><ele>489.0</ele><time>2026-04-11T10:42:03.986Z</time></trkpt><trkpt lat="41.72322" lon="2.2924317"><ele>489.0</ele><time>2026-04-11T10:42:05.986Z</time></trkpt><trkpt lat="41.7231" lon="2.29249"><ele>489.0</ele><time>2026-04-11T10:42:07.986Z</time></trkpt><trkpt lat="41.7230283" lon="2.2925217"><ele>489.0</ele><time>2026-04-11T10:42:08.986Z</time></trkpt><trkpt lat="41.7229533" lon="2.2925483"><ele>489.0</ele><time>2026-04-11T10:42:09.986Z</time></trkpt><trkpt lat="41.7228733" lon="2.2925767"><ele>489.0</ele><time>2026-04-11T10:42:10.986Z</time></trkpt><trkpt lat="41.7228083" lon="2.2925967"><ele>489.0</ele><time>2026-04-11T10:42:11.986Z</time></trkpt><trkpt lat="41.7226883" lon="2.2925433"><ele>493.79999999999995</ele><time>2026-04-11T10:42:13.986Z</time></trkpt><trkpt lat="41.722625" lon="2.292515"><ele>498.59999999999997</ele><time>2026-04-11T10:42:14.986Z</time></trkpt><trkpt lat="41.7225133" lon="2.2925033"><ele>503.4</ele><time>2026-04-11T10:42:16.986Z</time></trkpt><trkpt lat="41.7224233" lon="2.2926317"><ele>508.2</ele><time>2026-04-11T10:42:18.987Z</time></trkpt><trkpt lat="41.7223733" lon="2.292705"><ele>513.0</ele><time>2026-04-11T10:42:19.986Z</time></trkpt><trkpt lat="41.722305" lon="2.2927683"><ele>513.0</ele><time>2026-04-11T10:42:20.986Z</time></trkpt><trkpt lat="41.7222417" lon="2.2928183"><ele>513.0</ele><time>2026-04-11T10:42:21.986Z</time></trkpt><trkpt lat="41.7221817" lon="2.2928717"><ele>513.0</ele><time>2026-04-11T10:42:22.986Z</time></trkpt><trkpt lat="41.7220967" lon="2.29293"><ele>513.0</ele><time>2026-04-11T10:42:24.986Z</time></trkpt><trkpt lat="41.7220167" lon="2.2928917"><ele>513.0</ele><time>2026-04-11T10:42:26.986Z</time></trkpt><trkpt lat="41.7220733" lon="2.29271"><ele>513.0</ele><time>2026-04-11T10:42:28.986Z</time></trkpt><trkpt lat="41.7220867" lon="2.2926117"><ele>513.0</ele><time>2026-04-11T10:42:29.987Z</time></trkpt><trkpt lat="41.722095" lon="2.2925133"><ele>513.0</ele><time>2026-04-11T10:42:30.986Z</time></trkpt><trkpt lat="41.72209" lon="2.2924133"><ele>513.0</ele><time>2026-04-11T10:42:31.986Z</time></trkpt><trkpt lat="41.7220833" lon="2.2923133"><ele>513.0</ele><time>2026-04-11T10:42:32.986Z</time></trkpt><trkpt lat="41.722055" lon="2.2922183"><ele>513.0</ele><time>2026-04-11T10:42:33.986Z</time></trkpt><trkpt lat="41.722015" lon="2.2921333"><ele>513.6</ele><time>2026-04-11T10:42:34.986Z</time></trkpt><trkpt lat="41.72197" lon="2.2920433"><ele>514.1999999999999</ele><time>2026-04-11T10:42:35.986Z</time></trkpt><trkpt lat="41.7219067" lon="2.291945"><ele>514.8</ele><time>2026-04-11T10:42:36.986Z</time></trkpt><trkpt lat="41.7218317" lon="2.2918417"><ele>515.4</ele><time>2026-04-11T10:42:37.986Z</time></trkpt><trkpt lat="41.7217633" lon="2.29173"><ele>516.0</ele><time>2026-04-11T10:42:38.986Z</time></trkpt><trkpt lat="41.7217133" lon="2.2916117"><ele>520.0</ele><time>2026-04-11T10:42:39.986Z</time></trkpt><trkpt lat="41.7216683" lon="2.29151"><ele>524.0</ele><time>2026-04-11T10:42:40.986Z</time></trkpt><trkpt lat="41.7216083" lon="2.2914367"><ele>528.0</ele><time>2026-04-11T10:42:41.986Z</time></trkpt><trkpt lat="41.72155" lon="2.291385"><ele>532.0</ele><time>2026-04-11T10:42:42.986Z</time></trkpt><trkpt lat="41.7214717" lon="2.2914033"><ele>536.0</ele><time>2026-04-11T10:42:43.986Z</time></trkpt><trkpt lat="41.7213917" lon="2.2914083"><ele>540.0</ele><time>2026-04-11T10:42:44.986Z</time></trkpt><trkpt lat="41.721325" lon="2.291395"><ele>542.6</ele><time>2026-04-11T10:42:45.986Z</time></trkpt><trkpt lat="41.7212583" lon="2.2913683"><ele>545.2</ele><time>2026-04-11T10:42:46.986Z</time></trkpt><trkpt lat="41.7211567" lon="2.2912833"><ele>547.8</ele><time>2026-04-11T10:42:48.986Z</time></trkpt><trkpt lat="41.7210917" lon="2.291155"><ele>550.4</ele><time>2026-04-11T10:42:50.986Z</time></trkpt><trkpt lat="41.7211517" lon="2.2910683"><ele>553.0</ele><time>2026-04-11T10:42:52.986Z</time></trkpt><trkpt lat="41.7212667" lon="2.2910533"><ele>553.0</ele><time>2026-04-11T10:42:53.986Z</time></trkpt><trkpt lat="41.72137" lon="2.2910317"><ele>553.0</ele><time>2026-04-11T10:42:54.986Z</time></trkpt><trkpt lat="41.7214683" lon="2.29101"><ele>553.0</ele><time>2026-04-11T10:42:55.986Z</time></trkpt><trkpt lat="41.7215617" lon="2.2910117"><ele>553.0</ele><time>2026-04-11T10:42:56.987Z</time></trkpt><trkpt lat="41.7216567" lon="2.2910317"><ele>553.0</ele><time>2026-04-11T10:42:57.986Z</time></trkpt><trkpt lat="41.7217617" lon="2.291055"><ele>553.0</ele><time>2026-04-11T10:42:58.986Z</time></trkpt><trkpt lat="41.7218783" lon="2.2910833"><ele>553.0</ele><time>2026-04-11T10:42:59.986Z</time></trkpt><trkpt lat="41.7219933" lon="2.291115"><ele>553.0</ele><time>2026-04-11T10:43:00.986Z</time></trkpt><trkpt lat="41.7221033" lon="2.2911333"><ele>553.0</ele><time>2026-04-11T10:43:01.986Z</time></trkpt><trkpt lat="41.72222" lon="2.2911267"><ele>552.1666666666667</ele><time>2026-04-11T10:43:02.986Z</time></trkpt><trkpt lat="41.7223333" lon="2.29111"><ele>551.3333333333334</ele><time>2026-04-11T10:43:03.987Z</time></trkpt><trkpt lat="41.7224167" lon="2.2910883"><ele>550.5</ele><time>2026-04-11T10:43:04.986Z</time></trkpt><trkpt lat="41.7224833" lon="2.2910017"><ele>549.6666666666666</ele><time>2026-04-11T10:43:06.986Z</time></trkpt><trkpt lat="41.7224267" lon="2.2909467"><ele>548.8333333333333</ele><time>2026-04-11T10:43:08.986Z</time></trkpt><trkpt lat="41.7223633" lon="2.290945"><ele>548.0</ele><time>2026-04-11T10:43:09.986Z</time></trkpt><trkpt lat="41.7222883" lon="2.290945"><ele>548.0</ele><time>2026-04-11T10:43:10.986Z</time></trkpt><trkpt lat="41.7222133" lon="2.2909283"><ele>548.0</ele><time>2026-04-11T10:43:11.986Z</time></trkpt><trkpt lat="41.7221367" lon="2.29089"><ele>548.0</ele><time>2026-04-11T10:43:12.986Z</time></trkpt><trkpt lat="41.7220683" lon="2.2908183"><ele>548.0</ele><time>2026-04-11T10:43:13.986Z</time></trkpt><trkpt lat="41.722005" lon="2.2907317"><ele>548.0</ele><time>2026-04-11T10:43:14.986Z</time></trkpt><trkpt lat="41.72193" lon="2.2906283"><ele>548.0</ele><time>2026-04-11T10:43:15.986Z</time></trkpt><trkpt lat="41.7218617" lon="2.2905133"><ele>554.1999999999999</ele><time>2026-04-11T10:43:16.986Z</time></trkpt><trkpt lat="41.72179" lon="2.290405"><ele>560.4</ele><time>2026-04-11T10:43:17.986Z</time></trkpt><trkpt lat="41.7217167" lon="2.290335"><ele>566.5999999999999</ele><time>2026-04-11T10:43:18.986Z</time></trkpt><trkpt lat="41.7216383" lon="2.290295"><ele>572.8</ele><time>2026-04-11T10:43:19.986Z</time></trkpt><trkpt lat="41.721555" lon="2.290285"><ele>579.0</ele><time>2026-04-11T10:43:20.986Z</time></trkpt><trkpt lat="41.7214567" lon="2.290295"><ele>579.0</ele><time>2026-04-11T10:43:21.986Z</time></trkpt><trkpt lat="41.72135" lon="2.29031"><ele>579.0</ele><time>2026-04-11T10:43:22.986Z</time></trkpt><trkpt lat="41.721235" lon="2.2903317"><ele>579.0</ele><time>2026-04-11T10:43:23.986Z</time></trkpt><trkpt lat="41.721125" lon="2.2903567"><ele>579.0</ele><time>2026-04-11T10:43:24.986Z</time></trkpt><trkpt lat="41.7210083" lon="2.29038"><ele>583.0</ele><time>2026-04-11T10:43:25.986Z</time></trkpt><trkpt lat="41.720885" lon="2.2904033"><ele>587.0</ele><time>2026-04-11T10:43:26.986Z</time></trkpt><trkpt lat="41.7207733" lon="2.2904383"><ele>591.0</ele><time>2026-04-11T10:43:27.987Z</time></trkpt><trkpt lat="41.7206633" lon="2.2904967"><ele>595.0</ele><time>2026-04-11T10:43:28.986Z</time></trkpt><trkpt lat="41.7205517" lon="2.2905633"><ele>595.2</ele><time>2026-04-11T10:43:29.986Z</time></trkpt><trkpt lat="41.72045" lon="2.2906367"><ele>595.4</ele><time>2026-04-11T10:43:30.986Z</time></trkpt><trkpt lat="41.7203567" lon="2.2907067"><ele>595.6</ele><time>2026-04-11T10:43:31.986Z</time></trkpt><trkpt lat="41.720285" lon="2.2907783"><ele>595.8</ele><time>2026-04-11T10:43:32.986Z</time></trkpt><trkpt lat="41.720215" lon="2.2908583"><ele>596.0</ele><time>2026-04-11T10:43:33.986Z</time></trkpt><trkpt lat="41.7201567" lon="2.2909517"><ele>596.0</ele><time>2026-04-11T10:43:34.986Z</time></trkpt><trkpt lat="41.72014" lon="2.291065"><ele>596.0</ele><time>2026-04-11T10:43:35.986Z</time></trkpt><trkpt lat="41.7201333" lon="2.29117"><ele>596.0</ele><time>2026-04-11T10:43:36.986Z</time></trkpt><trkpt lat="41.7202083" lon="2.2912867"><ele>596.0</ele><time>2026-04-11T10:43:38.986Z</time></trkpt><trkpt lat="41.7202933" lon="2.291295"><ele>596.0</ele><time>2026-04-11T10:43:39.986Z</time></trkpt><trkpt lat="41.7203917" lon="2.2912933"><ele>592.3333333333333</ele><time>2026-04-11T10:43:40.986Z</time></trkpt><trkpt lat="41.720475" lon="2.2913017"><ele>588.6666666666666</ele><time>2026-04-11T10:43:41.987Z</time></trkpt><trkpt lat="41.7205517" lon="2.2913267"><ele>585.0</ele><time>2026-04-11T10:43:42.986Z</time></trkpt><trkpt lat="41.720615" lon="2.291375"><ele>581.3333333333334</ele><time>2026-04-11T10:43:43.986Z</time></trkpt><trkpt lat="41.7206767" lon="2.2914483"><ele>577.6666666666667</ele><time>2026-04-11T10:43:44.986Z</time></trkpt><trkpt lat="41.720755" lon="2.2915167"><ele>574.0</ele><time>2026-04-11T10:43:45.986Z</time></trkpt><trkpt lat="41.7208367" lon="2.2915983"><ele>574.0</ele><time>2026-04-11T10:43:46.986Z</time></trkpt><trkpt lat="41.720925" lon="2.2916783"><ele>574.0</ele><time>2026-04-11T10:43:47.986Z</time></trkpt><trkpt lat="41.7210117" lon="2.2917517"><ele>574.0</ele><time>2026-04-11T10:43:48.986Z</time></trkpt><trkpt lat="41.72109" lon="2.2918283"><ele>574.0</ele><time>2026-04-11T10:43:49.986Z</time></trkpt><trkpt lat="41.721155" lon="2.29192"><ele>574.0</ele><time>2026-04-11T10:43:50.986Z</time></trkpt><trkpt lat="41.7212233" lon="2.292035"><ele>570.0</ele><time>2026-04-11T10:43:51.987Z</time></trkpt><trkpt lat="41.7212533" lon="2.2921433"><ele>566.0</ele><time>2026-04-11T10:43:52.986Z</time></trkpt><trkpt lat="41.7212867" lon="2.2922483"><ele>562.0</ele><time>2026-04-11T10:43:53.986Z</time></trkpt><trkpt lat="41.7213083" lon="2.2923517"><ele>558.0</ele><time>2026-04-11T10:43:54.986Z</time></trkpt><trkpt lat="41.7213083" lon="2.2924633"><ele>554.0</ele><time>2026-04-11T10:43:55.986Z</time></trkpt><trkpt lat="41.72128" lon="2.2925833"><ele>550.0</ele><time>2026-04-11T10:43:56.986Z</time></trkpt><trkpt lat="41.721255" lon="2.2927033"><ele>550.0</ele><time>2026-04-11T10:43:57.986Z</time></trkpt><trkpt lat="41.72124" lon="2.2928183"><ele>550.0</ele><time>2026-04-11T10:43:58.986Z</time></trkpt><trkpt lat="41.7212083" lon="2.29293"><ele>550.0</ele><time>2026-04-11T10:43:59.986Z</time></trkpt><trkpt lat="41.7211733" lon="2.29302"><ele>550.0</ele><time>2026-04-11T10:44:00.986Z</time></trkpt><trkpt lat="41.721115" lon="2.2930983"><ele>550.0</ele><time>2026-04-11T10:44:01.986Z</time></trkpt><trkpt lat="41.7210567" lon="2.293175"><ele>550.0</ele><time>2026-04-11T10:44:02.986Z</time></trkpt><trkpt lat="41.7210017" lon="2.29326"><ele>559.6</ele><time>2026-04-11T10:44:03.986Z</time></trkpt><trkpt lat="41.7209417" lon="2.2933833"><ele>569.2</ele><time>2026-04-11T10:44:04.986Z</time></trkpt><trkpt lat="41.72089" lon="2.2934917"><ele>578.8</ele><time>2026-04-11T10:44:05.986Z</time></trkpt><trkpt lat="41.720835" lon="2.2936"><ele>588.4</ele><time>2026-04-11T10:44:06.986Z</time></trkpt><trkpt lat="41.7207883" lon="2.2937333"><ele>598.0</ele><time>2026-04-11T10:44:07.986Z</time></trkpt><trkpt lat="41.7207583" lon="2.2938133"><ele>598.0</ele><time>2026-04-11T10:44:08.986Z</time></trkpt><trkpt lat="41.7206983" lon="2.2939333"><ele>598.0</ele><time>2026-04-11T10:44:10.986Z</time></trkpt><trkpt lat="41.7206267" lon="2.2939583"><ele>598.0</ele><time>2026-04-11T10:44:12.986Z</time></trkpt><trkpt lat="41.7205783" lon="2.2938167"><ele>598.0</ele><time>2026-04-11T10:44:14.986Z</time></trkpt><trkpt lat="41.72058" lon="2.2936933"><ele>598.0</ele><time>2026-04-11T10:44:15.986Z</time></trkpt><trkpt lat="41.7206" lon="2.293555"><ele>598.0</ele><time>2026-04-11T10:44:16.986Z</time></trkpt><trkpt lat="41.720635" lon="2.2933883"><ele>598.0</ele><time>2026-04-11T10:44:17.986Z</time></trkpt><trkpt lat="41.7206433" lon="2.293215"><ele>598.0</ele><time>2026-04-11T10:44:18.986Z</time></trkpt><trkpt lat="41.7206517" lon="2.2930467"><ele>598.0</ele><time>2026-04-11T10:44:19.986Z</time></trkpt><trkpt lat="41.720675" lon="2.2928833"><ele>597.6</ele><time>2026-04-11T10:44:20.986Z</time></trkpt><trkpt lat="41.7206867" lon="2.29275"><ele>597.1999999999999</ele><time>2026-04-11T10:44:21.986Z</time></trkpt><trkpt lat="41.7206867" lon="2.2926617"><ele>596.8</ele><time>2026-04-11T10:44:22.986Z</time></trkpt><trkpt lat="41.72065" lon="2.2925183"><ele>596.4</ele><time>2026-04-11T10:44:24.986Z</time></trkpt><trkpt lat="41.720595" lon="2.2924367"><ele>596.0</ele><time>2026-04-11T10:44:25.986Z</time></trkpt><trkpt lat="41.720515" lon="2.292355"><ele>596.0</ele><time>2026-04-11T10:44:26.986Z</time></trkpt><trkpt lat="41.7204383" lon="2.29228"><ele>596.0</ele><time>2026-04-11T10:44:27.987Z</time></trkpt><trkpt lat="41.7203483" lon="2.2922167"><ele>596.0</ele><time>2026-04-11T10:44:28.986Z</time></trkpt><trkpt lat="41.7202633" lon="2.2921617"><ele>596.0</ele><time>2026-04-11T10:44:29.986Z</time></trkpt><trkpt lat="41.7201733" lon="2.2921317"><ele>596.0</ele><time>2026-04-11T10:44:30.986Z</time></trkpt><trkpt lat="41.7200833" lon="2.2921367"><ele>596.4</ele><time>2026-04-11T10:44:31.986Z</time></trkpt><trkpt lat="41.719995" lon="2.2921933"><ele>596.8</ele><time>2026-04-11T10:44:32.986Z</time></trkpt><trkpt lat="41.7199083" lon="2.2922533"><ele>597.1999999999999</ele><time>2026-04-11T10:44:33.986Z</time></trkpt><trkpt lat="41.7198133" lon="2.292305"><ele>597.6</ele><time>2026-04-11T10:44:34.986Z</time></trkpt><trkpt lat="41.7197117" lon="2.2923333"><ele>598.0</ele><time>2026-04-11T10:44:35.986Z</time></trkpt><trkpt lat="41.7196033" lon="2.2923217"><ele>600.0</ele><time>2026-04-11T10:44:36.986Z</time></trkpt><trkpt lat="41.7194967" lon="2.2923017"><ele>602.0</ele><time>2026-04-11T10:44:37.986Z</time></trkpt><trkpt lat="41.719395" lon="2.2922583"><ele>604.0</ele><time>2026-04-11T10:44:38.986Z</time></trkpt><trkpt lat="41.7193133" lon="2.2922267"><ele>606.0</ele><time>2026-04-11T10:44:39.986Z</time></trkpt><trkpt lat="41.71924" lon="2.2921917"><ele>608.0</ele><time>2026-04-11T10:44:40.986Z</time></trkpt><trkpt lat="41.7191467" lon="2.292165"><ele>608.0</ele><time>2026-04-11T10:44:42.986Z</time></trkpt><trkpt lat="41.71911" lon="2.29225"><ele>608.0</ele><time>2026-04-11T10:44:45.986Z</time></trkpt><trkpt lat="41.7191483" lon="2.29241"><ele>608.0</ele><time>2026-04-11T10:44:47.986Z</time></trkpt><trkpt lat="41.71917" lon="2.292525"><ele>608.0</ele><time>2026-04-11T10:44:48.986Z</time></trkpt><trkpt lat="41.719185" lon="2.29266"><ele>608.0</ele><time>2026-04-11T10:44:49.986Z</time></trkpt><trkpt lat="41.7191783" lon="2.2928167"><ele>608.4</ele><time>2026-04-11T10:44:50.986Z</time></trkpt><trkpt lat="41.7191717" lon="2.292945"><ele>608.8</ele><time>2026-04-11T10:44:51.986Z</time></trkpt><trkpt lat="41.719165" lon="2.2930633"><ele>609.2</ele><time>2026-04-11T10:44:52.986Z</time></trkpt><trkpt lat="41.71916" lon="2.2931883"><ele>609.6</ele><time>2026-04-11T10:44:53.986Z</time></trkpt><trkpt lat="41.719155" lon="2.2933133"><ele>610.0</ele><time>2026-04-11T10:44:54.986Z</time></trkpt><trkpt lat="41.71914" lon="2.2934267"><ele>612.1666666666667</ele><time>2026-04-11T10:44:55.986Z</time></trkpt><trkpt lat="41.7191083" lon="2.29352"><ele>614.3333333333334</ele><time>2026-04-11T10:44:56.986Z</time></trkpt><trkpt lat="41.719055" lon="2.293595"><ele>616.5</ele><time>2026-04-11T10:44:57.986Z</time></trkpt><trkpt lat="41.7189883" lon="2.29366"><ele>618.6666666666666</ele><time>2026-04-11T10:44:58.986Z</time></trkpt><trkpt lat="41.7189167" lon="2.2937017"><ele>620.8333333333333</ele><time>2026-04-11T10:44:59.986Z</time></trkpt><trkpt lat="41.71882" lon="2.29371"><ele>623.0</ele><time>2026-04-11T10:45:00.986Z</time></trkpt><trkpt lat="41.7187217" lon="2.2937117"><ele>623.0</ele><time>2026-04-11T10:45:01.987Z</time></trkpt><trkpt lat="41.7186133" lon="2.2937233"><ele>623.0</ele><time>2026-04-11T10:45:02.986Z</time></trkpt><trkpt lat="41.7184983" lon="2.2937533"><ele>623.0</ele><time>2026-04-11T10:45:03.986Z</time></trkpt><trkpt lat="41.7183883" lon="2.2937917"><ele>623.0</ele><time>2026-04-11T10:45:04.986Z</time></trkpt><trkpt lat="41.718285" lon="2.2938283"><ele>623.0</ele><time>2026-04-11T10:45:05.986Z</time></trkpt><trkpt lat="41.7182033" lon="2.2938783"><ele>625.4</ele><time>2026-04-11T10:45:06.986Z</time></trkpt><trkpt lat="41.71813" lon="2.29395"><ele>627.8</ele><time>2026-04-11T10:45:07.986Z</time></trkpt><trkpt lat="41.71807" lon="2.2940383"><ele>630.2</ele><time>2026-04-11T10:45:08.986Z</time></trkpt><trkpt lat="41.7180167" lon="2.2941567"><ele>632.6</ele><time>2026-04-11T10:45:09.986Z</time></trkpt><trkpt lat="41.71799" lon="2.2942783"><ele>635.0</ele><time>2026-04-11T10:45:10.986Z</time></trkpt><trkpt lat="41.717975" lon="2.2943833"><ele>634.9999999999999</ele><time>2026-04-11T10:45:11.986Z</time></trkpt><trkpt lat="41.7179633" lon="2.2944783"><ele>635.0</ele><time>2026-04-11T10:45:12.986Z</time></trkpt><trkpt lat="41.71795" lon="2.29457"><ele>635.0</ele><time>2026-04-11T10:45:13.986Z</time></trkpt><trkpt lat="41.7179183" lon="2.294685"><ele>635.0</ele><time>2026-04-11T10:45:15.986Z</time></trkpt><trkpt lat="41.7179133" lon="2.294775"><ele>635.0</ele><time>2026-04-11T10:45:18.986Z</time></trkpt><trkpt lat="41.7179433" lon="2.29467"><ele>634.9999999999999</ele><time>2026-04-11T10:45:27.986Z</time></trkpt><trkpt lat="41.7179567" lon="2.2945867"><ele>635.0</ele><time>2026-04-11T10:45:28.986Z</time></trkpt><trkpt lat="41.71797" lon="2.2944983"><ele>635.0</ele><time>2026-04-11T10:45:29.986Z</time></trkpt><trkpt lat="41.7180217" lon="2.2943717"><ele>635.0</ele><time>2026-04-11T10:45:31.985Z</time></trkpt><trkpt lat="41.718125" lon="2.2943067"><ele>635.0</ele><time>2026-04-11T10:45:33.985Z</time></trkpt><trkpt lat="41.7182467" lon="2.2943217"><ele>635.0</ele><time>2026-04-11T10:45:35.985Z</time></trkpt><trkpt lat="41.7183217" lon="2.2943383"><ele>635.0</ele><time>2026-04-11T10:45:36.986Z</time></trkpt><trkpt lat="41.7184" lon="2.2943683"><ele>635.0</ele><time>2026-04-11T10:45:37.985Z</time></trkpt><trkpt lat="41.7184717" lon="2.2944083"><ele>635.0</ele><time>2026-04-11T10:45:38.985Z</time></trkpt><trkpt lat="41.7185567" lon="2.29445"><ele>635.0</ele><time>2026-04-11T10:45:39.985Z</time></trkpt><trkpt lat="41.7186417" lon="2.2944933"><ele>635.0</ele><time>2026-04-11T10:45:40.985Z</time></trkpt><trkpt lat="41.7187317" lon="2.29452"><ele>635.0</ele><time>2026-04-11T10:45:41.985Z</time></trkpt><trkpt lat="41.7188367" lon="2.29454"><ele>636.5</ele><time>2026-04-11T10:45:42.986Z</time></trkpt><trkpt lat="41.7189667" lon="2.29455"><ele>638.0</ele><time>2026-04-11T10:45:43.985Z</time></trkpt><trkpt lat="41.7190983" lon="2.2945583"><ele>639.5</ele><time>2026-04-11T10:45:44.985Z</time></trkpt><trkpt lat="41.71922" lon="2.294555"><ele>641.0</ele><time>2026-04-11T10:45:45.985Z</time></trkpt><trkpt lat="41.7193317" lon="2.2945283"><ele>640.5</ele><time>2026-04-11T10:45:46.985Z</time></trkpt><trkpt lat="41.71943" lon="2.2945017"><ele>640.0</ele><time>2026-04-11T10:45:47.985Z</time></trkpt><trkpt lat="41.7195133" lon="2.29448"><ele>639.5</ele><time>2026-04-11T10:45:48.985Z</time></trkpt><trkpt lat="41.7195867" lon="2.2945217"><ele>639.0</ele><time>2026-04-11T10:45:50.985Z</time></trkpt><trkpt lat="41.719605" lon="2.29466"><ele>638.5</ele><time>2026-04-11T10:45:52.985Z</time></trkpt><trkpt lat="41.719575" lon="2.2947567"><ele>638.0</ele><time>2026-04-11T10:45:53.985Z</time></trkpt><trkpt lat="41.7195483" lon="2.294845"><ele>639.3333333333333</ele><time>2026-04-11T10:45:54.985Z</time></trkpt><trkpt lat="41.7195233" lon="2.2949317"><ele>640.6666666666666</ele><time>2026-04-11T10:45:55.985Z</time></trkpt><trkpt lat="41.7195017" lon="2.295035"><ele>642.0</ele><time>2026-04-11T10:45:56.985Z</time></trkpt><trkpt lat="41.7194917" lon="2.2951483"><ele>643.3333333333334</ele><time>2026-04-11T10:45:57.985Z</time></trkpt><trkpt lat="41.7194833" lon="2.295265"><ele>644.6666666666667</ele><time>2026-04-11T10:45:58.985Z</time></trkpt><trkpt lat="41.719475" lon="2.295385"><ele>646.0</ele><time>2026-04-11T10:45:59.985Z</time></trkpt><trkpt lat="41.7194717" lon="2.2955133"><ele>649.4</ele><time>2026-04-11T10:46:00.985Z</time></trkpt><trkpt lat="41.7194633" lon="2.2956567"><ele>652.8</ele><time>2026-04-11T10:46:01.985Z</time></trkpt><trkpt lat="41.7194483" lon="2.2957883"><ele>656.1999999999999</ele><time>2026-04-11T10:46:02.985Z</time></trkpt><trkpt lat="41.7194333" lon="2.2959217"><ele>659.5999999999999</ele><time>2026-04-11T10:46:03.985Z</time></trkpt><trkpt lat="41.7194217" lon="2.29605"><ele>663.0</ele><time>2026-04-11T10:46:04.985Z</time></trkpt><trkpt lat="41.7194233" lon="2.296165"><ele>663.0</ele><time>2026-04-11T10:46:05.985Z</time></trkpt><trkpt lat="41.71944" lon="2.2962883"><ele>663.0</ele><time>2026-04-11T10:46:06.985Z</time></trkpt><trkpt lat="41.7194683" lon="2.296405"><ele>663.0</ele><time>2026-04-11T10:46:07.985Z</time></trkpt><trkpt lat="41.7195017" lon="2.296515"><ele>663.0</ele><time>2026-04-11T10:46:08.985Z</time></trkpt><trkpt lat="41.7195367" lon="2.29661"><ele>663.0</ele><time>2026-04-11T10:46:09.985Z</time></trkpt><trkpt lat="41.7195817" lon="2.2966933"><ele>663.0</ele><time>2026-04-11T10:46:10.986Z</time></trkpt><trkpt lat="41.7196283" lon="2.296775"><ele>668.4</ele><time>2026-04-11T10:46:11.985Z</time></trkpt><trkpt lat="41.719685" lon="2.296865"><ele>673.8</ele><time>2026-04-11T10:46:12.985Z</time></trkpt><trkpt lat="41.7197283" lon="2.2969667"><ele>679.2</ele><time>2026-04-11T10:46:13.985Z</time></trkpt><trkpt lat="41.719765" lon="2.2970883"><ele>684.6</ele><time>2026-04-11T10:46:14.986Z</time></trkpt><trkpt lat="41.7197983" lon="2.2972167"><ele>690.0</ele><time>2026-04-11T10:46:15.985Z</time></trkpt><trkpt lat="41.7198317" lon="2.29734"><ele>691.8333333333334</ele><time>2026-04-11T10:46:16.985Z</time></trkpt><trkpt lat="41.71985" lon="2.29746"><ele>693.6666666666666</ele><time>2026-04-11T10:46:17.985Z</time></trkpt><trkpt lat="41.7198683" lon="2.2975783"><ele>695.5</ele><time>2026-04-11T10:46:18.985Z</time></trkpt><trkpt lat="41.7198683" lon="2.297695"><ele>697.3333333333333</ele><time>2026-04-11T10:46:19.985Z</time></trkpt><trkpt lat="41.71985" lon="2.2978067"><ele>699.1666666666666</ele><time>2026-04-11T10:46:20.985Z</time></trkpt><trkpt lat="41.719815" lon="2.2979233"><ele>701.0</ele><time>2026-04-11T10:46:21.985Z</time></trkpt><trkpt lat="41.7197567" lon="2.2980667"><ele>700.4</ele><time>2026-04-11T10:46:22.985Z</time></trkpt><trkpt lat="41.719705" lon="2.298215"><ele>699.8</ele><time>2026-04-11T10:46:23.985Z</time></trkpt><trkpt lat="41.719665" lon="2.2983617"><ele>699.1999999999999</ele><time>2026-04-11T10:46:24.986Z</time></trkpt><trkpt lat="41.71964" lon="2.2984933"><ele>698.5999999999999</ele><time>2026-04-11T10:46:25.985Z</time></trkpt><trkpt lat="41.71961" lon="2.2986017"><ele>698.0</ele><time>2026-04-11T10:46:26.985Z</time></trkpt><trkpt lat="41.71958" lon="2.2987"><ele>698.0</ele><time>2026-04-11T10:46:27.986Z</time></trkpt><trkpt lat="41.71956" lon="2.2987883"><ele>698.0</ele><time>2026-04-11T10:46:28.985Z</time></trkpt><trkpt lat="41.7195533" lon="2.2988833"><ele>698.0</ele><time>2026-04-11T10:46:29.985Z</time></trkpt><trkpt lat="41.719565" lon="2.2989917"><ele>698.0</ele><time>2026-04-11T10:46:30.986Z</time></trkpt><trkpt lat="41.7195767" lon="2.29912"><ele>698.0</ele><time>2026-04-11T10:46:31.985Z</time></trkpt><trkpt lat="41.7195883" lon="2.299255"><ele>698.0</ele><time>2026-04-11T10:46:32.985Z</time></trkpt><trkpt lat="41.7195817" lon="2.2993767"><ele>698.4285714285713</ele><time>2026-04-11T10:46:33.985Z</time></trkpt><trkpt lat="41.7195667" lon="2.2994783"><ele>698.8571428571429</ele><time>2026-04-11T10:46:34.985Z</time></trkpt><trkpt lat="41.7195533" lon="2.2995683"><ele>699.2857142857142</ele><time>2026-04-11T10:46:35.986Z</time></trkpt><trkpt lat="41.7195517" lon="2.2996533"><ele>699.7142857142857</ele><time>2026-04-11T10:46:36.985Z</time></trkpt><trkpt lat="41.7195583" lon="2.2997383"><ele>700.1428571428571</ele><time>2026-04-11T10:46:37.985Z</time></trkpt><trkpt lat="41.71957" lon="2.299825"><ele>700.5714285714286</ele><time>2026-04-11T10:46:38.985Z</time></trkpt><trkpt lat="41.71957" lon="2.2999183"><ele>701.0</ele><time>2026-04-11T10:46:39.985Z</time></trkpt><trkpt lat="41.71957" lon="2.3000133"><ele>702.8333333333333</ele><time>2026-04-11T10:46:40.985Z</time></trkpt><trkpt lat="41.7195683" lon="2.3001183"><ele>704.6666666666666</ele><time>2026-04-11T10:46:41.985Z</time></trkpt><trkpt lat="41.7195567" lon="2.300235"><ele>706.5</ele><time>2026-04-11T10:46:42.985Z</time></trkpt><trkpt lat="41.7195367" lon="2.3003483"><ele>708.3333333333334</ele><time>2026-04-11T10:46:43.985Z</time></trkpt><trkpt lat="41.7195117" lon="2.3004583"><ele>710.1666666666667</ele><time>2026-04-11T10:46:44.985Z</time></trkpt><trkpt lat="41.719475" lon="2.3005683"><ele>712.0</ele><time>2026-04-11T10:46:45.985Z</time></trkpt><trkpt lat="41.7194533" lon="2.3006767"><ele>712.6</ele><time>2026-04-11T10:46:46.985Z</time></trkpt><trkpt lat="41.7194433" lon="2.3007933"><ele>713.2</ele><time>2026-04-11T10:46:47.985Z</time></trkpt><trkpt lat="41.7194417" lon="2.3009283"><ele>713.8</ele><time>2026-04-11T10:46:48.986Z</time></trkpt><trkpt lat="41.7194417" lon="2.3010817"><ele>714.4</ele><time>2026-04-11T10:46:49.985Z</time></trkpt><trkpt lat="41.7194533" lon="2.3012367"><ele>715.0</ele><time>2026-04-11T10:46:50.985Z</time></trkpt><trkpt lat="41.71947" lon="2.3014033"><ele>716.6666666666667</ele><time>2026-04-11T10:46:51.985Z</time></trkpt><trkpt lat="41.7194767" lon="2.3016"><ele>718.3333333333334</ele><time>2026-04-11T10:46:52.985Z</time></trkpt><trkpt lat="41.71949" lon="2.301815"><ele>720.0</ele><time>2026-04-11T10:46:53.985Z</time></trkpt><trkpt lat="41.7195117" lon="2.3020217"><ele>720.0</ele><time>2026-04-11T10:46:54.985Z</time></trkpt><trkpt lat="41.7195333" lon="2.3022167"><ele>720.0</ele><time>2026-04-11T10:46:55.985Z</time></trkpt><trkpt lat="41.7195683" lon="2.30237"><ele>720.0</ele><time>2026-04-11T10:46:56.985Z</time></trkpt><trkpt lat="41.7196033" lon="2.3025167"><ele>720.0</ele><time>2026-04-11T10:46:57.985Z</time></trkpt><trkpt lat="41.7196367" lon="2.3026333"><ele>721.8</ele><time>2026-04-11T10:46:58.986Z</time></trkpt><trkpt lat="41.71965" lon="2.3027433"><ele>723.6</ele><time>2026-04-11T10:46:59.985Z</time></trkpt><trkpt lat="41.7196417" lon="2.3028417"><ele>725.4000000000001</ele><time>2026-04-11T10:47:00.985Z</time></trkpt><trkpt lat="41.7195983" lon="2.30294"><ele>727.2</ele><time>2026-04-11T10:47:01.985Z</time></trkpt><trkpt lat="41.7195383" lon="2.303055"><ele>729.0</ele><time>2026-04-11T10:47:02.985Z</time></trkpt><trkpt lat="41.7194817" lon="2.3031933"><ele>729.0</ele><time>2026-04-11T10:47:03.985Z</time></trkpt><trkpt lat="41.7194383" lon="2.3033417"><ele>729.0</ele><time>2026-04-11T10:47:04.985Z</time></trkpt><trkpt lat="41.7194133" lon="2.3034833"><ele>729.0</ele><time>2026-04-11T10:47:05.985Z</time></trkpt><trkpt lat="41.7194317" lon="2.303615"><ele>729.0</ele><time>2026-04-11T10:47:06.985Z</time></trkpt><trkpt lat="41.719455" lon="2.30376"><ele>729.0</ele><time>2026-04-11T10:47:07.985Z</time></trkpt><trkpt lat="41.7194783" lon="2.303915"><ele>727.25</ele><time>2026-04-11T10:47:08.985Z</time></trkpt><trkpt lat="41.7194883" lon="2.3040883"><ele>725.5</ele><time>2026-04-11T10:47:09.985Z</time></trkpt><trkpt lat="41.7194783" lon="2.3042583"><ele>723.75</ele><time>2026-04-11T10:47:10.985Z</time></trkpt><trkpt lat="41.719455" lon="2.3044"><ele>722.0</ele><time>2026-04-11T10:47:11.985Z</time></trkpt><trkpt lat="41.7194267" lon="2.304525"><ele>730.75</ele><time>2026-04-11T10:47:12.985Z</time></trkpt><trkpt lat="41.719385" lon="2.3046567"><ele>739.5</ele><time>2026-04-11T10:47:13.985Z</time></trkpt><trkpt lat="41.7193317" lon="2.304815"><ele>748.25</ele><time>2026-04-11T10:47:14.986Z</time></trkpt><trkpt lat="41.7193017" lon="2.30497"><ele>757.0</ele><time>2026-04-11T10:47:15.986Z</time></trkpt><trkpt lat="41.7192783" lon="2.30511"><ele>757.0</ele><time>2026-04-11T10:47:16.986Z</time></trkpt><trkpt lat="41.7192567" lon="2.3052483"><ele>757.0</ele><time>2026-04-11T10:47:17.985Z</time></trkpt><trkpt lat="41.719255" lon="2.3053933"><ele>757.0</ele><time>2026-04-11T10:47:18.986Z</time></trkpt><trkpt lat="41.7192783" lon="2.30554"><ele>757.0</ele><time>2026-04-11T10:47:19.986Z</time></trkpt><trkpt lat="41.719325" lon="2.3056917"><ele>757.0</ele><time>2026-04-11T10:47:20.985Z</time></trkpt><trkpt lat="41.7194033" lon="2.3058417"><ele>757.25</ele><time>2026-04-11T10:47:21.985Z</time></trkpt><trkpt lat="41.719485" lon="2.3060017"><ele>757.5</ele><time>2026-04-11T10:47:22.985Z</time></trkpt><trkpt lat="41.7195717" lon="2.3061583"><ele>757.75</ele><time>2026-04-11T10:47:23.985Z</time></trkpt><trkpt lat="41.7196467" lon="2.3063067"><ele>758.0</ele><time>2026-04-11T10:47:24.986Z</time></trkpt><trkpt lat="41.7197017" lon="2.3064417"><ele>758.0</ele><time>2026-04-11T10:47:25.985Z</time></trkpt><trkpt lat="41.7197383" lon="2.3065817"><ele>758.0</ele><time>2026-04-11T10:47:26.985Z</time></trkpt><trkpt lat="41.7197433" lon="2.3067467"><ele>758.0</ele><time>2026-04-11T10:47:27.985Z</time></trkpt><trkpt lat="41.7197433" lon="2.3068817"><ele>758.0</ele><time>2026-04-11T10:47:28.985Z</time></trkpt><trkpt lat="41.71973" lon="2.30701"><ele>758.0</ele><time>2026-04-11T10:47:29.985Z</time></trkpt><trkpt lat="41.7197017" lon="2.3071267"><ele>758.0</ele><time>2026-04-11T10:47:30.985Z</time></trkpt><trkpt lat="41.719685" lon="2.3072383"><ele>758.0</ele><time>2026-04-11T10:47:31.985Z</time></trkpt><trkpt lat="41.7196933" lon="2.3073567"><ele>758.0</ele><time>2026-04-11T10:47:32.985Z</time></trkpt><trkpt lat="41.719735" lon="2.307465"><ele>758.0</ele><time>2026-04-11T10:47:33.985Z</time></trkpt><trkpt lat="41.7197867" lon="2.307565"><ele>758.0</ele><time>2026-04-11T10:47:34.985Z</time></trkpt><trkpt lat="41.7198133" lon="2.3076633"><ele>758.0</ele><time>2026-04-11T10:47:35.985Z</time></trkpt><trkpt lat="41.7198117" lon="2.3077733"><ele>759.5999999999999</ele><time>2026-04-11T10:47:36.985Z</time></trkpt><trkpt lat="41.7197583" lon="2.3078817"><ele>761.1999999999999</ele><time>2026-04-11T10:47:39.985Z</time></trkpt><trkpt lat="41.719695" lon="2.3079467"><ele>762.8</ele><time>2026-04-11T10:47:41.985Z</time></trkpt><trkpt lat="41.71967" lon="2.30804"><ele>764.4</ele><time>2026-04-11T10:47:43.985Z</time></trkpt><trkpt lat="41.719675" lon="2.308215"><ele>766.0</ele><time>2026-04-11T10:47:45.985Z</time></trkpt><trkpt lat="41.719685" lon="2.30832"><ele>769.0</ele><time>2026-04-11T10:47:46.985Z</time></trkpt><trkpt lat="41.7196933" lon="2.3084267"><ele>772.0</ele><time>2026-04-11T10:47:47.985Z</time></trkpt><trkpt lat="41.7196933" lon="2.30854"><ele>775.0</ele><time>2026-04-11T10:47:48.985Z</time></trkpt><trkpt lat="41.7196783" lon="2.3086433"><ele>778.0</ele><time>2026-04-11T10:47:49.985Z</time></trkpt><trkpt lat="41.719655" lon="2.3087583"><ele>780.9999999999999</ele><time>2026-04-11T10:47:50.985Z</time></trkpt><trkpt lat="41.7196267" lon="2.308875"><ele>784.0</ele><time>2026-04-11T10:47:51.985Z</time></trkpt><trkpt lat="41.7195967" lon="2.3089867"><ele>787.3333333333333</ele><time>2026-04-11T10:47:52.985Z</time></trkpt><trkpt lat="41.7195717" lon="2.3091"><ele>790.6666666666666</ele><time>2026-04-11T10:47:53.985Z</time></trkpt><trkpt lat="41.7195433" lon="2.3092217"><ele>794.0</ele><time>2026-04-11T10:47:54.985Z</time></trkpt><trkpt lat="41.7195217" lon="2.30934"><ele>797.3333333333333</ele><time>2026-04-11T10:47:55.985Z</time></trkpt><trkpt lat="41.71949" lon="2.3094517"><ele>800.6666666666666</ele><time>2026-04-11T10:47:56.985Z</time></trkpt><trkpt lat="41.71949" lon="2.3095417"><ele>804.0</ele><time>2026-04-11T10:47:57.985Z</time></trkpt><trkpt lat="41.719555" lon="2.30965"><ele>808.0</ele><time>2026-04-11T10:47:59.985Z</time></trkpt><trkpt lat="41.719615" lon="2.3097667"><ele>812.0</ele><time>2026-04-11T10:48:01.985Z</time></trkpt><trkpt lat="41.7196117" lon="2.3099517"><ele>816.0</ele><time>2026-04-11T10:48:03.985Z</time></trkpt><trkpt lat="41.7196033" lon="2.3100683"><ele>820.0</ele><time>2026-04-11T10:48:04.985Z</time></trkpt><trkpt lat="41.7195983" lon="2.3102033"><ele>824.0</ele><time>2026-04-11T10:48:05.985Z</time></trkpt><trkpt lat="41.7195883" lon="2.3103483"><ele>824.0</ele><time>2026-04-11T10:48:06.985Z</time></trkpt><trkpt lat="41.7195933" lon="2.3104917"><ele>824.0</ele><time>2026-04-11T10:48:07.985Z</time></trkpt><trkpt lat="41.7196117" lon="2.310625"><ele>824.0</ele><time>2026-04-11T10:48:08.985Z</time></trkpt><trkpt lat="41.7196383" lon="2.3107633"><ele>824.0</ele><time>2026-04-11T10:48:09.985Z</time></trkpt><trkpt lat="41.7196617" lon="2.3109083"><ele>824.0</ele><time>2026-04-11T10:48:10.985Z</time></trkpt><trkpt lat="41.7196817" lon="2.3110517"><ele>828.25</ele><time>2026-04-11T10:48:11.985Z</time></trkpt><trkpt lat="41.7196917" lon="2.3111967"><ele>832.5</ele><time>2026-04-11T10:48:12.985Z</time></trkpt><trkpt lat="41.7196933" lon="2.3113467"><ele>836.75</ele><time>2026-04-11T10:48:13.985Z</time></trkpt><trkpt lat="41.7197" lon="2.3115"><ele>841.0</ele><time>2026-04-11T10:48:14.985Z</time></trkpt><trkpt lat="41.7197067" lon="2.3116533"><ele>843.0</ele><time>2026-04-11T10:48:15.985Z</time></trkpt><trkpt lat="41.719705" lon="2.31181"><ele>845.0</ele><time>2026-04-11T10:48:16.985Z</time></trkpt><trkpt lat="41.7196783" lon="2.3119667"><ele>847.0</ele><time>2026-04-11T10:48:17.985Z</time></trkpt><trkpt lat="41.7196517" lon="2.3121233"><ele>849.0</ele><time>2026-04-11T10:48:18.985Z</time></trkpt><trkpt lat="41.7196233" lon="2.3123033"><ele>850.75</ele><time>2026-04-11T10:48:19.985Z</time></trkpt><trkpt lat="41.7195983" lon="2.3124833"><ele>852.5</ele><time>2026-04-11T10:48:20.985Z</time></trkpt><trkpt lat="41.7195817" lon="2.312655"><ele>854.25</ele><time>2026-04-11T10:48:21.985Z</time></trkpt><trkpt lat="41.71958" lon="2.3128183"><ele>856.0</ele><time>2026-04-11T10:48:22.985Z</time></trkpt><trkpt lat="41.7195767" lon="2.3129717"><ele>855.6666666666666</ele><time>2026-04-11T10:48:23.985Z</time></trkpt><trkpt lat="41.7195533" lon="2.31311"><ele>855.3333333333333</ele><time>2026-04-11T10:48:24.985Z</time></trkpt><trkpt lat="41.71951" lon="2.3132083"><ele>855.0</ele><time>2026-04-11T10:48:25.985Z</time></trkpt><trkpt lat="41.719455" lon="2.3132783"><ele>854.6666666666667</ele><time>2026-04-11T10:48:26.985Z</time></trkpt><trkpt lat="41.7193783" lon="2.3133483"><ele>854.3333333333334</ele><time>2026-04-11T10:48:27.985Z</time></trkpt><trkpt lat="41.719315" lon="2.3134217"><ele>854.0</ele><time>2026-04-11T10:48:28.985Z</time></trkpt><trkpt lat="41.7192483" lon="2.3135033"><ele>854.0</ele><time>2026-04-11T10:48:29.985Z</time></trkpt><trkpt lat="41.7191717" lon="2.313585"><ele>854.0000000000001</ele><time>2026-04-11T10:48:30.985Z</time></trkpt><trkpt lat="41.7190783" lon="2.31364"><ele>854.0000000000001</ele><time>2026-04-11T10:48:31.985Z</time></trkpt><trkpt lat="41.7189867" lon="2.3136783"><ele>854.0</ele><time>2026-04-11T10:48:32.985Z</time></trkpt><trkpt lat="41.7188933" lon="2.313685"><ele>854.0</ele><time>2026-04-11T10:48:33.985Z</time></trkpt><trkpt lat="41.7188033" lon="2.3136567"><ele>854.0000000000001</ele><time>2026-04-11T10:48:34.985Z</time></trkpt><trkpt lat="41.7187283" lon="2.3136083"><ele>854.0</ele><time>2026-04-11T10:48:35.985Z</time></trkpt><trkpt lat="41.7186433" lon="2.31356"><ele>854.0</ele><time>2026-04-11T10:48:36.985Z</time></trkpt><trkpt lat="41.7185517" lon="2.313525"><ele>854.0</ele><time>2026-04-11T10:48:37.985Z</time></trkpt><trkpt lat="41.718465" lon="2.31351"><ele>854.0000000000001</ele><time>2026-04-11T10:48:38.985Z</time></trkpt><trkpt lat="41.71838" lon="2.3135233"><ele>854.0</ele><time>2026-04-11T10:48:39.985Z</time></trkpt><trkpt lat="41.7183067" lon="2.3135583"><ele>855.1666666666667</ele><time>2026-04-11T10:48:40.985Z</time></trkpt><trkpt lat="41.71824" lon="2.31363"><ele>856.3333333333334</ele><time>2026-04-11T10:48:41.985Z</time></trkpt><trkpt lat="41.7181933" lon="2.313705"><ele>857.5</ele><time>2026-04-11T10:48:42.985Z</time></trkpt><trkpt lat="41.718155" lon="2.3138"><ele>858.6666666666667</ele><time>2026-04-11T10:48:43.985Z</time></trkpt><trkpt lat="41.718105" lon="2.31393"><ele>859.8333333333334</ele><time>2026-04-11T10:48:44.985Z</time></trkpt><trkpt lat="41.7180567" lon="2.3140367"><ele>861.0</ele><time>2026-04-11T10:48:45.985Z</time></trkpt><trkpt lat="41.718005" lon="2.3141433"><ele>866.4</ele><time>2026-04-11T10:48:46.985Z</time></trkpt><trkpt lat="41.7179433" lon="2.314265"><ele>871.8</ele><time>2026-04-11T10:48:47.985Z</time></trkpt><trkpt lat="41.717885" lon="2.3143883"><ele>877.1999999999999</ele><time>2026-04-11T10:48:48.985Z</time></trkpt><trkpt lat="41.7178317" lon="2.3144867"><ele>882.5999999999999</ele><time>2026-04-11T10:48:49.985Z</time></trkpt><trkpt lat="41.7177933" lon="2.31458"><ele>888.0</ele><time>2026-04-11T10:48:50.985Z</time></trkpt><trkpt lat="41.7177667" lon="2.3146683"><ele>889.5</ele><time>2026-04-11T10:48:51.985Z</time></trkpt><trkpt lat="41.7177483" lon="2.3147517"><ele>891.0</ele><time>2026-04-11T10:48:52.985Z</time></trkpt><trkpt lat="41.7177133" lon="2.3148683"><ele>892.5</ele><time>2026-04-11T10:48:54.985Z</time></trkpt><trkpt lat="41.7176633" lon="2.3150367"><ele>894.0</ele><time>2026-04-11T10:48:56.985Z</time></trkpt><trkpt lat="41.71763" lon="2.3151333"><ele>895.5</ele><time>2026-04-11T10:48:57.986Z</time></trkpt><trkpt lat="41.7175883" lon="2.315205"><ele>897.0</ele><time>2026-04-11T10:48:58.985Z</time></trkpt><trkpt lat="41.7175033" lon="2.3152483"><ele>897.0</ele><time>2026-04-11T10:49:00.985Z</time></trkpt><trkpt lat="41.7174467" lon="2.3151767"><ele>897.0</ele><time>2026-04-11T10:49:01.985Z</time></trkpt><trkpt lat="41.7173783" lon="2.315125"><ele>897.0</ele><time>2026-04-11T10:49:02.985Z</time></trkpt><trkpt lat="41.717295" lon="2.3150867"><ele>897.0</ele><time>2026-04-11T10:49:03.985Z</time></trkpt><trkpt lat="41.71721" lon="2.31506"><ele>897.0</ele><time>2026-04-11T10:49:04.985Z</time></trkpt><trkpt lat="41.7171383" lon="2.3150483"><ele>897.0</ele><time>2026-04-11T10:49:05.985Z</time></trkpt><trkpt lat="41.71705" lon="2.3150633"><ele>897.0</ele><time>2026-04-11T10:49:06.986Z</time></trkpt><trkpt lat="41.7169533" lon="2.3150967"><ele>897.0</ele><time>2026-04-11T10:49:07.985Z</time></trkpt><trkpt lat="41.716865" lon="2.31513"><ele>897.0</ele><time>2026-04-11T10:49:08.985Z</time></trkpt><trkpt lat="41.716765" lon="2.3151467"><ele>897.0</ele><time>2026-04-11T10:49:09.985Z</time></trkpt><trkpt lat="41.7166567" lon="2.3151417"><ele>897.0</ele><time>2026-04-11T10:49:10.985Z</time></trkpt><trkpt lat="41.7165417" lon="2.3151317"><ele>895.0</ele><time>2026-04-11T10:49:11.985Z</time></trkpt><trkpt lat="41.7164217" lon="2.3151183"><ele>893.0</ele><time>2026-04-11T10:49:12.986Z</time></trkpt><trkpt lat="41.7163083" lon="2.3150933"><ele>891.0</ele><time>2026-04-11T10:49:13.985Z</time></trkpt><trkpt lat="41.71619" lon="2.315085"><ele>889.0</ele><time>2026-04-11T10:49:14.985Z</time></trkpt><trkpt lat="41.716075" lon="2.3150867"><ele>888.75</ele><time>2026-04-11T10:49:15.985Z</time></trkpt><trkpt lat="41.7159583" lon="2.315085"><ele>888.5</ele><time>2026-04-11T10:49:16.985Z</time></trkpt><trkpt lat="41.7158417" lon="2.3150833"><ele>888.25</ele><time>2026-04-11T10:49:17.985Z</time></trkpt><trkpt lat="41.7157283" lon="2.3151"><ele>888.0</ele><time>2026-04-11T10:49:18.985Z</time></trkpt><trkpt lat="41.7156233" lon="2.3151183"><ele>888.0</ele><time>2026-04-11T10:49:19.985Z</time></trkpt><trkpt lat="41.7155233" lon="2.3151367"><ele>888.0</ele><time>2026-04-11T10:49:20.985Z</time></trkpt><trkpt lat="41.71543" lon="2.3151517"><ele>888.0</ele><time>2026-04-11T10:49:21.985Z</time></trkpt><trkpt lat="41.71535" lon="2.3151483"><ele>888.0</ele><time>2026-04-11T10:49:22.985Z</time></trkpt><trkpt lat="41.71527" lon="2.3151233"><ele>888.0</ele><time>2026-04-11T10:49:23.985Z</time></trkpt><trkpt lat="41.7151983" lon="2.3150717"><ele>888.0</ele><time>2026-04-11T10:49:24.985Z</time></trkpt><trkpt lat="41.715125" lon="2.3149883"><ele>890.0</ele><time>2026-04-11T10:49:25.985Z</time></trkpt><trkpt lat="41.7150367" lon="2.31489"><ele>892.0</ele><time>2026-04-11T10:49:26.985Z</time></trkpt><trkpt lat="41.714925" lon="2.314805"><ele>894.0</ele><time>2026-04-11T10:49:27.985Z</time></trkpt><trkpt lat="41.7148167" lon="2.3147467"><ele>896.0</ele><time>2026-04-11T10:49:28.985Z</time></trkpt><trkpt lat="41.71474" lon="2.3147083"><ele>898.0</ele><time>2026-04-11T10:49:29.985Z</time></trkpt><trkpt lat="41.71468" lon="2.314665"><ele>898.0</ele><time>2026-04-11T10:49:30.985Z</time></trkpt><trkpt lat="41.7146283" lon="2.3146067"><ele>898.0</ele><time>2026-04-11T10:49:31.985Z</time></trkpt><trkpt lat="41.7146067" lon="2.31451"><ele>898.0</ele><time>2026-04-11T10:49:32.985Z</time></trkpt><trkpt lat="41.71458" lon="2.3143883"><ele>898.0</ele><time>2026-04-11T10:49:33.985Z</time></trkpt><trkpt lat="41.7145283" lon="2.3142217"><ele>898.0</ele><time>2026-04-11T10:49:34.985Z</time></trkpt><trkpt lat="41.7144733" lon="2.31403"><ele>900.25</ele><time>2026-04-11T10:49:35.985Z</time></trkpt><trkpt lat="41.7144067" lon="2.31385"><ele>902.5</ele><time>2026-04-11T10:49:36.985Z</time></trkpt><trkpt lat="41.71433" lon="2.31368"><ele>904.75</ele><time>2026-04-11T10:49:37.985Z</time></trkpt><trkpt lat="41.7142467" lon="2.313525"><ele>907.0</ele><time>2026-04-11T10:49:38.985Z</time></trkpt><trkpt lat="41.7141667" lon="2.31338"><ele>903.75</ele><time>2026-04-11T10:49:39.985Z</time></trkpt><trkpt lat="41.7140817" lon="2.3132483"><ele>900.5</ele><time>2026-04-11T10:49:40.985Z</time></trkpt><trkpt lat="41.7139833" lon="2.313145"><ele>897.25</ele><time>2026-04-11T10:49:41.985Z</time></trkpt><trkpt lat="41.713875" lon="2.3130733"><ele>894.0</ele><time>2026-04-11T10:49:42.985Z</time></trkpt><trkpt lat="41.713755" lon="2.3130133"><ele>894.0</ele><time>2026-04-11T10:49:43.985Z</time></trkpt><trkpt lat="41.7136183" lon="2.3129867"><ele>894.0</ele><time>2026-04-11T10:49:44.985Z</time></trkpt><trkpt lat="41.7134767" lon="2.3129867"><ele>894.0</ele><time>2026-04-11T10:49:45.985Z</time></trkpt><trkpt lat="41.7133283" lon="2.312995"><ele>894.0</ele><time>2026-04-11T10:49:46.985Z</time></trkpt><trkpt lat="41.713175" lon="2.3130283"><ele>893.2</ele><time>2026-04-11T10:49:47.985Z</time></trkpt><trkpt lat="41.7130417" lon="2.3130683"><ele>892.4000000000001</ele><time>2026-04-11T10:49:48.985Z</time></trkpt><trkpt lat="41.7129317" lon="2.3131017"><ele>891.6</ele><time>2026-04-11T10:49:49.985Z</time></trkpt><trkpt lat="41.7128317" lon="2.31313"><ele>890.8</ele><time>2026-04-11T10:49:50.985Z</time></trkpt><trkpt lat="41.7127367" lon="2.3131417"><ele>890.0</ele><time>2026-04-11T10:49:51.985Z</time></trkpt><trkpt lat="41.7126483" lon="2.313135"><ele>889.4</ele><time>2026-04-11T10:49:52.985Z</time></trkpt><trkpt lat="41.712575" lon="2.313115"><ele>888.8</ele><time>2026-04-11T10:49:53.985Z</time></trkpt><trkpt lat="41.7125033" lon="2.313065"><ele>888.2</ele><time>2026-04-11T10:49:54.985Z</time></trkpt><trkpt lat="41.7124317" lon="2.3129933"><ele>887.6</ele><time>2026-04-11T10:49:55.985Z</time></trkpt><trkpt lat="41.712355" lon="2.31289"><ele>887.0</ele><time>2026-04-11T10:49:56.985Z</time></trkpt><trkpt lat="41.7122683" lon="2.3127567"><ele>887.0</ele><time>2026-04-11T10:49:57.985Z</time></trkpt><trkpt lat="41.7121883" lon="2.3126483"><ele>887.0</ele><time>2026-04-11T10:49:58.985Z</time></trkpt><trkpt lat="41.712095" lon="2.3125617"><ele>887.0</ele><time>2026-04-11T10:49:59.985Z</time></trkpt><trkpt lat="41.7119767" lon="2.312505"><ele>887.0</ele><time>2026-04-11T10:50:00.985Z</time></trkpt><trkpt lat="41.711845" lon="2.3124633"><ele>884.2</ele><time>2026-04-11T10:50:01.985Z</time></trkpt><trkpt lat="41.71171" lon="2.312445"><ele>881.4000000000001</ele><time>2026-04-11T10:50:02.985Z</time></trkpt><trkpt lat="41.7115983" lon="2.312475"><ele>878.5999999999999</ele><time>2026-04-11T10:50:03.985Z</time></trkpt><trkpt lat="41.711515" lon="2.3125283"><ele>875.8</ele><time>2026-04-11T10:50:04.985Z</time></trkpt><trkpt lat="41.7114433" lon="2.3126083"><ele>873.0</ele><time>2026-04-11T10:50:05.985Z</time></trkpt><trkpt lat="41.7113633" lon="2.3127017"><ele>873.0</ele><time>2026-04-11T10:50:06.985Z</time></trkpt><trkpt lat="41.7112783" lon="2.312785"><ele>873.0</ele><time>2026-04-11T10:50:07.985Z</time></trkpt><trkpt lat="41.7111967" lon="2.3128517"><ele>873.0</ele><time>2026-04-11T10:50:08.985Z</time></trkpt><trkpt lat="41.7111217" lon="2.31291"><ele>873.0</ele><time>2026-04-11T10:50:09.985Z</time></trkpt><trkpt lat="41.7110617" lon="2.3129617"><ele>873.0</ele><time>2026-04-11T10:50:10.985Z</time></trkpt><trkpt lat="41.710975" lon="2.3130533"><ele>873.0</ele><time>2026-04-11T10:50:12.985Z</time></trkpt><trkpt lat="41.710975" lon="2.313145"><ele>873.0</ele><time>2026-04-11T10:50:15.985Z</time></trkpt><trkpt lat="41.7110933" lon="2.313135"><ele>873.0</ele><time>2026-04-11T10:50:17.985Z</time></trkpt><trkpt lat="41.7111867" lon="2.31311"><ele>873.0</ele><time>2026-04-11T10:50:18.985Z</time></trkpt><trkpt lat="41.7112933" lon="2.31307"><ele>873.0</ele><time>2026-04-11T10:50:19.985Z</time></trkpt><trkpt lat="41.7114017" lon="2.3130167"><ele>873.0</ele><time>2026-04-11T10:50:20.985Z</time></trkpt><trkpt lat="41.71149" lon="2.3129633"><ele>873.0</ele><time>2026-04-11T10:50:21.985Z</time></trkpt><trkpt lat="41.7115717" lon="2.3129217"><ele>873.0</ele><time>2026-04-11T10:50:22.985Z</time></trkpt><trkpt lat="41.7116433" lon="2.31289"><ele>873.0</ele><time>2026-04-11T10:50:23.985Z</time></trkpt><trkpt lat="41.7117217" lon="2.3128867"><ele>873.0</ele><time>2026-04-11T10:50:24.985Z</time></trkpt><trkpt lat="41.7118117" lon="2.3129"><ele>873.0</ele><time>2026-04-11T10:50:25.985Z</time></trkpt><trkpt lat="41.71191" lon="2.3129917"><ele>871.0</ele><time>2026-04-11T10:50:26.985Z</time></trkpt><trkpt lat="41.7120067" lon="2.3130933"><ele>869.0</ele><time>2026-04-11T10:50:27.986Z</time></trkpt><trkpt lat="41.71212" lon="2.3132117"><ele>867.0</ele><time>2026-04-11T10:50:28.985Z</time></trkpt><trkpt lat="41.7122133" lon="2.3133283"><ele>865.0</ele><time>2026-04-11T10:50:29.985Z</time></trkpt><trkpt lat="41.7123017" lon="2.3134367"><ele>864.9999999999999</ele><time>2026-04-11T10:50:30.985Z</time></trkpt><trkpt lat="41.7123783" lon="2.3135267"><ele>865.0</ele><time>2026-04-11T10:50:31.985Z</time></trkpt><trkpt lat="41.7124467" lon="2.3135917"><ele>865.0</ele><time>2026-04-11T10:50:32.985Z</time></trkpt><trkpt lat="41.7125133" lon="2.313635"><ele>865.0</ele><time>2026-04-11T10:50:33.985Z</time></trkpt><trkpt lat="41.712575" lon="2.3136717"><ele>864.9999999999999</ele><time>2026-04-11T10:50:34.985Z</time></trkpt><trkpt lat="41.7126433" lon="2.3136883"><ele>865.0</ele><time>2026-04-11T10:50:35.985Z</time></trkpt><trkpt lat="41.7127183" lon="2.3137017"><ele>866.0</ele><time>2026-04-11T10:50:36.985Z</time></trkpt><trkpt lat="41.7128017" lon="2.3137183"><ele>867.0</ele><time>2026-04-11T10:50:37.985Z</time></trkpt><trkpt lat="41.7129233" lon="2.3137283"><ele>868.0</ele><time>2026-04-11T10:50:38.986Z</time></trkpt><trkpt lat="41.713055" lon="2.3137317"><ele>869.0</ele><time>2026-04-11T10:50:39.986Z</time></trkpt><trkpt lat="41.7131783" lon="2.3137383"><ele>869.0</ele><time>2026-04-11T10:50:40.985Z</time></trkpt><trkpt lat="41.7132917" lon="2.313745"><ele>869.0000000000001</ele><time>2026-04-11T10:50:41.985Z</time></trkpt><trkpt lat="41.7134033" lon="2.3137567"><ele>869.0000000000001</ele><time>2026-04-11T10:50:42.985Z</time></trkpt><trkpt lat="41.71351" lon="2.3137883"><ele>869.0</ele><time>2026-04-11T10:50:43.985Z</time></trkpt><trkpt lat="41.713585" lon="2.31384"><ele>869.0</ele><time>2026-04-11T10:50:44.985Z</time></trkpt><trkpt lat="41.7136617" lon="2.31393"><ele>867.6</ele><time>2026-04-11T10:50:45.985Z</time></trkpt><trkpt lat="41.7137317" lon="2.31405"><ele>866.2</ele><time>2026-04-11T10:50:46.985Z</time></trkpt><trkpt lat="41.71381" lon="2.3141517"><ele>864.8000000000001</ele><time>2026-04-11T10:50:47.985Z</time></trkpt><trkpt lat="41.7139" lon="2.3142483"><ele>863.4000000000001</ele><time>2026-04-11T10:50:48.985Z</time></trkpt><trkpt lat="41.7139733" lon="2.3143433"><ele>862.0</ele><time>2026-04-11T10:50:49.985Z</time></trkpt><trkpt lat="41.714055" lon="2.3144433"><ele>862.0</ele><time>2026-04-11T10:50:50.985Z</time></trkpt><trkpt lat="41.7141133" lon="2.314565"><ele>862.0</ele><time>2026-04-11T10:50:51.985Z</time></trkpt><trkpt lat="41.7141717" lon="2.314685"><ele>862.0</ele><time>2026-04-11T10:50:52.985Z</time></trkpt><trkpt lat="41.714225" lon="2.3147933"><ele>862.0</ele><time>2026-04-11T10:50:53.985Z</time></trkpt><trkpt lat="41.7142983" lon="2.31491"><ele>862.0</ele><time>2026-04-11T10:50:54.985Z</time></trkpt><trkpt lat="41.71438" lon="2.3150167"><ele>863.8</ele><time>2026-04-11T10:50:55.985Z</time></trkpt><trkpt lat="41.7144517" lon="2.315105"><ele>865.6</ele><time>2026-04-11T10:50:56.985Z</time></trkpt><trkpt lat="41.7145217" lon="2.31518"><ele>867.3999999999999</ele><time>2026-04-11T10:50:57.985Z</time></trkpt><trkpt lat="41.714605" lon="2.31525"><ele>869.1999999999999</ele><time>2026-04-11T10:50:58.986Z</time></trkpt><trkpt lat="41.714705" lon="2.315335"><ele>871.0</ele><time>2026-04-11T10:50:59.985Z</time></trkpt><trkpt lat="41.7148233" lon="2.31541"><ele>871.0</ele><time>2026-04-11T10:51:00.985Z</time></trkpt><trkpt lat="41.7149367" lon="2.315515"><ele>871.0</ele><time>2026-04-11T10:51:01.986Z</time></trkpt><trkpt lat="41.71504" lon="2.31561"><ele>871.0</ele><time>2026-04-11T10:51:02.985Z</time></trkpt><trkpt lat="41.715125" lon="2.3156833"><ele>871.0</ele><time>2026-04-11T10:51:03.985Z</time></trkpt><trkpt lat="41.7152183" lon="2.315725"><ele>866.4</ele><time>2026-04-11T10:51:04.985Z</time></trkpt><trkpt lat="41.7153083" lon="2.3157483"><ele>861.8</ele><time>2026-04-11T10:51:05.985Z</time></trkpt><trkpt lat="41.7154" lon="2.31576"><ele>857.1999999999999</ele><time>2026-04-11T10:51:06.985Z</time></trkpt><trkpt lat="41.7155" lon="2.3157933"><ele>852.5999999999999</ele><time>2026-04-11T10:51:07.985Z</time></trkpt><trkpt lat="41.71559" lon="2.3158083"><ele>848.0</ele><time>2026-04-11T10:51:08.985Z</time></trkpt><trkpt lat="41.7156883" lon="2.3158433"><ele>848.0</ele><time>2026-04-11T10:51:09.985Z</time></trkpt><trkpt lat="41.7157967" lon="2.31588"><ele>848.0</ele><time>2026-04-11T10:51:10.985Z</time></trkpt><trkpt lat="41.715895" lon="2.3159317"><ele>848.0</ele><time>2026-04-11T10:51:11.985Z</time></trkpt><trkpt lat="41.7159883" lon="2.315985"><ele>848.0</ele><time>2026-04-11T10:51:12.985Z</time></trkpt><trkpt lat="41.7160733" lon="2.3160367"><ele>848.0</ele><time>2026-04-11T10:51:13.985Z</time></trkpt><trkpt lat="41.7161517" lon="2.3160867"><ele>847.0000000000001</ele><time>2026-04-11T10:51:14.985Z</time></trkpt><trkpt lat="41.7162333" lon="2.3161383"><ele>846.0</ele><time>2026-04-11T10:51:15.985Z</time></trkpt><trkpt lat="41.7163067" lon="2.3162033"><ele>845.0</ele><time>2026-04-11T10:51:16.985Z</time></trkpt><trkpt lat="41.71637" lon="2.31628"><ele>844.0</ele><time>2026-04-11T10:51:17.985Z</time></trkpt><trkpt lat="41.71643" lon="2.3163483"><ele>843.0000000000001</ele><time>2026-04-11T10:51:18.986Z</time></trkpt><trkpt lat="41.716485" lon="2.3164333"><ele>842.0</ele><time>2026-04-11T10:51:19.985Z</time></trkpt><trkpt lat="41.71652" lon="2.3165333"><ele>842.0</ele><time>2026-04-11T10:51:20.985Z</time></trkpt><trkpt lat="41.71654" lon="2.31663"><ele>842.0</ele><time>2026-04-11T10:51:21.986Z</time></trkpt><trkpt lat="41.7165567" lon="2.3167117"><ele>842.0</ele><time>2026-04-11T10:51:22.985Z</time></trkpt><trkpt lat="41.7164767" lon="2.3168333"><ele>842.0</ele><time>2026-04-11T10:51:24.985Z</time></trkpt><trkpt lat="41.716365" lon="2.3169167"><ele>842.0</ele><time>2026-04-11T10:51:26.985Z</time></trkpt><trkpt lat="41.716295" lon="2.31698"><ele>842.0</ele><time>2026-04-11T10:51:27.985Z</time></trkpt><trkpt lat="41.7162067" lon="2.317055"><ele>842.0</ele><time>2026-04-11T10:51:28.985Z</time></trkpt><trkpt lat="41.71611" lon="2.3171517"><ele>842.0</ele><time>2026-04-11T10:51:29.985Z</time></trkpt><trkpt lat="41.716" lon="2.3172767"><ele>842.0</ele><time>2026-04-11T10:51:30.985Z</time></trkpt><trkpt lat="41.7159033" lon="2.31739"><ele>839.5</ele><time>2026-04-11T10:51:31.986Z</time></trkpt><trkpt lat="41.715815" lon="2.3174983"><ele>837.0</ele><time>2026-04-11T10:51:32.985Z</time></trkpt><trkpt lat="41.7157217" lon="2.317605"><ele>834.5</ele><time>2026-04-11T10:51:33.985Z</time></trkpt><trkpt lat="41.7156333" lon="2.3176967"><ele>832.0</ele><time>2026-04-11T10:51:34.985Z</time></trkpt><trkpt lat="41.7155617" lon="2.3177883"><ele>831.9999999999999</ele><time>2026-04-11T10:51:35.985Z</time></trkpt><trkpt lat="41.7155033" lon="2.317875"><ele>832.0</ele><time>2026-04-11T10:51:36.985Z</time></trkpt><trkpt lat="41.7154533" lon="2.317955"><ele>832.0</ele><time>2026-04-11T10:51:37.985Z</time></trkpt><trkpt lat="41.7154233" lon="2.3180383"><ele>832.0</ele><time>2026-04-11T10:51:38.985Z</time></trkpt><trkpt lat="41.7154" lon="2.3181717"><ele>831.9999999999999</ele><time>2026-04-11T10:51:40.985Z</time></trkpt><trkpt lat="41.7154267" lon="2.3182533"><ele>832.0</ele><time>2026-04-11T10:51:41.985Z</time></trkpt><trkpt lat="41.71547" lon="2.3183617"><ele>833.75</ele><time>2026-04-11T10:51:42.985Z</time></trkpt><trkpt lat="41.7155283" lon="2.31849"><ele>835.5</ele><time>2026-04-11T10:51:43.985Z</time></trkpt><trkpt lat="41.715595" lon="2.31862"><ele>837.25</ele><time>2026-04-11T10:51:44.986Z</time></trkpt><trkpt lat="41.715675" lon="2.3187367"><ele>839.0</ele><time>2026-04-11T10:51:45.985Z</time></trkpt><trkpt lat="41.71576" lon="2.31883"><ele>837.6</ele><time>2026-04-11T10:51:46.985Z</time></trkpt><trkpt lat="41.7158183" lon="2.3189333"><ele>836.2</ele><time>2026-04-11T10:51:47.985Z</time></trkpt><trkpt lat="41.7158533" lon="2.3190217"><ele>834.8000000000001</ele><time>2026-04-11T10:51:48.985Z</time></trkpt><trkpt lat="41.71583" lon="2.3191867"><ele>833.4000000000001</ele><time>2026-04-11T10:51:50.985Z</time></trkpt><trkpt lat="41.7157717" lon="2.319255"><ele>832.0</ele><time>2026-04-11T10:51:51.985Z</time></trkpt><trkpt lat="41.7156867" lon="2.319295"><ele>832.0</ele><time>2026-04-11T10:51:52.985Z</time></trkpt><trkpt lat="41.7155767" lon="2.3193383"><ele>832.0</ele><time>2026-04-11T10:51:53.985Z</time></trkpt><trkpt lat="41.7154583" lon="2.3193683"><ele>832.0</ele><time>2026-04-11T10:51:54.985Z</time></trkpt><trkpt lat="41.7153567" lon="2.3194017"><ele>832.0</ele><time>2026-04-11T10:51:55.986Z</time></trkpt><trkpt lat="41.7152617" lon="2.31944"><ele>832.0</ele><time>2026-04-11T10:51:56.985Z</time></trkpt><trkpt lat="41.715165" lon="2.3194767"><ele>826.8</ele><time>2026-04-11T10:51:57.985Z</time></trkpt><trkpt lat="41.7150583" lon="2.319505"><ele>821.6</ele><time>2026-04-11T10:51:58.985Z</time></trkpt><trkpt lat="41.714955" lon="2.3195167"><ele>816.4</ele><time>2026-04-11T10:51:59.986Z</time></trkpt><trkpt lat="41.7148517" lon="2.319495"><ele>811.1999999999999</ele><time>2026-04-11T10:52:00.985Z</time></trkpt><trkpt lat="41.7147583" lon="2.3194467"><ele>806.0</ele><time>2026-04-11T10:52:01.985Z</time></trkpt><trkpt lat="41.71466" lon="2.3193667"><ele>806.0</ele><time>2026-04-11T10:52:02.985Z</time></trkpt><trkpt lat="41.7145717" lon="2.3192933"><ele>806.0</ele><time>2026-04-11T10:52:03.985Z</time></trkpt><trkpt lat="41.7144717" lon="2.3192133"><ele>806.0</ele><time>2026-04-11T10:52:04.986Z</time></trkpt><trkpt lat="41.7143767" lon="2.3191383"><ele>806.0</ele><time>2026-04-11T10:52:05.985Z</time></trkpt><trkpt lat="41.7142883" lon="2.3190683"><ele>806.0</ele><time>2026-04-11T10:52:06.985Z</time></trkpt><trkpt lat="41.71422" lon="2.3190217"><ele>804.6666666666667</ele><time>2026-04-11T10:52:07.985Z</time></trkpt><trkpt lat="41.7141533" lon="2.3189917"><ele>803.3333333333334</ele><time>2026-04-11T10:52:08.985Z</time></trkpt><trkpt lat="41.71408" lon="2.3189717"><ele>802.0</ele><time>2026-04-11T10:52:09.985Z</time></trkpt><trkpt lat="41.714005" lon="2.3189633"><ele>800.6666666666667</ele><time>2026-04-11T10:52:10.986Z</time></trkpt><trkpt lat="41.7139267" lon="2.31897"><ele>799.3333333333334</ele><time>2026-04-11T10:52:11.985Z</time></trkpt><trkpt lat="41.71385" lon="2.318995"><ele>798.0</ele><time>2026-04-11T10:52:12.985Z</time></trkpt><trkpt lat="41.7137683" lon="2.3190317"><ele>798.0</ele><time>2026-04-11T10:52:13.985Z</time></trkpt><trkpt lat="41.7136917" lon="2.3190983"><ele>798.0</ele><time>2026-04-11T10:52:14.985Z</time></trkpt><trkpt lat="41.7136117" lon="2.3191683"><ele>798.0</ele><time>2026-04-11T10:52:15.985Z</time></trkpt><trkpt lat="41.7135267" lon="2.31924"><ele>798.0</ele><time>2026-04-11T10:52:16.985Z</time></trkpt><trkpt lat="41.713435" lon="2.3192933"><ele>798.0</ele><time>2026-04-11T10:52:17.985Z</time></trkpt><trkpt lat="41.7133467" lon="2.319325"><ele>795.5</ele><time>2026-04-11T10:52:18.985Z</time></trkpt><trkpt lat="41.713255" lon="2.3193617"><ele>793.0</ele><time>2026-04-11T10:52:19.985Z</time></trkpt><trkpt lat="41.7131733" lon="2.3194017"><ele>790.5</ele><time>2026-04-11T10:52:20.985Z</time></trkpt><trkpt lat="41.7131083" lon="2.3194417"><ele>788.0</ele><time>2026-04-11T10:52:21.985Z</time></trkpt><trkpt lat="41.7130517" lon="2.3194817"><ele>785.5</ele><time>2026-04-11T10:52:22.985Z</time></trkpt><trkpt lat="41.7129933" lon="2.319535"><ele>783.0</ele><time>2026-04-11T10:52:24.985Z</time></trkpt><trkpt lat="41.7129983" lon="2.319625"><ele>783.0</ele><time>2026-04-11T10:52:29.985Z</time></trkpt><trkpt lat="41.7130183" lon="2.319535"><ele>783.0</ele><time>2026-04-11T10:52:34.985Z</time></trkpt><trkpt lat="41.713065" lon="2.3194633"><ele>783.0</ele><time>2026-04-11T10:52:37.985Z</time></trkpt><trkpt lat="41.7131883" lon="2.3193867"><ele>783.0</ele><time>2026-04-11T10:52:39.985Z</time></trkpt><trkpt lat="41.7132667" lon="2.319355"><ele>783.0</ele><time>2026-04-11T10:52:40.985Z</time></trkpt><trkpt lat="41.7133517" lon="2.31933"><ele>783.0</ele><time>2026-04-11T10:52:41.985Z</time></trkpt><trkpt lat="41.71343" lon="2.3193083"><ele>783.0</ele><time>2026-04-11T10:52:42.985Z</time></trkpt><trkpt lat="41.7135083" lon="2.31926"><ele>783.0</ele><time>2026-04-11T10:52:43.985Z</time></trkpt><trkpt lat="41.7135967" lon="2.3191733"><ele>783.0</ele><time>2026-04-11T10:52:44.986Z</time></trkpt><trkpt lat="41.7136767" lon="2.3190917"><ele>783.0</ele><time>2026-04-11T10:52:45.985Z</time></trkpt><trkpt lat="41.7137717" lon="2.3190383"><ele>783.0</ele><time>2026-04-11T10:52:46.985Z</time></trkpt><trkpt lat="41.7138683" lon="2.3189983"><ele>785.5</ele><time>2026-04-11T10:52:47.985Z</time></trkpt><trkpt lat="41.71395" lon="2.3189767"><ele>788.0</ele><time>2026-04-11T10:52:48.985Z</time></trkpt><trkpt lat="41.7140233" lon="2.3189683"><ele>790.5</ele><time>2026-04-11T10:52:49.985Z</time></trkpt><trkpt lat="41.7141" lon="2.3189683"><ele>793.0</ele><time>2026-04-11T10:52:50.986Z</time></trkpt><trkpt lat="41.7141667" lon="2.31898"><ele>795.5</ele><time>2026-04-11T10:52:51.985Z</time></trkpt><trkpt lat="41.7142933" lon="2.3190467"><ele>798.0</ele><time>2026-04-11T10:52:53.985Z</time></trkpt><trkpt lat="41.7143683" lon="2.3190983"><ele>799.5999999999999</ele><time>2026-04-11T10:52:54.985Z</time></trkpt><trkpt lat="41.7144483" lon="2.3191467"><ele>801.1999999999999</ele><time>2026-04-11T10:52:55.985Z</time></trkpt><trkpt lat="41.7145283" lon="2.3192317"><ele>802.8</ele><time>2026-04-11T10:52:56.985Z</time></trkpt><trkpt lat="41.7146117" lon="2.31932"><ele>804.4</ele><time>2026-04-11T10:52:57.985Z</time></trkpt><trkpt lat="41.7146983" lon="2.3194017"><ele>806.0</ele><time>2026-04-11T10:52:58.985Z</time></trkpt><trkpt lat="41.7147983" lon="2.3194567"><ele>806.0</ele><time>2026-04-11T10:52:59.986Z</time></trkpt><trkpt lat="41.714895" lon="2.319475"><ele>806.0</ele><time>2026-04-11T10:53:00.985Z</time></trkpt><trkpt lat="41.7149983" lon="2.31948"><ele>806.0</ele><time>2026-04-11T10:53:01.985Z</time></trkpt><trkpt lat="41.7151083" lon="2.3194583"><ele>806.0</ele><time>2026-04-11T10:53:02.985Z</time></trkpt><trkpt lat="41.715205" lon="2.3194383"><ele>806.0</ele><time>2026-04-11T10:53:03.985Z</time></trkpt><trkpt lat="41.7153183" lon="2.3194033"><ele>811.1999999999999</ele><time>2026-04-11T10:53:04.985Z</time></trkpt><trkpt lat="41.7154217" lon="2.319375"><ele>816.4</ele><time>2026-04-11T10:53:05.985Z</time></trkpt><trkpt lat="41.7155283" lon="2.3193367"><ele>821.6</ele><time>2026-04-11T10:53:06.985Z</time></trkpt><trkpt lat="41.7156233" lon="2.3193083"><ele>826.8</ele><time>2026-04-11T10:53:07.985Z</time></trkpt><trkpt lat="41.715715" lon="2.3192667"><ele>832.0</ele><time>2026-04-11T10:53:08.985Z</time></trkpt><trkpt lat="41.7157817" lon="2.31922"><ele>832.0</ele><time>2026-04-11T10:53:09.985Z</time></trkpt><trkpt lat="41.7158717" lon="2.3191283"><ele>832.0</ele><time>2026-04-11T10:53:11.985Z</time></trkpt><trkpt lat="41.71586" lon="2.3192517"><ele>832.0</ele><time>2026-04-11T10:53:15.985Z</time></trkpt><trkpt lat="41.71577" lon="2.3193967"><ele>832.0</ele><time>2026-04-11T10:53:17.985Z</time></trkpt><trkpt lat="41.7156983" lon="2.31947"><ele>832.0</ele><time>2026-04-11T10:53:18.985Z</time></trkpt><trkpt lat="41.7156167" lon="2.3195433"><ele>832.0</ele><time>2026-04-11T10:53:19.985Z</time></trkpt><trkpt lat="41.7155033" lon="2.3196117"><ele>832.0</ele><time>2026-04-11T10:53:20.985Z</time></trkpt><trkpt lat="41.7153783" lon="2.3197017"><ele>832.0</ele><time>2026-04-11T10:53:21.985Z</time></trkpt><trkpt lat="41.7152433" lon="2.3198"><ele>832.0</ele><time>2026-04-11T10:53:22.985Z</time></trkpt><trkpt lat="41.7151083" lon="2.3198917"><ele>831.8</ele><time>2026-04-11T10:53:23.985Z</time></trkpt><trkpt lat="41.7149967" lon="2.31996"><ele>831.6</ele><time>2026-04-11T10:53:24.985Z</time></trkpt><trkpt lat="41.7149033" lon="2.32001"><ele>831.4</ele><time>2026-04-11T10:53:25.985Z</time></trkpt><trkpt lat="41.7148217" lon="2.32004"><ele>831.1999999999999</ele><time>2026-04-11T10:53:26.984Z</time></trkpt><trkpt lat="41.7147333" lon="2.3200517"><ele>831.0</ele><time>2026-04-11T10:53:27.984Z</time></trkpt><trkpt lat="41.7146167" lon="2.320065"><ele>831.0</ele><time>2026-04-11T10:53:28.984Z</time></trkpt><trkpt lat="41.7145017" lon="2.3200617"><ele>831.0</ele><time>2026-04-11T10:53:29.984Z</time></trkpt><trkpt lat="41.7144083" lon="2.32007"><ele>831.0</ele><time>2026-04-11T10:53:30.984Z</time></trkpt><trkpt lat="41.7143367" lon="2.320085"><ele>831.0</ele><time>2026-04-11T10:53:31.984Z</time></trkpt><trkpt lat="41.7142767" lon="2.3201133"><ele>831.0</ele><time>2026-04-11T10:53:32.984Z</time></trkpt><trkpt lat="41.714245" lon="2.3202583"><ele>829.0</ele><time>2026-04-11T10:53:34.984Z</time></trkpt><trkpt lat="41.714255" lon="2.3203783"><ele>827.0</ele><time>2026-04-11T10:53:35.984Z</time></trkpt><trkpt lat="41.7142667" lon="2.3205217"><ele>825.0</ele><time>2026-04-11T10:53:36.984Z</time></trkpt><trkpt lat="41.71429" lon="2.3206983"><ele>823.0</ele><time>2026-04-11T10:53:37.984Z</time></trkpt><trkpt lat="41.7143083" lon="2.32089"><ele>823.0</ele><time>2026-04-11T10:53:38.984Z</time></trkpt><trkpt lat="41.7143183" lon="2.3211"><ele>823.0</ele><time>2026-04-11T10:53:39.984Z</time></trkpt><trkpt lat="41.7143117" lon="2.321305"><ele>823.0</ele><time>2026-04-11T10:53:40.984Z</time></trkpt><trkpt lat="41.71431" lon="2.3214933"><ele>823.2</ele><time>2026-04-11T10:53:41.985Z</time></trkpt><trkpt lat="41.714305" lon="2.32166"><ele>823.4</ele><time>2026-04-11T10:53:42.984Z</time></trkpt><trkpt lat="41.7143117" lon="2.3217967"><ele>823.6</ele><time>2026-04-11T10:53:43.984Z</time></trkpt><trkpt lat="41.714325" lon="2.321905"><ele>823.8000000000001</ele><time>2026-04-11T10:53:44.984Z</time></trkpt><trkpt lat="41.7143833" lon="2.3220367"><ele>824.0</ele><time>2026-04-11T10:53:46.984Z</time></trkpt><trkpt lat="41.7145333" lon="2.3221267"><ele>826.5</ele><time>2026-04-11T10:53:48.984Z</time></trkpt><trkpt lat="41.714655" lon="2.3221617"><ele>829.0</ele><time>2026-04-11T10:53:49.984Z</time></trkpt><trkpt lat="41.71479" lon="2.3221967"><ele>831.5</ele><time>2026-04-11T10:53:50.984Z</time></trkpt><trkpt lat="41.7149333" lon="2.3222333"><ele>834.0</ele><time>2026-04-11T10:53:51.984Z</time></trkpt><trkpt lat="41.7150767" lon="2.3222717"><ele>834.0</ele><time>2026-04-11T10:53:52.984Z</time></trkpt><trkpt lat="41.7152117" lon="2.3223133"><ele>834.0</ele><time>2026-04-11T10:53:53.984Z</time></trkpt><trkpt lat="41.7153433" lon="2.3223733"><ele>834.0</ele><time>2026-04-11T10:53:54.984Z</time></trkpt><trkpt lat="41.71546" lon="2.32243"><ele>834.0</ele><time>2026-04-11T10:53:55.984Z</time></trkpt><trkpt lat="41.7155567" lon="2.3224667"><ele>838.0</ele><time>2026-04-11T10:53:56.984Z</time></trkpt><trkpt lat="41.715655" lon="2.322465"><ele>842.0</ele><time>2026-04-11T10:53:57.984Z</time></trkpt><trkpt lat="41.7157583" lon="2.3224617"><ele>846.0000000000001</ele><time>2026-04-11T10:53:58.984Z</time></trkpt><trkpt lat="41.7158667" lon="2.3224683"><ele>850.0</ele><time>2026-04-11T10:53:59.984Z</time></trkpt><trkpt lat="41.7159633" lon="2.3224667"><ele>854.0</ele><time>2026-04-11T10:54:00.984Z</time></trkpt><trkpt lat="41.7160417" lon="2.322465"><ele>858.3333333333334</ele><time>2026-04-11T10:54:01.984Z</time></trkpt><trkpt lat="41.7161167" lon="2.32248"><ele>862.6666666666667</ele><time>2026-04-11T10:54:02.984Z</time></trkpt><trkpt lat="41.71619" lon="2.3225033"><ele>867.0</ele><time>2026-04-11T10:54:03.984Z</time></trkpt><trkpt lat="41.7162" lon="2.3225917"><ele>871.3333333333333</ele><time>2026-04-11T10:54:04.984Z</time></trkpt><trkpt lat="41.7161933" lon="2.3226983"><ele>875.6666666666666</ele><time>2026-04-11T10:54:05.984Z</time></trkpt><trkpt lat="41.71618" lon="2.3228167"><ele>880.0</ele><time>2026-04-11T10:54:06.985Z</time></trkpt><trkpt lat="41.7161433" lon="2.3229583"><ele>880.8</ele><time>2026-04-11T10:54:07.984Z</time></trkpt><trkpt lat="41.7161083" lon="2.3231117"><ele>881.6</ele><time>2026-04-11T10:54:08.984Z</time></trkpt><trkpt lat="41.7160817" lon="2.3232483"><ele>882.4000000000001</ele><time>2026-04-11T10:54:09.984Z</time></trkpt><trkpt lat="41.716065" lon="2.3233817"><ele>883.2</ele><time>2026-04-11T10:54:10.984Z</time></trkpt><trkpt lat="41.7160617" lon="2.3235133"><ele>884.0</ele><time>2026-04-11T10:54:11.984Z</time></trkpt><trkpt lat="41.71607" lon="2.3236583"><ele>884.0000000000001</ele><time>2026-04-11T10:54:12.984Z</time></trkpt><trkpt lat="41.7160767" lon="2.3237933"><ele>884.0</ele><time>2026-04-11T10:54:13.984Z</time></trkpt><trkpt lat="41.71607" lon="2.32391"><ele>884.0</ele><time>2026-04-11T10:54:14.984Z</time></trkpt><trkpt lat="41.7160533" lon="2.3240083"><ele>884.0</ele><time>2026-04-11T10:54:15.984Z</time></trkpt><trkpt lat="41.7159983" lon="2.3240833"><ele>884.0000000000001</ele><time>2026-04-11T10:54:16.984Z</time></trkpt><trkpt lat="41.7159183" lon="2.324175"><ele>884.0</ele><time>2026-04-11T10:54:17.984Z</time></trkpt><trkpt lat="41.71583" lon="2.3242583"><ele>880.2</ele><time>2026-04-11T10:54:18.984Z</time></trkpt><trkpt lat="41.7157567" lon="2.324355"><ele>876.4000000000001</ele><time>2026-04-11T10:54:19.984Z</time></trkpt><trkpt lat="41.7156967" lon="2.32445"><ele>872.6</ele><time>2026-04-11T10:54:20.984Z</time></trkpt><trkpt lat="41.7156417" lon="2.32454"><ele>868.8</ele><time>2026-04-11T10:54:21.984Z</time></trkpt><trkpt lat="41.7156067" lon="2.3246483"><ele>865.0</ele><time>2026-04-11T10:54:22.984Z</time></trkpt><trkpt lat="41.71559" lon="2.3247817"><ele>865.0</ele><time>2026-04-11T10:54:23.984Z</time></trkpt><trkpt lat="41.715595" lon="2.3249583"><ele>865.0</ele><time>2026-04-11T10:54:24.984Z</time></trkpt><trkpt lat="41.7155783" lon="2.3251133"><ele>865.0</ele><time>2026-04-11T10:54:25.984Z</time></trkpt><trkpt lat="41.7155567" lon="2.325265"><ele>865.0</ele><time>2026-04-11T10:54:26.984Z</time></trkpt><trkpt lat="41.7155233" lon="2.32539"><ele>864.9999999999999</ele><time>2026-04-11T10:54:27.984Z</time></trkpt><trkpt lat="41.715495" lon="2.3255"><ele>865.0</ele><time>2026-04-11T10:54:28.984Z</time></trkpt><trkpt lat="41.7154717" lon="2.325615"><ele>865.0</ele><time>2026-04-11T10:54:29.984Z</time></trkpt><trkpt lat="41.7154567" lon="2.3257433"><ele>865.0</ele><time>2026-04-11T10:54:30.984Z</time></trkpt><trkpt lat="41.7154367" lon="2.32586"><ele>864.9999999999999</ele><time>2026-04-11T10:54:31.984Z</time></trkpt><trkpt lat="41.7154" lon="2.3259617"><ele>865.0</ele><time>2026-04-11T10:54:32.985Z</time></trkpt><trkpt lat="41.7153483" lon="2.3260567"><ele>867.5</ele><time>2026-04-11T10:54:33.984Z</time></trkpt><trkpt lat="41.7152833" lon="2.32613"><ele>870.0</ele><time>2026-04-11T10:54:34.984Z</time></trkpt><trkpt lat="41.7151867" lon="2.32618"><ele>872.5</ele><time>2026-04-11T10:54:35.984Z</time></trkpt><trkpt lat="41.715055" lon="2.3261967"><ele>875.0</ele><time>2026-04-11T10:54:36.984Z</time></trkpt><trkpt lat="41.71492" lon="2.3262383"><ele>867.75</ele><time>2026-04-11T10:54:37.984Z</time></trkpt><trkpt lat="41.714795" lon="2.3262667"><ele>860.5</ele><time>2026-04-11T10:54:38.985Z</time></trkpt><trkpt lat="41.7146767" lon="2.3262717"><ele>853.25</ele><time>2026-04-11T10:54:39.984Z</time></trkpt><trkpt lat="41.7145667" lon="2.3262683"><ele>846.0</ele><time>2026-04-11T10:54:40.984Z</time></trkpt><trkpt lat="41.7144667" lon="2.32627"><ele>847.5</ele><time>2026-04-11T10:54:41.984Z</time></trkpt><trkpt lat="41.7143733" lon="2.3262733"><ele>849.0</ele><time>2026-04-11T10:54:42.984Z</time></trkpt><trkpt lat="41.7142933" lon="2.3262817"><ele>850.5</ele><time>2026-04-11T10:54:43.984Z</time></trkpt><trkpt lat="41.7142167" lon="2.3262833"><ele>852.0</ele><time>2026-04-11T10:54:44.985Z</time></trkpt><trkpt lat="41.7141517" lon="2.326305"><ele>853.5</ele><time>2026-04-11T10:54:45.984Z</time></trkpt><trkpt lat="41.7140883" lon="2.326405"><ele>855.0</ele><time>2026-04-11T10:54:46.984Z</time></trkpt><trkpt lat="41.7140283" lon="2.32647"><ele>855.0</ele><time>2026-04-11T10:54:47.984Z</time></trkpt><trkpt lat="41.7139717" lon="2.3265733"><ele>855.0</ele><time>2026-04-11T10:54:48.984Z</time></trkpt><trkpt lat="41.7139117" lon="2.32669"><ele>855.0</ele><time>2026-04-11T10:54:49.984Z</time></trkpt><trkpt lat="41.7138383" lon="2.3267883"><ele>855.0</ele><time>2026-04-11T10:54:50.984Z</time></trkpt><trkpt lat="41.7137633" lon="2.3268617"><ele>855.0</ele><time>2026-04-11T10:54:51.984Z</time></trkpt><trkpt lat="41.713675" lon="2.3269183"><ele>855.0</ele><time>2026-04-11T10:54:52.984Z</time></trkpt><trkpt lat="41.7135833" lon="2.3269383"><ele>855.0</ele><time>2026-04-11T10:54:53.984Z</time></trkpt><trkpt lat="41.7134833" lon="2.326945"><ele>855.0</ele><time>2026-04-11T10:54:54.984Z</time></trkpt><trkpt lat="41.7134017" lon="2.326985"><ele>855.0</ele><time>2026-04-11T10:54:55.984Z</time></trkpt><trkpt lat="41.7133233" lon="2.3270483"><ele>855.0</ele><time>2026-04-11T10:54:56.984Z</time></trkpt><trkpt lat="41.7132417" lon="2.32715"><ele>852.0</ele><time>2026-04-11T10:54:57.984Z</time></trkpt><trkpt lat="41.7131517" lon="2.32726"><ele>849.0</ele><time>2026-04-11T10:54:58.984Z</time></trkpt><trkpt lat="41.71306" lon="2.3273433"><ele>846.0</ele><time>2026-04-11T10:54:59.984Z</time></trkpt><trkpt lat="41.71297" lon="2.3274233"><ele>843.0</ele><time>2026-04-11T10:55:00.984Z</time></trkpt><trkpt lat="41.712895" lon="2.327495"><ele>840.0</ele><time>2026-04-11T10:55:01.984Z</time></trkpt><trkpt lat="41.7128333" lon="2.3275367"><ele>840.0</ele><time>2026-04-11T10:55:02.984Z</time></trkpt><trkpt lat="41.712815" lon="2.327635"><ele>840.0</ele><time>2026-04-11T10:55:04.984Z</time></trkpt><trkpt lat="41.7128883" lon="2.3277183"><ele>840.0</ele><time>2026-04-11T10:55:06.984Z</time></trkpt><trkpt lat="41.7129717" lon="2.3277533"><ele>840.0</ele><time>2026-04-11T10:55:07.984Z</time></trkpt><trkpt lat="41.713085" lon="2.3277867"><ele>840.0</ele><time>2026-04-11T10:55:08.984Z</time></trkpt><trkpt lat="41.7132433" lon="2.3278117"><ele>840.0</ele><time>2026-04-11T10:55:09.984Z</time></trkpt><trkpt lat="41.713395" lon="2.3278433"><ele>840.0</ele><time>2026-04-11T10:55:10.985Z</time></trkpt><trkpt lat="41.7135433" lon="2.3278717"><ele>840.0</ele><time>2026-04-11T10:55:11.984Z</time></trkpt><trkpt lat="41.71368" lon="2.3278933"><ele>840.0</ele><time>2026-04-11T10:55:12.984Z</time></trkpt><trkpt lat="41.713815" lon="2.32793"><ele>838.0</ele><time>2026-04-11T10:55:13.984Z</time></trkpt><trkpt lat="41.7139433" lon="2.328005"><ele>836.0</ele><time>2026-04-11T10:55:14.984Z</time></trkpt><trkpt lat="41.7140583" lon="2.3280867"><ele>834.0</ele><time>2026-04-11T10:55:15.984Z</time></trkpt><trkpt lat="41.71417" lon="2.3281667"><ele>832.0</ele><time>2026-04-11T10:55:16.984Z</time></trkpt><trkpt lat="41.7142833" lon="2.3282467"><ele>832.0</ele><time>2026-04-11T10:55:17.984Z</time></trkpt><trkpt lat="41.71439" lon="2.3283283"><ele>832.0</ele><time>2026-04-11T10:55:18.984Z</time></trkpt><trkpt lat="41.7144867" lon="2.3284317"><ele>832.0</ele><time>2026-04-11T10:55:19.984Z</time></trkpt><trkpt lat="41.7145583" lon="2.3285567"><ele>832.0</ele><time>2026-04-11T10:55:20.985Z</time></trkpt><trkpt lat="41.7146233" lon="2.328665"><ele>832.3333333333333</ele><time>2026-04-11T10:55:21.984Z</time></trkpt><trkpt lat="41.71468" lon="2.32878"><ele>832.6666666666666</ele><time>2026-04-11T10:55:22.984Z</time></trkpt><trkpt lat="41.7147383" lon="2.3288683"><ele>833.0</ele><time>2026-04-11T10:55:23.984Z</time></trkpt><trkpt lat="41.7147917" lon="2.32894"><ele>833.3333333333333</ele><time>2026-04-11T10:55:24.984Z</time></trkpt><trkpt lat="41.714845" lon="2.328985"><ele>833.6666666666666</ele><time>2026-04-11T10:55:25.984Z</time></trkpt><trkpt lat="41.7149167" lon="2.3290983"><ele>834.0</ele><time>2026-04-11T10:55:27.984Z</time></trkpt><trkpt lat="41.71494" lon="2.3292017"><ele>834.0</ele><time>2026-04-11T10:55:28.984Z</time></trkpt><trkpt lat="41.71497" lon="2.3292983"><ele>834.0</ele><time>2026-04-11T10:55:29.984Z</time></trkpt><trkpt lat="41.7149933" lon="2.329405"><ele>834.0</ele><time>2026-04-11T10:55:30.984Z</time></trkpt><trkpt lat="41.715" lon="2.3294933"><ele>834.0</ele><time>2026-04-11T10:55:31.984Z</time></trkpt><trkpt lat="41.71493" lon="2.3296867"><ele>834.0</ele><time>2026-04-11T10:55:33.984Z</time></trkpt><trkpt lat="41.7149033" lon="2.3297833"><ele>833.0</ele><time>2026-04-11T10:55:34.984Z</time></trkpt><trkpt lat="41.7148767" lon="2.3298867"><ele>832.0</ele><time>2026-04-11T10:55:35.984Z</time></trkpt><trkpt lat="41.7148533" lon="2.3300067"><ele>831.0</ele><time>2026-04-11T10:55:36.984Z</time></trkpt><trkpt lat="41.7148233" lon="2.3301217"><ele>830.0</ele><time>2026-04-11T10:55:37.984Z</time></trkpt><trkpt lat="41.7147767" lon="2.3302317"><ele>829.0</ele><time>2026-04-11T10:55:38.984Z</time></trkpt><trkpt lat="41.7147117" lon="2.330325"><ele>829.0</ele><time>2026-04-11T10:55:39.984Z</time></trkpt><trkpt lat="41.714605" lon="2.3304217"><ele>829.0</ele><time>2026-04-11T10:55:40.984Z</time></trkpt><trkpt lat="41.7145083" lon="2.3305033"><ele>829.0</ele><time>2026-04-11T10:55:41.984Z</time></trkpt><trkpt lat="41.7144417" lon="2.3305867"><ele>829.0</ele><time>2026-04-11T10:55:42.984Z</time></trkpt><trkpt lat="41.7143683" lon="2.3306983"><ele>829.0</ele><time>2026-04-11T10:55:43.984Z</time></trkpt><trkpt lat="41.7143033" lon="2.3308133"><ele>824.4000000000001</ele><time>2026-04-11T10:55:44.984Z</time></trkpt><trkpt lat="41.71424" lon="2.33092"><ele>819.8</ele><time>2026-04-11T10:55:45.984Z</time></trkpt><trkpt lat="41.7141583" lon="2.3310183"><ele>815.2</ele><time>2026-04-11T10:55:46.984Z</time></trkpt><trkpt lat="41.71407" lon="2.3310917"><ele>810.5999999999999</ele><time>2026-04-11T10:55:47.984Z</time></trkpt><trkpt lat="41.713985" lon="2.331145"><ele>806.0</ele><time>2026-04-11T10:55:48.984Z</time></trkpt><trkpt lat="41.7139017" lon="2.3312083"><ele>806.0</ele><time>2026-04-11T10:55:49.985Z</time></trkpt><trkpt lat="41.7138083" lon="2.331275"><ele>806.0</ele><time>2026-04-11T10:55:50.984Z</time></trkpt><trkpt lat="41.7137117" lon="2.33135"><ele>806.0</ele><time>2026-04-11T10:55:51.984Z</time></trkpt><trkpt lat="41.7136217" lon="2.3314283"><ele>806.0</ele><time>2026-04-11T10:55:52.985Z</time></trkpt><trkpt lat="41.7135417" lon="2.3315117"><ele>806.0</ele><time>2026-04-11T10:55:53.984Z</time></trkpt><trkpt lat="41.71348" lon="2.3315983"><ele>803.1999999999999</ele><time>2026-04-11T10:55:54.984Z</time></trkpt><trkpt lat="41.7134167" lon="2.3317083"><ele>800.4</ele><time>2026-04-11T10:55:55.984Z</time></trkpt><trkpt lat="41.713355" lon="2.3318067"><ele>797.6</ele><time>2026-04-11T10:55:56.984Z</time></trkpt><trkpt lat="41.7133033" lon="2.3319017"><ele>794.8</ele><time>2026-04-11T10:55:57.984Z</time></trkpt><trkpt lat="41.7132583" lon="2.332"><ele>792.0</ele><time>2026-04-11T10:55:58.984Z</time></trkpt><trkpt lat="41.7132283" lon="2.332105"><ele>793.8333333333334</ele><time>2026-04-11T10:55:59.984Z</time></trkpt><trkpt lat="41.7132167" lon="2.3322233"><ele>795.6666666666667</ele><time>2026-04-11T10:56:00.984Z</time></trkpt><trkpt lat="41.7132" lon="2.3323483"><ele>797.5</ele><time>2026-04-11T10:56:01.984Z</time></trkpt><trkpt lat="41.7131783" lon="2.3324483"><ele>799.3333333333334</ele><time>2026-04-11T10:56:02.984Z</time></trkpt><trkpt lat="41.713165" lon="2.3325467"><ele>801.1666666666667</ele><time>2026-04-11T10:56:03.984Z</time></trkpt><trkpt lat="41.7131683" lon="2.33265"><ele>803.0</ele><time>2026-04-11T10:56:04.984Z</time></trkpt><trkpt lat="41.713185" lon="2.33277"><ele>803.0</ele><time>2026-04-11T10:56:05.984Z</time></trkpt><trkpt lat="41.7132033" lon="2.3328967"><ele>803.0</ele><time>2026-04-11T10:56:06.984Z</time></trkpt><trkpt lat="41.7132133" lon="2.3330217"><ele>803.0</ele><time>2026-04-11T10:56:07.984Z</time></trkpt><trkpt lat="41.7132167" lon="2.33314"><ele>803.0</ele><time>2026-04-11T10:56:08.984Z</time></trkpt><trkpt lat="41.7131933" lon="2.3332617"><ele>803.0</ele><time>2026-04-11T10:56:09.984Z</time></trkpt><trkpt lat="41.713155" lon="2.3334"><ele>802.5</ele><time>2026-04-11T10:56:10.984Z</time></trkpt><trkpt lat="41.713105" lon="2.3335567"><ele>802.0</ele><time>2026-04-11T10:56:11.984Z</time></trkpt><trkpt lat="41.7130467" lon="2.3336983"><ele>801.5</ele><time>2026-04-11T10:56:12.984Z</time></trkpt><trkpt lat="41.7129867" lon="2.3338283"><ele>801.0</ele><time>2026-04-11T10:56:13.984Z</time></trkpt><trkpt lat="41.71292" lon="2.33394"><ele>801.0</ele><time>2026-04-11T10:56:14.984Z</time></trkpt><trkpt lat="41.7128417" lon="2.334025"><ele>801.0</ele><time>2026-04-11T10:56:15.984Z</time></trkpt><trkpt lat="41.71275" lon="2.3340717"><ele>801.0</ele><time>2026-04-11T10:56:16.984Z</time></trkpt><trkpt lat="41.7126683" lon="2.33413"><ele>801.0</ele><time>2026-04-11T10:56:17.984Z</time></trkpt><trkpt lat="41.7125983" lon="2.3342017"><ele>801.0</ele><time>2026-04-11T10:56:18.984Z</time></trkpt><trkpt lat="41.7125167" lon="2.3342817"><ele>795.0</ele><time>2026-04-11T10:56:19.984Z</time></trkpt><trkpt lat="41.7124367" lon="2.33437"><ele>789.0</ele><time>2026-04-11T10:56:20.984Z</time></trkpt><trkpt lat="41.712365" lon="2.3344567"><ele>783.0</ele><time>2026-04-11T10:56:21.984Z</time></trkpt><trkpt lat="41.7122983" lon="2.3345483"><ele>777.0</ele><time>2026-04-11T10:56:22.984Z</time></trkpt><trkpt lat="41.71223" lon="2.3346367"><ele>771.0</ele><time>2026-04-11T10:56:23.984Z</time></trkpt><trkpt lat="41.71217" lon="2.334725"><ele>771.0</ele><time>2026-04-11T10:56:24.984Z</time></trkpt><trkpt lat="41.7121183" lon="2.3348033"><ele>771.0</ele><time>2026-04-11T10:56:25.984Z</time></trkpt><trkpt lat="41.7120767" lon="2.3348817"><ele>771.0</ele><time>2026-04-11T10:56:26.984Z</time></trkpt><trkpt lat="41.7120433" lon="2.3349667"><ele>771.0</ele><time>2026-04-11T10:56:27.984Z</time></trkpt><trkpt lat="41.71202" lon="2.3350633"><ele>771.0</ele><time>2026-04-11T10:56:28.985Z</time></trkpt><trkpt lat="41.7119883" lon="2.33517"><ele>771.0</ele><time>2026-04-11T10:56:29.984Z</time></trkpt><trkpt lat="41.7119433" lon="2.335275"><ele>766.8</ele><time>2026-04-11T10:56:30.984Z</time></trkpt><trkpt lat="41.711895" lon="2.3353733"><ele>762.5999999999999</ele><time>2026-04-11T10:56:31.984Z</time></trkpt><trkpt lat="41.71183" lon="2.3354483"><ele>758.4</ele><time>2026-04-11T10:56:32.984Z</time></trkpt><trkpt lat="41.71175" lon="2.3355383"><ele>754.2</ele><time>2026-04-11T10:56:33.984Z</time></trkpt><trkpt lat="41.711675" lon="2.335625"><ele>750.0</ele><time>2026-04-11T10:56:34.984Z</time></trkpt><trkpt lat="41.7116233" lon="2.335715"><ele>750.0</ele><time>2026-04-11T10:56:35.984Z</time></trkpt><trkpt lat="41.71159" lon="2.3358117"><ele>750.0</ele><time>2026-04-11T10:56:36.984Z</time></trkpt><trkpt lat="41.7115617" lon="2.3359283"><ele>750.0</ele><time>2026-04-11T10:56:37.984Z</time></trkpt><trkpt lat="41.71153" lon="2.33607"><ele>750.0</ele><time>2026-04-11T10:56:38.985Z</time></trkpt><trkpt lat="41.7115117" lon="2.3362083"><ele>750.0</ele><time>2026-04-11T10:56:39.984Z</time></trkpt><trkpt lat="41.711505" lon="2.3363283"><ele>747.8333333333334</ele><time>2026-04-11T10:56:40.985Z</time></trkpt><trkpt lat="41.7115067" lon="2.3364433"><ele>745.6666666666666</ele><time>2026-04-11T10:56:41.984Z</time></trkpt><trkpt lat="41.7115033" lon="2.3365517"><ele>743.5</ele><time>2026-04-11T10:56:42.984Z</time></trkpt><trkpt lat="41.7114933" lon="2.3366633"><ele>741.3333333333333</ele><time>2026-04-11T10:56:43.984Z</time></trkpt><trkpt lat="41.7114733" lon="2.3367633"><ele>739.1666666666666</ele><time>2026-04-11T10:56:44.984Z</time></trkpt><trkpt lat="41.7114383" lon="2.3368617"><ele>737.0</ele><time>2026-04-11T10:56:45.984Z</time></trkpt><trkpt lat="41.7113983" lon="2.3369383"><ele>737.0</ele><time>2026-04-11T10:56:46.984Z</time></trkpt><trkpt lat="41.7113217" lon="2.3369833"><ele>737.0</ele><time>2026-04-11T10:56:48.984Z</time></trkpt><trkpt lat="41.71125" lon="2.3368733"><ele>737.0</ele><time>2026-04-11T10:56:50.984Z</time></trkpt><trkpt lat="41.7112133" lon="2.3367717"><ele>737.0</ele><time>2026-04-11T10:56:51.984Z</time></trkpt><trkpt lat="41.71118" lon="2.3366633"><ele>737.0</ele><time>2026-04-11T10:56:52.984Z</time></trkpt><trkpt lat="41.71116" lon="2.336535"><ele>737.0</ele><time>2026-04-11T10:56:53.985Z</time></trkpt><trkpt lat="41.7111433" lon="2.3364117"><ele>737.0</ele><time>2026-04-11T10:56:54.984Z</time></trkpt><trkpt lat="41.71113" lon="2.3362983"><ele>737.0</ele><time>2026-04-11T10:56:55.984Z</time></trkpt><trkpt lat="41.7111117" lon="2.33621"><ele>737.0</ele><time>2026-04-11T10:56:56.984Z</time></trkpt><trkpt lat="41.711075" lon="2.3360983"><ele>737.0</ele><time>2026-04-11T10:56:58.984Z</time></trkpt><trkpt lat="41.7110267" lon="2.336205"><ele>737.0</ele><time>2026-04-11T10:57:03.984Z</time></trkpt><trkpt lat="41.7109933" lon="2.336315"><ele>734.4000000000001</ele><time>2026-04-11T10:57:05.984Z</time></trkpt><trkpt lat="41.71094" lon="2.33644"><ele>731.8000000000001</ele><time>2026-04-11T10:57:07.984Z</time></trkpt><trkpt lat="41.7109" lon="2.3365183"><ele>729.2</ele><time>2026-04-11T10:57:08.984Z</time></trkpt><trkpt lat="41.71083" lon="2.3366483"><ele>726.6</ele><time>2026-04-11T10:57:09.984Z</time></trkpt><trkpt lat="41.7107517" lon="2.3367967"><ele>724.0</ele><time>2026-04-11T10:57:10.984Z</time></trkpt><trkpt lat="41.7106833" lon="2.3369233"><ele>724.0</ele><time>2026-04-11T10:57:11.985Z</time></trkpt><trkpt lat="41.710605" lon="2.337055"><ele>724.0</ele><time>2026-04-11T10:57:12.984Z</time></trkpt><trkpt lat="41.71053" lon="2.3371833"><ele>724.0</ele><time>2026-04-11T10:57:13.984Z</time></trkpt><trkpt lat="41.710455" lon="2.3373117"><ele>724.0</ele><time>2026-04-11T10:57:14.984Z</time></trkpt><trkpt lat="41.7103833" lon="2.3374333"><ele>723.8000000000001</ele><time>2026-04-11T10:57:15.984Z</time></trkpt><trkpt lat="41.7103217" lon="2.3375567"><ele>723.6</ele><time>2026-04-11T10:57:16.984Z</time></trkpt><trkpt lat="41.7102617" lon="2.3376783"><ele>723.4</ele><time>2026-04-11T10:57:17.984Z</time></trkpt><trkpt lat="41.7101983" lon="2.3377883"><ele>723.2</ele><time>2026-04-11T10:57:18.984Z</time></trkpt><trkpt lat="41.71013" lon="2.3378917"><ele>723.0</ele><time>2026-04-11T10:57:19.984Z</time></trkpt><trkpt lat="41.710075" lon="2.3380067"><ele>717.2</ele><time>2026-04-11T10:57:20.984Z</time></trkpt><trkpt lat="41.7100383" lon="2.33814"><ele>711.4</ele><time>2026-04-11T10:57:21.984Z</time></trkpt><trkpt lat="41.7100117" lon="2.3382717"><ele>705.6</ele><time>2026-04-11T10:57:22.984Z</time></trkpt><trkpt lat="41.7100067" lon="2.33841"><ele>699.8000000000001</ele><time>2026-04-11T10:57:23.984Z</time></trkpt><trkpt lat="41.7099867" lon="2.3385633"><ele>694.0</ele><time>2026-04-11T10:57:24.984Z</time></trkpt><trkpt lat="41.7099683" lon="2.3387183"><ele>694.0</ele><time>2026-04-11T10:57:25.984Z</time></trkpt><trkpt lat="41.7099467" lon="2.338865"><ele>694.0</ele><time>2026-04-11T10:57:26.984Z</time></trkpt><trkpt lat="41.70991" lon="2.3390117"><ele>694.0</ele><time>2026-04-11T10:57:27.984Z</time></trkpt><trkpt lat="41.7098583" lon="2.3391583"><ele>694.0</ele><time>2026-04-11T10:57:28.984Z</time></trkpt><trkpt lat="41.7097917" lon="2.33932"><ele>692.75</ele><time>2026-04-11T10:57:29.984Z</time></trkpt><trkpt lat="41.70973" lon="2.3394717"><ele>691.5</ele><time>2026-04-11T10:57:30.984Z</time></trkpt><trkpt lat="41.7096583" lon="2.3396017"><ele>690.25</ele><time>2026-04-11T10:57:31.984Z</time></trkpt><trkpt lat="41.7095817" lon="2.3397167"><ele>689.0</ele><time>2026-04-11T10:57:32.984Z</time></trkpt><trkpt lat="41.7095067" lon="2.3398183"><ele>686.6</ele><time>2026-04-11T10:57:33.984Z</time></trkpt><trkpt lat="41.7094383" lon="2.3399217"><ele>684.2</ele><time>2026-04-11T10:57:34.984Z</time></trkpt><trkpt lat="41.7093717" lon="2.34004"><ele>681.8000000000001</ele><time>2026-04-11T10:57:35.984Z</time></trkpt><trkpt lat="41.7093067" lon="2.34015"><ele>679.4000000000001</ele><time>2026-04-11T10:57:36.984Z</time></trkpt><trkpt lat="41.7092483" lon="2.340255"><ele>677.0</ele><time>2026-04-11T10:57:37.984Z</time></trkpt><trkpt lat="41.7091917" lon="2.3403567"><ele>676.8333333333333</ele><time>2026-04-11T10:57:38.984Z</time></trkpt><trkpt lat="41.7091417" lon="2.3404467"><ele>676.6666666666666</ele><time>2026-04-11T10:57:39.984Z</time></trkpt><trkpt lat="41.709095" lon="2.3405317"><ele>676.5</ele><time>2026-04-11T10:57:40.984Z</time></trkpt><trkpt lat="41.709055" lon="2.3406117"><ele>676.3333333333334</ele><time>2026-04-11T10:57:41.984Z</time></trkpt><trkpt lat="41.7090133" lon="2.340685"><ele>676.1666666666667</ele><time>2026-04-11T10:57:42.984Z</time></trkpt><trkpt lat="41.7089633" lon="2.3407633"><ele>676.0</ele><time>2026-04-11T10:57:43.984Z</time></trkpt><trkpt lat="41.7088983" lon="2.3408267"><ele>672.25</ele><time>2026-04-11T10:57:44.984Z</time></trkpt><trkpt lat="41.70881" lon="2.3409017"><ele>668.5</ele><time>2026-04-11T10:57:45.984Z</time></trkpt><trkpt lat="41.7087117" lon="2.3409833"><ele>664.75</ele><time>2026-04-11T10:57:46.984Z</time></trkpt><trkpt lat="41.7086217" lon="2.3410883"><ele>661.0</ele><time>2026-04-11T10:57:47.984Z</time></trkpt><trkpt lat="41.7085217" lon="2.34121"><ele>658.8333333333334</ele><time>2026-04-11T10:57:48.984Z</time></trkpt><trkpt lat="41.7084567" lon="2.3413"><ele>656.6666666666667</ele><time>2026-04-11T10:57:49.984Z</time></trkpt><trkpt lat="41.7084083" lon="2.34139"><ele>654.5</ele><time>2026-04-11T10:57:50.984Z</time></trkpt><trkpt lat="41.7083517" lon="2.34147"><ele>652.3333333333334</ele><time>2026-04-11T10:57:51.984Z</time></trkpt><trkpt lat="41.7082867" lon="2.3415367"><ele>650.1666666666666</ele><time>2026-04-11T10:57:52.984Z</time></trkpt><trkpt lat="41.7082067" lon="2.34159"><ele>648.0</ele><time>2026-04-11T10:57:53.985Z</time></trkpt><trkpt lat="41.7080933" lon="2.34164"><ele>648.0</ele><time>2026-04-11T10:57:54.984Z</time></trkpt><trkpt lat="41.7079617" lon="2.3416933"><ele>648.0</ele><time>2026-04-11T10:57:55.984Z</time></trkpt><trkpt lat="41.707835" lon="2.341755"><ele>648.0</ele><time>2026-04-11T10:57:56.984Z</time></trkpt><trkpt lat="41.7077067" lon="2.341815"><ele>648.0</ele><time>2026-04-11T10:57:57.984Z</time></trkpt><trkpt lat="41.7075867" lon="2.3418783"><ele>645.5</ele><time>2026-04-11T10:57:58.984Z</time></trkpt><trkpt lat="41.7074533" lon="2.3419417"><ele>643.0</ele><time>2026-04-11T10:57:59.984Z</time></trkpt><trkpt lat="41.707315" lon="2.3420217"><ele>640.5</ele><time>2026-04-11T10:58:00.984Z</time></trkpt><trkpt lat="41.70719" lon="2.3421033"><ele>638.0</ele><time>2026-04-11T10:58:01.984Z</time></trkpt><trkpt lat="41.7070517" lon="2.3421967"><ele>638.0</ele><time>2026-04-11T10:58:02.984Z</time></trkpt><trkpt lat="41.7069333" lon="2.3422667"><ele>638.0</ele><time>2026-04-11T10:58:03.984Z</time></trkpt><trkpt lat="41.7068333" lon="2.3423333"><ele>638.0</ele><time>2026-04-11T10:58:04.984Z</time></trkpt><trkpt lat="41.706725" lon="2.342425"><ele>638.0</ele><time>2026-04-11T10:58:05.984Z</time></trkpt><trkpt lat="41.7066233" lon="2.3425283"><ele>638.0</ele><time>2026-04-11T10:58:06.984Z</time></trkpt><trkpt lat="41.7065033" lon="2.3426433"><ele>638.0</ele><time>2026-04-11T10:58:07.984Z</time></trkpt><trkpt lat="41.706385" lon="2.3427567"><ele>638.0</ele><time>2026-04-11T10:58:08.984Z</time></trkpt><trkpt lat="41.7062833" lon="2.3428483"><ele>638.0</ele><time>2026-04-11T10:58:09.985Z</time></trkpt><trkpt lat="41.7061817" lon="2.34293"><ele>638.0</ele><time>2026-04-11T10:58:10.984Z</time></trkpt><trkpt lat="41.70608" lon="2.3430017"><ele>638.0</ele><time>2026-04-11T10:58:11.984Z</time></trkpt><trkpt lat="41.7059683" lon="2.3430567"><ele>638.0</ele><time>2026-04-11T10:58:12.984Z</time></trkpt><trkpt lat="41.7058567" lon="2.3430983"><ele>638.0</ele><time>2026-04-11T10:58:13.984Z</time></trkpt><trkpt lat="41.7057367" lon="2.34314"><ele>636.5</ele><time>2026-04-11T10:58:14.984Z</time></trkpt><trkpt lat="41.70563" lon="2.3431683"><ele>635.0</ele><time>2026-04-11T10:58:15.984Z</time></trkpt><trkpt lat="41.705505" lon="2.34319"><ele>633.5</ele><time>2026-04-11T10:58:16.984Z</time></trkpt><trkpt lat="41.705365" lon="2.34321"><ele>632.0</ele><time>2026-04-11T10:58:17.984Z</time></trkpt><trkpt lat="41.705215" lon="2.34324"><ele>631.0</ele><time>2026-04-11T10:58:18.984Z</time></trkpt><trkpt lat="41.7050783" lon="2.34327"><ele>630.0</ele><time>2026-04-11T10:58:19.984Z</time></trkpt><trkpt lat="41.70495" lon="2.3433033"><ele>629.0</ele><time>2026-04-11T10:58:20.984Z</time></trkpt><trkpt lat="41.70484" lon="2.343325"><ele>628.0</ele><time>2026-04-11T10:58:21.984Z</time></trkpt><trkpt lat="41.7047517" lon="2.3433533"><ele>628.0</ele><time>2026-04-11T10:58:22.984Z</time></trkpt><trkpt lat="41.7046767" lon="2.343365"><ele>628.0</ele><time>2026-04-11T10:58:23.984Z</time></trkpt><trkpt lat="41.7046133" lon="2.3433717"><ele>628.0</ele><time>2026-04-11T10:58:24.984Z</time></trkpt><trkpt lat="41.7045067" lon="2.3434117"><ele>628.0</ele><time>2026-04-11T10:58:26.984Z</time></trkpt><trkpt lat="41.704415" lon="2.34348"><ele>628.0</ele><time>2026-04-11T10:58:28.984Z</time></trkpt><trkpt lat="41.7043433" lon="2.34352"><ele>628.0</ele><time>2026-04-11T10:58:30.984Z</time></trkpt><trkpt lat="41.7042733" lon="2.3434567"><ele>626.8</ele><time>2026-04-11T10:58:34.984Z</time></trkpt><trkpt lat="41.7041817" lon="2.3433267"><ele>625.5999999999999</ele><time>2026-04-11T10:58:36.984Z</time></trkpt><trkpt lat="41.70412" lon="2.3432533"><ele>624.4000000000001</ele><time>2026-04-11T10:58:37.984Z</time></trkpt><trkpt lat="41.7040533" lon="2.3431783"><ele>623.2</ele><time>2026-04-11T10:58:38.984Z</time></trkpt><trkpt lat="41.703995" lon="2.3430967"><ele>622.0</ele><time>2026-04-11T10:58:39.984Z</time></trkpt><trkpt lat="41.7039383" lon="2.343015"><ele>620.8333333333334</ele><time>2026-04-11T10:58:40.984Z</time></trkpt><trkpt lat="41.7038883" lon="2.3429217"><ele>619.6666666666667</ele><time>2026-04-11T10:58:41.984Z</time></trkpt><trkpt lat="41.7038367" lon="2.3428217"><ele>618.5</ele><time>2026-04-11T10:58:42.984Z</time></trkpt><trkpt lat="41.7037867" lon="2.3427183"><ele>617.3333333333334</ele><time>2026-04-11T10:58:43.984Z</time></trkpt><trkpt lat="41.7037583" lon="2.34264"><ele>616.1666666666666</ele><time>2026-04-11T10:58:44.984Z</time></trkpt><trkpt lat="41.7037283" lon="2.342555"><ele>615.0</ele><time>2026-04-11T10:58:45.984Z</time></trkpt><trkpt lat="41.7036817" lon="2.3424317"><ele>615.0</ele><time>2026-04-11T10:58:47.984Z</time></trkpt><trkpt lat="41.7035883" lon="2.3422883"><ele>615.0</ele><time>2026-04-11T10:58:49.984Z</time></trkpt><trkpt lat="41.7035333" lon="2.3422183"><ele>615.0</ele><time>2026-04-11T10:58:50.984Z</time></trkpt><trkpt lat="41.7034617" lon="2.3421967"><ele>615.0</ele><time>2026-04-11T10:58:51.984Z</time></trkpt><trkpt lat="41.703375" lon="2.3421833"><ele>615.0</ele><time>2026-04-11T10:58:52.984Z</time></trkpt><trkpt lat="41.7033033" lon="2.3421933"><ele>613.0</ele><time>2026-04-11T10:58:53.984Z</time></trkpt><trkpt lat="41.7032217" lon="2.3422133"><ele>611.0</ele><time>2026-04-11T10:58:54.984Z</time></trkpt><trkpt lat="41.7031367" lon="2.34225"><ele>609.0</ele><time>2026-04-11T10:58:55.984Z</time></trkpt><trkpt lat="41.703055" lon="2.3422917"><ele>607.0</ele><time>2026-04-11T10:58:56.984Z</time></trkpt><trkpt lat="41.7029783" lon="2.3423483"><ele>605.0</ele><time>2026-04-11T10:58:57.984Z</time></trkpt><trkpt lat="41.702895" lon="2.3423917"><ele>603.0</ele><time>2026-04-11T10:58:58.984Z</time></trkpt><trkpt lat="41.70282" lon="2.34244"><ele>598.4</ele><time>2026-04-11T10:58:59.984Z</time></trkpt><trkpt lat="41.7027133" lon="2.3424717"><ele>593.8</ele><time>2026-04-11T10:59:00.984Z</time></trkpt><trkpt lat="41.702605" lon="2.3425033"><ele>589.2</ele><time>2026-04-11T10:59:01.984Z</time></trkpt><trkpt lat="41.70251" lon="2.3425283"><ele>584.6</ele><time>2026-04-11T10:59:02.985Z</time></trkpt><trkpt lat="41.7024083" lon="2.34255"><ele>580.0</ele><time>2026-04-11T10:59:03.984Z</time></trkpt><trkpt lat="41.7023183" lon="2.3425833"><ele>580.0</ele><time>2026-04-11T10:59:04.984Z</time></trkpt><trkpt lat="41.7022383" lon="2.342645"><ele>580.0</ele><time>2026-04-11T10:59:05.985Z</time></trkpt><trkpt lat="41.7021567" lon="2.342735"><ele>580.0</ele><time>2026-04-11T10:59:06.984Z</time></trkpt><trkpt lat="41.702075" lon="2.3428333"><ele>580.0</ele><time>2026-04-11T10:59:07.984Z</time></trkpt><trkpt lat="41.7019967" lon="2.3429267"><ele>580.0</ele><time>2026-04-11T10:59:08.984Z</time></trkpt><trkpt lat="41.7019067" lon="2.3430183"><ele>576.6</ele><time>2026-04-11T10:59:09.984Z</time></trkpt><trkpt lat="41.7018117" lon="2.3430883"><ele>573.2</ele><time>2026-04-11T10:59:10.984Z</time></trkpt><trkpt lat="41.70172" lon="2.34313"><ele>569.8</ele><time>2026-04-11T10:59:11.984Z</time></trkpt><trkpt lat="41.701635" lon="2.3431783"><ele>566.4</ele><time>2026-04-11T10:59:12.985Z</time></trkpt><trkpt lat="41.70155" lon="2.3432117"><ele>563.0</ele><time>2026-04-11T10:59:13.984Z</time></trkpt><trkpt lat="41.7014533" lon="2.343245"><ele>563.0</ele><time>2026-04-11T10:59:14.984Z</time></trkpt><trkpt lat="41.701365" lon="2.3432583"><ele>563.0</ele><time>2026-04-11T10:59:15.984Z</time></trkpt><trkpt lat="41.7012733" lon="2.343255"><ele>563.0</ele><time>2026-04-11T10:59:16.984Z</time></trkpt><trkpt lat="41.7011917" lon="2.343245"><ele>563.0</ele><time>2026-04-11T10:59:17.984Z</time></trkpt><trkpt lat="41.701115" lon="2.3432167"><ele>563.0</ele><time>2026-04-11T10:59:18.984Z</time></trkpt><trkpt lat="41.7010383" lon="2.3431867"><ele>563.0</ele><time>2026-04-11T10:59:19.985Z</time></trkpt><trkpt lat="41.7009833" lon="2.343125"><ele>560.6</ele><time>2026-04-11T10:59:20.984Z</time></trkpt><trkpt lat="41.700935" lon="2.3430467"><ele>558.1999999999999</ele><time>2026-04-11T10:59:21.984Z</time></trkpt><trkpt lat="41.7008933" lon="2.3429283"><ele>555.8</ele><time>2026-04-11T10:59:22.984Z</time></trkpt><trkpt lat="41.7008483" lon="2.3428"><ele>553.4</ele><time>2026-04-11T10:59:23.984Z</time></trkpt><trkpt lat="41.7008183" lon="2.3426683"><ele>551.0</ele><time>2026-04-11T10:59:24.984Z</time></trkpt><trkpt lat="41.7007817" lon="2.3425333"><ele>551.0</ele><time>2026-04-11T10:59:25.984Z</time></trkpt><trkpt lat="41.700735" lon="2.3424267"><ele>551.0</ele><time>2026-04-11T10:59:26.984Z</time></trkpt><trkpt lat="41.7006717" lon="2.3423383"><ele>551.0</ele><time>2026-04-11T10:59:27.984Z</time></trkpt><trkpt lat="41.700595" lon="2.3422633"><ele>551.0</ele><time>2026-04-11T10:59:28.984Z</time></trkpt><trkpt lat="41.7005167" lon="2.3421867"><ele>551.0</ele><time>2026-04-11T10:59:29.984Z</time></trkpt><trkpt lat="41.7004267" lon="2.3421017"><ele>548.0</ele><time>2026-04-11T10:59:30.984Z</time></trkpt><trkpt lat="41.7003483" lon="2.342035"><ele>545.0</ele><time>2026-04-11T10:59:31.984Z</time></trkpt><trkpt lat="41.7002733" lon="2.3420017"><ele>542.0</ele><time>2026-04-11T10:59:32.984Z</time></trkpt><trkpt lat="41.7001983" lon="2.341985"><ele>539.0</ele><time>2026-04-11T10:59:33.984Z</time></trkpt><trkpt lat="41.7001183" lon="2.3419833"><ele>536.0</ele><time>2026-04-11T10:59:34.984Z</time></trkpt><trkpt lat="41.700035" lon="2.341995"><ele>533.0</ele><time>2026-04-11T10:59:35.984Z</time></trkpt><trkpt lat="41.69994" lon="2.342005"><ele>531.7142857142857</ele><time>2026-04-11T10:59:36.984Z</time></trkpt><trkpt lat="41.699865" lon="2.34201"><ele>530.4285714285713</ele><time>2026-04-11T10:59:37.985Z</time></trkpt><trkpt lat="41.6997817" lon="2.3420067"><ele>529.1428571428571</ele><time>2026-04-11T10:59:38.984Z</time></trkpt><trkpt lat="41.699715" lon="2.342"><ele>527.8571428571429</ele><time>2026-04-11T10:59:39.984Z</time></trkpt><trkpt lat="41.6996517" lon="2.34198"><ele>526.5714285714287</ele><time>2026-04-11T10:59:40.984Z</time></trkpt><trkpt lat="41.6995883" lon="2.34194"><ele>525.2857142857143</ele><time>2026-04-11T10:59:41.984Z</time></trkpt><trkpt lat="41.6995433" lon="2.3418733"><ele>524.0</ele><time>2026-04-11T10:59:42.984Z</time></trkpt><trkpt lat="41.6995017" lon="2.341805"><ele>524.0</ele><time>2026-04-11T10:59:43.984Z</time></trkpt><trkpt lat="41.69946" lon="2.3417383"><ele>524.0</ele><time>2026-04-11T10:59:44.984Z</time></trkpt><trkpt lat="41.699355" lon="2.3416517"><ele>524.0</ele><time>2026-04-11T10:59:46.984Z</time></trkpt><trkpt lat="41.6992633" lon="2.3416333"><ele>524.0</ele><time>2026-04-11T10:59:48.984Z</time></trkpt><trkpt lat="41.6991717" lon="2.3417017"><ele>524.0</ele><time>2026-04-11T10:59:50.984Z</time></trkpt><trkpt lat="41.6991033" lon="2.341785"><ele>520.8</ele><time>2026-04-11T10:59:51.984Z</time></trkpt><trkpt lat="41.6990283" lon="2.341865"><ele>517.5999999999999</ele><time>2026-04-11T10:59:52.984Z</time></trkpt><trkpt lat="41.698955" lon="2.3419483"><ele>514.4</ele><time>2026-04-11T10:59:53.984Z</time></trkpt><trkpt lat="41.69889" lon="2.34203"><ele>511.2</ele><time>2026-04-11T10:59:54.984Z</time></trkpt><trkpt lat="41.69883" lon="2.3421183"><ele>508.0</ele><time>2026-04-11T10:59:55.984Z</time></trkpt><trkpt lat="41.6987767" lon="2.3422017"><ele>508.6666666666667</ele><time>2026-04-11T10:59:56.984Z</time></trkpt><trkpt lat="41.6987383" lon="2.342285"><ele>509.33333333333337</ele><time>2026-04-11T10:59:57.984Z</time></trkpt><trkpt lat="41.698705" lon="2.3423783"><ele>510.0</ele><time>2026-04-11T10:59:58.984Z</time></trkpt><trkpt lat="41.698665" lon="2.3424767"><ele>510.66666666666663</ele><time>2026-04-11T10:59:59.984Z</time></trkpt><trkpt lat="41.6986233" lon="2.3425583"><ele>511.3333333333333</ele><time>2026-04-11T11:00:00.984Z</time></trkpt><trkpt lat="41.698585" lon="2.3426267"><ele>512.0</ele><time>2026-04-11T11:00:01.984Z</time></trkpt><trkpt lat="41.6985133" lon="2.3427217"><ele>508.49999999999994</ele><time>2026-04-11T11:00:03.984Z</time></trkpt><trkpt lat="41.6984317" lon="2.3426517"><ele>505.0</ele><time>2026-04-11T11:00:05.984Z</time></trkpt><trkpt lat="41.698425" lon="2.342555"><ele>501.5</ele><time>2026-04-11T11:00:06.984Z</time></trkpt><trkpt lat="41.6984017" lon="2.3424517"><ele>498.0</ele><time>2026-04-11T11:00:07.984Z</time></trkpt><trkpt lat="41.6984" lon="2.3423517"><ele>494.49999999999994</ele><time>2026-04-11T11:00:08.984Z</time></trkpt><trkpt lat="41.6984133" lon="2.34226"><ele>491.0</ele><time>2026-04-11T11:00:09.984Z</time></trkpt><trkpt lat="41.6984017" lon="2.3421667"><ele>490.99999999999994</ele><time>2026-04-11T11:00:11.984Z</time></trkpt><trkpt lat="41.6983333" lon="2.3421783"><ele>491.0</ele><time>2026-04-11T11:00:13.984Z</time></trkpt><trkpt lat="41.69828" lon="2.342235"><ele>491.0</ele><time>2026-04-11T11:00:14.984Z</time></trkpt><trkpt lat="41.69821" lon="2.3423067"><ele>491.0</ele><time>2026-04-11T11:00:15.984Z</time></trkpt><trkpt lat="41.698125" lon="2.3423917"><ele>490.99999999999994</ele><time>2026-04-11T11:00:16.984Z</time></trkpt><trkpt lat="41.6980317" lon="2.3424733"><ele>491.0</ele><time>2026-04-11T11:00:17.984Z</time></trkpt><trkpt lat="41.6979417" lon="2.3425517"><ele>491.0</ele><time>2026-04-11T11:00:18.984Z</time></trkpt><trkpt lat="41.697845" lon="2.3426317"><ele>491.0</ele><time>2026-04-11T11:00:19.984Z</time></trkpt><trkpt lat="41.6977667" lon="2.3427017"><ele>491.0</ele><time>2026-04-11T11:00:20.984Z</time></trkpt><trkpt lat="41.6976983" lon="2.3427767"><ele>491.0</ele><time>2026-04-11T11:00:21.984Z</time></trkpt><trkpt lat="41.6976317" lon="2.3428617"><ele>491.0</ele><time>2026-04-11T11:00:22.984Z</time></trkpt><trkpt lat="41.697575" lon="2.3429533"><ele>486.49999999999994</ele><time>2026-04-11T11:00:23.984Z</time></trkpt><trkpt lat="41.6975317" lon="2.3430583"><ele>482.0</ele><time>2026-04-11T11:00:24.984Z</time></trkpt><trkpt lat="41.6975083" lon="2.3431567"><ele>477.5</ele><time>2026-04-11T11:00:25.984Z</time></trkpt><trkpt lat="41.6974917" lon="2.3432667"><ele>473.0</ele><time>2026-04-11T11:00:26.985Z</time></trkpt><trkpt lat="41.69748" lon="2.3433617"><ele>468.49999999999994</ele><time>2026-04-11T11:00:27.984Z</time></trkpt><trkpt lat="41.697465" lon="2.343465"><ele>464.0</ele><time>2026-04-11T11:00:28.984Z</time></trkpt><trkpt lat="41.6974617" lon="2.3435767"><ele>463.99999999999994</ele><time>2026-04-11T11:00:29.984Z</time></trkpt><trkpt lat="41.6974683" lon="2.3436817"><ele>464.0</ele><time>2026-04-11T11:00:30.984Z</time></trkpt><trkpt lat="41.69747" lon="2.343785"><ele>464.0</ele><time>2026-04-11T11:00:31.985Z</time></trkpt><trkpt lat="41.69747" lon="2.343885"><ele>464.0</ele><time>2026-04-11T11:00:32.984Z</time></trkpt><trkpt lat="41.69745" lon="2.34398"><ele>463.99999999999994</ele><time>2026-04-11T11:00:33.984Z</time></trkpt><trkpt lat="41.6974217" lon="2.34406"><ele>464.0</ele><time>2026-04-11T11:00:34.984Z</time></trkpt><trkpt lat="41.69733" lon="2.344135"><ele>461.4</ele><time>2026-04-11T11:00:36.984Z</time></trkpt><trkpt lat="41.69718" lon="2.344095"><ele>458.79999999999995</ele><time>2026-04-11T11:00:38.984Z</time></trkpt><trkpt lat="41.697105" lon="2.3440567"><ele>456.20000000000005</ele><time>2026-04-11T11:00:39.985Z</time></trkpt><trkpt lat="41.697035" lon="2.3440217"><ele>453.6</ele><time>2026-04-11T11:00:40.984Z</time></trkpt><trkpt lat="41.6969833" lon="2.34396"><ele>451.0</ele><time>2026-04-11T11:00:41.984Z</time></trkpt><trkpt lat="41.6968917" lon="2.3438917"><ele>446.8</ele><time>2026-04-11T11:00:43.984Z</time></trkpt><trkpt lat="41.6968267" lon="2.3438883"><ele>442.6</ele><time>2026-04-11T11:00:45.984Z</time></trkpt><trkpt lat="41.6968183" lon="2.3439783"><ele>438.4</ele><time>2026-04-11T11:00:47.984Z</time></trkpt><trkpt lat="41.6968133" lon="2.344135"><ele>434.2</ele><time>2026-04-11T11:00:49.984Z</time></trkpt><trkpt lat="41.6967817" lon="2.3442733"><ele>430.0</ele><time>2026-04-11T11:00:50.984Z</time></trkpt><trkpt lat="41.6967283" lon="2.344385"><ele>430.0</ele><time>2026-04-11T11:00:51.984Z</time></trkpt><trkpt lat="41.6966683" lon="2.344485"><ele>430.0</ele><time>2026-04-11T11:00:52.984Z</time></trkpt><trkpt lat="41.6966117" lon="2.3445933"><ele>430.0</ele><time>2026-04-11T11:00:53.984Z</time></trkpt><trkpt lat="41.696535" lon="2.34472"><ele>430.0</ele><time>2026-04-11T11:00:54.984Z</time></trkpt><trkpt lat="41.69647" lon="2.3448383"><ele>430.0</ele><time>2026-04-11T11:00:55.984Z</time></trkpt><trkpt lat="41.6964067" lon="2.3449483"><ele>428.6</ele><time>2026-04-11T11:00:56.985Z</time></trkpt><trkpt lat="41.6963417" lon="2.3450567"><ele>427.2</ele><time>2026-04-11T11:00:57.984Z</time></trkpt><trkpt lat="41.6962717" lon="2.34515"><ele>425.79999999999995</ele><time>2026-04-11T11:00:58.984Z</time></trkpt><trkpt lat="41.6962017" lon="2.345225"><ele>424.4</ele><time>2026-04-11T11:00:59.984Z</time></trkpt><trkpt lat="41.6961367" lon="2.3453083"><ele>423.0</ele><time>2026-04-11T11:01:00.984Z</time></trkpt><trkpt lat="41.696085" lon="2.3453833"><ele>421.2</ele><time>2026-04-11T11:01:01.984Z</time></trkpt><trkpt lat="41.6960283" lon="2.3454367"><ele>419.4</ele><time>2026-04-11T11:01:02.984Z</time></trkpt><trkpt lat="41.6959417" lon="2.345465"><ele>417.59999999999997</ele><time>2026-04-11T11:01:04.984Z</time></trkpt><trkpt lat="41.695855" lon="2.3454083"><ele>415.79999999999995</ele><time>2026-04-11T11:01:06.984Z</time></trkpt><trkpt lat="41.69579" lon="2.3453217"><ele>414.0</ele><time>2026-04-11T11:01:08.984Z</time></trkpt><trkpt lat="41.6957867" lon="2.3451633"><ele>414.0</ele><time>2026-04-11T11:01:19.984Z</time></trkpt><trkpt lat="41.69582" lon="2.3450383"><ele>414.0</ele><time>2026-04-11T11:01:20.984Z</time></trkpt><trkpt lat="41.69586" lon="2.3448867"><ele>414.0</ele><time>2026-04-11T11:01:21.984Z</time></trkpt><trkpt lat="41.6958967" lon="2.34474"><ele>414.0</ele><time>2026-04-11T11:01:22.984Z</time></trkpt><trkpt lat="41.69594" lon="2.3446233"><ele>414.0</ele><time>2026-04-11T11:01:23.984Z</time></trkpt><trkpt lat="41.696" lon="2.3445317"><ele>413.0</ele><time>2026-04-11T11:01:24.984Z</time></trkpt><trkpt lat="41.6960833" lon="2.3444567"><ele>412.0</ele><time>2026-04-11T11:01:25.984Z</time></trkpt><trkpt lat="41.6961717" lon="2.3443917"><ele>411.0</ele><time>2026-04-11T11:01:26.984Z</time></trkpt><trkpt lat="41.6962533" lon="2.3443217"><ele>410.0</ele><time>2026-04-11T11:01:27.984Z</time></trkpt><trkpt lat="41.6963167" lon="2.3442383"><ele>409.0</ele><time>2026-04-11T11:01:28.984Z</time></trkpt><trkpt lat="41.69636" lon="2.3441383"><ele>413.2</ele><time>2026-04-11T11:01:29.984Z</time></trkpt><trkpt lat="41.6963933" lon="2.3440383"><ele>417.4</ele><time>2026-04-11T11:01:30.984Z</time></trkpt><trkpt lat="41.696415" lon="2.3439267"><ele>421.6</ele><time>2026-04-11T11:01:31.984Z</time></trkpt><trkpt lat="41.696435" lon="2.343805"><ele>425.8</ele><time>2026-04-11T11:01:32.984Z</time></trkpt><trkpt lat="41.696455" lon="2.3436733"><ele>430.0</ele><time>2026-04-11T11:01:33.984Z</time></trkpt><trkpt lat="41.69648" lon="2.343525"><ele>430.25</ele><time>2026-04-11T11:01:34.984Z</time></trkpt><trkpt lat="41.696495" lon="2.3433717"><ele>430.5</ele><time>2026-04-11T11:01:35.985Z</time></trkpt><trkpt lat="41.6965" lon="2.34321"><ele>430.75</ele><time>2026-04-11T11:01:36.984Z</time></trkpt><trkpt lat="41.6965" lon="2.3430517"><ele>431.0</ele><time>2026-04-11T11:01:37.984Z</time></trkpt><trkpt lat="41.696505" lon="2.3428783"><ele>431.0</ele><time>2026-04-11T11:01:38.984Z</time></trkpt><trkpt lat="41.69651" lon="2.3427067"><ele>431.0</ele><time>2026-04-11T11:01:39.984Z</time></trkpt><trkpt lat="41.696505" lon="2.3425367"><ele>431.0</ele><time>2026-04-11T11:01:40.984Z</time></trkpt><trkpt lat="41.6964833" lon="2.34237"><ele>431.0</ele><time>2026-04-11T11:01:41.984Z</time></trkpt><trkpt lat="41.6964483" lon="2.3422183"><ele>431.6</ele><time>2026-04-11T11:01:42.984Z</time></trkpt><trkpt lat="41.6964033" lon="2.3420833"><ele>432.20000000000005</ele><time>2026-04-11T11:01:43.984Z</time></trkpt><trkpt lat="41.6963567" lon="2.3419583"><ele>432.79999999999995</ele><time>2026-04-11T11:01:44.984Z</time></trkpt><trkpt lat="41.69631" lon="2.3418383"><ele>433.4</ele><time>2026-04-11T11:01:45.984Z</time></trkpt><trkpt lat="41.6962733" lon="2.3417133"><ele>434.0</ele><time>2026-04-11T11:01:46.984Z</time></trkpt><trkpt lat="41.6962533" lon="2.3416117"><ele>434.0</ele><time>2026-04-11T11:01:47.984Z</time></trkpt><trkpt lat="41.69625" lon="2.341505"><ele>434.0</ele><time>2026-04-11T11:01:48.984Z</time></trkpt><trkpt lat="41.6962583" lon="2.3414017"><ele>434.0</ele><time>2026-04-11T11:01:49.984Z</time></trkpt><trkpt lat="41.69625" lon="2.341305"><ele>434.0</ele><time>2026-04-11T11:01:50.984Z</time></trkpt><trkpt lat="41.6962183" lon="2.3412217"><ele>434.0</ele><time>2026-04-11T11:01:51.984Z</time></trkpt><trkpt lat="41.69616" lon="2.3411767"><ele>434.0</ele><time>2026-04-11T11:01:52.984Z</time></trkpt><trkpt lat="41.69608" lon="2.3411717"><ele>434.0</ele><time>2026-04-11T11:01:53.983Z</time></trkpt><trkpt lat="41.69598" lon="2.3411967"><ele>430.75</ele><time>2026-04-11T11:01:54.983Z</time></trkpt><trkpt lat="41.695855" lon="2.3412383"><ele>427.5</ele><time>2026-04-11T11:01:55.983Z</time></trkpt><trkpt lat="41.6957133" lon="2.3413"><ele>424.25</ele><time>2026-04-11T11:01:56.983Z</time></trkpt><trkpt lat="41.6955617" lon="2.34137"><ele>421.0</ele><time>2026-04-11T11:01:57.983Z</time></trkpt><trkpt lat="41.6954033" lon="2.341445"><ele>418.0</ele><time>2026-04-11T11:01:58.983Z</time></trkpt><trkpt lat="41.6952383" lon="2.3415133"><ele>415.0</ele><time>2026-04-11T11:01:59.983Z</time></trkpt><trkpt lat="41.6950817" lon="2.3415867"><ele>412.0</ele><time>2026-04-11T11:02:00.983Z</time></trkpt><trkpt lat="41.694925" lon="2.34164"><ele>412.0</ele><time>2026-04-11T11:02:01.983Z</time></trkpt><trkpt lat="41.6947683" lon="2.341665"><ele>412.0</ele><time>2026-04-11T11:02:02.983Z</time></trkpt><trkpt lat="41.694605" lon="2.3416167"><ele>412.0</ele><time>2026-04-11T11:02:03.983Z</time></trkpt><trkpt lat="41.6944183" lon="2.3415483"><ele>408.33333333333337</ele><time>2026-04-11T11:02:04.983Z</time></trkpt><trkpt lat="41.6942383" lon="2.34147"><ele>404.66666666666663</ele><time>2026-04-11T11:02:05.983Z</time></trkpt><trkpt lat="41.6940517" lon="2.3413833"><ele>401.0</ele><time>2026-04-11T11:02:06.984Z</time></trkpt><trkpt lat="41.6938583" lon="2.3413067"><ele>400.66666666666663</ele><time>2026-04-11T11:02:07.983Z</time></trkpt><trkpt lat="41.6936733" lon="2.3412517"><ele>400.33333333333337</ele><time>2026-04-11T11:02:08.983Z</time></trkpt><trkpt lat="41.693485" lon="2.3411833"><ele>400.0</ele><time>2026-04-11T11:02:09.983Z</time></trkpt><trkpt lat="41.6932883" lon="2.3411267"><ele>398.6666666666667</ele><time>2026-04-11T11:02:10.983Z</time></trkpt><trkpt lat="41.6930933" lon="2.3410583"><ele>397.33333333333337</ele><time>2026-04-11T11:02:11.983Z</time></trkpt><trkpt lat="41.6929117" lon="2.341"><ele>396.0</ele><time>2026-04-11T11:02:12.983Z</time></trkpt><trkpt lat="41.6927267" lon="2.3409417"><ele>394.33333333333337</ele><time>2026-04-11T11:02:13.983Z</time></trkpt><trkpt lat="41.6925333" lon="2.3408767"><ele>392.6666666666667</ele><time>2026-04-11T11:02:14.984Z</time></trkpt><trkpt lat="41.69233" lon="2.3407883"><ele>391.0</ele><time>2026-04-11T11:02:15.983Z</time></trkpt><trkpt lat="41.6921367" lon="2.3407183"><ele>391.0</ele><time>2026-04-11T11:02:16.983Z</time></trkpt><trkpt lat="41.6919433" lon="2.3406467"><ele>391.0</ele><time>2026-04-11T11:02:17.983Z</time></trkpt><trkpt lat="41.6917433" lon="2.3405783"><ele>391.0</ele><time>2026-04-11T11:02:18.983Z</time></trkpt><trkpt lat="41.6915433" lon="2.3405133"><ele>388.33333333333337</ele><time>2026-04-11T11:02:19.983Z</time></trkpt><trkpt lat="41.6913433" lon="2.3404417"><ele>385.6666666666667</ele><time>2026-04-11T11:02:20.984Z</time></trkpt><trkpt lat="41.6911383" lon="2.3403667"><ele>383.0</ele><time>2026-04-11T11:02:21.983Z</time></trkpt><trkpt lat="41.6909367" lon="2.34029"><ele>381.6666666666667</ele><time>2026-04-11T11:02:22.983Z</time></trkpt><trkpt lat="41.6907467" lon="2.34022"><ele>380.3333333333333</ele><time>2026-04-11T11:02:23.983Z</time></trkpt><trkpt lat="41.6905683" lon="2.3401533"><ele>379.0</ele><time>2026-04-11T11:02:24.983Z</time></trkpt><trkpt lat="41.6903917" lon="2.3400867"><ele>377.3333333333333</ele><time>2026-04-11T11:02:25.983Z</time></trkpt><trkpt lat="41.6902117" lon="2.3400133"><ele>375.6666666666667</ele><time>2026-04-11T11:02:26.983Z</time></trkpt><trkpt lat="41.69003" lon="2.3399267"><ele>374.0</ele><time>2026-04-11T11:02:27.983Z</time></trkpt><trkpt lat="41.6898533" lon="2.3398283"><ele>374.0</ele><time>2026-04-11T11:02:28.983Z</time></trkpt><trkpt lat="41.689695" lon="2.3397183"><ele>374.0</ele><time>2026-04-11T11:02:29.983Z</time></trkpt><trkpt lat="41.6895533" lon="2.3395983"><ele>374.0</ele><time>2026-04-11T11:02:30.983Z</time></trkpt><trkpt lat="41.6894217" lon="2.3394633"><ele>372.6666666666667</ele><time>2026-04-11T11:02:31.983Z</time></trkpt><trkpt lat="41.6892917" lon="2.3393333"><ele>371.3333333333333</ele><time>2026-04-11T11:02:32.983Z</time></trkpt><trkpt lat="41.68917" lon="2.3392133"><ele>370.0</ele><time>2026-04-11T11:02:33.983Z</time></trkpt><trkpt lat="41.689055" lon="2.3390983"><ele>370.0</ele><time>2026-04-11T11:02:34.983Z</time></trkpt><trkpt lat="41.6889517" lon="2.338995"><ele>370.0</ele><time>2026-04-11T11:02:35.983Z</time></trkpt><trkpt lat="41.68886" lon="2.3389033"><ele>370.0</ele><time>2026-04-11T11:02:36.983Z</time></trkpt><trkpt lat="41.6887867" lon="2.338825"><ele>370.0</ele><time>2026-04-11T11:02:37.983Z</time></trkpt><trkpt lat="41.6887267" lon="2.338755"><ele>370.0</ele><time>2026-04-11T11:02:38.983Z</time></trkpt><trkpt lat="41.6886667" lon="2.33871"><ele>369.4</ele><time>2026-04-11T11:02:39.983Z</time></trkpt><trkpt lat="41.6885883" lon="2.338755"><ele>368.8</ele><time>2026-04-11T11:02:41.983Z</time></trkpt><trkpt lat="41.6885433" lon="2.3388417"><ele>368.20000000000005</ele><time>2026-04-11T11:02:42.983Z</time></trkpt><trkpt lat="41.6884817" lon="2.3389633"><ele>367.6</ele><time>2026-04-11T11:02:43.983Z</time></trkpt><trkpt lat="41.68841" lon="2.3391233"><ele>367.0</ele><time>2026-04-11T11:02:44.983Z</time></trkpt><trkpt lat="41.6883417" lon="2.3392967"><ele>366.75</ele><time>2026-04-11T11:02:45.983Z</time></trkpt><trkpt lat="41.6882683" lon="2.3394633"><ele>366.5</ele><time>2026-04-11T11:02:46.983Z</time></trkpt><trkpt lat="41.6882" lon="2.3396167"><ele>366.25</ele><time>2026-04-11T11:02:47.983Z</time></trkpt><trkpt lat="41.6881483" lon="2.3397567"><ele>366.0</ele><time>2026-04-11T11:02:48.983Z</time></trkpt><trkpt lat="41.6880833" lon="2.3398567"><ele>365.75</ele><time>2026-04-11T11:02:49.983Z</time></trkpt><trkpt lat="41.6880033" lon="2.3399383"><ele>365.5</ele><time>2026-04-11T11:02:50.983Z</time></trkpt><trkpt lat="41.6878933" lon="2.3399933"><ele>365.25</ele><time>2026-04-11T11:02:51.983Z</time></trkpt><trkpt lat="41.6877567" lon="2.3400133"><ele>365.0</ele><time>2026-04-11T11:02:52.983Z</time></trkpt><trkpt lat="41.6876033" lon="2.3400233"><ele>363.5</ele><time>2026-04-11T11:02:53.983Z</time></trkpt><trkpt lat="41.687465" lon="2.3400183"><ele>362.0</ele><time>2026-04-11T11:02:54.984Z</time></trkpt><trkpt lat="41.6873217" lon="2.3399717"><ele>360.5</ele><time>2026-04-11T11:02:55.983Z</time></trkpt><trkpt lat="41.6871633" lon="2.3399217"><ele>359.0</ele><time>2026-04-11T11:02:56.983Z</time></trkpt><trkpt lat="41.6869933" lon="2.3398817"><ele>358.0</ele><time>2026-04-11T11:02:57.983Z</time></trkpt><trkpt lat="41.6868183" lon="2.339845"><ele>357.0</ele><time>2026-04-11T11:02:58.983Z</time></trkpt><trkpt lat="41.6866433" lon="2.3397967"><ele>356.0</ele><time>2026-04-11T11:02:59.983Z</time></trkpt><trkpt lat="41.6864967" lon="2.3397433"><ele>356.0</ele><time>2026-04-11T11:03:00.983Z</time></trkpt><trkpt lat="41.6863683" lon="2.33968"><ele>356.0</ele><time>2026-04-11T11:03:01.983Z</time></trkpt><trkpt lat="41.6862533" lon="2.33961"><ele>356.0</ele><time>2026-04-11T11:03:02.983Z</time></trkpt><trkpt lat="41.686135" lon="2.3395517"><ele>356.0</ele><time>2026-04-11T11:03:03.983Z</time></trkpt><trkpt lat="41.686015" lon="2.3395133"><ele>355.25</ele><time>2026-04-11T11:03:04.984Z</time></trkpt><trkpt lat="41.685885" lon="2.3394817"><ele>354.5</ele><time>2026-04-11T11:03:05.983Z</time></trkpt><trkpt lat="41.685735" lon="2.3394483"><ele>353.75</ele><time>2026-04-11T11:03:06.983Z</time></trkpt><trkpt lat="41.6855833" lon="2.3394217"><ele>353.0</ele><time>2026-04-11T11:03:07.983Z</time></trkpt><trkpt lat="41.68545" lon="2.339415"><ele>353.0</ele><time>2026-04-11T11:03:08.983Z</time></trkpt><trkpt lat="41.6853167" lon="2.3394"><ele>353.0</ele><time>2026-04-11T11:03:09.983Z</time></trkpt><trkpt lat="41.6851883" lon="2.3393833"><ele>353.0</ele><time>2026-04-11T11:03:10.983Z</time></trkpt><trkpt lat="41.6850667" lon="2.33937"><ele>353.0</ele><time>2026-04-11T11:03:11.983Z</time></trkpt><trkpt lat="41.6849417" lon="2.3393667"><ele>351.5</ele><time>2026-04-11T11:03:12.983Z</time></trkpt><trkpt lat="41.68481" lon="2.3393617"><ele>350.0</ele><time>2026-04-11T11:03:13.983Z</time></trkpt><trkpt lat="41.6846867" lon="2.3393583"><ele>348.5</ele><time>2026-04-11T11:03:14.983Z</time></trkpt><trkpt lat="41.6845767" lon="2.3393317"><ele>347.0</ele><time>2026-04-11T11:03:15.983Z</time></trkpt><trkpt lat="41.684495" lon="2.3393"><ele>346.14285714285717</ele><time>2026-04-11T11:03:16.983Z</time></trkpt><trkpt lat="41.684425" lon="2.3392517"><ele>345.2857142857143</ele><time>2026-04-11T11:03:17.983Z</time></trkpt><trkpt lat="41.6843717" lon="2.3391833"><ele>344.42857142857144</ele><time>2026-04-11T11:03:18.983Z</time></trkpt><trkpt lat="41.6843317" lon="2.3391117"><ele>343.57142857142856</ele><time>2026-04-11T11:03:19.983Z</time></trkpt><trkpt lat="41.6843417" lon="2.3390217"><ele>342.7142857142857</ele><time>2026-04-11T11:03:20.984Z</time></trkpt><trkpt lat="41.6843717" lon="2.3389333"><ele>341.85714285714283</ele><time>2026-04-11T11:03:21.983Z</time></trkpt><trkpt lat="41.6843967" lon="2.3388467"><ele>341.0</ele><time>2026-04-11T11:03:22.983Z</time></trkpt><trkpt lat="41.6843833" lon="2.3387467"><ele>340.0</ele><time>2026-04-11T11:03:24.983Z</time></trkpt><trkpt lat="41.6842933" lon="2.33876"><ele>339.0</ele><time>2026-04-11T11:03:26.983Z</time></trkpt><trkpt lat="41.6842233" lon="2.338795"><ele>338.0</ele><time>2026-04-11T11:03:27.983Z</time></trkpt><trkpt lat="41.6841267" lon="2.3388083"><ele>337.0</ele><time>2026-04-11T11:03:28.983Z</time></trkpt><trkpt lat="41.6839983" lon="2.3388267"><ele>336.0</ele><time>2026-04-11T11:03:29.983Z</time></trkpt><trkpt lat="41.6838667" lon="2.338835"><ele>336.0</ele><time>2026-04-11T11:03:30.983Z</time></trkpt><trkpt lat="41.6837483" lon="2.3388633"><ele>336.0</ele><time>2026-04-11T11:03:31.983Z</time></trkpt><trkpt lat="41.6836517" lon="2.3388883"><ele>336.0</ele><time>2026-04-11T11:03:32.983Z</time></trkpt><trkpt lat="41.68357" lon="2.3388967"><ele>336.0</ele><time>2026-04-11T11:03:33.983Z</time></trkpt><trkpt lat="41.6835" lon="2.3389133"><ele>336.0</ele><time>2026-04-11T11:03:34.983Z</time></trkpt><trkpt lat="41.6834383" lon="2.3389467"><ele>336.0</ele><time>2026-04-11T11:03:35.984Z</time></trkpt><trkpt lat="41.68336" lon="2.3390683"><ele>335.0</ele><time>2026-04-11T11:03:37.983Z</time></trkpt><trkpt lat="41.6833033" lon="2.3392083"><ele>334.0</ele><time>2026-04-11T11:03:39.983Z</time></trkpt><trkpt lat="41.6832283" lon="2.3393167"><ele>333.0</ele><time>2026-04-11T11:03:41.983Z</time></trkpt><trkpt lat="41.6831383" lon="2.3393883"><ele>332.0</ele><time>2026-04-11T11:03:43.983Z</time></trkpt><trkpt lat="41.683015" lon="2.33937"><ele>332.0</ele><time>2026-04-11T11:03:45.983Z</time></trkpt><trkpt lat="41.6829017" lon="2.3393083"><ele>332.0</ele><time>2026-04-11T11:03:47.983Z</time></trkpt><trkpt lat="41.6828017" lon="2.3392033"><ele>332.0</ele><time>2026-04-11T11:03:49.984Z</time></trkpt><trkpt lat="41.6827533" lon="2.339145"><ele>332.0</ele><time>2026-04-11T11:03:50.983Z</time></trkpt><trkpt lat="41.6826917" lon="2.3390617"><ele>332.0</ele><time>2026-04-11T11:03:51.983Z</time></trkpt><trkpt lat="41.68263" lon="2.3389933"><ele>329.5</ele><time>2026-04-11T11:03:52.983Z</time></trkpt><trkpt lat="41.6825067" lon="2.3389183"><ele>327.0</ele><time>2026-04-11T11:03:54.983Z</time></trkpt><trkpt lat="41.6824067" lon="2.338925"><ele>324.5</ele><time>2026-04-11T11:03:56.983Z</time></trkpt><trkpt lat="41.6822933" lon="2.3389567"><ele>322.0</ele><time>2026-04-11T11:03:58.983Z</time></trkpt><trkpt lat="41.6821583" lon="2.3389017"><ele>323.6</ele><time>2026-04-11T11:04:00.983Z</time></trkpt><trkpt lat="41.6820683" lon="2.33885"><ele>325.20000000000005</ele><time>2026-04-11T11:04:01.984Z</time></trkpt><trkpt lat="41.6819833" lon="2.338825"><ele>326.8</ele><time>2026-04-11T11:04:02.983Z</time></trkpt><trkpt lat="41.68187" lon="2.3388133"><ele>328.4</ele><time>2026-04-11T11:04:03.983Z</time></trkpt><trkpt lat="41.6817567" lon="2.3387917"><ele>330.0</ele><time>2026-04-11T11:04:04.983Z</time></trkpt><trkpt lat="41.6816467" lon="2.33878"><ele>330.0</ele><time>2026-04-11T11:04:05.983Z</time></trkpt><trkpt lat="41.6815417" lon="2.338755"><ele>330.0</ele><time>2026-04-11T11:04:06.983Z</time></trkpt><trkpt lat="41.6814417" lon="2.3387267"><ele>330.0</ele><time>2026-04-11T11:04:07.983Z</time></trkpt><trkpt lat="41.6813483" lon="2.3386833"><ele>330.0</ele><time>2026-04-11T11:04:08.983Z</time></trkpt><trkpt lat="41.6812733" lon="2.338635"><ele>330.0</ele><time>2026-04-11T11:04:09.983Z</time></trkpt><trkpt lat="41.681205" lon="2.3385917"><ele>330.0</ele><time>2026-04-11T11:04:10.983Z</time></trkpt><trkpt lat="41.681145" lon="2.3385283"><ele>330.0</ele><time>2026-04-11T11:04:11.983Z</time></trkpt><trkpt lat="41.6810867" lon="2.3384567"><ele>330.0</ele><time>2026-04-11T11:04:12.983Z</time></trkpt><trkpt lat="41.6810217" lon="2.33836"><ele>330.0</ele><time>2026-04-11T11:04:13.983Z</time></trkpt><trkpt lat="41.680935" lon="2.3382467"><ele>330.0</ele><time>2026-04-11T11:04:14.983Z</time></trkpt><trkpt lat="41.6808267" lon="2.338145"><ele>329.25</ele><time>2026-04-11T11:04:15.983Z</time></trkpt><trkpt lat="41.680705" lon="2.33805"><ele>328.5</ele><time>2026-04-11T11:04:16.983Z</time></trkpt><trkpt lat="41.68059" lon="2.3379767"><ele>327.75</ele><time>2026-04-11T11:04:17.983Z</time></trkpt><trkpt lat="41.680485" lon="2.3379133"><ele>327.0</ele><time>2026-04-11T11:04:18.983Z</time></trkpt><trkpt lat="41.680385" lon="2.3378367"><ele>327.0</ele><time>2026-04-11T11:04:19.983Z</time></trkpt><trkpt lat="41.680285" lon="2.3377317"><ele>327.0</ele><time>2026-04-11T11:04:20.983Z</time></trkpt><trkpt lat="41.6801933" lon="2.337625"><ele>327.0</ele><time>2026-04-11T11:04:21.983Z</time></trkpt><trkpt lat="41.6801133" lon="2.337525"><ele>327.0</ele><time>2026-04-11T11:04:22.983Z</time></trkpt><trkpt lat="41.680025" lon="2.337395"><ele>326.25</ele><time>2026-04-11T11:04:23.983Z</time></trkpt><trkpt lat="41.6799283" lon="2.337285"><ele>325.5</ele><time>2026-04-11T11:04:24.983Z</time></trkpt><trkpt lat="41.6798333" lon="2.3371733"><ele>324.75</ele><time>2026-04-11T11:04:25.983Z</time></trkpt><trkpt lat="41.67974" lon="2.3370467"><ele>324.0</ele><time>2026-04-11T11:04:26.983Z</time></trkpt><trkpt lat="41.6796517" lon="2.3369233"><ele>324.0</ele><time>2026-04-11T11:04:27.983Z</time></trkpt><trkpt lat="41.679565" lon="2.3368167"><ele>324.0</ele><time>2026-04-11T11:04:28.983Z</time></trkpt><trkpt lat="41.6794783" lon="2.3367117"><ele>324.0</ele><time>2026-04-11T11:04:29.983Z</time></trkpt><trkpt lat="41.67939" lon="2.3366117"><ele>324.0</ele><time>2026-04-11T11:04:30.983Z</time></trkpt><trkpt lat="41.679325" lon="2.336525"><ele>324.0</ele><time>2026-04-11T11:04:31.983Z</time></trkpt><trkpt lat="41.6792683" lon="2.3364433"><ele>321.59999999999997</ele><time>2026-04-11T11:04:32.983Z</time></trkpt><trkpt lat="41.6791817" lon="2.3363917"><ele>319.2</ele><time>2026-04-11T11:04:34.983Z</time></trkpt><trkpt lat="41.679165" lon="2.33653"><ele>316.79999999999995</ele><time>2026-04-11T11:04:38.983Z</time></trkpt><trkpt lat="41.6791833" lon="2.3366117"><ele>314.4</ele><time>2026-04-11T11:04:39.983Z</time></trkpt><trkpt lat="41.67921" lon="2.3367833"><ele>312.0</ele><time>2026-04-11T11:04:41.983Z</time></trkpt><trkpt lat="41.67922" lon="2.3369067"><ele>312.0</ele><time>2026-04-11T11:04:42.983Z</time></trkpt><trkpt lat="41.6792283" lon="2.3370517"><ele>312.0</ele><time>2026-04-11T11:04:43.983Z</time></trkpt><trkpt lat="41.6792433" lon="2.3372083"><ele>312.0</ele><time>2026-04-11T11:04:44.983Z</time></trkpt><trkpt lat="41.679265" lon="2.3373783"><ele>312.0</ele><time>2026-04-11T11:04:45.983Z</time></trkpt><trkpt lat="41.679295" lon="2.337575"><ele>315.3333333333333</ele><time>2026-04-11T11:04:46.983Z</time></trkpt><trkpt lat="41.6793467" lon="2.3377817"><ele>318.66666666666663</ele><time>2026-04-11T11:04:47.983Z</time></trkpt><trkpt lat="41.67942" lon="2.337965"><ele>322.0</ele><time>2026-04-11T11:04:48.983Z</time></trkpt><trkpt lat="41.6795067" lon="2.3381517"><ele>322.0</ele><time>2026-04-11T11:04:49.983Z</time></trkpt><trkpt lat="41.6796067" lon="2.3383167"><ele>322.0</ele><time>2026-04-11T11:04:50.983Z</time></trkpt><trkpt lat="41.6797" lon="2.3384867"><ele>322.0</ele><time>2026-04-11T11:04:51.983Z</time></trkpt><trkpt lat="41.6797933" lon="2.33866"><ele>322.0</ele><time>2026-04-11T11:04:52.983Z</time></trkpt><trkpt lat="41.679885" lon="2.33884"><ele>322.0</ele><time>2026-04-11T11:04:53.983Z</time></trkpt><trkpt lat="41.679965" lon="2.338995"><ele>322.0</ele><time>2026-04-11T11:04:54.983Z</time></trkpt><trkpt lat="41.68007" lon="2.3391217"><ele>322.0</ele><time>2026-04-11T11:04:55.983Z</time></trkpt><trkpt lat="41.6801833" lon="2.3392317"><ele>322.20000000000005</ele><time>2026-04-11T11:04:56.983Z</time></trkpt><trkpt lat="41.680285" lon="2.3393317"><ele>322.4</ele><time>2026-04-11T11:04:57.983Z</time></trkpt><trkpt lat="41.6803733" lon="2.3394467"><ele>322.6</ele><time>2026-04-11T11:04:58.983Z</time></trkpt><trkpt lat="41.6804033" lon="2.339575"><ele>322.79999999999995</ele><time>2026-04-11T11:04:59.983Z</time></trkpt><trkpt lat="41.680435" lon="2.3396617"><ele>323.0</ele><time>2026-04-11T11:05:00.983Z</time></trkpt><trkpt lat="41.6804233" lon="2.3397467"><ele>326.0</ele><time>2026-04-11T11:05:01.983Z</time></trkpt><trkpt lat="41.6803417" lon="2.3397983"><ele>329.0</ele><time>2026-04-11T11:05:03.983Z</time></trkpt><trkpt lat="41.6802133" lon="2.3397717"><ele>332.0</ele><time>2026-04-11T11:05:05.983Z</time></trkpt><trkpt lat="41.68013" lon="2.339715"><ele>335.0</ele><time>2026-04-11T11:05:06.983Z</time></trkpt><trkpt lat="41.6800367" lon="2.339655"><ele>338.0</ele><time>2026-04-11T11:05:07.983Z</time></trkpt><trkpt lat="41.679925" lon="2.3396017"><ele>338.5</ele><time>2026-04-11T11:05:08.983Z</time></trkpt><trkpt lat="41.679815" lon="2.3395317"><ele>339.0</ele><time>2026-04-11T11:05:09.983Z</time></trkpt><trkpt lat="41.6797267" lon="2.3394267"><ele>339.5</ele><time>2026-04-11T11:05:10.983Z</time></trkpt><trkpt lat="41.6796467" lon="2.339275"><ele>340.0</ele><time>2026-04-11T11:05:11.984Z</time></trkpt><trkpt lat="41.6795617" lon="2.33914"><ele>340.0</ele><time>2026-04-11T11:05:12.984Z</time></trkpt><trkpt lat="41.679475" lon="2.33903"><ele>340.0</ele><time>2026-04-11T11:05:13.983Z</time></trkpt><trkpt lat="41.6793633" lon="2.3389717"><ele>340.0</ele><time>2026-04-11T11:05:14.983Z</time></trkpt><trkpt lat="41.6792433" lon="2.33894"><ele>340.0</ele><time>2026-04-11T11:05:15.983Z</time></trkpt><trkpt lat="41.679135" lon="2.33895"><ele>344.0</ele><time>2026-04-11T11:05:16.983Z</time></trkpt><trkpt lat="41.6790217" lon="2.3389933"><ele>348.0</ele><time>2026-04-11T11:05:17.983Z</time></trkpt><trkpt lat="41.6789" lon="2.3390683"><ele>352.0</ele><time>2026-04-11T11:05:18.983Z</time></trkpt><trkpt lat="41.67878" lon="2.3391317"><ele>356.0</ele><time>2026-04-11T11:05:19.984Z</time></trkpt><trkpt lat="41.678665" lon="2.3391833"><ele>355.5</ele><time>2026-04-11T11:05:20.983Z</time></trkpt><trkpt lat="41.6785317" lon="2.3391617"><ele>355.0</ele><time>2026-04-11T11:05:21.984Z</time></trkpt><trkpt lat="41.6784133" lon="2.3391367"><ele>354.5</ele><time>2026-04-11T11:05:22.983Z</time></trkpt><trkpt lat="41.678255" lon="2.3390633"><ele>354.0</ele><time>2026-04-11T11:05:23.983Z</time></trkpt><trkpt lat="41.678095" lon="2.3389717"><ele>351.6666666666667</ele><time>2026-04-11T11:05:24.983Z</time></trkpt><trkpt lat="41.6779383" lon="2.3388767"><ele>349.33333333333337</ele><time>2026-04-11T11:05:25.983Z</time></trkpt><trkpt lat="41.6777883" lon="2.33878"><ele>347.0</ele><time>2026-04-11T11:05:26.983Z</time></trkpt><trkpt lat="41.677635" lon="2.338685"><ele>346.75</ele><time>2026-04-11T11:05:27.983Z</time></trkpt><trkpt lat="41.677495" lon="2.3385817"><ele>346.5</ele><time>2026-04-11T11:05:28.983Z</time></trkpt><trkpt lat="41.677365" lon="2.338495"><ele>346.25</ele><time>2026-04-11T11:05:29.983Z</time></trkpt><trkpt lat="41.67726" lon="2.33841"><ele>346.0</ele><time>2026-04-11T11:05:30.983Z</time></trkpt><trkpt lat="41.6771833" lon="2.3383333"><ele>346.0</ele><time>2026-04-11T11:05:31.983Z</time></trkpt><trkpt lat="41.6771283" lon="2.338275"><ele>346.0</ele><time>2026-04-11T11:05:32.983Z</time></trkpt><trkpt lat="41.6771017" lon="2.338175"><ele>346.0</ele><time>2026-04-11T11:05:34.984Z</time></trkpt><trkpt lat="41.6771583" lon="2.3380167"><ele>346.0</ele><time>2026-04-11T11:05:36.983Z</time></trkpt><trkpt lat="41.6771717" lon="2.3379217"><ele>346.0</ele><time>2026-04-11T11:05:37.983Z</time></trkpt><trkpt lat="41.677185" lon="2.3378167"><ele>346.0</ele><time>2026-04-11T11:05:38.983Z</time></trkpt><trkpt lat="41.6771767" lon="2.3377183"><ele>345.6</ele><time>2026-04-11T11:05:39.983Z</time></trkpt><trkpt lat="41.6771433" lon="2.3376217"><ele>345.20000000000005</ele><time>2026-04-11T11:05:40.983Z</time></trkpt><trkpt lat="41.6770867" lon="2.3375517"><ele>344.79999999999995</ele><time>2026-04-11T11:05:41.983Z</time></trkpt><trkpt lat="41.6769967" lon="2.33749"><ele>344.4</ele><time>2026-04-11T11:05:42.984Z</time></trkpt><trkpt lat="41.67688" lon="2.337445"><ele>344.0</ele><time>2026-04-11T11:05:43.984Z</time></trkpt><trkpt lat="41.6767583" lon="2.337405"><ele>344.0</ele><time>2026-04-11T11:05:44.983Z</time></trkpt><trkpt lat="41.6766517" lon="2.3373483"><ele>344.0</ele><time>2026-04-11T11:05:45.983Z</time></trkpt><trkpt lat="41.6765517" lon="2.33729"><ele>344.0</ele><time>2026-04-11T11:05:46.983Z</time></trkpt><trkpt lat="41.6764767" lon="2.3372033"><ele>344.0</ele><time>2026-04-11T11:05:47.983Z</time></trkpt><trkpt lat="41.676415" lon="2.3370717"><ele>344.0</ele><time>2026-04-11T11:05:48.984Z</time></trkpt><trkpt lat="41.6763567" lon="2.3369267"><ele>343.5</ele><time>2026-04-11T11:05:49.983Z</time></trkpt><trkpt lat="41.6763017" lon="2.3368133"><ele>343.0</ele><time>2026-04-11T11:05:50.983Z</time></trkpt><trkpt lat="41.6762583" lon="2.3367083"><ele>342.5</ele><time>2026-04-11T11:05:51.983Z</time></trkpt><trkpt lat="41.6762183" lon="2.3366183"><ele>342.0</ele><time>2026-04-11T11:05:52.983Z</time></trkpt><trkpt lat="41.67617" lon="2.3365417"><ele>341.5</ele><time>2026-04-11T11:05:53.983Z</time></trkpt><trkpt lat="41.676105" lon="2.33651"><ele>341.0</ele><time>2026-04-11T11:05:54.983Z</time></trkpt><trkpt lat="41.6760383" lon="2.3365217"><ele>340.5</ele><time>2026-04-11T11:05:55.983Z</time></trkpt><trkpt lat="41.67598" lon="2.336565"><ele>340.0</ele><time>2026-04-11T11:05:56.983Z</time></trkpt><trkpt lat="41.6759167" lon="2.33672"><ele>339.5</ele><time>2026-04-11T11:05:57.983Z</time></trkpt><trkpt lat="41.675855" lon="2.33689"><ele>339.0</ele><time>2026-04-11T11:05:58.984Z</time></trkpt><trkpt lat="41.675795" lon="2.3370783"><ele>339.3333333333333</ele><time>2026-04-11T11:05:59.983Z</time></trkpt><trkpt lat="41.675715" lon="2.3373"><ele>339.66666666666663</ele><time>2026-04-11T11:06:00.983Z</time></trkpt><trkpt lat="41.6756333" lon="2.33751"><ele>340.0</ele><time>2026-04-11T11:06:01.983Z</time></trkpt><trkpt lat="41.6755433" lon="2.337715"><ele>340.0</ele><time>2026-04-11T11:06:02.983Z</time></trkpt><trkpt lat="41.6754633" lon="2.337895"><ele>340.0</ele><time>2026-04-11T11:06:03.983Z</time></trkpt><trkpt lat="41.6753983" lon="2.3380567"><ele>340.0</ele><time>2026-04-11T11:06:04.983Z</time></trkpt><trkpt lat="41.67534" lon="2.33817"><ele>340.0</ele><time>2026-04-11T11:06:05.983Z</time></trkpt><trkpt lat="41.675285" lon="2.338255"><ele>340.0</ele><time>2026-04-11T11:06:06.983Z</time></trkpt><trkpt lat="41.6751967" lon="2.3383233"><ele>340.0</ele><time>2026-04-11T11:06:08.983Z</time></trkpt><trkpt lat="41.67513" lon="2.3382917"><ele>340.0</ele><time>2026-04-11T11:06:09.983Z</time></trkpt><trkpt lat="41.675055" lon="2.3382517"><ele>340.0</ele><time>2026-04-11T11:06:10.984Z</time></trkpt><trkpt lat="41.6749467" lon="2.3381383"><ele>340.0</ele><time>2026-04-11T11:06:11.983Z</time></trkpt><trkpt lat="41.674835" lon="2.3380417"><ele>340.0</ele><time>2026-04-11T11:06:12.983Z</time></trkpt><trkpt lat="41.6747167" lon="2.3379167"><ele>340.0</ele><time>2026-04-11T11:06:13.983Z</time></trkpt><trkpt lat="41.6746033" lon="2.3377967"><ele>340.0</ele><time>2026-04-11T11:06:14.983Z</time></trkpt><trkpt lat="41.6744933" lon="2.3376733"><ele>340.0</ele><time>2026-04-11T11:06:15.983Z</time></trkpt><trkpt lat="41.6743717" lon="2.337565"><ele>340.3333333333333</ele><time>2026-04-11T11:06:16.983Z</time></trkpt><trkpt lat="41.6742433" lon="2.3374717"><ele>340.6666666666667</ele><time>2026-04-11T11:06:17.983Z</time></trkpt><trkpt lat="41.6741017" lon="2.3374"><ele>341.0</ele><time>2026-04-11T11:06:18.983Z</time></trkpt><trkpt lat="41.6739417" lon="2.3373217"><ele>341.0</ele><time>2026-04-11T11:06:19.983Z</time></trkpt><trkpt lat="41.6737767" lon="2.33726"><ele>341.0</ele><time>2026-04-11T11:06:20.983Z</time></trkpt><trkpt lat="41.6736017" lon="2.3371767"><ele>341.0</ele><time>2026-04-11T11:06:21.984Z</time></trkpt><trkpt lat="41.6734417" lon="2.3371033"><ele>342.33333333333337</ele><time>2026-04-11T11:06:22.983Z</time></trkpt><trkpt lat="41.6732733" lon="2.3369983"><ele>343.6666666666667</ele><time>2026-04-11T11:06:23.983Z</time></trkpt><trkpt lat="41.6731317" lon="2.3369117"><ele>345.0</ele><time>2026-04-11T11:06:24.983Z</time></trkpt><trkpt lat="41.6729883" lon="2.3368367"><ele>345.0</ele><time>2026-04-11T11:06:25.983Z</time></trkpt><trkpt lat="41.6728433" lon="2.336745"><ele>345.0</ele><time>2026-04-11T11:06:26.983Z</time></trkpt><trkpt lat="41.6727067" lon="2.33665"><ele>345.0</ele><time>2026-04-11T11:06:27.983Z</time></trkpt><trkpt lat="41.6725783" lon="2.3365517"><ele>343.5</ele><time>2026-04-11T11:06:28.983Z</time></trkpt><trkpt lat="41.672455" lon="2.3364517"><ele>342.0</ele><time>2026-04-11T11:06:29.983Z</time></trkpt><trkpt lat="41.672355" lon="2.336345"><ele>340.5</ele><time>2026-04-11T11:06:30.983Z</time></trkpt><trkpt lat="41.672285" lon="2.3362333"><ele>339.0</ele><time>2026-04-11T11:06:31.983Z</time></trkpt><trkpt lat="41.67223" lon="2.33612"><ele>339.0</ele><time>2026-04-11T11:06:32.983Z</time></trkpt><trkpt lat="41.6721817" lon="2.3359833"><ele>339.0</ele><time>2026-04-11T11:06:33.983Z</time></trkpt><trkpt lat="41.67212" lon="2.3358367"><ele>339.0</ele><time>2026-04-11T11:06:34.983Z</time></trkpt><trkpt lat="41.6720467" lon="2.3356767"><ele>339.0</ele><time>2026-04-11T11:06:35.983Z</time></trkpt><trkpt lat="41.6719533" lon="2.3355383"><ele>335.25</ele><time>2026-04-11T11:06:36.983Z</time></trkpt><trkpt lat="41.671835" lon="2.3354183"><ele>331.5</ele><time>2026-04-11T11:06:37.984Z</time></trkpt><trkpt lat="41.6717117" lon="2.335285"><ele>327.75</ele><time>2026-04-11T11:06:38.983Z</time></trkpt><trkpt lat="41.6716017" lon="2.3351817"><ele>324.0</ele><time>2026-04-11T11:06:39.983Z</time></trkpt><trkpt lat="41.6715" lon="2.3350783"><ele>324.0</ele><time>2026-04-11T11:06:40.983Z</time></trkpt><trkpt lat="41.6713917" lon="2.3349583"><ele>324.0</ele><time>2026-04-11T11:06:41.984Z</time></trkpt><trkpt lat="41.6712767" lon="2.33483"><ele>324.0</ele><time>2026-04-11T11:06:42.983Z</time></trkpt><trkpt lat="41.6711667" lon="2.3347083"><ele>324.0</ele><time>2026-04-11T11:06:43.983Z</time></trkpt><trkpt lat="41.6710567" lon="2.33458"><ele>320.0</ele><time>2026-04-11T11:06:44.983Z</time></trkpt><trkpt lat="41.67094" lon="2.3344417"><ele>316.0</ele><time>2026-04-11T11:06:45.983Z</time></trkpt><trkpt lat="41.6708217" lon="2.3343067"><ele>312.0</ele><time>2026-04-11T11:06:46.983Z</time></trkpt><trkpt lat="41.6706767" lon="2.3341483"><ele>312.0</ele><time>2026-04-11T11:06:47.983Z</time></trkpt><trkpt lat="41.67055" lon="2.333975"><ele>312.0</ele><time>2026-04-11T11:06:48.983Z</time></trkpt><trkpt lat="41.6704433" lon="2.3338167"><ele>312.0</ele><time>2026-04-11T11:06:49.983Z</time></trkpt><trkpt lat="41.6703517" lon="2.33365"><ele>311.6666666666667</ele><time>2026-04-11T11:06:50.983Z</time></trkpt><trkpt lat="41.670275" lon="2.33347"><ele>311.33333333333337</ele><time>2026-04-11T11:06:51.983Z</time></trkpt><trkpt lat="41.6702133" lon="2.3332767"><ele>311.0</ele><time>2026-04-11T11:06:52.983Z</time></trkpt><trkpt lat="41.67017" lon="2.3330783"><ele>305.6666666666667</ele><time>2026-04-11T11:06:53.983Z</time></trkpt><trkpt lat="41.6701333" lon="2.3328783"><ele>300.3333333333333</ele><time>2026-04-11T11:06:54.983Z</time></trkpt><trkpt lat="41.6700983" lon="2.3326717"><ele>295.0</ele><time>2026-04-11T11:06:55.983Z</time></trkpt><trkpt lat="41.670075" lon="2.3324817"><ele>295.0</ele><time>2026-04-11T11:06:56.983Z</time></trkpt><trkpt lat="41.670055" lon="2.3322883"><ele>295.0</ele><time>2026-04-11T11:06:57.983Z</time></trkpt><trkpt lat="41.6700517" lon="2.3321067"><ele>295.0</ele><time>2026-04-11T11:06:58.983Z</time></trkpt><trkpt lat="41.6700317" lon="2.3319133"><ele>295.0</ele><time>2026-04-11T11:06:59.983Z</time></trkpt><trkpt lat="41.6699967" lon="2.33176"><ele>293.5</ele><time>2026-04-11T11:07:00.983Z</time></trkpt><trkpt lat="41.6699117" lon="2.3316133"><ele>292.0</ele><time>2026-04-11T11:07:01.983Z</time></trkpt><trkpt lat="41.669805" lon="2.3314917"><ele>290.5</ele><time>2026-04-11T11:07:02.983Z</time></trkpt><trkpt lat="41.6696833" lon="2.3314"><ele>289.0</ele><time>2026-04-11T11:07:03.983Z</time></trkpt><trkpt lat="41.6695383" lon="2.3313067"><ele>285.0</ele><time>2026-04-11T11:07:04.983Z</time></trkpt><trkpt lat="41.6693833" lon="2.3312283"><ele>281.0</ele><time>2026-04-11T11:07:05.983Z</time></trkpt><trkpt lat="41.6692217" lon="2.33115"><ele>277.0</ele><time>2026-04-11T11:07:06.983Z</time></trkpt><trkpt lat="41.669065" lon="2.3310817"><ele>277.0</ele><time>2026-04-11T11:07:07.983Z</time></trkpt><trkpt lat="41.6688933" lon="2.33101"><ele>277.0</ele><time>2026-04-11T11:07:08.983Z</time></trkpt><trkpt lat="41.66872" lon="2.3309583"><ele>277.0</ele><time>2026-04-11T11:07:09.983Z</time></trkpt><trkpt lat="41.6685417" lon="2.3309383"><ele>277.3333333333333</ele><time>2026-04-11T11:07:10.983Z</time></trkpt><trkpt lat="41.6683733" lon="2.330965"><ele>277.6666666666667</ele><time>2026-04-11T11:07:11.983Z</time></trkpt><trkpt lat="41.668205" lon="2.3310033"><ele>278.0</ele><time>2026-04-11T11:07:12.983Z</time></trkpt><trkpt lat="41.6680383" lon="2.3310167"><ele>278.0</ele><time>2026-04-11T11:07:13.984Z</time></trkpt><trkpt lat="41.667865" lon="2.33098"><ele>278.0</ele><time>2026-04-11T11:07:14.983Z</time></trkpt><trkpt lat="41.6677033" lon="2.3309183"><ele>278.0</ele><time>2026-04-11T11:07:15.983Z</time></trkpt><trkpt lat="41.667565" lon="2.330825"><ele>277.6666666666667</ele><time>2026-04-11T11:07:16.983Z</time></trkpt><trkpt lat="41.6674467" lon="2.3307083"><ele>277.3333333333333</ele><time>2026-04-11T11:07:17.983Z</time></trkpt><trkpt lat="41.6673567" lon="2.3305383"><ele>277.0</ele><time>2026-04-11T11:07:18.983Z</time></trkpt><trkpt lat="41.6672783" lon="2.3303617"><ele>276.4</ele><time>2026-04-11T11:07:19.983Z</time></trkpt><trkpt lat="41.6672" lon="2.33021"><ele>275.79999999999995</ele><time>2026-04-11T11:07:20.983Z</time></trkpt><trkpt lat="41.6671333" lon="2.330075"><ele>275.2</ele><time>2026-04-11T11:07:21.983Z</time></trkpt><trkpt lat="41.6670767" lon="2.329975"><ele>274.59999999999997</ele><time>2026-04-11T11:07:22.983Z</time></trkpt><trkpt lat="41.6670317" lon="2.3298933"><ele>274.0</ele><time>2026-04-11T11:07:23.983Z</time></trkpt><trkpt lat="41.666975" lon="2.3298"><ele>274.0</ele><time>2026-04-11T11:07:25.983Z</time></trkpt><trkpt lat="41.667" lon="2.329915"><ele>274.0</ele><time>2026-04-11T11:07:31.983Z</time></trkpt><trkpt lat="41.6670583" lon="2.329975"><ele>274.0</ele><time>2026-04-11T11:07:32.983Z</time></trkpt><trkpt lat="41.667125" lon="2.330055"><ele>274.0</ele><time>2026-04-11T11:07:33.983Z</time></trkpt><trkpt lat="41.6671933" lon="2.3301567"><ele>274.0</ele><time>2026-04-11T11:07:34.983Z</time></trkpt><trkpt lat="41.6672667" lon="2.3302917"><ele>274.0</ele><time>2026-04-11T11:07:35.983Z</time></trkpt><trkpt lat="41.6673383" lon="2.3304283"><ele>274.0</ele><time>2026-04-11T11:07:36.983Z</time></trkpt><trkpt lat="41.6674033" lon="2.3305367"><ele>274.0</ele><time>2026-04-11T11:07:37.983Z</time></trkpt><trkpt lat="41.6674483" lon="2.3306183"><ele>274.0</ele><time>2026-04-11T11:07:38.983Z</time></trkpt><trkpt lat="41.6674467" lon="2.3307467"><ele>274.0</ele><time>2026-04-11T11:07:40.983Z</time></trkpt><trkpt lat="41.6673933" lon="2.3308"><ele>274.0</ele><time>2026-04-11T11:07:41.983Z</time></trkpt><trkpt lat="41.6673117" lon="2.3308483"><ele>274.0</ele><time>2026-04-11T11:07:42.983Z</time></trkpt><trkpt lat="41.6671967" lon="2.3308767"><ele>274.0</ele><time>2026-04-11T11:07:43.983Z</time></trkpt><trkpt lat="41.6670917" lon="2.3308967"><ele>274.0</ele><time>2026-04-11T11:07:44.983Z</time></trkpt><trkpt lat="41.6669617" lon="2.3308667"><ele>274.0</ele><time>2026-04-11T11:07:45.983Z</time></trkpt><trkpt lat="41.6668383" lon="2.3308267"><ele>274.0</ele><time>2026-04-11T11:07:46.983Z</time></trkpt><trkpt lat="41.6667083" lon="2.3307883"><ele>274.0</ele><time>2026-04-11T11:07:47.983Z</time></trkpt><trkpt lat="41.66659" lon="2.33081"><ele>274.0</ele><time>2026-04-11T11:07:48.983Z</time></trkpt><trkpt lat="41.6664983" lon="2.3308733"><ele>274.0</ele><time>2026-04-11T11:07:49.983Z</time></trkpt><trkpt lat="41.6664333" lon="2.3309533"><ele>274.0</ele><time>2026-04-11T11:07:50.983Z</time></trkpt><trkpt lat="41.6663933" lon="2.3310383"><ele>274.0</ele><time>2026-04-11T11:07:51.983Z</time></trkpt><trkpt lat="41.66637" lon="2.331155"><ele>274.0</ele><time>2026-04-11T11:07:52.983Z</time></trkpt><trkpt lat="41.6663633" lon="2.3312617"><ele>274.0</ele><time>2026-04-11T11:07:53.983Z</time></trkpt><trkpt lat="41.66636" lon="2.331365"><ele>274.0</ele><time>2026-04-11T11:07:54.983Z</time></trkpt><trkpt lat="41.6663683" lon="2.3315133"><ele>274.0</ele><time>2026-04-11T11:07:56.984Z</time></trkpt><trkpt lat="41.666335" lon="2.331615"><ele>274.0</ele><time>2026-04-11T11:07:58.983Z</time></trkpt><trkpt lat="41.666285" lon="2.331695"><ele>274.0</ele><time>2026-04-11T11:08:00.983Z</time></trkpt><trkpt lat="41.6662533" lon="2.33178"><ele>274.0</ele><time>2026-04-11T11:08:02.983Z</time></trkpt><trkpt lat="41.6663083" lon="2.3316467"><ele>274.0</ele><time>2026-04-11T11:08:09.983Z</time></trkpt><trkpt lat="41.6663467" lon="2.3315383"><ele>274.0</ele><time>2026-04-11T11:08:10.983Z</time></trkpt><trkpt lat="41.66637" lon="2.33142"><ele>274.0</ele><time>2026-04-11T11:08:11.983Z</time></trkpt><trkpt lat="41.66638" lon="2.331305"><ele>274.0</ele><time>2026-04-11T11:08:12.983Z</time></trkpt><trkpt lat="41.6663117" lon="2.3311883"><ele>274.0</ele><time>2026-04-11T11:08:14.983Z</time></trkpt><trkpt lat="41.666185" lon="2.3311567"><ele>274.0</ele><time>2026-04-11T11:08:16.983Z</time></trkpt><trkpt lat="41.6660583" lon="2.3311667"><ele>274.0</ele><time>2026-04-11T11:08:17.983Z</time></trkpt><trkpt lat="41.665945" lon="2.331155"><ele>273.5</ele><time>2026-04-11T11:08:18.983Z</time></trkpt><trkpt lat="41.6658467" lon="2.3311383"><ele>273.0</ele><time>2026-04-11T11:08:19.983Z</time></trkpt><trkpt lat="41.6657383" lon="2.3310933"><ele>272.5</ele><time>2026-04-11T11:08:20.983Z</time></trkpt><trkpt lat="41.6656317" lon="2.331035"><ele>272.0</ele><time>2026-04-11T11:08:21.984Z</time></trkpt><trkpt lat="41.6655217" lon="2.3309567"><ele>272.0</ele><time>2026-04-11T11:08:22.983Z</time></trkpt><trkpt lat="41.66541" lon="2.3308817"><ele>272.0</ele><time>2026-04-11T11:08:23.983Z</time></trkpt><trkpt lat="41.6653083" lon="2.3308483"><ele>272.0</ele><time>2026-04-11T11:08:24.983Z</time></trkpt><trkpt lat="41.6651967" lon="2.330835"><ele>272.0</ele><time>2026-04-11T11:08:25.983Z</time></trkpt><trkpt lat="41.6650817" lon="2.3308383"><ele>271.6666666666667</ele><time>2026-04-11T11:08:26.983Z</time></trkpt><trkpt lat="41.6649817" lon="2.3308583"><ele>271.33333333333337</ele><time>2026-04-11T11:08:27.983Z</time></trkpt><trkpt lat="41.664905" lon="2.3309067"><ele>271.0</ele><time>2026-04-11T11:08:28.983Z</time></trkpt><trkpt lat="41.6648483" lon="2.3309583"><ele>270.6666666666667</ele><time>2026-04-11T11:08:29.983Z</time></trkpt><trkpt lat="41.6648" lon="2.3310383"><ele>270.3333333333333</ele><time>2026-04-11T11:08:30.983Z</time></trkpt><trkpt lat="41.664765" lon="2.331155"><ele>270.0</ele><time>2026-04-11T11:08:31.983Z</time></trkpt><trkpt lat="41.6647183" lon="2.331285"><ele>269.8333333333333</ele><time>2026-04-11T11:08:32.983Z</time></trkpt><trkpt lat="41.6646667" lon="2.3313983"><ele>269.6666666666667</ele><time>2026-04-11T11:08:33.983Z</time></trkpt><trkpt lat="41.6646067" lon="2.33148"><ele>269.5</ele><time>2026-04-11T11:08:34.983Z</time></trkpt><trkpt lat="41.6645417" lon="2.3315367"><ele>269.33333333333337</ele><time>2026-04-11T11:08:35.983Z</time></trkpt><trkpt lat="41.664465" lon="2.3315667"><ele>269.1666666666667</ele><time>2026-04-11T11:08:36.983Z</time></trkpt><trkpt lat="41.6643733" lon="2.3315617"><ele>269.0</ele><time>2026-04-11T11:08:37.984Z</time></trkpt><trkpt lat="41.664255" lon="2.3315117"><ele>268.33333333333337</ele><time>2026-04-11T11:08:38.983Z</time></trkpt><trkpt lat="41.6641117" lon="2.3314467"><ele>267.6666666666667</ele><time>2026-04-11T11:08:39.983Z</time></trkpt><trkpt lat="41.663965" lon="2.33138"><ele>267.0</ele><time>2026-04-11T11:08:40.983Z</time></trkpt><trkpt lat="41.66381" lon="2.3313283"><ele>267.0</ele><time>2026-04-11T11:08:41.983Z</time></trkpt><trkpt lat="41.6636633" lon="2.3312967"><ele>267.0</ele><time>2026-04-11T11:08:42.983Z</time></trkpt><trkpt lat="41.663525" lon="2.3312867"><ele>267.0</ele><time>2026-04-11T11:08:43.983Z</time></trkpt><trkpt lat="41.6633733" lon="2.3312933"><ele>267.0</ele><time>2026-04-11T11:08:44.983Z</time></trkpt><trkpt lat="41.6632317" lon="2.3313117"><ele>266.25</ele><time>2026-04-11T11:08:45.983Z</time></trkpt><trkpt lat="41.6631033" lon="2.3313333"><ele>265.5</ele><time>2026-04-11T11:08:46.983Z</time></trkpt><trkpt lat="41.66299" lon="2.33134"><ele>264.75</ele><time>2026-04-11T11:08:47.983Z</time></trkpt><trkpt lat="41.662885" lon="2.3313317"><ele>264.0</ele><time>2026-04-11T11:08:48.983Z</time></trkpt><trkpt lat="41.662785" lon="2.3313067"><ele>263.75</ele><time>2026-04-11T11:08:49.983Z</time></trkpt><trkpt lat="41.6626817" lon="2.33126"><ele>263.5</ele><time>2026-04-11T11:08:50.983Z</time></trkpt><trkpt lat="41.66258" lon="2.3311967"><ele>263.25</ele><time>2026-04-11T11:08:51.983Z</time></trkpt><trkpt lat="41.6624667" lon="2.3311233"><ele>263.0</ele><time>2026-04-11T11:08:52.983Z</time></trkpt><trkpt lat="41.662355" lon="2.3310617"><ele>263.0</ele><time>2026-04-11T11:08:53.983Z</time></trkpt><trkpt lat="41.6622483" lon="2.3310167"><ele>263.0</ele><time>2026-04-11T11:08:54.983Z</time></trkpt><trkpt lat="41.6621517" lon="2.331"><ele>263.0</ele><time>2026-04-11T11:08:55.983Z</time></trkpt><trkpt lat="41.6620433" lon="2.33101"><ele>263.0</ele><time>2026-04-11T11:08:56.983Z</time></trkpt><trkpt lat="41.66194" lon="2.331045"><ele>263.0</ele><time>2026-04-11T11:08:57.983Z</time></trkpt><trkpt lat="41.6618533" lon="2.3310833"><ele>263.6</ele><time>2026-04-11T11:08:58.983Z</time></trkpt><trkpt lat="41.661785" lon="2.3311017"><ele>264.20000000000005</ele><time>2026-04-11T11:08:59.983Z</time></trkpt><trkpt lat="41.6617117" lon="2.33108"><ele>264.8</ele><time>2026-04-11T11:09:00.983Z</time></trkpt><trkpt lat="41.6616317" lon="2.3309533"><ele>265.40000000000003</ele><time>2026-04-11T11:09:01.983Z</time></trkpt><trkpt lat="41.6615417" lon="2.33084"><ele>266.0</ele><time>2026-04-11T11:09:02.983Z</time></trkpt><trkpt lat="41.6614433" lon="2.3307567"><ele>266.0</ele><time>2026-04-11T11:09:03.983Z</time></trkpt><trkpt lat="41.6613233" lon="2.3306717"><ele>266.0</ele><time>2026-04-11T11:09:04.983Z</time></trkpt><trkpt lat="41.6611883" lon="2.33059"><ele>266.0</ele><time>2026-04-11T11:09:05.983Z</time></trkpt><trkpt lat="41.66104" lon="2.3305333"><ele>266.0</ele><time>2026-04-11T11:09:06.983Z</time></trkpt><trkpt lat="41.660885" lon="2.33049"><ele>265.0</ele><time>2026-04-11T11:09:07.984Z</time></trkpt><trkpt lat="41.6607217" lon="2.3304617"><ele>264.0</ele><time>2026-04-11T11:09:08.983Z</time></trkpt><trkpt lat="41.6605467" lon="2.33046"><ele>263.0</ele><time>2026-04-11T11:09:09.983Z</time></trkpt><trkpt lat="41.660375" lon="2.33047"><ele>265.0</ele><time>2026-04-11T11:09:10.983Z</time></trkpt><trkpt lat="41.6601967" lon="2.3304783"><ele>267.0</ele><time>2026-04-11T11:09:11.983Z</time></trkpt><trkpt lat="41.6600183" lon="2.3304733"><ele>269.0</ele><time>2026-04-11T11:09:12.983Z</time></trkpt><trkpt lat="41.65987" lon="2.3304833"><ele>269.0</ele><time>2026-04-11T11:09:13.983Z</time></trkpt><trkpt lat="41.6597383" lon="2.33049"><ele>269.0</ele><time>2026-04-11T11:09:14.983Z</time></trkpt><trkpt lat="41.6595983" lon="2.3304617"><ele>269.0</ele><time>2026-04-11T11:09:15.983Z</time></trkpt><trkpt lat="41.659465" lon="2.33043"><ele>269.0</ele><time>2026-04-11T11:09:16.984Z</time></trkpt><trkpt lat="41.65933" lon="2.3303833"><ele>269.25</ele><time>2026-04-11T11:09:17.983Z</time></trkpt><trkpt lat="41.659185" lon="2.3303267"><ele>269.5</ele><time>2026-04-11T11:09:18.983Z</time></trkpt><trkpt lat="41.65907" lon="2.3302667"><ele>269.75</ele><time>2026-04-11T11:09:19.983Z</time></trkpt><trkpt lat="41.6589667" lon="2.3301967"><ele>270.0</ele><time>2026-04-11T11:09:20.982Z</time></trkpt><trkpt lat="41.6588733" lon="2.33014"><ele>270.0</ele><time>2026-04-11T11:09:21.982Z</time></trkpt><trkpt lat="41.6587683" lon="2.3301083"><ele>270.0</ele><time>2026-04-11T11:09:22.982Z</time></trkpt><trkpt lat="41.65867" lon="2.3300917"><ele>270.0</ele><time>2026-04-11T11:09:23.982Z</time></trkpt><trkpt lat="41.6585883" lon="2.33009"><ele>270.0</ele><time>2026-04-11T11:09:24.982Z</time></trkpt><trkpt lat="41.6584967" lon="2.3301383"><ele>270.0</ele><time>2026-04-11T11:09:26.982Z</time></trkpt><trkpt lat="41.65851" lon="2.330275"><ele>269.4</ele><time>2026-04-11T11:09:29.982Z</time></trkpt><trkpt lat="41.6585533" lon="2.3303517"><ele>268.8</ele><time>2026-04-11T11:09:30.982Z</time></trkpt><trkpt lat="41.6586083" lon="2.330455"><ele>268.2</ele><time>2026-04-11T11:09:31.982Z</time></trkpt><trkpt lat="41.658655" lon="2.3305833"><ele>267.6</ele><time>2026-04-11T11:09:32.982Z</time></trkpt><trkpt lat="41.6586917" lon="2.33073"><ele>267.0</ele><time>2026-04-11T11:09:33.982Z</time></trkpt><trkpt lat="41.6587183" lon="2.3308983"><ele>269.5</ele><time>2026-04-11T11:09:34.982Z</time></trkpt><trkpt lat="41.65873" lon="2.3310783"><ele>272.0</ele><time>2026-04-11T11:09:35.982Z</time></trkpt><trkpt lat="41.6587267" lon="2.331255"><ele>274.5</ele><time>2026-04-11T11:09:36.982Z</time></trkpt><trkpt lat="41.65872" lon="2.33143"><ele>277.0</ele><time>2026-04-11T11:09:37.982Z</time></trkpt><trkpt lat="41.6587233" lon="2.3316083"><ele>277.25</ele><time>2026-04-11T11:09:38.983Z</time></trkpt><trkpt lat="41.6587417" lon="2.33179"><ele>277.5</ele><time>2026-04-11T11:09:39.982Z</time></trkpt><trkpt lat="41.6587667" lon="2.331975"><ele>277.75</ele><time>2026-04-11T11:09:40.982Z</time></trkpt><trkpt lat="41.6587933" lon="2.332165"><ele>278.0</ele><time>2026-04-11T11:09:41.982Z</time></trkpt><trkpt lat="41.6588133" lon="2.332365"><ele>276.75</ele><time>2026-04-11T11:09:42.982Z</time></trkpt><trkpt lat="41.65883" lon="2.33256"><ele>275.5</ele><time>2026-04-11T11:09:43.982Z</time></trkpt><trkpt lat="41.65885" lon="2.3327333"><ele>274.25</ele><time>2026-04-11T11:09:44.982Z</time></trkpt><trkpt lat="41.6588683" lon="2.3329"><ele>273.0</ele><time>2026-04-11T11:09:45.982Z</time></trkpt><trkpt lat="41.6588833" lon="2.3330583"><ele>272.4</ele><time>2026-04-11T11:09:46.982Z</time></trkpt><trkpt lat="41.6588967" lon="2.33319"><ele>271.8</ele><time>2026-04-11T11:09:47.982Z</time></trkpt><trkpt lat="41.658915" lon="2.3333017"><ele>271.2</ele><time>2026-04-11T11:09:48.982Z</time></trkpt><trkpt lat="41.65893" lon="2.3333967"><ele>270.6</ele><time>2026-04-11T11:09:49.982Z</time></trkpt><trkpt lat="41.6589017" lon="2.333535"><ele>270.0</ele><time>2026-04-11T11:09:51.982Z</time></trkpt><trkpt lat="41.6587867" lon="2.333565"><ele>270.0</ele><time>2026-04-11T11:09:53.982Z</time></trkpt><trkpt lat="41.6587" lon="2.3335817"><ele>270.0</ele><time>2026-04-11T11:09:54.982Z</time></trkpt><trkpt lat="41.658595" lon="2.3336083"><ele>270.0</ele><time>2026-04-11T11:09:55.982Z</time></trkpt><trkpt lat="41.6584667" lon="2.3336683"><ele>270.0</ele><time>2026-04-11T11:09:56.982Z</time></trkpt><trkpt lat="41.65834" lon="2.33376"><ele>269.6666666666667</ele><time>2026-04-11T11:09:57.982Z</time></trkpt><trkpt lat="41.65821" lon="2.3338717"><ele>269.33333333333337</ele><time>2026-04-11T11:09:58.982Z</time></trkpt><trkpt lat="41.6580733" lon="2.3340033"><ele>269.0</ele><time>2026-04-11T11:09:59.982Z</time></trkpt><trkpt lat="41.6579317" lon="2.3341733"><ele>270.6666666666667</ele><time>2026-04-11T11:10:00.982Z</time></trkpt><trkpt lat="41.6578067" lon="2.3343617"><ele>272.3333333333333</ele><time>2026-04-11T11:10:01.983Z</time></trkpt><trkpt lat="41.657685" lon="2.334555"><ele>274.0</ele><time>2026-04-11T11:10:02.982Z</time></trkpt><trkpt lat="41.6575983" lon="2.3347433"><ele>275.2</ele><time>2026-04-11T11:10:03.982Z</time></trkpt><trkpt lat="41.65754" lon="2.334905"><ele>276.4</ele><time>2026-04-11T11:10:04.982Z</time></trkpt><trkpt lat="41.65751" lon="2.335035"><ele>277.6</ele><time>2026-04-11T11:10:05.982Z</time></trkpt><trkpt lat="41.65749" lon="2.3351667"><ele>278.8</ele><time>2026-04-11T11:10:06.982Z</time></trkpt><trkpt lat="41.6574817" lon="2.3353017"><ele>280.0</ele><time>2026-04-11T11:10:07.982Z</time></trkpt><trkpt lat="41.6574717" lon="2.3354483"><ele>280.6</ele><time>2026-04-11T11:10:08.982Z</time></trkpt><trkpt lat="41.6574617" lon="2.33561"><ele>281.2</ele><time>2026-04-11T11:10:09.983Z</time></trkpt><trkpt lat="41.6574617" lon="2.3357633"><ele>281.8</ele><time>2026-04-11T11:10:10.982Z</time></trkpt><trkpt lat="41.6574683" lon="2.335885"><ele>282.4</ele><time>2026-04-11T11:10:11.982Z</time></trkpt><trkpt lat="41.6574783" lon="2.335995"><ele>283.0</ele><time>2026-04-11T11:10:12.982Z</time></trkpt><trkpt lat="41.6575417" lon="2.3360967"><ele>283.0</ele><time>2026-04-11T11:10:14.982Z</time></trkpt><trkpt lat="41.6576533" lon="2.3361183"><ele>283.0</ele><time>2026-04-11T11:10:16.982Z</time></trkpt><trkpt lat="41.657725" lon="2.336145"><ele>283.0</ele><time>2026-04-11T11:10:17.982Z</time></trkpt><trkpt lat="41.657795" lon="2.336195"><ele>283.0</ele><time>2026-04-11T11:10:18.982Z</time></trkpt><trkpt lat="41.6578683" lon="2.336245"><ele>283.0</ele><time>2026-04-11T11:10:19.982Z</time></trkpt><trkpt lat="41.6579517" lon="2.3362983"><ele>283.0</ele><time>2026-04-11T11:10:20.982Z</time></trkpt><trkpt lat="41.6580417" lon="2.3363433"><ele>284.0</ele><time>2026-04-11T11:10:21.982Z</time></trkpt><trkpt lat="41.658145" lon="2.3364067"><ele>285.0</ele><time>2026-04-11T11:10:22.982Z</time></trkpt><trkpt lat="41.6582433" lon="2.336465"><ele>286.0</ele><time>2026-04-11T11:10:23.982Z</time></trkpt><trkpt lat="41.65834" lon="2.33651"><ele>287.0</ele><time>2026-04-11T11:10:24.982Z</time></trkpt><trkpt lat="41.65845" lon="2.3365183"><ele>288.0</ele><time>2026-04-11T11:10:25.982Z</time></trkpt><trkpt lat="41.65855" lon="2.336525"><ele>288.8</ele><time>2026-04-11T11:10:26.982Z</time></trkpt><trkpt lat="41.65862" lon="2.33653"><ele>289.6</ele><time>2026-04-11T11:10:27.982Z</time></trkpt><trkpt lat="41.6587283" lon="2.3365717"><ele>290.4</ele><time>2026-04-11T11:10:29.982Z</time></trkpt><trkpt lat="41.6588117" lon="2.336605"><ele>291.2</ele><time>2026-04-11T11:10:31.982Z</time></trkpt><trkpt lat="41.6588983" lon="2.3366267"><ele>292.0</ele><time>2026-04-11T11:10:33.982Z</time></trkpt><trkpt lat="41.659005" lon="2.3366567"><ele>292.0</ele><time>2026-04-11T11:10:35.982Z</time></trkpt><trkpt lat="41.6591033" lon="2.3367167"><ele>292.0</ele><time>2026-04-11T11:10:37.982Z</time></trkpt><trkpt lat="41.6591583" lon="2.336845"><ele>292.0</ele><time>2026-04-11T11:10:39.982Z</time></trkpt><trkpt lat="41.65916" lon="2.3369367"><ele>292.0</ele><time>2026-04-11T11:10:40.982Z</time></trkpt><trkpt lat="41.6591417" lon="2.3371367"><ele>292.0</ele><time>2026-04-11T11:10:42.982Z</time></trkpt><trkpt lat="41.6591083" lon="2.3372767"><ele>290.75</ele><time>2026-04-11T11:10:43.982Z</time></trkpt><trkpt lat="41.65907" lon="2.337425"><ele>289.5</ele><time>2026-04-11T11:10:44.982Z</time></trkpt><trkpt lat="41.6590283" lon="2.3375867"><ele>288.25</ele><time>2026-04-11T11:10:45.982Z</time></trkpt><trkpt lat="41.6589867" lon="2.3377267"><ele>287.0</ele><time>2026-04-11T11:10:46.983Z</time></trkpt><trkpt lat="41.6589517" lon="2.3378633"><ele>287.0</ele><time>2026-04-11T11:10:47.982Z</time></trkpt><trkpt lat="41.6589183" lon="2.3379983"><ele>287.0</ele><time>2026-04-11T11:10:48.982Z</time></trkpt><trkpt lat="41.6588917" lon="2.33814"><ele>287.0</ele><time>2026-04-11T11:10:49.982Z</time></trkpt><trkpt lat="41.6588717" lon="2.3382917"><ele>287.0</ele><time>2026-04-11T11:10:50.982Z</time></trkpt><trkpt lat="41.6588633" lon="2.3384317"><ele>287.0</ele><time>2026-04-11T11:10:51.982Z</time></trkpt><trkpt lat="41.6588733" lon="2.3385583"><ele>286.83333333333337</ele><time>2026-04-11T11:10:52.982Z</time></trkpt><trkpt lat="41.6589083" lon="2.3386633"><ele>286.6666666666667</ele><time>2026-04-11T11:10:53.982Z</time></trkpt><trkpt lat="41.658965" lon="2.3387517"><ele>286.5</ele><time>2026-04-11T11:10:54.982Z</time></trkpt><trkpt lat="41.6590333" lon="2.3388133"><ele>286.3333333333333</ele><time>2026-04-11T11:10:55.982Z</time></trkpt><trkpt lat="41.6591117" lon="2.33886"><ele>286.16666666666663</ele><time>2026-04-11T11:10:56.982Z</time></trkpt><trkpt lat="41.6591983" lon="2.3389467"><ele>286.0</ele><time>2026-04-11T11:10:58.982Z</time></trkpt><trkpt lat="41.659195" lon="2.3390317"><ele>284.5</ele><time>2026-04-11T11:11:00.982Z</time></trkpt><trkpt lat="41.6591183" lon="2.3390983"><ele>283.0</ele><time>2026-04-11T11:11:01.982Z</time></trkpt><trkpt lat="41.6590383" lon="2.339175"><ele>281.5</ele><time>2026-04-11T11:11:02.982Z</time></trkpt><trkpt lat="41.6589217" lon="2.3392667"><ele>280.0</ele><time>2026-04-11T11:11:03.982Z</time></trkpt><trkpt lat="41.65881" lon="2.339395"><ele>280.0</ele><time>2026-04-11T11:11:04.982Z</time></trkpt><trkpt lat="41.6586883" lon="2.3395117"><ele>280.0</ele><time>2026-04-11T11:11:05.982Z</time></trkpt><trkpt lat="41.6585533" lon="2.3396183"><ele>280.0</ele><time>2026-04-11T11:11:06.982Z</time></trkpt><trkpt lat="41.6584267" lon="2.3397017"><ele>280.0</ele><time>2026-04-11T11:11:07.982Z</time></trkpt><trkpt lat="41.6582983" lon="2.3397817"><ele>280.5</ele><time>2026-04-11T11:11:08.982Z</time></trkpt><trkpt lat="41.658165" lon="2.3398633"><ele>281.0</ele><time>2026-04-11T11:11:09.982Z</time></trkpt><trkpt lat="41.65805" lon="2.3399417"><ele>281.5</ele><time>2026-04-11T11:11:10.982Z</time></trkpt><trkpt lat="41.6579267" lon="2.339985"><ele>282.0</ele><time>2026-04-11T11:11:11.982Z</time></trkpt><trkpt lat="41.657805" lon="2.34"><ele>280.75</ele><time>2026-04-11T11:11:12.982Z</time></trkpt><trkpt lat="41.6576717" lon="2.339995"><ele>279.5</ele><time>2026-04-11T11:11:13.983Z</time></trkpt><trkpt lat="41.6575283" lon="2.339965"><ele>278.25</ele><time>2026-04-11T11:11:14.982Z</time></trkpt><trkpt lat="41.6573767" lon="2.33992"><ele>277.0</ele><time>2026-04-11T11:11:15.982Z</time></trkpt><trkpt lat="41.6572267" lon="2.3398717"><ele>277.0</ele><time>2026-04-11T11:11:16.982Z</time></trkpt><trkpt lat="41.6570683" lon="2.33982"><ele>277.0</ele><time>2026-04-11T11:11:17.982Z</time></trkpt><trkpt lat="41.6568867" lon="2.3397433"><ele>277.0</ele><time>2026-04-11T11:11:18.982Z</time></trkpt><trkpt lat="41.6566933" lon="2.3396617"><ele>276.0</ele><time>2026-04-11T11:11:19.982Z</time></trkpt><trkpt lat="41.6565117" lon="2.339585"><ele>275.0</ele><time>2026-04-11T11:11:20.982Z</time></trkpt><trkpt lat="41.656335" lon="2.3395067"><ele>274.0</ele><time>2026-04-11T11:11:21.982Z</time></trkpt><trkpt lat="41.6561733" lon="2.339435"><ele>276.0</ele><time>2026-04-11T11:11:22.983Z</time></trkpt><trkpt lat="41.656035" lon="2.339395"><ele>278.0</ele><time>2026-04-11T11:11:23.982Z</time></trkpt><trkpt lat="41.6559" lon="2.33935"><ele>280.0</ele><time>2026-04-11T11:11:24.982Z</time></trkpt><trkpt lat="41.65576" lon="2.3393117"><ele>282.0</ele><time>2026-04-11T11:11:25.983Z</time></trkpt><trkpt lat="41.6556067" lon="2.33928"><ele>282.0</ele><time>2026-04-11T11:11:26.982Z</time></trkpt><trkpt lat="41.6554267" lon="2.3392433"><ele>282.0</ele><time>2026-04-11T11:11:27.983Z</time></trkpt><trkpt lat="41.655235" lon="2.3391917"><ele>282.0</ele><time>2026-04-11T11:11:28.982Z</time></trkpt><trkpt lat="41.655045" lon="2.3391483"><ele>282.6666666666667</ele><time>2026-04-11T11:11:29.982Z</time></trkpt><trkpt lat="41.6548433" lon="2.3390967"><ele>283.33333333333337</ele><time>2026-04-11T11:11:30.982Z</time></trkpt><trkpt lat="41.6546333" lon="2.3390333"><ele>284.0</ele><time>2026-04-11T11:11:31.982Z</time></trkpt><trkpt lat="41.6544167" lon="2.338965"><ele>282.6666666666667</ele><time>2026-04-11T11:11:32.982Z</time></trkpt><trkpt lat="41.6542383" lon="2.338855"><ele>281.3333333333333</ele><time>2026-04-11T11:11:33.982Z</time></trkpt><trkpt lat="41.654085" lon="2.3387667"><ele>280.0</ele><time>2026-04-11T11:11:34.982Z</time></trkpt><trkpt lat="41.65395" lon="2.3387233"><ele>280.0</ele><time>2026-04-11T11:11:35.982Z</time></trkpt><trkpt lat="41.6538183" lon="2.3386983"><ele>280.0</ele><time>2026-04-11T11:11:36.982Z</time></trkpt><trkpt lat="41.6536617" lon="2.3386883"><ele>280.0</ele><time>2026-04-11T11:11:37.982Z</time></trkpt><trkpt lat="41.6534833" lon="2.3387"><ele>277.3333333333333</ele><time>2026-04-11T11:11:38.983Z</time></trkpt><trkpt lat="41.6532867" lon="2.3387167"><ele>274.6666666666667</ele><time>2026-04-11T11:11:39.982Z</time></trkpt><trkpt lat="41.6531" lon="2.3387267"><ele>272.0</ele><time>2026-04-11T11:11:40.982Z</time></trkpt><trkpt lat="41.6529183" lon="2.33874"><ele>272.6666666666667</ele><time>2026-04-11T11:11:41.982Z</time></trkpt><trkpt lat="41.6527517" lon="2.3387467"><ele>273.3333333333333</ele><time>2026-04-11T11:11:42.982Z</time></trkpt><trkpt lat="41.65259" lon="2.3387567"><ele>274.0</ele><time>2026-04-11T11:11:43.982Z</time></trkpt><trkpt lat="41.6524183" lon="2.33874"><ele>274.0</ele><time>2026-04-11T11:11:44.982Z</time></trkpt><trkpt lat="41.6522417" lon="2.3387033"><ele>274.0</ele><time>2026-04-11T11:11:45.982Z</time></trkpt><trkpt lat="41.6520483" lon="2.3386467"><ele>274.0</ele><time>2026-04-11T11:11:46.982Z</time></trkpt><trkpt lat="41.65186" lon="2.3385883"><ele>274.3333333333333</ele><time>2026-04-11T11:11:47.983Z</time></trkpt><trkpt lat="41.651675" lon="2.33856"><ele>274.6666666666667</ele><time>2026-04-11T11:11:48.982Z</time></trkpt><trkpt lat="41.651485" lon="2.33856"><ele>275.0</ele><time>2026-04-11T11:11:49.982Z</time></trkpt><trkpt lat="41.65129" lon="2.33858"><ele>273.6666666666667</ele><time>2026-04-11T11:11:50.982Z</time></trkpt><trkpt lat="41.6510883" lon="2.3386017"><ele>272.3333333333333</ele><time>2026-04-11T11:11:51.982Z</time></trkpt><trkpt lat="41.6508833" lon="2.338615"><ele>271.0</ele><time>2026-04-11T11:11:52.982Z</time></trkpt><trkpt lat="41.6507033" lon="2.338625"><ele>271.0</ele><time>2026-04-11T11:11:53.982Z</time></trkpt><trkpt lat="41.6505183" lon="2.3386367"><ele>271.0</ele><time>2026-04-11T11:11:54.982Z</time></trkpt><trkpt lat="41.6503367" lon="2.338635"><ele>271.0</ele><time>2026-04-11T11:11:55.982Z</time></trkpt><trkpt lat="41.65016" lon="2.3386333"><ele>267.66666666666663</ele><time>2026-04-11T11:11:56.983Z</time></trkpt><trkpt lat="41.6499817" lon="2.33862"><ele>264.3333333333333</ele><time>2026-04-11T11:11:57.982Z</time></trkpt><trkpt lat="41.649785" lon="2.3386133"><ele>261.0</ele><time>2026-04-11T11:11:58.982Z</time></trkpt><trkpt lat="41.6495933" lon="2.3386033"><ele>260.0</ele><time>2026-04-11T11:11:59.982Z</time></trkpt><trkpt lat="41.64939" lon="2.3385933"><ele>259.0</ele><time>2026-04-11T11:12:00.982Z</time></trkpt><trkpt lat="41.6492133" lon="2.3386083"><ele>258.0</ele><time>2026-04-11T11:12:01.982Z</time></trkpt><trkpt lat="41.6490383" lon="2.338615"><ele>258.0</ele><time>2026-04-11T11:12:02.982Z</time></trkpt><trkpt lat="41.6488883" lon="2.3386183"><ele>258.0</ele><time>2026-04-11T11:12:03.982Z</time></trkpt><trkpt lat="41.6487517" lon="2.3386117"><ele>258.0</ele><time>2026-04-11T11:12:04.982Z</time></trkpt><trkpt lat="41.648625" lon="2.3385867"><ele>258.0</ele><time>2026-04-11T11:12:05.982Z</time></trkpt><trkpt lat="41.6485033" lon="2.3385367"><ele>258.4</ele><time>2026-04-11T11:12:06.982Z</time></trkpt><trkpt lat="41.6483883" lon="2.3384717"><ele>258.8</ele><time>2026-04-11T11:12:07.982Z</time></trkpt><trkpt lat="41.6482767" lon="2.3384067"><ele>259.2</ele><time>2026-04-11T11:12:08.982Z</time></trkpt><trkpt lat="41.64819" lon="2.3383467"><ele>259.6</ele><time>2026-04-11T11:12:09.982Z</time></trkpt><trkpt lat="41.6481183" lon="2.3383"><ele>260.0</ele><time>2026-04-11T11:12:10.982Z</time></trkpt><trkpt lat="41.6480333" lon="2.33823"><ele>260.0</ele><time>2026-04-11T11:12:12.982Z</time></trkpt><trkpt lat="41.648025" lon="2.3381383"><ele>260.0</ele><time>2026-04-11T11:12:15.983Z</time></trkpt><trkpt lat="41.6480783" lon="2.33821"><ele>260.0</ele><time>2026-04-11T11:12:23.982Z</time></trkpt><trkpt lat="41.64816" lon="2.338275"><ele>260.0</ele><time>2026-04-11T11:12:24.982Z</time></trkpt><trkpt lat="41.64827" lon="2.3383583"><ele>260.0</ele><time>2026-04-11T11:12:25.982Z</time></trkpt><trkpt lat="41.64841" lon="2.3384467"><ele>260.0</ele><time>2026-04-11T11:12:26.982Z</time></trkpt><trkpt lat="41.6485617" lon="2.3385217"><ele>260.0</ele><time>2026-04-11T11:12:27.983Z</time></trkpt><trkpt lat="41.6487133" lon="2.3385783"><ele>260.0</ele><time>2026-04-11T11:12:28.982Z</time></trkpt><trkpt lat="41.6488867" lon="2.3385967"><ele>259.33333333333337</ele><time>2026-04-11T11:12:29.982Z</time></trkpt><trkpt lat="41.649065" lon="2.338595"><ele>258.6666666666667</ele><time>2026-04-11T11:12:30.982Z</time></trkpt><trkpt lat="41.64922" lon="2.3385917"><ele>258.0</ele><time>2026-04-11T11:12:31.982Z</time></trkpt><trkpt lat="41.6493533" lon="2.3386017"><ele>258.0</ele><time>2026-04-11T11:12:32.982Z</time></trkpt><trkpt lat="41.6494533" lon="2.33861"><ele>258.0</ele><time>2026-04-11T11:12:33.982Z</time></trkpt><trkpt lat="41.6495283" lon="2.3386117"><ele>258.0</ele><time>2026-04-11T11:12:34.982Z</time></trkpt><trkpt lat="41.6496067" lon="2.3386133"><ele>258.0</ele><time>2026-04-11T11:12:36.982Z</time></trkpt><trkpt lat="41.6496517" lon="2.33875"><ele>258.0</ele><time>2026-04-11T11:12:39.982Z</time></trkpt><trkpt lat="41.6496317" lon="2.338935"><ele>258.5</ele><time>2026-04-11T11:12:40.983Z</time></trkpt><trkpt lat="41.6496167" lon="2.3391317"><ele>259.0</ele><time>2026-04-11T11:12:41.982Z</time></trkpt><trkpt lat="41.6496033" lon="2.33932"><ele>259.5</ele><time>2026-04-11T11:12:42.982Z</time></trkpt><trkpt lat="41.6495917" lon="2.3394983"><ele>260.0</ele><time>2026-04-11T11:12:43.982Z</time></trkpt><trkpt lat="41.6495817" lon="2.3396617"><ele>258.0</ele><time>2026-04-11T11:12:44.982Z</time></trkpt><trkpt lat="41.6495733" lon="2.3398017"><ele>256.0</ele><time>2026-04-11T11:12:45.982Z</time></trkpt><trkpt lat="41.6495667" lon="2.3399417"><ele>254.0</ele><time>2026-04-11T11:12:46.982Z</time></trkpt><trkpt lat="41.6495617" lon="2.3400767"><ele>252.0</ele><time>2026-04-11T11:12:47.982Z</time></trkpt><trkpt lat="41.6495533" lon="2.3402133"><ele>250.0</ele><time>2026-04-11T11:12:48.982Z</time></trkpt><trkpt lat="41.6495383" lon="2.3403483"><ele>250.0</ele><time>2026-04-11T11:12:49.982Z</time></trkpt><trkpt lat="41.6495117" lon="2.3404717"><ele>250.0</ele><time>2026-04-11T11:12:50.982Z</time></trkpt><trkpt lat="41.6494783" lon="2.3405817"><ele>250.0</ele><time>2026-04-11T11:12:51.982Z</time></trkpt><trkpt lat="41.6494333" lon="2.3406917"><ele>250.0</ele><time>2026-04-11T11:12:52.982Z</time></trkpt><trkpt lat="41.6493867" lon="2.3407917"><ele>250.0</ele><time>2026-04-11T11:12:53.982Z</time></trkpt><trkpt lat="41.6493267" lon="2.3409017"><ele>247.8</ele><time>2026-04-11T11:12:54.982Z</time></trkpt><trkpt lat="41.6492583" lon="2.3410167"><ele>245.6</ele><time>2026-04-11T11:12:55.982Z</time></trkpt><trkpt lat="41.6491833" lon="2.341135"><ele>243.39999999999998</ele><time>2026-04-11T11:12:56.982Z</time></trkpt><trkpt lat="41.6491067" lon="2.341245"><ele>241.2</ele><time>2026-04-11T11:12:57.982Z</time></trkpt><trkpt lat="41.64903" lon="2.34135"><ele>239.0</ele><time>2026-04-11T11:12:58.982Z</time></trkpt><trkpt lat="41.6489583" lon="2.3414467"><ele>236.79999999999998</ele><time>2026-04-11T11:12:59.982Z</time></trkpt><trkpt lat="41.6488917" lon="2.3415367"><ele>234.59999999999997</ele><time>2026-04-11T11:13:00.982Z</time></trkpt><trkpt lat="41.6488233" lon="2.3416217"><ele>232.4</ele><time>2026-04-11T11:13:01.982Z</time></trkpt><trkpt lat="41.6487467" lon="2.3416917"><ele>230.2</ele><time>2026-04-11T11:13:02.982Z</time></trkpt><trkpt lat="41.6486633" lon="2.3417383"><ele>228.0</ele><time>2026-04-11T11:13:03.982Z</time></trkpt><trkpt lat="41.6485467" lon="2.341785"><ele>227.75</ele><time>2026-04-11T11:13:04.982Z</time></trkpt><trkpt lat="41.6484267" lon="2.3418033"><ele>227.5</ele><time>2026-04-11T11:13:05.982Z</time></trkpt><trkpt lat="41.6482867" lon="2.3418167"><ele>227.25</ele><time>2026-04-11T11:13:06.982Z</time></trkpt><trkpt lat="41.648125" lon="2.341825"><ele>227.0</ele><time>2026-04-11T11:13:07.982Z</time></trkpt><trkpt lat="41.64795" lon="2.3418183"><ele>224.33333333333334</ele><time>2026-04-11T11:13:08.983Z</time></trkpt><trkpt lat="41.647775" lon="2.3417967"><ele>221.66666666666669</ele><time>2026-04-11T11:13:09.982Z</time></trkpt><trkpt lat="41.6476" lon="2.341765"><ele>219.0</ele><time>2026-04-11T11:13:10.982Z</time></trkpt><trkpt lat="41.647435" lon="2.3417533"><ele>219.0</ele><time>2026-04-11T11:13:11.982Z</time></trkpt><trkpt lat="41.6472783" lon="2.3417617"><ele>219.0</ele><time>2026-04-11T11:13:12.982Z</time></trkpt><trkpt lat="41.6471333" lon="2.3417783"><ele>219.0</ele><time>2026-04-11T11:13:13.982Z</time></trkpt><trkpt lat="41.6469867" lon="2.341805"><ele>219.39999999999998</ele><time>2026-04-11T11:13:14.982Z</time></trkpt><trkpt lat="41.64686" lon="2.3418367"><ele>219.79999999999998</ele><time>2026-04-11T11:13:15.982Z</time></trkpt><trkpt lat="41.6467533" lon="2.3418583"><ele>220.20000000000002</ele><time>2026-04-11T11:13:16.982Z</time></trkpt><trkpt lat="41.6466617" lon="2.3419033"><ele>220.60000000000002</ele><time>2026-04-11T11:13:17.982Z</time></trkpt><trkpt lat="41.64659" lon="2.341975"><ele>221.0</ele><time>2026-04-11T11:13:18.982Z</time></trkpt><trkpt lat="41.6465367" lon="2.3420883"><ele>219.25</ele><time>2026-04-11T11:13:19.982Z</time></trkpt><trkpt lat="41.646505" lon="2.3422467"><ele>217.5</ele><time>2026-04-11T11:13:20.982Z</time></trkpt><trkpt lat="41.6464917" lon="2.3424417"><ele>215.75</ele><time>2026-04-11T11:13:21.982Z</time></trkpt><trkpt lat="41.6464917" lon="2.3426633"><ele>214.0</ele><time>2026-04-11T11:13:22.982Z</time></trkpt><trkpt lat="41.6465017" lon="2.342905"><ele>213.66666666666666</ele><time>2026-04-11T11:13:23.982Z</time></trkpt><trkpt lat="41.6465183" lon="2.3431583"><ele>213.33333333333331</ele><time>2026-04-11T11:13:24.982Z</time></trkpt><trkpt lat="41.6465233" lon="2.3434217"><ele>213.0</ele><time>2026-04-11T11:13:25.982Z</time></trkpt><trkpt lat="41.646535" lon="2.3436733"><ele>216.66666666666669</ele><time>2026-04-11T11:13:26.982Z</time></trkpt><trkpt lat="41.6465317" lon="2.34392"><ele>220.33333333333334</ele><time>2026-04-11T11:13:27.982Z</time></trkpt><trkpt lat="41.64651" lon="2.3441567"><ele>224.0</ele><time>2026-04-11T11:13:28.982Z</time></trkpt><trkpt lat="41.6464783" lon="2.3443883"><ele>224.0</ele><time>2026-04-11T11:13:29.982Z</time></trkpt><trkpt lat="41.64646" lon="2.3446033"><ele>224.0</ele><time>2026-04-11T11:13:30.983Z</time></trkpt><trkpt lat="41.646445" lon="2.344815"><ele>224.0</ele><time>2026-04-11T11:13:31.982Z</time></trkpt><trkpt lat="41.64643" lon="2.3450233"><ele>227.33333333333334</ele><time>2026-04-11T11:13:32.982Z</time></trkpt><trkpt lat="41.6464067" lon="2.345245"><ele>230.66666666666669</ele><time>2026-04-11T11:13:33.982Z</time></trkpt><trkpt lat="41.646385" lon="2.3454733"><ele>234.0</ele><time>2026-04-11T11:13:34.982Z</time></trkpt><trkpt lat="41.6463617" lon="2.34571"><ele>235.25</ele><time>2026-04-11T11:13:35.982Z</time></trkpt><trkpt lat="41.6463533" lon="2.3459017"><ele>236.5</ele><time>2026-04-11T11:13:36.982Z</time></trkpt><trkpt lat="41.646335" lon="2.346085"><ele>237.75</ele><time>2026-04-11T11:13:37.982Z</time></trkpt><trkpt lat="41.64631" lon="2.34625"><ele>239.0</ele><time>2026-04-11T11:13:38.983Z</time></trkpt><trkpt lat="41.6462683" lon="2.3464017"><ele>239.0</ele><time>2026-04-11T11:13:39.982Z</time></trkpt><trkpt lat="41.64621" lon="2.3465417"><ele>238.99999999999997</ele><time>2026-04-11T11:13:40.982Z</time></trkpt><trkpt lat="41.6461333" lon="2.3466617"><ele>238.99999999999997</ele><time>2026-04-11T11:13:41.982Z</time></trkpt><trkpt lat="41.6460583" lon="2.3467617"><ele>239.0</ele><time>2026-04-11T11:13:42.982Z</time></trkpt><trkpt lat="41.6459783" lon="2.3468433"><ele>239.0</ele><time>2026-04-11T11:13:43.982Z</time></trkpt><trkpt lat="41.64591" lon="2.346915"><ele>238.50000000000003</ele><time>2026-04-11T11:13:44.982Z</time></trkpt><trkpt lat="41.6458483" lon="2.3469717"><ele>238.0</ele><time>2026-04-11T11:13:45.982Z</time></trkpt><trkpt lat="41.6457817" lon="2.3469983"><ele>237.5</ele><time>2026-04-11T11:13:46.982Z</time></trkpt><trkpt lat="41.6457167" lon="2.3470133"><ele>237.0</ele><time>2026-04-11T11:13:47.982Z</time></trkpt><trkpt lat="41.6456383" lon="2.347025"><ele>236.50000000000003</ele><time>2026-04-11T11:13:48.982Z</time></trkpt><trkpt lat="41.645555" lon="2.3470283"><ele>236.0</ele><time>2026-04-11T11:13:49.982Z</time></trkpt><trkpt lat="41.64546" lon="2.3470217"><ele>236.0</ele><time>2026-04-11T11:13:50.982Z</time></trkpt><trkpt lat="41.6453483" lon="2.3470083"><ele>236.0</ele><time>2026-04-11T11:13:51.982Z</time></trkpt><trkpt lat="41.6452233" lon="2.346995"><ele>236.0</ele><time>2026-04-11T11:13:52.982Z</time></trkpt><trkpt lat="41.6450867" lon="2.3469917"><ele>236.0</ele><time>2026-04-11T11:13:53.982Z</time></trkpt><trkpt lat="41.6449467" lon="2.3469867"><ele>237.5</ele><time>2026-04-11T11:13:54.982Z</time></trkpt><trkpt lat="41.644815" lon="2.3469733"><ele>239.0</ele><time>2026-04-11T11:13:55.982Z</time></trkpt><trkpt lat="41.64469" lon="2.3469533"><ele>240.5</ele><time>2026-04-11T11:13:56.982Z</time></trkpt><trkpt lat="41.6445783" lon="2.34691"><ele>242.0</ele><time>2026-04-11T11:13:57.982Z</time></trkpt><trkpt lat="41.6444733" lon="2.3468667"><ele>242.2</ele><time>2026-04-11T11:13:58.982Z</time></trkpt><trkpt lat="41.6443817" lon="2.3468317"><ele>242.39999999999998</ele><time>2026-04-11T11:13:59.983Z</time></trkpt><trkpt lat="41.64428" lon="2.346815"><ele>242.60000000000002</ele><time>2026-04-11T11:14:00.982Z</time></trkpt><trkpt lat="41.644165" lon="2.3468233"><ele>242.8</ele><time>2026-04-11T11:14:01.982Z</time></trkpt><trkpt lat="41.6440383" lon="2.346855"><ele>243.0</ele><time>2026-04-11T11:14:02.982Z</time></trkpt><trkpt lat="41.6439033" lon="2.34689"><ele>243.0</ele><time>2026-04-11T11:14:03.982Z</time></trkpt><trkpt lat="41.64377" lon="2.3469233"><ele>243.0</ele><time>2026-04-11T11:14:04.982Z</time></trkpt><trkpt lat="41.643645" lon="2.346965"><ele>243.0</ele><time>2026-04-11T11:14:05.982Z</time></trkpt><trkpt lat="41.6435117" lon="2.346995"><ele>243.0</ele><time>2026-04-11T11:14:06.982Z</time></trkpt><trkpt lat="41.6433983" lon="2.34705"><ele>243.0</ele><time>2026-04-11T11:14:07.982Z</time></trkpt><trkpt lat="41.6432917" lon="2.3471233"><ele>243.0</ele><time>2026-04-11T11:14:08.982Z</time></trkpt><trkpt lat="41.643185" lon="2.347205"><ele>243.0</ele><time>2026-04-11T11:14:09.982Z</time></trkpt><trkpt lat="41.6430667" lon="2.347285"><ele>243.0</ele><time>2026-04-11T11:14:10.982Z</time></trkpt><trkpt lat="41.6429483" lon="2.3473367"><ele>243.0</ele><time>2026-04-11T11:14:11.983Z</time></trkpt><trkpt lat="41.6428283" lon="2.347385"><ele>243.0</ele><time>2026-04-11T11:14:12.982Z</time></trkpt><trkpt lat="41.642695" lon="2.3474133"><ele>243.0</ele><time>2026-04-11T11:14:13.983Z</time></trkpt><trkpt lat="41.64259" lon="2.3474183"><ele>243.0</ele><time>2026-04-11T11:14:14.982Z</time></trkpt><trkpt lat="41.6424917" lon="2.347425"><ele>242.5</ele><time>2026-04-11T11:14:15.982Z</time></trkpt><trkpt lat="41.642375" lon="2.3474367"><ele>242.0</ele><time>2026-04-11T11:14:16.982Z</time></trkpt><trkpt lat="41.6422367" lon="2.3474517"><ele>241.5</ele><time>2026-04-11T11:14:17.982Z</time></trkpt><trkpt lat="41.642085" lon="2.347485"><ele>241.0</ele><time>2026-04-11T11:14:18.983Z</time></trkpt><trkpt lat="41.6419433" lon="2.3475317"><ele>241.0</ele><time>2026-04-11T11:14:19.982Z</time></trkpt><trkpt lat="41.6417933" lon="2.3475883"><ele>241.0</ele><time>2026-04-11T11:14:20.982Z</time></trkpt><trkpt lat="41.6416083" lon="2.34762"><ele>241.0</ele><time>2026-04-11T11:14:21.982Z</time></trkpt><trkpt lat="41.6414533" lon="2.3476717"><ele>241.0</ele><time>2026-04-11T11:14:22.982Z</time></trkpt><trkpt lat="41.6412967" lon="2.3476933"><ele>241.0</ele><time>2026-04-11T11:14:23.982Z</time></trkpt><trkpt lat="41.6411417" lon="2.34774"><ele>241.0</ele><time>2026-04-11T11:14:24.982Z</time></trkpt><trkpt lat="41.6409817" lon="2.3477683"><ele>238.66666666666666</ele><time>2026-04-11T11:14:25.982Z</time></trkpt><trkpt lat="41.6408133" lon="2.3478"><ele>236.33333333333331</ele><time>2026-04-11T11:14:26.982Z</time></trkpt><trkpt lat="41.6406283" lon="2.34783"><ele>234.0</ele><time>2026-04-11T11:14:27.982Z</time></trkpt><trkpt lat="41.6404567" lon="2.3478783"><ele>232.33333333333331</ele><time>2026-04-11T11:14:28.982Z</time></trkpt><trkpt lat="41.64028" lon="2.347935"><ele>230.66666666666666</ele><time>2026-04-11T11:14:29.982Z</time></trkpt><trkpt lat="41.6401233" lon="2.3479733"><ele>229.0</ele><time>2026-04-11T11:14:30.982Z</time></trkpt><trkpt lat="41.6399783" lon="2.3480233"><ele>228.25</ele><time>2026-04-11T11:14:31.982Z</time></trkpt><trkpt lat="41.6398367" lon="2.3480633"><ele>227.5</ele><time>2026-04-11T11:14:32.982Z</time></trkpt><trkpt lat="41.63969" lon="2.348105"><ele>226.75</ele><time>2026-04-11T11:14:33.983Z</time></trkpt><trkpt lat="41.6395467" lon="2.3481433"><ele>226.0</ele><time>2026-04-11T11:14:34.982Z</time></trkpt><trkpt lat="41.6394067" lon="2.3481683"><ele>226.0</ele><time>2026-04-11T11:14:35.982Z</time></trkpt><trkpt lat="41.6392633" lon="2.3481767"><ele>226.0</ele><time>2026-04-11T11:14:36.982Z</time></trkpt><trkpt lat="41.6391367" lon="2.3481683"><ele>226.0</ele><time>2026-04-11T11:14:37.982Z</time></trkpt><trkpt lat="41.6390217" lon="2.3481667"><ele>226.0</ele><time>2026-04-11T11:14:38.982Z</time></trkpt><trkpt lat="41.6388983" lon="2.3481817"><ele>226.0</ele><time>2026-04-11T11:14:39.983Z</time></trkpt><trkpt lat="41.6387583" lon="2.3481833"><ele>226.0</ele><time>2026-04-11T11:14:40.982Z</time></trkpt><trkpt lat="41.6386233" lon="2.3482017"><ele>226.0</ele><time>2026-04-11T11:14:41.982Z</time></trkpt><trkpt lat="41.6384933" lon="2.3482183"><ele>226.0</ele><time>2026-04-11T11:14:42.983Z</time></trkpt><trkpt lat="41.6383667" lon="2.3482433"><ele>224.4</ele><time>2026-04-11T11:14:43.983Z</time></trkpt><trkpt lat="41.6382617" lon="2.34827"><ele>222.8</ele><time>2026-04-11T11:14:44.982Z</time></trkpt><trkpt lat="41.638185" lon="2.34831"><ele>221.20000000000002</ele><time>2026-04-11T11:14:45.982Z</time></trkpt><trkpt lat="41.6381133" lon="2.34837"><ele>219.60000000000002</ele><time>2026-04-11T11:14:46.982Z</time></trkpt><trkpt lat="41.6380533" lon="2.348475"><ele>218.0</ele><time>2026-04-11T11:14:47.982Z</time></trkpt><trkpt lat="41.6379867" lon="2.3486017"><ele>218.0</ele><time>2026-04-11T11:14:48.982Z</time></trkpt><trkpt lat="41.637925" lon="2.3487233"><ele>218.0</ele><time>2026-04-11T11:14:49.982Z</time></trkpt><trkpt lat="41.637865" lon="2.3488383"><ele>218.0</ele><time>2026-04-11T11:14:50.982Z</time></trkpt><trkpt lat="41.6378" lon="2.3489367"><ele>218.0</ele><time>2026-04-11T11:14:51.982Z</time></trkpt><trkpt lat="41.63772" lon="2.3490317"><ele>218.0</ele><time>2026-04-11T11:14:52.982Z</time></trkpt><trkpt lat="41.6376317" lon="2.3491317"><ele>216.4</ele><time>2026-04-11T11:14:53.982Z</time></trkpt><trkpt lat="41.6375467" lon="2.3492133"><ele>214.8</ele><time>2026-04-11T11:14:54.982Z</time></trkpt><trkpt lat="41.637465" lon="2.3493017"><ele>213.2</ele><time>2026-04-11T11:14:55.982Z</time></trkpt><trkpt lat="41.6373933" lon="2.34938"><ele>211.6</ele><time>2026-04-11T11:14:56.982Z</time></trkpt><trkpt lat="41.6373233" lon="2.3494617"><ele>210.0</ele><time>2026-04-11T11:14:57.983Z</time></trkpt><trkpt lat="41.6372617" lon="2.3495417"><ele>210.0</ele><time>2026-04-11T11:14:58.983Z</time></trkpt><trkpt lat="41.6372117" lon="2.349605"><ele>210.0</ele><time>2026-04-11T11:14:59.982Z</time></trkpt><trkpt lat="41.63716" lon="2.3496583"><ele>210.0</ele><time>2026-04-11T11:15:00.982Z</time></trkpt><trkpt lat="41.6370367" lon="2.34969"><ele>210.0</ele><time>2026-04-11T11:15:02.982Z</time></trkpt><trkpt lat="41.6369667" lon="2.3496983"><ele>210.0</ele><time>2026-04-11T11:15:03.982Z</time></trkpt><trkpt lat="41.6368783" lon="2.3497367"><ele>210.0</ele><time>2026-04-11T11:15:05.982Z</time></trkpt><trkpt lat="41.6368867" lon="2.34989"><ele>207.75</ele><time>2026-04-11T11:15:07.982Z</time></trkpt><trkpt lat="41.6369067" lon="2.3500267"><ele>205.5</ele><time>2026-04-11T11:15:08.982Z</time></trkpt><trkpt lat="41.6369217" lon="2.350185"><ele>203.25</ele><time>2026-04-11T11:15:09.982Z</time></trkpt><trkpt lat="41.6369417" lon="2.3503567"><ele>201.0</ele><time>2026-04-11T11:15:10.982Z</time></trkpt><trkpt lat="41.6369583" lon="2.350525"><ele>201.0</ele><time>2026-04-11T11:15:11.982Z</time></trkpt><trkpt lat="41.63697" lon="2.3506783"><ele>201.0</ele><time>2026-04-11T11:15:12.982Z</time></trkpt><trkpt lat="41.6369717" lon="2.3508483"><ele>201.0</ele><time>2026-04-11T11:15:13.982Z</time></trkpt><trkpt lat="41.6370083" lon="2.3509917"><ele>201.0</ele><time>2026-04-11T11:15:14.982Z</time></trkpt><trkpt lat="41.637045" lon="2.351115"><ele>201.0</ele><time>2026-04-11T11:15:15.982Z</time></trkpt><trkpt lat="41.63707" lon="2.35124"><ele>201.0</ele><time>2026-04-11T11:15:16.982Z</time></trkpt><trkpt lat="41.6370867" lon="2.3513617"><ele>201.0</ele><time>2026-04-11T11:15:17.982Z</time></trkpt><trkpt lat="41.6371133" lon="2.351475"><ele>201.0</ele><time>2026-04-11T11:15:18.982Z</time></trkpt><trkpt lat="41.63713" lon="2.3516033"><ele>201.0</ele><time>2026-04-11T11:15:19.982Z</time></trkpt><trkpt lat="41.6371617" lon="2.35171"><ele>200.0</ele><time>2026-04-11T11:15:20.982Z</time></trkpt><trkpt lat="41.6371817" lon="2.3518117"><ele>199.0</ele><time>2026-04-11T11:15:21.982Z</time></trkpt><trkpt lat="41.6372" lon="2.35191"><ele>198.0</ele><time>2026-04-11T11:15:22.982Z</time></trkpt><trkpt lat="41.6372" lon="2.3520067"><ele>197.0</ele><time>2026-04-11T11:15:23.982Z</time></trkpt><trkpt lat="41.6371983" lon="2.3521683"><ele>196.0</ele><time>2026-04-11T11:15:25.982Z</time></trkpt><trkpt lat="41.6372" lon="2.35228"><ele>195.0</ele><time>2026-04-11T11:15:27.982Z</time></trkpt><trkpt lat="41.6372017" lon="2.3524217"><ele>194.83333333333334</ele><time>2026-04-11T11:15:29.982Z</time></trkpt><trkpt lat="41.6371983" lon="2.3525183"><ele>194.66666666666669</ele><time>2026-04-11T11:15:30.982Z</time></trkpt><trkpt lat="41.6372133" lon="2.352625"><ele>194.5</ele><time>2026-04-11T11:15:31.982Z</time></trkpt><trkpt lat="41.63722" lon="2.3527267"><ele>194.33333333333334</ele><time>2026-04-11T11:15:32.982Z</time></trkpt><trkpt lat="41.6372317" lon="2.3528233"><ele>194.16666666666669</ele><time>2026-04-11T11:15:33.982Z</time></trkpt><trkpt lat="41.637245" lon="2.3529267"><ele>194.0</ele><time>2026-04-11T11:15:34.982Z</time></trkpt><trkpt lat="41.6372583" lon="2.3530417"><ele>194.0</ele><time>2026-04-11T11:15:35.982Z</time></trkpt><trkpt lat="41.6372683" lon="2.35317"><ele>194.0</ele><time>2026-04-11T11:15:36.982Z</time></trkpt><trkpt lat="41.6372817" lon="2.35331"><ele>194.0</ele><time>2026-04-11T11:15:37.982Z</time></trkpt><trkpt lat="41.6373133" lon="2.35345"><ele>194.0</ele><time>2026-04-11T11:15:38.982Z</time></trkpt><trkpt lat="41.6373267" lon="2.353585"><ele>194.0</ele><time>2026-04-11T11:15:39.982Z</time></trkpt><trkpt lat="41.6373333" lon="2.3536967"><ele>194.00000000000003</ele><time>2026-04-11T11:15:40.982Z</time></trkpt><trkpt lat="41.6373333" lon="2.3537883"><ele>194.0</ele><time>2026-04-11T11:15:41.982Z</time></trkpt><trkpt lat="41.6372983" lon="2.3538667"><ele>194.0</ele><time>2026-04-11T11:15:43.982Z</time></trkpt><trkpt lat="41.6371833" lon="2.3538767"><ele>194.0</ele><time>2026-04-11T11:15:45.982Z</time></trkpt><trkpt lat="41.6370967" lon="2.3538783"><ele>194.00000000000003</ele><time>2026-04-11T11:15:46.982Z</time></trkpt><trkpt lat="41.637" lon="2.3538883"><ele>194.0</ele><time>2026-04-11T11:15:47.982Z</time></trkpt><trkpt lat="41.6369" lon="2.353885"><ele>193.83333333333334</ele><time>2026-04-11T11:15:48.982Z</time></trkpt><trkpt lat="41.63683" lon="2.3538917"><ele>193.66666666666669</ele><time>2026-04-11T11:15:49.981Z</time></trkpt><trkpt lat="41.6367617" lon="2.3538667"><ele>193.5</ele><time>2026-04-11T11:15:51.981Z</time></trkpt><trkpt lat="41.636745" lon="2.3539633"><ele>193.33333333333331</ele><time>2026-04-11T11:16:00.981Z</time></trkpt><trkpt lat="41.63675" lon="2.3540767"><ele>193.16666666666666</ele><time>2026-04-11T11:16:01.982Z</time></trkpt><trkpt lat="41.6367633" lon="2.3542017"><ele>193.0</ele><time>2026-04-11T11:16:02.981Z</time></trkpt><trkpt lat="41.6367767" lon="2.35433"><ele>192.99999999999997</ele><time>2026-04-11T11:16:03.981Z</time></trkpt><trkpt lat="41.6367883" lon="2.3544417"><ele>193.0</ele><time>2026-04-11T11:16:04.982Z</time></trkpt><trkpt lat="41.63679" lon="2.3545417"><ele>193.0</ele><time>2026-04-11T11:16:05.981Z</time></trkpt><trkpt lat="41.6367967" lon="2.35464"><ele>193.0</ele><time>2026-04-11T11:16:06.982Z</time></trkpt><trkpt lat="41.636825" lon="2.354795"><ele>192.99999999999997</ele><time>2026-04-11T11:16:08.982Z</time></trkpt><trkpt lat="41.63683" lon="2.35491"><ele>193.0</ele><time>2026-04-11T11:16:10.981Z</time></trkpt><trkpt lat="41.6367983" lon="2.35506"><ele>192.99999999999997</ele><time>2026-04-11T11:16:31.981Z</time></trkpt><trkpt lat="41.6368033" lon="2.3551533"><ele>193.0</ele><time>2026-04-11T11:16:32.981Z</time></trkpt><trkpt lat="41.636815" lon="2.3552567"><ele>193.0</ele><time>2026-04-11T11:16:33.981Z</time></trkpt><trkpt lat="41.6368233" lon="2.3553683"><ele>193.0</ele><time>2026-04-11T11:16:34.981Z</time></trkpt><trkpt lat="41.6368317" lon="2.355485"><ele>192.99999999999997</ele><time>2026-04-11T11:16:35.981Z</time></trkpt><trkpt lat="41.63684" lon="2.3555983"><ele>193.0</ele><time>2026-04-11T11:16:36.981Z</time></trkpt><trkpt lat="41.6368517" lon="2.3557067"><ele>193.00000000000003</ele><time>2026-04-11T11:16:37.981Z</time></trkpt><trkpt lat="41.6368617" lon="2.3558033"><ele>193.0</ele><time>2026-04-11T11:16:38.981Z</time></trkpt><trkpt lat="41.6368617" lon="2.3559017"><ele>193.0</ele><time>2026-04-11T11:16:39.981Z</time></trkpt><trkpt lat="41.63687" lon="2.356005"><ele>193.0</ele><time>2026-04-11T11:16:40.981Z</time></trkpt><trkpt lat="41.6368767" lon="2.3561"><ele>193.0</ele><time>2026-04-11T11:16:41.981Z</time></trkpt><trkpt lat="41.6368817" lon="2.3561883"><ele>193.00000000000003</ele><time>2026-04-11T11:16:42.981Z</time></trkpt><trkpt lat="41.63689" lon="2.356285"><ele>193.0</ele><time>2026-04-11T11:16:43.981Z</time></trkpt><trkpt lat="41.6368933" lon="2.3563867"><ele>193.2</ele><time>2026-04-11T11:16:44.981Z</time></trkpt><trkpt lat="41.6368983" lon="2.3565467"><ele>193.4</ele><time>2026-04-11T11:16:46.981Z</time></trkpt><trkpt lat="41.6369033" lon="2.3566383"><ele>193.6</ele><time>2026-04-11T11:16:47.981Z</time></trkpt><trkpt lat="41.6369083" lon="2.3567433"><ele>193.79999999999998</ele><time>2026-04-11T11:16:48.981Z</time></trkpt><trkpt lat="41.6369133" lon="2.3568717"><ele>194.0</ele><time>2026-04-11T11:16:49.981Z</time></trkpt><trkpt lat="41.6369183" lon="2.357"><ele>194.00000000000003</ele><time>2026-04-11T11:16:50.981Z</time></trkpt><trkpt lat="41.6369283" lon="2.3571267"><ele>194.0</ele><time>2026-04-11T11:16:51.981Z</time></trkpt><trkpt lat="41.6369367" lon="2.3572433"><ele>194.0</ele><time>2026-04-11T11:16:52.981Z</time></trkpt><trkpt lat="41.6369483" lon="2.3573483"><ele>194.0</ele><time>2026-04-11T11:16:53.981Z</time></trkpt><trkpt lat="41.6369517" lon="2.357445"><ele>194.00000000000003</ele><time>2026-04-11T11:16:54.981Z</time></trkpt><trkpt lat="41.6369517" lon="2.3575367"><ele>194.0</ele><time>2026-04-11T11:16:55.981Z</time></trkpt><trkpt lat="41.6369533" lon="2.3576317"><ele>194.16666666666669</ele><time>2026-04-11T11:16:56.981Z</time></trkpt><trkpt lat="41.6369633" lon="2.3577367"><ele>194.33333333333334</ele><time>2026-04-11T11:16:57.981Z</time></trkpt><trkpt lat="41.63696" lon="2.3578533"><ele>194.5</ele><time>2026-04-11T11:16:58.981Z</time></trkpt><trkpt lat="41.6369667" lon="2.357955"><ele>194.66666666666669</ele><time>2026-04-11T11:16:59.981Z</time></trkpt><trkpt lat="41.6369767" lon="2.3580567"><ele>194.83333333333334</ele><time>2026-04-11T11:17:00.981Z</time></trkpt><trkpt lat="41.63698" lon="2.3581567"><ele>195.0</ele><time>2026-04-11T11:17:01.981Z</time></trkpt><trkpt lat="41.63699" lon="2.3582533"><ele>195.33333333333334</ele><time>2026-04-11T11:17:02.981Z</time></trkpt><trkpt lat="41.637005" lon="2.3583583"><ele>195.66666666666669</ele><time>2026-04-11T11:17:03.981Z</time></trkpt><trkpt lat="41.6370233" lon="2.3584733"><ele>196.0</ele><time>2026-04-11T11:17:04.981Z</time></trkpt><trkpt lat="41.6370333" lon="2.35859"><ele>196.33333333333334</ele><time>2026-04-11T11:17:05.981Z</time></trkpt><trkpt lat="41.6370433" lon="2.3587033"><ele>196.66666666666669</ele><time>2026-04-11T11:17:06.981Z</time></trkpt><trkpt lat="41.6370617" lon="2.3588017"><ele>197.0</ele><time>2026-04-11T11:17:07.981Z</time></trkpt><trkpt lat="41.6370767" lon="2.358895"><ele>197.2</ele><time>2026-04-11T11:17:08.981Z</time></trkpt><trkpt lat="41.6370917" lon="2.3590433"><ele>197.39999999999998</ele><time>2026-04-11T11:17:10.981Z</time></trkpt><trkpt lat="41.6370967" lon="2.3591467"><ele>197.60000000000002</ele><time>2026-04-11T11:17:12.981Z</time></trkpt><trkpt lat="41.6370983" lon="2.3593283"><ele>197.8</ele><time>2026-04-11T11:18:17.981Z</time></trkpt><trkpt lat="41.637065" lon="2.3594117"><ele>198.0</ele><time>2026-04-11T11:18:19.981Z</time></trkpt><trkpt lat="41.6369783" lon="2.3594483"><ele>197.60000000000002</ele><time>2026-04-11T11:18:21.981Z</time></trkpt><trkpt lat="41.6368783" lon="2.3595067"><ele>197.20000000000002</ele><time>2026-04-11T11:18:23.981Z</time></trkpt><trkpt lat="41.6368017" lon="2.3595633"><ele>196.8</ele><time>2026-04-11T11:18:25.981Z</time></trkpt><trkpt lat="41.6367483" lon="2.359615"><ele>196.4</ele><time>2026-04-11T11:18:27.981Z</time></trkpt><trkpt lat="41.6366517" lon="2.3597167"><ele>196.0</ele><time>2026-04-11T11:18:39.981Z</time></trkpt><trkpt lat="41.6365867" lon="2.3597783"><ele>195.8</ele><time>2026-04-11T11:18:40.981Z</time></trkpt><trkpt lat="41.6365" lon="2.3598583"><ele>195.60000000000002</ele><time>2026-04-11T11:18:41.981Z</time></trkpt><trkpt lat="41.636405" lon="2.3599517"><ele>195.4</ele><time>2026-04-11T11:18:42.981Z</time></trkpt><trkpt lat="41.6363283" lon="2.3600317"><ele>195.2</ele><time>2026-04-11T11:18:43.981Z</time></trkpt><trkpt lat="41.63625" lon="2.3600917"><ele>195.0</ele><time>2026-04-11T11:18:44.981Z</time></trkpt><trkpt lat="41.6361833" lon="2.3601567"><ele>194.66666666666666</ele><time>2026-04-11T11:18:45.981Z</time></trkpt><trkpt lat="41.63612" lon="2.360215"><ele>194.33333333333331</ele><time>2026-04-11T11:18:46.981Z</time></trkpt><trkpt lat="41.6360467" lon="2.3602767"><ele>194.0</ele><time>2026-04-11T11:18:47.981Z</time></trkpt><trkpt lat="41.63598" lon="2.3603317"><ele>193.66666666666666</ele><time>2026-04-11T11:18:48.981Z</time></trkpt><trkpt lat="41.6359133" lon="2.3603833"><ele>193.33333333333331</ele><time>2026-04-11T11:18:49.981Z</time></trkpt><trkpt lat="41.635855" lon="2.3604417"><ele>193.0</ele><time>2026-04-11T11:18:50.981Z</time></trkpt><trkpt lat="41.6358" lon="2.360495"><ele>193.0</ele><time>2026-04-11T11:18:51.981Z</time></trkpt><trkpt lat="41.6357233" lon="2.3605967"><ele>193.0</ele><time>2026-04-11T11:18:53.981Z</time></trkpt><trkpt lat="41.6356333" lon="2.3606333"><ele>193.0</ele><time>2026-04-11T11:18:55.981Z</time></trkpt><trkpt lat="41.6355083" lon="2.360655"><ele>193.0</ele><time>2026-04-11T11:18:57.981Z</time></trkpt><trkpt lat="41.63544" lon="2.3606767"><ele>193.0</ele><time>2026-04-11T11:18:58.981Z</time></trkpt><trkpt lat="41.6353783" lon="2.360695"><ele>192.60000000000002</ele><time>2026-04-11T11:18:59.981Z</time></trkpt><trkpt lat="41.6352517" lon="2.3607267"><ele>192.20000000000002</ele><time>2026-04-11T11:19:01.981Z</time></trkpt><trkpt lat="41.635185" lon="2.3608067"><ele>191.8</ele><time>2026-04-11T11:19:02.981Z</time></trkpt><trkpt lat="41.6351017" lon="2.3608317"><ele>191.4</ele><time>2026-04-11T11:19:04.981Z</time></trkpt><trkpt lat="41.6350717" lon="2.3609617"><ele>191.0</ele><time>2026-04-11T11:19:13.982Z</time></trkpt><trkpt lat="41.63503" lon="2.3611417"><ele>191.0</ele><time>2026-04-11T11:19:15.981Z</time></trkpt><trkpt lat="41.6349883" lon="2.3612483"><ele>191.0</ele><time>2026-04-11T11:19:16.981Z</time></trkpt><trkpt lat="41.6349517" lon="2.3613433"><ele>191.0</ele><time>2026-04-11T11:19:17.981Z</time></trkpt><trkpt lat="41.6349267" lon="2.3614283"><ele>191.0</ele><time>2026-04-11T11:19:18.981Z</time></trkpt><trkpt lat="41.6349" lon="2.361575"><ele>191.0</ele><time>2026-04-11T11:19:20.981Z</time></trkpt><trkpt lat="41.6348717" lon="2.36174"><ele>190.8</ele><time>2026-04-11T11:19:22.981Z</time></trkpt><trkpt lat="41.6348383" lon="2.361845"><ele>190.60000000000002</ele><time>2026-04-11T11:19:23.981Z</time></trkpt><trkpt lat="41.6348017" lon="2.3619633"><ele>190.4</ele><time>2026-04-11T11:19:24.981Z</time></trkpt><trkpt lat="41.634765" lon="2.3620767"><ele>190.2</ele><time>2026-04-11T11:19:25.981Z</time></trkpt><trkpt lat="41.6347267" lon="2.36219"><ele>190.0</ele><time>2026-04-11T11:19:26.981Z</time></trkpt><trkpt lat="41.6346783" lon="2.36231"><ele>189.8</ele><time>2026-04-11T11:19:27.981Z</time></trkpt><trkpt lat="41.6346333" lon="2.3624233"><ele>189.6</ele><time>2026-04-11T11:19:28.981Z</time></trkpt><trkpt lat="41.63459" lon="2.3625317"><ele>189.39999999999998</ele><time>2026-04-11T11:19:29.981Z</time></trkpt><trkpt lat="41.6345383" lon="2.3626533"><ele>189.2</ele><time>2026-04-11T11:19:30.981Z</time></trkpt><trkpt lat="41.634485" lon="2.3627867"><ele>189.0</ele><time>2026-04-11T11:19:31.981Z</time></trkpt><trkpt lat="41.6344317" lon="2.3629183"><ele>189.0</ele><time>2026-04-11T11:19:32.981Z</time></trkpt><trkpt lat="41.6343783" lon="2.3630383"><ele>189.0</ele><time>2026-04-11T11:19:33.981Z</time></trkpt><trkpt lat="41.6343333" lon="2.36316"><ele>189.0</ele><time>2026-04-11T11:19:34.981Z</time></trkpt><trkpt lat="41.6342883" lon="2.363275"><ele>189.0</ele><time>2026-04-11T11:19:35.981Z</time></trkpt><trkpt lat="41.6342417" lon="2.363395"><ele>189.0</ele><time>2026-04-11T11:19:36.981Z</time></trkpt><trkpt lat="41.6341983" lon="2.36353"><ele>189.0</ele><time>2026-04-11T11:19:37.981Z</time></trkpt><trkpt lat="41.6341467" lon="2.363665"><ele>189.0</ele><time>2026-04-11T11:19:38.981Z</time></trkpt><trkpt lat="41.6340933" lon="2.363785"><ele>189.0</ele><time>2026-04-11T11:19:39.982Z</time></trkpt><trkpt lat="41.63404" lon="2.3639133"><ele>189.0</ele><time>2026-04-11T11:19:40.981Z</time></trkpt><trkpt lat="41.63399" lon="2.3640467"><ele>189.0</ele><time>2026-04-11T11:19:41.981Z</time></trkpt><trkpt lat="41.63394" lon="2.3641633"><ele>189.16666666666666</ele><time>2026-04-11T11:19:42.981Z</time></trkpt><trkpt lat="41.63389" lon="2.3642533"><ele>189.33333333333334</ele><time>2026-04-11T11:19:43.981Z</time></trkpt><trkpt lat="41.6338317" lon="2.3643183"><ele>189.5</ele><time>2026-04-11T11:19:44.981Z</time></trkpt><trkpt lat="41.63376" lon="2.3643583"><ele>189.66666666666669</ele><time>2026-04-11T11:19:45.981Z</time></trkpt><trkpt lat="41.6336683" lon="2.364365"><ele>189.83333333333334</ele><time>2026-04-11T11:19:46.981Z</time></trkpt><trkpt lat="41.6335567" lon="2.3643683"><ele>190.0</ele><time>2026-04-11T11:19:47.981Z</time></trkpt><trkpt lat="41.6334517" lon="2.3643767"><ele>189.0</ele><time>2026-04-11T11:19:48.981Z</time></trkpt><trkpt lat="41.63336" lon="2.364385"><ele>188.0</ele><time>2026-04-11T11:19:49.982Z</time></trkpt><trkpt lat="41.6332783" lon="2.3644083"><ele>187.0</ele><time>2026-04-11T11:19:50.981Z</time></trkpt><trkpt lat="41.6332133" lon="2.3644417"><ele>186.0</ele><time>2026-04-11T11:19:51.981Z</time></trkpt><trkpt lat="41.63313" lon="2.364585"><ele>185.0</ele><time>2026-04-11T11:19:53.981Z</time></trkpt><trkpt lat="41.6330917" lon="2.3646933"><ele>185.5</ele><time>2026-04-11T11:19:54.981Z</time></trkpt><trkpt lat="41.6330367" lon="2.3648183"><ele>186.0</ele><time>2026-04-11T11:19:55.981Z</time></trkpt><trkpt lat="41.63297" lon="2.364955"><ele>186.5</ele><time>2026-04-11T11:19:56.981Z</time></trkpt><trkpt lat="41.6328917" lon="2.3650967"><ele>187.0</ele><time>2026-04-11T11:19:57.981Z</time></trkpt><trkpt lat="41.632805" lon="2.36525"><ele>186.0</ele><time>2026-04-11T11:19:58.982Z</time></trkpt><trkpt lat="41.6327083" lon="2.3654167"><ele>185.0</ele><time>2026-04-11T11:19:59.981Z</time></trkpt><trkpt lat="41.6326083" lon="2.3655867"><ele>184.0</ele><time>2026-04-11T11:20:00.981Z</time></trkpt><trkpt lat="41.6324967" lon="2.3657633"><ele>184.0</ele><time>2026-04-11T11:20:01.981Z</time></trkpt><trkpt lat="41.6323833" lon="2.3659367"><ele>184.0</ele><time>2026-04-11T11:20:02.981Z</time></trkpt><trkpt lat="41.6322767" lon="2.3660883"><ele>184.0</ele><time>2026-04-11T11:20:03.981Z</time></trkpt><trkpt lat="41.6321633" lon="2.3662317"><ele>184.0</ele><time>2026-04-11T11:20:04.981Z</time></trkpt><trkpt lat="41.632045" lon="2.3663467"><ele>184.0</ele><time>2026-04-11T11:20:05.981Z</time></trkpt><trkpt lat="41.631915" lon="2.3664383"><ele>184.0</ele><time>2026-04-11T11:20:06.981Z</time></trkpt><trkpt lat="41.6317867" lon="2.3665183"><ele>184.0</ele><time>2026-04-11T11:20:07.981Z</time></trkpt><trkpt lat="41.6316617" lon="2.3666017"><ele>184.25</ele><time>2026-04-11T11:20:08.981Z</time></trkpt><trkpt lat="41.6315567" lon="2.36671"><ele>184.5</ele><time>2026-04-11T11:20:09.982Z</time></trkpt><trkpt lat="41.631465" lon="2.3668333"><ele>184.75</ele><time>2026-04-11T11:20:10.981Z</time></trkpt><trkpt lat="41.63138" lon="2.3669833"><ele>185.0</ele><time>2026-04-11T11:20:11.981Z</time></trkpt><trkpt lat="41.6313067" lon="2.3671467"><ele>185.6</ele><time>2026-04-11T11:20:12.981Z</time></trkpt><trkpt lat="41.6312533" lon="2.3673133"><ele>186.2</ele><time>2026-04-11T11:20:13.981Z</time></trkpt><trkpt lat="41.63121" lon="2.3674633"><ele>186.8</ele><time>2026-04-11T11:20:14.981Z</time></trkpt><trkpt lat="41.6311733" lon="2.36758"><ele>187.4</ele><time>2026-04-11T11:20:15.981Z</time></trkpt><trkpt lat="41.6311183" lon="2.3676683"><ele>188.0</ele><time>2026-04-11T11:20:16.981Z</time></trkpt><trkpt lat="41.6310617" lon="2.3677183"><ele>188.0</ele><time>2026-04-11T11:20:17.981Z</time></trkpt><trkpt lat="41.630985" lon="2.3677283"><ele>188.0</ele><time>2026-04-11T11:20:18.981Z</time></trkpt><trkpt lat="41.6308717" lon="2.36769"><ele>188.0</ele><time>2026-04-11T11:20:19.981Z</time></trkpt><trkpt lat="41.6307233" lon="2.3676383"><ele>188.0</ele><time>2026-04-11T11:20:20.981Z</time></trkpt><trkpt lat="41.630515" lon="2.3675517"><ele>188.0</ele><time>2026-04-11T11:20:21.981Z</time></trkpt><trkpt lat="41.6303267" lon="2.3674983"><ele>188.0</ele><time>2026-04-11T11:20:22.981Z</time></trkpt><trkpt lat="41.6301317" lon="2.3674483"><ele>188.0</ele><time>2026-04-11T11:20:23.981Z</time></trkpt><trkpt lat="41.6299267" lon="2.367405"><ele>187.66666666666666</ele><time>2026-04-11T11:20:24.982Z</time></trkpt><trkpt lat="41.6297183" lon="2.3673833"><ele>187.33333333333334</ele><time>2026-04-11T11:20:25.981Z</time></trkpt><trkpt lat="41.6295317" lon="2.367385"><ele>187.0</ele><time>2026-04-11T11:20:26.981Z</time></trkpt><trkpt lat="41.629345" lon="2.3673933"><ele>186.0</ele><time>2026-04-11T11:20:27.981Z</time></trkpt><trkpt lat="41.62916" lon="2.3674033"><ele>185.0</ele><time>2026-04-11T11:20:28.981Z</time></trkpt><trkpt lat="41.628975" lon="2.36742"><ele>184.0</ele><time>2026-04-11T11:20:29.981Z</time></trkpt><trkpt lat="41.6287883" lon="2.36742"><ele>182.66666666666669</ele><time>2026-04-11T11:20:30.981Z</time></trkpt><trkpt lat="41.6286183" lon="2.3674167"><ele>181.33333333333334</ele><time>2026-04-11T11:20:31.981Z</time></trkpt><trkpt lat="41.6284583" lon="2.3674067"><ele>180.0</ele><time>2026-04-11T11:20:32.981Z</time></trkpt><trkpt lat="41.62831" lon="2.3674167"><ele>180.0</ele><time>2026-04-11T11:20:33.981Z</time></trkpt><trkpt lat="41.6281583" lon="2.3674383"><ele>180.0</ele><time>2026-04-11T11:20:34.982Z</time></trkpt><trkpt lat="41.6280067" lon="2.3674483"><ele>180.0</ele><time>2026-04-11T11:20:35.981Z</time></trkpt><trkpt lat="41.62787" lon="2.3674517"><ele>180.0</ele><time>2026-04-11T11:20:36.981Z</time></trkpt><trkpt lat="41.6277383" lon="2.36745"><ele>179.0</ele><time>2026-04-11T11:20:37.981Z</time></trkpt><trkpt lat="41.6276067" lon="2.3674433"><ele>178.0</ele><time>2026-04-11T11:20:38.981Z</time></trkpt><trkpt lat="41.6274817" lon="2.3674333"><ele>177.0</ele><time>2026-04-11T11:20:39.981Z</time></trkpt><trkpt lat="41.627345" lon="2.36744"><ele>176.0</ele><time>2026-04-11T11:20:40.981Z</time></trkpt><trkpt lat="41.6272233" lon="2.3674383"><ele>176.0</ele><time>2026-04-11T11:20:41.981Z</time></trkpt><trkpt lat="41.6271267" lon="2.3674317"><ele>176.0</ele><time>2026-04-11T11:20:42.981Z</time></trkpt><trkpt lat="41.6270533" lon="2.36743"><ele>176.0</ele><time>2026-04-11T11:20:43.981Z</time></trkpt><trkpt lat="41.627" lon="2.3673817"><ele>176.0</ele><time>2026-04-11T11:20:45.981Z</time></trkpt><trkpt lat="41.6270083" lon="2.36728"><ele>176.0</ele><time>2026-04-11T11:20:46.981Z</time></trkpt><trkpt lat="41.62701" lon="2.3671733"><ele>176.0</ele><time>2026-04-11T11:20:47.981Z</time></trkpt><trkpt lat="41.6270033" lon="2.3670733"><ele>176.20000000000002</ele><time>2026-04-11T11:20:48.981Z</time></trkpt><trkpt lat="41.626965" lon="2.3669317"><ele>176.4</ele><time>2026-04-11T11:20:50.981Z</time></trkpt><trkpt lat="41.6268767" lon="2.3669017"><ele>176.6</ele><time>2026-04-11T11:20:52.981Z</time></trkpt><trkpt lat="41.626795" lon="2.3669"><ele>176.8</ele><time>2026-04-11T11:20:53.981Z</time></trkpt><trkpt lat="41.6266983" lon="2.3669067"><ele>177.0</ele><time>2026-04-11T11:20:54.981Z</time></trkpt><trkpt lat="41.62659" lon="2.3669"><ele>177.0</ele><time>2026-04-11T11:20:55.981Z</time></trkpt><trkpt lat="41.6264767" lon="2.3669083"><ele>177.0</ele><time>2026-04-11T11:20:56.981Z</time></trkpt><trkpt lat="41.6263617" lon="2.366925"><ele>177.0</ele><time>2026-04-11T11:20:57.981Z</time></trkpt><trkpt lat="41.6262483" lon="2.3669233"><ele>177.0</ele><time>2026-04-11T11:20:58.981Z</time></trkpt><trkpt lat="41.62616" lon="2.366925"><ele>177.0</ele><time>2026-04-11T11:20:59.982Z</time></trkpt><trkpt lat="41.6260833" lon="2.366935"><ele>176.83333333333334</ele><time>2026-04-11T11:21:00.981Z</time></trkpt><trkpt lat="41.6260033" lon="2.3669367"><ele>176.66666666666666</ele><time>2026-04-11T11:21:01.981Z</time></trkpt><trkpt lat="41.62593" lon="2.366935"><ele>176.5</ele><time>2026-04-11T11:21:02.981Z</time></trkpt><trkpt lat="41.62586" lon="2.3669417"><ele>176.33333333333331</ele><time>2026-04-11T11:21:03.981Z</time></trkpt><trkpt lat="41.6257817" lon="2.36697"><ele>176.16666666666666</ele><time>2026-04-11T11:21:05.981Z</time></trkpt><trkpt lat="41.6256667" lon="2.3669483"><ele>176.0</ele><time>2026-04-11T11:21:08.981Z</time></trkpt><trkpt lat="41.625595" lon="2.3669517"><ele>176.0</ele><time>2026-04-11T11:21:09.981Z</time></trkpt><trkpt lat="41.625505" lon="2.3669617"><ele>176.0</ele><time>2026-04-11T11:21:10.981Z</time></trkpt><trkpt lat="41.6253933" lon="2.3669683"><ele>176.0</ele><time>2026-04-11T11:21:11.981Z</time></trkpt><trkpt lat="41.6252867" lon="2.366985"><ele>176.0</ele><time>2026-04-11T11:21:12.981Z</time></trkpt><trkpt lat="41.6252033" lon="2.367005"><ele>176.0</ele><time>2026-04-11T11:21:13.981Z</time></trkpt><trkpt lat="41.6251417" lon="2.36704"><ele>175.20000000000002</ele><time>2026-04-11T11:21:14.981Z</time></trkpt><trkpt lat="41.6250833" lon="2.3671683"><ele>174.4</ele><time>2026-04-11T11:21:16.981Z</time></trkpt><trkpt lat="41.6250717" lon="2.3672667"><ele>173.6</ele><time>2026-04-11T11:21:17.981Z</time></trkpt><trkpt lat="41.62508" lon="2.367395"><ele>172.8</ele><time>2026-04-11T11:21:18.981Z</time></trkpt><trkpt lat="41.62509" lon="2.3675483"><ele>172.0</ele><time>2026-04-11T11:21:19.981Z</time></trkpt><trkpt lat="41.6251033" lon="2.3676933"><ele>172.0</ele><time>2026-04-11T11:21:20.981Z</time></trkpt><trkpt lat="41.62511" lon="2.3678217"><ele>172.0</ele><time>2026-04-11T11:21:21.981Z</time></trkpt><trkpt lat="41.6251067" lon="2.3679367"><ele>172.0</ele><time>2026-04-11T11:21:22.981Z</time></trkpt><trkpt lat="41.6251067" lon="2.36803"><ele>172.0</ele><time>2026-04-11T11:21:23.981Z</time></trkpt><trkpt lat="41.6251017" lon="2.36819"><ele>172.0</ele><time>2026-04-11T11:21:25.981Z</time></trkpt><trkpt lat="41.6250767" lon="2.3683167"><ele>171.2</ele><time>2026-04-11T11:21:27.981Z</time></trkpt><trkpt lat="41.6250133" lon="2.368395"><ele>170.39999999999998</ele><time>2026-04-11T11:21:29.981Z</time></trkpt><trkpt lat="41.6249383" lon="2.368415"><ele>169.60000000000002</ele><time>2026-04-11T11:21:30.981Z</time></trkpt><trkpt lat="41.624835" lon="2.3684283"><ele>168.8</ele><time>2026-04-11T11:21:31.982Z</time></trkpt><trkpt lat="41.6247283" lon="2.36844"><ele>168.0</ele><time>2026-04-11T11:21:32.981Z</time></trkpt><trkpt lat="41.6246117" lon="2.3684733"><ele>168.0</ele><time>2026-04-11T11:21:33.981Z</time></trkpt><trkpt lat="41.6244833" lon="2.368485"><ele>168.0</ele><time>2026-04-11T11:21:34.982Z</time></trkpt><trkpt lat="41.6243467" lon="2.3685"><ele>168.0</ele><time>2026-04-11T11:21:35.981Z</time></trkpt><trkpt lat="41.6242033" lon="2.3685133"><ele>168.0</ele><time>2026-04-11T11:21:36.981Z</time></trkpt><trkpt lat="41.6240817" lon="2.3684883"><ele>168.0</ele><time>2026-04-11T11:21:37.98Z</time></trkpt><trkpt lat="41.6239833" lon="2.3684183"><ele>168.0</ele><time>2026-04-11T11:21:38.98Z</time></trkpt><trkpt lat="41.6239067" lon="2.3683183"><ele>168.0</ele><time>2026-04-11T11:21:39.98Z</time></trkpt><trkpt lat="41.623845" lon="2.3682133"><ele>168.0</ele><time>2026-04-11T11:21:40.98Z</time></trkpt><trkpt lat="41.6237867" lon="2.3681183"><ele>168.0</ele><time>2026-04-11T11:21:41.98Z</time></trkpt><trkpt lat="41.623735" lon="2.368055"><ele>168.0</ele><time>2026-04-11T11:21:42.98Z</time></trkpt><trkpt lat="41.6236467" lon="2.3680517"><ele>168.0</ele><time>2026-04-11T11:21:44.98Z</time></trkpt><trkpt lat="41.6236417" lon="2.3681867"><ele>168.0</ele><time>2026-04-11T11:21:46.98Z</time></trkpt><trkpt lat="41.6236733" lon="2.3682833"><ele>168.0</ele><time>2026-04-11T11:21:47.98Z</time></trkpt><trkpt lat="41.6237233" lon="2.3684"><ele>168.0</ele><time>2026-04-11T11:21:48.98Z</time></trkpt><trkpt lat="41.6238033" lon="2.3685483"><ele>168.0</ele><time>2026-04-11T11:21:49.98Z</time></trkpt><trkpt lat="41.62389" lon="2.3687133"><ele>168.0</ele><time>2026-04-11T11:21:50.98Z</time></trkpt><trkpt lat="41.6239733" lon="2.3688717"><ele>168.0</ele><time>2026-04-11T11:21:51.98Z</time></trkpt><trkpt lat="41.62405" lon="2.36901"><ele>168.0</ele><time>2026-04-11T11:21:52.98Z</time></trkpt><trkpt lat="41.62412" lon="2.3691433"><ele>167.4</ele><time>2026-04-11T11:21:53.98Z</time></trkpt><trkpt lat="41.6241883" lon="2.36926"><ele>166.8</ele><time>2026-04-11T11:21:54.98Z</time></trkpt><trkpt lat="41.624255" lon="2.36938"><ele>166.2</ele><time>2026-04-11T11:21:55.98Z</time></trkpt><trkpt lat="41.6243267" lon="2.3694817"><ele>165.6</ele><time>2026-04-11T11:21:56.98Z</time></trkpt><trkpt lat="41.62438" lon="2.3695833"><ele>165.0</ele><time>2026-04-11T11:21:57.98Z</time></trkpt><trkpt lat="41.624415" lon="2.3696883"><ele>164.25</ele><time>2026-04-11T11:21:58.98Z</time></trkpt><trkpt lat="41.6244383" lon="2.3698033"><ele>163.5</ele><time>2026-04-11T11:21:59.98Z</time></trkpt><trkpt lat="41.6244517" lon="2.3699467"><ele>162.75</ele><time>2026-04-11T11:22:00.98Z</time></trkpt><trkpt lat="41.6244583" lon="2.370125"><ele>162.0</ele><time>2026-04-11T11:22:01.98Z</time></trkpt><trkpt lat="41.6244583" lon="2.3703017"><ele>162.0</ele><time>2026-04-11T11:22:02.981Z</time></trkpt><trkpt lat="41.6244733" lon="2.3704467"><ele>162.0</ele><time>2026-04-11T11:22:03.98Z</time></trkpt><trkpt lat="41.6244917" lon="2.3706117"><ele>162.0</ele><time>2026-04-11T11:22:04.98Z</time></trkpt><trkpt lat="41.6245017" lon="2.37076"><ele>162.0</ele><time>2026-04-11T11:22:05.98Z</time></trkpt><trkpt lat="41.62451" lon="2.37092"><ele>161.6</ele><time>2026-04-11T11:22:06.98Z</time></trkpt><trkpt lat="41.6245167" lon="2.3710633"><ele>161.2</ele><time>2026-04-11T11:22:07.98Z</time></trkpt><trkpt lat="41.6245233" lon="2.3712033"><ele>160.8</ele><time>2026-04-11T11:22:08.98Z</time></trkpt><trkpt lat="41.62453" lon="2.3713467"><ele>160.4</ele><time>2026-04-11T11:22:09.98Z</time></trkpt><trkpt lat="41.6245433" lon="2.3715033"><ele>160.0</ele><time>2026-04-11T11:22:10.98Z</time></trkpt><trkpt lat="41.624565" lon="2.3716833"><ele>160.0</ele><time>2026-04-11T11:22:11.98Z</time></trkpt><trkpt lat="41.62459" lon="2.3718817"><ele>160.0</ele><time>2026-04-11T11:22:12.98Z</time></trkpt><trkpt lat="41.624615" lon="2.3720967"><ele>160.0</ele><time>2026-04-11T11:22:13.98Z</time></trkpt><trkpt lat="41.62466" lon="2.37229"><ele>160.66666666666669</ele><time>2026-04-11T11:22:14.98Z</time></trkpt><trkpt lat="41.624685" lon="2.3725267"><ele>161.33333333333334</ele><time>2026-04-11T11:22:15.98Z</time></trkpt><trkpt lat="41.6247133" lon="2.3727733"><ele>162.0</ele><time>2026-04-11T11:22:16.98Z</time></trkpt><trkpt lat="41.6247433" lon="2.373005"><ele>163.33333333333334</ele><time>2026-04-11T11:22:17.98Z</time></trkpt><trkpt lat="41.6247767" lon="2.3732167"><ele>164.66666666666669</ele><time>2026-04-11T11:22:18.98Z</time></trkpt><trkpt lat="41.624825" lon="2.3734317"><ele>166.0</ele><time>2026-04-11T11:22:19.98Z</time></trkpt><trkpt lat="41.6248667" lon="2.3736333"><ele>168.66666666666669</ele><time>2026-04-11T11:22:20.98Z</time></trkpt><trkpt lat="41.6248983" lon="2.3738667"><ele>171.33333333333334</ele><time>2026-04-11T11:22:21.98Z</time></trkpt><trkpt lat="41.6249" lon="2.3741167"><ele>174.0</ele><time>2026-04-11T11:22:22.98Z</time></trkpt><trkpt lat="41.6249317" lon="2.3743317"><ele>174.0</ele><time>2026-04-11T11:22:23.98Z</time></trkpt><trkpt lat="41.6249517" lon="2.3745517"><ele>174.0</ele><time>2026-04-11T11:22:24.98Z</time></trkpt><trkpt lat="41.6249733" lon="2.37479"><ele>174.0</ele><time>2026-04-11T11:22:25.98Z</time></trkpt><trkpt lat="41.6249983" lon="2.37503"><ele>174.33333333333334</ele><time>2026-04-11T11:22:26.98Z</time></trkpt><trkpt lat="41.6250133" lon="2.3752867"><ele>174.66666666666669</ele><time>2026-04-11T11:22:27.98Z</time></trkpt><trkpt lat="41.6250333" lon="2.3755283"><ele>175.0</ele><time>2026-04-11T11:22:28.98Z</time></trkpt><trkpt lat="41.6250517" lon="2.375765"><ele>175.0</ele><time>2026-04-11T11:22:29.98Z</time></trkpt><trkpt lat="41.625095" lon="2.376"><ele>175.0</ele><time>2026-04-11T11:22:30.98Z</time></trkpt><trkpt lat="41.625135" lon="2.37621"><ele>175.0</ele><time>2026-04-11T11:22:31.98Z</time></trkpt><trkpt lat="41.62517" lon="2.3763967"><ele>176.66666666666669</ele><time>2026-04-11T11:22:32.98Z</time></trkpt><trkpt lat="41.6252233" lon="2.3765817"><ele>178.33333333333334</ele><time>2026-04-11T11:22:33.98Z</time></trkpt><trkpt lat="41.6252867" lon="2.3767817"><ele>180.0</ele><time>2026-04-11T11:22:34.98Z</time></trkpt><trkpt lat="41.625355" lon="2.376995"><ele>176.66666666666666</ele><time>2026-04-11T11:22:35.98Z</time></trkpt><trkpt lat="41.62543" lon="2.37723"><ele>173.33333333333331</ele><time>2026-04-11T11:22:36.98Z</time></trkpt><trkpt lat="41.6255117" lon="2.37748"><ele>170.0</ele><time>2026-04-11T11:22:37.98Z</time></trkpt><trkpt lat="41.625605" lon="2.3777317"><ele>170.0</ele><time>2026-04-11T11:22:38.98Z</time></trkpt><trkpt lat="41.62572" lon="2.3779817"><ele>170.0</ele><time>2026-04-11T11:22:39.98Z</time></trkpt><trkpt lat="41.6258383" lon="2.37825"><ele>172.5</ele><time>2026-04-11T11:22:40.98Z</time></trkpt><trkpt lat="41.6259717" lon="2.3785067"><ele>175.0</ele><time>2026-04-11T11:22:41.98Z</time></trkpt><trkpt lat="41.6260933" lon="2.3787717"><ele>172.33333333333334</ele><time>2026-04-11T11:22:42.98Z</time></trkpt><trkpt lat="41.62622" lon="2.3790233"><ele>169.66666666666666</ele><time>2026-04-11T11:22:43.98Z</time></trkpt><trkpt lat="41.6263517" lon="2.3792583"><ele>167.0</ele><time>2026-04-11T11:22:44.98Z</time></trkpt><trkpt lat="41.6264867" lon="2.3794717"><ele>167.0</ele><time>2026-04-11T11:22:45.98Z</time></trkpt><trkpt lat="41.626615" lon="2.3796633"><ele>167.0</ele><time>2026-04-11T11:22:46.98Z</time></trkpt><trkpt lat="41.626725" lon="2.3798233"><ele>167.0</ele><time>2026-04-11T11:22:47.98Z</time></trkpt><trkpt lat="41.6268217" lon="2.37997"><ele>167.33333333333331</ele><time>2026-04-11T11:22:48.98Z</time></trkpt><trkpt lat="41.6269067" lon="2.3801167"><ele>167.66666666666666</ele><time>2026-04-11T11:22:49.98Z</time></trkpt><trkpt lat="41.627" lon="2.3802633"><ele>168.0</ele><time>2026-04-11T11:22:50.98Z</time></trkpt><trkpt lat="41.6271117" lon="2.38044"><ele>168.66666666666666</ele><time>2026-04-11T11:22:51.981Z</time></trkpt><trkpt lat="41.6272283" lon="2.380635"><ele>169.33333333333331</ele><time>2026-04-11T11:22:52.98Z</time></trkpt><trkpt lat="41.6273483" lon="2.3808433"><ele>170.0</ele><time>2026-04-11T11:22:53.98Z</time></trkpt><trkpt lat="41.62748" lon="2.3810767"><ele>170.0</ele><time>2026-04-11T11:22:54.98Z</time></trkpt><trkpt lat="41.6276217" lon="2.3813167"><ele>170.0</ele><time>2026-04-11T11:22:55.981Z</time></trkpt><trkpt lat="41.6277617" lon="2.3815617"><ele>169.0</ele><time>2026-04-11T11:22:56.98Z</time></trkpt><trkpt lat="41.6278883" lon="2.3817967"><ele>168.0</ele><time>2026-04-11T11:22:57.981Z</time></trkpt><trkpt lat="41.62801" lon="2.3820167"><ele>167.0</ele><time>2026-04-11T11:22:58.98Z</time></trkpt><trkpt lat="41.6281183" lon="2.3821917"><ele>167.0</ele><time>2026-04-11T11:22:59.98Z</time></trkpt><trkpt lat="41.6282133" lon="2.3823417"><ele>167.0</ele><time>2026-04-11T11:23:00.981Z</time></trkpt><trkpt lat="41.6282883" lon="2.3824683"><ele>167.0</ele><time>2026-04-11T11:23:01.98Z</time></trkpt><trkpt lat="41.6283467" lon="2.3825717"><ele>167.0</ele><time>2026-04-11T11:23:02.98Z</time></trkpt><trkpt lat="41.6283967" lon="2.3826517"><ele>167.0</ele><time>2026-04-11T11:23:03.98Z</time></trkpt><trkpt lat="41.6284467" lon="2.382775"><ele>167.0</ele><time>2026-04-11T11:23:05.98Z</time></trkpt><trkpt lat="41.6284233" lon="2.3829133"><ele>167.0</ele><time>2026-04-11T11:23:07.98Z</time></trkpt><trkpt lat="41.6283" lon="2.3829983"><ele>167.0</ele><time>2026-04-11T11:23:09.98Z</time></trkpt><trkpt lat="41.6282133" lon="2.3830533"><ele>167.0</ele><time>2026-04-11T11:23:10.98Z</time></trkpt><trkpt lat="41.628115" lon="2.3831183"><ele>166.8</ele><time>2026-04-11T11:23:11.98Z</time></trkpt><trkpt lat="41.6280183" lon="2.3831733"><ele>166.6</ele><time>2026-04-11T11:23:12.98Z</time></trkpt><trkpt lat="41.6279317" lon="2.38322"><ele>166.4</ele><time>2026-04-11T11:23:13.98Z</time></trkpt><trkpt lat="41.6278533" lon="2.3832533"><ele>166.20000000000002</ele><time>2026-04-11T11:23:14.98Z</time></trkpt><trkpt lat="41.62779" lon="2.3832667"><ele>166.0</ele><time>2026-04-11T11:23:15.98Z</time></trkpt><trkpt lat="41.6276833" lon="2.38323"><ele>167.20000000000002</ele><time>2026-04-11T11:23:17.98Z</time></trkpt><trkpt lat="41.62762" lon="2.3831883"><ele>168.4</ele><time>2026-04-11T11:23:19.981Z</time></trkpt><trkpt lat="41.62752" lon="2.3832"><ele>169.6</ele><time>2026-04-11T11:23:22.98Z</time></trkpt><trkpt lat="41.6274183" lon="2.3832533"><ele>170.8</ele><time>2026-04-11T11:23:24.98Z</time></trkpt><trkpt lat="41.62726" lon="2.3833067"><ele>172.0</ele><time>2026-04-11T11:23:26.98Z</time></trkpt><trkpt lat="41.62712" lon="2.38329"><ele>172.0</ele><time>2026-04-11T11:23:27.98Z</time></trkpt><trkpt lat="41.62698" lon="2.3832417"><ele>172.0</ele><time>2026-04-11T11:23:28.98Z</time></trkpt><trkpt lat="41.62684" lon="2.3832"><ele>172.0</ele><time>2026-04-11T11:23:29.98Z</time></trkpt><trkpt lat="41.626705" lon="2.38314"><ele>172.0</ele><time>2026-04-11T11:23:30.981Z</time></trkpt><trkpt lat="41.6265867" lon="2.3830783"><ele>174.6</ele><time>2026-04-11T11:23:31.98Z</time></trkpt><trkpt lat="41.6264817" lon="2.3830017"><ele>177.2</ele><time>2026-04-11T11:23:32.98Z</time></trkpt><trkpt lat="41.626415" lon="2.3828833"><ele>179.8</ele><time>2026-04-11T11:23:33.98Z</time></trkpt><trkpt lat="41.626365" lon="2.3827583"><ele>182.4</ele><time>2026-04-11T11:23:34.98Z</time></trkpt><trkpt lat="41.6263467" lon="2.3826183"><ele>185.0</ele><time>2026-04-11T11:23:35.98Z</time></trkpt><trkpt lat="41.6263533" lon="2.382465"><ele>185.0</ele><time>2026-04-11T11:23:36.98Z</time></trkpt><trkpt lat="41.626355" lon="2.382335"><ele>185.0</ele><time>2026-04-11T11:23:37.98Z</time></trkpt><trkpt lat="41.6263417" lon="2.3822183"><ele>185.0</ele><time>2026-04-11T11:23:38.98Z</time></trkpt><trkpt lat="41.6263117" lon="2.3821183"><ele>185.0</ele><time>2026-04-11T11:23:39.98Z</time></trkpt><trkpt lat="41.626235" lon="2.382065"><ele>185.0</ele><time>2026-04-11T11:23:40.98Z</time></trkpt><trkpt lat="41.6261517" lon="2.38203"><ele>185.0</ele><time>2026-04-11T11:23:41.98Z</time></trkpt><trkpt lat="41.6260283" lon="2.3820017"><ele>187.4</ele><time>2026-04-11T11:23:42.98Z</time></trkpt><trkpt lat="41.6259117" lon="2.3819767"><ele>189.8</ele><time>2026-04-11T11:23:43.98Z</time></trkpt><trkpt lat="41.6257933" lon="2.38194"><ele>192.2</ele><time>2026-04-11T11:23:44.98Z</time></trkpt><trkpt lat="41.6256883" lon="2.38189"><ele>194.6</ele><time>2026-04-11T11:23:45.98Z</time></trkpt><trkpt lat="41.6256083" lon="2.3818183"><ele>197.0</ele><time>2026-04-11T11:23:46.98Z</time></trkpt><trkpt lat="41.6255567" lon="2.381705"><ele>197.0</ele><time>2026-04-11T11:23:47.98Z</time></trkpt><trkpt lat="41.625505" lon="2.3815783"><ele>197.0</ele><time>2026-04-11T11:23:48.98Z</time></trkpt><trkpt lat="41.6254883" lon="2.3814067"><ele>197.0</ele><time>2026-04-11T11:23:49.98Z</time></trkpt><trkpt lat="41.6254967" lon="2.3812133"><ele>197.0</ele><time>2026-04-11T11:23:50.98Z</time></trkpt><trkpt lat="41.62548" lon="2.3810033"><ele>196.25</ele><time>2026-04-11T11:23:51.98Z</time></trkpt><trkpt lat="41.6254317" lon="2.3808183"><ele>195.5</ele><time>2026-04-11T11:23:52.98Z</time></trkpt><trkpt lat="41.62536" lon="2.3806783"><ele>194.75</ele><time>2026-04-11T11:23:53.98Z</time></trkpt><trkpt lat="41.6252683" lon="2.3805533"><ele>194.0</ele><time>2026-04-11T11:23:54.98Z</time></trkpt><trkpt lat="41.6251433" lon="2.38045"><ele>199.66666666666669</ele><time>2026-04-11T11:23:55.98Z</time></trkpt><trkpt lat="41.6250017" lon="2.3803417"><ele>205.33333333333331</ele><time>2026-04-11T11:23:56.98Z</time></trkpt><trkpt lat="41.62486" lon="2.3802217"><ele>211.0</ele><time>2026-04-11T11:23:57.98Z</time></trkpt><trkpt lat="41.62475" lon="2.3800833"><ele>211.0</ele><time>2026-04-11T11:23:58.98Z</time></trkpt><trkpt lat="41.6246683" lon="2.3799417"><ele>211.0</ele><time>2026-04-11T11:23:59.98Z</time></trkpt><trkpt lat="41.6246083" lon="2.3797917"><ele>211.0</ele><time>2026-04-11T11:24:00.98Z</time></trkpt><trkpt lat="41.6245417" lon="2.3796383"><ele>211.0</ele><time>2026-04-11T11:24:01.981Z</time></trkpt><trkpt lat="41.6244733" lon="2.3795117"><ele>211.8</ele><time>2026-04-11T11:24:02.98Z</time></trkpt><trkpt lat="41.624385" lon="2.3794217"><ele>212.60000000000002</ele><time>2026-04-11T11:24:03.98Z</time></trkpt><trkpt lat="41.6242883" lon="2.3793633"><ele>213.4</ele><time>2026-04-11T11:24:04.98Z</time></trkpt><trkpt lat="41.6241783" lon="2.379345"><ele>214.2</ele><time>2026-04-11T11:24:05.98Z</time></trkpt><trkpt lat="41.6240617" lon="2.379355"><ele>215.0</ele><time>2026-04-11T11:24:06.98Z</time></trkpt><trkpt lat="41.6239283" lon="2.3793967"><ele>215.0</ele><time>2026-04-11T11:24:07.98Z</time></trkpt><trkpt lat="41.6237933" lon="2.3794533"><ele>215.0</ele><time>2026-04-11T11:24:08.98Z</time></trkpt><trkpt lat="41.623655" lon="2.3794933"><ele>215.0</ele><time>2026-04-11T11:24:09.98Z</time></trkpt><trkpt lat="41.6235167" lon="2.3795467"><ele>215.0</ele><time>2026-04-11T11:24:10.98Z</time></trkpt><trkpt lat="41.6233683" lon="2.3795917"><ele>218.0</ele><time>2026-04-11T11:24:11.98Z</time></trkpt><trkpt lat="41.6232033" lon="2.3796217"><ele>221.0</ele><time>2026-04-11T11:24:12.98Z</time></trkpt><trkpt lat="41.62304" lon="2.3796317"><ele>224.0</ele><time>2026-04-11T11:24:13.98Z</time></trkpt><trkpt lat="41.622885" lon="2.3796233"><ele>227.5</ele><time>2026-04-11T11:24:14.98Z</time></trkpt><trkpt lat="41.62275" lon="2.3795933"><ele>231.0</ele><time>2026-04-11T11:24:15.98Z</time></trkpt><trkpt lat="41.6226233" lon="2.37955"><ele>234.5</ele><time>2026-04-11T11:24:16.98Z</time></trkpt><trkpt lat="41.6224867" lon="2.3794933"><ele>238.0</ele><time>2026-04-11T11:24:17.98Z</time></trkpt><trkpt lat="41.6223717" lon="2.379425"><ele>238.0</ele><time>2026-04-11T11:24:18.98Z</time></trkpt><trkpt lat="41.622285" lon="2.379345"><ele>238.0</ele><time>2026-04-11T11:24:19.98Z</time></trkpt><trkpt lat="41.6222233" lon="2.3792367"><ele>238.0</ele><time>2026-04-11T11:24:20.98Z</time></trkpt><trkpt lat="41.6221867" lon="2.3791083"><ele>238.0</ele><time>2026-04-11T11:24:21.98Z</time></trkpt><trkpt lat="41.6221817" lon="2.3789417"><ele>238.0</ele><time>2026-04-11T11:24:22.98Z</time></trkpt><trkpt lat="41.62219" lon="2.3787417"><ele>238.75</ele><time>2026-04-11T11:24:23.98Z</time></trkpt><trkpt lat="41.62219" lon="2.3785333"><ele>239.5</ele><time>2026-04-11T11:24:24.98Z</time></trkpt><trkpt lat="41.6221883" lon="2.378325"><ele>240.25</ele><time>2026-04-11T11:24:25.98Z</time></trkpt><trkpt lat="41.6221833" lon="2.3781433"><ele>241.0</ele><time>2026-04-11T11:24:26.98Z</time></trkpt><trkpt lat="41.62217" lon="2.377975"><ele>242.4</ele><time>2026-04-11T11:24:27.98Z</time></trkpt><trkpt lat="41.622145" lon="2.3778283"><ele>243.8</ele><time>2026-04-11T11:24:28.98Z</time></trkpt><trkpt lat="41.6220883" lon="2.377705"><ele>245.20000000000002</ele><time>2026-04-11T11:24:29.98Z</time></trkpt><trkpt lat="41.62202" lon="2.3776083"><ele>246.60000000000002</ele><time>2026-04-11T11:24:30.98Z</time></trkpt><trkpt lat="41.6219367" lon="2.3775583"><ele>248.0</ele><time>2026-04-11T11:24:31.98Z</time></trkpt><trkpt lat="41.6218467" lon="2.3775517"><ele>249.0</ele><time>2026-04-11T11:24:32.98Z</time></trkpt><trkpt lat="41.6217567" lon="2.377575"><ele>250.0</ele><time>2026-04-11T11:24:33.98Z</time></trkpt><trkpt lat="41.6216617" lon="2.3776383"><ele>251.0</ele><time>2026-04-11T11:24:34.981Z</time></trkpt><trkpt lat="41.6215533" lon="2.3777067"><ele>252.0</ele><time>2026-04-11T11:24:35.98Z</time></trkpt><trkpt lat="41.6214483" lon="2.3778067"><ele>253.0</ele><time>2026-04-11T11:24:36.98Z</time></trkpt><trkpt lat="41.6213417" lon="2.3779283"><ele>257.3333333333333</ele><time>2026-04-11T11:24:37.98Z</time></trkpt><trkpt lat="41.6212217" lon="2.378055"><ele>261.6666666666667</ele><time>2026-04-11T11:24:38.981Z</time></trkpt><trkpt lat="41.6210917" lon="2.3781917"><ele>266.0</ele><time>2026-04-11T11:24:39.981Z</time></trkpt><trkpt lat="41.620965" lon="2.378325"><ele>266.75</ele><time>2026-04-11T11:24:40.98Z</time></trkpt><trkpt lat="41.62085" lon="2.378415"><ele>267.5</ele><time>2026-04-11T11:24:41.98Z</time></trkpt><trkpt lat="41.62074" lon="2.378475"><ele>268.25</ele><time>2026-04-11T11:24:42.98Z</time></trkpt><trkpt lat="41.6206183" lon="2.3785017"><ele>269.0</ele><time>2026-04-11T11:24:43.98Z</time></trkpt><trkpt lat="41.62052" lon="2.3784733"><ele>269.0</ele><time>2026-04-11T11:24:44.98Z</time></trkpt><trkpt lat="41.62041" lon="2.3784317"><ele>269.0</ele><time>2026-04-11T11:24:45.98Z</time></trkpt><trkpt lat="41.6202867" lon="2.3783933"><ele>269.0</ele><time>2026-04-11T11:24:46.98Z</time></trkpt><trkpt lat="41.6201533" lon="2.37834"><ele>269.0</ele><time>2026-04-11T11:24:47.98Z</time></trkpt><trkpt lat="41.6200283" lon="2.37826"><ele>267.5</ele><time>2026-04-11T11:24:48.98Z</time></trkpt><trkpt lat="41.6199117" lon="2.378205"><ele>266.0</ele><time>2026-04-11T11:24:49.98Z</time></trkpt><trkpt lat="41.6198" lon="2.37814"><ele>264.5</ele><time>2026-04-11T11:24:50.98Z</time></trkpt><trkpt lat="41.6196717" lon="2.3780433"><ele>263.0</ele><time>2026-04-11T11:24:51.98Z</time></trkpt><trkpt lat="41.6195733" lon="2.3779433"><ele>263.0</ele><time>2026-04-11T11:24:52.98Z</time></trkpt><trkpt lat="41.6194983" lon="2.3778033"><ele>263.0</ele><time>2026-04-11T11:24:53.98Z</time></trkpt><trkpt lat="41.619435" lon="2.3776333"><ele>263.0</ele><time>2026-04-11T11:24:54.98Z</time></trkpt><trkpt lat="41.619375" lon="2.3774467"><ele>263.0</ele><time>2026-04-11T11:24:55.98Z</time></trkpt><trkpt lat="41.6193083" lon="2.37726"><ele>267.5</ele><time>2026-04-11T11:24:56.98Z</time></trkpt><trkpt lat="41.6192417" lon="2.3770633"><ele>272.0</ele><time>2026-04-11T11:24:57.98Z</time></trkpt><trkpt lat="41.61918" lon="2.3769217"><ele>276.5</ele><time>2026-04-11T11:24:58.98Z</time></trkpt><trkpt lat="41.619105" lon="2.37679"><ele>281.0</ele><time>2026-04-11T11:24:59.98Z</time></trkpt><trkpt lat="41.6189933" lon="2.3767"><ele>281.0</ele><time>2026-04-11T11:25:00.98Z</time></trkpt><trkpt lat="41.618885" lon="2.376635"><ele>281.0</ele><time>2026-04-11T11:25:01.98Z</time></trkpt><trkpt lat="41.6187633" lon="2.376585"><ele>281.0</ele><time>2026-04-11T11:25:02.98Z</time></trkpt><trkpt lat="41.6186083" lon="2.376555"><ele>281.0</ele><time>2026-04-11T11:25:03.98Z</time></trkpt><trkpt lat="41.6184333" lon="2.3765233"><ele>286.33333333333337</ele><time>2026-04-11T11:25:04.981Z</time></trkpt><trkpt lat="41.618285" lon="2.3764733"><ele>291.6666666666667</ele><time>2026-04-11T11:25:05.98Z</time></trkpt><trkpt lat="41.6181183" lon="2.376425"><ele>297.0</ele><time>2026-04-11T11:25:06.98Z</time></trkpt><trkpt lat="41.6179583" lon="2.3763767"><ele>294.6666666666667</ele><time>2026-04-11T11:25:07.98Z</time></trkpt><trkpt lat="41.61779" lon="2.376345"><ele>292.33333333333337</ele><time>2026-04-11T11:25:08.98Z</time></trkpt><trkpt lat="41.61761" lon="2.3763233"><ele>290.0</ele><time>2026-04-11T11:25:09.981Z</time></trkpt><trkpt lat="41.617425" lon="2.3763167"><ele>290.0</ele><time>2026-04-11T11:25:10.98Z</time></trkpt><trkpt lat="41.61724" lon="2.3763133"><ele>290.0</ele><time>2026-04-11T11:25:11.98Z</time></trkpt><trkpt lat="41.61705" lon="2.3763183"><ele>290.0</ele><time>2026-04-11T11:25:12.98Z</time></trkpt><trkpt lat="41.61686" lon="2.376325"><ele>290.6666666666667</ele><time>2026-04-11T11:25:13.98Z</time></trkpt><trkpt lat="41.616685" lon="2.3763383"><ele>291.3333333333333</ele><time>2026-04-11T11:25:14.98Z</time></trkpt><trkpt lat="41.6165217" lon="2.37637"><ele>292.0</ele><time>2026-04-11T11:25:15.98Z</time></trkpt><trkpt lat="41.6163483" lon="2.3764117"><ele>299.0</ele><time>2026-04-11T11:25:16.98Z</time></trkpt><trkpt lat="41.6161583" lon="2.3764417"><ele>306.0</ele><time>2026-04-11T11:25:17.98Z</time></trkpt><trkpt lat="41.615985" lon="2.37649"><ele>313.0</ele><time>2026-04-11T11:25:18.98Z</time></trkpt><trkpt lat="41.6158033" lon="2.3765317"><ele>313.0</ele><time>2026-04-11T11:25:19.98Z</time></trkpt><trkpt lat="41.61562" lon="2.376585"><ele>313.0</ele><time>2026-04-11T11:25:20.98Z</time></trkpt><trkpt lat="41.615435" lon="2.3766383"><ele>313.0</ele><time>2026-04-11T11:25:21.98Z</time></trkpt><trkpt lat="41.6152483" lon="2.376695"><ele>309.66666666666663</ele><time>2026-04-11T11:25:22.98Z</time></trkpt><trkpt lat="41.6150717" lon="2.3767433"><ele>306.3333333333333</ele><time>2026-04-11T11:25:23.98Z</time></trkpt><trkpt lat="41.6149167" lon="2.3767833"><ele>303.0</ele><time>2026-04-11T11:25:24.98Z</time></trkpt><trkpt lat="41.6147683" lon="2.3768283"><ele>303.0</ele><time>2026-04-11T11:25:25.98Z</time></trkpt><trkpt lat="41.61462" lon="2.3768917"><ele>303.0</ele><time>2026-04-11T11:25:26.98Z</time></trkpt><trkpt lat="41.61446" lon="2.3769833"><ele>303.0</ele><time>2026-04-11T11:25:27.98Z</time></trkpt><trkpt lat="41.6143133" lon="2.3771067"><ele>306.0</ele><time>2026-04-11T11:25:28.98Z</time></trkpt><trkpt lat="41.614165" lon="2.3772483"><ele>309.0</ele><time>2026-04-11T11:25:29.98Z</time></trkpt><trkpt lat="41.6140317" lon="2.3774067"><ele>312.0</ele><time>2026-04-11T11:25:30.98Z</time></trkpt><trkpt lat="41.6139133" lon="2.3775667"><ele>312.0</ele><time>2026-04-11T11:25:31.98Z</time></trkpt><trkpt lat="41.6138083" lon="2.3777417"><ele>312.0</ele><time>2026-04-11T11:25:32.98Z</time></trkpt><trkpt lat="41.6137083" lon="2.37791"><ele>312.0</ele><time>2026-04-11T11:25:33.98Z</time></trkpt><trkpt lat="41.6135967" lon="2.3780633"><ele>309.5</ele><time>2026-04-11T11:25:34.98Z</time></trkpt><trkpt lat="41.61348" lon="2.3781767"><ele>307.0</ele><time>2026-04-11T11:25:35.98Z</time></trkpt><trkpt lat="41.6133583" lon="2.378265"><ele>304.5</ele><time>2026-04-11T11:25:36.98Z</time></trkpt><trkpt lat="41.6132317" lon="2.3783283"><ele>302.0</ele><time>2026-04-11T11:25:37.98Z</time></trkpt><trkpt lat="41.6130983" lon="2.3783683"><ele>302.0</ele><time>2026-04-11T11:25:38.98Z</time></trkpt><trkpt lat="41.6129817" lon="2.3784"><ele>302.0</ele><time>2026-04-11T11:25:39.98Z</time></trkpt><trkpt lat="41.6128583" lon="2.378445"><ele>302.0</ele><time>2026-04-11T11:25:40.98Z</time></trkpt><trkpt lat="41.61274" lon="2.3785117"><ele>302.0</ele><time>2026-04-11T11:25:41.98Z</time></trkpt><trkpt lat="41.6126383" lon="2.3786017"><ele>301.75</ele><time>2026-04-11T11:25:42.98Z</time></trkpt><trkpt lat="41.6125533" lon="2.3787217"><ele>301.5</ele><time>2026-04-11T11:25:43.98Z</time></trkpt><trkpt lat="41.6124617" lon="2.3788583"><ele>301.25</ele><time>2026-04-11T11:25:44.98Z</time></trkpt><trkpt lat="41.612365" lon="2.378975"><ele>301.0</ele><time>2026-04-11T11:25:45.98Z</time></trkpt><trkpt lat="41.612255" lon="2.37905"><ele>301.0</ele><time>2026-04-11T11:25:46.98Z</time></trkpt><trkpt lat="41.612125" lon="2.3791067"><ele>301.0</ele><time>2026-04-11T11:25:47.98Z</time></trkpt><trkpt lat="41.61196" lon="2.379115"><ele>301.0</ele><time>2026-04-11T11:25:48.98Z</time></trkpt><trkpt lat="41.6118183" lon="2.3791167"><ele>301.0</ele><time>2026-04-11T11:25:49.98Z</time></trkpt><trkpt lat="41.611705" lon="2.3791367"><ele>298.6</ele><time>2026-04-11T11:25:50.98Z</time></trkpt><trkpt lat="41.6115983" lon="2.3791633"><ele>296.20000000000005</ele><time>2026-04-11T11:25:51.98Z</time></trkpt><trkpt lat="41.6114967" lon="2.3792133"><ele>293.79999999999995</ele><time>2026-04-11T11:25:52.98Z</time></trkpt><trkpt lat="41.611405" lon="2.3793017"><ele>291.4</ele><time>2026-04-11T11:25:53.98Z</time></trkpt><trkpt lat="41.6113283" lon="2.3794217"><ele>289.0</ele><time>2026-04-11T11:25:54.98Z</time></trkpt><trkpt lat="41.6112583" lon="2.3795683"><ele>286.25</ele><time>2026-04-11T11:25:55.98Z</time></trkpt><trkpt lat="41.6111867" lon="2.379715"><ele>283.5</ele><time>2026-04-11T11:25:56.98Z</time></trkpt><trkpt lat="41.611085" lon="2.379855"><ele>280.75</ele><time>2026-04-11T11:25:57.981Z</time></trkpt><trkpt lat="41.6109733" lon="2.3799833"><ele>278.0</ele><time>2026-04-11T11:25:58.98Z</time></trkpt><trkpt lat="41.6108383" lon="2.380095"><ele>278.0</ele><time>2026-04-11T11:25:59.98Z</time></trkpt><trkpt lat="41.6106933" lon="2.380205"><ele>278.0</ele><time>2026-04-11T11:26:00.98Z</time></trkpt><trkpt lat="41.610555" lon="2.3803083"><ele>278.0</ele><time>2026-04-11T11:26:01.98Z</time></trkpt><trkpt lat="41.6103917" lon="2.3804467"><ele>277.0</ele><time>2026-04-11T11:26:02.98Z</time></trkpt><trkpt lat="41.6102233" lon="2.38059"><ele>276.0</ele><time>2026-04-11T11:26:03.98Z</time></trkpt><trkpt lat="41.610045" lon="2.3807267"><ele>275.0</ele><time>2026-04-11T11:26:04.98Z</time></trkpt><trkpt lat="41.6098867" lon="2.3808667"><ele>275.0</ele><time>2026-04-11T11:26:05.98Z</time></trkpt><trkpt lat="41.6097183" lon="2.3810067"><ele>275.0</ele><time>2026-04-11T11:26:06.98Z</time></trkpt><trkpt lat="41.60957" lon="2.381135"><ele>275.0</ele><time>2026-04-11T11:26:07.98Z</time></trkpt><trkpt lat="41.609425" lon="2.38125"><ele>274.5</ele><time>2026-04-11T11:26:08.98Z</time></trkpt><trkpt lat="41.6093" lon="2.38133"><ele>274.0</ele><time>2026-04-11T11:26:09.98Z</time></trkpt><trkpt lat="41.6091767" lon="2.3813983"><ele>273.5</ele><time>2026-04-11T11:26:10.98Z</time></trkpt><trkpt lat="41.6090767" lon="2.3814583"><ele>273.0</ele><time>2026-04-11T11:26:11.98Z</time></trkpt><trkpt lat="41.6089667" lon="2.3815233"><ele>273.25</ele><time>2026-04-11T11:26:12.98Z</time></trkpt><trkpt lat="41.6088383" lon="2.3816033"><ele>273.5</ele><time>2026-04-11T11:26:13.98Z</time></trkpt><trkpt lat="41.6087217" lon="2.3816817"><ele>273.75</ele><time>2026-04-11T11:26:14.98Z</time></trkpt><trkpt lat="41.6085917" lon="2.3817467"><ele>274.0</ele><time>2026-04-11T11:26:15.98Z</time></trkpt><trkpt lat="41.6084567" lon="2.3818067"><ele>274.0</ele><time>2026-04-11T11:26:16.98Z</time></trkpt><trkpt lat="41.608305" lon="2.3818417"><ele>274.0</ele><time>2026-04-11T11:26:17.98Z</time></trkpt><trkpt lat="41.60815" lon="2.381875"><ele>274.0</ele><time>2026-04-11T11:26:18.98Z</time></trkpt><trkpt lat="41.608005" lon="2.381885"><ele>274.0</ele><time>2026-04-11T11:26:19.981Z</time></trkpt><trkpt lat="41.60787" lon="2.381885"><ele>274.0</ele><time>2026-04-11T11:26:20.98Z</time></trkpt><trkpt lat="41.6077433" lon="2.381875"><ele>274.0</ele><time>2026-04-11T11:26:21.981Z</time></trkpt><trkpt lat="41.6076383" lon="2.3818467"><ele>274.0</ele><time>2026-04-11T11:26:22.981Z</time></trkpt><trkpt lat="41.6075417" lon="2.3817867"><ele>272.8</ele><time>2026-04-11T11:26:23.98Z</time></trkpt><trkpt lat="41.6074517" lon="2.3816983"><ele>271.59999999999997</ele><time>2026-04-11T11:26:24.98Z</time></trkpt><trkpt lat="41.6073833" lon="2.3815833"><ele>270.4</ele><time>2026-04-11T11:26:25.98Z</time></trkpt><trkpt lat="41.6073317" lon="2.38147"><ele>269.2</ele><time>2026-04-11T11:26:26.98Z</time></trkpt><trkpt lat="41.607295" lon="2.3813683"><ele>268.0</ele><time>2026-04-11T11:26:27.98Z</time></trkpt><trkpt lat="41.607245" lon="2.381245"><ele>268.0</ele><time>2026-04-11T11:26:29.98Z</time></trkpt><trkpt lat="41.60717" lon="2.38115"><ele>268.0</ele><time>2026-04-11T11:26:32.98Z</time></trkpt><trkpt lat="41.6071183" lon="2.3811"><ele>268.0</ele><time>2026-04-11T11:26:33.98Z</time></trkpt><trkpt lat="41.607065" lon="2.3810267"><ele>268.0</ele><time>2026-04-11T11:26:34.98Z</time></trkpt><trkpt lat="41.607025" lon="2.3809467"><ele>268.0</ele><time>2026-04-11T11:26:35.981Z</time></trkpt><trkpt lat="41.607" lon="2.380815"><ele>268.0</ele><time>2026-04-11T11:26:37.98Z</time></trkpt><trkpt lat="41.6069783" lon="2.3806867"><ele>268.0</ele><time>2026-04-11T11:26:39.98Z</time></trkpt><trkpt lat="41.606955" lon="2.3805867"><ele>268.0</ele><time>2026-04-11T11:26:40.98Z</time></trkpt><trkpt lat="41.60693" lon="2.3804717"><ele>268.0</ele><time>2026-04-11T11:26:41.981Z</time></trkpt><trkpt lat="41.6069033" lon="2.380345"><ele>268.0</ele><time>2026-04-11T11:26:42.98Z</time></trkpt><trkpt lat="41.6068783" lon="2.3802067"><ele>268.0</ele><time>2026-04-11T11:26:43.98Z</time></trkpt><trkpt lat="41.6068483" lon="2.3800733"><ele>269.4</ele><time>2026-04-11T11:26:44.98Z</time></trkpt><trkpt lat="41.60682" lon="2.37994"><ele>270.8</ele><time>2026-04-11T11:26:45.98Z</time></trkpt><trkpt lat="41.6067967" lon="2.37982"><ele>272.2</ele><time>2026-04-11T11:26:46.98Z</time></trkpt><trkpt lat="41.60678" lon="2.3797333"><ele>273.6</ele><time>2026-04-11T11:26:47.98Z</time></trkpt><trkpt lat="41.6067383" lon="2.3795933"><ele>275.0</ele><time>2026-04-11T11:26:49.98Z</time></trkpt><trkpt lat="41.6067167" lon="2.3794933"><ele>277.5</ele><time>2026-04-11T11:26:50.98Z</time></trkpt><trkpt lat="41.60669" lon="2.37937"><ele>280.0</ele><time>2026-04-11T11:26:51.98Z</time></trkpt><trkpt lat="41.60666" lon="2.379225"><ele>282.5</ele><time>2026-04-11T11:26:52.98Z</time></trkpt><trkpt lat="41.6066333" lon="2.3790583"><ele>285.0</ele><time>2026-04-11T11:26:53.98Z</time></trkpt><trkpt lat="41.606595" lon="2.3788767"><ele>289.0</ele><time>2026-04-11T11:26:54.98Z</time></trkpt><trkpt lat="41.6065533" lon="2.3786867"><ele>293.0</ele><time>2026-04-11T11:26:55.98Z</time></trkpt><trkpt lat="41.60651" lon="2.3784833"><ele>297.0</ele><time>2026-04-11T11:26:56.98Z</time></trkpt><trkpt lat="41.6064667" lon="2.37827"><ele>297.0</ele><time>2026-04-11T11:26:57.98Z</time></trkpt><trkpt lat="41.6064283" lon="2.3780433"><ele>297.0</ele><time>2026-04-11T11:26:58.98Z</time></trkpt><trkpt lat="41.60638" lon="2.377815"><ele>297.0</ele><time>2026-04-11T11:26:59.98Z</time></trkpt><trkpt lat="41.6063317" lon="2.377575"><ele>300.0</ele><time>2026-04-11T11:27:00.98Z</time></trkpt><trkpt lat="41.6062883" lon="2.3773183"><ele>303.0</ele><time>2026-04-11T11:27:01.98Z</time></trkpt><trkpt lat="41.60625" lon="2.3770817"><ele>306.0</ele><time>2026-04-11T11:27:02.98Z</time></trkpt><trkpt lat="41.6062117" lon="2.3768817"><ele>305.0</ele><time>2026-04-11T11:27:03.981Z</time></trkpt><trkpt lat="41.606175" lon="2.3767117"><ele>304.0</ele><time>2026-04-11T11:27:04.98Z</time></trkpt><trkpt lat="41.6061433" lon="2.3765567"><ele>303.0</ele><time>2026-04-11T11:27:05.98Z</time></trkpt><trkpt lat="41.6061133" lon="2.3764283"><ele>302.0</ele><time>2026-04-11T11:27:06.98Z</time></trkpt><trkpt lat="41.6060683" lon="2.3763133"><ele>304.0</ele><time>2026-04-11T11:27:07.98Z</time></trkpt><trkpt lat="41.606" lon="2.376215"><ele>306.0</ele><time>2026-04-11T11:27:08.98Z</time></trkpt><trkpt lat="41.6058983" lon="2.3761533"><ele>308.0</ele><time>2026-04-11T11:27:09.98Z</time></trkpt><trkpt lat="41.605775" lon="2.37615"><ele>310.0</ele><time>2026-04-11T11:27:10.98Z</time></trkpt><trkpt lat="41.6056383" lon="2.37617"><ele>310.0</ele><time>2026-04-11T11:27:11.98Z</time></trkpt><trkpt lat="41.60548" lon="2.376215"><ele>310.0</ele><time>2026-04-11T11:27:12.98Z</time></trkpt><trkpt lat="41.6053183" lon="2.3762667"><ele>310.0</ele><time>2026-04-11T11:27:13.98Z</time></trkpt><trkpt lat="41.605155" lon="2.3763267"><ele>309.66666666666663</ele><time>2026-04-11T11:27:14.98Z</time></trkpt><trkpt lat="41.6049883" lon="2.3763967"><ele>309.3333333333333</ele><time>2026-04-11T11:27:15.979Z</time></trkpt><trkpt lat="41.6048117" lon="2.3764517"><ele>309.0</ele><time>2026-04-11T11:27:16.979Z</time></trkpt><trkpt lat="41.6046417" lon="2.37652"><ele>314.0</ele><time>2026-04-11T11:27:17.979Z</time></trkpt><trkpt lat="41.6044617" lon="2.376575"><ele>319.0</ele><time>2026-04-11T11:27:18.979Z</time></trkpt><trkpt lat="41.60428" lon="2.37663"><ele>324.0</ele><time>2026-04-11T11:27:19.979Z</time></trkpt><trkpt lat="41.6040983" lon="2.376685"><ele>324.0</ele><time>2026-04-11T11:27:20.979Z</time></trkpt><trkpt lat="41.603905" lon="2.376745"><ele>324.0</ele><time>2026-04-11T11:27:21.979Z</time></trkpt><trkpt lat="41.6037217" lon="2.3768017"><ele>324.0</ele><time>2026-04-11T11:27:22.979Z</time></trkpt><trkpt lat="41.6035333" lon="2.3768533"><ele>322.6666666666667</ele><time>2026-04-11T11:27:23.979Z</time></trkpt><trkpt lat="41.6033467" lon="2.3769067"><ele>321.33333333333337</ele><time>2026-04-11T11:27:24.979Z</time></trkpt><trkpt lat="41.6031533" lon="2.3769533"><ele>320.0</ele><time>2026-04-11T11:27:25.98Z</time></trkpt><trkpt lat="41.602955" lon="2.3769867"><ele>319.0</ele><time>2026-04-11T11:27:26.979Z</time></trkpt><trkpt lat="41.6027517" lon="2.3770317"><ele>318.0</ele><time>2026-04-11T11:27:27.979Z</time></trkpt><trkpt lat="41.602555" lon="2.3770783"><ele>317.0</ele><time>2026-04-11T11:27:28.979Z</time></trkpt><trkpt lat="41.6023483" lon="2.3771283"><ele>317.0</ele><time>2026-04-11T11:27:29.979Z</time></trkpt><trkpt lat="41.6021433" lon="2.3771733"><ele>317.0</ele><time>2026-04-11T11:27:30.979Z</time></trkpt><trkpt lat="41.6019533" lon="2.3772217"><ele>317.0</ele><time>2026-04-11T11:27:31.979Z</time></trkpt><trkpt lat="41.6017883" lon="2.3772667"><ele>316.25</ele><time>2026-04-11T11:27:32.979Z</time></trkpt><trkpt lat="41.601635" lon="2.3773"><ele>315.5</ele><time>2026-04-11T11:27:33.979Z</time></trkpt><trkpt lat="41.6015033" lon="2.37731"><ele>314.75</ele><time>2026-04-11T11:27:34.979Z</time></trkpt><trkpt lat="41.6013967" lon="2.3772783"><ele>314.0</ele><time>2026-04-11T11:27:35.979Z</time></trkpt><trkpt lat="41.6012883" lon="2.3772383"><ele>314.0</ele><time>2026-04-11T11:27:36.979Z</time></trkpt><trkpt lat="41.601175" lon="2.3771967"><ele>314.0</ele><time>2026-04-11T11:27:37.979Z</time></trkpt><trkpt lat="41.6010533" lon="2.3771517"><ele>314.0</ele><time>2026-04-11T11:27:38.979Z</time></trkpt><trkpt lat="41.600925" lon="2.3771117"><ele>314.0</ele><time>2026-04-11T11:27:39.979Z</time></trkpt><trkpt lat="41.60079" lon="2.377065"><ele>316.0</ele><time>2026-04-11T11:27:40.979Z</time></trkpt><trkpt lat="41.6006383" lon="2.3770183"><ele>318.0</ele><time>2026-04-11T11:27:41.979Z</time></trkpt><trkpt lat="41.60048" lon="2.3769717"><ele>320.0</ele><time>2026-04-11T11:27:42.979Z</time></trkpt><trkpt lat="41.6003167" lon="2.3769267"><ele>325.0</ele><time>2026-04-11T11:27:43.979Z</time></trkpt><trkpt lat="41.60015" lon="2.3768733"><ele>330.0</ele><time>2026-04-11T11:27:44.979Z</time></trkpt><trkpt lat="41.59999" lon="2.3768067"><ele>335.0</ele><time>2026-04-11T11:27:45.979Z</time></trkpt><trkpt lat="41.5998417" lon="2.376705"><ele>335.0</ele><time>2026-04-11T11:27:46.979Z</time></trkpt><trkpt lat="41.59972" lon="2.376575"><ele>335.0</ele><time>2026-04-11T11:27:47.979Z</time></trkpt><trkpt lat="41.59962" lon="2.3764167"><ele>335.0</ele><time>2026-04-11T11:27:48.979Z</time></trkpt><trkpt lat="41.5995317" lon="2.3762467"><ele>340.0</ele><time>2026-04-11T11:27:49.979Z</time></trkpt><trkpt lat="41.5994467" lon="2.3760933"><ele>345.0</ele><time>2026-04-11T11:27:50.979Z</time></trkpt><trkpt lat="41.5993617" lon="2.3759517"><ele>350.0</ele><time>2026-04-11T11:27:51.979Z</time></trkpt><trkpt lat="41.59928" lon="2.3758333"><ele>355.0</ele><time>2026-04-11T11:27:52.979Z</time></trkpt><trkpt lat="41.5991867" lon="2.3757117"><ele>355.0</ele><time>2026-04-11T11:27:53.979Z</time></trkpt><trkpt lat="41.59907" lon="2.375625"><ele>355.0</ele><time>2026-04-11T11:27:54.979Z</time></trkpt><trkpt lat="41.598945" lon="2.3755483"><ele>355.0</ele><time>2026-04-11T11:27:55.979Z</time></trkpt><trkpt lat="41.5988317" lon="2.3754883"><ele>355.0</ele><time>2026-04-11T11:27:56.979Z</time></trkpt><trkpt lat="41.5987317" lon="2.3754333"><ele>357.0</ele><time>2026-04-11T11:27:57.979Z</time></trkpt><trkpt lat="41.5986233" lon="2.3753717"><ele>359.0</ele><time>2026-04-11T11:27:58.979Z</time></trkpt><trkpt lat="41.5985067" lon="2.37529"><ele>361.0</ele><time>2026-04-11T11:27:59.979Z</time></trkpt><trkpt lat="41.5983883" lon="2.3751933"><ele>363.0</ele><time>2026-04-11T11:28:00.979Z</time></trkpt><trkpt lat="41.598265" lon="2.37508"><ele>363.0</ele><time>2026-04-11T11:28:01.979Z</time></trkpt><trkpt lat="41.5981533" lon="2.374945"><ele>363.0</ele><time>2026-04-11T11:28:02.979Z</time></trkpt><trkpt lat="41.5980283" lon="2.37483"><ele>363.0</ele><time>2026-04-11T11:28:03.979Z</time></trkpt><trkpt lat="41.5979083" lon="2.374735"><ele>363.0</ele><time>2026-04-11T11:28:04.979Z</time></trkpt><trkpt lat="41.5977967" lon="2.3746417"><ele>363.75</ele><time>2026-04-11T11:28:05.979Z</time></trkpt><trkpt lat="41.5976667" lon="2.3745633"><ele>364.5</ele><time>2026-04-11T11:28:06.979Z</time></trkpt><trkpt lat="41.5975333" lon="2.3745067"><ele>365.25</ele><time>2026-04-11T11:28:07.979Z</time></trkpt><trkpt lat="41.5973983" lon="2.3744833"><ele>366.0</ele><time>2026-04-11T11:28:08.979Z</time></trkpt><trkpt lat="41.597285" lon="2.3745033"><ele>366.0</ele><time>2026-04-11T11:28:09.979Z</time></trkpt><trkpt lat="41.5971867" lon="2.3745567"><ele>366.0</ele><time>2026-04-11T11:28:10.979Z</time></trkpt><trkpt lat="41.5970983" lon="2.3746567"><ele>366.0</ele><time>2026-04-11T11:28:11.98Z</time></trkpt><trkpt lat="41.5970317" lon="2.3747867"><ele>366.0</ele><time>2026-04-11T11:28:12.979Z</time></trkpt><trkpt lat="41.59697" lon="2.3749417"><ele>368.25</ele><time>2026-04-11T11:28:13.979Z</time></trkpt><trkpt lat="41.596905" lon="2.3751167"><ele>370.5</ele><time>2026-04-11T11:28:14.979Z</time></trkpt><trkpt lat="41.5968417" lon="2.3752983"><ele>372.75</ele><time>2026-04-11T11:28:15.979Z</time></trkpt><trkpt lat="41.5967733" lon="2.3754633"><ele>375.0</ele><time>2026-04-11T11:28:16.979Z</time></trkpt><trkpt lat="41.59672" lon="2.3755983"><ele>375.2</ele><time>2026-04-11T11:28:17.979Z</time></trkpt><trkpt lat="41.5966733" lon="2.3757233"><ele>375.4</ele><time>2026-04-11T11:28:18.979Z</time></trkpt><trkpt lat="41.5966117" lon="2.3758367"><ele>375.6</ele><time>2026-04-11T11:28:19.979Z</time></trkpt><trkpt lat="41.5965283" lon="2.3759267"><ele>375.8</ele><time>2026-04-11T11:28:20.98Z</time></trkpt><trkpt lat="41.59644" lon="2.3759983"><ele>376.0</ele><time>2026-04-11T11:28:21.979Z</time></trkpt><trkpt lat="41.59633" lon="2.376045"><ele>376.0</ele><time>2026-04-11T11:28:22.979Z</time></trkpt><trkpt lat="41.5962033" lon="2.376045"><ele>376.0</ele><time>2026-04-11T11:28:23.979Z</time></trkpt><trkpt lat="41.596075" lon="2.3760033"><ele>376.0</ele><time>2026-04-11T11:28:24.979Z</time></trkpt><trkpt lat="41.5959417" lon="2.37593"><ele>376.0</ele><time>2026-04-11T11:28:25.979Z</time></trkpt><trkpt lat="41.5958133" lon="2.375835"><ele>376.0</ele><time>2026-04-11T11:28:26.979Z</time></trkpt><trkpt lat="41.5956983" lon="2.3757233"><ele>376.0</ele><time>2026-04-11T11:28:27.979Z</time></trkpt><trkpt lat="41.595595" lon="2.3755883"><ele>376.0</ele><time>2026-04-11T11:28:28.979Z</time></trkpt><trkpt lat="41.5955067" lon="2.37547"><ele>376.0</ele><time>2026-04-11T11:28:29.979Z</time></trkpt><trkpt lat="41.5954267" lon="2.375365"><ele>376.0</ele><time>2026-04-11T11:28:30.979Z</time></trkpt><trkpt lat="41.595345" lon="2.3752783"><ele>376.0</ele><time>2026-04-11T11:28:31.979Z</time></trkpt><trkpt lat="41.5952583" lon="2.3752217"><ele>376.0</ele><time>2026-04-11T11:28:32.979Z</time></trkpt><trkpt lat="41.5951633" lon="2.375175"><ele>376.0</ele><time>2026-04-11T11:28:33.98Z</time></trkpt><trkpt lat="41.5950467" lon="2.3751667"><ele>376.0</ele><time>2026-04-11T11:28:34.979Z</time></trkpt><trkpt lat="41.5949233" lon="2.3751933"><ele>376.0</ele><time>2026-04-11T11:28:35.979Z</time></trkpt><trkpt lat="41.5947917" lon="2.375215"><ele>376.0</ele><time>2026-04-11T11:28:36.979Z</time></trkpt><trkpt lat="41.5946717" lon="2.3752483"><ele>376.0</ele><time>2026-04-11T11:28:37.979Z</time></trkpt><trkpt lat="41.5945633" lon="2.3753017"><ele>376.0</ele><time>2026-04-11T11:28:38.98Z</time></trkpt><trkpt lat="41.5944767" lon="2.3753533"><ele>374.5</ele><time>2026-04-11T11:28:39.979Z</time></trkpt><trkpt lat="41.5944117" lon="2.3754283"><ele>373.0</ele><time>2026-04-11T11:28:40.979Z</time></trkpt><trkpt lat="41.5943783" lon="2.3755183"><ele>371.5</ele><time>2026-04-11T11:28:41.979Z</time></trkpt><trkpt lat="41.5943667" lon="2.3756083"><ele>370.0</ele><time>2026-04-11T11:28:42.979Z</time></trkpt><trkpt lat="41.5943417" lon="2.3757383"><ele>368.5</ele><time>2026-04-11T11:28:44.98Z</time></trkpt><trkpt lat="41.5942583" lon="2.3757267"><ele>367.0</ele><time>2026-04-11T11:28:47.979Z</time></trkpt><trkpt lat="41.5941383" lon="2.3756467"><ele>367.0</ele><time>2026-04-11T11:28:49.979Z</time></trkpt><trkpt lat="41.594045" lon="2.3755983"><ele>367.0</ele><time>2026-04-11T11:28:50.979Z</time></trkpt><trkpt lat="41.593915" lon="2.3755183"><ele>367.0</ele><time>2026-04-11T11:28:51.979Z</time></trkpt><trkpt lat="41.5937683" lon="2.375425"><ele>367.0</ele><time>2026-04-11T11:28:52.979Z</time></trkpt><trkpt lat="41.5936" lon="2.3753167"><ele>362.3333333333333</ele><time>2026-04-11T11:28:53.979Z</time></trkpt><trkpt lat="41.5934167" lon="2.3752"><ele>357.6666666666667</ele><time>2026-04-11T11:28:54.979Z</time></trkpt><trkpt lat="41.5932167" lon="2.3750717"><ele>353.0</ele><time>2026-04-11T11:28:55.979Z</time></trkpt><trkpt lat="41.593025" lon="2.3749433"><ele>350.6666666666667</ele><time>2026-04-11T11:28:56.979Z</time></trkpt><trkpt lat="41.5928383" lon="2.3748067"><ele>348.3333333333333</ele><time>2026-04-11T11:28:57.979Z</time></trkpt><trkpt lat="41.5926567" lon="2.3746767"><ele>346.0</ele><time>2026-04-11T11:28:58.979Z</time></trkpt><trkpt lat="41.59248" lon="2.3745517"><ele>345.3333333333333</ele><time>2026-04-11T11:28:59.979Z</time></trkpt><trkpt lat="41.5923217" lon="2.3744467"><ele>344.6666666666667</ele><time>2026-04-11T11:29:00.98Z</time></trkpt><trkpt lat="41.5921733" lon="2.3743433"><ele>344.0</ele><time>2026-04-11T11:29:01.979Z</time></trkpt><trkpt lat="41.592035" lon="2.3742467"><ele>343.75</ele><time>2026-04-11T11:29:02.979Z</time></trkpt><trkpt lat="41.591915" lon="2.374145"><ele>343.5</ele><time>2026-04-11T11:29:03.979Z</time></trkpt><trkpt lat="41.5918" lon="2.3740783"><ele>343.25</ele><time>2026-04-11T11:29:04.979Z</time></trkpt><trkpt lat="41.5916933" lon="2.374025"><ele>343.0</ele><time>2026-04-11T11:29:05.979Z</time></trkpt><trkpt lat="41.5915667" lon="2.3739733"><ele>343.0</ele><time>2026-04-11T11:29:06.979Z</time></trkpt><trkpt lat="41.59143" lon="2.373955"><ele>343.0</ele><time>2026-04-11T11:29:07.979Z</time></trkpt><trkpt lat="41.5912917" lon="2.3739567"><ele>343.0</ele><time>2026-04-11T11:29:08.979Z</time></trkpt><trkpt lat="41.5911417" lon="2.373965"><ele>343.0</ele><time>2026-04-11T11:29:09.979Z</time></trkpt><trkpt lat="41.59099" lon="2.373975"><ele>340.5</ele><time>2026-04-11T11:29:10.979Z</time></trkpt><trkpt lat="41.5908383" lon="2.373985"><ele>338.0</ele><time>2026-04-11T11:29:11.979Z</time></trkpt><trkpt lat="41.590695" lon="2.37399"><ele>335.5</ele><time>2026-04-11T11:29:12.979Z</time></trkpt><trkpt lat="41.59056" lon="2.373995"><ele>333.0</ele><time>2026-04-11T11:29:13.979Z</time></trkpt><trkpt lat="41.5904317" lon="2.3740017"><ele>330.25</ele><time>2026-04-11T11:29:14.979Z</time></trkpt><trkpt lat="41.5903067" lon="2.3740117"><ele>327.5</ele><time>2026-04-11T11:29:15.979Z</time></trkpt><trkpt lat="41.5901867" lon="2.3740533"><ele>324.75</ele><time>2026-04-11T11:29:16.979Z</time></trkpt><trkpt lat="41.5900617" lon="2.37414"><ele>322.0</ele><time>2026-04-11T11:29:17.979Z</time></trkpt><trkpt lat="41.5899417" lon="2.3742467"><ele>322.0</ele><time>2026-04-11T11:29:18.979Z</time></trkpt><trkpt lat="41.58983" lon="2.3743683"><ele>322.0</ele><time>2026-04-11T11:29:19.979Z</time></trkpt><trkpt lat="41.5897167" lon="2.3745033"><ele>322.0</ele><time>2026-04-11T11:29:20.979Z</time></trkpt><trkpt lat="41.5896017" lon="2.374625"><ele>322.0</ele><time>2026-04-11T11:29:21.979Z</time></trkpt><trkpt lat="41.5895033" lon="2.374735"><ele>319.8</ele><time>2026-04-11T11:29:22.979Z</time></trkpt><trkpt lat="41.5894233" lon="2.3748283"><ele>317.6</ele><time>2026-04-11T11:29:23.979Z</time></trkpt><trkpt lat="41.589335" lon="2.3749017"><ele>315.40000000000003</ele><time>2026-04-11T11:29:24.979Z</time></trkpt><trkpt lat="41.5892517" lon="2.374945"><ele>313.20000000000005</ele><time>2026-04-11T11:29:25.979Z</time></trkpt><trkpt lat="41.5891617" lon="2.3749483"><ele>311.0</ele><time>2026-04-11T11:29:26.979Z</time></trkpt><trkpt lat="41.5890733" lon="2.37493"><ele>311.0</ele><time>2026-04-11T11:29:27.979Z</time></trkpt><trkpt lat="41.5889883" lon="2.3748883"><ele>311.0</ele><time>2026-04-11T11:29:28.979Z</time></trkpt><trkpt lat="41.5889183" lon="2.3747567"><ele>311.0</ele><time>2026-04-11T11:29:29.979Z</time></trkpt><trkpt lat="41.5888517" lon="2.3745933"><ele>311.0</ele><time>2026-04-11T11:29:30.979Z</time></trkpt><trkpt lat="41.5887967" lon="2.3744183"><ele>311.25</ele><time>2026-04-11T11:29:31.979Z</time></trkpt><trkpt lat="41.5887317" lon="2.3742683"><ele>311.5</ele><time>2026-04-11T11:29:32.979Z</time></trkpt><trkpt lat="41.5886567" lon="2.3741483"><ele>311.75</ele><time>2026-04-11T11:29:33.979Z</time></trkpt><trkpt lat="41.5885683" lon="2.3740633"><ele>312.0</ele><time>2026-04-11T11:29:34.98Z</time></trkpt><trkpt lat="41.58846" lon="2.3740017"><ele>312.0</ele><time>2026-04-11T11:29:35.979Z</time></trkpt><trkpt lat="41.5883283" lon="2.3739333"><ele>312.0</ele><time>2026-04-11T11:29:36.979Z</time></trkpt><trkpt lat="41.5881817" lon="2.373885"><ele>312.0</ele><time>2026-04-11T11:29:37.979Z</time></trkpt><trkpt lat="41.5880383" lon="2.3738317"><ele>312.0</ele><time>2026-04-11T11:29:38.979Z</time></trkpt><trkpt lat="41.58788" lon="2.3737717"><ele>311.3333333333333</ele><time>2026-04-11T11:29:39.98Z</time></trkpt><trkpt lat="41.5877217" lon="2.3737083"><ele>310.66666666666663</ele><time>2026-04-11T11:29:40.979Z</time></trkpt><trkpt lat="41.5875767" lon="2.3736483"><ele>310.0</ele><time>2026-04-11T11:29:41.979Z</time></trkpt><trkpt lat="41.5874367" lon="2.373595"><ele>310.0</ele><time>2026-04-11T11:29:42.979Z</time></trkpt><trkpt lat="41.5873083" lon="2.3735383"><ele>310.0</ele><time>2026-04-11T11:29:43.979Z</time></trkpt><trkpt lat="41.5871933" lon="2.3734483"><ele>310.0</ele><time>2026-04-11T11:29:44.979Z</time></trkpt><trkpt lat="41.5870817" lon="2.37332"><ele>310.0</ele><time>2026-04-11T11:29:45.979Z</time></trkpt><trkpt lat="41.5869833" lon="2.37318"><ele>310.5</ele><time>2026-04-11T11:29:46.979Z</time></trkpt><trkpt lat="41.5869" lon="2.373025"><ele>311.0</ele><time>2026-04-11T11:29:47.979Z</time></trkpt><trkpt lat="41.5868133" lon="2.3728733"><ele>311.5</ele><time>2026-04-11T11:29:48.979Z</time></trkpt><trkpt lat="41.58672" lon="2.3727117"><ele>312.0</ele><time>2026-04-11T11:29:49.979Z</time></trkpt><trkpt lat="41.586625" lon="2.3725417"><ele>312.25</ele><time>2026-04-11T11:29:50.979Z</time></trkpt><trkpt lat="41.586535" lon="2.3723767"><ele>312.5</ele><time>2026-04-11T11:29:51.979Z</time></trkpt><trkpt lat="41.5864533" lon="2.372215"><ele>312.75</ele><time>2026-04-11T11:29:52.979Z</time></trkpt><trkpt lat="41.5863783" lon="2.37207"><ele>313.0</ele><time>2026-04-11T11:29:53.979Z</time></trkpt><trkpt lat="41.58631" lon="2.37194"><ele>312.75</ele><time>2026-04-11T11:29:54.979Z</time></trkpt><trkpt lat="41.5862417" lon="2.3718117"><ele>312.5</ele><time>2026-04-11T11:29:55.979Z</time></trkpt><trkpt lat="41.586175" lon="2.371675"><ele>312.25</ele><time>2026-04-11T11:29:56.979Z</time></trkpt><trkpt lat="41.5860983" lon="2.3715033"><ele>312.0</ele><time>2026-04-11T11:29:57.979Z</time></trkpt><trkpt lat="41.5860133" lon="2.3713033"><ele>313.6666666666667</ele><time>2026-04-11T11:29:58.979Z</time></trkpt><trkpt lat="41.5859317" lon="2.3710867"><ele>315.33333333333337</ele><time>2026-04-11T11:29:59.979Z</time></trkpt><trkpt lat="41.5858617" lon="2.37087"><ele>317.0</ele><time>2026-04-11T11:30:00.979Z</time></trkpt><trkpt lat="41.5857983" lon="2.3706533"><ele>317.0</ele><time>2026-04-11T11:30:01.979Z</time></trkpt><trkpt lat="41.5857367" lon="2.3704483"><ele>317.0</ele><time>2026-04-11T11:30:02.979Z</time></trkpt><trkpt lat="41.5856967" lon="2.3702717"><ele>317.0</ele><time>2026-04-11T11:30:03.979Z</time></trkpt><trkpt lat="41.58566" lon="2.3701067"><ele>317.0</ele><time>2026-04-11T11:30:04.979Z</time></trkpt><trkpt lat="41.5855817" lon="2.37"><ele>317.0</ele><time>2026-04-11T11:30:05.979Z</time></trkpt><trkpt lat="41.5854967" lon="2.36995"><ele>317.0</ele><time>2026-04-11T11:30:06.979Z</time></trkpt><trkpt lat="41.5853867" lon="2.3699017"><ele>317.0</ele><time>2026-04-11T11:30:07.979Z</time></trkpt><trkpt lat="41.5852667" lon="2.3698383"><ele>317.0</ele><time>2026-04-11T11:30:08.98Z</time></trkpt><trkpt lat="41.585145" lon="2.369755"><ele>318.33333333333337</ele><time>2026-04-11T11:30:09.979Z</time></trkpt><trkpt lat="41.5850183" lon="2.3696567"><ele>319.6666666666667</ele><time>2026-04-11T11:30:10.979Z</time></trkpt><trkpt lat="41.5848717" lon="2.3695467"><ele>321.0</ele><time>2026-04-11T11:30:11.979Z</time></trkpt><trkpt lat="41.5847217" lon="2.3694133"><ele>321.0</ele><time>2026-04-11T11:30:12.979Z</time></trkpt><trkpt lat="41.58457" lon="2.3692717"><ele>321.0</ele><time>2026-04-11T11:30:13.979Z</time></trkpt><trkpt lat="41.5844533" lon="2.3691467"><ele>321.0</ele><time>2026-04-11T11:30:14.979Z</time></trkpt><trkpt lat="41.5842983" lon="2.3689833"><ele>318.6666666666667</ele><time>2026-04-11T11:30:15.979Z</time></trkpt><trkpt lat="41.5841917" lon="2.3688117"><ele>316.33333333333337</ele><time>2026-04-11T11:30:16.979Z</time></trkpt><trkpt lat="41.5840783" lon="2.3686533"><ele>314.0</ele><time>2026-04-11T11:30:17.979Z</time></trkpt><trkpt lat="41.583955" lon="2.3684983"><ele>314.0</ele><time>2026-04-11T11:30:18.979Z</time></trkpt><trkpt lat="41.5838583" lon="2.3683417"><ele>314.0</ele><time>2026-04-11T11:30:19.979Z</time></trkpt><trkpt lat="41.5837433" lon="2.3681883"><ele>314.0</ele><time>2026-04-11T11:30:20.979Z</time></trkpt><trkpt lat="41.5836433" lon="2.36804"><ele>312.0</ele><time>2026-04-11T11:30:21.979Z</time></trkpt><trkpt lat="41.583545" lon="2.3679033"><ele>310.0</ele><time>2026-04-11T11:30:22.979Z</time></trkpt><trkpt lat="41.5834633" lon="2.3677233"><ele>308.0</ele><time>2026-04-11T11:30:23.979Z</time></trkpt><trkpt lat="41.583405" lon="2.3675633"><ele>306.0</ele><time>2026-04-11T11:30:24.98Z</time></trkpt><trkpt lat="41.5833633" lon="2.36732"><ele>306.0</ele><time>2026-04-11T11:30:25.979Z</time></trkpt><trkpt lat="41.5833217" lon="2.36709"><ele>306.0</ele><time>2026-04-11T11:30:26.979Z</time></trkpt><trkpt lat="41.5832833" lon="2.3668633"><ele>306.0</ele><time>2026-04-11T11:30:27.979Z</time></trkpt><trkpt lat="41.58325" lon="2.3666733"><ele>306.0</ele><time>2026-04-11T11:30:28.979Z</time></trkpt><trkpt lat="41.5832033" lon="2.3664767"><ele>306.0</ele><time>2026-04-11T11:30:29.979Z</time></trkpt><trkpt lat="41.5831667" lon="2.366325"><ele>306.0</ele><time>2026-04-11T11:30:30.979Z</time></trkpt><trkpt lat="41.5831317" lon="2.3662"><ele>306.0</ele><time>2026-04-11T11:30:31.979Z</time></trkpt><trkpt lat="41.5830633" lon="2.366075"><ele>306.75</ele><time>2026-04-11T11:30:32.979Z</time></trkpt><trkpt lat="41.5829717" lon="2.365975"><ele>307.5</ele><time>2026-04-11T11:30:33.979Z</time></trkpt><trkpt lat="41.5828583" lon="2.3658617"><ele>308.25</ele><time>2026-04-11T11:30:34.979Z</time></trkpt><trkpt lat="41.58273" lon="2.3657717"><ele>309.0</ele><time>2026-04-11T11:30:35.979Z</time></trkpt><trkpt lat="41.5826233" lon="2.3656833"><ele>308.2</ele><time>2026-04-11T11:30:36.979Z</time></trkpt><trkpt lat="41.5825267" lon="2.36559"><ele>307.4</ele><time>2026-04-11T11:30:37.979Z</time></trkpt><trkpt lat="41.582435" lon="2.365505"><ele>306.6</ele><time>2026-04-11T11:30:38.979Z</time></trkpt><trkpt lat="41.5823483" lon="2.3654183"><ele>305.8</ele><time>2026-04-11T11:30:39.979Z</time></trkpt><trkpt lat="41.58229" lon="2.3653383"><ele>305.0</ele><time>2026-04-11T11:30:40.979Z</time></trkpt><trkpt lat="41.58222" lon="2.36526"><ele>305.0</ele><time>2026-04-11T11:30:41.979Z</time></trkpt><trkpt lat="41.5821733" lon="2.3651767"><ele>305.0</ele><time>2026-04-11T11:30:42.979Z</time></trkpt><trkpt lat="41.5821333" lon="2.3650817"><ele>305.0</ele><time>2026-04-11T11:30:43.979Z</time></trkpt><trkpt lat="41.5821267" lon="2.3649817"><ele>305.0</ele><time>2026-04-11T11:30:44.979Z</time></trkpt><trkpt lat="41.5821383" lon="2.3648917"><ele>305.0</ele><time>2026-04-11T11:30:45.979Z</time></trkpt><trkpt lat="41.5821333" lon="2.3647383"><ele>305.0</ele><time>2026-04-11T11:30:47.979Z</time></trkpt><trkpt lat="41.5820667" lon="2.3647017"><ele>305.5</ele><time>2026-04-11T11:30:52.979Z</time></trkpt><trkpt lat="41.58199" lon="2.3646833"><ele>306.0</ele><time>2026-04-11T11:30:54.979Z</time></trkpt><trkpt lat="41.5819217" lon="2.3646183"><ele>306.5</ele><time>2026-04-11T11:30:56.979Z</time></trkpt><trkpt lat="41.581855" lon="2.3647067"><ele>307.0</ele><time>2026-04-11T11:31:00.979Z</time></trkpt><trkpt lat="41.5817767" lon="2.36479"><ele>307.5</ele><time>2026-04-11T11:31:02.979Z</time></trkpt><trkpt lat="41.581695" lon="2.3648183"><ele>308.0</ele><time>2026-04-11T11:31:08.979Z</time></trkpt><trkpt lat="41.581655" lon="2.3646667"><ele>309.0</ele><time>2026-04-11T11:31:10.979Z</time></trkpt><trkpt lat="41.5816417" lon="2.3645033"><ele>310.0</ele><time>2026-04-11T11:31:11.979Z</time></trkpt><trkpt lat="41.5816333" lon="2.3643317"><ele>311.0</ele><time>2026-04-11T11:31:12.979Z</time></trkpt><trkpt lat="41.581625" lon="2.36415"><ele>312.0</ele><time>2026-04-11T11:31:13.979Z</time></trkpt><trkpt lat="41.5816167" lon="2.3639633"><ele>310.25</ele><time>2026-04-11T11:31:14.979Z</time></trkpt><trkpt lat="41.5815917" lon="2.3638033"><ele>308.5</ele><time>2026-04-11T11:31:15.979Z</time></trkpt><trkpt lat="41.5815367" lon="2.3636533"><ele>306.75</ele><time>2026-04-11T11:31:16.979Z</time></trkpt><trkpt lat="41.58147" lon="2.3635117"><ele>305.0</ele><time>2026-04-11T11:31:17.979Z</time></trkpt><trkpt lat="41.5813917" lon="2.363375"><ele>305.0</ele><time>2026-04-11T11:31:18.979Z</time></trkpt><trkpt lat="41.5813267" lon="2.363235"><ele>305.0</ele><time>2026-04-11T11:31:19.979Z</time></trkpt><trkpt lat="41.581295" lon="2.363115"><ele>305.0</ele><time>2026-04-11T11:31:20.979Z</time></trkpt><trkpt lat="41.5812883" lon="2.3629667"><ele>305.0</ele><time>2026-04-11T11:31:21.979Z</time></trkpt><trkpt lat="41.581285" lon="2.3628167"><ele>305.0</ele><time>2026-04-11T11:31:22.979Z</time></trkpt><trkpt lat="41.58129" lon="2.3626733"><ele>305.2</ele><time>2026-04-11T11:31:23.979Z</time></trkpt><trkpt lat="41.5812933" lon="2.36253"><ele>305.4</ele><time>2026-04-11T11:31:24.979Z</time></trkpt><trkpt lat="41.5812633" lon="2.3624217"><ele>305.6</ele><time>2026-04-11T11:31:25.979Z</time></trkpt><trkpt lat="41.5812183" lon="2.3623333"><ele>305.8</ele><time>2026-04-11T11:31:26.979Z</time></trkpt><trkpt lat="41.581165" lon="2.3622767"><ele>306.0</ele><time>2026-04-11T11:31:27.979Z</time></trkpt><trkpt lat="41.581045" lon="2.3622583"><ele>308.0</ele><time>2026-04-11T11:31:29.979Z</time></trkpt><trkpt lat="41.5809583" lon="2.3623017"><ele>310.0</ele><time>2026-04-11T11:31:30.98Z</time></trkpt><trkpt lat="41.580865" lon="2.36232"><ele>312.0</ele><time>2026-04-11T11:31:31.979Z</time></trkpt><trkpt lat="41.5807667" lon="2.3622933"><ele>314.0</ele><time>2026-04-11T11:31:32.98Z</time></trkpt><trkpt lat="41.5806533" lon="2.3622383"><ele>316.0</ele><time>2026-04-11T11:31:33.979Z</time></trkpt><trkpt lat="41.58055" lon="2.3622067"><ele>316.6</ele><time>2026-04-11T11:31:34.979Z</time></trkpt><trkpt lat="41.5804483" lon="2.3621933"><ele>317.20000000000005</ele><time>2026-04-11T11:31:35.979Z</time></trkpt><trkpt lat="41.5803483" lon="2.3622217"><ele>317.79999999999995</ele><time>2026-04-11T11:31:36.979Z</time></trkpt><trkpt lat="41.58025" lon="2.3623017"><ele>318.4</ele><time>2026-04-11T11:31:37.979Z</time></trkpt><trkpt lat="41.58015" lon="2.3624033"><ele>319.0</ele><time>2026-04-11T11:31:38.979Z</time></trkpt><trkpt lat="41.5800317" lon="2.3625"><ele>319.0</ele><time>2026-04-11T11:31:39.979Z</time></trkpt><trkpt lat="41.5798917" lon="2.36256"><ele>319.0</ele><time>2026-04-11T11:31:40.979Z</time></trkpt><trkpt lat="41.579745" lon="2.3625933"><ele>319.0</ele><time>2026-04-11T11:31:41.979Z</time></trkpt><trkpt lat="41.579615" lon="2.3626217"><ele>319.0</ele><time>2026-04-11T11:31:42.979Z</time></trkpt><trkpt lat="41.579505" lon="2.3626217"><ele>319.2</ele><time>2026-04-11T11:31:43.979Z</time></trkpt><trkpt lat="41.5794217" lon="2.3626217"><ele>319.4</ele><time>2026-04-11T11:31:44.98Z</time></trkpt><trkpt lat="41.5793417" lon="2.3625733"><ele>319.6</ele><time>2026-04-11T11:31:45.979Z</time></trkpt><trkpt lat="41.5792617" lon="2.3624767"><ele>319.8</ele><time>2026-04-11T11:31:46.979Z</time></trkpt><trkpt lat="41.579165" lon="2.3623883"><ele>320.0</ele><time>2026-04-11T11:31:47.978Z</time></trkpt><trkpt lat="41.5790467" lon="2.3622867"><ele>318.0</ele><time>2026-04-11T11:31:48.979Z</time></trkpt><trkpt lat="41.578905" lon="2.362175"><ele>316.0</ele><time>2026-04-11T11:31:49.979Z</time></trkpt><trkpt lat="41.5787583" lon="2.3620433"><ele>314.0</ele><time>2026-04-11T11:31:50.979Z</time></trkpt><trkpt lat="41.5786033" lon="2.3618917"><ele>319.0</ele><time>2026-04-11T11:31:51.979Z</time></trkpt><trkpt lat="41.578465" lon="2.3617283"><ele>324.0</ele><time>2026-04-11T11:31:52.979Z</time></trkpt><trkpt lat="41.578315" lon="2.3615767"><ele>329.0</ele><time>2026-04-11T11:31:53.979Z</time></trkpt><trkpt lat="41.5781783" lon="2.3614567"><ele>327.6666666666667</ele><time>2026-04-11T11:31:54.979Z</time></trkpt><trkpt lat="41.578045" lon="2.361345"><ele>326.3333333333333</ele><time>2026-04-11T11:31:55.979Z</time></trkpt><trkpt lat="41.5779017" lon="2.3612667"><ele>325.0</ele><time>2026-04-11T11:31:56.979Z</time></trkpt><trkpt lat="41.5777633" lon="2.3611983"><ele>328.5</ele><time>2026-04-11T11:31:57.979Z</time></trkpt><trkpt lat="41.5776233" lon="2.36117"><ele>332.0</ele><time>2026-04-11T11:31:58.979Z</time></trkpt><trkpt lat="41.57749" lon="2.361135"><ele>335.5</ele><time>2026-04-11T11:31:59.979Z</time></trkpt><trkpt lat="41.57736" lon="2.3610833"><ele>339.0</ele><time>2026-04-11T11:32:00.979Z</time></trkpt><trkpt lat="41.577235" lon="2.3610167"><ele>339.0</ele><time>2026-04-11T11:32:01.979Z</time></trkpt><trkpt lat="41.5771067" lon="2.3609"><ele>339.0</ele><time>2026-04-11T11:32:02.979Z</time></trkpt><trkpt lat="41.576975" lon="2.3607583"><ele>339.0</ele><time>2026-04-11T11:32:03.979Z</time></trkpt><trkpt lat="41.5768367" lon="2.3606217"><ele>339.0</ele><time>2026-04-11T11:32:04.979Z</time></trkpt><trkpt lat="41.5766933" lon="2.3605333"><ele>339.0</ele><time>2026-04-11T11:32:05.979Z</time></trkpt><trkpt lat="41.5765633" lon="2.3604333"><ele>339.0</ele><time>2026-04-11T11:32:06.979Z</time></trkpt><trkpt lat="41.57645" lon="2.36031"><ele>339.0</ele><time>2026-04-11T11:32:07.979Z</time></trkpt><trkpt lat="41.57634" lon="2.3601633"><ele>339.0</ele><time>2026-04-11T11:32:08.979Z</time></trkpt><trkpt lat="41.5762217" lon="2.3599967"><ele>339.0</ele><time>2026-04-11T11:32:09.979Z</time></trkpt><trkpt lat="41.5761" lon="2.35977"><ele>335.6666666666667</ele><time>2026-04-11T11:32:10.979Z</time></trkpt><trkpt lat="41.5759533" lon="2.35957"><ele>332.33333333333337</ele><time>2026-04-11T11:32:11.979Z</time></trkpt><trkpt lat="41.5758033" lon="2.3593633"><ele>329.0</ele><time>2026-04-11T11:32:12.979Z</time></trkpt><trkpt lat="41.5756533" lon="2.359155"><ele>329.0</ele><time>2026-04-11T11:32:13.979Z</time></trkpt><trkpt lat="41.5755117" lon="2.35895"><ele>329.0</ele><time>2026-04-11T11:32:14.979Z</time></trkpt><trkpt lat="41.5753717" lon="2.3587233"><ele>329.0</ele><time>2026-04-11T11:32:15.98Z</time></trkpt><trkpt lat="41.57523" lon="2.3585083"><ele>329.33333333333337</ele><time>2026-04-11T11:32:16.979Z</time></trkpt><trkpt lat="41.57508" lon="2.358295"><ele>329.6666666666667</ele><time>2026-04-11T11:32:17.979Z</time></trkpt><trkpt lat="41.57493" lon="2.3580867"><ele>330.0</ele><time>2026-04-11T11:32:18.979Z</time></trkpt><trkpt lat="41.57478" lon="2.3578967"><ele>330.0</ele><time>2026-04-11T11:32:19.979Z</time></trkpt><trkpt lat="41.5746483" lon="2.3577117"><ele>330.0</ele><time>2026-04-11T11:32:20.979Z</time></trkpt><trkpt lat="41.57451" lon="2.357545"><ele>330.0</ele><time>2026-04-11T11:32:21.979Z</time></trkpt><trkpt lat="41.5743717" lon="2.35739"><ele>328.6666666666667</ele><time>2026-04-11T11:32:22.979Z</time></trkpt><trkpt lat="41.57425" lon="2.35724"><ele>327.33333333333337</ele><time>2026-04-11T11:32:23.979Z</time></trkpt><trkpt lat="41.5741283" lon="2.3571017"><ele>326.0</ele><time>2026-04-11T11:32:24.979Z</time></trkpt><trkpt lat="41.5740367" lon="2.3569583"><ele>327.75</ele><time>2026-04-11T11:32:25.979Z</time></trkpt><trkpt lat="41.573955" lon="2.356795"><ele>329.5</ele><time>2026-04-11T11:32:26.979Z</time></trkpt><trkpt lat="41.57387" lon="2.3566233"><ele>331.25</ele><time>2026-04-11T11:32:27.979Z</time></trkpt><trkpt lat="41.5737783" lon="2.3564767"><ele>333.0</ele><time>2026-04-11T11:32:28.979Z</time></trkpt><trkpt lat="41.5736817" lon="2.3563233"><ele>333.0</ele><time>2026-04-11T11:32:29.979Z</time></trkpt><trkpt lat="41.57359" lon="2.3561717"><ele>333.0</ele><time>2026-04-11T11:32:30.979Z</time></trkpt><trkpt lat="41.5734967" lon="2.3560267"><ele>333.0</ele><time>2026-04-11T11:32:31.979Z</time></trkpt><trkpt lat="41.5734233" lon="2.3558717"><ele>333.0</ele><time>2026-04-11T11:32:32.979Z</time></trkpt><trkpt lat="41.5733467" lon="2.3557183"><ele>333.0</ele><time>2026-04-11T11:32:33.979Z</time></trkpt><trkpt lat="41.5732517" lon="2.3555867"><ele>333.0</ele><time>2026-04-11T11:32:34.979Z</time></trkpt><trkpt lat="41.57313" lon="2.3554617"><ele>333.0</ele><time>2026-04-11T11:32:35.979Z</time></trkpt><trkpt lat="41.572985" lon="2.3553383"><ele>333.6666666666667</ele><time>2026-04-11T11:32:36.979Z</time></trkpt><trkpt lat="41.5728367" lon="2.3552417"><ele>334.33333333333337</ele><time>2026-04-11T11:32:37.979Z</time></trkpt><trkpt lat="41.572685" lon="2.3551317"><ele>335.0</ele><time>2026-04-11T11:32:38.979Z</time></trkpt><trkpt lat="41.5725517" lon="2.3550033"><ele>335.0</ele><time>2026-04-11T11:32:39.98Z</time></trkpt><trkpt lat="41.5724317" lon="2.3548933"><ele>335.0</ele><time>2026-04-11T11:32:40.979Z</time></trkpt><trkpt lat="41.572315" lon="2.3548"><ele>335.0</ele><time>2026-04-11T11:32:41.979Z</time></trkpt><trkpt lat="41.572195" lon="2.3547433"><ele>335.0</ele><time>2026-04-11T11:32:42.979Z</time></trkpt><trkpt lat="41.5720833" lon="2.3547283"><ele>335.4</ele><time>2026-04-11T11:32:43.979Z</time></trkpt><trkpt lat="41.5719867" lon="2.3547183"><ele>335.8</ele><time>2026-04-11T11:32:44.979Z</time></trkpt><trkpt lat="41.5719" lon="2.3546967"><ele>336.20000000000005</ele><time>2026-04-11T11:32:45.979Z</time></trkpt><trkpt lat="41.571815" lon="2.3546483"><ele>336.6</ele><time>2026-04-11T11:32:46.979Z</time></trkpt><trkpt lat="41.5717467" lon="2.35458"><ele>337.0</ele><time>2026-04-11T11:32:47.979Z</time></trkpt><trkpt lat="41.5716933" lon="2.3544767"><ele>337.0</ele><time>2026-04-11T11:32:48.979Z</time></trkpt><trkpt lat="41.5716233" lon="2.3543567"><ele>337.0</ele><time>2026-04-11T11:32:49.979Z</time></trkpt><trkpt lat="41.57152" lon="2.3542217"><ele>337.0</ele><time>2026-04-11T11:32:50.979Z</time></trkpt><trkpt lat="41.5713883" lon="2.3540983"><ele>337.0</ele><time>2026-04-11T11:32:51.979Z</time></trkpt><trkpt lat="41.5712217" lon="2.3539683"><ele>338.0</ele><time>2026-04-11T11:32:52.979Z</time></trkpt><trkpt lat="41.57104" lon="2.3538417"><ele>339.0</ele><time>2026-04-11T11:32:53.979Z</time></trkpt><trkpt lat="41.5708533" lon="2.3537117"><ele>340.0</ele><time>2026-04-11T11:32:54.979Z</time></trkpt><trkpt lat="41.5706567" lon="2.353565"><ele>340.0</ele><time>2026-04-11T11:32:55.979Z</time></trkpt><trkpt lat="41.5704617" lon="2.353435"><ele>340.0</ele><time>2026-04-11T11:32:56.979Z</time></trkpt><trkpt lat="41.5702683" lon="2.3533217"><ele>340.0</ele><time>2026-04-11T11:32:57.979Z</time></trkpt><trkpt lat="41.5700917" lon="2.3532283"><ele>344.3333333333333</ele><time>2026-04-11T11:32:58.979Z</time></trkpt><trkpt lat="41.5699167" lon="2.3531333"><ele>348.6666666666667</ele><time>2026-04-11T11:32:59.979Z</time></trkpt><trkpt lat="41.569745" lon="2.35303"><ele>353.0</ele><time>2026-04-11T11:33:00.979Z</time></trkpt><trkpt lat="41.5695733" lon="2.35291"><ele>347.0</ele><time>2026-04-11T11:33:01.979Z</time></trkpt><trkpt lat="41.5694133" lon="2.3527817"><ele>341.0</ele><time>2026-04-11T11:33:02.979Z</time></trkpt><trkpt lat="41.5692733" lon="2.3526617"><ele>335.0</ele><time>2026-04-11T11:33:03.979Z</time></trkpt><trkpt lat="41.56915" lon="2.35256"><ele>335.0</ele><time>2026-04-11T11:33:04.979Z</time></trkpt><trkpt lat="41.569045" lon="2.3524533"><ele>335.0</ele><time>2026-04-11T11:33:05.979Z</time></trkpt><trkpt lat="41.5689367" lon="2.3523217"><ele>335.0</ele><time>2026-04-11T11:33:06.978Z</time></trkpt><trkpt lat="41.5688183" lon="2.3521683"><ele>335.0</ele><time>2026-04-11T11:33:07.978Z</time></trkpt><trkpt lat="41.5687067" lon="2.3519933"><ele>333.0</ele><time>2026-04-11T11:33:08.978Z</time></trkpt><trkpt lat="41.5685983" lon="2.3518033"><ele>331.0</ele><time>2026-04-11T11:33:09.978Z</time></trkpt><trkpt lat="41.5684917" lon="2.3515867"><ele>329.0</ele><time>2026-04-11T11:33:10.978Z</time></trkpt><trkpt lat="41.5683733" lon="2.3513767"><ele>334.6666666666667</ele><time>2026-04-11T11:33:11.978Z</time></trkpt><trkpt lat="41.568275" lon="2.3511633"><ele>340.3333333333333</ele><time>2026-04-11T11:33:12.978Z</time></trkpt><trkpt lat="41.5681967" lon="2.350955"><ele>346.0</ele><time>2026-04-11T11:33:13.978Z</time></trkpt><trkpt lat="41.5681267" lon="2.3507833"><ele>346.0</ele><time>2026-04-11T11:33:14.979Z</time></trkpt><trkpt lat="41.5680583" lon="2.350625"><ele>346.0</ele><time>2026-04-11T11:33:15.978Z</time></trkpt><trkpt lat="41.5679683" lon="2.3504667"><ele>346.0</ele><time>2026-04-11T11:33:16.978Z</time></trkpt><trkpt lat="41.5678583" lon="2.3503217"><ele>346.0</ele><time>2026-04-11T11:33:17.979Z</time></trkpt><trkpt lat="41.5677317" lon="2.350215"><ele>346.25</ele><time>2026-04-11T11:33:18.978Z</time></trkpt><trkpt lat="41.567625" lon="2.3501317"><ele>346.5</ele><time>2026-04-11T11:33:19.978Z</time></trkpt><trkpt lat="41.56752" lon="2.3500633"><ele>346.75</ele><time>2026-04-11T11:33:20.978Z</time></trkpt><trkpt lat="41.5674017" lon="2.350025"><ele>347.0</ele><time>2026-04-11T11:33:21.978Z</time></trkpt><trkpt lat="41.56725" lon="2.3500033"><ele>347.0</ele><time>2026-04-11T11:33:22.978Z</time></trkpt><trkpt lat="41.5670783" lon="2.35001"><ele>347.0</ele><time>2026-04-11T11:33:23.979Z</time></trkpt><trkpt lat="41.5669167" lon="2.350025"><ele>347.0</ele><time>2026-04-11T11:33:24.978Z</time></trkpt><trkpt lat="41.56677" lon="2.350025"><ele>346.0</ele><time>2026-04-11T11:33:25.978Z</time></trkpt><trkpt lat="41.566615" lon="2.3500217"><ele>345.0</ele><time>2026-04-11T11:33:26.978Z</time></trkpt><trkpt lat="41.5664467" lon="2.34998"><ele>344.0</ele><time>2026-04-11T11:33:27.978Z</time></trkpt><trkpt lat="41.5662633" lon="2.3499483"><ele>341.6666666666667</ele><time>2026-04-11T11:33:28.978Z</time></trkpt><trkpt lat="41.5661" lon="2.3499083"><ele>339.3333333333333</ele><time>2026-04-11T11:33:29.978Z</time></trkpt><trkpt lat="41.5659483" lon="2.349865"><ele>337.0</ele><time>2026-04-11T11:33:30.978Z</time></trkpt><trkpt lat="41.5658233" lon="2.34981"><ele>337.0</ele><time>2026-04-11T11:33:31.978Z</time></trkpt><trkpt lat="41.5657067" lon="2.3497567"><ele>337.0</ele><time>2026-04-11T11:33:32.978Z</time></trkpt><trkpt lat="41.5656033" lon="2.34972"><ele>337.0</ele><time>2026-04-11T11:33:33.978Z</time></trkpt><trkpt lat="41.5655233" lon="2.3496967"><ele>337.0</ele><time>2026-04-11T11:33:34.979Z</time></trkpt><trkpt lat="41.56542" lon="2.34969"><ele>337.0</ele><time>2026-04-11T11:33:36.978Z</time></trkpt><trkpt lat="41.5653533" lon="2.349775"><ele>337.0</ele><time>2026-04-11T11:33:38.978Z</time></trkpt><trkpt lat="41.565335" lon="2.3499533"><ele>337.0</ele><time>2026-04-11T11:33:40.978Z</time></trkpt><trkpt lat="41.565325" lon="2.3500417"><ele>337.0</ele><time>2026-04-11T11:33:41.978Z</time></trkpt><trkpt lat="41.5653283" lon="2.3501317"><ele>337.0</ele><time>2026-04-11T11:33:42.978Z</time></trkpt><trkpt lat="41.5653683" lon="2.3502817"><ele>337.0</ele><time>2026-04-11T11:33:44.978Z</time></trkpt><trkpt lat="41.565395" lon="2.35041"><ele>332.6</ele><time>2026-04-11T11:33:46.978Z</time></trkpt><trkpt lat="41.5653733" lon="2.3505433"><ele>328.20000000000005</ele><time>2026-04-11T11:33:48.978Z</time></trkpt><trkpt lat="41.56531" lon="2.3506667"><ele>323.8</ele><time>2026-04-11T11:33:50.978Z</time></trkpt><trkpt lat="41.5652033" lon="2.3507483"><ele>319.4</ele><time>2026-04-11T11:33:52.978Z</time></trkpt><trkpt lat="41.5651383" lon="2.350765"><ele>315.0</ele><time>2026-04-11T11:33:53.978Z</time></trkpt><trkpt lat="41.5650617" lon="2.3507633"><ele>315.0</ele><time>2026-04-11T11:33:54.978Z</time></trkpt><trkpt lat="41.5649833" lon="2.3507783"><ele>315.0</ele><time>2026-04-11T11:33:55.978Z</time></trkpt><trkpt lat="41.5649167" lon="2.350815"><ele>315.0</ele><time>2026-04-11T11:33:56.978Z</time></trkpt><trkpt lat="41.56486" lon="2.35086"><ele>315.0</ele><time>2026-04-11T11:33:57.978Z</time></trkpt><trkpt lat="41.5647567" lon="2.3509267"><ele>315.0</ele><time>2026-04-11T11:33:59.978Z</time></trkpt><trkpt lat="41.5646667" lon="2.3509367"><ele>315.0</ele><time>2026-04-11T11:34:01.978Z</time></trkpt><trkpt lat="41.5645967" lon="2.35082"><ele>315.0</ele><time>2026-04-11T11:34:03.978Z</time></trkpt><trkpt lat="41.5646" lon="2.3507083"><ele>315.0</ele><time>2026-04-11T11:34:04.978Z</time></trkpt><trkpt lat="41.5646017" lon="2.3505617"><ele>315.0</ele><time>2026-04-11T11:34:05.978Z</time></trkpt><trkpt lat="41.5646183" lon="2.3504283"><ele>315.0</ele><time>2026-04-11T11:34:06.978Z</time></trkpt><trkpt lat="41.564605" lon="2.3503233"><ele>315.0</ele><time>2026-04-11T11:34:07.978Z</time></trkpt><trkpt lat="41.5646033" lon="2.3502267"><ele>315.0</ele><time>2026-04-11T11:34:08.978Z</time></trkpt><trkpt lat="41.56461" lon="2.35009"><ele>315.8333333333333</ele><time>2026-04-11T11:34:10.978Z</time></trkpt><trkpt lat="41.5645617" lon="2.3501483"><ele>316.6666666666667</ele><time>2026-04-11T11:34:16.978Z</time></trkpt><trkpt lat="41.56453" lon="2.3502617"><ele>317.5</ele><time>2026-04-11T11:34:17.978Z</time></trkpt><trkpt lat="41.5645" lon="2.35038"><ele>318.33333333333337</ele><time>2026-04-11T11:34:18.978Z</time></trkpt><trkpt lat="41.5644517" lon="2.3505"><ele>319.1666666666667</ele><time>2026-04-11T11:34:19.978Z</time></trkpt><trkpt lat="41.5644017" lon="2.350605"><ele>320.0</ele><time>2026-04-11T11:34:20.978Z</time></trkpt><trkpt lat="41.5643433" lon="2.3507217"><ele>314.8</ele><time>2026-04-11T11:34:21.978Z</time></trkpt><trkpt lat="41.564295" lon="2.3508217"><ele>309.6</ele><time>2026-04-11T11:34:22.979Z</time></trkpt><trkpt lat="41.5642583" lon="2.3509067"><ele>304.4</ele><time>2026-04-11T11:34:23.978Z</time></trkpt><trkpt lat="41.5641883" lon="2.351015"><ele>299.2</ele><time>2026-04-11T11:34:25.978Z</time></trkpt><trkpt lat="41.5641017" lon="2.3509617"><ele>294.0</ele><time>2026-04-11T11:34:28.978Z</time></trkpt><trkpt lat="41.5640733" lon="2.3508517"><ele>294.0</ele><time>2026-04-11T11:34:30.978Z</time></trkpt><trkpt lat="41.5640733" lon="2.3507517"><ele>294.0</ele><time>2026-04-11T11:34:31.978Z</time></trkpt><trkpt lat="41.5640883" lon="2.3506267"><ele>294.0</ele><time>2026-04-11T11:34:32.978Z</time></trkpt><trkpt lat="41.5641133" lon="2.350505"><ele>294.0</ele><time>2026-04-11T11:34:33.978Z</time></trkpt><trkpt lat="41.564125" lon="2.3503883"><ele>294.0</ele><time>2026-04-11T11:34:34.978Z</time></trkpt><trkpt lat="41.5641217" lon="2.3502933"><ele>294.0</ele><time>2026-04-11T11:34:35.979Z</time></trkpt><trkpt lat="41.5641167" lon="2.3501983"><ele>294.1666666666667</ele><time>2026-04-11T11:34:36.978Z</time></trkpt><trkpt lat="41.5641083" lon="2.3501117"><ele>294.3333333333333</ele><time>2026-04-11T11:34:37.978Z</time></trkpt><trkpt lat="41.5640683" lon="2.349965"><ele>294.5</ele><time>2026-04-11T11:34:39.978Z</time></trkpt><trkpt lat="41.563985" lon="2.3499"><ele>294.66666666666663</ele><time>2026-04-11T11:34:41.978Z</time></trkpt><trkpt lat="41.5639017" lon="2.3498867"><ele>294.8333333333333</ele><time>2026-04-11T11:34:42.979Z</time></trkpt><trkpt lat="41.56383" lon="2.3498517"><ele>295.0</ele><time>2026-04-11T11:34:43.978Z</time></trkpt><trkpt lat="41.5637583" lon="2.3497883"><ele>295.3333333333333</ele><time>2026-04-11T11:34:44.978Z</time></trkpt><trkpt lat="41.5636967" lon="2.3497317"><ele>295.66666666666663</ele><time>2026-04-11T11:34:45.978Z</time></trkpt><trkpt lat="41.5636383" lon="2.349645"><ele>296.0</ele><time>2026-04-11T11:34:46.978Z</time></trkpt><trkpt lat="41.5635867" lon="2.3495367"><ele>296.3333333333333</ele><time>2026-04-11T11:34:47.978Z</time></trkpt><trkpt lat="41.56355" lon="2.3494417"><ele>296.6666666666667</ele><time>2026-04-11T11:34:48.978Z</time></trkpt><trkpt lat="41.5635033" lon="2.349365"><ele>297.0</ele><time>2026-04-11T11:34:49.978Z</time></trkpt><trkpt lat="41.5633983" lon="2.349295"><ele>297.0</ele><time>2026-04-11T11:34:51.978Z</time></trkpt><trkpt lat="41.5633183" lon="2.3494283"><ele>297.0</ele><time>2026-04-11T11:34:53.978Z</time></trkpt><trkpt lat="41.563265" lon="2.3495033"><ele>297.0</ele><time>2026-04-11T11:34:54.978Z</time></trkpt><trkpt lat="41.5632067" lon="2.349575"><ele>297.0</ele><time>2026-04-11T11:34:55.978Z</time></trkpt><trkpt lat="41.5631117" lon="2.34968"><ele>297.0</ele><time>2026-04-11T11:34:56.978Z</time></trkpt><trkpt lat="41.5630183" lon="2.3497817"><ele>296.5</ele><time>2026-04-11T11:34:57.978Z</time></trkpt><trkpt lat="41.5629083" lon="2.3499017"><ele>296.0</ele><time>2026-04-11T11:34:58.978Z</time></trkpt><trkpt lat="41.5627983" lon="2.3500083"><ele>295.5</ele><time>2026-04-11T11:34:59.978Z</time></trkpt><trkpt lat="41.5626867" lon="2.3501117"><ele>295.0</ele><time>2026-04-11T11:35:00.978Z</time></trkpt><trkpt lat="41.5625683" lon="2.350195"><ele>295.0</ele><time>2026-04-11T11:35:01.978Z</time></trkpt><trkpt lat="41.5624417" lon="2.3502817"><ele>295.0</ele><time>2026-04-11T11:35:02.978Z</time></trkpt><trkpt lat="41.5623117" lon="2.35035"><ele>295.0</ele><time>2026-04-11T11:35:03.978Z</time></trkpt><trkpt lat="41.5621933" lon="2.3504033"><ele>295.0</ele><time>2026-04-11T11:35:04.978Z</time></trkpt><trkpt lat="41.56208" lon="2.3504533"><ele>296.6</ele><time>2026-04-11T11:35:05.978Z</time></trkpt><trkpt lat="41.5619733" lon="2.350485"><ele>298.2</ele><time>2026-04-11T11:35:06.978Z</time></trkpt><trkpt lat="41.56187" lon="2.35051"><ele>299.8</ele><time>2026-04-11T11:35:07.978Z</time></trkpt><trkpt lat="41.5617983" lon="2.3505"><ele>301.4</ele><time>2026-04-11T11:35:08.978Z</time></trkpt><trkpt lat="41.5616933" lon="2.3504817"><ele>303.0</ele><time>2026-04-11T11:35:09.978Z</time></trkpt><trkpt lat="41.5615467" lon="2.3504417"><ele>303.0</ele><time>2026-04-11T11:35:10.978Z</time></trkpt><trkpt lat="41.5614333" lon="2.3504333"><ele>303.0</ele><time>2026-04-11T11:35:11.978Z</time></trkpt><trkpt lat="41.56133" lon="2.3503717"><ele>303.0</ele><time>2026-04-11T11:35:12.978Z</time></trkpt><trkpt lat="41.561245" lon="2.3502983"><ele>303.0</ele><time>2026-04-11T11:35:13.978Z</time></trkpt><trkpt lat="41.561175" lon="2.35022"><ele>303.0</ele><time>2026-04-11T11:35:14.978Z</time></trkpt><trkpt lat="41.5611167" lon="2.350145"><ele>303.0</ele><time>2026-04-11T11:35:15.978Z</time></trkpt><trkpt lat="41.56104" lon="2.3500933"><ele>303.0</ele><time>2026-04-11T11:35:16.978Z</time></trkpt><trkpt lat="41.5610133" lon="2.3499733"><ele>303.0</ele><time>2026-04-11T11:35:18.978Z</time></trkpt><trkpt lat="41.5610733" lon="2.3498617"><ele>303.0</ele><time>2026-04-11T11:35:20.978Z</time></trkpt><trkpt lat="41.5612333" lon="2.3498067"><ele>303.0</ele><time>2026-04-11T11:35:22.978Z</time></trkpt><trkpt lat="41.56134" lon="2.3498017"><ele>303.0</ele><time>2026-04-11T11:35:23.978Z</time></trkpt><trkpt lat="41.5614517" lon="2.3497917"><ele>303.0</ele><time>2026-04-11T11:35:24.978Z</time></trkpt><trkpt lat="41.56157" lon="2.3497733"><ele>303.0</ele><time>2026-04-11T11:35:25.978Z</time></trkpt><trkpt lat="41.56167" lon="2.3497517"><ele>303.0</ele><time>2026-04-11T11:35:26.978Z</time></trkpt><trkpt lat="41.5617417" lon="2.34973"><ele>303.0</ele><time>2026-04-11T11:35:27.978Z</time></trkpt><trkpt lat="41.56177" lon="2.3496283"><ele>305.5</ele><time>2026-04-11T11:35:29.978Z</time></trkpt><trkpt lat="41.56171" lon="2.349525"><ele>308.0</ele><time>2026-04-11T11:35:31.978Z</time></trkpt><trkpt lat="41.5616517" lon="2.3494517"><ele>310.5</ele><time>2026-04-11T11:35:32.978Z</time></trkpt><trkpt lat="41.561615" lon="2.3493583"><ele>313.0</ele><time>2026-04-11T11:35:33.978Z</time></trkpt><trkpt lat="41.5615733" lon="2.3492583"><ele>315.5</ele><time>2026-04-11T11:35:34.978Z</time></trkpt><trkpt lat="41.561525" lon="2.34917"><ele>318.0</ele><time>2026-04-11T11:35:35.978Z</time></trkpt><trkpt lat="41.5614783" lon="2.349095"><ele>318.0</ele><time>2026-04-11T11:35:36.978Z</time></trkpt><trkpt lat="41.5614383" lon="2.3490167"><ele>318.0</ele><time>2026-04-11T11:35:37.978Z</time></trkpt><trkpt lat="41.5614017" lon="2.3489317"><ele>318.0</ele><time>2026-04-11T11:35:38.978Z</time></trkpt><trkpt lat="41.5613483" lon="2.34884"><ele>318.0</ele><time>2026-04-11T11:35:39.978Z</time></trkpt><trkpt lat="41.5612717" lon="2.3487533"><ele>318.0</ele><time>2026-04-11T11:35:40.978Z</time></trkpt><trkpt lat="41.5611517" lon="2.3486917"><ele>319.3333333333333</ele><time>2026-04-11T11:35:41.978Z</time></trkpt><trkpt lat="41.56099" lon="2.34866"><ele>320.66666666666663</ele><time>2026-04-11T11:35:42.978Z</time></trkpt><trkpt lat="41.5608133" lon="2.34862"><ele>322.0</ele><time>2026-04-11T11:35:43.978Z</time></trkpt><trkpt lat="41.5606367" lon="2.3485583"><ele>322.0</ele><time>2026-04-11T11:35:44.979Z</time></trkpt><trkpt lat="41.5604717" lon="2.34848"><ele>322.0</ele><time>2026-04-11T11:35:45.978Z</time></trkpt><trkpt lat="41.560325" lon="2.3483817"><ele>322.0</ele><time>2026-04-11T11:35:46.978Z</time></trkpt><trkpt lat="41.5601767" lon="2.3482767"><ele>324.5</ele><time>2026-04-11T11:35:47.978Z</time></trkpt><trkpt lat="41.56004" lon="2.3481817"><ele>327.0</ele><time>2026-04-11T11:35:48.978Z</time></trkpt><trkpt lat="41.5599167" lon="2.3480917"><ele>329.5</ele><time>2026-04-11T11:35:49.978Z</time></trkpt><trkpt lat="41.5597917" lon="2.3480117"><ele>332.0</ele><time>2026-04-11T11:35:50.978Z</time></trkpt><trkpt lat="41.559675" lon="2.347975"><ele>332.0</ele><time>2026-04-11T11:35:51.978Z</time></trkpt><trkpt lat="41.5595717" lon="2.3480017"><ele>332.0</ele><time>2026-04-11T11:35:52.978Z</time></trkpt><trkpt lat="41.5594967" lon="2.3480767"><ele>332.0</ele><time>2026-04-11T11:35:53.978Z</time></trkpt><trkpt lat="41.5594417" lon="2.3482167"><ele>332.0</ele><time>2026-04-11T11:35:54.978Z</time></trkpt><trkpt lat="41.5594367" lon="2.3483983"><ele>332.0</ele><time>2026-04-11T11:35:55.978Z</time></trkpt><trkpt lat="41.55948" lon="2.34858"><ele>332.0</ele><time>2026-04-11T11:35:56.978Z</time></trkpt><trkpt lat="41.55956" lon="2.348775"><ele>332.0</ele><time>2026-04-11T11:35:57.978Z</time></trkpt><trkpt lat="41.55962" lon="2.34897"><ele>319.6666666666667</ele><time>2026-04-11T11:35:58.978Z</time></trkpt><trkpt lat="41.55965" lon="2.34917"><ele>307.3333333333333</ele><time>2026-04-11T11:35:59.978Z</time></trkpt><trkpt lat="41.5596583" lon="2.34937"><ele>295.0</ele><time>2026-04-11T11:36:00.978Z</time></trkpt><trkpt lat="41.559625" lon="2.3495867"><ele>289.66666666666663</ele><time>2026-04-11T11:36:01.978Z</time></trkpt><trkpt lat="41.55956" lon="2.3498067"><ele>284.3333333333333</ele><time>2026-04-11T11:36:02.979Z</time></trkpt><trkpt lat="41.5594967" lon="2.3500333"><ele>279.0</ele><time>2026-04-11T11:36:03.978Z</time></trkpt><trkpt lat="41.55946" lon="2.3502733"><ele>288.0</ele><time>2026-04-11T11:36:04.978Z</time></trkpt><trkpt lat="41.5594367" lon="2.3505083"><ele>297.0</ele><time>2026-04-11T11:36:05.978Z</time></trkpt><trkpt lat="41.559425" lon="2.35074"><ele>306.0</ele><time>2026-04-11T11:36:06.978Z</time></trkpt><trkpt lat="41.559415" lon="2.3509717"><ele>306.0</ele><time>2026-04-11T11:36:07.978Z</time></trkpt><trkpt lat="41.5594083" lon="2.3511983"><ele>306.0</ele><time>2026-04-11T11:36:08.978Z</time></trkpt><trkpt lat="41.559395" lon="2.3514183"><ele>306.0</ele><time>2026-04-11T11:36:09.979Z</time></trkpt><trkpt lat="41.5593717" lon="2.3516233"><ele>303.25</ele><time>2026-04-11T11:36:10.978Z</time></trkpt><trkpt lat="41.559345" lon="2.35176"><ele>300.5</ele><time>2026-04-11T11:36:11.978Z</time></trkpt><trkpt lat="41.5592983" lon="2.3519117"><ele>297.75</ele><time>2026-04-11T11:36:12.978Z</time></trkpt><trkpt lat="41.55922" lon="2.3520483"><ele>295.0</ele><time>2026-04-11T11:36:13.978Z</time></trkpt><trkpt lat="41.5591267" lon="2.3521783"><ele>293.66666666666663</ele><time>2026-04-11T11:36:14.978Z</time></trkpt><trkpt lat="41.5590033" lon="2.3523117"><ele>292.3333333333333</ele><time>2026-04-11T11:36:15.978Z</time></trkpt><trkpt lat="41.5588533" lon="2.352425"><ele>291.0</ele><time>2026-04-11T11:36:16.978Z</time></trkpt><trkpt lat="41.5586967" lon="2.3525383"><ele>291.0</ele><time>2026-04-11T11:36:17.979Z</time></trkpt><trkpt lat="41.558545" lon="2.3526433"><ele>291.0</ele><time>2026-04-11T11:36:18.978Z</time></trkpt><trkpt lat="41.5583933" lon="2.3527517"><ele>291.0</ele><time>2026-04-11T11:36:19.978Z</time></trkpt><trkpt lat="41.5582567" lon="2.352855"><ele>291.0</ele><time>2026-04-11T11:36:20.978Z</time></trkpt><trkpt lat="41.5581417" lon="2.35293"><ele>291.0</ele><time>2026-04-11T11:36:21.978Z</time></trkpt><trkpt lat="41.558025" lon="2.3529883"><ele>291.0</ele><time>2026-04-11T11:36:22.978Z</time></trkpt><trkpt lat="41.5579167" lon="2.3530317"><ele>291.0</ele><time>2026-04-11T11:36:23.978Z</time></trkpt><trkpt lat="41.5578167" lon="2.353065"><ele>287.40000000000003</ele><time>2026-04-11T11:36:24.978Z</time></trkpt><trkpt lat="41.5577183" lon="2.353085"><ele>283.8</ele><time>2026-04-11T11:36:25.978Z</time></trkpt><trkpt lat="41.557635" lon="2.35312"><ele>280.20000000000005</ele><time>2026-04-11T11:36:26.978Z</time></trkpt><trkpt lat="41.5575517" lon="2.35315"><ele>276.6</ele><time>2026-04-11T11:36:27.978Z</time></trkpt><trkpt lat="41.55749" lon="2.35318"><ele>273.0</ele><time>2026-04-11T11:36:28.978Z</time></trkpt><trkpt lat="41.557385" lon="2.3532483"><ele>273.0</ele><time>2026-04-11T11:36:30.978Z</time></trkpt><trkpt lat="41.557255" lon="2.3533133"><ele>273.0</ele><time>2026-04-11T11:36:32.978Z</time></trkpt><trkpt lat="41.5571917" lon="2.3533683"><ele>273.0</ele><time>2026-04-11T11:36:33.978Z</time></trkpt><trkpt lat="41.5571317" lon="2.3534367"><ele>273.0</ele><time>2026-04-11T11:36:34.978Z</time></trkpt><trkpt lat="41.5570733" lon="2.353495"><ele>273.0</ele><time>2026-04-11T11:36:35.978Z</time></trkpt><trkpt lat="41.5570117" lon="2.3535467"><ele>273.0</ele><time>2026-04-11T11:36:36.978Z</time></trkpt><trkpt lat="41.55694" lon="2.3535567"><ele>273.3333333333333</ele><time>2026-04-11T11:36:37.978Z</time></trkpt><trkpt lat="41.5568767" lon="2.3535617"><ele>273.6666666666667</ele><time>2026-04-11T11:36:38.978Z</time></trkpt><trkpt lat="41.556805" lon="2.3535417"><ele>274.0</ele><time>2026-04-11T11:36:40.978Z</time></trkpt><trkpt lat="41.5567383" lon="2.353555"><ele>274.33333333333337</ele><time>2026-04-11T11:36:43.978Z</time></trkpt><trkpt lat="41.5566317" lon="2.3535767"><ele>274.6666666666667</ele><time>2026-04-11T11:36:45.978Z</time></trkpt><trkpt lat="41.556555" lon="2.35361"><ele>275.0</ele><time>2026-04-11T11:36:46.978Z</time></trkpt><trkpt lat="41.5564833" lon="2.3536333"><ele>275.0</ele><time>2026-04-11T11:36:47.978Z</time></trkpt><trkpt lat="41.5564167" lon="2.353635"><ele>275.0</ele><time>2026-04-11T11:36:48.978Z</time></trkpt><trkpt lat="41.5563533" lon="2.3536167"><ele>275.0</ele><time>2026-04-11T11:36:49.978Z</time></trkpt><trkpt lat="41.5562883" lon="2.3535733"><ele>275.0</ele><time>2026-04-11T11:36:50.978Z</time></trkpt><trkpt lat="41.5562367" lon="2.353495"><ele>275.0</ele><time>2026-04-11T11:36:51.978Z</time></trkpt><trkpt lat="41.5562033" lon="2.3534033"><ele>275.0</ele><time>2026-04-11T11:36:52.978Z</time></trkpt><trkpt lat="41.5561833" lon="2.3533233"><ele>275.0</ele><time>2026-04-11T11:36:53.978Z</time></trkpt><trkpt lat="41.5562033" lon="2.3531933"><ele>275.0</ele><time>2026-04-11T11:36:55.978Z</time></trkpt><trkpt lat="41.55627" lon="2.3530733"><ele>275.0</ele><time>2026-04-11T11:36:57.978Z</time></trkpt><trkpt lat="41.5563317" lon="2.35299"><ele>275.0</ele><time>2026-04-11T11:36:58.978Z</time></trkpt><trkpt lat="41.5564033" lon="2.3528983"><ele>275.0</ele><time>2026-04-11T11:36:59.978Z</time></trkpt><trkpt lat="41.5564967" lon="2.3528033"><ele>275.0</ele><time>2026-04-11T11:37:00.978Z</time></trkpt><trkpt lat="41.556595" lon="2.3527067"><ele>276.0</ele><time>2026-04-11T11:37:01.978Z</time></trkpt><trkpt lat="41.5566917" lon="2.3526"><ele>277.0</ele><time>2026-04-11T11:37:02.978Z</time></trkpt><trkpt lat="41.5567517" lon="2.3524933"><ele>278.0</ele><time>2026-04-11T11:37:03.978Z</time></trkpt><trkpt lat="41.556785" lon="2.3523817"><ele>279.0</ele><time>2026-04-11T11:37:04.978Z</time></trkpt><trkpt lat="41.556795" lon="2.3522767"><ele>280.0</ele><time>2026-04-11T11:37:05.978Z</time></trkpt><trkpt lat="41.5567833" lon="2.3521817"><ele>281.4</ele><time>2026-04-11T11:37:06.978Z</time></trkpt><trkpt lat="41.5567483" lon="2.35211"><ele>282.8</ele><time>2026-04-11T11:37:07.978Z</time></trkpt><trkpt lat="41.55666" lon="2.3520917"><ele>284.2</ele><time>2026-04-11T11:37:08.978Z</time></trkpt><trkpt lat="41.5565783" lon="2.3520717"><ele>285.6</ele><time>2026-04-11T11:37:09.979Z</time></trkpt><trkpt lat="41.5564717" lon="2.3520733"><ele>287.0</ele><time>2026-04-11T11:37:10.978Z</time></trkpt><trkpt lat="41.556365" lon="2.3520517"><ele>287.0</ele><time>2026-04-11T11:37:11.978Z</time></trkpt><trkpt lat="41.5562567" lon="2.352015"><ele>287.0</ele><time>2026-04-11T11:37:12.978Z</time></trkpt><trkpt lat="41.5561483" lon="2.3519733"><ele>287.0</ele><time>2026-04-11T11:37:13.978Z</time></trkpt><trkpt lat="41.5560683" lon="2.3518917"><ele>287.0</ele><time>2026-04-11T11:37:14.978Z</time></trkpt><trkpt lat="41.5559967" lon="2.3517883"><ele>287.0</ele><time>2026-04-11T11:37:15.978Z</time></trkpt><trkpt lat="41.5559517" lon="2.351685"><ele>286.33333333333337</ele><time>2026-04-11T11:37:16.978Z</time></trkpt><trkpt lat="41.55591" lon="2.35157"><ele>285.6666666666667</ele><time>2026-04-11T11:37:17.978Z</time></trkpt><trkpt lat="41.5558733" lon="2.3514617"><ele>285.0</ele><time>2026-04-11T11:37:18.978Z</time></trkpt><trkpt lat="41.5558317" lon="2.3513583"><ele>284.3333333333333</ele><time>2026-04-11T11:37:19.978Z</time></trkpt><trkpt lat="41.55579" lon="2.3512517"><ele>283.66666666666663</ele><time>2026-04-11T11:37:20.978Z</time></trkpt><trkpt lat="41.5557667" lon="2.3511433"><ele>283.0</ele><time>2026-04-11T11:37:21.978Z</time></trkpt><trkpt lat="41.555755" lon="2.351035"><ele>285.75</ele><time>2026-04-11T11:37:22.978Z</time></trkpt><trkpt lat="41.5557583" lon="2.3509117"><ele>288.5</ele><time>2026-04-11T11:37:23.978Z</time></trkpt><trkpt lat="41.5557817" lon="2.35073"><ele>291.25</ele><time>2026-04-11T11:37:24.978Z</time></trkpt><trkpt lat="41.5557933" lon="2.350565"><ele>294.0</ele><time>2026-04-11T11:37:25.978Z</time></trkpt><trkpt lat="41.555835" lon="2.3504183"><ele>295.25</ele><time>2026-04-11T11:37:26.978Z</time></trkpt><trkpt lat="41.5558917" lon="2.3502783"><ele>296.5</ele><time>2026-04-11T11:37:27.978Z</time></trkpt><trkpt lat="41.555955" lon="2.350125"><ele>297.75</ele><time>2026-04-11T11:37:28.978Z</time></trkpt><trkpt lat="41.5560167" lon="2.349955"><ele>299.0</ele><time>2026-04-11T11:37:29.978Z</time></trkpt><trkpt lat="41.5560533" lon="2.3497867"><ele>299.33333333333337</ele><time>2026-04-11T11:37:30.978Z</time></trkpt><trkpt lat="41.5560883" lon="2.349635"><ele>299.6666666666667</ele><time>2026-04-11T11:37:31.978Z</time></trkpt><trkpt lat="41.556115" lon="2.349505"><ele>300.0</ele><time>2026-04-11T11:37:32.978Z</time></trkpt><trkpt lat="41.5561533" lon="2.3493967"><ele>300.3333333333333</ele><time>2026-04-11T11:37:33.978Z</time></trkpt><trkpt lat="41.5561967" lon="2.349315"><ele>300.66666666666663</ele><time>2026-04-11T11:37:34.978Z</time></trkpt><trkpt lat="41.5562267" lon="2.3492383"><ele>301.0</ele><time>2026-04-11T11:37:35.978Z</time></trkpt><trkpt lat="41.55624" lon="2.3491433"><ele>301.0</ele><time>2026-04-11T11:37:37.978Z</time></trkpt><trkpt lat="41.5562183" lon="2.34902"><ele>301.0</ele><time>2026-04-11T11:37:39.978Z</time></trkpt><trkpt lat="41.5561967" lon="2.3489367"><ele>301.0</ele><time>2026-04-11T11:37:40.978Z</time></trkpt><trkpt lat="41.5561833" lon="2.3487917"><ele>301.0</ele><time>2026-04-11T11:37:42.978Z</time></trkpt><trkpt lat="41.5562283" lon="2.3486583"><ele>301.0</ele><time>2026-04-11T11:37:44.978Z</time></trkpt><trkpt lat="41.5562433" lon="2.348575"><ele>301.0</ele><time>2026-04-11T11:37:45.978Z</time></trkpt><trkpt lat="41.5562483" lon="2.34848"><ele>305.6</ele><time>2026-04-11T11:37:46.978Z</time></trkpt><trkpt lat="41.55623" lon="2.3483317"><ele>310.20000000000005</ele><time>2026-04-11T11:37:48.978Z</time></trkpt><trkpt lat="41.556205" lon="2.3482067"><ele>314.79999999999995</ele><time>2026-04-11T11:37:50.978Z</time></trkpt><trkpt lat="41.5562967" lon="2.3481583"><ele>319.4</ele><time>2026-04-11T11:37:56.978Z</time></trkpt><trkpt lat="41.5564317" lon="2.3481267"><ele>324.0</ele><time>2026-04-11T11:37:58.978Z</time></trkpt><trkpt lat="41.5565267" lon="2.3481"><ele>324.0</ele><time>2026-04-11T11:37:59.978Z</time></trkpt><trkpt lat="41.556615" lon="2.3480783"><ele>324.0</ele><time>2026-04-11T11:38:00.978Z</time></trkpt><trkpt lat="41.5566917" lon="2.3480733"><ele>324.0</ele><time>2026-04-11T11:38:01.978Z</time></trkpt><trkpt lat="41.5567567" lon="2.3480917"><ele>324.0</ele><time>2026-04-11T11:38:02.978Z</time></trkpt><trkpt lat="41.5568367" lon="2.348215"><ele>324.0</ele><time>2026-04-11T11:38:04.978Z</time></trkpt><trkpt lat="41.55686" lon="2.3483117"><ele>324.0</ele><time>2026-04-11T11:38:05.979Z</time></trkpt><trkpt lat="41.556885" lon="2.348405"><ele>324.0</ele><time>2026-04-11T11:38:06.978Z</time></trkpt><trkpt lat="41.5569433" lon="2.34851"><ele>324.0</ele><time>2026-04-11T11:38:08.978Z</time></trkpt><trkpt lat="41.5570067" lon="2.3484583"><ele>324.0</ele><time>2026-04-11T11:38:10.978Z</time></trkpt><trkpt lat="41.5570467" lon="2.3483283"><ele>324.0</ele><time>2026-04-11T11:38:12.978Z</time></trkpt><trkpt lat="41.5570567" lon="2.3481817"><ele>324.0</ele><time>2026-04-11T11:38:14.978Z</time></trkpt><trkpt lat="41.5570517" lon="2.348075"><ele>324.6</ele><time>2026-04-11T11:38:15.978Z</time></trkpt><trkpt lat="41.5570433" lon="2.3479583"><ele>325.2</ele><time>2026-04-11T11:38:16.978Z</time></trkpt><trkpt lat="41.557035" lon="2.3478233"><ele>325.8</ele><time>2026-04-11T11:38:17.978Z</time></trkpt><trkpt lat="41.5570417" lon="2.3476533"><ele>326.40000000000003</ele><time>2026-04-11T11:38:18.978Z</time></trkpt><trkpt lat="41.5570283" lon="2.3474967"><ele>327.0</ele><time>2026-04-11T11:38:19.978Z</time></trkpt><trkpt lat="41.5570183" lon="2.3473433"><ele>328.0</ele><time>2026-04-11T11:38:20.978Z</time></trkpt><trkpt lat="41.5570017" lon="2.3472033"><ele>329.0</ele><time>2026-04-11T11:38:21.978Z</time></trkpt><trkpt lat="41.55701" lon="2.3470783"><ele>330.0</ele><time>2026-04-11T11:38:22.978Z</time></trkpt><trkpt lat="41.55703" lon="2.3469633"><ele>331.0</ele><time>2026-04-11T11:38:23.978Z</time></trkpt><trkpt lat="41.5570783" lon="2.3468683"><ele>332.0</ele><time>2026-04-11T11:38:24.978Z</time></trkpt><trkpt lat="41.5571517" lon="2.3467567"><ele>337.25</ele><time>2026-04-11T11:38:25.978Z</time></trkpt><trkpt lat="41.5572133" lon="2.3466333"><ele>342.5</ele><time>2026-04-11T11:38:26.978Z</time></trkpt><trkpt lat="41.5572417" lon="2.346495"><ele>347.75</ele><time>2026-04-11T11:38:27.978Z</time></trkpt><trkpt lat="41.55726" lon="2.3463483"><ele>353.0</ele><time>2026-04-11T11:38:28.978Z</time></trkpt><trkpt lat="41.5572733" lon="2.3461783"><ele>354.4</ele><time>2026-04-11T11:38:29.978Z</time></trkpt><trkpt lat="41.557255" lon="2.3460133"><ele>355.79999999999995</ele><time>2026-04-11T11:38:30.978Z</time></trkpt><trkpt lat="41.5572567" lon="2.34585"><ele>357.2</ele><time>2026-04-11T11:38:31.978Z</time></trkpt><trkpt lat="41.557245" lon="2.3457"><ele>358.6</ele><time>2026-04-11T11:38:32.978Z</time></trkpt><trkpt lat="41.5572283" lon="2.3455883"><ele>360.0</ele><time>2026-04-11T11:38:33.978Z</time></trkpt><trkpt lat="41.55721" lon="2.345475"><ele>361.2</ele><time>2026-04-11T11:38:34.978Z</time></trkpt><trkpt lat="41.5571983" lon="2.3453667"><ele>362.4</ele><time>2026-04-11T11:38:35.978Z</time></trkpt><trkpt lat="41.5572083" lon="2.34524"><ele>363.6</ele><time>2026-04-11T11:38:36.978Z</time></trkpt><trkpt lat="41.5572617" lon="2.3451233"><ele>364.8</ele><time>2026-04-11T11:38:37.978Z</time></trkpt><trkpt lat="41.5573267" lon="2.3450183"><ele>366.0</ele><time>2026-04-11T11:38:38.978Z</time></trkpt><trkpt lat="41.557385" lon="2.3449167"><ele>366.0</ele><time>2026-04-11T11:38:39.978Z</time></trkpt><trkpt lat="41.5574283" lon="2.34481"><ele>366.0</ele><time>2026-04-11T11:38:40.978Z</time></trkpt><trkpt lat="41.5574467" lon="2.3447"><ele>366.0</ele><time>2026-04-11T11:38:41.978Z</time></trkpt><trkpt lat="41.55746" lon="2.3445733"><ele>366.0</ele><time>2026-04-11T11:38:42.978Z</time></trkpt><trkpt lat="41.5574817" lon="2.3444267"><ele>366.0</ele><time>2026-04-11T11:38:43.978Z</time></trkpt><trkpt lat="41.5575067" lon="2.34428"><ele>366.5</ele><time>2026-04-11T11:38:44.978Z</time></trkpt><trkpt lat="41.5575217" lon="2.3441317"><ele>367.0</ele><time>2026-04-11T11:38:45.978Z</time></trkpt><trkpt lat="41.5575167" lon="2.34397"><ele>367.5</ele><time>2026-04-11T11:38:46.978Z</time></trkpt><trkpt lat="41.5575117" lon="2.343815"><ele>368.0</ele><time>2026-04-11T11:38:47.978Z</time></trkpt><trkpt lat="41.557495" lon="2.343655"><ele>370.0</ele><time>2026-04-11T11:38:48.978Z</time></trkpt><trkpt lat="41.55746" lon="2.343525"><ele>372.0</ele><time>2026-04-11T11:38:49.978Z</time></trkpt><trkpt lat="41.557435" lon="2.3434067"><ele>374.0</ele><time>2026-04-11T11:38:50.978Z</time></trkpt><trkpt lat="41.5574433" lon="2.34329"><ele>376.0</ele><time>2026-04-11T11:38:51.978Z</time></trkpt><trkpt lat="41.55747" lon="2.3431933"><ele>378.0</ele><time>2026-04-11T11:38:52.978Z</time></trkpt><trkpt lat="41.5575267" lon="2.343095"><ele>381.0</ele><time>2026-04-11T11:38:53.978Z</time></trkpt><trkpt lat="41.5575817" lon="2.3430133"><ele>384.0</ele><time>2026-04-11T11:38:54.978Z</time></trkpt><trkpt lat="41.5576167" lon="2.3429433"><ele>387.0</ele><time>2026-04-11T11:38:55.978Z</time></trkpt><trkpt lat="41.557655" lon="2.3428133"><ele>390.0</ele><time>2026-04-11T11:38:57.978Z</time></trkpt><trkpt lat="41.5575467" lon="2.3427333"><ele>393.0</ele><time>2026-04-11T11:38:59.977Z</time></trkpt><trkpt lat="41.5574683" lon="2.34268"><ele>393.0</ele><time>2026-04-11T11:39:00.977Z</time></trkpt><trkpt lat="41.55737" lon="2.3426117"><ele>393.0</ele><time>2026-04-11T11:39:01.977Z</time></trkpt><trkpt lat="41.55729" lon="2.3425667"><ele>393.0</ele><time>2026-04-11T11:39:02.977Z</time></trkpt><trkpt lat="41.557215" lon="2.3425333"><ele>393.0</ele><time>2026-04-11T11:39:03.977Z</time></trkpt><trkpt lat="41.55713" lon="2.3424933"><ele>393.0</ele><time>2026-04-11T11:39:04.977Z</time></trkpt><trkpt lat="41.5570267" lon="2.342445"><ele>391.79999999999995</ele><time>2026-04-11T11:39:05.977Z</time></trkpt><trkpt lat="41.5569167" lon="2.3424283"><ele>390.6</ele><time>2026-04-11T11:39:06.977Z</time></trkpt><trkpt lat="41.5568033" lon="2.342395"><ele>389.4</ele><time>2026-04-11T11:39:07.978Z</time></trkpt><trkpt lat="41.556695" lon="2.342365"><ele>388.20000000000005</ele><time>2026-04-11T11:39:08.977Z</time></trkpt><trkpt lat="41.5565883" lon="2.3423467"><ele>387.0</ele><time>2026-04-11T11:39:09.977Z</time></trkpt><trkpt lat="41.55647" lon="2.3423583"><ele>387.0</ele><time>2026-04-11T11:39:10.977Z</time></trkpt><trkpt lat="41.5563283" lon="2.3423583"><ele>387.0</ele><time>2026-04-11T11:39:11.977Z</time></trkpt><trkpt lat="41.5561783" lon="2.3423567"><ele>387.0</ele><time>2026-04-11T11:39:12.977Z</time></trkpt><trkpt lat="41.5560233" lon="2.34236"><ele>387.0</ele><time>2026-04-11T11:39:13.977Z</time></trkpt><trkpt lat="41.5558617" lon="2.3423767"><ele>385.3333333333333</ele><time>2026-04-11T11:39:14.977Z</time></trkpt><trkpt lat="41.555695" lon="2.342405"><ele>383.66666666666663</ele><time>2026-04-11T11:39:15.977Z</time></trkpt><trkpt lat="41.5555417" lon="2.3424333"><ele>382.0</ele><time>2026-04-11T11:39:16.977Z</time></trkpt><trkpt lat="41.5553933" lon="2.3424517"><ele>383.75</ele><time>2026-04-11T11:39:17.977Z</time></trkpt><trkpt lat="41.555255" lon="2.3424767"><ele>385.5</ele><time>2026-04-11T11:39:18.977Z</time></trkpt><trkpt lat="41.5551167" lon="2.3425117"><ele>387.25</ele><time>2026-04-11T11:39:19.977Z</time></trkpt><trkpt lat="41.5550117" lon="2.3425667"><ele>389.0</ele><time>2026-04-11T11:39:20.977Z</time></trkpt><trkpt lat="41.5549133" lon="2.34263"><ele>389.0</ele><time>2026-04-11T11:39:21.977Z</time></trkpt><trkpt lat="41.5548317" lon="2.3426933"><ele>389.0</ele><time>2026-04-11T11:39:22.977Z</time></trkpt><trkpt lat="41.5547617" lon="2.3427817"><ele>389.0</ele><time>2026-04-11T11:39:23.977Z</time></trkpt><trkpt lat="41.5547083" lon="2.3428917"><ele>389.0</ele><time>2026-04-11T11:39:24.977Z</time></trkpt><trkpt lat="41.5546767" lon="2.3430417"><ele>389.0</ele><time>2026-04-11T11:39:25.977Z</time></trkpt><trkpt lat="41.554665" lon="2.343215"><ele>390.79999999999995</ele><time>2026-04-11T11:39:26.977Z</time></trkpt><trkpt lat="41.5546533" lon="2.34338"><ele>392.59999999999997</ele><time>2026-04-11T11:39:27.977Z</time></trkpt><trkpt lat="41.554635" lon="2.3435217"><ele>394.4</ele><time>2026-04-11T11:39:28.977Z</time></trkpt><trkpt lat="41.5546" lon="2.3436383"><ele>396.2</ele><time>2026-04-11T11:39:29.977Z</time></trkpt><trkpt lat="41.5545283" lon="2.3437133"><ele>398.0</ele><time>2026-04-11T11:39:30.978Z</time></trkpt><trkpt lat="41.5544333" lon="2.3437667"><ele>398.0</ele><time>2026-04-11T11:39:31.977Z</time></trkpt><trkpt lat="41.554325" lon="2.3437983"><ele>398.0</ele><time>2026-04-11T11:39:32.977Z</time></trkpt><trkpt lat="41.5542083" lon="2.3437833"><ele>398.0</ele><time>2026-04-11T11:39:33.978Z</time></trkpt><trkpt lat="41.5540967" lon="2.343735"><ele>398.0</ele><time>2026-04-11T11:39:34.977Z</time></trkpt><trkpt lat="41.5539917" lon="2.3436533"><ele>398.0</ele><time>2026-04-11T11:39:35.977Z</time></trkpt><trkpt lat="41.5538817" lon="2.34355"><ele>398.0</ele><time>2026-04-11T11:39:36.977Z</time></trkpt><trkpt lat="41.55376" lon="2.34344"><ele>398.0</ele><time>2026-04-11T11:39:37.977Z</time></trkpt><trkpt lat="41.553625" lon="2.3433033"><ele>398.3333333333333</ele><time>2026-04-11T11:39:38.977Z</time></trkpt><trkpt lat="41.55349" lon="2.34317"><ele>398.66666666666663</ele><time>2026-04-11T11:39:39.977Z</time></trkpt><trkpt lat="41.553375" lon="2.34301"><ele>399.0</ele><time>2026-04-11T11:39:40.977Z</time></trkpt><trkpt lat="41.5532783" lon="2.342855"><ele>399.0</ele><time>2026-04-11T11:39:41.977Z</time></trkpt><trkpt lat="41.553185" lon="2.342725"><ele>399.0</ele><time>2026-04-11T11:39:42.977Z</time></trkpt><trkpt lat="41.5531117" lon="2.3426267"><ele>399.0</ele><time>2026-04-11T11:39:43.977Z</time></trkpt><trkpt lat="41.5530217" lon="2.342565"><ele>399.0</ele><time>2026-04-11T11:39:44.977Z</time></trkpt><trkpt lat="41.5529367" lon="2.34254"><ele>399.0</ele><time>2026-04-11T11:39:45.977Z</time></trkpt><trkpt lat="41.552845" lon="2.3425333"><ele>397.75</ele><time>2026-04-11T11:39:46.977Z</time></trkpt><trkpt lat="41.5527533" lon="2.3426217"><ele>396.5</ele><time>2026-04-11T11:39:47.977Z</time></trkpt><trkpt lat="41.55266" lon="2.3426967"><ele>395.25</ele><time>2026-04-11T11:39:48.977Z</time></trkpt><trkpt lat="41.5525533" lon="2.34279"><ele>394.0</ele><time>2026-04-11T11:39:49.977Z</time></trkpt><trkpt lat="41.5524217" lon="2.3428317"><ele>394.0</ele><time>2026-04-11T11:39:50.977Z</time></trkpt><trkpt lat="41.5522883" lon="2.3428467"><ele>394.0</ele><time>2026-04-11T11:39:51.977Z</time></trkpt><trkpt lat="41.5521633" lon="2.342845"><ele>394.0</ele><time>2026-04-11T11:39:52.977Z</time></trkpt><trkpt lat="41.552045" lon="2.342815"><ele>394.0</ele><time>2026-04-11T11:39:53.977Z</time></trkpt><trkpt lat="41.5519117" lon="2.3427283"><ele>391.0</ele><time>2026-04-11T11:39:54.977Z</time></trkpt><trkpt lat="41.5517783" lon="2.3426317"><ele>388.0</ele><time>2026-04-11T11:39:55.977Z</time></trkpt><trkpt lat="41.5516283" lon="2.34251"><ele>385.0</ele><time>2026-04-11T11:39:56.977Z</time></trkpt><trkpt lat="41.5514667" lon="2.3423817"><ele>385.0</ele><time>2026-04-11T11:39:57.977Z</time></trkpt><trkpt lat="41.5513133" lon="2.3422667"><ele>385.0</ele><time>2026-04-11T11:39:58.977Z</time></trkpt><trkpt lat="41.55118" lon="2.34216"><ele>385.0</ele><time>2026-04-11T11:39:59.977Z</time></trkpt><trkpt lat="41.5510633" lon="2.3420133"><ele>385.0</ele><time>2026-04-11T11:40:00.977Z</time></trkpt><trkpt lat="41.5509517" lon="2.34187"><ele>385.0</ele><time>2026-04-11T11:40:01.977Z</time></trkpt><trkpt lat="41.5508483" lon="2.341725"><ele>385.0</ele><time>2026-04-11T11:40:02.977Z</time></trkpt><trkpt lat="41.55075" lon="2.3415867"><ele>385.0</ele><time>2026-04-11T11:40:03.977Z</time></trkpt><trkpt lat="41.5506683" lon="2.3414583"><ele>387.0</ele><time>2026-04-11T11:40:04.977Z</time></trkpt><trkpt lat="41.5505683" lon="2.3413667"><ele>389.0</ele><time>2026-04-11T11:40:05.977Z</time></trkpt><trkpt lat="41.5504683" lon="2.3413333"><ele>391.0</ele><time>2026-04-11T11:40:06.977Z</time></trkpt><trkpt lat="41.5503717" lon="2.3413283"><ele>393.0</ele><time>2026-04-11T11:40:07.977Z</time></trkpt><trkpt lat="41.5502683" lon="2.341335"><ele>395.0</ele><time>2026-04-11T11:40:08.977Z</time></trkpt><trkpt lat="41.55015" lon="2.3413367"><ele>395.0</ele><time>2026-04-11T11:40:09.977Z</time></trkpt><trkpt lat="41.550025" lon="2.34133"><ele>395.0</ele><time>2026-04-11T11:40:10.977Z</time></trkpt><trkpt lat="41.54989" lon="2.3412833"><ele>395.0</ele><time>2026-04-11T11:40:11.977Z</time></trkpt><trkpt lat="41.5497483" lon="2.3412333"><ele>395.0</ele><time>2026-04-11T11:40:12.977Z</time></trkpt><trkpt lat="41.5496017" lon="2.3411717"><ele>393.5</ele><time>2026-04-11T11:40:13.977Z</time></trkpt><trkpt lat="41.5494517" lon="2.3411233"><ele>392.0</ele><time>2026-04-11T11:40:14.977Z</time></trkpt><trkpt lat="41.54931" lon="2.3411017"><ele>390.5</ele><time>2026-04-11T11:40:15.977Z</time></trkpt><trkpt lat="41.549165" lon="2.3410967"><ele>389.0</ele><time>2026-04-11T11:40:16.977Z</time></trkpt><trkpt lat="41.5490333" lon="2.3411167"><ele>389.0</ele><time>2026-04-11T11:40:17.977Z</time></trkpt><trkpt lat="41.548915" lon="2.34117"><ele>389.0</ele><time>2026-04-11T11:40:18.978Z</time></trkpt><trkpt lat="41.5488117" lon="2.3412333"><ele>389.0</ele><time>2026-04-11T11:40:19.978Z</time></trkpt><trkpt lat="41.5487083" lon="2.3412983"><ele>389.0</ele><time>2026-04-11T11:40:20.977Z</time></trkpt><trkpt lat="41.548605" lon="2.3413567"><ele>388.5</ele><time>2026-04-11T11:40:21.977Z</time></trkpt><trkpt lat="41.5484883" lon="2.3413533"><ele>388.0</ele><time>2026-04-11T11:40:22.978Z</time></trkpt><trkpt lat="41.5483833" lon="2.3412933"><ele>387.5</ele><time>2026-04-11T11:40:23.977Z</time></trkpt><trkpt lat="41.54827" lon="2.3412417"><ele>387.0</ele><time>2026-04-11T11:40:24.977Z</time></trkpt><trkpt lat="41.5481617" lon="2.3412183"><ele>387.0</ele><time>2026-04-11T11:40:25.977Z</time></trkpt><trkpt lat="41.5480833" lon="2.3412317"><ele>387.0</ele><time>2026-04-11T11:40:26.977Z</time></trkpt><trkpt lat="41.5480183" lon="2.3412933"><ele>387.0</ele><time>2026-04-11T11:40:27.977Z</time></trkpt><trkpt lat="41.54794" lon="2.341405"><ele>387.0</ele><time>2026-04-11T11:40:28.977Z</time></trkpt><trkpt lat="41.5478467" lon="2.3415483"><ele>387.0</ele><time>2026-04-11T11:40:29.977Z</time></trkpt><trkpt lat="41.5477383" lon="2.3416933"><ele>387.0</ele><time>2026-04-11T11:40:30.977Z</time></trkpt><trkpt lat="41.5476183" lon="2.34183"><ele>387.0</ele><time>2026-04-11T11:40:31.977Z</time></trkpt><trkpt lat="41.5474883" lon="2.341965"><ele>387.0</ele><time>2026-04-11T11:40:32.978Z</time></trkpt><trkpt lat="41.54735" lon="2.3421033"><ele>388.0</ele><time>2026-04-11T11:40:33.977Z</time></trkpt><trkpt lat="41.5472067" lon="2.3422517"><ele>389.0</ele><time>2026-04-11T11:40:34.977Z</time></trkpt><trkpt lat="41.54708" lon="2.3424167"><ele>390.0</ele><time>2026-04-11T11:40:35.977Z</time></trkpt><trkpt lat="41.5469717" lon="2.3425667"><ele>390.0</ele><time>2026-04-11T11:40:36.977Z</time></trkpt><trkpt lat="41.5468817" lon="2.3427533"><ele>390.0</ele><time>2026-04-11T11:40:37.977Z</time></trkpt><trkpt lat="41.5467967" lon="2.34295"><ele>390.0</ele><time>2026-04-11T11:40:38.977Z</time></trkpt><trkpt lat="41.546735" lon="2.3431533"><ele>387.6</ele><time>2026-04-11T11:40:39.977Z</time></trkpt><trkpt lat="41.5466883" lon="2.3433283"><ele>385.2</ele><time>2026-04-11T11:40:40.977Z</time></trkpt><trkpt lat="41.5466533" lon="2.34348"><ele>382.79999999999995</ele><time>2026-04-11T11:40:41.977Z</time></trkpt><trkpt lat="41.5465717" lon="2.3435983"><ele>380.4</ele><time>2026-04-11T11:40:43.977Z</time></trkpt><trkpt lat="41.54651" lon="2.3436267"><ele>378.0</ele><time>2026-04-11T11:40:44.977Z</time></trkpt><trkpt lat="41.5464367" lon="2.3436133"><ele>378.0</ele><time>2026-04-11T11:40:45.977Z</time></trkpt><trkpt lat="41.5463617" lon="2.3434583"><ele>378.0</ele><time>2026-04-11T11:40:46.977Z</time></trkpt><trkpt lat="41.5462833" lon="2.3432917"><ele>378.0</ele><time>2026-04-11T11:40:47.977Z</time></trkpt><trkpt lat="41.546185" lon="2.3431033"><ele>380.0</ele><time>2026-04-11T11:40:48.977Z</time></trkpt><trkpt lat="41.5460883" lon="2.342935"><ele>382.0</ele><time>2026-04-11T11:40:49.977Z</time></trkpt><trkpt lat="41.5460067" lon="2.34279"><ele>384.0</ele><time>2026-04-11T11:40:50.977Z</time></trkpt><trkpt lat="41.5459167" lon="2.3426667"><ele>386.0</ele><time>2026-04-11T11:40:51.977Z</time></trkpt><trkpt lat="41.54581" lon="2.3425833"><ele>386.0</ele><time>2026-04-11T11:40:52.977Z</time></trkpt><trkpt lat="41.5456733" lon="2.3425167"><ele>386.0</ele><time>2026-04-11T11:40:53.977Z</time></trkpt><trkpt lat="41.545525" lon="2.342475"><ele>386.0</ele><time>2026-04-11T11:40:54.977Z</time></trkpt><trkpt lat="41.5453983" lon="2.3424583"><ele>386.0</ele><time>2026-04-11T11:40:55.977Z</time></trkpt><trkpt lat="41.5452767" lon="2.34249"><ele>386.75</ele><time>2026-04-11T11:40:56.977Z</time></trkpt><trkpt lat="41.5451617" lon="2.342555"><ele>387.5</ele><time>2026-04-11T11:40:57.977Z</time></trkpt><trkpt lat="41.5450433" lon="2.342675"><ele>388.25</ele><time>2026-04-11T11:40:58.977Z</time></trkpt><trkpt lat="41.5449367" lon="2.3428283"><ele>389.0</ele><time>2026-04-11T11:40:59.977Z</time></trkpt><trkpt lat="41.5448467" lon="2.342975"><ele>387.75</ele><time>2026-04-11T11:41:00.977Z</time></trkpt><trkpt lat="41.5447567" lon="2.343065"><ele>386.5</ele><time>2026-04-11T11:41:01.977Z</time></trkpt><trkpt lat="41.54465" lon="2.3431267"><ele>385.25</ele><time>2026-04-11T11:41:02.977Z</time></trkpt><trkpt lat="41.5445183" lon="2.3431583"><ele>384.0</ele><time>2026-04-11T11:41:03.977Z</time></trkpt><trkpt lat="41.5443783" lon="2.343205"><ele>384.0</ele><time>2026-04-11T11:41:04.977Z</time></trkpt><trkpt lat="41.5442317" lon="2.34326"><ele>384.0</ele><time>2026-04-11T11:41:05.977Z</time></trkpt><trkpt lat="41.54409" lon="2.3433383"><ele>384.0</ele><time>2026-04-11T11:41:06.977Z</time></trkpt><trkpt lat="41.543965" lon="2.343425"><ele>384.0</ele><time>2026-04-11T11:41:07.977Z</time></trkpt><trkpt lat="41.54388" lon="2.3435417"><ele>384.0</ele><time>2026-04-11T11:41:08.977Z</time></trkpt><trkpt lat="41.5438133" lon="2.343675"><ele>384.0</ele><time>2026-04-11T11:41:09.977Z</time></trkpt><trkpt lat="41.5437867" lon="2.34382"><ele>384.0</ele><time>2026-04-11T11:41:10.977Z</time></trkpt><trkpt lat="41.54379" lon="2.3439717"><ele>384.0</ele><time>2026-04-11T11:41:11.977Z</time></trkpt><trkpt lat="41.5438083" lon="2.34416"><ele>381.75</ele><time>2026-04-11T11:41:12.977Z</time></trkpt><trkpt lat="41.5438217" lon="2.3443567"><ele>379.5</ele><time>2026-04-11T11:41:13.978Z</time></trkpt><trkpt lat="41.5438217" lon="2.344535"><ele>377.25</ele><time>2026-04-11T11:41:14.977Z</time></trkpt><trkpt lat="41.5437933" lon="2.3447067"><ele>375.0</ele><time>2026-04-11T11:41:15.977Z</time></trkpt><trkpt lat="41.5437517" lon="2.3448683"><ele>383.0</ele><time>2026-04-11T11:41:16.977Z</time></trkpt><trkpt lat="41.54369" lon="2.3450217"><ele>391.0</ele><time>2026-04-11T11:41:17.977Z</time></trkpt><trkpt lat="41.54362" lon="2.34516"><ele>399.0</ele><time>2026-04-11T11:41:18.977Z</time></trkpt><trkpt lat="41.5435317" lon="2.345255"><ele>407.0</ele><time>2026-04-11T11:41:19.977Z</time></trkpt><trkpt lat="41.5434083" lon="2.34535"><ele>407.0</ele><time>2026-04-11T11:41:20.977Z</time></trkpt><trkpt lat="41.5432733" lon="2.3454533"><ele>407.0</ele><time>2026-04-11T11:41:21.977Z</time></trkpt><trkpt lat="41.5431183" lon="2.3455617"><ele>407.0</ele><time>2026-04-11T11:41:22.977Z</time></trkpt><trkpt lat="41.5429733" lon="2.3456683"><ele>405.0</ele><time>2026-04-11T11:41:23.977Z</time></trkpt><trkpt lat="41.5428617" lon="2.3457433"><ele>403.0</ele><time>2026-04-11T11:41:24.977Z</time></trkpt><trkpt lat="41.5427683" lon="2.3458283"><ele>401.0</ele><time>2026-04-11T11:41:25.977Z</time></trkpt><trkpt lat="41.5426783" lon="2.3459433"><ele>399.0</ele><time>2026-04-11T11:41:26.977Z</time></trkpt><trkpt lat="41.5425817" lon="2.3460883"><ele>399.0</ele><time>2026-04-11T11:41:27.978Z</time></trkpt><trkpt lat="41.5424933" lon="2.34626"><ele>399.0</ele><time>2026-04-11T11:41:28.977Z</time></trkpt><trkpt lat="41.5424033" lon="2.3464633"><ele>399.0</ele><time>2026-04-11T11:41:29.977Z</time></trkpt><trkpt lat="41.54232" lon="2.3466467"><ele>399.0</ele><time>2026-04-11T11:41:30.977Z</time></trkpt><trkpt lat="41.5422433" lon="2.3468117"><ele>399.0</ele><time>2026-04-11T11:41:31.978Z</time></trkpt><trkpt lat="41.5421483" lon="2.3469617"><ele>399.0</ele><time>2026-04-11T11:41:32.977Z</time></trkpt><trkpt lat="41.5420667" lon="2.3470967"><ele>399.0</ele><time>2026-04-11T11:41:33.977Z</time></trkpt><trkpt lat="41.5420017" lon="2.3472333"><ele>399.5</ele><time>2026-04-11T11:41:34.977Z</time></trkpt><trkpt lat="41.541945" lon="2.3473833"><ele>400.0</ele><time>2026-04-11T11:41:35.978Z</time></trkpt><trkpt lat="41.541915" lon="2.3475567"><ele>400.5</ele><time>2026-04-11T11:41:36.977Z</time></trkpt><trkpt lat="41.5418933" lon="2.3477317"><ele>401.0</ele><time>2026-04-11T11:41:37.977Z</time></trkpt><trkpt lat="41.54187" lon="2.34792"><ele>402.4</ele><time>2026-04-11T11:41:38.977Z</time></trkpt><trkpt lat="41.54182" lon="2.3481083"><ele>403.8</ele><time>2026-04-11T11:41:39.977Z</time></trkpt><trkpt lat="41.5417767" lon="2.34825"><ele>405.2</ele><time>2026-04-11T11:41:40.977Z</time></trkpt><trkpt lat="41.5417183" lon="2.3483533"><ele>406.59999999999997</ele><time>2026-04-11T11:41:41.977Z</time></trkpt><trkpt lat="41.5416417" lon="2.3484083"><ele>408.0</ele><time>2026-04-11T11:41:42.977Z</time></trkpt><trkpt lat="41.5415717" lon="2.3484367"><ele>408.0</ele><time>2026-04-11T11:41:43.977Z</time></trkpt><trkpt lat="41.5414967" lon="2.34843"><ele>408.0</ele><time>2026-04-11T11:41:44.977Z</time></trkpt><trkpt lat="41.541415" lon="2.34841"><ele>408.0</ele><time>2026-04-11T11:41:45.977Z</time></trkpt><trkpt lat="41.54129" lon="2.3483183"><ele>408.0</ele><time>2026-04-11T11:41:46.977Z</time></trkpt><trkpt lat="41.5411767" lon="2.3482117"><ele>408.0</ele><time>2026-04-11T11:41:47.977Z</time></trkpt><trkpt lat="41.541045" lon="2.3480833"><ele>409.25</ele><time>2026-04-11T11:41:48.977Z</time></trkpt><trkpt lat="41.5409233" lon="2.347985"><ele>410.5</ele><time>2026-04-11T11:41:49.977Z</time></trkpt><trkpt lat="41.5407883" lon="2.3479017"><ele>411.75</ele><time>2026-04-11T11:41:50.977Z</time></trkpt><trkpt lat="41.5406433" lon="2.3478533"><ele>413.0</ele><time>2026-04-11T11:41:51.977Z</time></trkpt><trkpt lat="41.5404917" lon="2.3478217"><ele>417.3333333333333</ele><time>2026-04-11T11:41:52.977Z</time></trkpt><trkpt lat="41.540335" lon="2.347785"><ele>421.66666666666663</ele><time>2026-04-11T11:41:53.977Z</time></trkpt><trkpt lat="41.540185" lon="2.347745"><ele>426.0</ele><time>2026-04-11T11:41:54.977Z</time></trkpt><trkpt lat="41.5400233" lon="2.3477017"><ele>426.0</ele><time>2026-04-11T11:41:55.977Z</time></trkpt><trkpt lat="41.539845" lon="2.3475933"><ele>426.0</ele><time>2026-04-11T11:41:56.977Z</time></trkpt><trkpt lat="41.5396917" lon="2.3475233"><ele>426.0</ele><time>2026-04-11T11:41:57.977Z</time></trkpt><trkpt lat="41.5395633" lon="2.347455"><ele>428.0</ele><time>2026-04-11T11:41:58.977Z</time></trkpt><trkpt lat="41.5394483" lon="2.3473817"><ele>430.0</ele><time>2026-04-11T11:41:59.977Z</time></trkpt><trkpt lat="41.5393583" lon="2.3473067"><ele>432.0</ele><time>2026-04-11T11:42:00.977Z</time></trkpt><trkpt lat="41.5392733" lon="2.347225"><ele>434.0</ele><time>2026-04-11T11:42:01.977Z</time></trkpt><trkpt lat="41.5392117" lon="2.3471067"><ele>436.0</ele><time>2026-04-11T11:42:02.977Z</time></trkpt><trkpt lat="41.539145" lon="2.3469733"><ele>436.0</ele><time>2026-04-11T11:42:03.977Z</time></trkpt><trkpt lat="41.5390867" lon="2.3468433"><ele>436.0</ele><time>2026-04-11T11:42:04.977Z</time></trkpt><trkpt lat="41.5390117" lon="2.3466917"><ele>436.0</ele><time>2026-04-11T11:42:05.977Z</time></trkpt><trkpt lat="41.538925" lon="2.3465383"><ele>436.0</ele><time>2026-04-11T11:42:06.978Z</time></trkpt><trkpt lat="41.53883" lon="2.3463583"><ele>436.75</ele><time>2026-04-11T11:42:07.978Z</time></trkpt><trkpt lat="41.5387283" lon="2.346205"><ele>437.5</ele><time>2026-04-11T11:42:08.977Z</time></trkpt><trkpt lat="41.5386483" lon="2.346085"><ele>438.25</ele><time>2026-04-11T11:42:09.977Z</time></trkpt><trkpt lat="41.5385467" lon="2.34598"><ele>439.0</ele><time>2026-04-11T11:42:10.977Z</time></trkpt><trkpt lat="41.5384233" lon="2.3458717"><ele>439.0</ele><time>2026-04-11T11:42:11.977Z</time></trkpt><trkpt lat="41.5382817" lon="2.3457617"><ele>439.0</ele><time>2026-04-11T11:42:12.977Z</time></trkpt><trkpt lat="41.5381383" lon="2.3456567"><ele>439.0</ele><time>2026-04-11T11:42:13.977Z</time></trkpt><trkpt lat="41.5379917" lon="2.34554"><ele>440.33333333333337</ele><time>2026-04-11T11:42:14.977Z</time></trkpt><trkpt lat="41.5378467" lon="2.34543"><ele>441.66666666666663</ele><time>2026-04-11T11:42:15.977Z</time></trkpt><trkpt lat="41.537705" lon="2.3452767"><ele>443.0</ele><time>2026-04-11T11:42:16.977Z</time></trkpt><trkpt lat="41.5375667" lon="2.3451167"><ele>443.0</ele><time>2026-04-11T11:42:17.977Z</time></trkpt><trkpt lat="41.537425" lon="2.34495"><ele>443.0</ele><time>2026-04-11T11:42:18.977Z</time></trkpt><trkpt lat="41.5372783" lon="2.344785"><ele>443.0</ele><time>2026-04-11T11:42:19.977Z</time></trkpt><trkpt lat="41.5371183" lon="2.3446283"><ele>443.66666666666663</ele><time>2026-04-11T11:42:20.977Z</time></trkpt><trkpt lat="41.5369617" lon="2.3444767"><ele>444.33333333333337</ele><time>2026-04-11T11:42:21.977Z</time></trkpt><trkpt lat="41.536805" lon="2.3443333"><ele>445.0</ele><time>2026-04-11T11:42:22.977Z</time></trkpt><trkpt lat="41.5366433" lon="2.3441883"><ele>445.0</ele><time>2026-04-11T11:42:23.977Z</time></trkpt><trkpt lat="41.5364817" lon="2.344045"><ele>445.0</ele><time>2026-04-11T11:42:24.977Z</time></trkpt><trkpt lat="41.5363117" lon="2.3439"><ele>445.0</ele><time>2026-04-11T11:42:25.977Z</time></trkpt><trkpt lat="41.536155" lon="2.3437417"><ele>444.0</ele><time>2026-04-11T11:42:26.977Z</time></trkpt><trkpt lat="41.53599" lon="2.3435983"><ele>443.0</ele><time>2026-04-11T11:42:27.977Z</time></trkpt><trkpt lat="41.5358367" lon="2.34346"><ele>442.0</ele><time>2026-04-11T11:42:28.977Z</time></trkpt><trkpt lat="41.5356983" lon="2.343335"><ele>442.0</ele><time>2026-04-11T11:42:29.977Z</time></trkpt><trkpt lat="41.535555" lon="2.3432233"><ele>442.0</ele><time>2026-04-11T11:42:30.977Z</time></trkpt><trkpt lat="41.53541" lon="2.3431267"><ele>442.0</ele><time>2026-04-11T11:42:31.977Z</time></trkpt><trkpt lat="41.535255" lon="2.3430417"><ele>440.6666666666667</ele><time>2026-04-11T11:42:32.977Z</time></trkpt><trkpt lat="41.53507" lon="2.3429667"><ele>439.33333333333337</ele><time>2026-04-11T11:42:33.977Z</time></trkpt><trkpt lat="41.5349183" lon="2.342945"><ele>438.0</ele><time>2026-04-11T11:42:34.977Z</time></trkpt><trkpt lat="41.53478" lon="2.3429233"><ele>438.0</ele><time>2026-04-11T11:42:35.977Z</time></trkpt><trkpt lat="41.5346383" lon="2.3428967"><ele>438.0</ele><time>2026-04-11T11:42:36.977Z</time></trkpt><trkpt lat="41.5344733" lon="2.3428817"><ele>438.0</ele><time>2026-04-11T11:42:37.977Z</time></trkpt><trkpt lat="41.534305" lon="2.3428667"><ele>439.33333333333337</ele><time>2026-04-11T11:42:38.977Z</time></trkpt><trkpt lat="41.534135" lon="2.34286"><ele>440.6666666666667</ele><time>2026-04-11T11:42:39.977Z</time></trkpt><trkpt lat="41.53397" lon="2.3428433"><ele>442.0</ele><time>2026-04-11T11:42:40.977Z</time></trkpt><trkpt lat="41.5338033" lon="2.34283"><ele>439.33333333333337</ele><time>2026-04-11T11:42:41.977Z</time></trkpt><trkpt lat="41.533615" lon="2.3428267"><ele>436.66666666666663</ele><time>2026-04-11T11:42:42.977Z</time></trkpt><trkpt lat="41.5334517" lon="2.3428067"><ele>434.0</ele><time>2026-04-11T11:42:43.977Z</time></trkpt><trkpt lat="41.5332733" lon="2.3427867"><ele>434.0</ele><time>2026-04-11T11:42:44.977Z</time></trkpt><trkpt lat="41.5331217" lon="2.342755"><ele>434.0</ele><time>2026-04-11T11:42:45.977Z</time></trkpt><trkpt lat="41.5329783" lon="2.3427117"><ele>434.0</ele><time>2026-04-11T11:42:46.977Z</time></trkpt><trkpt lat="41.5328567" lon="2.3426717"><ele>434.0</ele><time>2026-04-11T11:42:47.977Z</time></trkpt><trkpt lat="41.5327383" lon="2.3426083"><ele>431.3333333333333</ele><time>2026-04-11T11:42:48.977Z</time></trkpt><trkpt lat="41.5326117" lon="2.34252"><ele>428.66666666666663</ele><time>2026-04-11T11:42:49.977Z</time></trkpt><trkpt lat="41.53247" lon="2.3424267"><ele>426.0</ele><time>2026-04-11T11:42:50.977Z</time></trkpt><trkpt lat="41.5323283" lon="2.3423633"><ele>426.0</ele><time>2026-04-11T11:42:51.977Z</time></trkpt><trkpt lat="41.532195" lon="2.3422983"><ele>426.0</ele><time>2026-04-11T11:42:52.977Z</time></trkpt><trkpt lat="41.5320733" lon="2.34228"><ele>426.0</ele><time>2026-04-11T11:42:53.977Z</time></trkpt><trkpt lat="41.531915" lon="2.34225"><ele>426.0</ele><time>2026-04-11T11:42:54.977Z</time></trkpt><trkpt lat="41.5317517" lon="2.3422483"><ele>423.0</ele><time>2026-04-11T11:42:55.977Z</time></trkpt><trkpt lat="41.531575" lon="2.34229"><ele>420.0</ele><time>2026-04-11T11:42:56.977Z</time></trkpt><trkpt lat="41.5314033" lon="2.3423167"><ele>417.0</ele><time>2026-04-11T11:42:57.977Z</time></trkpt><trkpt lat="41.53125" lon="2.34235"><ele>417.0</ele><time>2026-04-11T11:42:58.977Z</time></trkpt><trkpt lat="41.5310983" lon="2.3423583"><ele>417.0</ele><time>2026-04-11T11:42:59.977Z</time></trkpt><trkpt lat="41.530945" lon="2.342335"><ele>417.0</ele><time>2026-04-11T11:43:00.977Z</time></trkpt><trkpt lat="41.5308117" lon="2.3422933"><ele>417.0</ele><time>2026-04-11T11:43:01.978Z</time></trkpt><trkpt lat="41.5306783" lon="2.3422183"><ele>418.66666666666663</ele><time>2026-04-11T11:43:02.977Z</time></trkpt><trkpt lat="41.53055" lon="2.342125"><ele>420.3333333333333</ele><time>2026-04-11T11:43:03.977Z</time></trkpt><trkpt lat="41.5304017" lon="2.342005"><ele>422.0</ele><time>2026-04-11T11:43:04.977Z</time></trkpt><trkpt lat="41.5302417" lon="2.34187"><ele>418.0</ele><time>2026-04-11T11:43:05.978Z</time></trkpt><trkpt lat="41.5300667" lon="2.3417467"><ele>414.0</ele><time>2026-04-11T11:43:06.977Z</time></trkpt><trkpt lat="41.5299067" lon="2.341635"><ele>410.0</ele><time>2026-04-11T11:43:07.977Z</time></trkpt><trkpt lat="41.5297233" lon="2.34149"><ele>409.3333333333333</ele><time>2026-04-11T11:43:08.977Z</time></trkpt><trkpt lat="41.5295417" lon="2.3413467"><ele>408.66666666666663</ele><time>2026-04-11T11:43:09.977Z</time></trkpt><trkpt lat="41.5293767" lon="2.3412117"><ele>408.0</ele><time>2026-04-11T11:43:10.978Z</time></trkpt><trkpt lat="41.529215" lon="2.3410867"><ele>408.0</ele><time>2026-04-11T11:43:11.977Z</time></trkpt><trkpt lat="41.5290733" lon="2.34098"><ele>408.0</ele><time>2026-04-11T11:43:12.978Z</time></trkpt><trkpt lat="41.52896" lon="2.3409083"><ele>408.0</ele><time>2026-04-11T11:43:13.977Z</time></trkpt><trkpt lat="41.5288533" lon="2.34083"><ele>408.0</ele><time>2026-04-11T11:43:14.977Z</time></trkpt><trkpt lat="41.5287367" lon="2.34074"><ele>406.33333333333337</ele><time>2026-04-11T11:43:15.977Z</time></trkpt><trkpt lat="41.52861" lon="2.3406467"><ele>404.6666666666667</ele><time>2026-04-11T11:43:16.977Z</time></trkpt><trkpt lat="41.5284783" lon="2.3405433"><ele>403.0</ele><time>2026-04-11T11:43:17.977Z</time></trkpt><trkpt lat="41.5283383" lon="2.3404333"><ele>403.0</ele><time>2026-04-11T11:43:18.977Z</time></trkpt><trkpt lat="41.528205" lon="2.34032"><ele>403.0</ele><time>2026-04-11T11:43:19.977Z</time></trkpt><trkpt lat="41.5280717" lon="2.3402017"><ele>403.0</ele><time>2026-04-11T11:43:20.977Z</time></trkpt><trkpt lat="41.5279483" lon="2.3400967"><ele>396.0</ele><time>2026-04-11T11:43:21.977Z</time></trkpt><trkpt lat="41.5277983" lon="2.3400017"><ele>389.0</ele><time>2026-04-11T11:43:22.977Z</time></trkpt><trkpt lat="41.5276533" lon="2.3399133"><ele>382.0</ele><time>2026-04-11T11:43:23.977Z</time></trkpt><trkpt lat="41.52753" lon="2.3398417"><ele>382.0</ele><time>2026-04-11T11:43:24.977Z</time></trkpt><trkpt lat="41.5273817" lon="2.3397817"><ele>382.0</ele><time>2026-04-11T11:43:25.977Z</time></trkpt><trkpt lat="41.5272233" lon="2.3397233"><ele>382.0</ele><time>2026-04-11T11:43:26.977Z</time></trkpt><trkpt lat="41.527055" lon="2.3396733"><ele>377.3333333333333</ele><time>2026-04-11T11:43:27.977Z</time></trkpt><trkpt lat="41.5268933" lon="2.339655"><ele>372.6666666666667</ele><time>2026-04-11T11:43:28.977Z</time></trkpt><trkpt lat="41.5267383" lon="2.3396667"><ele>368.0</ele><time>2026-04-11T11:43:29.977Z</time></trkpt><trkpt lat="41.5265833" lon="2.3396933"><ele>368.0</ele><time>2026-04-11T11:43:30.977Z</time></trkpt><trkpt lat="41.5264433" lon="2.339735"><ele>368.0</ele><time>2026-04-11T11:43:31.978Z</time></trkpt><trkpt lat="41.5263083" lon="2.3398083"><ele>368.0</ele><time>2026-04-11T11:43:32.977Z</time></trkpt><trkpt lat="41.5261883" lon="2.3398933"><ele>368.0</ele><time>2026-04-11T11:43:33.977Z</time></trkpt><trkpt lat="41.52607" lon="2.339985"><ele>367.2</ele><time>2026-04-11T11:43:34.977Z</time></trkpt><trkpt lat="41.5259717" lon="2.3400867"><ele>366.4</ele><time>2026-04-11T11:43:35.978Z</time></trkpt><trkpt lat="41.5258867" lon="2.3401833"><ele>365.59999999999997</ele><time>2026-04-11T11:43:36.977Z</time></trkpt><trkpt lat="41.5258233" lon="2.340255"><ele>364.79999999999995</ele><time>2026-04-11T11:43:37.977Z</time></trkpt><trkpt lat="41.5257667" lon="2.3403017"><ele>364.0</ele><time>2026-04-11T11:43:38.977Z</time></trkpt><trkpt lat="41.5256483" lon="2.3403133"><ele>364.0</ele><time>2026-04-11T11:43:40.977Z</time></trkpt><trkpt lat="41.52558" lon="2.3402433"><ele>364.0</ele><time>2026-04-11T11:43:41.977Z</time></trkpt><trkpt lat="41.5254917" lon="2.3400767"><ele>364.0</ele><time>2026-04-11T11:43:42.977Z</time></trkpt><trkpt lat="41.5253817" lon="2.3399133"><ele>364.0</ele><time>2026-04-11T11:43:43.977Z</time></trkpt><trkpt lat="41.52524" lon="2.3397683"><ele>364.3333333333333</ele><time>2026-04-11T11:43:44.977Z</time></trkpt><trkpt lat="41.5250967" lon="2.33965"><ele>364.6666666666667</ele><time>2026-04-11T11:43:45.977Z</time></trkpt><trkpt lat="41.5249283" lon="2.339545"><ele>365.0</ele><time>2026-04-11T11:43:46.977Z</time></trkpt><trkpt lat="41.5247767" lon="2.3394583"><ele>365.0</ele><time>2026-04-11T11:43:47.977Z</time></trkpt><trkpt lat="41.5246167" lon="2.3393867"><ele>365.0</ele><time>2026-04-11T11:43:48.977Z</time></trkpt><trkpt lat="41.5244367" lon="2.3393033"><ele>365.0</ele><time>2026-04-11T11:43:49.977Z</time></trkpt><trkpt lat="41.5242967" lon="2.3392133"><ele>366.5</ele><time>2026-04-11T11:43:50.977Z</time></trkpt><trkpt lat="41.5241817" lon="2.3391067"><ele>368.0</ele><time>2026-04-11T11:43:51.978Z</time></trkpt><trkpt lat="41.524085" lon="2.33899"><ele>369.5</ele><time>2026-04-11T11:43:52.977Z</time></trkpt><trkpt lat="41.5240167" lon="2.33885"><ele>371.0</ele><time>2026-04-11T11:43:53.977Z</time></trkpt><trkpt lat="41.5239567" lon="2.3387017"><ele>371.0</ele><time>2026-04-11T11:43:54.977Z</time></trkpt><trkpt lat="41.5238883" lon="2.338545"><ele>371.0</ele><time>2026-04-11T11:43:55.977Z</time></trkpt><trkpt lat="41.5237983" lon="2.338405"><ele>371.0</ele><time>2026-04-11T11:43:56.977Z</time></trkpt><trkpt lat="41.5236767" lon="2.33828"><ele>371.0</ele><time>2026-04-11T11:43:57.977Z</time></trkpt><trkpt lat="41.5235567" lon="2.3381583"><ele>375.0</ele><time>2026-04-11T11:43:58.977Z</time></trkpt><trkpt lat="41.523465" lon="2.3380433"><ele>379.0</ele><time>2026-04-11T11:43:59.977Z</time></trkpt><trkpt lat="41.5233983" lon="2.3379217"><ele>383.0</ele><time>2026-04-11T11:44:00.977Z</time></trkpt><trkpt lat="41.5233633" lon="2.3377767"><ele>387.0</ele><time>2026-04-11T11:44:01.978Z</time></trkpt><trkpt lat="41.52334" lon="2.3376233"><ele>387.0</ele><time>2026-04-11T11:44:02.977Z</time></trkpt><trkpt lat="41.523305" lon="2.3374583"><ele>387.0</ele><time>2026-04-11T11:44:03.977Z</time></trkpt><trkpt lat="41.5232533" lon="2.3372667"><ele>387.0</ele><time>2026-04-11T11:44:04.977Z</time></trkpt><trkpt lat="41.5232033" lon="2.3371333"><ele>387.0</ele><time>2026-04-11T11:44:05.977Z</time></trkpt><trkpt lat="41.5231567" lon="2.3370333"><ele>385.8</ele><time>2026-04-11T11:44:06.977Z</time></trkpt><trkpt lat="41.5230933" lon="2.3369867"><ele>384.6</ele><time>2026-04-11T11:44:07.977Z</time></trkpt><trkpt lat="41.52302" lon="2.33695"><ele>383.40000000000003</ele><time>2026-04-11T11:44:08.977Z</time></trkpt><trkpt lat="41.5229333" lon="2.3369383"><ele>382.20000000000005</ele><time>2026-04-11T11:44:09.977Z</time></trkpt><trkpt lat="41.5228233" lon="2.3369233"><ele>381.0</ele><time>2026-04-11T11:44:10.977Z</time></trkpt><trkpt lat="41.5226683" lon="2.336935"><ele>381.0</ele><time>2026-04-11T11:44:11.977Z</time></trkpt><trkpt lat="41.522515" lon="2.3369533"><ele>381.0</ele><time>2026-04-11T11:44:12.977Z</time></trkpt><trkpt lat="41.522345" lon="2.3369817"><ele>381.0</ele><time>2026-04-11T11:44:13.977Z</time></trkpt><trkpt lat="41.52217" lon="2.3370417"><ele>382.33333333333337</ele><time>2026-04-11T11:44:14.977Z</time></trkpt><trkpt lat="41.5219767" lon="2.337115"><ele>383.6666666666667</ele><time>2026-04-11T11:44:15.977Z</time></trkpt><trkpt lat="41.5217717" lon="2.3371883"><ele>385.0</ele><time>2026-04-11T11:44:16.977Z</time></trkpt><trkpt lat="41.5215667" lon="2.3372433"><ele>391.6666666666667</ele><time>2026-04-11T11:44:17.977Z</time></trkpt><trkpt lat="41.5213767" lon="2.3372767"><ele>398.33333333333337</ele><time>2026-04-11T11:44:18.978Z</time></trkpt><trkpt lat="41.52122" lon="2.3373133"><ele>405.0</ele><time>2026-04-11T11:44:19.977Z</time></trkpt><trkpt lat="41.5210883" lon="2.3373617"><ele>405.0</ele><time>2026-04-11T11:44:20.977Z</time></trkpt><trkpt lat="41.5209867" lon="2.3374183"><ele>405.0</ele><time>2026-04-11T11:44:21.977Z</time></trkpt><trkpt lat="41.52086" lon="2.337465"><ele>405.0</ele><time>2026-04-11T11:44:22.977Z</time></trkpt><trkpt lat="41.52071" lon="2.3375383"><ele>405.0</ele><time>2026-04-11T11:44:23.977Z</time></trkpt><trkpt lat="41.5205533" lon="2.337605"><ele>405.33333333333337</ele><time>2026-04-11T11:44:24.977Z</time></trkpt><trkpt lat="41.5203783" lon="2.33769"><ele>405.6666666666667</ele><time>2026-04-11T11:44:25.977Z</time></trkpt><trkpt lat="41.5201967" lon="2.3377583"><ele>406.0</ele><time>2026-04-11T11:44:26.978Z</time></trkpt><trkpt lat="41.5199917" lon="2.3377833"><ele>406.0</ele><time>2026-04-11T11:44:27.977Z</time></trkpt><trkpt lat="41.519795" lon="2.3377717"><ele>406.0</ele><time>2026-04-11T11:44:28.977Z</time></trkpt><trkpt lat="41.5195933" lon="2.3377533"><ele>406.0</ele><time>2026-04-11T11:44:29.977Z</time></trkpt><trkpt lat="41.5194117" lon="2.3377267"><ele>406.75</ele><time>2026-04-11T11:44:30.977Z</time></trkpt><trkpt lat="41.5192567" lon="2.3376867"><ele>407.5</ele><time>2026-04-11T11:44:31.977Z</time></trkpt><trkpt lat="41.5191267" lon="2.3376533"><ele>408.25</ele><time>2026-04-11T11:44:32.977Z</time></trkpt><trkpt lat="41.518985" lon="2.337645"><ele>409.0</ele><time>2026-04-11T11:44:33.977Z</time></trkpt><trkpt lat="41.5188383" lon="2.33767"><ele>411.0</ele><time>2026-04-11T11:44:34.977Z</time></trkpt><trkpt lat="41.5186933" lon="2.3376733"><ele>413.0</ele><time>2026-04-11T11:44:35.977Z</time></trkpt><trkpt lat="41.518565" lon="2.3376417"><ele>415.0</ele><time>2026-04-11T11:44:36.977Z</time></trkpt><trkpt lat="41.5184483" lon="2.3375733"><ele>417.0</ele><time>2026-04-11T11:44:37.977Z</time></trkpt><trkpt lat="41.5183183" lon="2.3374517"><ele>417.0</ele><time>2026-04-11T11:44:38.977Z</time></trkpt><trkpt lat="41.5181933" lon="2.337305"><ele>417.0</ele><time>2026-04-11T11:44:39.977Z</time></trkpt><trkpt lat="41.5180767" lon="2.3371317"><ele>417.0</ele><time>2026-04-11T11:44:40.977Z</time></trkpt><trkpt lat="41.5179867" lon="2.33694"><ele>416.66666666666663</ele><time>2026-04-11T11:44:41.977Z</time></trkpt><trkpt lat="41.5179333" lon="2.3367367"><ele>416.3333333333333</ele><time>2026-04-11T11:44:42.977Z</time></trkpt><trkpt lat="41.5179167" lon="2.33652"><ele>416.0</ele><time>2026-04-11T11:44:43.977Z</time></trkpt><trkpt lat="41.517925" lon="2.33629"><ele>417.0</ele><time>2026-04-11T11:44:44.977Z</time></trkpt><trkpt lat="41.5179067" lon="2.33606"><ele>418.0</ele><time>2026-04-11T11:44:45.977Z</time></trkpt><trkpt lat="41.51787" lon="2.3358183"><ele>419.0</ele><time>2026-04-11T11:44:46.977Z</time></trkpt><trkpt lat="41.5178333" lon="2.3355817"><ele>424.3333333333333</ele><time>2026-04-11T11:44:47.977Z</time></trkpt><trkpt lat="41.5177967" lon="2.3353317"><ele>429.66666666666663</ele><time>2026-04-11T11:44:48.977Z</time></trkpt><trkpt lat="41.51778" lon="2.3350783"><ele>435.0</ele><time>2026-04-11T11:44:49.977Z</time></trkpt><trkpt lat="41.5177617" lon="2.3348617"><ele>435.5</ele><time>2026-04-11T11:44:50.977Z</time></trkpt><trkpt lat="41.517745" lon="2.3346733"><ele>436.0</ele><time>2026-04-11T11:44:51.977Z</time></trkpt><trkpt lat="41.5177133" lon="2.334485"><ele>436.5</ele><time>2026-04-11T11:44:52.977Z</time></trkpt><trkpt lat="41.5176533" lon="2.3343217"><ele>437.0</ele><time>2026-04-11T11:44:53.977Z</time></trkpt><trkpt lat="41.5175817" lon="2.3341867"><ele>437.0</ele><time>2026-04-11T11:44:54.977Z</time></trkpt><trkpt lat="41.51754" lon="2.3340333"><ele>437.0</ele><time>2026-04-11T11:44:55.977Z</time></trkpt><trkpt lat="41.517475" lon="2.3338717"><ele>437.0</ele><time>2026-04-11T11:44:56.976Z</time></trkpt><trkpt lat="41.5174067" lon="2.33371"><ele>437.0</ele><time>2026-04-11T11:44:57.977Z</time></trkpt><trkpt lat="41.5173383" lon="2.3335567"><ele>437.0</ele><time>2026-04-11T11:44:58.976Z</time></trkpt><trkpt lat="41.5172917" lon="2.333395"><ele>437.0</ele><time>2026-04-11T11:44:59.976Z</time></trkpt><trkpt lat="41.51726" lon="2.3332333"><ele>437.0</ele><time>2026-04-11T11:45:00.976Z</time></trkpt><trkpt lat="41.51726" lon="2.3330667"><ele>437.0</ele><time>2026-04-11T11:45:01.976Z</time></trkpt><trkpt lat="41.51727" lon="2.3328567"><ele>437.66666666666663</ele><time>2026-04-11T11:45:02.976Z</time></trkpt><trkpt lat="41.517275" lon="2.3326367"><ele>438.33333333333337</ele><time>2026-04-11T11:45:03.976Z</time></trkpt><trkpt lat="41.5172733" lon="2.33244"><ele>439.0</ele><time>2026-04-11T11:45:04.976Z</time></trkpt><trkpt lat="41.51725" lon="2.3322133"><ele>443.6666666666667</ele><time>2026-04-11T11:45:05.976Z</time></trkpt><trkpt lat="41.5172217" lon="2.33197"><ele>448.33333333333337</ele><time>2026-04-11T11:45:06.976Z</time></trkpt><trkpt lat="41.5171583" lon="2.3317467"><ele>453.0</ele><time>2026-04-11T11:45:07.976Z</time></trkpt><trkpt lat="41.5170833" lon="2.33153"><ele>451.66666666666663</ele><time>2026-04-11T11:45:08.976Z</time></trkpt><trkpt lat="41.5170167" lon="2.3313217"><ele>450.3333333333333</ele><time>2026-04-11T11:45:09.976Z</time></trkpt><trkpt lat="41.5169367" lon="2.3311033"><ele>449.0</ele><time>2026-04-11T11:45:10.976Z</time></trkpt><trkpt lat="41.516885" lon="2.3309383"><ele>449.0</ele><time>2026-04-11T11:45:11.976Z</time></trkpt><trkpt lat="41.5168267" lon="2.33077"><ele>449.0</ele><time>2026-04-11T11:45:12.976Z</time></trkpt><trkpt lat="41.5167567" lon="2.330635"><ele>449.0</ele><time>2026-04-11T11:45:13.976Z</time></trkpt><trkpt lat="41.5166833" lon="2.3305183"><ele>449.0</ele><time>2026-04-11T11:45:14.976Z</time></trkpt><trkpt lat="41.5165917" lon="2.3304667"><ele>452.25</ele><time>2026-04-11T11:45:15.976Z</time></trkpt><trkpt lat="41.516485" lon="2.3304417"><ele>455.5</ele><time>2026-04-11T11:45:16.976Z</time></trkpt><trkpt lat="41.5163667" lon="2.3304433"><ele>458.75</ele><time>2026-04-11T11:45:17.976Z</time></trkpt><trkpt lat="41.5162217" lon="2.33045"><ele>462.0</ele><time>2026-04-11T11:45:18.976Z</time></trkpt><trkpt lat="41.5160717" lon="2.330435"><ele>462.0</ele><time>2026-04-11T11:45:19.977Z</time></trkpt><trkpt lat="41.5159167" lon="2.3304"><ele>462.0</ele><time>2026-04-11T11:45:20.976Z</time></trkpt><trkpt lat="41.51577" lon="2.3303333"><ele>462.0</ele><time>2026-04-11T11:45:21.976Z</time></trkpt><trkpt lat="41.5156433" lon="2.33023"><ele>462.0</ele><time>2026-04-11T11:45:22.976Z</time></trkpt><trkpt lat="41.5155317" lon="2.3300917"><ele>462.0</ele><time>2026-04-11T11:45:23.976Z</time></trkpt><trkpt lat="41.515435" lon="2.329935"><ele>462.0</ele><time>2026-04-11T11:45:24.976Z</time></trkpt><trkpt lat="41.515365" lon="2.3297633"><ele>458.5</ele><time>2026-04-11T11:45:25.976Z</time></trkpt><trkpt lat="41.5153217" lon="2.329585"><ele>455.0</ele><time>2026-04-11T11:45:26.976Z</time></trkpt><trkpt lat="41.515275" lon="2.329415"><ele>451.5</ele><time>2026-04-11T11:45:27.976Z</time></trkpt><trkpt lat="41.51525" lon="2.32925"><ele>448.0</ele><time>2026-04-11T11:45:28.976Z</time></trkpt><trkpt lat="41.5152383" lon="2.329095"><ele>448.0</ele><time>2026-04-11T11:45:29.976Z</time></trkpt><trkpt lat="41.5152367" lon="2.3289383"><ele>447.99999999999994</ele><time>2026-04-11T11:45:30.976Z</time></trkpt><trkpt lat="41.5152567" lon="2.3287933"><ele>447.99999999999994</ele><time>2026-04-11T11:45:31.976Z</time></trkpt><trkpt lat="41.5152917" lon="2.32868"><ele>448.0</ele><time>2026-04-11T11:45:32.976Z</time></trkpt><trkpt lat="41.5153183" lon="2.3285667"><ele>448.0</ele><time>2026-04-11T11:45:33.976Z</time></trkpt><trkpt lat="41.5153017" lon="2.3284617"><ele>450.5</ele><time>2026-04-11T11:45:34.976Z</time></trkpt><trkpt lat="41.5152567" lon="2.32835"><ele>453.0</ele><time>2026-04-11T11:45:35.976Z</time></trkpt><trkpt lat="41.5151783" lon="2.328205"><ele>455.5</ele><time>2026-04-11T11:45:36.976Z</time></trkpt><trkpt lat="41.51509" lon="2.3280533"><ele>458.0</ele><time>2026-04-11T11:45:37.976Z</time></trkpt><trkpt lat="41.514965" lon="2.3279133"><ele>457.3333333333333</ele><time>2026-04-11T11:45:38.976Z</time></trkpt><trkpt lat="41.5148283" lon="2.3277617"><ele>456.66666666666663</ele><time>2026-04-11T11:45:39.976Z</time></trkpt><trkpt lat="41.5146667" lon="2.32762"><ele>456.0</ele><time>2026-04-11T11:45:40.976Z</time></trkpt><trkpt lat="41.5145067" lon="2.3274767"><ele>456.0</ele><time>2026-04-11T11:45:41.976Z</time></trkpt><trkpt lat="41.5143517" lon="2.32733"><ele>456.0</ele><time>2026-04-11T11:45:42.976Z</time></trkpt><trkpt lat="41.514205" lon="2.3271917"><ele>456.0</ele><time>2026-04-11T11:45:43.976Z</time></trkpt><trkpt lat="41.51406" lon="2.3270633"><ele>458.0</ele><time>2026-04-11T11:45:44.976Z</time></trkpt><trkpt lat="41.51394" lon="2.3269267"><ele>460.0</ele><time>2026-04-11T11:45:45.976Z</time></trkpt><trkpt lat="41.51381" lon="2.3267967"><ele>462.0</ele><time>2026-04-11T11:45:46.976Z</time></trkpt><trkpt lat="41.5136833" lon="2.3266617"><ele>458.25</ele><time>2026-04-11T11:45:47.976Z</time></trkpt><trkpt lat="41.5135617" lon="2.3265517"><ele>454.5</ele><time>2026-04-11T11:45:48.976Z</time></trkpt><trkpt lat="41.513455" lon="2.3264483"><ele>450.75</ele><time>2026-04-11T11:45:49.976Z</time></trkpt><trkpt lat="41.51333" lon="2.32634"><ele>447.0</ele><time>2026-04-11T11:45:50.976Z</time></trkpt><trkpt lat="41.5132017" lon="2.3262283"><ele>447.0</ele><time>2026-04-11T11:45:51.976Z</time></trkpt><trkpt lat="41.5130767" lon="2.326125"><ele>447.0</ele><time>2026-04-11T11:45:52.976Z</time></trkpt><trkpt lat="41.5129617" lon="2.32602"><ele>447.0</ele><time>2026-04-11T11:45:53.976Z</time></trkpt><trkpt lat="41.512855" lon="2.3259183"><ele>447.0</ele><time>2026-04-11T11:45:54.976Z</time></trkpt><trkpt lat="41.512765" lon="2.3258067"><ele>444.75</ele><time>2026-04-11T11:45:55.976Z</time></trkpt><trkpt lat="41.5126867" lon="2.3256917"><ele>442.5</ele><time>2026-04-11T11:45:56.976Z</time></trkpt><trkpt lat="41.512625" lon="2.3255583"><ele>440.25</ele><time>2026-04-11T11:45:57.976Z</time></trkpt><trkpt lat="41.512585" lon="2.32539"><ele>438.0</ele><time>2026-04-11T11:45:58.976Z</time></trkpt><trkpt lat="41.5125433" lon="2.325205"><ele>436.75</ele><time>2026-04-11T11:45:59.976Z</time></trkpt><trkpt lat="41.512505" lon="2.325025"><ele>435.5</ele><time>2026-04-11T11:46:00.976Z</time></trkpt><trkpt lat="41.5124533" lon="2.3248317"><ele>434.25</ele><time>2026-04-11T11:46:01.976Z</time></trkpt><trkpt lat="41.51239" lon="2.3246483"><ele>433.0</ele><time>2026-04-11T11:46:02.976Z</time></trkpt><trkpt lat="41.5123417" lon="2.324495"><ele>432.33333333333337</ele><time>2026-04-11T11:46:03.976Z</time></trkpt><trkpt lat="41.5123033" lon="2.32436"><ele>431.6666666666667</ele><time>2026-04-11T11:46:04.976Z</time></trkpt><trkpt lat="41.5122767" lon="2.324235"><ele>431.0</ele><time>2026-04-11T11:46:05.976Z</time></trkpt><trkpt lat="41.5122617" lon="2.3241217"><ele>430.33333333333337</ele><time>2026-04-11T11:46:06.976Z</time></trkpt><trkpt lat="41.5122633" lon="2.3240167"><ele>429.6666666666667</ele><time>2026-04-11T11:46:07.976Z</time></trkpt><trkpt lat="41.51229" lon="2.3239267"><ele>429.0</ele><time>2026-04-11T11:46:08.976Z</time></trkpt><trkpt lat="41.5123267" lon="2.3238067"><ele>422.66666666666663</ele><time>2026-04-11T11:46:09.976Z</time></trkpt><trkpt lat="41.512465" lon="2.323695"><ele>416.3333333333333</ele><time>2026-04-11T11:46:10.976Z</time></trkpt><trkpt lat="41.512615" lon="2.3236033"><ele>410.0</ele><time>2026-04-11T11:46:11.976Z</time></trkpt><trkpt lat="41.512755" lon="2.3235083"><ele>410.0</ele><time>2026-04-11T11:46:12.976Z</time></trkpt><trkpt lat="41.512885" lon="2.32343"><ele>410.0</ele><time>2026-04-11T11:46:13.976Z</time></trkpt><trkpt lat="41.5130333" lon="2.3233667"><ele>410.0</ele><time>2026-04-11T11:46:14.976Z</time></trkpt><trkpt lat="41.5131817" lon="2.3233317"><ele>410.0</ele><time>2026-04-11T11:46:15.976Z</time></trkpt><trkpt lat="41.51332" lon="2.3232933"><ele>413.5</ele><time>2026-04-11T11:46:16.976Z</time></trkpt><trkpt lat="41.513455" lon="2.32327"><ele>417.0</ele><time>2026-04-11T11:46:17.976Z</time></trkpt><trkpt lat="41.513575" lon="2.323255"><ele>420.5</ele><time>2026-04-11T11:46:18.976Z</time></trkpt><trkpt lat="41.5136883" lon="2.3232533"><ele>424.0</ele><time>2026-04-11T11:46:19.976Z</time></trkpt><trkpt lat="41.5137933" lon="2.3232567"><ele>423.6666666666667</ele><time>2026-04-11T11:46:20.976Z</time></trkpt><trkpt lat="41.5138867" lon="2.3232533"><ele>423.33333333333337</ele><time>2026-04-11T11:46:21.976Z</time></trkpt><trkpt lat="41.5139717" lon="2.3232183"><ele>423.0</ele><time>2026-04-11T11:46:22.976Z</time></trkpt><trkpt lat="41.5140383" lon="2.32315"><ele>422.66666666666663</ele><time>2026-04-11T11:46:23.976Z</time></trkpt><trkpt lat="41.5140817" lon="2.323055"><ele>422.3333333333333</ele><time>2026-04-11T11:46:24.976Z</time></trkpt><trkpt lat="41.5140867" lon="2.3229667"><ele>422.0</ele><time>2026-04-11T11:46:25.976Z</time></trkpt><trkpt lat="41.5140917" lon="2.3228433"><ele>422.0</ele><time>2026-04-11T11:46:26.976Z</time></trkpt><trkpt lat="41.51404" lon="2.322735"><ele>422.0</ele><time>2026-04-11T11:46:27.976Z</time></trkpt><trkpt lat="41.5139667" lon="2.3226117"><ele>422.0</ele><time>2026-04-11T11:46:28.976Z</time></trkpt><trkpt lat="41.5138967" lon="2.322485"><ele>422.0</ele><time>2026-04-11T11:46:29.976Z</time></trkpt><trkpt lat="41.5138417" lon="2.32236"><ele>422.0</ele><time>2026-04-11T11:46:30.977Z</time></trkpt><trkpt lat="41.513805" lon="2.3222467"><ele>419.0</ele><time>2026-04-11T11:46:31.976Z</time></trkpt><trkpt lat="41.5137917" lon="2.3221417"><ele>416.0</ele><time>2026-04-11T11:46:32.976Z</time></trkpt><trkpt lat="41.5138017" lon="2.3220467"><ele>413.0</ele><time>2026-04-11T11:46:33.976Z</time></trkpt><trkpt lat="41.5138583" lon="2.3219333"><ele>410.0</ele><time>2026-04-11T11:46:34.976Z</time></trkpt><trkpt lat="41.5139483" lon="2.321825"><ele>407.0</ele><time>2026-04-11T11:46:35.976Z</time></trkpt><trkpt lat="41.514045" lon="2.3217267"><ele>407.0</ele><time>2026-04-11T11:46:36.976Z</time></trkpt><trkpt lat="41.5141367" lon="2.3216533"><ele>407.0</ele><time>2026-04-11T11:46:37.976Z</time></trkpt><trkpt lat="41.514235" lon="2.3216"><ele>407.0</ele><time>2026-04-11T11:46:38.976Z</time></trkpt><trkpt lat="41.514385" lon="2.321565"><ele>407.0</ele><time>2026-04-11T11:46:39.976Z</time></trkpt><trkpt lat="41.5145083" lon="2.3215733"><ele>408.40000000000003</ele><time>2026-04-11T11:46:40.976Z</time></trkpt><trkpt lat="41.5146283" lon="2.321595"><ele>409.8</ele><time>2026-04-11T11:46:41.976Z</time></trkpt><trkpt lat="41.5147417" lon="2.3216133"><ele>411.2</ele><time>2026-04-11T11:46:42.976Z</time></trkpt><trkpt lat="41.5148417" lon="2.3216217"><ele>412.6</ele><time>2026-04-11T11:46:43.976Z</time></trkpt><trkpt lat="41.514925" lon="2.321585"><ele>414.0</ele><time>2026-04-11T11:46:44.976Z</time></trkpt><trkpt lat="41.5149933" lon="2.321525"><ele>414.0</ele><time>2026-04-11T11:46:45.976Z</time></trkpt><trkpt lat="41.5150367" lon="2.3214317"><ele>414.0</ele><time>2026-04-11T11:46:46.976Z</time></trkpt><trkpt lat="41.5150833" lon="2.321315"><ele>414.0</ele><time>2026-04-11T11:46:47.976Z</time></trkpt><trkpt lat="41.5151433" lon="2.32117"><ele>414.0</ele><time>2026-04-11T11:46:48.977Z</time></trkpt><trkpt lat="41.515205" lon="2.32101"><ele>414.0</ele><time>2026-04-11T11:46:49.976Z</time></trkpt><trkpt lat="41.515265" lon="2.320825"><ele>407.75</ele><time>2026-04-11T11:46:50.976Z</time></trkpt><trkpt lat="41.5153083" lon="2.32063"><ele>401.5</ele><time>2026-04-11T11:46:51.976Z</time></trkpt><trkpt lat="41.5153417" lon="2.3204683"><ele>395.25</ele><time>2026-04-11T11:46:52.976Z</time></trkpt><trkpt lat="41.51537" lon="2.3203417"><ele>389.0</ele><time>2026-04-11T11:46:53.976Z</time></trkpt><trkpt lat="41.51539" lon="2.3202417"><ele>390.4</ele><time>2026-04-11T11:46:54.976Z</time></trkpt><trkpt lat="41.515425" lon="2.3201483"><ele>391.79999999999995</ele><time>2026-04-11T11:46:55.976Z</time></trkpt><trkpt lat="41.515475" lon="2.3200617"><ele>393.20000000000005</ele><time>2026-04-11T11:46:56.976Z</time></trkpt><trkpt lat="41.5155633" lon="2.319975"><ele>394.6</ele><time>2026-04-11T11:46:57.976Z</time></trkpt><trkpt lat="41.5156783" lon="2.31988"><ele>396.0</ele><time>2026-04-11T11:46:58.976Z</time></trkpt><trkpt lat="41.5158067" lon="2.319785"><ele>388.5</ele><time>2026-04-11T11:46:59.976Z</time></trkpt><trkpt lat="41.5159283" lon="2.3196967"><ele>381.0</ele><time>2026-04-11T11:47:00.976Z</time></trkpt><trkpt lat="41.516035" lon="2.31963"><ele>373.5</ele><time>2026-04-11T11:47:01.976Z</time></trkpt><trkpt lat="41.516125" lon="2.3195533"><ele>366.0</ele><time>2026-04-11T11:47:02.976Z</time></trkpt><trkpt lat="41.5162" lon="2.3194483"><ele>369.5</ele><time>2026-04-11T11:47:03.976Z</time></trkpt><trkpt lat="41.5162667" lon="2.3193083"><ele>373.0</ele><time>2026-04-11T11:47:04.976Z</time></trkpt><trkpt lat="41.5163367" lon="2.31914"><ele>376.5</ele><time>2026-04-11T11:47:05.976Z</time></trkpt><trkpt lat="41.5164" lon="2.3189733"><ele>380.0</ele><time>2026-04-11T11:47:06.976Z</time></trkpt><trkpt lat="41.5164467" lon="2.318825"><ele>380.0</ele><time>2026-04-11T11:47:07.976Z</time></trkpt><trkpt lat="41.516475" lon="2.3186617"><ele>380.0</ele><time>2026-04-11T11:47:08.976Z</time></trkpt><trkpt lat="41.5164767" lon="2.3184883"><ele>380.0</ele><time>2026-04-11T11:47:09.976Z</time></trkpt><trkpt lat="41.5164633" lon="2.3182983"><ele>380.0</ele><time>2026-04-11T11:47:10.976Z</time></trkpt><trkpt lat="41.5164333" lon="2.3181167"><ele>377.8</ele><time>2026-04-11T11:47:11.976Z</time></trkpt><trkpt lat="41.5164067" lon="2.317945"><ele>375.6</ele><time>2026-04-11T11:47:12.976Z</time></trkpt><trkpt lat="41.5163833" lon="2.3178"><ele>373.4</ele><time>2026-04-11T11:47:13.976Z</time></trkpt><trkpt lat="41.516365" lon="2.3176783"><ele>371.2</ele><time>2026-04-11T11:47:14.976Z</time></trkpt><trkpt lat="41.5163583" lon="2.3175733"><ele>369.0</ele><time>2026-04-11T11:47:15.976Z</time></trkpt><trkpt lat="41.5163517" lon="2.3174667"><ele>369.0</ele><time>2026-04-11T11:47:16.976Z</time></trkpt><trkpt lat="41.51639" lon="2.3173"><ele>369.0</ele><time>2026-04-11T11:47:18.976Z</time></trkpt><trkpt lat="41.516425" lon="2.3172283"><ele>369.0</ele><time>2026-04-11T11:47:19.976Z</time></trkpt><trkpt lat="41.5165017" lon="2.317165"><ele>369.0</ele><time>2026-04-11T11:47:20.976Z</time></trkpt><trkpt lat="41.5166917" lon="2.3171117"><ele>365.5</ele><time>2026-04-11T11:47:21.976Z</time></trkpt><trkpt lat="41.516845" lon="2.3170467"><ele>362.0</ele><time>2026-04-11T11:47:22.976Z</time></trkpt><trkpt lat="41.5169717" lon="2.31697"><ele>358.5</ele><time>2026-04-11T11:47:23.976Z</time></trkpt><trkpt lat="41.5170767" lon="2.3168833"><ele>355.0</ele><time>2026-04-11T11:47:24.976Z</time></trkpt><trkpt lat="41.5171717" lon="2.3167567"><ele>355.0</ele><time>2026-04-11T11:47:25.976Z</time></trkpt><trkpt lat="41.5172517" lon="2.3166083"><ele>355.0</ele><time>2026-04-11T11:47:26.976Z</time></trkpt><trkpt lat="41.5173233" lon="2.31645"><ele>355.0</ele><time>2026-04-11T11:47:27.976Z</time></trkpt><trkpt lat="41.51739" lon="2.316285"><ele>355.0</ele><time>2026-04-11T11:47:28.976Z</time></trkpt><trkpt lat="41.5174467" lon="2.3161267"><ele>354.4</ele><time>2026-04-11T11:47:29.976Z</time></trkpt><trkpt lat="41.5174733" lon="2.31598"><ele>353.8</ele><time>2026-04-11T11:47:30.976Z</time></trkpt><trkpt lat="41.5174733" lon="2.3158283"><ele>353.20000000000005</ele><time>2026-04-11T11:47:31.976Z</time></trkpt><trkpt lat="41.51743" lon="2.3156917"><ele>352.6</ele><time>2026-04-11T11:47:32.976Z</time></trkpt><trkpt lat="41.5173733" lon="2.3155667"><ele>352.0</ele><time>2026-04-11T11:47:33.976Z</time></trkpt><trkpt lat="41.5172967" lon="2.3154283"><ele>352.0</ele><time>2026-04-11T11:47:34.976Z</time></trkpt><trkpt lat="41.517205" lon="2.31534"><ele>352.0</ele><time>2026-04-11T11:47:35.976Z</time></trkpt><trkpt lat="41.51709" lon="2.3152783"><ele>352.0</ele><time>2026-04-11T11:47:36.976Z</time></trkpt><trkpt lat="41.5169467" lon="2.31524"><ele>352.0</ele><time>2026-04-11T11:47:37.976Z</time></trkpt><trkpt lat="41.5167867" lon="2.3152267"><ele>352.75</ele><time>2026-04-11T11:47:38.976Z</time></trkpt><trkpt lat="41.51664" lon="2.3152067"><ele>353.5</ele><time>2026-04-11T11:47:39.976Z</time></trkpt><trkpt lat="41.5165017" lon="2.315205"><ele>354.25</ele><time>2026-04-11T11:47:40.976Z</time></trkpt><trkpt lat="41.5163767" lon="2.3152033"><ele>355.0</ele><time>2026-04-11T11:47:41.976Z</time></trkpt><trkpt lat="41.5162583" lon="2.3151817"><ele>351.8</ele><time>2026-04-11T11:47:42.976Z</time></trkpt><trkpt lat="41.5161467" lon="2.31513"><ele>348.6</ele><time>2026-04-11T11:47:43.976Z</time></trkpt><trkpt lat="41.51605" lon="2.3150667"><ele>345.4</ele><time>2026-04-11T11:47:44.976Z</time></trkpt><trkpt lat="41.5159767" lon="2.3149883"><ele>342.2</ele><time>2026-04-11T11:47:45.976Z</time></trkpt><trkpt lat="41.5159033" lon="2.3149217"><ele>339.0</ele><time>2026-04-11T11:47:46.976Z</time></trkpt><trkpt lat="41.51586" lon="2.314835"><ele>338.79999999999995</ele><time>2026-04-11T11:47:47.976Z</time></trkpt><trkpt lat="41.5158433" lon="2.3146967"><ele>338.59999999999997</ele><time>2026-04-11T11:47:48.976Z</time></trkpt><trkpt lat="41.5158567" lon="2.3145367"><ele>338.4</ele><time>2026-04-11T11:47:49.976Z</time></trkpt><trkpt lat="41.5158583" lon="2.3144083"><ele>338.2</ele><time>2026-04-11T11:47:50.976Z</time></trkpt><trkpt lat="41.51587" lon="2.314245"><ele>338.0</ele><time>2026-04-11T11:47:51.976Z</time></trkpt><trkpt lat="41.51589" lon="2.31407"><ele>337.33333333333337</ele><time>2026-04-11T11:47:52.976Z</time></trkpt><trkpt lat="41.5159033" lon="2.3138617"><ele>336.6666666666667</ele><time>2026-04-11T11:47:53.976Z</time></trkpt><trkpt lat="41.5159083" lon="2.3136567"><ele>336.0</ele><time>2026-04-11T11:47:54.976Z</time></trkpt><trkpt lat="41.515905" lon="2.31343"><ele>336.0</ele><time>2026-04-11T11:47:55.976Z</time></trkpt><trkpt lat="41.51588" lon="2.3132083"><ele>336.0</ele><time>2026-04-11T11:47:56.976Z</time></trkpt><trkpt lat="41.5158533" lon="2.3129883"><ele>336.0</ele><time>2026-04-11T11:47:57.976Z</time></trkpt><trkpt lat="41.5158067" lon="2.31279"><ele>336.5</ele><time>2026-04-11T11:47:58.976Z</time></trkpt><trkpt lat="41.515755" lon="2.31261"><ele>337.0</ele><time>2026-04-11T11:47:59.976Z</time></trkpt><trkpt lat="41.515715" lon="2.3124333"><ele>337.5</ele><time>2026-04-11T11:48:00.976Z</time></trkpt><trkpt lat="41.51569" lon="2.3122717"><ele>338.0</ele><time>2026-04-11T11:48:01.976Z</time></trkpt><trkpt lat="41.51567" lon="2.3121083"><ele>338.0</ele><time>2026-04-11T11:48:02.976Z</time></trkpt><trkpt lat="41.5156433" lon="2.3119167"><ele>338.0</ele><time>2026-04-11T11:48:03.976Z</time></trkpt><trkpt lat="41.5156317" lon="2.3117283"><ele>338.0</ele><time>2026-04-11T11:48:04.976Z</time></trkpt><trkpt lat="41.5156317" lon="2.3115433"><ele>338.0</ele><time>2026-04-11T11:48:05.976Z</time></trkpt><trkpt lat="41.5156283" lon="2.31136"><ele>335.5</ele><time>2026-04-11T11:48:06.976Z</time></trkpt><trkpt lat="41.51566" lon="2.3111783"><ele>333.0</ele><time>2026-04-11T11:48:07.976Z</time></trkpt><trkpt lat="41.5156683" lon="2.3109883"><ele>330.5</ele><time>2026-04-11T11:48:08.976Z</time></trkpt><trkpt lat="41.5157" lon="2.3107933"><ele>328.0</ele><time>2026-04-11T11:48:09.976Z</time></trkpt><trkpt lat="41.51575" lon="2.3105917"><ele>325.25</ele><time>2026-04-11T11:48:10.976Z</time></trkpt><trkpt lat="41.5157917" lon="2.31038"><ele>322.5</ele><time>2026-04-11T11:48:11.976Z</time></trkpt><trkpt lat="41.51583" lon="2.3101917"><ele>319.75</ele><time>2026-04-11T11:48:12.976Z</time></trkpt><trkpt lat="41.5158717" lon="2.3100183"><ele>317.0</ele><time>2026-04-11T11:48:13.976Z</time></trkpt><trkpt lat="41.515915" lon="2.30987"><ele>317.2</ele><time>2026-04-11T11:48:14.976Z</time></trkpt><trkpt lat="41.5159633" lon="2.3097283"><ele>317.4</ele><time>2026-04-11T11:48:15.976Z</time></trkpt><trkpt lat="41.515985" lon="2.3095933"><ele>317.6</ele><time>2026-04-11T11:48:16.976Z</time></trkpt><trkpt lat="41.5159833" lon="2.309445"><ele>317.8</ele><time>2026-04-11T11:48:17.976Z</time></trkpt><trkpt lat="41.5159583" lon="2.3093083"><ele>318.0</ele><time>2026-04-11T11:48:18.976Z</time></trkpt><trkpt lat="41.5159217" lon="2.3091917"><ele>318.0</ele><time>2026-04-11T11:48:19.976Z</time></trkpt><trkpt lat="41.5158667" lon="2.3090833"><ele>318.0</ele><time>2026-04-11T11:48:20.976Z</time></trkpt><trkpt lat="41.5157967" lon="2.3089917"><ele>318.0</ele><time>2026-04-11T11:48:21.976Z</time></trkpt><trkpt lat="41.5157117" lon="2.3089283"><ele>318.0</ele><time>2026-04-11T11:48:22.976Z</time></trkpt><trkpt lat="41.5156133" lon="2.3088767"><ele>318.0</ele><time>2026-04-11T11:48:23.976Z</time></trkpt><trkpt lat="41.5154967" lon="2.308835"><ele>321.5</ele><time>2026-04-11T11:48:24.976Z</time></trkpt><trkpt lat="41.5153533" lon="2.308785"><ele>325.0</ele><time>2026-04-11T11:48:25.976Z</time></trkpt><trkpt lat="41.5152183" lon="2.30873"><ele>328.5</ele><time>2026-04-11T11:48:26.976Z</time></trkpt><trkpt lat="41.5150883" lon="2.3086383"><ele>332.0</ele><time>2026-04-11T11:48:27.976Z</time></trkpt><trkpt lat="41.5149817" lon="2.30857"><ele>332.0</ele><time>2026-04-11T11:48:28.976Z</time></trkpt><trkpt lat="41.5149" lon="2.3084717"><ele>332.0</ele><time>2026-04-11T11:48:29.976Z</time></trkpt><trkpt lat="41.5148217" lon="2.30837"><ele>332.0</ele><time>2026-04-11T11:48:30.976Z</time></trkpt><trkpt lat="41.5147433" lon="2.3082517"><ele>332.0</ele><time>2026-04-11T11:48:31.976Z</time></trkpt><trkpt lat="41.5146533" lon="2.30814"><ele>334.25</ele><time>2026-04-11T11:48:32.976Z</time></trkpt><trkpt lat="41.51452" lon="2.3080533"><ele>336.5</ele><time>2026-04-11T11:48:33.976Z</time></trkpt><trkpt lat="41.5143983" lon="2.3079833"><ele>338.75</ele><time>2026-04-11T11:48:34.976Z</time></trkpt><trkpt lat="41.5142683" lon="2.307905"><ele>341.0</ele><time>2026-04-11T11:48:35.976Z</time></trkpt><trkpt lat="41.5141367" lon="2.3078267"><ele>341.0</ele><time>2026-04-11T11:48:36.976Z</time></trkpt><trkpt lat="41.514015" lon="2.30776"><ele>341.0</ele><time>2026-04-11T11:48:37.976Z</time></trkpt><trkpt lat="41.5139067" lon="2.3077383"><ele>341.0</ele><time>2026-04-11T11:48:38.976Z</time></trkpt><trkpt lat="41.5137867" lon="2.3077417"><ele>341.0</ele><time>2026-04-11T11:48:39.976Z</time></trkpt><trkpt lat="41.5136533" lon="2.3077567"><ele>338.75</ele><time>2026-04-11T11:48:40.976Z</time></trkpt><trkpt lat="41.513505" lon="2.307765"><ele>336.5</ele><time>2026-04-11T11:48:41.976Z</time></trkpt><trkpt lat="41.5133517" lon="2.3077817"><ele>334.25</ele><time>2026-04-11T11:48:42.976Z</time></trkpt><trkpt lat="41.5132133" lon="2.307795"><ele>332.0</ele><time>2026-04-11T11:48:43.976Z</time></trkpt><trkpt lat="41.5130917" lon="2.3077883"><ele>332.0</ele><time>2026-04-11T11:48:44.976Z</time></trkpt><trkpt lat="41.5129767" lon="2.307735"><ele>332.0</ele><time>2026-04-11T11:48:45.976Z</time></trkpt><trkpt lat="41.512865" lon="2.307685"><ele>332.0</ele><time>2026-04-11T11:48:46.976Z</time></trkpt><trkpt lat="41.5127367" lon="2.3076267"><ele>332.0</ele><time>2026-04-11T11:48:47.976Z</time></trkpt><trkpt lat="41.5126033" lon="2.3075817"><ele>330.33333333333337</ele><time>2026-04-11T11:48:48.977Z</time></trkpt><trkpt lat="41.5124533" lon="2.307555"><ele>328.6666666666667</ele><time>2026-04-11T11:48:49.976Z</time></trkpt><trkpt lat="41.5123" lon="2.3075417"><ele>327.0</ele><time>2026-04-11T11:48:50.976Z</time></trkpt><trkpt lat="41.512145" lon="2.307495"><ele>327.3333333333333</ele><time>2026-04-11T11:48:51.976Z</time></trkpt><trkpt lat="41.511995" lon="2.3074283"><ele>327.66666666666663</ele><time>2026-04-11T11:48:52.976Z</time></trkpt><trkpt lat="41.51181" lon="2.3073467"><ele>328.0</ele><time>2026-04-11T11:48:53.976Z</time></trkpt><trkpt lat="41.5116233" lon="2.3072917"><ele>327.0</ele><time>2026-04-11T11:48:54.976Z</time></trkpt><trkpt lat="41.5114533" lon="2.3072317"><ele>326.0</ele><time>2026-04-11T11:48:55.976Z</time></trkpt><trkpt lat="41.5113" lon="2.30718"><ele>325.0</ele><time>2026-04-11T11:48:56.976Z</time></trkpt><trkpt lat="41.51117" lon="2.307105"><ele>325.0</ele><time>2026-04-11T11:48:57.976Z</time></trkpt><trkpt lat="41.5110267" lon="2.30706"><ele>325.0</ele><time>2026-04-11T11:48:58.976Z</time></trkpt><trkpt lat="41.5108567" lon="2.307045"><ele>325.0</ele><time>2026-04-11T11:48:59.976Z</time></trkpt><trkpt lat="41.5106817" lon="2.3070417"><ele>325.0</ele><time>2026-04-11T11:49:00.976Z</time></trkpt><trkpt lat="41.5105033" lon="2.3070317"><ele>325.0</ele><time>2026-04-11T11:49:01.976Z</time></trkpt><trkpt lat="41.5103283" lon="2.3069983"><ele>325.0</ele><time>2026-04-11T11:49:02.976Z</time></trkpt><trkpt lat="41.510165" lon="2.3069717"><ele>324.75</ele><time>2026-04-11T11:49:03.976Z</time></trkpt><trkpt lat="41.5100133" lon="2.30696"><ele>324.5</ele><time>2026-04-11T11:49:04.976Z</time></trkpt><trkpt lat="41.509885" lon="2.3069483"><ele>324.25</ele><time>2026-04-11T11:49:05.976Z</time></trkpt><trkpt lat="41.5097667" lon="2.3069533"><ele>324.0</ele><time>2026-04-11T11:49:06.976Z</time></trkpt><trkpt lat="41.50965" lon="2.30698"><ele>324.0</ele><time>2026-04-11T11:49:07.976Z</time></trkpt><trkpt lat="41.5095367" lon="2.3070383"><ele>324.0</ele><time>2026-04-11T11:49:08.976Z</time></trkpt><trkpt lat="41.5094233" lon="2.30711"><ele>324.0</ele><time>2026-04-11T11:49:09.976Z</time></trkpt><trkpt lat="41.5093167" lon="2.3072067"><ele>324.0</ele><time>2026-04-11T11:49:10.976Z</time></trkpt><trkpt lat="41.5092067" lon="2.3073183"><ele>324.0</ele><time>2026-04-11T11:49:11.976Z</time></trkpt><trkpt lat="41.5090933" lon="2.3074267"><ele>324.0</ele><time>2026-04-11T11:49:12.976Z</time></trkpt><trkpt lat="41.50899" lon="2.3075317"><ele>324.0</ele><time>2026-04-11T11:49:13.976Z</time></trkpt><trkpt lat="41.5088983" lon="2.3076417"><ele>324.0</ele><time>2026-04-11T11:49:14.976Z</time></trkpt><trkpt lat="41.5088217" lon="2.3077617"><ele>321.75</ele><time>2026-04-11T11:49:15.976Z</time></trkpt><trkpt lat="41.50873" lon="2.307885"><ele>319.5</ele><time>2026-04-11T11:49:16.976Z</time></trkpt><trkpt lat="41.50862" lon="2.3079717"><ele>317.25</ele><time>2026-04-11T11:49:17.976Z</time></trkpt><trkpt lat="41.5084833" lon="2.3080367"><ele>315.0</ele><time>2026-04-11T11:49:18.976Z</time></trkpt><trkpt lat="41.50834" lon="2.3080833"><ele>315.0</ele><time>2026-04-11T11:49:19.976Z</time></trkpt><trkpt lat="41.508195" lon="2.30813"><ele>315.0</ele><time>2026-04-11T11:49:20.976Z</time></trkpt><trkpt lat="41.5080733" lon="2.3081317"><ele>315.0</ele><time>2026-04-11T11:49:21.976Z</time></trkpt><trkpt lat="41.50796" lon="2.3081067"><ele>315.0</ele><time>2026-04-11T11:49:22.976Z</time></trkpt><trkpt lat="41.5078533" lon="2.3080683"><ele>316.25</ele><time>2026-04-11T11:49:23.976Z</time></trkpt><trkpt lat="41.5077567" lon="2.3080267"><ele>317.5</ele><time>2026-04-11T11:49:24.976Z</time></trkpt><trkpt lat="41.5076483" lon="2.3079583"><ele>318.75</ele><time>2026-04-11T11:49:25.976Z</time></trkpt><trkpt lat="41.5075467" lon="2.30788"><ele>320.0</ele><time>2026-04-11T11:49:26.976Z</time></trkpt><trkpt lat="41.5074433" lon="2.3077967"><ele>320.0</ele><time>2026-04-11T11:49:27.976Z</time></trkpt><trkpt lat="41.5073333" lon="2.3077267"><ele>320.0</ele><time>2026-04-11T11:49:28.977Z</time></trkpt><trkpt lat="41.5072217" lon="2.30766"><ele>320.0</ele><time>2026-04-11T11:49:29.976Z</time></trkpt><trkpt lat="41.5071083" lon="2.3076117"><ele>320.0</ele><time>2026-04-11T11:49:30.976Z</time></trkpt><trkpt lat="41.50699" lon="2.3075683"><ele>314.25</ele><time>2026-04-11T11:49:31.976Z</time></trkpt><trkpt lat="41.5068783" lon="2.3075383"><ele>308.5</ele><time>2026-04-11T11:49:32.976Z</time></trkpt><trkpt lat="41.5067467" lon="2.307525"><ele>302.75</ele><time>2026-04-11T11:49:33.976Z</time></trkpt><trkpt lat="41.5066283" lon="2.3075233"><ele>297.0</ele><time>2026-04-11T11:49:34.976Z</time></trkpt><trkpt lat="41.5065233" lon="2.3075317"><ele>297.0</ele><time>2026-04-11T11:49:35.976Z</time></trkpt><trkpt lat="41.5064283" lon="2.3075783"><ele>297.0</ele><time>2026-04-11T11:49:36.976Z</time></trkpt><trkpt lat="41.5063533" lon="2.307645"><ele>297.0</ele><time>2026-04-11T11:49:37.976Z</time></trkpt><trkpt lat="41.506295" lon="2.3077617"><ele>297.0</ele><time>2026-04-11T11:49:38.976Z</time></trkpt><trkpt lat="41.5062467" lon="2.3078833"><ele>297.0</ele><time>2026-04-11T11:49:39.976Z</time></trkpt><trkpt lat="41.50619" lon="2.3080167"><ele>293.0</ele><time>2026-04-11T11:49:40.976Z</time></trkpt><trkpt lat="41.50615" lon="2.3081467"><ele>289.0</ele><time>2026-04-11T11:49:41.976Z</time></trkpt><trkpt lat="41.5060933" lon="2.3082817"><ele>285.0</ele><time>2026-04-11T11:49:42.977Z</time></trkpt><trkpt lat="41.506035" lon="2.308425"><ele>281.0</ele><time>2026-04-11T11:49:43.976Z</time></trkpt><trkpt lat="41.505975" lon="2.308555"><ele>281.0</ele><time>2026-04-11T11:49:44.976Z</time></trkpt><trkpt lat="41.50592" lon="2.3086767"><ele>281.0</ele><time>2026-04-11T11:49:45.976Z</time></trkpt><trkpt lat="41.5058617" lon="2.3087933"><ele>281.0</ele><time>2026-04-11T11:49:46.976Z</time></trkpt><trkpt lat="41.5058033" lon="2.3089167"><ele>281.0</ele><time>2026-04-11T11:49:47.976Z</time></trkpt><trkpt lat="41.505735" lon="2.3090433"><ele>281.0</ele><time>2026-04-11T11:49:48.976Z</time></trkpt><trkpt lat="41.505675" lon="2.30917"><ele>277.40000000000003</ele><time>2026-04-11T11:49:49.976Z</time></trkpt><trkpt lat="41.505625" lon="2.3093133"><ele>273.8</ele><time>2026-04-11T11:49:50.976Z</time></trkpt><trkpt lat="41.50558" lon="2.30945"><ele>270.20000000000005</ele><time>2026-04-11T11:49:51.976Z</time></trkpt><trkpt lat="41.5055367" lon="2.3095817"><ele>266.6</ele><time>2026-04-11T11:49:52.976Z</time></trkpt><trkpt lat="41.5055" lon="2.3097133"><ele>263.0</ele><time>2026-04-11T11:49:53.976Z</time></trkpt><trkpt lat="41.505465" lon="2.3098517"><ele>261.6</ele><time>2026-04-11T11:49:54.976Z</time></trkpt><trkpt lat="41.5054233" lon="2.3099883"><ele>260.20000000000005</ele><time>2026-04-11T11:49:55.976Z</time></trkpt><trkpt lat="41.5053733" lon="2.310125"><ele>258.8</ele><time>2026-04-11T11:49:56.976Z</time></trkpt><trkpt lat="41.5053283" lon="2.31026"><ele>257.40000000000003</ele><time>2026-04-11T11:49:57.976Z</time></trkpt><trkpt lat="41.50529" lon="2.310385"><ele>256.0</ele><time>2026-04-11T11:49:58.976Z</time></trkpt><trkpt lat="41.5052567" lon="2.310505"><ele>254.0</ele><time>2026-04-11T11:49:59.976Z</time></trkpt><trkpt lat="41.5052133" lon="2.310615"><ele>252.0</ele><time>2026-04-11T11:50:00.976Z</time></trkpt><trkpt lat="41.505155" lon="2.31074"><ele>250.0</ele><time>2026-04-11T11:50:01.976Z</time></trkpt><trkpt lat="41.5050783" lon="2.31087"><ele>248.0</ele><time>2026-04-11T11:50:02.976Z</time></trkpt><trkpt lat="41.50498" lon="2.3110017"><ele>248.0</ele><time>2026-04-11T11:50:03.976Z</time></trkpt><trkpt lat="41.5048717" lon="2.3111317"><ele>248.0</ele><time>2026-04-11T11:50:04.976Z</time></trkpt><trkpt lat="41.5047833" lon="2.3112467"><ele>248.0</ele><time>2026-04-11T11:50:05.976Z</time></trkpt><trkpt lat="41.5047067" lon="2.311345"><ele>248.0</ele><time>2026-04-11T11:50:06.976Z</time></trkpt><trkpt lat="41.504625" lon="2.3114067"><ele>245.0</ele><time>2026-04-11T11:50:07.976Z</time></trkpt><trkpt lat="41.5045183" lon="2.3114617"><ele>242.0</ele><time>2026-04-11T11:50:08.976Z</time></trkpt><trkpt lat="41.5044017" lon="2.3114833"><ele>239.0</ele><time>2026-04-11T11:50:09.976Z</time></trkpt><trkpt lat="41.50428" lon="2.3114717"><ele>236.0</ele><time>2026-04-11T11:50:10.977Z</time></trkpt><trkpt lat="41.5041283" lon="2.31146"><ele>236.0</ele><time>2026-04-11T11:50:11.976Z</time></trkpt><trkpt lat="41.50397" lon="2.3114467"><ele>236.0</ele><time>2026-04-11T11:50:12.976Z</time></trkpt><trkpt lat="41.5038" lon="2.3114383"><ele>236.0</ele><time>2026-04-11T11:50:13.976Z</time></trkpt><trkpt lat="41.50365" lon="2.3114383"><ele>234.25</ele><time>2026-04-11T11:50:14.976Z</time></trkpt><trkpt lat="41.5035017" lon="2.31145"><ele>232.5</ele><time>2026-04-11T11:50:15.976Z</time></trkpt><trkpt lat="41.5033683" lon="2.311465"><ele>230.75</ele><time>2026-04-11T11:50:16.976Z</time></trkpt><trkpt lat="41.50323" lon="2.3114617"><ele>229.0</ele><time>2026-04-11T11:50:17.976Z</time></trkpt><trkpt lat="41.5030883" lon="2.31144"><ele>229.0</ele><time>2026-04-11T11:50:18.976Z</time></trkpt><trkpt lat="41.502945" lon="2.3114033"><ele>229.0</ele><time>2026-04-11T11:50:19.976Z</time></trkpt><trkpt lat="41.5028067" lon="2.3113733"><ele>229.0</ele><time>2026-04-11T11:50:20.976Z</time></trkpt><trkpt lat="41.502675" lon="2.3113567"><ele>229.0</ele><time>2026-04-11T11:50:21.976Z</time></trkpt><trkpt lat="41.5025433" lon="2.311355"><ele>226.75</ele><time>2026-04-11T11:50:22.976Z</time></trkpt><trkpt lat="41.5024167" lon="2.31138"><ele>224.5</ele><time>2026-04-11T11:50:23.976Z</time></trkpt><trkpt lat="41.5022967" lon="2.3114567"><ele>222.25</ele><time>2026-04-11T11:50:24.976Z</time></trkpt><trkpt lat="41.5021783" lon="2.3115433"><ele>220.0</ele><time>2026-04-11T11:50:25.976Z</time></trkpt><trkpt lat="41.5020617" lon="2.311615"><ele>217.66666666666666</ele><time>2026-04-11T11:50:26.976Z</time></trkpt><trkpt lat="41.50193" lon="2.3116717"><ele>215.33333333333331</ele><time>2026-04-11T11:50:27.976Z</time></trkpt><trkpt lat="41.5017783" lon="2.3117233"><ele>213.0</ele><time>2026-04-11T11:50:28.976Z</time></trkpt><trkpt lat="41.5016117" lon="2.31178"><ele>213.0</ele><time>2026-04-11T11:50:29.976Z</time></trkpt><trkpt lat="41.5014517" lon="2.3118367"><ele>213.0</ele><time>2026-04-11T11:50:30.977Z</time></trkpt><trkpt lat="41.5012917" lon="2.311915"><ele>213.0</ele><time>2026-04-11T11:50:31.976Z</time></trkpt><trkpt lat="41.50113" lon="2.3119817"><ele>211.33333333333331</ele><time>2026-04-11T11:50:32.977Z</time></trkpt><trkpt lat="41.5009783" lon="2.3120617"><ele>209.66666666666666</ele><time>2026-04-11T11:50:33.976Z</time></trkpt><trkpt lat="41.5008167" lon="2.31212"><ele>208.0</ele><time>2026-04-11T11:50:34.976Z</time></trkpt><trkpt lat="41.50065" lon="2.3121883"><ele>208.0</ele><time>2026-04-11T11:50:35.976Z</time></trkpt><trkpt lat="41.50048" lon="2.3122667"><ele>208.0</ele><time>2026-04-11T11:50:36.977Z</time></trkpt><trkpt lat="41.5003083" lon="2.3123383"><ele>208.0</ele><time>2026-04-11T11:50:37.976Z</time></trkpt><trkpt lat="41.5001417" lon="2.3124033"><ele>206.33333333333331</ele><time>2026-04-11T11:50:38.976Z</time></trkpt><trkpt lat="41.4999717" lon="2.3124617"><ele>204.66666666666669</ele><time>2026-04-11T11:50:39.976Z</time></trkpt><trkpt lat="41.4998033" lon="2.3125217"><ele>203.0</ele><time>2026-04-11T11:50:40.977Z</time></trkpt><trkpt lat="41.49963" lon="2.312585"><ele>202.66666666666669</ele><time>2026-04-11T11:50:41.976Z</time></trkpt><trkpt lat="41.499465" lon="2.31265"><ele>202.33333333333331</ele><time>2026-04-11T11:50:42.976Z</time></trkpt><trkpt lat="41.4993233" lon="2.3127"><ele>202.0</ele><time>2026-04-11T11:50:43.976Z</time></trkpt><trkpt lat="41.4991833" lon="2.3127567"><ele>202.0</ele><time>2026-04-11T11:50:44.976Z</time></trkpt><trkpt lat="41.4990417" lon="2.3128233"><ele>202.0</ele><time>2026-04-11T11:50:45.977Z</time></trkpt><trkpt lat="41.4988933" lon="2.3129033"><ele>202.0</ele><time>2026-04-11T11:50:46.976Z</time></trkpt><trkpt lat="41.4987383" lon="2.3129767"><ele>202.66666666666666</ele><time>2026-04-11T11:50:47.976Z</time></trkpt><trkpt lat="41.4985667" lon="2.313065"><ele>203.33333333333331</ele><time>2026-04-11T11:50:48.976Z</time></trkpt><trkpt lat="41.4983917" lon="2.313145"><ele>204.0</ele><time>2026-04-11T11:50:49.976Z</time></trkpt><trkpt lat="41.49822" lon="2.3132083"><ele>204.0</ele><time>2026-04-11T11:50:50.976Z</time></trkpt><trkpt lat="41.49806" lon="2.3132717"><ele>204.0</ele><time>2026-04-11T11:50:51.976Z</time></trkpt><trkpt lat="41.497895" lon="2.3133267"><ele>204.0</ele><time>2026-04-11T11:50:52.976Z</time></trkpt><trkpt lat="41.49775" lon="2.313365"><ele>202.5</ele><time>2026-04-11T11:50:53.976Z</time></trkpt><trkpt lat="41.4976183" lon="2.313395"><ele>201.0</ele><time>2026-04-11T11:50:54.976Z</time></trkpt><trkpt lat="41.4974717" lon="2.3134317"><ele>199.5</ele><time>2026-04-11T11:50:55.976Z</time></trkpt><trkpt lat="41.49732" lon="2.3134683"><ele>198.0</ele><time>2026-04-11T11:50:56.977Z</time></trkpt><trkpt lat="41.4971617" lon="2.31349"><ele>196.25</ele><time>2026-04-11T11:50:57.976Z</time></trkpt><trkpt lat="41.4970167" lon="2.313505"><ele>194.5</ele><time>2026-04-11T11:50:58.976Z</time></trkpt><trkpt lat="41.496865" lon="2.3134967"><ele>192.75</ele><time>2026-04-11T11:50:59.976Z</time></trkpt><trkpt lat="41.4967233" lon="2.3135"><ele>191.0</ele><time>2026-04-11T11:51:00.976Z</time></trkpt><trkpt lat="41.49658" lon="2.3134933"><ele>191.0</ele><time>2026-04-11T11:51:01.976Z</time></trkpt><trkpt lat="41.4964483" lon="2.3134933"><ele>191.0</ele><time>2026-04-11T11:51:02.976Z</time></trkpt><trkpt lat="41.4963167" lon="2.3135067"><ele>191.0</ele><time>2026-04-11T11:51:03.976Z</time></trkpt><trkpt lat="41.4961767" lon="2.3135167"><ele>191.0</ele><time>2026-04-11T11:51:04.976Z</time></trkpt><trkpt lat="41.4960433" lon="2.3135333"><ele>189.0</ele><time>2026-04-11T11:51:05.976Z</time></trkpt><trkpt lat="41.49591" lon="2.3135517"><ele>187.0</ele><time>2026-04-11T11:51:06.976Z</time></trkpt><trkpt lat="41.495785" lon="2.3135967"><ele>185.0</ele><time>2026-04-11T11:51:07.976Z</time></trkpt><trkpt lat="41.49566" lon="2.3136233"><ele>183.0</ele><time>2026-04-11T11:51:08.976Z</time></trkpt><trkpt lat="41.4955183" lon="2.3136367"><ele>181.0</ele><time>2026-04-11T11:51:09.976Z</time></trkpt><trkpt lat="41.4953583" lon="2.3136333"><ele>179.0</ele><time>2026-04-11T11:51:10.976Z</time></trkpt><trkpt lat="41.4952267" lon="2.3135833"><ele>177.0</ele><time>2026-04-11T11:51:11.976Z</time></trkpt><trkpt lat="41.4951133" lon="2.3135183"><ele>175.0</ele><time>2026-04-11T11:51:12.976Z</time></trkpt><trkpt lat="41.495015" lon="2.3134717"><ele>175.0</ele><time>2026-04-11T11:51:13.976Z</time></trkpt><trkpt lat="41.49492" lon="2.3134267"><ele>175.0</ele><time>2026-04-11T11:51:14.976Z</time></trkpt><trkpt lat="41.4948417" lon="2.3133733"><ele>175.0</ele><time>2026-04-11T11:51:15.976Z</time></trkpt><trkpt lat="41.4947733" lon="2.3133083"><ele>175.0</ele><time>2026-04-11T11:51:16.976Z</time></trkpt><trkpt lat="41.4946983" lon="2.313245"><ele>175.0</ele><time>2026-04-11T11:51:17.976Z</time></trkpt><trkpt lat="41.4946233" lon="2.3131683"><ele>173.0</ele><time>2026-04-11T11:51:18.976Z</time></trkpt><trkpt lat="41.4945367" lon="2.3130717"><ele>171.0</ele><time>2026-04-11T11:51:19.976Z</time></trkpt><trkpt lat="41.4944533" lon="2.312975"><ele>169.0</ele><time>2026-04-11T11:51:20.976Z</time></trkpt><trkpt lat="41.4943783" lon="2.3128817"><ele>167.0</ele><time>2026-04-11T11:51:21.976Z</time></trkpt><trkpt lat="41.49431" lon="2.312765"><ele>165.0</ele><time>2026-04-11T11:51:22.976Z</time></trkpt><trkpt lat="41.494235" lon="2.312655"><ele>165.0</ele><time>2026-04-11T11:51:23.976Z</time></trkpt><trkpt lat="41.494155" lon="2.3125583"><ele>165.0</ele><time>2026-04-11T11:51:24.976Z</time></trkpt><trkpt lat="41.4940617" lon="2.312485"><ele>165.0</ele><time>2026-04-11T11:51:25.977Z</time></trkpt><trkpt lat="41.4939617" lon="2.312425"><ele>165.0</ele><time>2026-04-11T11:51:26.975Z</time></trkpt><trkpt lat="41.4938483" lon="2.3123833"><ele>165.0</ele><time>2026-04-11T11:51:27.975Z</time></trkpt><trkpt lat="41.4937517" lon="2.31234"><ele>164.5</ele><time>2026-04-11T11:51:28.975Z</time></trkpt><trkpt lat="41.4936583" lon="2.3122967"><ele>164.0</ele><time>2026-04-11T11:51:29.975Z</time></trkpt><trkpt lat="41.4935717" lon="2.3122533"><ele>163.5</ele><time>2026-04-11T11:51:30.975Z</time></trkpt><trkpt lat="41.4934967" lon="2.3122083"><ele>163.0</ele><time>2026-04-11T11:51:31.975Z</time></trkpt><trkpt lat="41.493415" lon="2.31216"><ele>162.5</ele><time>2026-04-11T11:51:32.975Z</time></trkpt><trkpt lat="41.4933367" lon="2.3121317"><ele>162.0</ele><time>2026-04-11T11:51:33.975Z</time></trkpt><trkpt lat="41.4932533" lon="2.31206"><ele>160.0</ele><time>2026-04-11T11:51:34.975Z</time></trkpt><trkpt lat="41.4931817" lon="2.3119833"><ele>158.0</ele><time>2026-04-11T11:51:35.975Z</time></trkpt><trkpt lat="41.4931383" lon="2.3118733"><ele>156.0</ele><time>2026-04-11T11:51:36.976Z</time></trkpt><trkpt lat="41.4931217" lon="2.31173"><ele>154.0</ele><time>2026-04-11T11:51:37.975Z</time></trkpt><trkpt lat="41.493085" lon="2.3116267"><ele>152.0</ele><time>2026-04-11T11:51:38.975Z</time></trkpt><trkpt lat="41.493025" lon="2.3115367"><ele>152.0</ele><time>2026-04-11T11:51:39.975Z</time></trkpt><trkpt lat="41.49294" lon="2.311455"><ele>152.0</ele><time>2026-04-11T11:51:40.975Z</time></trkpt><trkpt lat="41.49284" lon="2.3113767"><ele>152.0</ele><time>2026-04-11T11:51:41.975Z</time></trkpt><trkpt lat="41.4927333" lon="2.3112767"><ele>152.0</ele><time>2026-04-11T11:51:42.975Z</time></trkpt><trkpt lat="41.4926267" lon="2.3111967"><ele>150.2</ele><time>2026-04-11T11:51:43.975Z</time></trkpt><trkpt lat="41.4925317" lon="2.311145"><ele>148.39999999999998</ele><time>2026-04-11T11:51:44.975Z</time></trkpt><trkpt lat="41.4924433" lon="2.3110817"><ele>146.60000000000002</ele><time>2026-04-11T11:51:45.975Z</time></trkpt><trkpt lat="41.492355" lon="2.3110283"><ele>144.8</ele><time>2026-04-11T11:51:46.975Z</time></trkpt><trkpt lat="41.4922733" lon="2.3109833"><ele>143.0</ele><time>2026-04-11T11:51:47.975Z</time></trkpt><trkpt lat="41.4921917" lon="2.310945"><ele>143.0</ele><time>2026-04-11T11:51:48.975Z</time></trkpt><trkpt lat="41.4921" lon="2.3109083"><ele>143.0</ele><time>2026-04-11T11:51:49.975Z</time></trkpt><trkpt lat="41.492" lon="2.3108617"><ele>143.0</ele><time>2026-04-11T11:51:50.975Z</time></trkpt><trkpt lat="41.4918983" lon="2.3108233"><ele>143.0</ele><time>2026-04-11T11:51:51.975Z</time></trkpt><trkpt lat="41.49179" lon="2.3107783"><ele>143.0</ele><time>2026-04-11T11:51:52.975Z</time></trkpt><trkpt lat="41.49169" lon="2.3107333"><ele>141.8</ele><time>2026-04-11T11:51:53.975Z</time></trkpt><trkpt lat="41.4915883" lon="2.3106833"><ele>140.60000000000002</ele><time>2026-04-11T11:51:54.975Z</time></trkpt><trkpt lat="41.4914967" lon="2.3106333"><ele>139.39999999999998</ele><time>2026-04-11T11:51:55.975Z</time></trkpt><trkpt lat="41.491415" lon="2.3105817"><ele>138.2</ele><time>2026-04-11T11:51:56.975Z</time></trkpt><trkpt lat="41.491335" lon="2.3105133"><ele>137.0</ele><time>2026-04-11T11:51:57.975Z</time></trkpt><trkpt lat="41.4912683" lon="2.3104433"><ele>134.79999999999998</ele><time>2026-04-11T11:51:58.975Z</time></trkpt><trkpt lat="41.49121" lon="2.3103583"><ele>132.6</ele><time>2026-04-11T11:51:59.975Z</time></trkpt><trkpt lat="41.4911533" lon="2.310265"><ele>130.39999999999998</ele><time>2026-04-11T11:52:00.976Z</time></trkpt><trkpt lat="41.4910983" lon="2.310175"><ele>128.2</ele><time>2026-04-11T11:52:01.975Z</time></trkpt><trkpt lat="41.4910367" lon="2.3100783"><ele>126.0</ele><time>2026-04-11T11:52:02.975Z</time></trkpt><trkpt lat="41.4909667" lon="2.309995"><ele>126.0</ele><time>2026-04-11T11:52:03.976Z</time></trkpt><trkpt lat="41.4908733" lon="2.3099283"><ele>126.0</ele><time>2026-04-11T11:52:04.975Z</time></trkpt><trkpt lat="41.4907867" lon="2.30989"><ele>126.0</ele><time>2026-04-11T11:52:05.975Z</time></trkpt><trkpt lat="41.4906917" lon="2.30986"><ele>126.0</ele><time>2026-04-11T11:52:06.975Z</time></trkpt><trkpt lat="41.49059" lon="2.3098267"><ele>126.0</ele><time>2026-04-11T11:52:07.976Z</time></trkpt><trkpt lat="41.4904867" lon="2.3097917"><ele>123.0</ele><time>2026-04-11T11:52:08.975Z</time></trkpt><trkpt lat="41.4903733" lon="2.3097533"><ele>120.0</ele><time>2026-04-11T11:52:09.975Z</time></trkpt><trkpt lat="41.49028" lon="2.3097283"><ele>117.0</ele><time>2026-04-11T11:52:10.975Z</time></trkpt><trkpt lat="41.490185" lon="2.3096917"><ele>114.0</ele><time>2026-04-11T11:52:11.975Z</time></trkpt><trkpt lat="41.4900933" lon="2.3096517"><ele>111.0</ele><time>2026-04-11T11:52:12.975Z</time></trkpt><trkpt lat="41.4899967" lon="2.3096217"><ele>110.0</ele><time>2026-04-11T11:52:13.975Z</time></trkpt><trkpt lat="41.4898983" lon="2.309605"><ele>109.0</ele><time>2026-04-11T11:52:14.975Z</time></trkpt><trkpt lat="41.4898" lon="2.3095917"><ele>108.0</ele><time>2026-04-11T11:52:15.976Z</time></trkpt><trkpt lat="41.4896967" lon="2.309585"><ele>107.0</ele><time>2026-04-11T11:52:16.976Z</time></trkpt><trkpt lat="41.4895767" lon="2.3095783"><ele>106.0</ele><time>2026-04-11T11:52:17.975Z</time></trkpt><trkpt lat="41.4894667" lon="2.3095783"><ele>104.4</ele><time>2026-04-11T11:52:18.975Z</time></trkpt><trkpt lat="41.48935" lon="2.3095633"><ele>102.8</ele><time>2026-04-11T11:52:19.975Z</time></trkpt><trkpt lat="41.489235" lon="2.309565"><ele>101.2</ele><time>2026-04-11T11:52:20.975Z</time></trkpt><trkpt lat="41.48913" lon="2.309575"><ele>99.60000000000001</ele><time>2026-04-11T11:52:21.975Z</time></trkpt><trkpt lat="41.4890283" lon="2.30958"><ele>98.0</ele><time>2026-04-11T11:52:22.975Z</time></trkpt><trkpt lat="41.4889283" lon="2.30958"><ele>98.0</ele><time>2026-04-11T11:52:23.975Z</time></trkpt><trkpt lat="41.4888333" lon="2.30959"><ele>98.0</ele><time>2026-04-11T11:52:24.975Z</time></trkpt><trkpt lat="41.488735" lon="2.3095917"><ele>98.0</ele><time>2026-04-11T11:52:25.975Z</time></trkpt><trkpt lat="41.4886267" lon="2.3095917"><ele>98.0</ele><time>2026-04-11T11:52:26.975Z</time></trkpt><trkpt lat="41.4885133" lon="2.3095933"><ele>98.0</ele><time>2026-04-11T11:52:27.975Z</time></trkpt><trkpt lat="41.4883883" lon="2.30958"><ele>94.75</ele><time>2026-04-11T11:52:28.975Z</time></trkpt><trkpt lat="41.4882717" lon="2.3095683"><ele>91.5</ele><time>2026-04-11T11:52:29.975Z</time></trkpt><trkpt lat="41.48816" lon="2.3095717"><ele>88.25</ele><time>2026-04-11T11:52:30.975Z</time></trkpt><trkpt lat="41.4880467" lon="2.3095833"><ele>85.0</ele><time>2026-04-11T11:52:31.975Z</time></trkpt><trkpt lat="41.4879383" lon="2.3095783"><ele>84.6</ele><time>2026-04-11T11:52:32.975Z</time></trkpt><trkpt lat="41.4878317" lon="2.3095817"><ele>84.2</ele><time>2026-04-11T11:52:33.975Z</time></trkpt><trkpt lat="41.487725" lon="2.30959"><ele>83.80000000000001</ele><time>2026-04-11T11:52:34.975Z</time></trkpt><trkpt lat="41.4876233" lon="2.3096"><ele>83.4</ele><time>2026-04-11T11:52:35.975Z</time></trkpt><trkpt lat="41.487535" lon="2.3096133"><ele>83.0</ele><time>2026-04-11T11:52:36.975Z</time></trkpt><trkpt lat="41.4874533" lon="2.30964"><ele>83.0</ele><time>2026-04-11T11:52:37.975Z</time></trkpt><trkpt lat="41.487375" lon="2.309645"><ele>83.0</ele><time>2026-04-11T11:52:38.975Z</time></trkpt><trkpt lat="41.4873117" lon="2.3096517"><ele>83.0</ele><time>2026-04-11T11:52:39.975Z</time></trkpt><trkpt lat="41.4872467" lon="2.3096767"><ele>83.0</ele><time>2026-04-11T11:52:43.975Z</time></trkpt><trkpt lat="41.4871233" lon="2.30967"><ele>83.0</ele><time>2026-04-11T11:53:26.975Z</time></trkpt><trkpt lat="41.4870417" lon="2.3096867"><ele>83.0</ele><time>2026-04-11T11:53:27.975Z</time></trkpt><trkpt lat="41.4869433" lon="2.3096983"><ele>83.2</ele><time>2026-04-11T11:53:28.975Z</time></trkpt><trkpt lat="41.4868333" lon="2.3096983"><ele>83.4</ele><time>2026-04-11T11:53:29.975Z</time></trkpt><trkpt lat="41.4867317" lon="2.3096933"><ele>83.60000000000001</ele><time>2026-04-11T11:53:30.975Z</time></trkpt><trkpt lat="41.48663" lon="2.3097"><ele>83.80000000000001</ele><time>2026-04-11T11:53:31.975Z</time></trkpt><trkpt lat="41.4865367" lon="2.3097183"><ele>84.0</ele><time>2026-04-11T11:53:32.975Z</time></trkpt><trkpt lat="41.4864483" lon="2.309735"><ele>83.80000000000001</ele><time>2026-04-11T11:53:33.975Z</time></trkpt><trkpt lat="41.4863633" lon="2.309765"><ele>83.60000000000001</ele><time>2026-04-11T11:53:34.975Z</time></trkpt><trkpt lat="41.4862683" lon="2.30978"><ele>83.4</ele><time>2026-04-11T11:53:35.975Z</time></trkpt><trkpt lat="41.486165" lon="2.3097967"><ele>83.2</ele><time>2026-04-11T11:53:36.975Z</time></trkpt><trkpt lat="41.4860567" lon="2.309815"><ele>83.0</ele><time>2026-04-11T11:53:37.975Z</time></trkpt><trkpt lat="41.48595" lon="2.30984"><ele>81.25</ele><time>2026-04-11T11:53:38.975Z</time></trkpt><trkpt lat="41.4858417" lon="2.3098767"><ele>79.5</ele><time>2026-04-11T11:53:39.975Z</time></trkpt><trkpt lat="41.4857233" lon="2.3099117"><ele>77.75</ele><time>2026-04-11T11:53:40.975Z</time></trkpt><trkpt lat="41.4856117" lon="2.30994"><ele>76.0</ele><time>2026-04-11T11:53:41.975Z</time></trkpt><trkpt lat="41.485495" lon="2.3099833"><ele>75.25</ele><time>2026-04-11T11:53:42.975Z</time></trkpt><trkpt lat="41.4853717" lon="2.3100217"><ele>74.5</ele><time>2026-04-11T11:53:43.975Z</time></trkpt><trkpt lat="41.485245" lon="2.310065"><ele>73.75</ele><time>2026-04-11T11:53:44.975Z</time></trkpt><trkpt lat="41.4851233" lon="2.3100983"><ele>73.0</ele><time>2026-04-11T11:53:45.975Z</time></trkpt><trkpt lat="41.4850117" lon="2.3101333"><ele>73.0</ele><time>2026-04-11T11:53:46.975Z</time></trkpt><trkpt lat="41.484895" lon="2.31018"><ele>73.0</ele><time>2026-04-11T11:53:47.975Z</time></trkpt><trkpt lat="41.4847683" lon="2.31023"><ele>73.0</ele><time>2026-04-11T11:53:48.975Z</time></trkpt><trkpt lat="41.4846383" lon="2.3102683"><ele>73.0</ele><time>2026-04-11T11:53:49.975Z</time></trkpt><trkpt lat="41.4845117" lon="2.3103217"><ele>72.5</ele><time>2026-04-11T11:53:50.975Z</time></trkpt><trkpt lat="41.4843833" lon="2.310365"><ele>72.0</ele><time>2026-04-11T11:53:51.975Z</time></trkpt><trkpt lat="41.4842533" lon="2.3104083"><ele>71.5</ele><time>2026-04-11T11:53:52.975Z</time></trkpt><trkpt lat="41.4841217" lon="2.3104883"><ele>71.0</ele><time>2026-04-11T11:53:53.975Z</time></trkpt><trkpt lat="41.4839917" lon="2.3105733"><ele>70.0</ele><time>2026-04-11T11:53:54.975Z</time></trkpt><trkpt lat="41.4838633" lon="2.3106617"><ele>69.0</ele><time>2026-04-11T11:53:55.975Z</time></trkpt><trkpt lat="41.4837283" lon="2.3107667"><ele>68.0</ele><time>2026-04-11T11:53:56.975Z</time></trkpt><trkpt lat="41.4836067" lon="2.3108583"><ele>67.0</ele><time>2026-04-11T11:53:57.975Z</time></trkpt><trkpt lat="41.4834933" lon="2.3109517"><ele>66.75</ele><time>2026-04-11T11:53:58.975Z</time></trkpt><trkpt lat="41.4833817" lon="2.31104"><ele>66.5</ele><time>2026-04-11T11:53:59.975Z</time></trkpt><trkpt lat="41.483275" lon="2.3111233"><ele>66.25</ele><time>2026-04-11T11:54:00.976Z</time></trkpt><trkpt lat="41.4831667" lon="2.3111967"><ele>66.0</ele><time>2026-04-11T11:54:01.975Z</time></trkpt><trkpt lat="41.483075" lon="2.3112667"><ele>66.0</ele><time>2026-04-11T11:54:02.975Z</time></trkpt><trkpt lat="41.48301" lon="2.3113183"><ele>66.0</ele><time>2026-04-11T11:54:03.975Z</time></trkpt><trkpt lat="41.482945" lon="2.31134"><ele>66.0</ele><time>2026-04-11T11:54:04.975Z</time></trkpt><trkpt lat="41.4828483" lon="2.3112767"><ele>66.0</ele><time>2026-04-11T11:54:06.975Z</time></trkpt><trkpt lat="41.4828033" lon="2.3112067"><ele>66.0</ele><time>2026-04-11T11:54:07.975Z</time></trkpt><trkpt lat="41.482765" lon="2.3110867"><ele>66.0</ele><time>2026-04-11T11:54:08.976Z</time></trkpt><trkpt lat="41.4827183" lon="2.3109383"><ele>63.75</ele><time>2026-04-11T11:54:09.975Z</time></trkpt><trkpt lat="41.48266" lon="2.3107717"><ele>61.5</ele><time>2026-04-11T11:54:10.975Z</time></trkpt><trkpt lat="41.4826017" lon="2.31061"><ele>59.25</ele><time>2026-04-11T11:54:11.975Z</time></trkpt><trkpt lat="41.4825383" lon="2.3104467"><ele>57.0</ele><time>2026-04-11T11:54:12.975Z</time></trkpt><trkpt lat="41.4824833" lon="2.3103017"><ele>56.5</ele><time>2026-04-11T11:54:13.975Z</time></trkpt><trkpt lat="41.482435" lon="2.3101817"><ele>56.0</ele><time>2026-04-11T11:54:14.975Z</time></trkpt><trkpt lat="41.4823917" lon="2.310075"><ele>55.5</ele><time>2026-04-11T11:54:15.975Z</time></trkpt><trkpt lat="41.4823583" lon="2.3099783"><ele>55.0</ele><time>2026-04-11T11:54:16.975Z</time></trkpt><trkpt lat="41.4823233" lon="2.3098683"><ele>54.5</ele><time>2026-04-11T11:54:17.975Z</time></trkpt><trkpt lat="41.4822967" lon="2.3097583"><ele>54.0</ele><time>2026-04-11T11:54:18.975Z</time></trkpt><trkpt lat="41.48228" lon="2.3096433"><ele>53.5</ele><time>2026-04-11T11:54:19.975Z</time></trkpt><trkpt lat="41.4822567" lon="2.3095383"><ele>53.0</ele><time>2026-04-11T11:54:20.975Z</time></trkpt><trkpt lat="41.48222" lon="2.30944"><ele>52.5</ele><time>2026-04-11T11:54:21.975Z</time></trkpt><trkpt lat="41.4821717" lon="2.309345"><ele>52.0</ele><time>2026-04-11T11:54:22.975Z</time></trkpt><trkpt lat="41.4821283" lon="2.30923"><ele>51.5</ele><time>2026-04-11T11:54:23.975Z</time></trkpt><trkpt lat="41.4820883" lon="2.3091133"><ele>51.0</ele><time>2026-04-11T11:54:24.975Z</time></trkpt><trkpt lat="41.4820417" lon="2.308995"><ele>49.0</ele><time>2026-04-11T11:54:25.975Z</time></trkpt><trkpt lat="41.481995" lon="2.3088683"><ele>47.0</ele><time>2026-04-11T11:54:26.975Z</time></trkpt><trkpt lat="41.4819583" lon="2.3087433"><ele>45.0</ele><time>2026-04-11T11:54:27.975Z</time></trkpt><trkpt lat="41.4819133" lon="2.3086267"><ele>43.0</ele><time>2026-04-11T11:54:28.975Z</time></trkpt><trkpt lat="41.481875" lon="2.3084967"><ele>41.0</ele><time>2026-04-11T11:54:29.975Z</time></trkpt><trkpt lat="41.4818267" lon="2.3083683"><ele>41.0</ele><time>2026-04-11T11:54:30.975Z</time></trkpt><trkpt lat="41.4817767" lon="2.3082283"><ele>41.0</ele><time>2026-04-11T11:54:31.975Z</time></trkpt><trkpt lat="41.4817217" lon="2.3080817"><ele>41.0</ele><time>2026-04-11T11:54:32.975Z</time></trkpt><trkpt lat="41.4816733" lon="2.307945"><ele>41.0</ele><time>2026-04-11T11:54:33.975Z</time></trkpt><trkpt lat="41.4816383" lon="2.3078183"><ele>41.57142857142857</ele><time>2026-04-11T11:54:34.975Z</time></trkpt><trkpt lat="41.4816017" lon="2.3077117"><ele>42.14285714285714</ele><time>2026-04-11T11:54:35.975Z</time></trkpt><trkpt lat="41.4815717" lon="2.3076217"><ele>42.71428571428571</ele><time>2026-04-11T11:54:36.975Z</time></trkpt><trkpt lat="41.4815467" lon="2.307535"><ele>43.285714285714285</ele><time>2026-04-11T11:54:37.975Z</time></trkpt><trkpt lat="41.4815217" lon="2.30745"><ele>43.85714285714286</ele><time>2026-04-11T11:54:38.975Z</time></trkpt><trkpt lat="41.48149" lon="2.3073667"><ele>44.42857142857142</ele><time>2026-04-11T11:54:39.975Z</time></trkpt><trkpt lat="41.4814633" lon="2.307275"><ele>45.0</ele><time>2026-04-11T11:54:40.975Z</time></trkpt><trkpt lat="41.4814317" lon="2.3071717"><ele>45.0</ele><time>2026-04-11T11:54:41.976Z</time></trkpt><trkpt lat="41.4813933" lon="2.3070683"><ele>45.0</ele><time>2026-04-11T11:54:42.975Z</time></trkpt><trkpt lat="41.4813517" lon="2.306955"><ele>45.0</ele><time>2026-04-11T11:54:43.975Z</time></trkpt><trkpt lat="41.4813083" lon="2.3068333"><ele>45.0</ele><time>2026-04-11T11:54:44.975Z</time></trkpt><trkpt lat="41.48127" lon="2.306715"><ele>45.0</ele><time>2026-04-11T11:54:45.975Z</time></trkpt><trkpt lat="41.48123" lon="2.3065917"><ele>45.0</ele><time>2026-04-11T11:54:46.976Z</time></trkpt><trkpt lat="41.4811833" lon="2.3064567"><ele>45.0</ele><time>2026-04-11T11:54:47.975Z</time></trkpt><trkpt lat="41.4811367" lon="2.3063117"><ele>45.0</ele><time>2026-04-11T11:54:48.975Z</time></trkpt><trkpt lat="41.4810933" lon="2.3061783"><ele>45.0</ele><time>2026-04-11T11:54:49.975Z</time></trkpt><trkpt lat="41.48104" lon="2.3060483"><ele>44.4</ele><time>2026-04-11T11:54:50.975Z</time></trkpt><trkpt lat="41.4809917" lon="2.305915"><ele>43.8</ele><time>2026-04-11T11:54:51.975Z</time></trkpt><trkpt lat="41.4809417" lon="2.3057833"><ele>43.2</ele><time>2026-04-11T11:54:52.975Z</time></trkpt><trkpt lat="41.4808883" lon="2.30565"><ele>42.6</ele><time>2026-04-11T11:54:53.975Z</time></trkpt><trkpt lat="41.4808367" lon="2.3055183"><ele>42.0</ele><time>2026-04-11T11:54:54.975Z</time></trkpt><trkpt lat="41.4807817" lon="2.3054083"><ele>40.4</ele><time>2026-04-11T11:54:55.975Z</time></trkpt><trkpt lat="41.4807317" lon="2.3053133"><ele>38.800000000000004</ele><time>2026-04-11T11:54:56.975Z</time></trkpt><trkpt lat="41.480705" lon="2.305205"><ele>37.2</ele><time>2026-04-11T11:54:57.976Z</time></trkpt><trkpt lat="41.4806533" lon="2.3050517"><ele>35.6</ele><time>2026-04-11T11:54:59.975Z</time></trkpt><trkpt lat="41.4806117" lon="2.3049217"><ele>34.0</ele><time>2026-04-11T11:55:01.975Z</time></trkpt><trkpt lat="41.4805817" lon="2.3048417"><ele>34.0</ele><time>2026-04-11T11:55:04.975Z</time></trkpt><trkpt lat="41.4805133" lon="2.3048217"><ele>34.0</ele><time>2026-04-11T11:55:34.975Z</time></trkpt><trkpt lat="41.4804033" lon="2.3048483"><ele>34.0</ele><time>2026-04-11T11:55:36.975Z</time></trkpt><trkpt lat="41.4803067" lon="2.3049267"><ele>34.0</ele><time>2026-04-11T11:55:38.975Z</time></trkpt><trkpt lat="41.4802217" lon="2.3049633"><ele>34.0</ele><time>2026-04-11T11:55:40.975Z</time></trkpt><trkpt lat="41.4801533" lon="2.3049683"><ele>32.6</ele><time>2026-04-11T11:56:05.975Z</time></trkpt><trkpt lat="41.4800583" lon="2.3049083"><ele>31.2</ele><time>2026-04-11T11:56:07.975Z</time></trkpt><trkpt lat="41.4799983" lon="2.3048483"><ele>29.800000000000004</ele><time>2026-04-11T11:56:08.976Z</time></trkpt><trkpt lat="41.4799283" lon="2.3047583"><ele>28.400000000000002</ele><time>2026-04-11T11:56:09.975Z</time></trkpt><trkpt lat="41.4798567" lon="2.3046483"><ele>27.0</ele><time>2026-04-11T11:56:10.975Z</time></trkpt><trkpt lat="41.4797917" lon="2.30449"><ele>26.5</ele><time>2026-04-11T11:56:11.975Z</time></trkpt><trkpt lat="41.4797383" lon="2.3043333"><ele>26.0</ele><time>2026-04-11T11:56:12.975Z</time></trkpt><trkpt lat="41.4796967" lon="2.3041683"><ele>25.5</ele><time>2026-04-11T11:56:13.975Z</time></trkpt><trkpt lat="41.479665" lon="2.30399"><ele>25.0</ele><time>2026-04-11T11:56:14.975Z</time></trkpt><trkpt lat="41.47964" lon="2.3038083"><ele>26.0</ele><time>2026-04-11T11:56:15.975Z</time></trkpt><trkpt lat="41.4796283" lon="2.3036483"><ele>27.0</ele><time>2026-04-11T11:56:16.975Z</time></trkpt><trkpt lat="41.4796083" lon="2.3034967"><ele>28.0</ele><time>2026-04-11T11:56:17.975Z</time></trkpt><trkpt lat="41.4795733" lon="2.3033533"><ele>29.0</ele><time>2026-04-11T11:56:18.975Z</time></trkpt><trkpt lat="41.47954" lon="2.303195"><ele>30.0</ele><time>2026-04-11T11:56:19.975Z</time></trkpt><trkpt lat="41.4795017" lon="2.3030417"><ele>31.0</ele><time>2026-04-11T11:56:20.975Z</time></trkpt><trkpt lat="41.47945" lon="2.3029133"><ele>32.0</ele><time>2026-04-11T11:56:21.975Z</time></trkpt><trkpt lat="41.4794333" lon="2.302795"><ele>33.0</ele><time>2026-04-11T11:56:22.975Z</time></trkpt><trkpt lat="41.4794367" lon="2.3027"><ele>34.0</ele><time>2026-04-11T11:56:23.975Z</time></trkpt><trkpt lat="41.4793967" lon="2.3025783"><ele>34.0</ele><time>2026-04-11T11:56:25.975Z</time></trkpt><trkpt lat="41.4792633" lon="2.302525"><ele>34.0</ele><time>2026-04-11T11:56:27.975Z</time></trkpt><trkpt lat="41.479165" lon="2.3025133"><ele>34.0</ele><time>2026-04-11T11:56:28.975Z</time></trkpt><trkpt lat="41.4790567" lon="2.3024767"><ele>34.0</ele><time>2026-04-11T11:56:29.975Z</time></trkpt><trkpt lat="41.4789317" lon="2.30244"><ele>34.0</ele><time>2026-04-11T11:56:30.975Z</time></trkpt><trkpt lat="41.4788033" lon="2.3024317"><ele>34.0</ele><time>2026-04-11T11:56:31.975Z</time></trkpt><trkpt lat="41.4786567" lon="2.30244"><ele>34.0</ele><time>2026-04-11T11:56:32.975Z</time></trkpt><trkpt lat="41.4785033" lon="2.3024917"><ele>34.0</ele><time>2026-04-11T11:56:33.975Z</time></trkpt><trkpt lat="41.47835" lon="2.30256"><ele>34.25</ele><time>2026-04-11T11:56:34.975Z</time></trkpt><trkpt lat="41.4782" lon="2.3026167"><ele>34.5</ele><time>2026-04-11T11:56:35.975Z</time></trkpt><trkpt lat="41.4780667" lon="2.3026517"><ele>34.75</ele><time>2026-04-11T11:56:36.975Z</time></trkpt><trkpt lat="41.4779333" lon="2.3026483"><ele>35.0</ele><time>2026-04-11T11:56:37.975Z</time></trkpt><trkpt lat="41.4778067" lon="2.3026017"><ele>34.2</ele><time>2026-04-11T11:56:38.975Z</time></trkpt><trkpt lat="41.4776967" lon="2.3025317"><ele>33.4</ele><time>2026-04-11T11:56:39.975Z</time></trkpt><trkpt lat="41.4776117" lon="2.302425"><ele>32.6</ele><time>2026-04-11T11:56:40.975Z</time></trkpt><trkpt lat="41.4775617" lon="2.3023267"><ele>31.8</ele><time>2026-04-11T11:56:41.975Z</time></trkpt><trkpt lat="41.4775133" lon="2.3022433"><ele>31.0</ele><time>2026-04-11T11:56:42.975Z</time></trkpt><trkpt lat="41.4774517" lon="2.3021783"><ele>31.8</ele><time>2026-04-11T11:56:43.975Z</time></trkpt><trkpt lat="41.4773567" lon="2.3021767"><ele>32.6</ele><time>2026-04-11T11:56:44.975Z</time></trkpt><trkpt lat="41.47725" lon="2.3022033"><ele>33.4</ele><time>2026-04-11T11:56:45.975Z</time></trkpt><trkpt lat="41.4771433" lon="2.302235"><ele>34.2</ele><time>2026-04-11T11:56:46.975Z</time></trkpt><trkpt lat="41.4770533" lon="2.3022283"><ele>35.0</ele><time>2026-04-11T11:56:47.975Z</time></trkpt><trkpt lat="41.47697" lon="2.302195"><ele>35.0</ele><time>2026-04-11T11:56:48.976Z</time></trkpt><trkpt lat="41.4768933" lon="2.30209"><ele>35.0</ele><time>2026-04-11T11:56:49.975Z</time></trkpt><trkpt lat="41.47681" lon="2.3019617"><ele>35.0</ele><time>2026-04-11T11:56:50.975Z</time></trkpt><trkpt lat="41.47672" lon="2.3018583"><ele>35.0</ele><time>2026-04-11T11:56:51.976Z</time></trkpt><trkpt lat="41.47662" lon="2.3018183"><ele>35.0</ele><time>2026-04-11T11:56:52.975Z</time></trkpt><trkpt lat="41.4765033" lon="2.30184"><ele>35.0</ele><time>2026-04-11T11:56:53.975Z</time></trkpt><trkpt lat="41.4763783" lon="2.30188"><ele>35.0</ele><time>2026-04-11T11:56:54.975Z</time></trkpt><trkpt lat="41.4762717" lon="2.3019267"><ele>35.0</ele><time>2026-04-11T11:56:55.975Z</time></trkpt><trkpt lat="41.4761617" lon="2.3019417"><ele>33.6</ele><time>2026-04-11T11:56:56.976Z</time></trkpt><trkpt lat="41.4760717" lon="2.30191"><ele>32.2</ele><time>2026-04-11T11:56:57.975Z</time></trkpt><trkpt lat="41.4760167" lon="2.3018183"><ele>30.799999999999997</ele><time>2026-04-11T11:56:58.975Z</time></trkpt><trkpt lat="41.475995" lon="2.3016833"><ele>29.4</ele><time>2026-04-11T11:56:59.975Z</time></trkpt><trkpt lat="41.4760083" lon="2.30152"><ele>28.0</ele><time>2026-04-11T11:57:00.975Z</time></trkpt><trkpt lat="41.4760233" lon="2.30133"><ele>27.5</ele><time>2026-04-11T11:57:01.975Z</time></trkpt><trkpt lat="41.4760217" lon="2.3011267"><ele>27.0</ele><time>2026-04-11T11:57:02.975Z</time></trkpt><trkpt lat="41.4760267" lon="2.30094"><ele>26.5</ele><time>2026-04-11T11:57:03.975Z</time></trkpt><trkpt lat="41.4760333" lon="2.3007633"><ele>26.0</ele><time>2026-04-11T11:57:04.975Z</time></trkpt><trkpt lat="41.47604" lon="2.30059"><ele>26.5</ele><time>2026-04-11T11:57:05.975Z</time></trkpt><trkpt lat="41.47602" lon="2.3004267"><ele>27.0</ele><time>2026-04-11T11:57:06.975Z</time></trkpt><trkpt lat="41.47598" lon="2.3002817"><ele>27.5</ele><time>2026-04-11T11:57:07.975Z</time></trkpt><trkpt lat="41.4759033" lon="2.3001567"><ele>28.0</ele><time>2026-04-11T11:57:08.975Z</time></trkpt><trkpt lat="41.475825" lon="2.3000283"><ele>28.0</ele><time>2026-04-11T11:57:09.975Z</time></trkpt><trkpt lat="41.4757633" lon="2.29989"><ele>28.0</ele><time>2026-04-11T11:57:10.975Z</time></trkpt><trkpt lat="41.475735" lon="2.29977"><ele>28.0</ele><time>2026-04-11T11:57:11.975Z</time></trkpt><trkpt lat="41.4757417" lon="2.2996133"><ele>28.0</ele><time>2026-04-11T11:57:12.975Z</time></trkpt><trkpt lat="41.47575" lon="2.2994333"><ele>29.5</ele><time>2026-04-11T11:57:13.975Z</time></trkpt><trkpt lat="41.4757733" lon="2.2992483"><ele>31.0</ele><time>2026-04-11T11:57:14.976Z</time></trkpt><trkpt lat="41.4758067" lon="2.2990633"><ele>32.5</ele><time>2026-04-11T11:57:15.975Z</time></trkpt><trkpt lat="41.4758417" lon="2.2988633"><ele>34.0</ele><time>2026-04-11T11:57:16.975Z</time></trkpt><trkpt lat="41.47587" lon="2.2986733"><ele>36.0</ele><time>2026-04-11T11:57:17.975Z</time></trkpt><trkpt lat="41.4759017" lon="2.2984733"><ele>38.0</ele><time>2026-04-11T11:57:18.975Z</time></trkpt><trkpt lat="41.4759433" lon="2.29828"><ele>40.0</ele><time>2026-04-11T11:57:19.975Z</time></trkpt><trkpt lat="41.4760333" lon="2.2981167"><ele>39.5</ele><time>2026-04-11T11:57:20.975Z</time></trkpt><trkpt lat="41.4761233" lon="2.2979817"><ele>39.0</ele><time>2026-04-11T11:57:21.975Z</time></trkpt><trkpt lat="41.4762483" lon="2.2979017"><ele>38.5</ele><time>2026-04-11T11:57:22.975Z</time></trkpt><trkpt lat="41.47634" lon="2.2978467"><ele>38.0</ele><time>2026-04-11T11:57:23.975Z</time></trkpt><trkpt lat="41.4763917" lon="2.2977617"><ele>38.0</ele><time>2026-04-11T11:57:24.975Z</time></trkpt><trkpt lat="41.4764183" lon="2.2976717"><ele>38.0</ele><time>2026-04-11T11:57:25.975Z</time></trkpt><trkpt lat="41.4763417" lon="2.2975533"><ele>38.0</ele><time>2026-04-11T11:57:27.975Z</time></trkpt><trkpt lat="41.476235" lon="2.2975033"><ele>38.0</ele><time>2026-04-11T11:57:28.975Z</time></trkpt><trkpt lat="41.476095" lon="2.2974583"><ele>38.0</ele><time>2026-04-11T11:57:29.975Z</time></trkpt><trkpt lat="41.47595" lon="2.2974133"><ele>38.0</ele><time>2026-04-11T11:57:30.975Z</time></trkpt><trkpt lat="41.475795" lon="2.2973583"><ele>38.0</ele><time>2026-04-11T11:57:31.975Z</time></trkpt><trkpt lat="41.4756217" lon="2.2973183"><ele>38.0</ele><time>2026-04-11T11:57:32.975Z</time></trkpt><trkpt lat="41.47545" lon="2.29729"><ele>37.33333333333333</ele><time>2026-04-11T11:57:33.975Z</time></trkpt><trkpt lat="41.4752767" lon="2.297275"><ele>36.666666666666664</ele><time>2026-04-11T11:57:34.975Z</time></trkpt><trkpt lat="41.47511" lon="2.2972633"><ele>36.0</ele><time>2026-04-11T11:57:35.975Z</time></trkpt><trkpt lat="41.4749317" lon="2.2972633"><ele>36.0</ele><time>2026-04-11T11:57:36.975Z</time></trkpt><trkpt lat="41.4747617" lon="2.2972583"><ele>36.0</ele><time>2026-04-11T11:57:37.975Z</time></trkpt><trkpt lat="41.4746067" lon="2.297255"><ele>36.0</ele><time>2026-04-11T11:57:38.975Z</time></trkpt><trkpt lat="41.4744667" lon="2.2972567"><ele>34.25</ele><time>2026-04-11T11:57:39.975Z</time></trkpt><trkpt lat="41.4743433" lon="2.297255"><ele>32.5</ele><time>2026-04-11T11:57:40.975Z</time></trkpt><trkpt lat="41.4742183" lon="2.2972467"><ele>30.75</ele><time>2026-04-11T11:57:41.975Z</time></trkpt><trkpt lat="41.47409" lon="2.2972233"><ele>29.0</ele><time>2026-04-11T11:57:42.975Z</time></trkpt><trkpt lat="41.4739767" lon="2.2971817"><ele>29.0</ele><time>2026-04-11T11:57:43.975Z</time></trkpt><trkpt lat="41.47387" lon="2.297105"><ele>29.0</ele><time>2026-04-11T11:57:44.975Z</time></trkpt><trkpt lat="41.4737717" lon="2.29699"><ele>29.0</ele><time>2026-04-11T11:57:45.975Z</time></trkpt><trkpt lat="41.4736883" lon="2.2968767"><ele>29.0</ele><time>2026-04-11T11:57:46.975Z</time></trkpt><trkpt lat="41.473625" lon="2.296765"><ele>26.666666666666664</ele><time>2026-04-11T11:57:47.975Z</time></trkpt><trkpt lat="41.4735983" lon="2.2966583"><ele>24.333333333333332</ele><time>2026-04-11T11:57:48.975Z</time></trkpt><trkpt lat="41.4736" lon="2.2965117"><ele>22.0</ele><time>2026-04-11T11:57:50.974Z</time></trkpt><trkpt lat="41.4735933" lon="2.2964267"><ele>19.666666666666664</ele><time>2026-04-11T11:57:52.974Z</time></trkpt><trkpt lat="41.4736133" lon="2.2962917"><ele>17.333333333333332</ele><time>2026-04-11T12:00:43.974Z</time></trkpt><trkpt lat="41.4735733" lon="2.2961883"><ele>15.0</ele><time>2026-04-11T12:00:46.974Z</time></trkpt><trkpt lat="41.4735017" lon="2.2962233"><ele>15.0</ele><time>2026-04-11T12:00:49.974Z</time></trkpt><trkpt lat="41.473435" lon="2.2961833"><ele>15.0</ele><time>2026-04-11T12:01:02.974Z</time></trkpt><trkpt lat="41.4735183" lon="2.2962533"><ele>15.0</ele><time>2026-04-11T12:31:50.969Z</time></trkpt><trkpt lat="41.4735267" lon="2.296365"><ele>15.0</ele><time>2026-04-11T12:32:00.969Z</time></trkpt><trkpt lat="41.47352" lon="2.2962783"><ele>15.0</ele><time>2026-04-11T12:32:36.969Z</time></trkpt><trkpt lat="41.4735717" lon="2.2963833"><ele>15.0</ele><time>2026-04-11T12:34:56.968Z</time></trkpt><trkpt lat="41.4735283" lon="2.2962783"><ele>15.0</ele><time>2026-04-11T12:36:30.968Z</time></trkpt><trkpt lat="41.473515" lon="2.29639"><ele>15.0</ele><time>2026-04-11T12:38:50.968Z</time></trkpt><trkpt lat="41.4735083" lon="2.29629"><ele>15.0</ele><time>2026-04-11T12:39:35.968Z</time></trkpt><trkpt lat="41.4734333" lon="2.296205"><ele>15.0</ele><time>2026-04-11T12:43:20.968Z</time></trkpt><trkpt lat="41.4733517" lon="2.2960783"><ele>15.0</ele><time>2026-04-11T12:43:50.968Z</time></trkpt><trkpt lat="41.4734067" lon="2.2959917"><ele>15.0</ele><time>2026-04-11T12:44:51.967Z</time></trkpt><trkpt lat="41.47341" lon="2.2959"><ele>15.0</ele><time>2026-04-11T12:45:29.967Z</time></trkpt><trkpt lat="41.47328" lon="2.2958967"><ele>15.0</ele><time>2026-04-11T12:46:09.967Z</time></trkpt><trkpt lat="41.4733033" lon="2.29599"><ele>15.0</ele><time>2026-04-11T12:47:04.967Z</time></trkpt><trkpt lat="41.47325" lon="2.2959267"><ele>15.0</ele><time>2026-04-11T12:47:19.967Z</time></trkpt><trkpt lat="41.4733167" lon="2.296025"><ele>15.0</ele><time>2026-04-11T12:47:45.967Z</time></trkpt><trkpt lat="41.47325" lon="2.2960283"><ele>15.0</ele><time>2026-04-11T12:47:57.967Z</time></trkpt><trkpt lat="41.47331" lon="2.2960767"><ele>15.0</ele><time>2026-04-11T12:48:03.967Z</time></trkpt><trkpt lat="41.4732483" lon="2.296035"><ele>15.0</ele><time>2026-04-11T12:48:48.967Z</time></trkpt><trkpt lat="41.47321" lon="2.2959617"><ele>15.0</ele><time>2026-04-11T12:49:22.967Z</time></trkpt><trkpt lat="41.473345" lon="2.296005"><ele>15.0</ele><time>2026-04-11T12:49:46.967Z</time></trkpt><trkpt lat="41.4734133" lon="2.2959617"><ele>15.0</ele><time>2026-04-11T12:49:59.968Z</time></trkpt></trkseg></trk></gpx>